<?xml version='1.0' encoding='UTF-8'?><gpx version="1.1" creator="JPX - https://github.com/jenetics/jpx" xmlns="http://www.topografix.com/GPX/1/1"><trk><trkseg><trkpt lat="38.1056136" lon="15.6414905"><ele>21.0</ele><time>2026-04-25T06:33:36.578Z</time></trkpt><trkpt lat="38.1058772" lon="15.641532"><ele>22.0</ele><time>2026-04-25T06:33:39.98Z</time></trkpt></trkseg><trkseg><trkpt lat="38.1058154" lon="15.6415653"><ele>22.0</ele><time>2026-04-25T07:03:46.934Z</time></trkpt><trkpt lat="38.1058664" lon="15.6415065"><ele>22.0</ele><time>2026-04-25T07:06:37.936Z</time></trkpt><trkpt lat="38.1059091" lon="15.6414453"><ele>22.0</ele><time>2026-04-25T07:07:06.885Z</time></trkpt><trkpt lat="38.1059734" lon="15.641346"><ele>22.0</ele><time>2026-04-25T07:07:08.867Z</time></trkpt><trkpt lat="38.1060058" lon="15.641276"><ele>22.0</ele><time>2026-04-25T07:07:09.893Z</time></trkpt><trkpt lat="38.1060453" lon="15.6411971"><ele>22.0</ele><time>2026-04-25T07:07:10.866Z</time></trkpt><trkpt lat="38.1060937" lon="15.6411234"><ele>22.0</ele><time>2026-04-25T07:07:11.873Z</time></trkpt><trkpt lat="38.106146" lon="15.6410583"><ele>21.666666666666664</ele><time>2026-04-25T07:07:12.874Z</time></trkpt><trkpt lat="38.1061955" lon="15.6409922"><ele>21.333333333333332</ele><time>2026-04-25T07:07:13.882Z</time></trkpt><trkpt lat="38.106237" lon="15.6409281"><ele>21.0</ele><time>2026-04-25T07:07:14.879Z</time></trkpt><trkpt lat="38.1062843" lon="15.6408583"><ele>20.666666666666668</ele><time>2026-04-25T07:07:16.871Z</time></trkpt><trkpt lat="38.1063444" lon="15.6407607"><ele>20.333333333333336</ele><time>2026-04-25T07:07:18.896Z</time></trkpt><trkpt lat="38.1064212" lon="15.6406479"><ele>20.0</ele><time>2026-04-25T07:07:20.867Z</time></trkpt><trkpt lat="38.1064937" lon="15.6405493"><ele>20.0</ele><time>2026-04-25T07:07:22.877Z</time></trkpt><trkpt lat="38.1065464" lon="15.6404678"><ele>20.0</ele><time>2026-04-25T07:07:24.877Z</time></trkpt><trkpt lat="38.1066277" lon="15.6403379"><ele>20.0</ele><time>2026-04-25T07:07:26.895Z</time></trkpt><trkpt lat="38.1066698" lon="15.6402703"><ele>20.0</ele><time>2026-04-25T07:07:27.894Z</time></trkpt><trkpt lat="38.1067225" lon="15.6401706"><ele>20.0</ele><time>2026-04-25T07:07:29.87Z</time></trkpt><trkpt lat="38.106789" lon="15.6400686"><ele>19.428571428571427</ele><time>2026-04-25T07:07:31.875Z</time></trkpt><trkpt lat="38.1068335" lon="15.6399976"><ele>18.857142857142858</ele><time>2026-04-25T07:07:32.867Z</time></trkpt><trkpt lat="38.1068799" lon="15.6399241"><ele>18.285714285714285</ele><time>2026-04-25T07:07:33.87Z</time></trkpt><trkpt lat="38.1069253" lon="15.6398499"><ele>17.714285714285715</ele><time>2026-04-25T07:07:34.868Z</time></trkpt><trkpt lat="38.1069628" lon="15.6397839"><ele>17.142857142857142</ele><time>2026-04-25T07:07:35.875Z</time></trkpt><trkpt lat="38.10702" lon="15.639691"><ele>16.57142857142857</ele><time>2026-04-25T07:07:37.867Z</time></trkpt><trkpt lat="38.1070347" lon="15.6396019"><ele>16.0</ele><time>2026-04-25T07:07:40.886Z</time></trkpt><trkpt lat="38.1069476" lon="15.6394889"><ele>15.166666666666666</ele><time>2026-04-25T07:07:42.877Z</time></trkpt><trkpt lat="38.1068967" lon="15.6394278"><ele>14.333333333333332</ele><time>2026-04-25T07:07:43.895Z</time></trkpt><trkpt lat="38.1068549" lon="15.6393594"><ele>13.5</ele><time>2026-04-25T07:07:44.88Z</time></trkpt><trkpt lat="38.1068017" lon="15.6392971"><ele>12.666666666666666</ele><time>2026-04-25T07:07:45.891Z</time></trkpt><trkpt lat="38.1067421" lon="15.6392354"><ele>11.833333333333332</ele><time>2026-04-25T07:07:46.9Z</time></trkpt><trkpt lat="38.1066727" lon="15.639169"><ele>11.0</ele><time>2026-04-25T07:07:47.91Z</time></trkpt><trkpt lat="38.106607" lon="15.6391047"><ele>11.600000000000001</ele><time>2026-04-25T07:07:49.03Z</time></trkpt><trkpt lat="38.106466" lon="15.6389929"><ele>12.2</ele><time>2026-04-25T07:07:50.898Z</time></trkpt><trkpt lat="38.1063933" lon="15.6389366"><ele>12.799999999999999</ele><time>2026-04-25T07:07:51.882Z</time></trkpt><trkpt lat="38.1063237" lon="15.6388789"><ele>13.399999999999999</ele><time>2026-04-25T07:07:52.881Z</time></trkpt><trkpt lat="38.1062494" lon="15.6388226"><ele>14.0</ele><time>2026-04-25T07:07:53.878Z</time></trkpt><trkpt lat="38.1061713" lon="15.6387637"><ele>14.0</ele><time>2026-04-25T07:07:54.89Z</time></trkpt><trkpt lat="38.1060905" lon="15.6387041"><ele>13.999999999999998</ele><time>2026-04-25T07:07:55.891Z</time></trkpt><trkpt lat="38.106005" lon="15.6386429"><ele>13.999999999999998</ele><time>2026-04-25T07:07:56.882Z</time></trkpt><trkpt lat="38.1059181" lon="15.6385808"><ele>14.0</ele><time>2026-04-25T07:07:57.895Z</time></trkpt><trkpt lat="38.1058343" lon="15.6385155"><ele>14.0</ele><time>2026-04-25T07:07:58.89Z</time></trkpt><trkpt lat="38.1057453" lon="15.6384533"><ele>13.399999999999999</ele><time>2026-04-25T07:07:59.891Z</time></trkpt><trkpt lat="38.1056521" lon="15.6383888"><ele>12.799999999999999</ele><time>2026-04-25T07:08:00.905Z</time></trkpt><trkpt lat="38.10556" lon="15.6383264"><ele>12.2</ele><time>2026-04-25T07:08:01.899Z</time></trkpt><trkpt lat="38.1054655" lon="15.638264"><ele>11.600000000000001</ele><time>2026-04-25T07:08:02.899Z</time></trkpt><trkpt lat="38.1053678" lon="15.6381965"><ele>11.0</ele><time>2026-04-25T07:08:03.899Z</time></trkpt><trkpt lat="38.1052723" lon="15.6381302"><ele>11.0</ele><time>2026-04-25T07:08:04.901Z</time></trkpt><trkpt lat="38.1051747" lon="15.6380653"><ele>11.0</ele><time>2026-04-25T07:08:05.888Z</time></trkpt><trkpt lat="38.1050835" lon="15.637995"><ele>11.0</ele><time>2026-04-25T07:08:06.892Z</time></trkpt><trkpt lat="38.1049967" lon="15.6379261"><ele>11.0</ele><time>2026-04-25T07:08:07.9Z</time></trkpt><trkpt lat="38.1049191" lon="15.6378568"><ele>11.0</ele><time>2026-04-25T07:08:08.901Z</time></trkpt><trkpt lat="38.1048484" lon="15.6377902"><ele>11.666666666666666</ele><time>2026-04-25T07:08:09.891Z</time></trkpt><trkpt lat="38.1047948" lon="15.637738"><ele>12.333333333333332</ele><time>2026-04-25T07:08:10.884Z</time></trkpt><trkpt lat="38.1047166" lon="15.6376723"><ele>13.0</ele><time>2026-04-25T07:08:12.886Z</time></trkpt><trkpt lat="38.1046562" lon="15.6376289"><ele>13.666666666666666</ele><time>2026-04-25T07:08:14.896Z</time></trkpt><trkpt lat="38.1045627" lon="15.6375687"><ele>14.333333333333334</ele><time>2026-04-25T07:08:16.897Z</time></trkpt><trkpt lat="38.1045013" lon="15.6375241"><ele>15.0</ele><time>2026-04-25T07:08:17.891Z</time></trkpt><trkpt lat="38.1044385" lon="15.6374757"><ele>15.0</ele><time>2026-04-25T07:08:18.897Z</time></trkpt><trkpt lat="38.1043827" lon="15.6374253"><ele>15.0</ele><time>2026-04-25T07:08:19.901Z</time></trkpt><trkpt lat="38.1042967" lon="15.6373498"><ele>15.0</ele><time>2026-04-25T07:08:21.897Z</time></trkpt><trkpt lat="38.1042064" lon="15.6372861"><ele>15.0</ele><time>2026-04-25T07:08:23.901Z</time></trkpt><trkpt lat="38.104129" lon="15.6371973"><ele>15.0</ele><time>2026-04-25T07:08:25.902Z</time></trkpt><trkpt lat="38.1040538" lon="15.6371063"><ele>15.333333333333334</ele><time>2026-04-25T07:08:27.901Z</time></trkpt><trkpt lat="38.1039721" lon="15.6370123"><ele>15.666666666666668</ele><time>2026-04-25T07:08:29.897Z</time></trkpt><trkpt lat="38.1039125" lon="15.6369426"><ele>16.0</ele><time>2026-04-25T07:08:31.897Z</time></trkpt><trkpt lat="38.1038574" lon="15.6368657"><ele>16.333333333333336</ele><time>2026-04-25T07:08:34.895Z</time></trkpt><trkpt lat="38.1038113" lon="15.636797"><ele>16.666666666666668</ele><time>2026-04-25T07:08:37.9Z</time></trkpt><trkpt lat="38.103749" lon="15.6367729"><ele>17.0</ele><time>2026-04-25T07:08:42.927Z</time></trkpt><trkpt lat="38.1037125" lon="15.6368505"><ele>16.999999999999996</ele><time>2026-04-25T07:09:24.923Z</time></trkpt><trkpt lat="38.10368" lon="15.6369482"><ele>17.0</ele><time>2026-04-25T07:09:27.919Z</time></trkpt><trkpt lat="38.1036565" lon="15.6370347"><ele>17.0</ele><time>2026-04-25T07:09:29.949Z</time></trkpt><trkpt lat="38.1035991" lon="15.6370848"><ele>17.0</ele><time>2026-04-25T07:09:31.93Z</time></trkpt><trkpt lat="38.1035414" lon="15.6371326"><ele>17.0</ele><time>2026-04-25T07:09:34.85Z</time></trkpt><trkpt lat="38.1034715" lon="15.6371676"><ele>16.999999999999996</ele><time>2026-04-25T07:09:37.93Z</time></trkpt><trkpt lat="38.1034209" lon="15.6372389"><ele>17.0</ele><time>2026-04-25T07:09:41.892Z</time></trkpt><trkpt lat="38.1033597" lon="15.6372856"><ele>17.0</ele><time>2026-04-25T07:09:46.932Z</time></trkpt><trkpt lat="38.1033056" lon="15.6373465"><ele>17.0</ele><time>2026-04-25T07:09:48.939Z</time></trkpt><trkpt lat="38.1032447" lon="15.6374059"><ele>17.0</ele><time>2026-04-25T07:09:50.942Z</time></trkpt><trkpt lat="38.1031262" lon="15.6375517"><ele>17.0</ele><time>2026-04-25T07:09:51.928Z</time></trkpt><trkpt lat="38.1030839" lon="15.6376236"><ele>17.0</ele><time>2026-04-25T07:09:54.936Z</time></trkpt><trkpt lat="38.1030128" lon="15.6376179"><ele>17.333333333333336</ele><time>2026-04-25T07:09:57.935Z</time></trkpt><trkpt lat="38.1029281" lon="15.6375383"><ele>17.666666666666668</ele><time>2026-04-25T07:09:59.927Z</time></trkpt><trkpt lat="38.1028763" lon="15.6374777"><ele>18.0</ele><time>2026-04-25T07:10:00.951Z</time></trkpt><trkpt lat="38.1028243" lon="15.6374091"><ele>18.333333333333332</ele><time>2026-04-25T07:10:01.972Z</time></trkpt><trkpt lat="38.1027687" lon="15.6373298"><ele>18.666666666666664</ele><time>2026-04-25T07:10:02.969Z</time></trkpt><trkpt lat="38.1027105" lon="15.6372558"><ele>19.0</ele><time>2026-04-25T07:10:03.975Z</time></trkpt><trkpt lat="38.1026533" lon="15.6371851"><ele>19.0</ele><time>2026-04-25T07:10:04.937Z</time></trkpt><trkpt lat="38.1025928" lon="15.6371223"><ele>19.0</ele><time>2026-04-25T07:10:05.936Z</time></trkpt><trkpt lat="38.1025328" lon="15.6370579"><ele>19.0</ele><time>2026-04-25T07:10:06.947Z</time></trkpt><trkpt lat="38.1024647" lon="15.6369844"><ele>19.0</ele><time>2026-04-25T07:10:07.937Z</time></trkpt><trkpt lat="38.102397" lon="15.6369107"><ele>19.0</ele><time>2026-04-25T07:10:08.972Z</time></trkpt><trkpt lat="38.1023259" lon="15.6368365"><ele>19.0</ele><time>2026-04-25T07:10:09.936Z</time></trkpt><trkpt lat="38.1022589" lon="15.6367588"><ele>19.4</ele><time>2026-04-25T07:10:10.948Z</time></trkpt><trkpt lat="38.1021935" lon="15.6366756"><ele>19.799999999999997</ele><time>2026-04-25T07:10:11.974Z</time></trkpt><trkpt lat="38.1021243" lon="15.6365866"><ele>20.200000000000003</ele><time>2026-04-25T07:10:12.959Z</time></trkpt><trkpt lat="38.1020549" lon="15.6364976"><ele>20.6</ele><time>2026-04-25T07:10:13.941Z</time></trkpt><trkpt lat="38.1019855" lon="15.6364029"><ele>21.0</ele><time>2026-04-25T07:10:14.969Z</time></trkpt><trkpt lat="38.1019167" lon="15.6363182"><ele>21.0</ele><time>2026-04-25T07:10:15.939Z</time></trkpt><trkpt lat="38.1018546" lon="15.6362373"><ele>21.0</ele><time>2026-04-25T07:10:16.942Z</time></trkpt><trkpt lat="38.1018002" lon="15.6361605"><ele>21.0</ele><time>2026-04-25T07:10:17.943Z</time></trkpt><trkpt lat="38.1017552" lon="15.6360928"><ele>21.0</ele><time>2026-04-25T07:10:18.937Z</time></trkpt><trkpt lat="38.1016886" lon="15.6360119"><ele>21.0</ele><time>2026-04-25T07:10:20.953Z</time></trkpt><trkpt lat="38.101618" lon="15.6359399"><ele>21.0</ele><time>2026-04-25T07:10:22.954Z</time></trkpt><trkpt lat="38.1015291" lon="15.6358378"><ele>19.400000000000002</ele><time>2026-04-25T07:10:24.958Z</time></trkpt><trkpt lat="38.1014867" lon="15.6356963"><ele>17.8</ele><time>2026-04-25T07:10:26.949Z</time></trkpt><trkpt lat="38.1014986" lon="15.63554"><ele>16.200000000000003</ele><time>2026-04-25T07:10:28.943Z</time></trkpt><trkpt lat="38.1015262" lon="15.6354513"><ele>14.600000000000001</ele><time>2026-04-25T07:10:29.95Z</time></trkpt><trkpt lat="38.1015553" lon="15.6353563"><ele>13.0</ele><time>2026-04-25T07:10:30.96Z</time></trkpt><trkpt lat="38.1015877" lon="15.6352557"><ele>12.999999999999998</ele><time>2026-04-25T07:10:31.949Z</time></trkpt><trkpt lat="38.1016177" lon="15.6351595"><ele>13.0</ele><time>2026-04-25T07:10:32.941Z</time></trkpt><trkpt lat="38.1016545" lon="15.6350292"><ele>13.0</ele><time>2026-04-25T07:10:34.955Z</time></trkpt><trkpt lat="38.1016752" lon="15.6349413"><ele>13.0</ele><time>2026-04-25T07:10:36.982Z</time></trkpt><trkpt lat="38.1016586" lon="15.6348554"><ele>12.999999999999998</ele><time>2026-04-25T07:10:40.957Z</time></trkpt><trkpt lat="38.1015476" lon="15.6348574"><ele>13.0</ele><time>2026-04-25T07:10:43.965Z</time></trkpt><trkpt lat="38.1014521" lon="15.6349142"><ele>13.0</ele><time>2026-04-25T07:10:45.955Z</time></trkpt><trkpt lat="38.1013717" lon="15.634974"><ele>13.0</ele><time>2026-04-25T07:10:47.948Z</time></trkpt><trkpt lat="38.1013015" lon="15.6350832"><ele>13.0</ele><time>2026-04-25T07:10:49.987Z</time></trkpt><trkpt lat="38.101263" lon="15.6352354"><ele>13.0</ele><time>2026-04-25T07:10:51.996Z</time></trkpt><trkpt lat="38.1012295" lon="15.6353744"><ele>13.0</ele><time>2026-04-25T07:10:53.958Z</time></trkpt><trkpt lat="38.1012005" lon="15.6355251"><ele>13.0</ele><time>2026-04-25T07:10:55.981Z</time></trkpt><trkpt lat="38.1011907" lon="15.6356173"><ele>13.0</ele><time>2026-04-25T07:10:56.96Z</time></trkpt><trkpt lat="38.1011818" lon="15.6357257"><ele>13.0</ele><time>2026-04-25T07:10:57.959Z</time></trkpt><trkpt lat="38.1011596" lon="15.6358493"><ele>13.0</ele><time>2026-04-25T07:10:58.952Z</time></trkpt><trkpt lat="38.1011353" lon="15.6359713"><ele>13.0</ele><time>2026-04-25T07:10:59.962Z</time></trkpt><trkpt lat="38.10111" lon="15.6360918"><ele>14.0</ele><time>2026-04-25T07:11:00.961Z</time></trkpt><trkpt lat="38.1010888" lon="15.6362145"><ele>15.0</ele><time>2026-04-25T07:11:01.978Z</time></trkpt><trkpt lat="38.1010703" lon="15.6363444"><ele>16.0</ele><time>2026-04-25T07:11:02.958Z</time></trkpt><trkpt lat="38.1010544" lon="15.6364834"><ele>17.0</ele><time>2026-04-25T07:11:03.968Z</time></trkpt><trkpt lat="38.1010391" lon="15.6366261"><ele>18.0</ele><time>2026-04-25T07:11:04.959Z</time></trkpt><trkpt lat="38.1010249" lon="15.6367748"><ele>18.0</ele><time>2026-04-25T07:11:05.956Z</time></trkpt><trkpt lat="38.1010112" lon="15.6369265"><ele>18.0</ele><time>2026-04-25T07:11:06.958Z</time></trkpt><trkpt lat="38.1009971" lon="15.6370786"><ele>18.0</ele><time>2026-04-25T07:11:07.96Z</time></trkpt><trkpt lat="38.1009891" lon="15.637225"><ele>18.0</ele><time>2026-04-25T07:11:08.958Z</time></trkpt><trkpt lat="38.1009789" lon="15.6373682"><ele>17.8</ele><time>2026-04-25T07:11:09.962Z</time></trkpt><trkpt lat="38.1009741" lon="15.6375113"><ele>17.6</ele><time>2026-04-25T07:11:10.961Z</time></trkpt><trkpt lat="38.1009748" lon="15.63765"><ele>17.4</ele><time>2026-04-25T07:11:11.961Z</time></trkpt><trkpt lat="38.1009696" lon="15.6377896"><ele>17.2</ele><time>2026-04-25T07:11:13.011Z</time></trkpt><trkpt lat="38.1009646" lon="15.6379308"><ele>17.0</ele><time>2026-04-25T07:11:13.965Z</time></trkpt><trkpt lat="38.1009613" lon="15.6380767"><ele>16.75</ele><time>2026-04-25T07:11:14.962Z</time></trkpt><trkpt lat="38.1009683" lon="15.638222"><ele>16.5</ele><time>2026-04-25T07:11:15.967Z</time></trkpt><trkpt lat="38.1009789" lon="15.6383715"><ele>16.25</ele><time>2026-04-25T07:11:16.957Z</time></trkpt><trkpt lat="38.1009924" lon="15.6385125"><ele>16.0</ele><time>2026-04-25T07:11:17.968Z</time></trkpt><trkpt lat="38.1010072" lon="15.6386454"><ele>16.333333333333332</ele><time>2026-04-25T07:11:18.958Z</time></trkpt><trkpt lat="38.1010206" lon="15.6387621"><ele>16.666666666666664</ele><time>2026-04-25T07:11:19.975Z</time></trkpt><trkpt lat="38.1010299" lon="15.6388694"><ele>17.0</ele><time>2026-04-25T07:11:20.953Z</time></trkpt><trkpt lat="38.1010376" lon="15.638959"><ele>17.333333333333332</ele><time>2026-04-25T07:11:21.965Z</time></trkpt><trkpt lat="38.1010414" lon="15.6390695"><ele>17.666666666666668</ele><time>2026-04-25T07:11:23.962Z</time></trkpt><trkpt lat="38.1010424" lon="15.6391534"><ele>18.0</ele><time>2026-04-25T07:11:26.975Z</time></trkpt><trkpt lat="38.1010681" lon="15.639302"><ele>18.0</ele><time>2026-04-25T07:11:44.958Z</time></trkpt><trkpt lat="38.1010727" lon="15.6394106"><ele>18.0</ele><time>2026-04-25T07:11:45.967Z</time></trkpt><trkpt lat="38.101077" lon="15.6395327"><ele>18.0</ele><time>2026-04-25T07:11:46.977Z</time></trkpt><trkpt lat="38.1010896" lon="15.6396761"><ele>18.0</ele><time>2026-04-25T07:11:47.96Z</time></trkpt><trkpt lat="38.1010974" lon="15.639831"><ele>18.0</ele><time>2026-04-25T07:11:48.984Z</time></trkpt><trkpt lat="38.1011307" lon="15.6401376"><ele>18.75</ele><time>2026-04-25T07:11:50.866Z</time></trkpt><trkpt lat="38.1011479" lon="15.640302"><ele>19.5</ele><time>2026-04-25T07:11:51.864Z</time></trkpt><trkpt lat="38.1011625" lon="15.6404683"><ele>20.25</ele><time>2026-04-25T07:11:52.961Z</time></trkpt><trkpt lat="38.1011782" lon="15.6406355"><ele>21.0</ele><time>2026-04-25T07:11:53.964Z</time></trkpt><trkpt lat="38.1011928" lon="15.6408047"><ele>21.0</ele><time>2026-04-25T07:11:54.961Z</time></trkpt><trkpt lat="38.1012088" lon="15.6409716"><ele>21.0</ele><time>2026-04-25T07:11:55.96Z</time></trkpt><trkpt lat="38.1012437" lon="15.6413163"><ele>21.0</ele><time>2026-04-25T07:11:57.877Z</time></trkpt><trkpt lat="38.1012563" lon="15.6414751"><ele>22.0</ele><time>2026-04-25T07:11:58.968Z</time></trkpt><trkpt lat="38.1012685" lon="15.6416226"><ele>23.0</ele><time>2026-04-25T07:11:59.955Z</time></trkpt><trkpt lat="38.1012848" lon="15.6417593"><ele>24.0</ele><time>2026-04-25T07:12:00.958Z</time></trkpt><trkpt lat="38.1013004" lon="15.6419038"><ele>25.0</ele><time>2026-04-25T07:12:01.967Z</time></trkpt><trkpt lat="38.1013176" lon="15.642068"><ele>27.0</ele><time>2026-04-25T07:12:02.955Z</time></trkpt><trkpt lat="38.1013364" lon="15.6422565"><ele>29.0</ele><time>2026-04-25T07:12:03.866Z</time></trkpt><trkpt lat="38.1013606" lon="15.6424581"><ele>31.0</ele><time>2026-04-25T07:12:04.858Z</time></trkpt><trkpt lat="38.1013799" lon="15.6426499"><ele>32.0</ele><time>2026-04-25T07:12:05.955Z</time></trkpt><trkpt lat="38.1013952" lon="15.6428311"><ele>33.0</ele><time>2026-04-25T07:12:06.968Z</time></trkpt><trkpt lat="38.1014076" lon="15.6430142"><ele>34.0</ele><time>2026-04-25T07:12:07.956Z</time></trkpt><trkpt lat="38.1014214" lon="15.6431976"><ele>35.0</ele><time>2026-04-25T07:12:08.956Z</time></trkpt><trkpt lat="38.1014397" lon="15.6433802"><ele>35.33333333333333</ele><time>2026-04-25T07:12:09.959Z</time></trkpt><trkpt lat="38.1014756" lon="15.6437485"><ele>35.666666666666664</ele><time>2026-04-25T07:12:11.892Z</time></trkpt><trkpt lat="38.1014865" lon="15.6439307"><ele>36.0</ele><time>2026-04-25T07:12:12.981Z</time></trkpt><trkpt lat="38.1015038" lon="15.6441101"><ele>36.0</ele><time>2026-04-25T07:12:13.955Z</time></trkpt><trkpt lat="38.1015198" lon="15.644277"><ele>36.0</ele><time>2026-04-25T07:12:14.968Z</time></trkpt><trkpt lat="38.1015329" lon="15.6444353"><ele>36.0</ele><time>2026-04-25T07:12:15.958Z</time></trkpt><trkpt lat="38.1015462" lon="15.6445918"><ele>36.0</ele><time>2026-04-25T07:12:16.956Z</time></trkpt><trkpt lat="38.1015566" lon="15.644741"><ele>35.25</ele><time>2026-04-25T07:12:17.862Z</time></trkpt><trkpt lat="38.1015611" lon="15.6448902"><ele>34.5</ele><time>2026-04-25T07:12:18.992Z</time></trkpt><trkpt lat="38.1015669" lon="15.6450443"><ele>33.75</ele><time>2026-04-25T07:12:19.973Z</time></trkpt><trkpt lat="38.1015627" lon="15.6452163"><ele>33.0</ele><time>2026-04-25T07:12:20.977Z</time></trkpt><trkpt lat="38.1015604" lon="15.6454085"><ele>33.0</ele><time>2026-04-25T07:12:21.955Z</time></trkpt><trkpt lat="38.1015583" lon="15.645613"><ele>33.0</ele><time>2026-04-25T07:12:22.962Z</time></trkpt><trkpt lat="38.1015558" lon="15.6458216"><ele>33.0</ele><time>2026-04-25T07:12:23.962Z</time></trkpt><trkpt lat="38.1015466" lon="15.646219"><ele>34.666666666666664</ele><time>2026-04-25T07:12:25.987Z</time></trkpt><trkpt lat="38.1015404" lon="15.6464078"><ele>36.33333333333333</ele><time>2026-04-25T07:12:26.967Z</time></trkpt><trkpt lat="38.1015332" lon="15.6466105"><ele>38.0</ele><time>2026-04-25T07:12:27.963Z</time></trkpt><trkpt lat="38.1015215" lon="15.6468174"><ele>37.0</ele><time>2026-04-25T07:12:28.956Z</time></trkpt><trkpt lat="38.1015064" lon="15.647013"><ele>36.0</ele><time>2026-04-25T07:12:29.984Z</time></trkpt><trkpt lat="38.1014902" lon="15.6472019"><ele>35.0</ele><time>2026-04-25T07:12:30.966Z</time></trkpt><trkpt lat="38.1014538" lon="15.6475785"><ele>35.0</ele><time>2026-04-25T07:12:32.875Z</time></trkpt><trkpt lat="38.1014368" lon="15.647772"><ele>35.0</ele><time>2026-04-25T07:12:33.868Z</time></trkpt><trkpt lat="38.1014186" lon="15.6479703"><ele>35.0</ele><time>2026-04-25T07:12:34.969Z</time></trkpt><trkpt lat="38.1014034" lon="15.6481649"><ele>36.33333333333333</ele><time>2026-04-25T07:12:35.959Z</time></trkpt><trkpt lat="38.1013844" lon="15.6483628"><ele>37.666666666666664</ele><time>2026-04-25T07:12:36.975Z</time></trkpt><trkpt lat="38.101363" lon="15.648564"><ele>39.0</ele><time>2026-04-25T07:12:37.975Z</time></trkpt><trkpt lat="38.1013204" lon="15.6489737"><ele>40.0</ele><time>2026-04-25T07:12:39.883Z</time></trkpt><trkpt lat="38.1012904" lon="15.6491731"><ele>41.0</ele><time>2026-04-25T07:12:40.869Z</time></trkpt><trkpt lat="38.1012633" lon="15.649369"><ele>42.0</ele><time>2026-04-25T07:12:41.878Z</time></trkpt><trkpt lat="38.1012357" lon="15.649557"><ele>42.0</ele><time>2026-04-25T07:12:42.97Z</time></trkpt><trkpt lat="38.1012149" lon="15.6497509"><ele>42.0</ele><time>2026-04-25T07:12:43.98Z</time></trkpt><trkpt lat="38.1011919" lon="15.6499416"><ele>42.0</ele><time>2026-04-25T07:12:44.961Z</time></trkpt><trkpt lat="38.1011677" lon="15.6501358"><ele>41.666666666666664</ele><time>2026-04-25T07:12:45.863Z</time></trkpt><trkpt lat="38.1011462" lon="15.650339"><ele>41.33333333333333</ele><time>2026-04-25T07:12:46.872Z</time></trkpt><trkpt lat="38.1011269" lon="15.6505431"><ele>41.0</ele><time>2026-04-25T07:12:47.866Z</time></trkpt><trkpt lat="38.1011047" lon="15.6507401"><ele>41.0</ele><time>2026-04-25T07:12:48.96Z</time></trkpt><trkpt lat="38.1010827" lon="15.6509344"><ele>41.0</ele><time>2026-04-25T07:12:49.959Z</time></trkpt><trkpt lat="38.1010598" lon="15.6511203"><ele>41.0</ele><time>2026-04-25T07:12:50.965Z</time></trkpt><trkpt lat="38.1009996" lon="15.6515064"><ele>42.0</ele><time>2026-04-25T07:12:52.87Z</time></trkpt><trkpt lat="38.1009657" lon="15.6517002"><ele>43.0</ele><time>2026-04-25T07:12:53.871Z</time></trkpt><trkpt lat="38.1009304" lon="15.6518918"><ele>44.0</ele><time>2026-04-25T07:12:54.964Z</time></trkpt><trkpt lat="38.1008949" lon="15.6520847"><ele>44.33333333333333</ele><time>2026-04-25T07:12:55.966Z</time></trkpt><trkpt lat="38.1008621" lon="15.6522751"><ele>44.666666666666664</ele><time>2026-04-25T07:12:56.976Z</time></trkpt><trkpt lat="38.100828" lon="15.652462"><ele>45.0</ele><time>2026-04-25T07:12:57.967Z</time></trkpt><trkpt lat="38.1007633" lon="15.6528477"><ele>45.333333333333336</ele><time>2026-04-25T07:12:59.87Z</time></trkpt><trkpt lat="38.1007275" lon="15.6530419"><ele>45.66666666666667</ele><time>2026-04-25T07:13:00.882Z</time></trkpt><trkpt lat="38.1006903" lon="15.6532381"><ele>46.0</ele><time>2026-04-25T07:13:01.864Z</time></trkpt><trkpt lat="38.100655" lon="15.6534275"><ele>46.0</ele><time>2026-04-25T07:13:02.958Z</time></trkpt><trkpt lat="38.1006194" lon="15.6535999"><ele>46.0</ele><time>2026-04-25T07:13:03.961Z</time></trkpt><trkpt lat="38.1005843" lon="15.6537612"><ele>46.0</ele><time>2026-04-25T07:13:04.962Z</time></trkpt><trkpt lat="38.1005255" lon="15.6540631"><ele>46.75</ele><time>2026-04-25T07:13:06.872Z</time></trkpt><trkpt lat="38.100496" lon="15.6542162"><ele>47.5</ele><time>2026-04-25T07:13:07.864Z</time></trkpt><trkpt lat="38.1004658" lon="15.6543777"><ele>48.25</ele><time>2026-04-25T07:13:08.869Z</time></trkpt><trkpt lat="38.1004409" lon="15.6545428"><ele>49.0</ele><time>2026-04-25T07:13:09.875Z</time></trkpt><trkpt lat="38.1004118" lon="15.654709"><ele>50.0</ele><time>2026-04-25T07:13:10.96Z</time></trkpt><trkpt lat="38.1003823" lon="15.6548719"><ele>51.0</ele><time>2026-04-25T07:13:11.956Z</time></trkpt><trkpt lat="38.1003255" lon="15.655199"><ele>52.0</ele><time>2026-04-25T07:13:13.865Z</time></trkpt><trkpt lat="38.1002969" lon="15.6553634"><ele>53.2</ele><time>2026-04-25T07:13:14.866Z</time></trkpt><trkpt lat="38.1002659" lon="15.6555207"><ele>54.400000000000006</ele><time>2026-04-25T07:13:15.866Z</time></trkpt><trkpt lat="38.1002321" lon="15.6556661"><ele>55.599999999999994</ele><time>2026-04-25T07:13:16.871Z</time></trkpt><trkpt lat="38.1001989" lon="15.6557948"><ele>56.8</ele><time>2026-04-25T07:13:17.952Z</time></trkpt><trkpt lat="38.1001664" lon="15.6558917"><ele>58.0</ele><time>2026-04-25T07:13:18.957Z</time></trkpt><trkpt lat="38.100123" lon="15.655958"><ele>57.99999999999999</ele><time>2026-04-25T07:13:19.868Z</time></trkpt><trkpt lat="38.1000708" lon="15.6560096"><ele>58.0</ele><time>2026-04-25T07:13:20.876Z</time></trkpt><trkpt lat="38.0999959" lon="15.6560746"><ele>58.0</ele><time>2026-04-25T07:13:22.86Z</time></trkpt><trkpt lat="38.0999761" lon="15.6561944"><ele>58.0</ele><time>2026-04-25T07:17:41.936Z</time></trkpt><trkpt lat="38.0999777" lon="15.6562898"><ele>57.99999999999999</ele><time>2026-04-25T07:17:43.938Z</time></trkpt><trkpt lat="38.1000038" lon="15.656377"><ele>58.0</ele><time>2026-04-25T07:17:45.966Z</time></trkpt><trkpt lat="38.1000179" lon="15.6565045"><ele>58.8</ele><time>2026-04-25T07:17:47.941Z</time></trkpt><trkpt lat="38.1000058" lon="15.6566639"><ele>59.599999999999994</ele><time>2026-04-25T07:17:49.94Z</time></trkpt><trkpt lat="38.0999896" lon="15.656764"><ele>60.400000000000006</ele><time>2026-04-25T07:17:50.96Z</time></trkpt><trkpt lat="38.09997" lon="15.6568754"><ele>61.2</ele><time>2026-04-25T07:17:51.941Z</time></trkpt><trkpt lat="38.0999497" lon="15.656993"><ele>62.0</ele><time>2026-04-25T07:17:52.945Z</time></trkpt><trkpt lat="38.0999272" lon="15.6571141"><ele>61.6</ele><time>2026-04-25T07:17:53.957Z</time></trkpt><trkpt lat="38.0998989" lon="15.6572389"><ele>61.2</ele><time>2026-04-25T07:17:54.95Z</time></trkpt><trkpt lat="38.0998737" lon="15.6573755"><ele>60.8</ele><time>2026-04-25T07:17:55.948Z</time></trkpt><trkpt lat="38.0998477" lon="15.6575204"><ele>60.4</ele><time>2026-04-25T07:17:56.961Z</time></trkpt><trkpt lat="38.0998218" lon="15.6576624"><ele>60.0</ele><time>2026-04-25T07:17:57.958Z</time></trkpt><trkpt lat="38.0998018" lon="15.657805"><ele>61.6</ele><time>2026-04-25T07:17:58.952Z</time></trkpt><trkpt lat="38.0997917" lon="15.6579528"><ele>63.2</ele><time>2026-04-25T07:17:59.946Z</time></trkpt><trkpt lat="38.0997925" lon="15.6581017"><ele>64.8</ele><time>2026-04-25T07:18:00.963Z</time></trkpt><trkpt lat="38.0997988" lon="15.6582414"><ele>66.4</ele><time>2026-04-25T07:18:01.948Z</time></trkpt><trkpt lat="38.099809" lon="15.6583725"><ele>68.0</ele><time>2026-04-25T07:18:02.945Z</time></trkpt><trkpt lat="38.0998224" lon="15.6584981"><ele>68.0</ele><time>2026-04-25T07:18:03.948Z</time></trkpt><trkpt lat="38.0998371" lon="15.6586118"><ele>68.0</ele><time>2026-04-25T07:18:04.96Z</time></trkpt><trkpt lat="38.0998485" lon="15.658715"><ele>68.0</ele><time>2026-04-25T07:18:05.951Z</time></trkpt><trkpt lat="38.0998574" lon="15.6588168"><ele>68.0</ele><time>2026-04-25T07:18:06.975Z</time></trkpt><trkpt lat="38.0998599" lon="15.6589211"><ele>68.0</ele><time>2026-04-25T07:18:07.947Z</time></trkpt><trkpt lat="38.099854" lon="15.6590294"><ele>68.0</ele><time>2026-04-25T07:18:08.954Z</time></trkpt><trkpt lat="38.0998323" lon="15.6591344"><ele>69.4</ele><time>2026-04-25T07:18:09.958Z</time></trkpt><trkpt lat="38.0997909" lon="15.6592283"><ele>70.8</ele><time>2026-04-25T07:18:10.967Z</time></trkpt><trkpt lat="38.0997259" lon="15.6593081"><ele>72.2</ele><time>2026-04-25T07:18:11.959Z</time></trkpt><trkpt lat="38.0996537" lon="15.6593732"><ele>73.6</ele><time>2026-04-25T07:18:12.958Z</time></trkpt><trkpt lat="38.0995671" lon="15.6594177"><ele>75.0</ele><time>2026-04-25T07:18:13.866Z</time></trkpt><trkpt lat="38.0994677" lon="15.6594358"><ele>75.0</ele><time>2026-04-25T07:18:14.878Z</time></trkpt><trkpt lat="38.0993575" lon="15.6594493"><ele>75.0</ele><time>2026-04-25T07:18:15.859Z</time></trkpt><trkpt lat="38.0992409" lon="15.6594648"><ele>75.0</ele><time>2026-04-25T07:18:16.872Z</time></trkpt><trkpt lat="38.099112" lon="15.6594821"><ele>75.0</ele><time>2026-04-25T07:18:17.859Z</time></trkpt><trkpt lat="38.0989782" lon="15.659493"><ele>78.0</ele><time>2026-04-25T07:18:18.858Z</time></trkpt><trkpt lat="38.0988531" lon="15.6594928"><ele>81.0</ele><time>2026-04-25T07:18:19.859Z</time></trkpt><trkpt lat="38.0987354" lon="15.6594892"><ele>84.0</ele><time>2026-04-25T07:18:20.868Z</time></trkpt><trkpt lat="38.0986107" lon="15.6594762"><ele>87.0</ele><time>2026-04-25T07:18:21.861Z</time></trkpt><trkpt lat="38.0984714" lon="15.6594722"><ele>87.0</ele><time>2026-04-25T07:18:22.87Z</time></trkpt><trkpt lat="38.0983306" lon="15.6594607"><ele>87.0</ele><time>2026-04-25T07:18:23.858Z</time></trkpt><trkpt lat="38.0981922" lon="15.6594444"><ele>87.0</ele><time>2026-04-25T07:18:24.874Z</time></trkpt><trkpt lat="38.0980501" lon="15.6594265"><ele>87.0</ele><time>2026-04-25T07:18:25.877Z</time></trkpt><trkpt lat="38.0979009" lon="15.6594007"><ele>87.0</ele><time>2026-04-25T07:18:26.868Z</time></trkpt><trkpt lat="38.097749" lon="15.659368"><ele>87.0</ele><time>2026-04-25T07:18:27.866Z</time></trkpt><trkpt lat="38.0975928" lon="15.6593332"><ele>87.0</ele><time>2026-04-25T07:18:28.88Z</time></trkpt><trkpt lat="38.097433" lon="15.6592961"><ele>90.0</ele><time>2026-04-25T07:18:29.876Z</time></trkpt><trkpt lat="38.097276" lon="15.659258"><ele>93.0</ele><time>2026-04-25T07:18:30.88Z</time></trkpt><trkpt lat="38.0971195" lon="15.6592239"><ele>96.0</ele><time>2026-04-25T07:18:31.867Z</time></trkpt><trkpt lat="38.0969637" lon="15.6591905"><ele>96.0</ele><time>2026-04-25T07:18:32.869Z</time></trkpt><trkpt lat="38.0968111" lon="15.6591568"><ele>96.0</ele><time>2026-04-25T07:18:33.865Z</time></trkpt><trkpt lat="38.0966602" lon="15.6591241"><ele>96.0</ele><time>2026-04-25T07:18:34.9Z</time></trkpt><trkpt lat="38.0965033" lon="15.6590872"><ele>97.0</ele><time>2026-04-25T07:18:35.871Z</time></trkpt><trkpt lat="38.0963425" lon="15.6590487"><ele>98.0</ele><time>2026-04-25T07:18:36.884Z</time></trkpt><trkpt lat="38.0961812" lon="15.6590069"><ele>99.0</ele><time>2026-04-25T07:18:37.872Z</time></trkpt><trkpt lat="38.0960147" lon="15.6589714"><ele>99.0</ele><time>2026-04-25T07:18:38.872Z</time></trkpt><trkpt lat="38.0958543" lon="15.6589443"><ele>99.0</ele><time>2026-04-25T07:18:39.886Z</time></trkpt><trkpt lat="38.0956984" lon="15.6589208"><ele>99.0</ele><time>2026-04-25T07:18:40.88Z</time></trkpt><trkpt lat="38.0955394" lon="15.6589021"><ele>100.0</ele><time>2026-04-25T07:18:41.884Z</time></trkpt><trkpt lat="38.095376" lon="15.658894"><ele>101.0</ele><time>2026-04-25T07:18:42.883Z</time></trkpt><trkpt lat="38.0952099" lon="15.6588934"><ele>102.0</ele><time>2026-04-25T07:18:43.876Z</time></trkpt><trkpt lat="38.0950435" lon="15.6588968"><ele>101.33333333333334</ele><time>2026-04-25T07:18:44.886Z</time></trkpt><trkpt lat="38.0948758" lon="15.6589072"><ele>100.66666666666667</ele><time>2026-04-25T07:18:45.89Z</time></trkpt><trkpt lat="38.0947084" lon="15.6589279"><ele>100.0</ele><time>2026-04-25T07:18:46.879Z</time></trkpt><trkpt lat="38.0945385" lon="15.6589545"><ele>100.0</ele><time>2026-04-25T07:18:47.877Z</time></trkpt><trkpt lat="38.0943705" lon="15.6589897"><ele>100.0</ele><time>2026-04-25T07:18:48.895Z</time></trkpt><trkpt lat="38.0942105" lon="15.6590298"><ele>100.0</ele><time>2026-04-25T07:18:49.892Z</time></trkpt><trkpt lat="38.0940531" lon="15.6590839"><ele>99.66666666666667</ele><time>2026-04-25T07:18:50.896Z</time></trkpt><trkpt lat="38.0938866" lon="15.659136"><ele>99.33333333333334</ele><time>2026-04-25T07:18:51.887Z</time></trkpt><trkpt lat="38.0937117" lon="15.6591863"><ele>99.0</ele><time>2026-04-25T07:18:52.876Z</time></trkpt><trkpt lat="38.0935365" lon="15.6592404"><ele>99.0</ele><time>2026-04-25T07:18:53.881Z</time></trkpt><trkpt lat="38.0933643" lon="15.6592967"><ele>99.0</ele><time>2026-04-25T07:18:54.886Z</time></trkpt><trkpt lat="38.0932077" lon="15.6593393"><ele>99.0</ele><time>2026-04-25T07:18:55.884Z</time></trkpt><trkpt lat="38.093052" lon="15.6593873"><ele>98.66666666666666</ele><time>2026-04-25T07:18:56.901Z</time></trkpt><trkpt lat="38.0929006" lon="15.6594303"><ele>98.33333333333333</ele><time>2026-04-25T07:18:57.896Z</time></trkpt><trkpt lat="38.0927559" lon="15.6594745"><ele>98.0</ele><time>2026-04-25T07:18:58.907Z</time></trkpt><trkpt lat="38.0926101" lon="15.6595281"><ele>98.0</ele><time>2026-04-25T07:18:59.897Z</time></trkpt><trkpt lat="38.0924645" lon="15.6595902"><ele>98.0</ele><time>2026-04-25T07:19:00.905Z</time></trkpt><trkpt lat="38.0923132" lon="15.6596512"><ele>98.0</ele><time>2026-04-25T07:19:01.906Z</time></trkpt><trkpt lat="38.0921621" lon="15.6597116"><ele>97.0</ele><time>2026-04-25T07:19:02.893Z</time></trkpt><trkpt lat="38.0920125" lon="15.6597722"><ele>96.0</ele><time>2026-04-25T07:19:03.892Z</time></trkpt><trkpt lat="38.0918592" lon="15.6598429"><ele>95.0</ele><time>2026-04-25T07:19:04.899Z</time></trkpt><trkpt lat="38.091706" lon="15.6599185"><ele>91.0</ele><time>2026-04-25T07:19:05.887Z</time></trkpt><trkpt lat="38.0915498" lon="15.659998"><ele>87.0</ele><time>2026-04-25T07:19:06.913Z</time></trkpt><trkpt lat="38.0913947" lon="15.6600793"><ele>83.0</ele><time>2026-04-25T07:19:07.887Z</time></trkpt><trkpt lat="38.0912414" lon="15.6601702"><ele>83.0</ele><time>2026-04-25T07:19:08.887Z</time></trkpt><trkpt lat="38.091086" lon="15.6602609"><ele>83.0</ele><time>2026-04-25T07:19:09.889Z</time></trkpt><trkpt lat="38.0909412" lon="15.660356"><ele>83.0</ele><time>2026-04-25T07:19:10.883Z</time></trkpt><trkpt lat="38.0907952" lon="15.6604513"><ele>81.33333333333334</ele><time>2026-04-25T07:19:11.886Z</time></trkpt><trkpt lat="38.0906518" lon="15.6605489"><ele>79.66666666666667</ele><time>2026-04-25T07:19:12.89Z</time></trkpt><trkpt lat="38.0905026" lon="15.6606446"><ele>78.0</ele><time>2026-04-25T07:19:13.883Z</time></trkpt><trkpt lat="38.090347" lon="15.6607338"><ele>78.0</ele><time>2026-04-25T07:19:14.899Z</time></trkpt><trkpt lat="38.0902004" lon="15.6608283"><ele>78.0</ele><time>2026-04-25T07:19:15.906Z</time></trkpt><trkpt lat="38.0900557" lon="15.6609191"><ele>78.0</ele><time>2026-04-25T07:19:16.898Z</time></trkpt><trkpt lat="38.0899138" lon="15.6610141"><ele>78.0</ele><time>2026-04-25T07:19:17.888Z</time></trkpt><trkpt lat="38.0897693" lon="15.6611057"><ele>78.0</ele><time>2026-04-25T07:19:18.896Z</time></trkpt><trkpt lat="38.0896274" lon="15.6611966"><ele>78.0</ele><time>2026-04-25T07:19:19.895Z</time></trkpt><trkpt lat="38.0894815" lon="15.6612895"><ele>78.0</ele><time>2026-04-25T07:19:20.893Z</time></trkpt><trkpt lat="38.0893349" lon="15.6613845"><ele>78.0</ele><time>2026-04-25T07:19:21.896Z</time></trkpt><trkpt lat="38.0891918" lon="15.6614795"><ele>78.0</ele><time>2026-04-25T07:19:22.897Z</time></trkpt><trkpt lat="38.0890445" lon="15.6615717"><ele>76.0</ele><time>2026-04-25T07:19:23.906Z</time></trkpt><trkpt lat="38.0888972" lon="15.6616632"><ele>74.0</ele><time>2026-04-25T07:19:24.894Z</time></trkpt><trkpt lat="38.0887521" lon="15.6617554"><ele>72.0</ele><time>2026-04-25T07:19:25.903Z</time></trkpt><trkpt lat="38.0886047" lon="15.6618494"><ele>72.0</ele><time>2026-04-25T07:19:26.898Z</time></trkpt><trkpt lat="38.0884543" lon="15.6619382"><ele>72.0</ele><time>2026-04-25T07:19:27.909Z</time></trkpt><trkpt lat="38.0883092" lon="15.6620333"><ele>72.0</ele><time>2026-04-25T07:19:28.894Z</time></trkpt><trkpt lat="38.0881637" lon="15.6621272"><ele>71.33333333333333</ele><time>2026-04-25T07:19:29.951Z</time></trkpt><trkpt lat="38.0880158" lon="15.6622203"><ele>70.66666666666666</ele><time>2026-04-25T07:19:30.912Z</time></trkpt><trkpt lat="38.087868" lon="15.6623128"><ele>70.0</ele><time>2026-04-25T07:19:31.948Z</time></trkpt><trkpt lat="38.0877207" lon="15.6624068"><ele>70.0</ele><time>2026-04-25T07:19:32.903Z</time></trkpt><trkpt lat="38.0875687" lon="15.6625044"><ele>70.0</ele><time>2026-04-25T07:19:33.906Z</time></trkpt><trkpt lat="38.0874163" lon="15.6626036"><ele>70.0</ele><time>2026-04-25T07:19:34.908Z</time></trkpt><trkpt lat="38.0872671" lon="15.6626958"><ele>70.33333333333333</ele><time>2026-04-25T07:19:35.913Z</time></trkpt><trkpt lat="38.0871207" lon="15.6627856"><ele>70.66666666666667</ele><time>2026-04-25T07:19:36.909Z</time></trkpt><trkpt lat="38.0869681" lon="15.6628792"><ele>71.0</ele><time>2026-04-25T07:19:37.922Z</time></trkpt><trkpt lat="38.0868075" lon="15.6629828"><ele>71.0</ele><time>2026-04-25T07:19:38.914Z</time></trkpt><trkpt lat="38.0866339" lon="15.6630948"><ele>71.0</ele><time>2026-04-25T07:19:39.915Z</time></trkpt><trkpt lat="38.086459" lon="15.6632034"><ele>71.0</ele><time>2026-04-25T07:19:40.952Z</time></trkpt><trkpt lat="38.0862915" lon="15.6633098"><ele>71.33333333333334</ele><time>2026-04-25T07:19:41.909Z</time></trkpt><trkpt lat="38.0861301" lon="15.6634081"><ele>71.66666666666667</ele><time>2026-04-25T07:19:42.913Z</time></trkpt><trkpt lat="38.0859768" lon="15.6635027"><ele>72.0</ele><time>2026-04-25T07:19:43.909Z</time></trkpt><trkpt lat="38.0858249" lon="15.6635935"><ele>75.0</ele><time>2026-04-25T07:19:44.92Z</time></trkpt><trkpt lat="38.0856667" lon="15.6636809"><ele>78.0</ele><time>2026-04-25T07:19:45.923Z</time></trkpt><trkpt lat="38.0855032" lon="15.663764"><ele>81.0</ele><time>2026-04-25T07:19:46.924Z</time></trkpt><trkpt lat="38.0853334" lon="15.6638404"><ele>81.0</ele><time>2026-04-25T07:19:47.921Z</time></trkpt><trkpt lat="38.085168" lon="15.6639053"><ele>81.0</ele><time>2026-04-25T07:19:48.929Z</time></trkpt><trkpt lat="38.0850052" lon="15.6639642"><ele>81.0</ele><time>2026-04-25T07:19:49.923Z</time></trkpt><trkpt lat="38.0848403" lon="15.664018"><ele>80.0</ele><time>2026-04-25T07:19:50.924Z</time></trkpt><trkpt lat="38.0846722" lon="15.6640701"><ele>79.0</ele><time>2026-04-25T07:19:51.927Z</time></trkpt><trkpt lat="38.0845079" lon="15.6641148"><ele>78.0</ele><time>2026-04-25T07:19:52.932Z</time></trkpt><trkpt lat="38.0843441" lon="15.6641551"><ele>78.0</ele><time>2026-04-25T07:19:53.926Z</time></trkpt><trkpt lat="38.0841751" lon="15.6641789"><ele>78.0</ele><time>2026-04-25T07:19:54.947Z</time></trkpt><trkpt lat="38.0840052" lon="15.6641954"><ele>78.0</ele><time>2026-04-25T07:19:55.933Z</time></trkpt><trkpt lat="38.0838368" lon="15.6642003"><ele>77.0</ele><time>2026-04-25T07:19:56.933Z</time></trkpt><trkpt lat="38.083661" lon="15.6642058"><ele>76.0</ele><time>2026-04-25T07:19:57.93Z</time></trkpt><trkpt lat="38.0834822" lon="15.6642123"><ele>75.0</ele><time>2026-04-25T07:19:58.965Z</time></trkpt><trkpt lat="38.0833076" lon="15.664219"><ele>73.66666666666667</ele><time>2026-04-25T07:19:59.942Z</time></trkpt><trkpt lat="38.0831352" lon="15.6642228"><ele>72.33333333333334</ele><time>2026-04-25T07:20:00.935Z</time></trkpt><trkpt lat="38.0829674" lon="15.664228"><ele>71.0</ele><time>2026-04-25T07:20:01.942Z</time></trkpt><trkpt lat="38.0828048" lon="15.6642363"><ele>71.0</ele><time>2026-04-25T07:20:02.927Z</time></trkpt><trkpt lat="38.0826342" lon="15.6642407"><ele>71.0</ele><time>2026-04-25T07:20:03.929Z</time></trkpt><trkpt lat="38.0824666" lon="15.6642458"><ele>71.0</ele><time>2026-04-25T07:20:04.945Z</time></trkpt><trkpt lat="38.0823007" lon="15.6642512"><ele>70.66666666666667</ele><time>2026-04-25T07:20:05.943Z</time></trkpt><trkpt lat="38.0821351" lon="15.6642571"><ele>70.33333333333333</ele><time>2026-04-25T07:20:06.938Z</time></trkpt><trkpt lat="38.0819682" lon="15.6642651"><ele>70.0</ele><time>2026-04-25T07:20:07.938Z</time></trkpt><trkpt lat="38.0818044" lon="15.6642712"><ele>70.0</ele><time>2026-04-25T07:20:08.934Z</time></trkpt><trkpt lat="38.0816422" lon="15.664281"><ele>70.0</ele><time>2026-04-25T07:20:09.935Z</time></trkpt><trkpt lat="38.0814787" lon="15.6642908"><ele>70.0</ele><time>2026-04-25T07:20:10.944Z</time></trkpt><trkpt lat="38.0813156" lon="15.6643006"><ele>69.66666666666666</ele><time>2026-04-25T07:20:11.953Z</time></trkpt><trkpt lat="38.0811504" lon="15.6643065"><ele>69.33333333333333</ele><time>2026-04-25T07:20:12.941Z</time></trkpt><trkpt lat="38.0809836" lon="15.6643166"><ele>69.0</ele><time>2026-04-25T07:20:13.944Z</time></trkpt><trkpt lat="38.0808171" lon="15.6643225"><ele>67.66666666666667</ele><time>2026-04-25T07:20:14.942Z</time></trkpt><trkpt lat="38.0806491" lon="15.6643308"><ele>66.33333333333334</ele><time>2026-04-25T07:20:15.937Z</time></trkpt><trkpt lat="38.0804808" lon="15.6643353"><ele>65.0</ele><time>2026-04-25T07:20:16.954Z</time></trkpt><trkpt lat="38.0803155" lon="15.6643393"><ele>65.0</ele><time>2026-04-25T07:20:17.955Z</time></trkpt><trkpt lat="38.0801535" lon="15.6643488"><ele>65.0</ele><time>2026-04-25T07:20:18.945Z</time></trkpt><trkpt lat="38.0799935" lon="15.6643518"><ele>65.0</ele><time>2026-04-25T07:20:19.946Z</time></trkpt><trkpt lat="38.079837" lon="15.6643552"><ele>63.333333333333336</ele><time>2026-04-25T07:20:20.967Z</time></trkpt><trkpt lat="38.0796806" lon="15.6643596"><ele>61.66666666666667</ele><time>2026-04-25T07:20:21.946Z</time></trkpt><trkpt lat="38.07952" lon="15.6643667"><ele>60.0</ele><time>2026-04-25T07:20:22.951Z</time></trkpt><trkpt lat="38.0793564" lon="15.6643737"><ele>60.0</ele><time>2026-04-25T07:20:23.948Z</time></trkpt><trkpt lat="38.0791883" lon="15.664381"><ele>60.0</ele><time>2026-04-25T07:20:24.946Z</time></trkpt><trkpt lat="38.0790217" lon="15.6643829"><ele>60.0</ele><time>2026-04-25T07:20:25.945Z</time></trkpt><trkpt lat="38.0788535" lon="15.6643849"><ele>58.66666666666667</ele><time>2026-04-25T07:20:26.952Z</time></trkpt><trkpt lat="38.0786839" lon="15.664388"><ele>57.333333333333336</ele><time>2026-04-25T07:20:27.944Z</time></trkpt><trkpt lat="38.078515" lon="15.6643888"><ele>56.0</ele><time>2026-04-25T07:20:28.958Z</time></trkpt><trkpt lat="38.0783474" lon="15.6643936"><ele>55.66666666666667</ele><time>2026-04-25T07:20:29.937Z</time></trkpt><trkpt lat="38.0781847" lon="15.664398"><ele>55.33333333333333</ele><time>2026-04-25T07:20:30.941Z</time></trkpt><trkpt lat="38.0780237" lon="15.6644011"><ele>55.0</ele><time>2026-04-25T07:20:31.941Z</time></trkpt><trkpt lat="38.0778634" lon="15.6644068"><ele>55.0</ele><time>2026-04-25T07:20:32.947Z</time></trkpt><trkpt lat="38.0777022" lon="15.6644135"><ele>55.0</ele><time>2026-04-25T07:20:33.955Z</time></trkpt><trkpt lat="38.0775391" lon="15.6644177"><ele>55.0</ele><time>2026-04-25T07:20:34.955Z</time></trkpt><trkpt lat="38.0773738" lon="15.6644168"><ele>55.0</ele><time>2026-04-25T07:20:35.941Z</time></trkpt><trkpt lat="38.0772035" lon="15.6644093"><ele>55.0</ele><time>2026-04-25T07:20:36.943Z</time></trkpt><trkpt lat="38.0770317" lon="15.6644042"><ele>55.0</ele><time>2026-04-25T07:20:37.95Z</time></trkpt><trkpt lat="38.0768605" lon="15.6643964"><ele>55.0</ele><time>2026-04-25T07:20:38.957Z</time></trkpt><trkpt lat="38.0766924" lon="15.664385"><ele>55.0</ele><time>2026-04-25T07:20:39.946Z</time></trkpt><trkpt lat="38.0765261" lon="15.6643736"><ele>55.0</ele><time>2026-04-25T07:20:40.952Z</time></trkpt><trkpt lat="38.0763591" lon="15.664355"><ele>54.0</ele><time>2026-04-25T07:20:41.953Z</time></trkpt><trkpt lat="38.0761938" lon="15.6643289"><ele>53.0</ele><time>2026-04-25T07:20:42.942Z</time></trkpt><trkpt lat="38.0760236" lon="15.6643016"><ele>52.0</ele><time>2026-04-25T07:20:43.951Z</time></trkpt><trkpt lat="38.0758604" lon="15.664269"><ele>48.666666666666664</ele><time>2026-04-25T07:20:44.961Z</time></trkpt><trkpt lat="38.0756924" lon="15.6642349"><ele>45.33333333333333</ele><time>2026-04-25T07:20:45.957Z</time></trkpt><trkpt lat="38.0755258" lon="15.6641923"><ele>42.0</ele><time>2026-04-25T07:20:46.951Z</time></trkpt><trkpt lat="38.0753663" lon="15.6641502"><ele>42.0</ele><time>2026-04-25T07:20:47.951Z</time></trkpt><trkpt lat="38.0752066" lon="15.6641063"><ele>42.0</ele><time>2026-04-25T07:20:48.966Z</time></trkpt><trkpt lat="38.0750481" lon="15.6640627"><ele>42.0</ele><time>2026-04-25T07:20:49.959Z</time></trkpt><trkpt lat="38.0748917" lon="15.6640147"><ele>40.0</ele><time>2026-04-25T07:20:50.951Z</time></trkpt><trkpt lat="38.0747372" lon="15.6639612"><ele>38.0</ele><time>2026-04-25T07:20:51.854Z</time></trkpt><trkpt lat="38.0745792" lon="15.663907"><ele>36.0</ele><time>2026-04-25T07:20:52.87Z</time></trkpt><trkpt lat="38.0744197" lon="15.6638478"><ele>36.0</ele><time>2026-04-25T07:20:53.871Z</time></trkpt><trkpt lat="38.0742615" lon="15.6637867"><ele>36.0</ele><time>2026-04-25T07:20:54.868Z</time></trkpt><trkpt lat="38.0741019" lon="15.6637282"><ele>36.0</ele><time>2026-04-25T07:20:55.87Z</time></trkpt><trkpt lat="38.0739408" lon="15.6636715"><ele>36.0</ele><time>2026-04-25T07:20:56.865Z</time></trkpt><trkpt lat="38.073779" lon="15.6636171"><ele>36.0</ele><time>2026-04-25T07:20:57.876Z</time></trkpt><trkpt lat="38.0736189" lon="15.6635624"><ele>36.0</ele><time>2026-04-25T07:20:58.877Z</time></trkpt><trkpt lat="38.0734571" lon="15.6635074"><ele>35.0</ele><time>2026-04-25T07:20:59.868Z</time></trkpt><trkpt lat="38.073298" lon="15.6634561"><ele>34.0</ele><time>2026-04-25T07:21:00.872Z</time></trkpt><trkpt lat="38.0731382" lon="15.6634039"><ele>33.0</ele><time>2026-04-25T07:21:01.87Z</time></trkpt><trkpt lat="38.0729757" lon="15.6633542"><ele>33.0</ele><time>2026-04-25T07:21:02.88Z</time></trkpt><trkpt lat="38.0728113" lon="15.6633106"><ele>33.0</ele><time>2026-04-25T07:21:03.862Z</time></trkpt><trkpt lat="38.0726462" lon="15.663272"><ele>33.0</ele><time>2026-04-25T07:21:04.871Z</time></trkpt><trkpt lat="38.0724766" lon="15.6632406"><ele>33.0</ele><time>2026-04-25T07:21:05.871Z</time></trkpt><trkpt lat="38.0723068" lon="15.6632161"><ele>33.0</ele><time>2026-04-25T07:21:06.866Z</time></trkpt><trkpt lat="38.0721343" lon="15.6632029"><ele>33.0</ele><time>2026-04-25T07:21:07.865Z</time></trkpt><trkpt lat="38.0719548" lon="15.663192"><ele>33.0</ele><time>2026-04-25T07:21:08.865Z</time></trkpt><trkpt lat="38.0717773" lon="15.6631853"><ele>33.0</ele><time>2026-04-25T07:21:09.869Z</time></trkpt><trkpt lat="38.0716068" lon="15.6631806"><ele>33.0</ele><time>2026-04-25T07:21:10.867Z</time></trkpt><trkpt lat="38.0714354" lon="15.6631742"><ele>34.0</ele><time>2026-04-25T07:21:11.88Z</time></trkpt><trkpt lat="38.0712692" lon="15.6631693"><ele>35.0</ele><time>2026-04-25T07:21:12.897Z</time></trkpt><trkpt lat="38.0711031" lon="15.6631674"><ele>36.0</ele><time>2026-04-25T07:21:13.858Z</time></trkpt><trkpt lat="38.0709384" lon="15.663167"><ele>36.0</ele><time>2026-04-25T07:21:14.859Z</time></trkpt><trkpt lat="38.0707729" lon="15.6631656"><ele>36.0</ele><time>2026-04-25T07:21:15.86Z</time></trkpt><trkpt lat="38.0706055" lon="15.6631655"><ele>36.0</ele><time>2026-04-25T07:21:16.863Z</time></trkpt><trkpt lat="38.0704334" lon="15.6631648"><ele>36.0</ele><time>2026-04-25T07:21:17.86Z</time></trkpt><trkpt lat="38.070265" lon="15.6631684"><ele>36.0</ele><time>2026-04-25T07:21:18.872Z</time></trkpt><trkpt lat="38.0700953" lon="15.6631706"><ele>36.0</ele><time>2026-04-25T07:21:19.87Z</time></trkpt><trkpt lat="38.0699268" lon="15.6631681"><ele>36.333333333333336</ele><time>2026-04-25T07:21:20.876Z</time></trkpt><trkpt lat="38.0697573" lon="15.6631634"><ele>36.66666666666667</ele><time>2026-04-25T07:21:21.868Z</time></trkpt><trkpt lat="38.0695915" lon="15.6631549"><ele>37.0</ele><time>2026-04-25T07:21:22.867Z</time></trkpt><trkpt lat="38.0694256" lon="15.6631441"><ele>37.0</ele><time>2026-04-25T07:21:23.871Z</time></trkpt><trkpt lat="38.0692652" lon="15.6631371"><ele>37.0</ele><time>2026-04-25T07:21:24.87Z</time></trkpt><trkpt lat="38.069108" lon="15.6631292"><ele>37.0</ele><time>2026-04-25T07:21:25.88Z</time></trkpt><trkpt lat="38.0689468" lon="15.6631129"><ele>37.333333333333336</ele><time>2026-04-25T07:21:26.914Z</time></trkpt><trkpt lat="38.0687845" lon="15.6630915"><ele>37.666666666666664</ele><time>2026-04-25T07:21:27.887Z</time></trkpt><trkpt lat="38.0686217" lon="15.6630723"><ele>38.0</ele><time>2026-04-25T07:21:28.911Z</time></trkpt><trkpt lat="38.0684579" lon="15.6630531"><ele>38.0</ele><time>2026-04-25T07:21:29.883Z</time></trkpt><trkpt lat="38.0682916" lon="15.663034"><ele>38.0</ele><time>2026-04-25T07:21:30.886Z</time></trkpt><trkpt lat="38.0681234" lon="15.6630113"><ele>38.0</ele><time>2026-04-25T07:21:31.867Z</time></trkpt><trkpt lat="38.0679529" lon="15.6629864"><ele>39.0</ele><time>2026-04-25T07:21:32.872Z</time></trkpt><trkpt lat="38.0677883" lon="15.6629657"><ele>40.0</ele><time>2026-04-25T07:21:33.872Z</time></trkpt><trkpt lat="38.0676232" lon="15.6629505"><ele>41.0</ele><time>2026-04-25T07:21:34.892Z</time></trkpt><trkpt lat="38.0674606" lon="15.6629367"><ele>41.33333333333333</ele><time>2026-04-25T07:21:35.888Z</time></trkpt><trkpt lat="38.0672969" lon="15.6629174"><ele>41.666666666666664</ele><time>2026-04-25T07:21:36.876Z</time></trkpt><trkpt lat="38.0671304" lon="15.6628932"><ele>42.0</ele><time>2026-04-25T07:21:37.881Z</time></trkpt><trkpt lat="38.0669609" lon="15.6628665"><ele>42.0</ele><time>2026-04-25T07:21:38.889Z</time></trkpt><trkpt lat="38.0667911" lon="15.6628365"><ele>42.0</ele><time>2026-04-25T07:21:39.886Z</time></trkpt><trkpt lat="38.0666218" lon="15.662811"><ele>42.0</ele><time>2026-04-25T07:21:40.888Z</time></trkpt><trkpt lat="38.0664567" lon="15.6627901"><ele>41.666666666666664</ele><time>2026-04-25T07:21:41.891Z</time></trkpt><trkpt lat="38.0662928" lon="15.66277"><ele>41.33333333333333</ele><time>2026-04-25T07:21:42.883Z</time></trkpt><trkpt lat="38.0661289" lon="15.6627494"><ele>41.0</ele><time>2026-04-25T07:21:43.886Z</time></trkpt><trkpt lat="38.0659646" lon="15.6627291"><ele>41.0</ele><time>2026-04-25T07:21:44.901Z</time></trkpt><trkpt lat="38.065801" lon="15.6627082"><ele>41.0</ele><time>2026-04-25T07:21:45.894Z</time></trkpt><trkpt lat="38.065633" lon="15.6626859"><ele>41.0</ele><time>2026-04-25T07:21:46.88Z</time></trkpt><trkpt lat="38.0654714" lon="15.6626683"><ele>40.666666666666664</ele><time>2026-04-25T07:21:47.883Z</time></trkpt><trkpt lat="38.0653146" lon="15.6626503"><ele>40.333333333333336</ele><time>2026-04-25T07:21:48.887Z</time></trkpt><trkpt lat="38.0651566" lon="15.6626343"><ele>40.0</ele><time>2026-04-25T07:21:49.897Z</time></trkpt><trkpt lat="38.0649967" lon="15.6626152"><ele>40.333333333333336</ele><time>2026-04-25T07:21:50.893Z</time></trkpt><trkpt lat="38.0648333" lon="15.662599"><ele>40.666666666666664</ele><time>2026-04-25T07:21:51.892Z</time></trkpt><trkpt lat="38.0646655" lon="15.6625823"><ele>41.0</ele><time>2026-04-25T07:21:52.894Z</time></trkpt><trkpt lat="38.064496" lon="15.6625593"><ele>41.0</ele><time>2026-04-25T07:21:53.901Z</time></trkpt><trkpt lat="38.0643228" lon="15.6625397"><ele>41.0</ele><time>2026-04-25T07:21:54.898Z</time></trkpt><trkpt lat="38.0641521" lon="15.6625225"><ele>41.0</ele><time>2026-04-25T07:21:55.908Z</time></trkpt><trkpt lat="38.0639867" lon="15.6625001"><ele>40.0</ele><time>2026-04-25T07:21:56.888Z</time></trkpt><trkpt lat="38.063827" lon="15.6624805"><ele>39.0</ele><time>2026-04-25T07:21:57.892Z</time></trkpt><trkpt lat="38.0636631" lon="15.6624593"><ele>38.0</ele><time>2026-04-25T07:21:58.895Z</time></trkpt><trkpt lat="38.0634977" lon="15.6624431"><ele>38.0</ele><time>2026-04-25T07:21:59.91Z</time></trkpt><trkpt lat="38.0633314" lon="15.6624282"><ele>38.0</ele><time>2026-04-25T07:22:00.901Z</time></trkpt><trkpt lat="38.06316" lon="15.6624101"><ele>38.0</ele><time>2026-04-25T07:22:01.895Z</time></trkpt><trkpt lat="38.0629833" lon="15.6623919"><ele>39.33333333333333</ele><time>2026-04-25T07:22:02.904Z</time></trkpt><trkpt lat="38.0628115" lon="15.6623767"><ele>40.666666666666664</ele><time>2026-04-25T07:22:03.897Z</time></trkpt><trkpt lat="38.0626429" lon="15.6623542"><ele>42.0</ele><time>2026-04-25T07:22:04.895Z</time></trkpt><trkpt lat="38.0624817" lon="15.6623273"><ele>42.666666666666664</ele><time>2026-04-25T07:22:05.889Z</time></trkpt><trkpt lat="38.0623238" lon="15.6622907"><ele>43.33333333333333</ele><time>2026-04-25T07:22:06.895Z</time></trkpt><trkpt lat="38.0621666" lon="15.6622526"><ele>44.0</ele><time>2026-04-25T07:22:07.888Z</time></trkpt><trkpt lat="38.06201" lon="15.6622097"><ele>44.0</ele><time>2026-04-25T07:22:08.887Z</time></trkpt><trkpt lat="38.0618569" lon="15.6621668"><ele>44.0</ele><time>2026-04-25T07:22:09.899Z</time></trkpt><trkpt lat="38.0617087" lon="15.662117"><ele>44.0</ele><time>2026-04-25T07:22:10.897Z</time></trkpt><trkpt lat="38.0615857" lon="15.6620613"><ele>44.0</ele><time>2026-04-25T07:22:11.931Z</time></trkpt><trkpt lat="38.0614936" lon="15.6620077"><ele>45.0</ele><time>2026-04-25T07:22:12.907Z</time></trkpt><trkpt lat="38.0614204" lon="15.6619628"><ele>46.0</ele><time>2026-04-25T07:22:13.909Z</time></trkpt><trkpt lat="38.061359" lon="15.6619291"><ele>47.0</ele><time>2026-04-25T07:22:14.904Z</time></trkpt><trkpt lat="38.0612658" lon="15.6618782"><ele>48.0</ele><time>2026-04-25T07:22:16.901Z</time></trkpt><trkpt lat="38.0611329" lon="15.6618177"><ele>49.0</ele><time>2026-04-25T07:22:18.908Z</time></trkpt><trkpt lat="38.0610402" lon="15.6617713"><ele>47.5</ele><time>2026-04-25T07:22:19.903Z</time></trkpt><trkpt lat="38.0609371" lon="15.661725"><ele>46.0</ele><time>2026-04-25T07:22:20.907Z</time></trkpt><trkpt lat="38.0608258" lon="15.6616734"><ele>44.5</ele><time>2026-04-25T07:22:21.912Z</time></trkpt><trkpt lat="38.0607112" lon="15.6616236"><ele>43.0</ele><time>2026-04-25T07:22:22.902Z</time></trkpt><trkpt lat="38.0606007" lon="15.6615717"><ele>43.0</ele><time>2026-04-25T07:22:23.899Z</time></trkpt><trkpt lat="38.0604868" lon="15.6615259"><ele>43.0</ele><time>2026-04-25T07:22:24.903Z</time></trkpt><trkpt lat="38.0603779" lon="15.6614814"><ele>43.0</ele><time>2026-04-25T07:22:25.913Z</time></trkpt><trkpt lat="38.0602782" lon="15.661435"><ele>43.0</ele><time>2026-04-25T07:22:26.904Z</time></trkpt><trkpt lat="38.060183" lon="15.6613903"><ele>43.0</ele><time>2026-04-25T07:22:27.901Z</time></trkpt><trkpt lat="38.0600911" lon="15.6613471"><ele>43.0</ele><time>2026-04-25T07:22:28.915Z</time></trkpt><trkpt lat="38.0600081" lon="15.6613034"><ele>43.0</ele><time>2026-04-25T07:22:29.905Z</time></trkpt><trkpt lat="38.059934" lon="15.6612593"><ele>43.0</ele><time>2026-04-25T07:22:30.905Z</time></trkpt><trkpt lat="38.059869" lon="15.6612207"><ele>43.0</ele><time>2026-04-25T07:22:31.912Z</time></trkpt><trkpt lat="38.0597903" lon="15.6611751"><ele>43.0</ele><time>2026-04-25T07:22:33.91Z</time></trkpt><trkpt lat="38.0597796" lon="15.6610949"><ele>43.0</ele><time>2026-04-25T07:22:40.951Z</time></trkpt><trkpt lat="38.0597502" lon="15.6611657"><ele>41.8</ele><time>2026-04-25T07:22:45.919Z</time></trkpt><trkpt lat="38.0596394" lon="15.6611065"><ele>40.599999999999994</ele><time>2026-04-25T07:22:47.924Z</time></trkpt><trkpt lat="38.0595592" lon="15.6610701"><ele>39.400000000000006</ele><time>2026-04-25T07:22:48.929Z</time></trkpt><trkpt lat="38.0594625" lon="15.6610269"><ele>38.2</ele><time>2026-04-25T07:22:49.925Z</time></trkpt><trkpt lat="38.0593621" lon="15.6609733"><ele>37.0</ele><time>2026-04-25T07:22:50.923Z</time></trkpt><trkpt lat="38.0592665" lon="15.6608991"><ele>37.0</ele><time>2026-04-25T07:22:51.919Z</time></trkpt><trkpt lat="38.0591592" lon="15.6608159"><ele>37.0</ele><time>2026-04-25T07:22:52.935Z</time></trkpt><trkpt lat="38.0590561" lon="15.6607316"><ele>37.0</ele><time>2026-04-25T07:22:53.931Z</time></trkpt><trkpt lat="38.0589586" lon="15.660644"><ele>37.0</ele><time>2026-04-25T07:22:54.927Z</time></trkpt><trkpt lat="38.058868" lon="15.6605503"><ele>36.833333333333336</ele><time>2026-04-25T07:22:55.934Z</time></trkpt><trkpt lat="38.0587806" lon="15.6604616"><ele>36.66666666666667</ele><time>2026-04-25T07:22:56.934Z</time></trkpt><trkpt lat="38.0587044" lon="15.6603858"><ele>36.5</ele><time>2026-04-25T07:22:57.925Z</time></trkpt><trkpt lat="38.058641" lon="15.6603306"><ele>36.333333333333336</ele><time>2026-04-25T07:22:58.933Z</time></trkpt><trkpt lat="38.0585605" lon="15.6602855"><ele>36.166666666666664</ele><time>2026-04-25T07:23:00.938Z</time></trkpt><trkpt lat="38.0584885" lon="15.6602704"><ele>36.0</ele><time>2026-04-25T07:23:02.951Z</time></trkpt><trkpt lat="38.0584149" lon="15.6602663"><ele>35.666666666666664</ele><time>2026-04-25T07:23:05.948Z</time></trkpt><trkpt lat="38.0583396" lon="15.6602641"><ele>35.333333333333336</ele><time>2026-04-25T07:23:08.951Z</time></trkpt><trkpt lat="38.0582561" lon="15.6602335"><ele>35.0</ele><time>2026-04-25T07:23:10.953Z</time></trkpt><trkpt lat="38.0581678" lon="15.6601851"><ele>34.66666666666667</ele><time>2026-04-25T07:23:12.951Z</time></trkpt><trkpt lat="38.058103" lon="15.660157"><ele>34.333333333333336</ele><time>2026-04-25T07:23:14.959Z</time></trkpt><trkpt lat="38.0580409" lon="15.6601301"><ele>34.0</ele><time>2026-04-25T07:23:17.952Z</time></trkpt><trkpt lat="38.0579996" lon="15.6602149"><ele>34.8</ele><time>2026-04-25T07:23:36.875Z</time></trkpt><trkpt lat="38.0579882" lon="15.660398"><ele>35.599999999999994</ele><time>2026-04-25T07:23:38.868Z</time></trkpt><trkpt lat="38.0579887" lon="15.6605212"><ele>36.4</ele><time>2026-04-25T07:23:39.872Z</time></trkpt><trkpt lat="38.0579825" lon="15.6606611"><ele>37.199999999999996</ele><time>2026-04-25T07:23:40.87Z</time></trkpt><trkpt lat="38.0579784" lon="15.6607848"><ele>38.0</ele><time>2026-04-25T07:23:41.868Z</time></trkpt><trkpt lat="38.0579638" lon="15.6608916"><ele>38.0</ele><time>2026-04-25T07:23:42.875Z</time></trkpt><trkpt lat="38.0579416" lon="15.6610139"><ele>38.0</ele><time>2026-04-25T07:23:43.872Z</time></trkpt><trkpt lat="38.0579181" lon="15.6611572"><ele>38.0</ele><time>2026-04-25T07:23:44.874Z</time></trkpt><trkpt lat="38.0578904" lon="15.6613103"><ele>38.0</ele><time>2026-04-25T07:23:45.883Z</time></trkpt><trkpt lat="38.0578612" lon="15.6614743"><ele>39.0</ele><time>2026-04-25T07:23:46.877Z</time></trkpt><trkpt lat="38.0578304" lon="15.6616433"><ele>40.0</ele><time>2026-04-25T07:23:47.871Z</time></trkpt><trkpt lat="38.0578036" lon="15.6618213"><ele>41.0</ele><time>2026-04-25T07:23:48.872Z</time></trkpt><trkpt lat="38.0577777" lon="15.6619949"><ele>42.0</ele><time>2026-04-25T07:23:49.884Z</time></trkpt><trkpt lat="38.0577575" lon="15.662148"><ele>42.75</ele><time>2026-04-25T07:23:50.876Z</time></trkpt><trkpt lat="38.0577338" lon="15.6622909"><ele>43.5</ele><time>2026-04-25T07:23:51.877Z</time></trkpt><trkpt lat="38.0577209" lon="15.6624277"><ele>44.25</ele><time>2026-04-25T07:23:52.87Z</time></trkpt><trkpt lat="38.0577023" lon="15.6625705"><ele>45.0</ele><time>2026-04-25T07:23:53.877Z</time></trkpt><trkpt lat="38.0576812" lon="15.6627175"><ele>46.0</ele><time>2026-04-25T07:23:54.875Z</time></trkpt><trkpt lat="38.0576561" lon="15.6628733"><ele>47.0</ele><time>2026-04-25T07:23:55.875Z</time></trkpt><trkpt lat="38.0576265" lon="15.6630316"><ele>48.0</ele><time>2026-04-25T07:23:56.889Z</time></trkpt><trkpt lat="38.0575995" lon="15.6631926"><ele>49.0</ele><time>2026-04-25T07:23:57.899Z</time></trkpt><trkpt lat="38.0575698" lon="15.6633488"><ele>49.0</ele><time>2026-04-25T07:23:58.882Z</time></trkpt><trkpt lat="38.0575339" lon="15.6635061"><ele>49.0</ele><time>2026-04-25T07:23:59.877Z</time></trkpt><trkpt lat="38.0574955" lon="15.6636717"><ele>49.0</ele><time>2026-04-25T07:24:00.881Z</time></trkpt><trkpt lat="38.0574572" lon="15.6638469"><ele>49.0</ele><time>2026-04-25T07:24:01.889Z</time></trkpt><trkpt lat="38.057413" lon="15.6640272"><ele>49.75</ele><time>2026-04-25T07:24:02.884Z</time></trkpt><trkpt lat="38.0573678" lon="15.6642083"><ele>50.5</ele><time>2026-04-25T07:24:03.885Z</time></trkpt><trkpt lat="38.057323" lon="15.6643832"><ele>51.25</ele><time>2026-04-25T07:24:04.888Z</time></trkpt><trkpt lat="38.0572779" lon="15.6645485"><ele>52.0</ele><time>2026-04-25T07:24:05.889Z</time></trkpt><trkpt lat="38.0572369" lon="15.6647171"><ele>53.0</ele><time>2026-04-25T07:24:06.892Z</time></trkpt><trkpt lat="38.0571962" lon="15.6648849"><ele>54.0</ele><time>2026-04-25T07:24:07.892Z</time></trkpt><trkpt lat="38.0571601" lon="15.6650424"><ele>55.0</ele><time>2026-04-25T07:24:08.897Z</time></trkpt><trkpt lat="38.0571348" lon="15.6651869"><ele>56.0</ele><time>2026-04-25T07:24:09.891Z</time></trkpt><trkpt lat="38.0571191" lon="15.6653272"><ele>56.4</ele><time>2026-04-25T07:24:10.89Z</time></trkpt><trkpt lat="38.0571021" lon="15.6654485"><ele>56.8</ele><time>2026-04-25T07:24:11.902Z</time></trkpt><trkpt lat="38.0570803" lon="15.6655593"><ele>57.199999999999996</ele><time>2026-04-25T07:24:12.892Z</time></trkpt><trkpt lat="38.057053" lon="15.6656738"><ele>57.599999999999994</ele><time>2026-04-25T07:24:13.895Z</time></trkpt><trkpt lat="38.0570168" lon="15.6657876"><ele>58.0</ele><time>2026-04-25T07:24:14.9Z</time></trkpt><trkpt lat="38.0569792" lon="15.6659158"><ele>58.0</ele><time>2026-04-25T07:24:15.893Z</time></trkpt><trkpt lat="38.0569458" lon="15.6660639"><ele>58.0</ele><time>2026-04-25T07:24:16.887Z</time></trkpt><trkpt lat="38.0569205" lon="15.6662189"><ele>58.0</ele><time>2026-04-25T07:24:17.893Z</time></trkpt><trkpt lat="38.0568922" lon="15.6663806"><ele>58.0</ele><time>2026-04-25T07:24:18.89Z</time></trkpt><trkpt lat="38.0568505" lon="15.6665475"><ele>59.0</ele><time>2026-04-25T07:24:19.903Z</time></trkpt><trkpt lat="38.0567982" lon="15.6667181"><ele>60.0</ele><time>2026-04-25T07:24:20.891Z</time></trkpt><trkpt lat="38.0567408" lon="15.6668823"><ele>61.0</ele><time>2026-04-25T07:24:21.913Z</time></trkpt><trkpt lat="38.0566892" lon="15.6670393"><ele>62.0</ele><time>2026-04-25T07:24:22.9Z</time></trkpt><trkpt lat="38.0566407" lon="15.6671937"><ele>63.25</ele><time>2026-04-25T07:24:23.887Z</time></trkpt><trkpt lat="38.0565925" lon="15.6673534"><ele>64.5</ele><time>2026-04-25T07:24:24.888Z</time></trkpt><trkpt lat="38.0565365" lon="15.6675107"><ele>65.75</ele><time>2026-04-25T07:24:25.889Z</time></trkpt><trkpt lat="38.0564841" lon="15.6676469"><ele>67.0</ele><time>2026-04-25T07:24:26.891Z</time></trkpt><trkpt lat="38.056426" lon="15.6677737"><ele>67.75</ele><time>2026-04-25T07:24:27.887Z</time></trkpt><trkpt lat="38.0563684" lon="15.6679098"><ele>68.5</ele><time>2026-04-25T07:24:28.892Z</time></trkpt><trkpt lat="38.0563046" lon="15.6680551"><ele>69.25</ele><time>2026-04-25T07:24:29.889Z</time></trkpt><trkpt lat="38.0562305" lon="15.6682018"><ele>70.0</ele><time>2026-04-25T07:24:30.892Z</time></trkpt><trkpt lat="38.05616" lon="15.6683462"><ele>70.0</ele><time>2026-04-25T07:24:31.886Z</time></trkpt><trkpt lat="38.0560902" lon="15.6684909"><ele>70.0</ele><time>2026-04-25T07:24:32.89Z</time></trkpt><trkpt lat="38.0560269" lon="15.6686373"><ele>70.0</ele><time>2026-04-25T07:24:33.898Z</time></trkpt><trkpt lat="38.0559699" lon="15.6687933"><ele>70.0</ele><time>2026-04-25T07:24:34.898Z</time></trkpt><trkpt lat="38.0559207" lon="15.668954"><ele>71.0</ele><time>2026-04-25T07:24:35.885Z</time></trkpt><trkpt lat="38.0558691" lon="15.6691103"><ele>72.0</ele><time>2026-04-25T07:24:36.9Z</time></trkpt><trkpt lat="38.055817" lon="15.6692652"><ele>73.0</ele><time>2026-04-25T07:24:37.903Z</time></trkpt><trkpt lat="38.0557668" lon="15.6694192"><ele>74.0</ele><time>2026-04-25T07:24:38.893Z</time></trkpt><trkpt lat="38.0557162" lon="15.6695734"><ele>75.0</ele><time>2026-04-25T07:24:39.897Z</time></trkpt><trkpt lat="38.0556618" lon="15.6697235"><ele>76.0</ele><time>2026-04-25T07:24:40.889Z</time></trkpt><trkpt lat="38.055601" lon="15.6698665"><ele>77.0</ele><time>2026-04-25T07:24:41.91Z</time></trkpt><trkpt lat="38.0555446" lon="15.669991"><ele>78.0</ele><time>2026-04-25T07:24:42.895Z</time></trkpt><trkpt lat="38.0554957" lon="15.6701163"><ele>78.0</ele><time>2026-04-25T07:24:43.892Z</time></trkpt><trkpt lat="38.0554511" lon="15.6702501"><ele>78.0</ele><time>2026-04-25T07:24:44.902Z</time></trkpt><trkpt lat="38.0554115" lon="15.6703964"><ele>78.0</ele><time>2026-04-25T07:24:45.891Z</time></trkpt><trkpt lat="38.0553795" lon="15.6705505"><ele>78.0</ele><time>2026-04-25T07:24:46.897Z</time></trkpt><trkpt lat="38.0553465" lon="15.6707045"><ele>78.5</ele><time>2026-04-25T07:24:47.89Z</time></trkpt><trkpt lat="38.0553078" lon="15.6708508"><ele>79.0</ele><time>2026-04-25T07:24:48.898Z</time></trkpt><trkpt lat="38.0552609" lon="15.6709943"><ele>79.5</ele><time>2026-04-25T07:24:49.901Z</time></trkpt><trkpt lat="38.05521" lon="15.6711347"><ele>80.0</ele><time>2026-04-25T07:24:50.899Z</time></trkpt><trkpt lat="38.0551574" lon="15.6712832"><ele>80.75</ele><time>2026-04-25T07:24:51.906Z</time></trkpt><trkpt lat="38.0551004" lon="15.671433"><ele>81.5</ele><time>2026-04-25T07:24:52.894Z</time></trkpt><trkpt lat="38.0550438" lon="15.6715844"><ele>82.25</ele><time>2026-04-25T07:24:53.896Z</time></trkpt><trkpt lat="38.0549833" lon="15.6717159"><ele>83.0</ele><time>2026-04-25T07:24:54.908Z</time></trkpt><trkpt lat="38.0549247" lon="15.6718256"><ele>83.33333333333334</ele><time>2026-04-25T07:24:55.898Z</time></trkpt><trkpt lat="38.0548759" lon="15.6719164"><ele>83.66666666666667</ele><time>2026-04-25T07:24:56.895Z</time></trkpt><trkpt lat="38.0548234" lon="15.6719873"><ele>84.0</ele><time>2026-04-25T07:24:57.904Z</time></trkpt><trkpt lat="38.0547734" lon="15.6720391"><ele>84.33333333333333</ele><time>2026-04-25T07:24:58.899Z</time></trkpt><trkpt lat="38.0546819" lon="15.6721153"><ele>84.66666666666666</ele><time>2026-04-25T07:25:00.896Z</time></trkpt><trkpt lat="38.0545897" lon="15.6721625"><ele>85.0</ele><time>2026-04-25T07:25:02.898Z</time></trkpt><trkpt lat="38.0544914" lon="15.6721813"><ele>85.0</ele><time>2026-04-25T07:25:04.915Z</time></trkpt><trkpt lat="38.0544245" lon="15.6721917"><ele>85.0</ele><time>2026-04-25T07:25:06.919Z</time></trkpt><trkpt lat="38.0543574" lon="15.6722075"><ele>85.0</ele><time>2026-04-25T07:25:09.912Z</time></trkpt><trkpt lat="38.0542646" lon="15.6721996"><ele>85.0</ele><time>2026-04-25T07:25:11.916Z</time></trkpt><trkpt lat="38.0541521" lon="15.6721604"><ele>85.0</ele><time>2026-04-25T07:25:13.91Z</time></trkpt><trkpt lat="38.0540868" lon="15.6721521"><ele>85.0</ele><time>2026-04-25T07:25:14.915Z</time></trkpt><trkpt lat="38.0539725" lon="15.6721288"><ele>85.66666666666666</ele><time>2026-04-25T07:25:16.92Z</time></trkpt><trkpt lat="38.0538578" lon="15.6720915"><ele>86.33333333333333</ele><time>2026-04-25T07:25:18.915Z</time></trkpt><trkpt lat="38.0537884" lon="15.672077"><ele>87.0</ele><time>2026-04-25T07:25:19.919Z</time></trkpt><trkpt lat="38.0537025" lon="15.6720604"><ele>87.66666666666667</ele><time>2026-04-25T07:25:20.915Z</time></trkpt><trkpt lat="38.0536162" lon="15.6720503"><ele>88.33333333333334</ele><time>2026-04-25T07:25:21.919Z</time></trkpt><trkpt lat="38.0535405" lon="15.672049"><ele>89.0</ele><time>2026-04-25T07:25:22.912Z</time></trkpt><trkpt lat="38.0534253" lon="15.6720786"><ele>89.0</ele><time>2026-04-25T07:25:24.904Z</time></trkpt><trkpt lat="38.0533536" lon="15.6720946"><ele>89.0</ele><time>2026-04-25T07:25:25.907Z</time></trkpt><trkpt lat="38.053285" lon="15.672086"><ele>89.0</ele><time>2026-04-25T07:25:26.928Z</time></trkpt><trkpt lat="38.0532011" lon="15.6720347"><ele>89.0</ele><time>2026-04-25T07:25:28.908Z</time></trkpt><trkpt lat="38.053137" lon="15.6719871"><ele>89.0</ele><time>2026-04-25T07:25:30.93Z</time></trkpt><trkpt lat="38.0530632" lon="15.6720177"><ele>89.0</ele><time>2026-04-25T07:25:32.914Z</time></trkpt><trkpt lat="38.0529829" lon="15.6721337"><ele>89.4</ele><time>2026-04-25T07:25:34.922Z</time></trkpt><trkpt lat="38.0529353" lon="15.6722197"><ele>89.80000000000001</ele><time>2026-04-25T07:25:35.913Z</time></trkpt><trkpt lat="38.0528699" lon="15.672298"><ele>90.19999999999999</ele><time>2026-04-25T07:25:36.925Z</time></trkpt><trkpt lat="38.0527947" lon="15.6723485"><ele>90.6</ele><time>2026-04-25T07:25:37.921Z</time></trkpt><trkpt lat="38.0527028" lon="15.6723842"><ele>91.0</ele><time>2026-04-25T07:25:38.917Z</time></trkpt><trkpt lat="38.0526034" lon="15.6724127"><ele>91.0</ele><time>2026-04-25T07:25:39.921Z</time></trkpt><trkpt lat="38.0525082" lon="15.6724354"><ele>91.0</ele><time>2026-04-25T07:25:40.917Z</time></trkpt><trkpt lat="38.0524249" lon="15.672453"><ele>91.0</ele><time>2026-04-25T07:25:41.913Z</time></trkpt><trkpt lat="38.0523259" lon="15.6725636"><ele>91.0</ele><time>2026-04-25T07:25:43.917Z</time></trkpt><trkpt lat="38.0522915" lon="15.6726531"><ele>91.0</ele><time>2026-04-25T07:25:44.913Z</time></trkpt><trkpt lat="38.0522735" lon="15.6727635"><ele>92.0</ele><time>2026-04-25T07:25:45.92Z</time></trkpt><trkpt lat="38.0522542" lon="15.6728929"><ele>93.0</ele><time>2026-04-25T07:25:46.922Z</time></trkpt><trkpt lat="38.0522228" lon="15.6730259"><ele>94.0</ele><time>2026-04-25T07:25:47.918Z</time></trkpt><trkpt lat="38.052193" lon="15.6731337"><ele>95.0</ele><time>2026-04-25T07:25:48.93Z</time></trkpt><trkpt lat="38.0521618" lon="15.6732337"><ele>96.0</ele><time>2026-04-25T07:25:49.919Z</time></trkpt><trkpt lat="38.0521226" lon="15.6733301"><ele>96.0</ele><time>2026-04-25T07:25:50.922Z</time></trkpt><trkpt lat="38.0520738" lon="15.6734383"><ele>96.0</ele><time>2026-04-25T07:25:51.938Z</time></trkpt><trkpt lat="38.0520264" lon="15.6735459"><ele>96.0</ele><time>2026-04-25T07:25:52.93Z</time></trkpt><trkpt lat="38.0519894" lon="15.673665"><ele>96.0</ele><time>2026-04-25T07:25:53.924Z</time></trkpt><trkpt lat="38.0519532" lon="15.673796"><ele>96.0</ele><time>2026-04-25T07:25:54.929Z</time></trkpt><trkpt lat="38.0519149" lon="15.6739256"><ele>97.0</ele><time>2026-04-25T07:25:55.915Z</time></trkpt><trkpt lat="38.0518732" lon="15.6740535"><ele>98.0</ele><time>2026-04-25T07:25:56.928Z</time></trkpt><trkpt lat="38.0518322" lon="15.67419"><ele>99.0</ele><time>2026-04-25T07:25:57.919Z</time></trkpt><trkpt lat="38.051786" lon="15.6743497"><ele>100.0</ele><time>2026-04-25T07:25:58.928Z</time></trkpt><trkpt lat="38.0517411" lon="15.6745133"><ele>100.0</ele><time>2026-04-25T07:25:59.925Z</time></trkpt><trkpt lat="38.0516927" lon="15.6746565"><ele>100.0</ele><time>2026-04-25T07:26:00.927Z</time></trkpt><trkpt lat="38.0516567" lon="15.6747805"><ele>100.0</ele><time>2026-04-25T07:26:01.928Z</time></trkpt><trkpt lat="38.0516163" lon="15.6748893"><ele>100.0</ele><time>2026-04-25T07:26:02.936Z</time></trkpt><trkpt lat="38.0515648" lon="15.674994"><ele>100.0</ele><time>2026-04-25T07:26:03.914Z</time></trkpt><trkpt lat="38.0515044" lon="15.6751024"><ele>101.25</ele><time>2026-04-25T07:26:04.936Z</time></trkpt><trkpt lat="38.051453" lon="15.6752264"><ele>102.5</ele><time>2026-04-25T07:26:05.924Z</time></trkpt><trkpt lat="38.0514066" lon="15.6753708"><ele>103.75</ele><time>2026-04-25T07:26:06.927Z</time></trkpt><trkpt lat="38.0513622" lon="15.6755057"><ele>105.0</ele><time>2026-04-25T07:26:07.915Z</time></trkpt><trkpt lat="38.0513204" lon="15.6756236"><ele>105.4</ele><time>2026-04-25T07:26:08.922Z</time></trkpt><trkpt lat="38.0512754" lon="15.6757324"><ele>105.8</ele><time>2026-04-25T07:26:09.914Z</time></trkpt><trkpt lat="38.0512299" lon="15.675838"><ele>106.19999999999999</ele><time>2026-04-25T07:26:10.933Z</time></trkpt><trkpt lat="38.0511817" lon="15.675946"><ele>106.6</ele><time>2026-04-25T07:26:11.916Z</time></trkpt><trkpt lat="38.051138" lon="15.676061"><ele>107.0</ele><time>2026-04-25T07:26:12.927Z</time></trkpt><trkpt lat="38.0511021" lon="15.6761884"><ele>107.8</ele><time>2026-04-25T07:26:13.924Z</time></trkpt><trkpt lat="38.0510696" lon="15.6763151"><ele>108.6</ele><time>2026-04-25T07:26:14.937Z</time></trkpt><trkpt lat="38.0510364" lon="15.6764464"><ele>109.39999999999999</ele><time>2026-04-25T07:26:15.917Z</time></trkpt><trkpt lat="38.0510082" lon="15.6765866"><ele>110.19999999999999</ele><time>2026-04-25T07:26:16.933Z</time></trkpt><trkpt lat="38.0509769" lon="15.6767362"><ele>111.0</ele><time>2026-04-25T07:26:17.927Z</time></trkpt><trkpt lat="38.0509448" lon="15.6768815"><ele>111.4</ele><time>2026-04-25T07:26:18.924Z</time></trkpt><trkpt lat="38.0509182" lon="15.6770121"><ele>111.8</ele><time>2026-04-25T07:26:19.923Z</time></trkpt><trkpt lat="38.0508843" lon="15.6771358"><ele>112.20000000000002</ele><time>2026-04-25T07:26:20.924Z</time></trkpt><trkpt lat="38.050847" lon="15.6772451"><ele>112.60000000000001</ele><time>2026-04-25T07:26:21.919Z</time></trkpt><trkpt lat="38.0508082" lon="15.6773385"><ele>113.0</ele><time>2026-04-25T07:26:22.921Z</time></trkpt><trkpt lat="38.050767" lon="15.677421"><ele>113.49999999999999</ele><time>2026-04-25T07:26:23.918Z</time></trkpt><trkpt lat="38.0507254" lon="15.6774964"><ele>114.0</ele><time>2026-04-25T07:26:24.924Z</time></trkpt><trkpt lat="38.0506804" lon="15.6775779"><ele>114.5</ele><time>2026-04-25T07:26:25.92Z</time></trkpt><trkpt lat="38.0506231" lon="15.6776737"><ele>115.0</ele><time>2026-04-25T07:26:26.915Z</time></trkpt><trkpt lat="38.0505694" lon="15.6777762"><ele>115.49999999999999</ele><time>2026-04-25T07:26:27.926Z</time></trkpt><trkpt lat="38.0505173" lon="15.6778747"><ele>116.0</ele><time>2026-04-25T07:26:28.923Z</time></trkpt><trkpt lat="38.0504816" lon="15.677966"><ele>116.66666666666666</ele><time>2026-04-25T07:26:29.919Z</time></trkpt><trkpt lat="38.0504576" lon="15.6780716"><ele>117.33333333333333</ele><time>2026-04-25T07:26:30.916Z</time></trkpt><trkpt lat="38.0504449" lon="15.6781854"><ele>118.0</ele><time>2026-04-25T07:26:31.937Z</time></trkpt><trkpt lat="38.0504431" lon="15.6782931"><ele>118.66666666666666</ele><time>2026-04-25T07:26:32.943Z</time></trkpt><trkpt lat="38.0504398" lon="15.6783965"><ele>119.33333333333333</ele><time>2026-04-25T07:26:33.914Z</time></trkpt><trkpt lat="38.0504226" lon="15.6784992"><ele>120.0</ele><time>2026-04-25T07:26:34.932Z</time></trkpt><trkpt lat="38.0503843" lon="15.6786065"><ele>120.33333333333333</ele><time>2026-04-25T07:26:35.918Z</time></trkpt><trkpt lat="38.0503355" lon="15.6787112"><ele>120.66666666666666</ele><time>2026-04-25T07:26:36.925Z</time></trkpt><trkpt lat="38.0502893" lon="15.6788144"><ele>121.0</ele><time>2026-04-25T07:26:37.938Z</time></trkpt><trkpt lat="38.0502524" lon="15.6789157"><ele>121.33333333333333</ele><time>2026-04-25T07:26:38.955Z</time></trkpt><trkpt lat="38.050223" lon="15.6790106"><ele>121.66666666666666</ele><time>2026-04-25T07:26:39.92Z</time></trkpt><trkpt lat="38.0501828" lon="15.6791054"><ele>122.0</ele><time>2026-04-25T07:26:40.922Z</time></trkpt><trkpt lat="38.0501307" lon="15.6791881"><ele>121.99999999999999</ele><time>2026-04-25T07:26:41.923Z</time></trkpt><trkpt lat="38.0500769" lon="15.6792582"><ele>122.0</ele><time>2026-04-25T07:26:42.914Z</time></trkpt><trkpt lat="38.0500251" lon="15.6793185"><ele>122.0</ele><time>2026-04-25T07:26:43.919Z</time></trkpt><trkpt lat="38.0499817" lon="15.6793876"><ele>122.0</ele><time>2026-04-25T07:26:44.913Z</time></trkpt><trkpt lat="38.0499492" lon="15.6794634"><ele>121.99999999999999</ele><time>2026-04-25T07:26:45.918Z</time></trkpt><trkpt lat="38.0499232" lon="15.6795683"><ele>122.0</ele><time>2026-04-25T07:26:46.921Z</time></trkpt><trkpt lat="38.0499021" lon="15.6796881"><ele>122.83333333333333</ele><time>2026-04-25T07:26:47.921Z</time></trkpt><trkpt lat="38.0498873" lon="15.6798065"><ele>123.66666666666666</ele><time>2026-04-25T07:26:48.925Z</time></trkpt><trkpt lat="38.0498725" lon="15.6799166"><ele>124.5</ele><time>2026-04-25T07:26:49.919Z</time></trkpt><trkpt lat="38.0498564" lon="15.6800282"><ele>125.33333333333334</ele><time>2026-04-25T07:26:50.917Z</time></trkpt><trkpt lat="38.0498211" lon="15.680134"><ele>126.16666666666667</ele><time>2026-04-25T07:26:51.918Z</time></trkpt><trkpt lat="38.0497891" lon="15.6802355"><ele>127.0</ele><time>2026-04-25T07:26:52.922Z</time></trkpt><trkpt lat="38.049753" lon="15.6803331"><ele>128.0</ele><time>2026-04-25T07:26:53.916Z</time></trkpt><trkpt lat="38.0497136" lon="15.6804375"><ele>129.0</ele><time>2026-04-25T07:26:54.933Z</time></trkpt><trkpt lat="38.0496666" lon="15.6805514"><ele>130.0</ele><time>2026-04-25T07:26:55.925Z</time></trkpt><trkpt lat="38.0496272" lon="15.6806758"><ele>131.0</ele><time>2026-04-25T07:26:56.92Z</time></trkpt><trkpt lat="38.0496036" lon="15.6808059"><ele>132.0</ele><time>2026-04-25T07:26:57.925Z</time></trkpt><trkpt lat="38.0495836" lon="15.6809414"><ele>132.0</ele><time>2026-04-25T07:26:58.939Z</time></trkpt><trkpt lat="38.0495721" lon="15.6810735"><ele>132.0</ele><time>2026-04-25T07:26:59.931Z</time></trkpt><trkpt lat="38.0495568" lon="15.6812001"><ele>132.0</ele><time>2026-04-25T07:27:00.922Z</time></trkpt><trkpt lat="38.0495369" lon="15.6813254"><ele>132.0</ele><time>2026-04-25T07:27:01.94Z</time></trkpt><trkpt lat="38.0495085" lon="15.6814465"><ele>132.0</ele><time>2026-04-25T07:27:02.928Z</time></trkpt><trkpt lat="38.0494773" lon="15.6815767"><ele>132.2</ele><time>2026-04-25T07:27:03.927Z</time></trkpt><trkpt lat="38.0494453" lon="15.6817008"><ele>132.39999999999998</ele><time>2026-04-25T07:27:04.923Z</time></trkpt><trkpt lat="38.0494211" lon="15.6818254"><ele>132.60000000000002</ele><time>2026-04-25T07:27:05.929Z</time></trkpt><trkpt lat="38.0493991" lon="15.6819309"><ele>132.8</ele><time>2026-04-25T07:27:06.931Z</time></trkpt><trkpt lat="38.0493693" lon="15.6820346"><ele>133.0</ele><time>2026-04-25T07:27:07.922Z</time></trkpt><trkpt lat="38.0493245" lon="15.682131"><ele>134.0</ele><time>2026-04-25T07:27:08.922Z</time></trkpt><trkpt lat="38.0492729" lon="15.6822303"><ele>135.0</ele><time>2026-04-25T07:27:09.922Z</time></trkpt><trkpt lat="38.0492212" lon="15.6823476"><ele>136.0</ele><time>2026-04-25T07:27:10.929Z</time></trkpt><trkpt lat="38.0491672" lon="15.68248"><ele>137.0</ele><time>2026-04-25T07:27:11.936Z</time></trkpt><trkpt lat="38.0491216" lon="15.6826253"><ele>138.0</ele><time>2026-04-25T07:27:12.927Z</time></trkpt><trkpt lat="38.0490841" lon="15.6827574"><ele>139.16666666666666</ele><time>2026-04-25T07:27:13.925Z</time></trkpt><trkpt lat="38.0490548" lon="15.6828758"><ele>140.33333333333334</ele><time>2026-04-25T07:27:14.932Z</time></trkpt><trkpt lat="38.0490371" lon="15.6829852"><ele>141.5</ele><time>2026-04-25T07:27:15.935Z</time></trkpt><trkpt lat="38.0490383" lon="15.6830841"><ele>142.66666666666669</ele><time>2026-04-25T07:27:16.927Z</time></trkpt><trkpt lat="38.0490449" lon="15.6831804"><ele>143.83333333333334</ele><time>2026-04-25T07:27:17.934Z</time></trkpt><trkpt lat="38.0490581" lon="15.6832809"><ele>145.0</ele><time>2026-04-25T07:27:18.941Z</time></trkpt><trkpt lat="38.0490825" lon="15.6833806"><ele>145.0</ele><time>2026-04-25T07:27:19.933Z</time></trkpt><trkpt lat="38.049103" lon="15.6834731"><ele>145.0</ele><time>2026-04-25T07:27:20.932Z</time></trkpt><trkpt lat="38.0491159" lon="15.6835533"><ele>145.0</ele><time>2026-04-25T07:27:21.947Z</time></trkpt><trkpt lat="38.0491276" lon="15.6836913"><ele>145.0</ele><time>2026-04-25T07:27:23.926Z</time></trkpt><trkpt lat="38.0491273" lon="15.6838509"><ele>145.0</ele><time>2026-04-25T07:27:25.935Z</time></trkpt><trkpt lat="38.0491191" lon="15.6839495"><ele>145.6</ele><time>2026-04-25T07:27:26.947Z</time></trkpt><trkpt lat="38.0491094" lon="15.6840583"><ele>146.2</ele><time>2026-04-25T07:27:27.952Z</time></trkpt><trkpt lat="38.049092" lon="15.6841625"><ele>146.8</ele><time>2026-04-25T07:27:28.932Z</time></trkpt><trkpt lat="38.0490543" lon="15.6842514"><ele>147.4</ele><time>2026-04-25T07:27:29.929Z</time></trkpt><trkpt lat="38.0489954" lon="15.6843502"><ele>148.0</ele><time>2026-04-25T07:27:30.932Z</time></trkpt><trkpt lat="38.04893" lon="15.6844605"><ele>148.0</ele><time>2026-04-25T07:27:31.937Z</time></trkpt><trkpt lat="38.0488597" lon="15.6845715"><ele>148.0</ele><time>2026-04-25T07:27:32.934Z</time></trkpt><trkpt lat="38.0487909" lon="15.6846779"><ele>148.0</ele><time>2026-04-25T07:27:33.974Z</time></trkpt><trkpt lat="38.0487192" lon="15.6847927"><ele>148.0</ele><time>2026-04-25T07:27:34.936Z</time></trkpt><trkpt lat="38.0486406" lon="15.6849135"><ele>148.0</ele><time>2026-04-25T07:27:35.941Z</time></trkpt><trkpt lat="38.0485678" lon="15.6850355"><ele>148.0</ele><time>2026-04-25T07:27:36.957Z</time></trkpt><trkpt lat="38.0485078" lon="15.6851594"><ele>148.0</ele><time>2026-04-25T07:27:37.94Z</time></trkpt><trkpt lat="38.0484571" lon="15.6852866"><ele>148.0</ele><time>2026-04-25T07:27:38.94Z</time></trkpt><trkpt lat="38.0484142" lon="15.685417"><ele>148.6</ele><time>2026-04-25T07:27:39.941Z</time></trkpt><trkpt lat="38.0483746" lon="15.68555"><ele>149.20000000000002</ele><time>2026-04-25T07:27:40.936Z</time></trkpt><trkpt lat="38.0483445" lon="15.6856794"><ele>149.8</ele><time>2026-04-25T07:27:41.936Z</time></trkpt><trkpt lat="38.0483294" lon="15.6858035"><ele>150.4</ele><time>2026-04-25T07:27:42.938Z</time></trkpt><trkpt lat="38.048324" lon="15.6859384"><ele>151.0</ele><time>2026-04-25T07:27:43.947Z</time></trkpt><trkpt lat="38.0483178" lon="15.6860863"><ele>152.5</ele><time>2026-04-25T07:27:44.939Z</time></trkpt><trkpt lat="38.0483101" lon="15.6862254"><ele>154.0</ele><time>2026-04-25T07:27:45.935Z</time></trkpt><trkpt lat="38.0482951" lon="15.6863766"><ele>155.5</ele><time>2026-04-25T07:27:46.935Z</time></trkpt><trkpt lat="38.0482743" lon="15.6865266"><ele>157.0</ele><time>2026-04-25T07:27:47.928Z</time></trkpt><trkpt lat="38.0482402" lon="15.686671"><ele>157.25</ele><time>2026-04-25T07:27:48.95Z</time></trkpt><trkpt lat="38.0482048" lon="15.68682"><ele>157.5</ele><time>2026-04-25T07:27:49.943Z</time></trkpt><trkpt lat="38.0481763" lon="15.6869754"><ele>157.75</ele><time>2026-04-25T07:27:50.95Z</time></trkpt><trkpt lat="38.0481471" lon="15.6871348"><ele>158.0</ele><time>2026-04-25T07:27:51.932Z</time></trkpt><trkpt lat="38.0481192" lon="15.6873054"><ele>158.0</ele><time>2026-04-25T07:27:52.958Z</time></trkpt><trkpt lat="38.0480944" lon="15.6874694"><ele>158.0</ele><time>2026-04-25T07:27:53.951Z</time></trkpt><trkpt lat="38.0480682" lon="15.687635"><ele>158.0</ele><time>2026-04-25T07:27:54.947Z</time></trkpt><trkpt lat="38.0480415" lon="15.6878065"><ele>158.0</ele><time>2026-04-25T07:27:55.94Z</time></trkpt><trkpt lat="38.048016" lon="15.6879765"><ele>159.25</ele><time>2026-04-25T07:27:56.955Z</time></trkpt><trkpt lat="38.0479879" lon="15.6881445"><ele>160.5</ele><time>2026-04-25T07:27:57.948Z</time></trkpt><trkpt lat="38.0479699" lon="15.6883198"><ele>161.75</ele><time>2026-04-25T07:27:58.955Z</time></trkpt><trkpt lat="38.0479534" lon="15.6884923"><ele>163.0</ele><time>2026-04-25T07:27:59.956Z</time></trkpt><trkpt lat="38.0479449" lon="15.6886587"><ele>163.4</ele><time>2026-04-25T07:28:00.947Z</time></trkpt><trkpt lat="38.0479452" lon="15.6888097"><ele>163.8</ele><time>2026-04-25T07:28:01.95Z</time></trkpt><trkpt lat="38.0479467" lon="15.6889546"><ele>164.2</ele><time>2026-04-25T07:28:02.938Z</time></trkpt><trkpt lat="38.0479372" lon="15.6890957"><ele>164.6</ele><time>2026-04-25T07:28:03.937Z</time></trkpt><trkpt lat="38.047928" lon="15.6892256"><ele>165.0</ele><time>2026-04-25T07:28:04.943Z</time></trkpt><trkpt lat="38.0479113" lon="15.6893656"><ele>166.0</ele><time>2026-04-25T07:28:05.953Z</time></trkpt><trkpt lat="38.0478831" lon="15.6894992"><ele>167.0</ele><time>2026-04-25T07:28:06.948Z</time></trkpt><trkpt lat="38.0478592" lon="15.6896419"><ele>168.0</ele><time>2026-04-25T07:28:07.95Z</time></trkpt><trkpt lat="38.0478356" lon="15.689797"><ele>169.0</ele><time>2026-04-25T07:28:08.948Z</time></trkpt><trkpt lat="38.0478212" lon="15.6899587"><ele>169.0</ele><time>2026-04-25T07:28:09.966Z</time></trkpt><trkpt lat="38.0478004" lon="15.6901123"><ele>169.0</ele><time>2026-04-25T07:28:10.943Z</time></trkpt><trkpt lat="38.0477857" lon="15.6902403"><ele>169.0</ele><time>2026-04-25T07:28:11.962Z</time></trkpt><trkpt lat="38.047779" lon="15.6903666"><ele>169.0</ele><time>2026-04-25T07:28:12.955Z</time></trkpt><trkpt lat="38.0477753" lon="15.69049"><ele>169.0</ele><time>2026-04-25T07:28:13.963Z</time></trkpt><trkpt lat="38.0477718" lon="15.6906156"><ele>170.75</ele><time>2026-04-25T07:28:14.953Z</time></trkpt><trkpt lat="38.0477746" lon="15.6907503"><ele>172.5</ele><time>2026-04-25T07:28:15.953Z</time></trkpt><trkpt lat="38.0477764" lon="15.6908879"><ele>174.25</ele><time>2026-04-25T07:28:16.964Z</time></trkpt><trkpt lat="38.047781" lon="15.6910312"><ele>176.0</ele><time>2026-04-25T07:28:17.944Z</time></trkpt><trkpt lat="38.0477743" lon="15.6911864"><ele>177.0</ele><time>2026-04-25T07:28:18.95Z</time></trkpt><trkpt lat="38.0477759" lon="15.6913415"><ele>178.0</ele><time>2026-04-25T07:28:19.948Z</time></trkpt><trkpt lat="38.047766" lon="15.6915058"><ele>179.0</ele><time>2026-04-25T07:28:20.968Z</time></trkpt><trkpt lat="38.0477546" lon="15.6916695"><ele>180.0</ele><time>2026-04-25T07:28:21.949Z</time></trkpt><trkpt lat="38.047745" lon="15.6918104"><ele>181.0</ele><time>2026-04-25T07:28:22.951Z</time></trkpt><trkpt lat="38.0477375" lon="15.6919501"><ele>182.0</ele><time>2026-04-25T07:28:23.96Z</time></trkpt><trkpt lat="38.0477346" lon="15.6920889"><ele>183.0</ele><time>2026-04-25T07:28:24.951Z</time></trkpt><trkpt lat="38.0477358" lon="15.692221"><ele>184.0</ele><time>2026-04-25T07:28:25.958Z</time></trkpt><trkpt lat="38.0477396" lon="15.6923461"><ele>185.0</ele><time>2026-04-25T07:28:26.964Z</time></trkpt><trkpt lat="38.0477509" lon="15.6924584"><ele>185.0</ele><time>2026-04-25T07:28:27.884Z</time></trkpt><trkpt lat="38.0477641" lon="15.6925533"><ele>185.0</ele><time>2026-04-25T07:28:28.961Z</time></trkpt><trkpt lat="38.0477991" lon="15.6927222"><ele>185.0</ele><time>2026-04-25T07:28:30.853Z</time></trkpt><trkpt lat="38.0478183" lon="15.6928766"><ele>185.0</ele><time>2026-04-25T07:28:32.873Z</time></trkpt><trkpt lat="38.0478149" lon="15.6929729"><ele>185.0</ele><time>2026-04-25T07:28:33.861Z</time></trkpt><trkpt lat="38.0477969" lon="15.6930729"><ele>185.83333333333331</ele><time>2026-04-25T07:28:34.86Z</time></trkpt><trkpt lat="38.0477766" lon="15.693174"><ele>186.66666666666666</ele><time>2026-04-25T07:28:35.877Z</time></trkpt><trkpt lat="38.0477633" lon="15.6932708"><ele>187.5</ele><time>2026-04-25T07:28:36.864Z</time></trkpt><trkpt lat="38.047763" lon="15.6933759"><ele>188.33333333333334</ele><time>2026-04-25T07:28:37.865Z</time></trkpt><trkpt lat="38.0477663" lon="15.6934814"><ele>189.16666666666669</ele><time>2026-04-25T07:28:38.877Z</time></trkpt><trkpt lat="38.0477815" lon="15.6935903"><ele>190.0</ele><time>2026-04-25T07:28:39.867Z</time></trkpt><trkpt lat="38.0477891" lon="15.6936966"><ele>190.5</ele><time>2026-04-25T07:28:40.867Z</time></trkpt><trkpt lat="38.0477991" lon="15.6937908"><ele>191.0</ele><time>2026-04-25T07:28:41.87Z</time></trkpt><trkpt lat="38.0478048" lon="15.6938909"><ele>191.5</ele><time>2026-04-25T07:28:42.872Z</time></trkpt><trkpt lat="38.0478031" lon="15.6940037"><ele>192.0</ele><time>2026-04-25T07:28:43.873Z</time></trkpt><trkpt lat="38.0477956" lon="15.6941271"><ele>192.49999999999997</ele><time>2026-04-25T07:28:44.865Z</time></trkpt><trkpt lat="38.047788" lon="15.6942412"><ele>193.0</ele><time>2026-04-25T07:28:45.859Z</time></trkpt><trkpt lat="38.0477791" lon="15.6943597"><ele>193.57142857142858</ele><time>2026-04-25T07:28:46.886Z</time></trkpt><trkpt lat="38.0477827" lon="15.6944655"><ele>194.14285714285714</ele><time>2026-04-25T07:28:47.886Z</time></trkpt><trkpt lat="38.0477879" lon="15.694561"><ele>194.71428571428572</ele><time>2026-04-25T07:28:48.866Z</time></trkpt><trkpt lat="38.0477939" lon="15.6946505"><ele>195.28571428571428</ele><time>2026-04-25T07:28:49.876Z</time></trkpt><trkpt lat="38.0477911" lon="15.6947448"><ele>195.85714285714286</ele><time>2026-04-25T07:28:50.869Z</time></trkpt><trkpt lat="38.0477777" lon="15.6948264"><ele>196.42857142857144</ele><time>2026-04-25T07:28:51.879Z</time></trkpt><trkpt lat="38.0477612" lon="15.6949132"><ele>197.0</ele><time>2026-04-25T07:28:52.874Z</time></trkpt><trkpt lat="38.0477478" lon="15.6950135"><ele>197.00000000000003</ele><time>2026-04-25T07:28:53.873Z</time></trkpt><trkpt lat="38.0477327" lon="15.6951229"><ele>197.0</ele><time>2026-04-25T07:28:54.895Z</time></trkpt><trkpt lat="38.0477179" lon="15.6952334"><ele>197.0</ele><time>2026-04-25T07:28:55.888Z</time></trkpt><trkpt lat="38.0476932" lon="15.6953263"><ele>197.0</ele><time>2026-04-25T07:28:56.867Z</time></trkpt><trkpt lat="38.0476623" lon="15.6954193"><ele>197.00000000000003</ele><time>2026-04-25T07:28:57.872Z</time></trkpt><trkpt lat="38.0476442" lon="15.6955252"><ele>197.0</ele><time>2026-04-25T07:28:58.878Z</time></trkpt><trkpt lat="38.0476302" lon="15.6956372"><ele>198.0</ele><time>2026-04-25T07:28:59.875Z</time></trkpt><trkpt lat="38.0476199" lon="15.6957514"><ele>199.0</ele><time>2026-04-25T07:29:00.885Z</time></trkpt><trkpt lat="38.0476076" lon="15.6958666"><ele>200.0</ele><time>2026-04-25T07:29:01.873Z</time></trkpt><trkpt lat="38.0475868" lon="15.6959888"><ele>201.0</ele><time>2026-04-25T07:29:02.876Z</time></trkpt><trkpt lat="38.0475623" lon="15.6960995"><ele>202.0</ele><time>2026-04-25T07:29:03.882Z</time></trkpt><trkpt lat="38.0475332" lon="15.696216"><ele>202.2</ele><time>2026-04-25T07:29:04.875Z</time></trkpt><trkpt lat="38.0474982" lon="15.6963333"><ele>202.39999999999998</ele><time>2026-04-25T07:29:05.89Z</time></trkpt><trkpt lat="38.0474655" lon="15.6964527"><ele>202.60000000000002</ele><time>2026-04-25T07:29:06.875Z</time></trkpt><trkpt lat="38.0474262" lon="15.6965808"><ele>202.8</ele><time>2026-04-25T07:29:07.885Z</time></trkpt><trkpt lat="38.0473834" lon="15.6966948"><ele>203.0</ele><time>2026-04-25T07:29:08.875Z</time></trkpt><trkpt lat="38.047345" lon="15.6968093"><ele>204.4</ele><time>2026-04-25T07:29:09.878Z</time></trkpt><trkpt lat="38.0473057" lon="15.6969201"><ele>205.8</ele><time>2026-04-25T07:29:10.875Z</time></trkpt><trkpt lat="38.0472689" lon="15.6970223"><ele>207.2</ele><time>2026-04-25T07:29:11.887Z</time></trkpt><trkpt lat="38.0472328" lon="15.6971321"><ele>208.6</ele><time>2026-04-25T07:29:12.869Z</time></trkpt><trkpt lat="38.0471945" lon="15.6972429"><ele>210.0</ele><time>2026-04-25T07:29:13.889Z</time></trkpt><trkpt lat="38.0471565" lon="15.6973569"><ele>210.0</ele><time>2026-04-25T07:29:14.876Z</time></trkpt><trkpt lat="38.0471314" lon="15.6974981"><ele>210.0</ele><time>2026-04-25T07:29:15.88Z</time></trkpt><trkpt lat="38.0471007" lon="15.6976362"><ele>210.0</ele><time>2026-04-25T07:29:16.89Z</time></trkpt><trkpt lat="38.0470781" lon="15.6977801"><ele>210.0</ele><time>2026-04-25T07:29:17.887Z</time></trkpt><trkpt lat="38.0470549" lon="15.6979159"><ele>210.8</ele><time>2026-04-25T07:29:18.885Z</time></trkpt><trkpt lat="38.0470202" lon="15.6980248"><ele>211.6</ele><time>2026-04-25T07:29:19.887Z</time></trkpt><trkpt lat="38.0469892" lon="15.6981386"><ele>212.39999999999998</ele><time>2026-04-25T07:29:20.883Z</time></trkpt><trkpt lat="38.0469485" lon="15.6982494"><ele>213.2</ele><time>2026-04-25T07:29:21.891Z</time></trkpt><trkpt lat="38.0469084" lon="15.698356"><ele>214.0</ele><time>2026-04-25T07:29:22.884Z</time></trkpt><trkpt lat="38.0468688" lon="15.6984635"><ele>214.0</ele><time>2026-04-25T07:29:23.874Z</time></trkpt><trkpt lat="38.0468279" lon="15.6985751"><ele>213.99999999999997</ele><time>2026-04-25T07:29:24.871Z</time></trkpt><trkpt lat="38.0467891" lon="15.698681"><ele>213.99999999999997</ele><time>2026-04-25T07:29:25.884Z</time></trkpt><trkpt lat="38.0467577" lon="15.6987902"><ele>214.0</ele><time>2026-04-25T07:29:26.883Z</time></trkpt><trkpt lat="38.0467367" lon="15.6988964"><ele>214.0</ele><time>2026-04-25T07:29:27.88Z</time></trkpt><trkpt lat="38.0467232" lon="15.6990152"><ele>214.39999999999998</ele><time>2026-04-25T07:29:28.888Z</time></trkpt><trkpt lat="38.0467066" lon="15.6991295"><ele>214.79999999999998</ele><time>2026-04-25T07:29:29.87Z</time></trkpt><trkpt lat="38.0466722" lon="15.6992467"><ele>215.20000000000002</ele><time>2026-04-25T07:29:30.883Z</time></trkpt><trkpt lat="38.0466356" lon="15.699356"><ele>215.60000000000002</ele><time>2026-04-25T07:29:31.872Z</time></trkpt><trkpt lat="38.0466033" lon="15.6994707"><ele>216.0</ele><time>2026-04-25T07:29:32.878Z</time></trkpt><trkpt lat="38.0465718" lon="15.6995972"><ele>217.20000000000002</ele><time>2026-04-25T07:29:33.888Z</time></trkpt><trkpt lat="38.046537" lon="15.6997155"><ele>218.40000000000003</ele><time>2026-04-25T07:29:34.872Z</time></trkpt><trkpt lat="38.0464991" lon="15.6998328"><ele>219.6</ele><time>2026-04-25T07:29:35.882Z</time></trkpt><trkpt lat="38.0464619" lon="15.6999625"><ele>220.8</ele><time>2026-04-25T07:29:36.88Z</time></trkpt><trkpt lat="38.0464283" lon="15.7000961"><ele>222.0</ele><time>2026-04-25T07:29:37.888Z</time></trkpt><trkpt lat="38.0463938" lon="15.7002301"><ele>222.39999999999998</ele><time>2026-04-25T07:29:38.872Z</time></trkpt><trkpt lat="38.0463638" lon="15.7003646"><ele>222.79999999999998</ele><time>2026-04-25T07:29:39.895Z</time></trkpt><trkpt lat="38.0463364" lon="15.7004918"><ele>223.2</ele><time>2026-04-25T07:29:40.874Z</time></trkpt><trkpt lat="38.0463052" lon="15.7006229"><ele>223.6</ele><time>2026-04-25T07:29:41.893Z</time></trkpt><trkpt lat="38.0462796" lon="15.700752"><ele>224.0</ele><time>2026-04-25T07:29:42.877Z</time></trkpt><trkpt lat="38.0462606" lon="15.700881"><ele>224.0</ele><time>2026-04-25T07:29:43.884Z</time></trkpt><trkpt lat="38.0462409" lon="15.7010105"><ele>223.99999999999997</ele><time>2026-04-25T07:29:44.887Z</time></trkpt><trkpt lat="38.0462105" lon="15.7011376"><ele>223.99999999999997</ele><time>2026-04-25T07:29:45.884Z</time></trkpt><trkpt lat="38.0461763" lon="15.7012636"><ele>224.0</ele><time>2026-04-25T07:29:46.89Z</time></trkpt><trkpt lat="38.046139" lon="15.7013906"><ele>224.0</ele><time>2026-04-25T07:29:47.898Z</time></trkpt><trkpt lat="38.0461047" lon="15.7015351"><ele>225.5</ele><time>2026-04-25T07:29:48.89Z</time></trkpt><trkpt lat="38.0460768" lon="15.7016768"><ele>227.0</ele><time>2026-04-25T07:29:49.885Z</time></trkpt><trkpt lat="38.0460487" lon="15.7018217"><ele>228.5</ele><time>2026-04-25T07:29:50.89Z</time></trkpt><trkpt lat="38.0460164" lon="15.7019786"><ele>230.0</ele><time>2026-04-25T07:29:51.895Z</time></trkpt><trkpt lat="38.0459855" lon="15.7021441"><ele>231.0</ele><time>2026-04-25T07:29:52.893Z</time></trkpt><trkpt lat="38.0459529" lon="15.7023111"><ele>232.0</ele><time>2026-04-25T07:29:53.899Z</time></trkpt><trkpt lat="38.045918" lon="15.7024741"><ele>233.0</ele><time>2026-04-25T07:29:54.89Z</time></trkpt><trkpt lat="38.0458867" lon="15.70263"><ele>234.0</ele><time>2026-04-25T07:29:55.905Z</time></trkpt><trkpt lat="38.0458522" lon="15.7027907"><ele>235.2</ele><time>2026-04-25T07:29:56.891Z</time></trkpt><trkpt lat="38.0458166" lon="15.7029446"><ele>236.39999999999998</ele><time>2026-04-25T07:29:57.893Z</time></trkpt><trkpt lat="38.0457871" lon="15.7030812"><ele>237.6</ele><time>2026-04-25T07:29:58.899Z</time></trkpt><trkpt lat="38.0457621" lon="15.7031939"><ele>238.8</ele><time>2026-04-25T07:29:59.897Z</time></trkpt><trkpt lat="38.0457405" lon="15.7032801"><ele>240.0</ele><time>2026-04-25T07:30:00.891Z</time></trkpt><trkpt lat="38.0457053" lon="15.7033817"><ele>240.33333333333334</ele><time>2026-04-25T07:30:02.892Z</time></trkpt><trkpt lat="38.0456351" lon="15.7034052"><ele>240.66666666666669</ele><time>2026-04-25T07:30:05.904Z</time></trkpt><trkpt lat="38.0455711" lon="15.7033915"><ele>241.0</ele><time>2026-04-25T07:30:07.903Z</time></trkpt><trkpt lat="38.0454634" lon="15.7033814"><ele>241.33333333333334</ele><time>2026-04-25T07:30:09.911Z</time></trkpt><trkpt lat="38.0453931" lon="15.7033752"><ele>241.66666666666669</ele><time>2026-04-25T07:30:10.905Z</time></trkpt><trkpt lat="38.0453316" lon="15.703358"><ele>242.0</ele><time>2026-04-25T07:30:11.906Z</time></trkpt><trkpt lat="38.0452548" lon="15.7033396"><ele>242.0</ele><time>2026-04-25T07:30:13.915Z</time></trkpt><trkpt lat="38.0451796" lon="15.7033189"><ele>242.0</ele><time>2026-04-25T07:30:15.909Z</time></trkpt><trkpt lat="38.0451031" lon="15.703285"><ele>242.0</ele><time>2026-04-25T07:30:17.905Z</time></trkpt><trkpt lat="38.0450127" lon="15.703308"><ele>242.0</ele><time>2026-04-25T07:30:19.912Z</time></trkpt><trkpt lat="38.0449288" lon="15.7033904"><ele>242.0</ele><time>2026-04-25T07:30:21.917Z</time></trkpt><trkpt lat="38.0448237" lon="15.7034619"><ele>243.33333333333334</ele><time>2026-04-25T07:30:23.909Z</time></trkpt><trkpt lat="38.0447562" lon="15.7034857"><ele>244.66666666666669</ele><time>2026-04-25T07:30:24.918Z</time></trkpt><trkpt lat="38.0446829" lon="15.7035041"><ele>246.0</ele><time>2026-04-25T07:30:25.912Z</time></trkpt><trkpt lat="38.0446019" lon="15.7035177"><ele>247.33333333333331</ele><time>2026-04-25T07:30:26.921Z</time></trkpt><trkpt lat="38.044511" lon="15.7035285"><ele>248.66666666666666</ele><time>2026-04-25T07:30:27.913Z</time></trkpt><trkpt lat="38.0444085" lon="15.7035492"><ele>250.0</ele><time>2026-04-25T07:30:28.92Z</time></trkpt><trkpt lat="38.0442784" lon="15.703565"><ele>250.5</ele><time>2026-04-25T07:30:29.927Z</time></trkpt><trkpt lat="38.0441427" lon="15.7035892"><ele>251.0</ele><time>2026-04-25T07:30:30.921Z</time></trkpt><trkpt lat="38.0439996" lon="15.7036124"><ele>251.5</ele><time>2026-04-25T07:30:31.916Z</time></trkpt><trkpt lat="38.0438564" lon="15.7036315"><ele>252.0</ele><time>2026-04-25T07:30:32.917Z</time></trkpt><trkpt lat="38.0437248" lon="15.7036425"><ele>256.5</ele><time>2026-04-25T07:30:33.935Z</time></trkpt><trkpt lat="38.0435977" lon="15.7036528"><ele>261.0</ele><time>2026-04-25T07:30:34.936Z</time></trkpt><trkpt lat="38.0434605" lon="15.7036642"><ele>265.5</ele><time>2026-04-25T07:30:35.94Z</time></trkpt><trkpt lat="38.0433401" lon="15.7036644"><ele>270.0</ele><time>2026-04-25T07:30:36.938Z</time></trkpt><trkpt lat="38.0432189" lon="15.7036629"><ele>273.2</ele><time>2026-04-25T07:30:37.937Z</time></trkpt><trkpt lat="38.0430998" lon="15.703659"><ele>276.4</ele><time>2026-04-25T07:30:38.922Z</time></trkpt><trkpt lat="38.0429817" lon="15.7036585"><ele>279.6</ele><time>2026-04-25T07:30:39.928Z</time></trkpt><trkpt lat="38.0428723" lon="15.7036549"><ele>282.8</ele><time>2026-04-25T07:30:40.94Z</time></trkpt><trkpt lat="38.0427798" lon="15.7036479"><ele>286.0</ele><time>2026-04-25T07:30:41.929Z</time></trkpt><trkpt lat="38.0426839" lon="15.7036146"><ele>286.0</ele><time>2026-04-25T07:30:43.92Z</time></trkpt><trkpt lat="38.0426043" lon="15.7036808"><ele>286.0</ele><time>2026-04-25T07:30:45.946Z</time></trkpt><trkpt lat="38.0425371" lon="15.703781"><ele>286.0</ele><time>2026-04-25T07:30:47.931Z</time></trkpt><trkpt lat="38.0424618" lon="15.7038125"><ele>286.0</ele><time>2026-04-25T07:30:49.943Z</time></trkpt><trkpt lat="38.0423429" lon="15.7038143"><ele>286.0</ele><time>2026-04-25T07:30:51.951Z</time></trkpt><trkpt lat="38.042267" lon="15.7038264"><ele>289.40000000000003</ele><time>2026-04-25T07:30:52.943Z</time></trkpt><trkpt lat="38.0421644" lon="15.7038356"><ele>292.8</ele><time>2026-04-25T07:30:53.944Z</time></trkpt><trkpt lat="38.0420781" lon="15.7038547"><ele>296.20000000000005</ele><time>2026-04-25T07:30:54.942Z</time></trkpt><trkpt lat="38.0419894" lon="15.703868"><ele>299.6</ele><time>2026-04-25T07:30:56.939Z</time></trkpt><trkpt lat="38.0420075" lon="15.7040055"><ele>303.0</ele><time>2026-04-25T07:30:59.95Z</time></trkpt><trkpt lat="38.0420827" lon="15.7041416"><ele>303.0</ele><time>2026-04-25T07:31:01.956Z</time></trkpt><trkpt lat="38.042117" lon="15.7042267"><ele>303.0</ele><time>2026-04-25T07:31:02.94Z</time></trkpt><trkpt lat="38.0421421" lon="15.7043195"><ele>303.0</ele><time>2026-04-25T07:31:03.934Z</time></trkpt><trkpt lat="38.0422301" lon="15.7044229"><ele>303.0</ele><time>2026-04-25T07:31:05.94Z</time></trkpt><trkpt lat="38.042295" lon="15.7044551"><ele>303.0</ele><time>2026-04-25T07:31:06.936Z</time></trkpt><trkpt lat="38.0423528" lon="15.7044893"><ele>303.0</ele><time>2026-04-25T07:31:07.956Z</time></trkpt><trkpt lat="38.0424714" lon="15.704511"><ele>303.3333333333333</ele><time>2026-04-25T07:31:09.959Z</time></trkpt><trkpt lat="38.0425343" lon="15.7044958"><ele>303.6666666666667</ele><time>2026-04-25T07:31:10.94Z</time></trkpt><trkpt lat="38.0426153" lon="15.7044605"><ele>304.0</ele><time>2026-04-25T07:31:11.948Z</time></trkpt><trkpt lat="38.0426916" lon="15.704454"><ele>304.33333333333337</ele><time>2026-04-25T07:31:12.95Z</time></trkpt><trkpt lat="38.0427571" lon="15.7044687"><ele>304.6666666666667</ele><time>2026-04-25T07:31:13.951Z</time></trkpt><trkpt lat="38.0428672" lon="15.7045383"><ele>305.0</ele><time>2026-04-25T07:31:15.957Z</time></trkpt><trkpt lat="38.0429306" lon="15.7045793"><ele>305.0</ele><time>2026-04-25T07:31:16.961Z</time></trkpt><trkpt lat="38.0430103" lon="15.7046683"><ele>305.0</ele><time>2026-04-25T07:31:18.865Z</time></trkpt><trkpt lat="38.0430243" lon="15.7047668"><ele>305.0</ele><time>2026-04-25T07:31:20.965Z</time></trkpt><trkpt lat="38.0429775" lon="15.7048597"><ele>305.0</ele><time>2026-04-25T07:31:22.946Z</time></trkpt><trkpt lat="38.0429175" lon="15.7048342"><ele>305.0</ele><time>2026-04-25T07:31:24.872Z</time></trkpt><trkpt lat="38.0428546" lon="15.7047235"><ele>305.0</ele><time>2026-04-25T07:31:26.862Z</time></trkpt><trkpt lat="38.042768" lon="15.7046672"><ele>305.0</ele><time>2026-04-25T07:31:28.869Z</time></trkpt><trkpt lat="38.0426389" lon="15.7046937"><ele>305.0</ele><time>2026-04-25T07:31:30.862Z</time></trkpt><trkpt lat="38.0425811" lon="15.7047292"><ele>305.0</ele><time>2026-04-25T07:31:31.876Z</time></trkpt><trkpt lat="38.0425277" lon="15.7047812"><ele>305.0</ele><time>2026-04-25T07:31:32.879Z</time></trkpt><trkpt lat="38.0424831" lon="15.7049061"><ele>305.0</ele><time>2026-04-25T07:31:34.875Z</time></trkpt><trkpt lat="38.0424916" lon="15.7050059"><ele>305.0</ele><time>2026-04-25T07:31:36.871Z</time></trkpt><trkpt lat="38.0424858" lon="15.7051088"><ele>309.1666666666667</ele><time>2026-04-25T07:31:38.868Z</time></trkpt><trkpt lat="38.0424057" lon="15.7052328"><ele>313.33333333333337</ele><time>2026-04-25T07:31:40.888Z</time></trkpt><trkpt lat="38.0423628" lon="15.7053076"><ele>317.5</ele><time>2026-04-25T07:31:41.884Z</time></trkpt><trkpt lat="38.0423256" lon="15.7053794"><ele>321.6666666666667</ele><time>2026-04-25T07:31:42.876Z</time></trkpt><trkpt lat="38.0422898" lon="15.7054602"><ele>325.8333333333333</ele><time>2026-04-25T07:31:43.878Z</time></trkpt><trkpt lat="38.0422507" lon="15.7055485"><ele>330.0</ele><time>2026-04-25T07:31:44.87Z</time></trkpt><trkpt lat="38.0422072" lon="15.7056367"><ele>334.0</ele><time>2026-04-25T07:31:45.871Z</time></trkpt><trkpt lat="38.0421583" lon="15.7057126"><ele>338.0</ele><time>2026-04-25T07:31:46.887Z</time></trkpt><trkpt lat="38.042108" lon="15.7057764"><ele>342.0</ele><time>2026-04-25T07:31:47.885Z</time></trkpt><trkpt lat="38.0420725" lon="15.7058462"><ele>346.0</ele><time>2026-04-25T07:31:48.878Z</time></trkpt><trkpt lat="38.0420732" lon="15.7059873"><ele>350.0</ele><time>2026-04-25T07:31:50.886Z</time></trkpt><trkpt lat="38.042095" lon="15.7061419"><ele>354.0</ele><time>2026-04-25T07:31:52.88Z</time></trkpt><trkpt lat="38.042093" lon="15.7062247"><ele>355.2</ele><time>2026-04-25T07:31:53.881Z</time></trkpt><trkpt lat="38.0421517" lon="15.7063257"><ele>356.4</ele><time>2026-04-25T07:31:55.886Z</time></trkpt><trkpt lat="38.0422372" lon="15.7064096"><ele>357.6</ele><time>2026-04-25T07:31:57.888Z</time></trkpt><trkpt lat="38.0422723" lon="15.706522"><ele>358.8</ele><time>2026-04-25T07:31:59.889Z</time></trkpt><trkpt lat="38.0422586" lon="15.7066609"><ele>360.0</ele><time>2026-04-25T07:32:01.895Z</time></trkpt><trkpt lat="38.0422346" lon="15.7067551"><ele>360.0</ele><time>2026-04-25T07:32:02.91Z</time></trkpt><trkpt lat="38.0422123" lon="15.7068568"><ele>360.0</ele><time>2026-04-25T07:32:03.903Z</time></trkpt><trkpt lat="38.0421742" lon="15.7069667"><ele>360.0</ele><time>2026-04-25T07:32:04.891Z</time></trkpt><trkpt lat="38.0421316" lon="15.7070683"><ele>360.0</ele><time>2026-04-25T07:32:05.893Z</time></trkpt><trkpt lat="38.0421008" lon="15.7071404"><ele>360.0</ele><time>2026-04-25T07:32:06.909Z</time></trkpt><trkpt lat="38.0421119" lon="15.7072367"><ele>360.0</ele><time>2026-04-25T07:32:08.907Z</time></trkpt><trkpt lat="38.0422123" lon="15.7072887"><ele>361.4285714285714</ele><time>2026-04-25T07:32:10.902Z</time></trkpt><trkpt lat="38.0422761" lon="15.7072866"><ele>362.8571428571429</ele><time>2026-04-25T07:32:11.902Z</time></trkpt><trkpt lat="38.0423392" lon="15.7072825"><ele>364.2857142857143</ele><time>2026-04-25T07:32:12.915Z</time></trkpt><trkpt lat="38.0424185" lon="15.7072877"><ele>365.71428571428567</ele><time>2026-04-25T07:32:13.918Z</time></trkpt><trkpt lat="38.0424929" lon="15.707308"><ele>367.1428571428571</ele><time>2026-04-25T07:32:14.924Z</time></trkpt><trkpt lat="38.0425586" lon="15.7073458"><ele>368.57142857142856</ele><time>2026-04-25T07:32:15.911Z</time></trkpt><trkpt lat="38.042632" lon="15.7074117"><ele>370.0</ele><time>2026-04-25T07:32:17.904Z</time></trkpt><trkpt lat="38.0426637" lon="15.7075267"><ele>368.16666666666663</ele><time>2026-04-25T07:32:19.914Z</time></trkpt><trkpt lat="38.0426466" lon="15.7076473"><ele>366.3333333333333</ele><time>2026-04-25T07:32:21.912Z</time></trkpt><trkpt lat="38.0426184" lon="15.7077233"><ele>364.5</ele><time>2026-04-25T07:32:22.902Z</time></trkpt><trkpt lat="38.0425866" lon="15.707813"><ele>362.6666666666667</ele><time>2026-04-25T07:32:23.93Z</time></trkpt><trkpt lat="38.042554" lon="15.7078983"><ele>360.83333333333337</ele><time>2026-04-25T07:32:24.916Z</time></trkpt><trkpt lat="38.0425124" lon="15.7079605"><ele>359.0</ele><time>2026-04-25T07:32:25.91Z</time></trkpt><trkpt lat="38.0424293" lon="15.7079456"><ele>361.2</ele><time>2026-04-25T07:32:27.911Z</time></trkpt><trkpt lat="38.0424106" lon="15.7078364"><ele>363.4</ele><time>2026-04-25T07:32:29.913Z</time></trkpt><trkpt lat="38.042363" lon="15.7077"><ele>365.6</ele><time>2026-04-25T07:32:31.925Z</time></trkpt><trkpt lat="38.0422666" lon="15.7076535"><ele>367.8</ele><time>2026-04-25T07:32:33.912Z</time></trkpt><trkpt lat="38.0422041" lon="15.7077026"><ele>370.0</ele><time>2026-04-25T07:32:36.928Z</time></trkpt><trkpt lat="38.0422532" lon="15.707798"><ele>372.66666666666663</ele><time>2026-04-25T07:32:38.936Z</time></trkpt><trkpt lat="38.0422804" lon="15.7078725"><ele>375.3333333333333</ele><time>2026-04-25T07:32:39.918Z</time></trkpt><trkpt lat="38.0422917" lon="15.7079627"><ele>378.0</ele><time>2026-04-25T07:32:40.944Z</time></trkpt><trkpt lat="38.0422895" lon="15.7080627"><ele>380.66666666666663</ele><time>2026-04-25T07:32:41.937Z</time></trkpt><trkpt lat="38.0422689" lon="15.7081659"><ele>383.3333333333333</ele><time>2026-04-25T07:32:42.94Z</time></trkpt><trkpt lat="38.0422398" lon="15.7082516"><ele>386.0</ele><time>2026-04-25T07:32:43.92Z</time></trkpt><trkpt lat="38.0421282" lon="15.7083387"><ele>385.99999999999994</ele><time>2026-04-25T07:32:45.929Z</time></trkpt><trkpt lat="38.0420628" lon="15.7083701"><ele>386.0</ele><time>2026-04-25T07:32:46.937Z</time></trkpt><trkpt lat="38.0420105" lon="15.7083182"><ele>386.0</ele><time>2026-04-25T07:32:48.937Z</time></trkpt><trkpt lat="38.0420006" lon="15.7081723"><ele>386.0</ele><time>2026-04-25T07:32:50.942Z</time></trkpt><trkpt lat="38.0419935" lon="15.7080848"><ele>385.99999999999994</ele><time>2026-04-25T07:32:51.929Z</time></trkpt><trkpt lat="38.0419655" lon="15.7080111"><ele>386.0</ele><time>2026-04-25T07:32:52.943Z</time></trkpt><trkpt lat="38.0419092" lon="15.7079636"><ele>385.99999999999994</ele><time>2026-04-25T07:32:53.945Z</time></trkpt><trkpt lat="38.041842" lon="15.707936"><ele>386.0</ele><time>2026-04-25T07:32:54.94Z</time></trkpt><trkpt lat="38.0417602" lon="15.7078889"><ele>386.0</ele><time>2026-04-25T07:32:55.944Z</time></trkpt><trkpt lat="38.0416805" lon="15.7078303"><ele>386.0</ele><time>2026-04-25T07:32:56.938Z</time></trkpt><trkpt lat="38.0416167" lon="15.7077689"><ele>385.99999999999994</ele><time>2026-04-25T07:32:57.951Z</time></trkpt><trkpt lat="38.0415535" lon="15.7077124"><ele>386.0</ele><time>2026-04-25T07:32:58.953Z</time></trkpt><trkpt lat="38.0414988" lon="15.7076497"><ele>395.0</ele><time>2026-04-25T07:32:59.959Z</time></trkpt><trkpt lat="38.0414487" lon="15.7075651"><ele>404.0</ele><time>2026-04-25T07:33:00.953Z</time></trkpt><trkpt lat="38.0414056" lon="15.7073805"><ele>413.0</ele><time>2026-04-25T07:33:02.961Z</time></trkpt><trkpt lat="38.0413859" lon="15.7072319"><ele>422.0</ele><time>2026-04-25T07:33:04.853Z</time></trkpt><trkpt lat="38.0413433" lon="15.7070784"><ele>418.8</ele><time>2026-04-25T07:33:06.962Z</time></trkpt><trkpt lat="38.0412639" lon="15.7069035"><ele>415.6</ele><time>2026-04-25T07:33:08.878Z</time></trkpt><trkpt lat="38.0412096" lon="15.7068028"><ele>412.40000000000003</ele><time>2026-04-25T07:33:09.875Z</time></trkpt><trkpt lat="38.0411798" lon="15.7067158"><ele>409.20000000000005</ele><time>2026-04-25T07:33:10.857Z</time></trkpt><trkpt lat="38.0411689" lon="15.706624"><ele>406.0</ele><time>2026-04-25T07:33:11.861Z</time></trkpt><trkpt lat="38.0411606" lon="15.7065394"><ele>406.0</ele><time>2026-04-25T07:33:12.862Z</time></trkpt><trkpt lat="38.0411351" lon="15.706466"><ele>406.0</ele><time>2026-04-25T07:33:13.876Z</time></trkpt><trkpt lat="38.04109" lon="15.7064078"><ele>406.0</ele><time>2026-04-25T07:33:14.868Z</time></trkpt><trkpt lat="38.041026" lon="15.7063573"><ele>406.0</ele><time>2026-04-25T07:33:15.875Z</time></trkpt><trkpt lat="38.0409547" lon="15.7063024"><ele>406.0</ele><time>2026-04-25T07:33:16.864Z</time></trkpt><trkpt lat="38.0409017" lon="15.7062456"><ele>406.0</ele><time>2026-04-25T07:33:17.874Z</time></trkpt><trkpt lat="38.0408345" lon="15.7062159"><ele>406.0</ele><time>2026-04-25T07:33:20.872Z</time></trkpt><trkpt lat="38.040817" lon="15.7063116"><ele>406.00000000000006</ele><time>2026-04-25T07:33:23.887Z</time></trkpt><trkpt lat="38.0408338" lon="15.7064096"><ele>406.0</ele><time>2026-04-25T07:33:24.875Z</time></trkpt><trkpt lat="38.0408793" lon="15.7064894"><ele>406.0</ele><time>2026-04-25T07:33:25.879Z</time></trkpt><trkpt lat="38.0409228" lon="15.7065616"><ele>406.0</ele><time>2026-04-25T07:33:26.888Z</time></trkpt><trkpt lat="38.0409544" lon="15.7066522"><ele>406.00000000000006</ele><time>2026-04-25T07:33:27.886Z</time></trkpt><trkpt lat="38.0409729" lon="15.7067536"><ele>406.0</ele><time>2026-04-25T07:33:28.879Z</time></trkpt><trkpt lat="38.0409839" lon="15.7068457"><ele>409.20000000000005</ele><time>2026-04-25T07:33:29.888Z</time></trkpt><trkpt lat="38.0409983" lon="15.7069713"><ele>412.40000000000003</ele><time>2026-04-25T07:33:31.896Z</time></trkpt><trkpt lat="38.0410259" lon="15.7071014"><ele>415.6</ele><time>2026-04-25T07:33:33.898Z</time></trkpt><trkpt lat="38.0410272" lon="15.7072548"><ele>418.8</ele><time>2026-04-25T07:33:35.896Z</time></trkpt><trkpt lat="38.0409951" lon="15.7073939"><ele>422.0</ele><time>2026-04-25T07:33:37.892Z</time></trkpt><trkpt lat="38.040967" lon="15.707548"><ele>421.99999999999994</ele><time>2026-04-25T07:33:39.893Z</time></trkpt><trkpt lat="38.0409626" lon="15.7076459"><ele>422.0</ele><time>2026-04-25T07:33:40.888Z</time></trkpt><trkpt lat="38.0409588" lon="15.7077478"><ele>422.0</ele><time>2026-04-25T07:33:41.892Z</time></trkpt><trkpt lat="38.0409697" lon="15.7078293"><ele>422.0</ele><time>2026-04-25T07:33:42.903Z</time></trkpt><trkpt lat="38.0410326" lon="15.707953"><ele>421.99999999999994</ele><time>2026-04-25T07:33:44.889Z</time></trkpt><trkpt lat="38.0410608" lon="15.7080405"><ele>422.0</ele><time>2026-04-25T07:33:45.891Z</time></trkpt><trkpt lat="38.0410761" lon="15.7081261"><ele>424.16666666666663</ele><time>2026-04-25T07:33:46.896Z</time></trkpt><trkpt lat="38.041083" lon="15.7082066"><ele>426.3333333333333</ele><time>2026-04-25T07:33:47.899Z</time></trkpt><trkpt lat="38.0410925" lon="15.7083662"><ele>428.5</ele><time>2026-04-25T07:33:49.892Z</time></trkpt><trkpt lat="38.041069" lon="15.7085078"><ele>430.66666666666663</ele><time>2026-04-25T07:33:51.898Z</time></trkpt><trkpt lat="38.0410075" lon="15.708572"><ele>432.8333333333333</ele><time>2026-04-25T07:33:53.894Z</time></trkpt><trkpt lat="38.0409596" lon="15.708518"><ele>435.0</ele><time>2026-04-25T07:33:55.898Z</time></trkpt><trkpt lat="38.0409606" lon="15.7083829"><ele>435.0</ele><time>2026-04-25T07:33:57.905Z</time></trkpt><trkpt lat="38.0409443" lon="15.708218"><ele>435.0</ele><time>2026-04-25T07:33:59.902Z</time></trkpt><trkpt lat="38.0409102" lon="15.7081258"><ele>435.0</ele><time>2026-04-25T07:34:00.908Z</time></trkpt><trkpt lat="38.0408448" lon="15.7080235"><ele>435.0</ele><time>2026-04-25T07:34:01.906Z</time></trkpt><trkpt lat="38.0407899" lon="15.7079157"><ele>435.0</ele><time>2026-04-25T07:34:02.924Z</time></trkpt><trkpt lat="38.0407409" lon="15.7078098"><ele>440.1666666666667</ele><time>2026-04-25T07:34:03.924Z</time></trkpt><trkpt lat="38.0407055" lon="15.7077077"><ele>445.33333333333337</ele><time>2026-04-25T07:34:04.945Z</time></trkpt><trkpt lat="38.0406824" lon="15.7076097"><ele>450.5</ele><time>2026-04-25T07:34:05.914Z</time></trkpt><trkpt lat="38.0406699" lon="15.7075092"><ele>455.6666666666667</ele><time>2026-04-25T07:34:06.931Z</time></trkpt><trkpt lat="38.0406474" lon="15.7074195"><ele>460.83333333333337</ele><time>2026-04-25T07:34:07.92Z</time></trkpt><trkpt lat="38.0406164" lon="15.7073321"><ele>466.0</ele><time>2026-04-25T07:34:08.921Z</time></trkpt><trkpt lat="38.0405639" lon="15.7072548"><ele>466.0</ele><time>2026-04-25T07:34:09.928Z</time></trkpt><trkpt lat="38.0404965" lon="15.7071606"><ele>466.0</ele><time>2026-04-25T07:34:10.916Z</time></trkpt><trkpt lat="38.0404237" lon="15.7070634"><ele>466.0</ele><time>2026-04-25T07:34:11.929Z</time></trkpt><trkpt lat="38.040363" lon="15.7069638"><ele>466.0</ele><time>2026-04-25T07:34:12.933Z</time></trkpt><trkpt lat="38.0403014" lon="15.7068857"><ele>466.0</ele><time>2026-04-25T07:34:13.921Z</time></trkpt><trkpt lat="38.0402375" lon="15.7068126"><ele>466.00000000000006</ele><time>2026-04-25T07:34:14.93Z</time></trkpt><trkpt lat="38.0401825" lon="15.7067544"><ele>466.0</ele><time>2026-04-25T07:34:15.946Z</time></trkpt><trkpt lat="38.0401004" lon="15.7067144"><ele>466.0</ele><time>2026-04-25T07:34:17.932Z</time></trkpt><trkpt lat="38.0400761" lon="15.706804"><ele>466.0</ele><time>2026-04-25T07:34:20.95Z</time></trkpt><trkpt lat="38.0401198" lon="15.7069095"><ele>466.00000000000006</ele><time>2026-04-25T07:34:23.932Z</time></trkpt><trkpt lat="38.0401415" lon="15.7070285"><ele>466.0</ele><time>2026-04-25T07:34:25.938Z</time></trkpt><trkpt lat="38.0401967" lon="15.7071682"><ele>466.0</ele><time>2026-04-25T07:34:27.942Z</time></trkpt><trkpt lat="38.0402293" lon="15.7072493"><ele>466.0</ele><time>2026-04-25T07:34:28.955Z</time></trkpt><trkpt lat="38.0402659" lon="15.7073286"><ele>466.0</ele><time>2026-04-25T07:34:29.94Z</time></trkpt><trkpt lat="38.0403085" lon="15.7074081"><ele>466.0</ele><time>2026-04-25T07:34:30.947Z</time></trkpt><trkpt lat="38.0403495" lon="15.7074888"><ele>466.0</ele><time>2026-04-25T07:34:31.955Z</time></trkpt><trkpt lat="38.0403768" lon="15.7075616"><ele>466.0</ele><time>2026-04-25T07:34:32.941Z</time></trkpt><trkpt lat="38.0403934" lon="15.7076429"><ele>466.0</ele><time>2026-04-25T07:34:33.943Z</time></trkpt><trkpt lat="38.0404026" lon="15.7077325"><ele>469.1666666666667</ele><time>2026-04-25T07:34:34.958Z</time></trkpt><trkpt lat="38.0404172" lon="15.7078262"><ele>472.33333333333337</ele><time>2026-04-25T07:34:35.946Z</time></trkpt><trkpt lat="38.0404327" lon="15.7079248"><ele>475.5</ele><time>2026-04-25T07:34:36.955Z</time></trkpt><trkpt lat="38.0404555" lon="15.7080243"><ele>478.66666666666663</ele><time>2026-04-25T07:34:37.954Z</time></trkpt><trkpt lat="38.0404775" lon="15.7081152"><ele>481.8333333333333</ele><time>2026-04-25T07:34:38.952Z</time></trkpt><trkpt lat="38.0404906" lon="15.7081942"><ele>485.0</ele><time>2026-04-25T07:34:39.957Z</time></trkpt><trkpt lat="38.0405011" lon="15.7083521"><ele>484.99999999999994</ele><time>2026-04-25T07:34:41.961Z</time></trkpt><trkpt lat="38.0404938" lon="15.7084415"><ele>485.0</ele><time>2026-04-25T07:34:42.963Z</time></trkpt><trkpt lat="38.0404766" lon="15.7085376"><ele>485.0</ele><time>2026-04-25T07:34:43.955Z</time></trkpt><trkpt lat="38.040453" lon="15.7086236"><ele>485.0</ele><time>2026-04-25T07:34:44.951Z</time></trkpt><trkpt lat="38.0404174" lon="15.708692"><ele>484.99999999999994</ele><time>2026-04-25T07:34:45.958Z</time></trkpt><trkpt lat="38.0403322" lon="15.7087956"><ele>485.0</ele><time>2026-04-25T07:34:47.862Z</time></trkpt><trkpt lat="38.04029" lon="15.7089114"><ele>486.28571428571433</ele><time>2026-04-25T07:34:49.856Z</time></trkpt><trkpt lat="38.0403216" lon="15.7089882"><ele>487.57142857142856</ele><time>2026-04-25T07:34:50.864Z</time></trkpt><trkpt lat="38.0403636" lon="15.7090516"><ele>488.8571428571429</ele><time>2026-04-25T07:34:51.856Z</time></trkpt><trkpt lat="38.0404223" lon="15.7091194"><ele>490.14285714285717</ele><time>2026-04-25T07:34:52.867Z</time></trkpt><trkpt lat="38.0404883" lon="15.7091812"><ele>491.42857142857144</ele><time>2026-04-25T07:34:53.867Z</time></trkpt><trkpt lat="38.0405529" lon="15.7092294"><ele>492.7142857142857</ele><time>2026-04-25T07:34:54.867Z</time></trkpt><trkpt lat="38.0406093" lon="15.7092686"><ele>494.0</ele><time>2026-04-25T07:34:55.866Z</time></trkpt><trkpt lat="38.0406589" lon="15.7093839"><ele>495.66666666666663</ele><time>2026-04-25T07:34:57.871Z</time></trkpt><trkpt lat="38.0406643" lon="15.7094713"><ele>497.3333333333333</ele><time>2026-04-25T07:34:58.876Z</time></trkpt><trkpt lat="38.0406645" lon="15.7095572"><ele>499.0</ele><time>2026-04-25T07:34:59.883Z</time></trkpt><trkpt lat="38.0406572" lon="15.7096821"><ele>500.66666666666663</ele><time>2026-04-25T07:35:01.874Z</time></trkpt><trkpt lat="38.0406238" lon="15.7097636"><ele>502.3333333333333</ele><time>2026-04-25T07:35:03.878Z</time></trkpt><trkpt lat="38.0405349" lon="15.7098064"><ele>504.0</ele><time>2026-04-25T07:35:06.882Z</time></trkpt><trkpt lat="38.040461" lon="15.7098575"><ele>504.0</ele><time>2026-04-25T07:35:08.876Z</time></trkpt><trkpt lat="38.040383" lon="15.7097807"><ele>504.0</ele><time>2026-04-25T07:35:10.882Z</time></trkpt><trkpt lat="38.0403798" lon="15.7096741"><ele>504.0</ele><time>2026-04-25T07:35:12.894Z</time></trkpt><trkpt lat="38.0403404" lon="15.7095724"><ele>504.0</ele><time>2026-04-25T07:35:14.888Z</time></trkpt><trkpt lat="38.04028" lon="15.7095113"><ele>504.0</ele><time>2026-04-25T07:35:16.886Z</time></trkpt><trkpt lat="38.040216" lon="15.7094656"><ele>504.0</ele><time>2026-04-25T07:35:18.9Z</time></trkpt><trkpt lat="38.0401293" lon="15.7093844"><ele>502.3333333333333</ele><time>2026-04-25T07:35:20.905Z</time></trkpt><trkpt lat="38.0400857" lon="15.7093185"><ele>500.66666666666663</ele><time>2026-04-25T07:35:21.895Z</time></trkpt><trkpt lat="38.0400441" lon="15.7092467"><ele>499.0</ele><time>2026-04-25T07:35:22.9Z</time></trkpt><trkpt lat="38.039977" lon="15.7091428"><ele>497.3333333333333</ele><time>2026-04-25T07:35:24.912Z</time></trkpt><trkpt lat="38.0398961" lon="15.7091926"><ele>495.66666666666663</ele><time>2026-04-25T07:35:27.909Z</time></trkpt><trkpt lat="38.0398969" lon="15.7093151"><ele>494.0</ele><time>2026-04-25T07:35:29.906Z</time></trkpt><trkpt lat="38.0399464" lon="15.7094586"><ele>495.66666666666663</ele><time>2026-04-25T07:35:31.914Z</time></trkpt><trkpt lat="38.0399835" lon="15.70953"><ele>497.3333333333333</ele><time>2026-04-25T07:35:32.919Z</time></trkpt><trkpt lat="38.040015" lon="15.7096051"><ele>499.0</ele><time>2026-04-25T07:35:33.918Z</time></trkpt><trkpt lat="38.0400354" lon="15.709692"><ele>500.66666666666663</ele><time>2026-04-25T07:35:34.921Z</time></trkpt><trkpt lat="38.0400426" lon="15.709777"><ele>502.3333333333333</ele><time>2026-04-25T07:35:35.916Z</time></trkpt><trkpt lat="38.0400156" lon="15.709929"><ele>504.0</ele><time>2026-04-25T07:35:37.923Z</time></trkpt><trkpt lat="38.0399926" lon="15.7100037"><ele>505.4</ele><time>2026-04-25T07:35:38.93Z</time></trkpt><trkpt lat="38.0399306" lon="15.7101166"><ele>506.79999999999995</ele><time>2026-04-25T07:35:40.917Z</time></trkpt><trkpt lat="38.0399275" lon="15.7102452"><ele>508.20000000000005</ele><time>2026-04-25T07:35:42.922Z</time></trkpt><trkpt lat="38.0400242" lon="15.7103539"><ele>509.6</ele><time>2026-04-25T07:35:44.931Z</time></trkpt><trkpt lat="38.040081" lon="15.7104058"><ele>511.0</ele><time>2026-04-25T07:35:45.932Z</time></trkpt><trkpt lat="38.0401092" lon="15.7105565"><ele>511.00000000000006</ele><time>2026-04-25T07:35:47.931Z</time></trkpt><trkpt lat="38.0400875" lon="15.7106424"><ele>511.0</ele><time>2026-04-25T07:35:48.925Z</time></trkpt><trkpt lat="38.0400575" lon="15.7107178"><ele>511.0</ele><time>2026-04-25T07:35:49.943Z</time></trkpt><trkpt lat="38.0400203" lon="15.7107826"><ele>511.0</ele><time>2026-04-25T07:35:50.95Z</time></trkpt><trkpt lat="38.0399669" lon="15.7109043"><ele>511.00000000000006</ele><time>2026-04-25T07:35:52.93Z</time></trkpt><trkpt lat="38.0399588" lon="15.7110685"><ele>511.0</ele><time>2026-04-25T07:35:54.932Z</time></trkpt><trkpt lat="38.0399294" lon="15.7111938"><ele>521.4</ele><time>2026-04-25T07:35:56.946Z</time></trkpt><trkpt lat="38.0398872" lon="15.7113186"><ele>531.8</ele><time>2026-04-25T07:35:58.951Z</time></trkpt><trkpt lat="38.0398663" lon="15.7114144"><ele>542.1999999999999</ele><time>2026-04-25T07:35:59.945Z</time></trkpt><trkpt lat="38.0398539" lon="15.7115371"><ele>552.6</ele><time>2026-04-25T07:36:00.939Z</time></trkpt><trkpt lat="38.0398536" lon="15.7116547"><ele>563.0</ele><time>2026-04-25T07:36:01.948Z</time></trkpt><trkpt lat="38.0398584" lon="15.7117658"><ele>563.0</ele><time>2026-04-25T07:36:02.945Z</time></trkpt><trkpt lat="38.0398647" lon="15.7118749"><ele>563.0</ele><time>2026-04-25T07:36:03.946Z</time></trkpt><trkpt lat="38.03987" lon="15.7119812"><ele>563.0</ele><time>2026-04-25T07:36:04.937Z</time></trkpt><trkpt lat="38.0398686" lon="15.7120813"><ele>563.0</ele><time>2026-04-25T07:36:05.95Z</time></trkpt><trkpt lat="38.0398649" lon="15.7122239"><ele>563.0</ele><time>2026-04-25T07:36:07.953Z</time></trkpt><trkpt lat="38.0398146" lon="15.7122729"><ele>563.0</ele><time>2026-04-25T07:36:10.948Z</time></trkpt><trkpt lat="38.0397685" lon="15.7121464"><ele>563.0</ele><time>2026-04-25T07:36:13.95Z</time></trkpt><trkpt lat="38.0397228" lon="15.7120136"><ele>563.0</ele><time>2026-04-25T07:36:15.957Z</time></trkpt><trkpt lat="38.039691" lon="15.7119281"><ele>563.0</ele><time>2026-04-25T07:36:16.954Z</time></trkpt><trkpt lat="38.039657" lon="15.7118213"><ele>563.0</ele><time>2026-04-25T07:36:17.862Z</time></trkpt><trkpt lat="38.0396199" lon="15.7117215"><ele>563.0</ele><time>2026-04-25T07:36:18.866Z</time></trkpt><trkpt lat="38.0395912" lon="15.7116327"><ele>563.0</ele><time>2026-04-25T07:36:19.855Z</time></trkpt><trkpt lat="38.0395786" lon="15.7115471"><ele>563.0</ele><time>2026-04-25T07:36:20.855Z</time></trkpt><trkpt lat="38.0395752" lon="15.7114606"><ele>563.0</ele><time>2026-04-25T07:36:21.863Z</time></trkpt><trkpt lat="38.0395707" lon="15.7113623"><ele>563.0</ele><time>2026-04-25T07:36:22.864Z</time></trkpt><trkpt lat="38.0395572" lon="15.7112797"><ele>563.0</ele><time>2026-04-25T07:36:23.861Z</time></trkpt><trkpt lat="38.0394875" lon="15.7111632"><ele>563.0</ele><time>2026-04-25T07:36:25.87Z</time></trkpt><trkpt lat="38.0394369" lon="15.7111074"><ele>563.0</ele><time>2026-04-25T07:36:26.87Z</time></trkpt><trkpt lat="38.0393914" lon="15.7110479"><ele>562.4</ele><time>2026-04-25T07:36:27.878Z</time></trkpt><trkpt lat="38.039363" lon="15.7109142"><ele>561.8</ele><time>2026-04-25T07:36:29.862Z</time></trkpt><trkpt lat="38.0393699" lon="15.7107603"><ele>561.2</ele><time>2026-04-25T07:36:31.875Z</time></trkpt><trkpt lat="38.0393544" lon="15.7106148"><ele>560.6</ele><time>2026-04-25T07:36:33.873Z</time></trkpt><trkpt lat="38.0393237" lon="15.7105337"><ele>560.0</ele><time>2026-04-25T07:36:34.876Z</time></trkpt><trkpt lat="38.0392898" lon="15.7104601"><ele>560.0</ele><time>2026-04-25T07:36:35.868Z</time></trkpt><trkpt lat="38.0392608" lon="15.7103887"><ele>560.0</ele><time>2026-04-25T07:36:36.879Z</time></trkpt><trkpt lat="38.0392469" lon="15.7102492"><ele>560.0</ele><time>2026-04-25T07:36:38.881Z</time></trkpt><trkpt lat="38.0392241" lon="15.7100944"><ele>560.0</ele><time>2026-04-25T07:36:40.869Z</time></trkpt><trkpt lat="38.0391921" lon="15.7100222"><ele>560.0</ele><time>2026-04-25T07:36:41.869Z</time></trkpt><trkpt lat="38.0391509" lon="15.7099454"><ele>560.0</ele><time>2026-04-25T07:36:42.878Z</time></trkpt><trkpt lat="38.0391057" lon="15.7098729"><ele>567.3333333333333</ele><time>2026-04-25T07:36:43.869Z</time></trkpt><trkpt lat="38.0390661" lon="15.7098102"><ele>574.6666666666666</ele><time>2026-04-25T07:36:44.882Z</time></trkpt><trkpt lat="38.0390061" lon="15.7097507"><ele>582.0</ele><time>2026-04-25T07:36:46.874Z</time></trkpt><trkpt lat="38.0389674" lon="15.7098146"><ele>589.3333333333334</ele><time>2026-04-25T07:36:49.885Z</time></trkpt><trkpt lat="38.0390164" lon="15.7099294"><ele>596.6666666666667</ele><time>2026-04-25T07:36:51.892Z</time></trkpt><trkpt lat="38.0390653" lon="15.7100633"><ele>604.0</ele><time>2026-04-25T07:36:53.895Z</time></trkpt><trkpt lat="38.0390665" lon="15.7102067"><ele>605.8333333333334</ele><time>2026-04-25T07:36:55.876Z</time></trkpt><trkpt lat="38.0390492" lon="15.7102911"><ele>607.6666666666667</ele><time>2026-04-25T07:36:56.887Z</time></trkpt><trkpt lat="38.0390334" lon="15.7103751"><ele>609.5</ele><time>2026-04-25T07:36:57.875Z</time></trkpt><trkpt lat="38.0390193" lon="15.7104555"><ele>611.3333333333334</ele><time>2026-04-25T07:36:58.885Z</time></trkpt><trkpt lat="38.0389707" lon="15.7105852"><ele>613.1666666666666</ele><time>2026-04-25T07:37:00.883Z</time></trkpt><trkpt lat="38.0389088" lon="15.7107303"><ele>615.0</ele><time>2026-04-25T07:37:02.881Z</time></trkpt><trkpt lat="38.0389122" lon="15.71087"><ele>615.0</ele><time>2026-04-25T07:37:04.888Z</time></trkpt><trkpt lat="38.0389077" lon="15.7110245"><ele>615.0</ele><time>2026-04-25T07:37:06.884Z</time></trkpt><trkpt lat="38.0389006" lon="15.7111095"><ele>615.0</ele><time>2026-04-25T07:37:07.899Z</time></trkpt><trkpt lat="38.0388926" lon="15.7111973"><ele>615.0</ele><time>2026-04-25T07:37:08.903Z</time></trkpt><trkpt lat="38.0388918" lon="15.7112802"><ele>615.0</ele><time>2026-04-25T07:37:09.89Z</time></trkpt><trkpt lat="38.038879" lon="15.7113705"><ele>615.0</ele><time>2026-04-25T07:37:11.892Z</time></trkpt><trkpt lat="38.0388176" lon="15.7112803"><ele>615.0</ele><time>2026-04-25T07:37:15.893Z</time></trkpt><trkpt lat="38.0387976" lon="15.7111425"><ele>615.0</ele><time>2026-04-25T07:37:17.882Z</time></trkpt><trkpt lat="38.0387681" lon="15.7109964"><ele>615.0</ele><time>2026-04-25T07:37:19.888Z</time></trkpt><trkpt lat="38.0387471" lon="15.7109127"><ele>615.0</ele><time>2026-04-25T07:37:20.9Z</time></trkpt><trkpt lat="38.0387216" lon="15.7108246"><ele>615.0</ele><time>2026-04-25T07:37:21.893Z</time></trkpt><trkpt lat="38.0387047" lon="15.7107364"><ele>615.0</ele><time>2026-04-25T07:37:22.893Z</time></trkpt><trkpt lat="38.0387013" lon="15.710639"><ele>615.0</ele><time>2026-04-25T07:37:23.901Z</time></trkpt><trkpt lat="38.0387017" lon="15.7105453"><ele>615.0</ele><time>2026-04-25T07:37:24.884Z</time></trkpt><trkpt lat="38.0387023" lon="15.7104615"><ele>615.0</ele><time>2026-04-25T07:37:25.891Z</time></trkpt><trkpt lat="38.0386822" lon="15.7103176"><ele>615.0</ele><time>2026-04-25T07:37:27.892Z</time></trkpt><trkpt lat="38.0386348" lon="15.7101845"><ele>615.0</ele><time>2026-04-25T07:37:29.898Z</time></trkpt><trkpt lat="38.0385439" lon="15.7100678"><ele>613.1666666666666</ele><time>2026-04-25T07:37:31.89Z</time></trkpt><trkpt lat="38.0384909" lon="15.7099994"><ele>611.3333333333334</ele><time>2026-04-25T07:37:32.914Z</time></trkpt><trkpt lat="38.038434" lon="15.7099227"><ele>609.5</ele><time>2026-04-25T07:37:33.908Z</time></trkpt><trkpt lat="38.0383821" lon="15.7098368"><ele>607.6666666666667</ele><time>2026-04-25T07:37:34.9Z</time></trkpt><trkpt lat="38.0383298" lon="15.7097619"><ele>605.8333333333334</ele><time>2026-04-25T07:37:35.907Z</time></trkpt><trkpt lat="38.0382788" lon="15.7097059"><ele>604.0</ele><time>2026-04-25T07:37:36.904Z</time></trkpt><trkpt lat="38.038181" lon="15.7096333"><ele>604.0</ele><time>2026-04-25T07:37:38.924Z</time></trkpt><trkpt lat="38.0381156" lon="15.7096361"><ele>604.0</ele><time>2026-04-25T07:37:41.911Z</time></trkpt><trkpt lat="38.0381607" lon="15.7097378"><ele>604.0</ele><time>2026-04-25T07:37:44.922Z</time></trkpt><trkpt lat="38.0382353" lon="15.7098533"><ele>604.0</ele><time>2026-04-25T07:37:46.911Z</time></trkpt><trkpt lat="38.0382728" lon="15.7099324"><ele>604.0</ele><time>2026-04-25T07:37:47.913Z</time></trkpt><trkpt lat="38.0382895" lon="15.7100284"><ele>604.0</ele><time>2026-04-25T07:37:48.925Z</time></trkpt><trkpt lat="38.0383045" lon="15.7101364"><ele>606.2</ele><time>2026-04-25T07:37:49.921Z</time></trkpt><trkpt lat="38.0383071" lon="15.7102681"><ele>608.4</ele><time>2026-04-25T07:37:50.936Z</time></trkpt><trkpt lat="38.0383091" lon="15.7104094"><ele>610.6</ele><time>2026-04-25T07:37:51.929Z</time></trkpt><trkpt lat="38.0383087" lon="15.7105426"><ele>612.8</ele><time>2026-04-25T07:37:52.921Z</time></trkpt><trkpt lat="38.0383097" lon="15.710638"><ele>615.0</ele><time>2026-04-25T07:37:53.92Z</time></trkpt><trkpt lat="38.0383049" lon="15.7107594"><ele>617.6666666666666</ele><time>2026-04-25T07:37:55.928Z</time></trkpt><trkpt lat="38.0382365" lon="15.7107765"><ele>620.3333333333334</ele><time>2026-04-25T07:37:58.943Z</time></trkpt><trkpt lat="38.0381985" lon="15.7107126"><ele>623.0</ele><time>2026-04-25T07:38:00.929Z</time></trkpt><trkpt lat="38.0381449" lon="15.710578"><ele>625.6666666666667</ele><time>2026-04-25T07:38:02.941Z</time></trkpt><trkpt lat="38.0380976" lon="15.7104909"><ele>628.3333333333334</ele><time>2026-04-25T07:38:03.928Z</time></trkpt><trkpt lat="38.0380334" lon="15.7103895"><ele>631.0</ele><time>2026-04-25T07:38:04.945Z</time></trkpt><trkpt lat="38.0379608" lon="15.7102976"><ele>632.1666666666667</ele><time>2026-04-25T07:38:05.922Z</time></trkpt><trkpt lat="38.0378807" lon="15.7102185"><ele>633.3333333333334</ele><time>2026-04-25T07:38:06.924Z</time></trkpt><trkpt lat="38.0378106" lon="15.7101595"><ele>634.5</ele><time>2026-04-25T07:38:07.934Z</time></trkpt><trkpt lat="38.037742" lon="15.7101204"><ele>635.6666666666666</ele><time>2026-04-25T07:38:08.93Z</time></trkpt><trkpt lat="38.0376588" lon="15.7100798"><ele>636.8333333333333</ele><time>2026-04-25T07:38:09.926Z</time></trkpt><trkpt lat="38.0375865" lon="15.7100264"><ele>638.0</ele><time>2026-04-25T07:38:10.929Z</time></trkpt><trkpt lat="38.0375229" lon="15.709958"><ele>641.5999999999999</ele><time>2026-04-25T07:38:11.929Z</time></trkpt><trkpt lat="38.0374596" lon="15.7098826"><ele>645.1999999999999</ele><time>2026-04-25T07:38:12.935Z</time></trkpt><trkpt lat="38.0373899" lon="15.7097985"><ele>648.8</ele><time>2026-04-25T07:38:13.937Z</time></trkpt><trkpt lat="38.0373178" lon="15.709714"><ele>652.4</ele><time>2026-04-25T07:38:14.933Z</time></trkpt><trkpt lat="38.0372452" lon="15.7096353"><ele>656.0</ele><time>2026-04-25T07:38:15.939Z</time></trkpt><trkpt lat="38.0371848" lon="15.7095584"><ele>656.0</ele><time>2026-04-25T07:38:16.948Z</time></trkpt><trkpt lat="38.0371351" lon="15.7094705"><ele>656.0</ele><time>2026-04-25T07:38:17.959Z</time></trkpt><trkpt lat="38.0370808" lon="15.7093854"><ele>656.0</ele><time>2026-04-25T07:38:18.942Z</time></trkpt><trkpt lat="38.0370227" lon="15.7093045"><ele>656.0</ele><time>2026-04-25T07:38:19.95Z</time></trkpt><trkpt lat="38.0369734" lon="15.7092271"><ele>656.0</ele><time>2026-04-25T07:38:20.945Z</time></trkpt><trkpt lat="38.0369375" lon="15.7091402"><ele>656.0</ele><time>2026-04-25T07:38:21.939Z</time></trkpt><trkpt lat="38.0369053" lon="15.7090553"><ele>657.3333333333333</ele><time>2026-04-25T07:38:22.94Z</time></trkpt><trkpt lat="38.0368635" lon="15.708965"><ele>658.6666666666666</ele><time>2026-04-25T07:38:23.964Z</time></trkpt><trkpt lat="38.036808" lon="15.7088727"><ele>660.0</ele><time>2026-04-25T07:38:24.958Z</time></trkpt><trkpt lat="38.0367571" lon="15.7087875"><ele>661.3333333333334</ele><time>2026-04-25T07:38:25.953Z</time></trkpt><trkpt lat="38.0367074" lon="15.7087096"><ele>662.6666666666667</ele><time>2026-04-25T07:38:26.951Z</time></trkpt><trkpt lat="38.0366663" lon="15.7086396"><ele>664.0</ele><time>2026-04-25T07:38:27.953Z</time></trkpt><trkpt lat="38.0366407" lon="15.7085637"><ele>665.0</ele><time>2026-04-25T07:38:28.951Z</time></trkpt><trkpt lat="38.0366216" lon="15.7084812"><ele>666.0</ele><time>2026-04-25T07:38:29.976Z</time></trkpt><trkpt lat="38.0365954" lon="15.7084065"><ele>667.0</ele><time>2026-04-25T07:38:30.956Z</time></trkpt><trkpt lat="38.0365067" lon="15.7083197"><ele>668.0</ele><time>2026-04-25T07:38:32.957Z</time></trkpt><trkpt lat="38.036385" lon="15.7083058"><ele>669.0</ele><time>2026-04-25T07:38:34.95Z</time></trkpt><trkpt lat="38.0363163" lon="15.708286"><ele>670.0</ele><time>2026-04-25T07:38:35.947Z</time></trkpt><trkpt lat="38.036254" lon="15.7082479"><ele>670.0</ele><time>2026-04-25T07:38:36.948Z</time></trkpt><trkpt lat="38.0362005" lon="15.7081955"><ele>670.0</ele><time>2026-04-25T07:38:37.869Z</time></trkpt><trkpt lat="38.0361427" lon="15.7081434"><ele>670.0</ele><time>2026-04-25T07:38:38.864Z</time></trkpt><trkpt lat="38.0360771" lon="15.7080926"><ele>670.0</ele><time>2026-04-25T07:38:39.86Z</time></trkpt><trkpt lat="38.0360074" lon="15.7080507"><ele>670.0</ele><time>2026-04-25T07:38:40.87Z</time></trkpt><trkpt lat="38.0359447" lon="15.70802"><ele>670.0</ele><time>2026-04-25T07:38:41.865Z</time></trkpt><trkpt lat="38.0358559" lon="15.7079781"><ele>668.3333333333334</ele><time>2026-04-25T07:38:43.871Z</time></trkpt><trkpt lat="38.0357934" lon="15.7079657"><ele>666.6666666666667</ele><time>2026-04-25T07:38:46.878Z</time></trkpt><trkpt lat="38.0357163" lon="15.7079562"><ele>665.0</ele><time>2026-04-25T07:38:49.873Z</time></trkpt><trkpt lat="38.0356511" lon="15.7079184"><ele>663.3333333333334</ele><time>2026-04-25T07:38:51.873Z</time></trkpt><trkpt lat="38.0355687" lon="15.7078637"><ele>661.6666666666666</ele><time>2026-04-25T07:38:53.894Z</time></trkpt><trkpt lat="38.0354783" lon="15.7077926"><ele>660.0</ele><time>2026-04-25T07:38:55.874Z</time></trkpt><trkpt lat="38.0353948" lon="15.7077052"><ele>660.0</ele><time>2026-04-25T07:38:57.88Z</time></trkpt><trkpt lat="38.0353101" lon="15.7076345"><ele>660.0</ele><time>2026-04-25T07:38:59.885Z</time></trkpt><trkpt lat="38.0352123" lon="15.7076218"><ele>660.0</ele><time>2026-04-25T07:39:01.912Z</time></trkpt><trkpt lat="38.0350924" lon="15.707654"><ele>660.0</ele><time>2026-04-25T07:39:03.891Z</time></trkpt><trkpt lat="38.035008" lon="15.707693"><ele>660.0</ele><time>2026-04-25T07:39:04.899Z</time></trkpt><trkpt lat="38.034931" lon="15.7077357"><ele>663.3333333333334</ele><time>2026-04-25T07:39:05.897Z</time></trkpt><trkpt lat="38.0348565" lon="15.7077922"><ele>666.6666666666666</ele><time>2026-04-25T07:39:06.894Z</time></trkpt><trkpt lat="38.0347854" lon="15.7078283"><ele>670.0</ele><time>2026-04-25T07:39:07.904Z</time></trkpt><trkpt lat="38.0347121" lon="15.7078443"><ele>673.3333333333333</ele><time>2026-04-25T07:39:08.912Z</time></trkpt><trkpt lat="38.0346394" lon="15.7078487"><ele>676.6666666666666</ele><time>2026-04-25T07:39:09.909Z</time></trkpt><trkpt lat="38.0345749" lon="15.7078609"><ele>680.0</ele><time>2026-04-25T07:39:10.913Z</time></trkpt><trkpt lat="38.0344558" lon="15.7079185"><ele>680.0</ele><time>2026-04-25T07:39:12.906Z</time></trkpt><trkpt lat="38.0343987" lon="15.7079686"><ele>680.0</ele><time>2026-04-25T07:39:13.9Z</time></trkpt><trkpt lat="38.0343471" lon="15.7080225"><ele>680.0</ele><time>2026-04-25T07:39:14.908Z</time></trkpt><trkpt lat="38.0342956" lon="15.708086"><ele>680.0</ele><time>2026-04-25T07:39:15.911Z</time></trkpt><trkpt lat="38.0342424" lon="15.7081674"><ele>680.0</ele><time>2026-04-25T07:39:16.917Z</time></trkpt><trkpt lat="38.0341865" lon="15.708259"><ele>680.0</ele><time>2026-04-25T07:39:17.932Z</time></trkpt><trkpt lat="38.0341255" lon="15.7083476"><ele>680.5</ele><time>2026-04-25T07:39:18.921Z</time></trkpt><trkpt lat="38.0340664" lon="15.7084221"><ele>681.0</ele><time>2026-04-25T07:39:19.924Z</time></trkpt><trkpt lat="38.0340171" lon="15.7084942"><ele>681.5</ele><time>2026-04-25T07:39:20.919Z</time></trkpt><trkpt lat="38.0339869" lon="15.7085723"><ele>682.0</ele><time>2026-04-25T07:39:21.919Z</time></trkpt><trkpt lat="38.0339768" lon="15.708657"><ele>682.5</ele><time>2026-04-25T07:39:22.921Z</time></trkpt><trkpt lat="38.0339742" lon="15.7087547"><ele>683.0</ele><time>2026-04-25T07:39:23.927Z</time></trkpt><trkpt lat="38.0339696" lon="15.7088669"><ele>683.0</ele><time>2026-04-25T07:39:24.932Z</time></trkpt><trkpt lat="38.0339563" lon="15.7089836"><ele>683.0</ele><time>2026-04-25T07:39:25.923Z</time></trkpt><trkpt lat="38.0339353" lon="15.7090942"><ele>683.0</ele><time>2026-04-25T07:39:26.922Z</time></trkpt><trkpt lat="38.0339079" lon="15.7092041"><ele>683.0</ele><time>2026-04-25T07:39:27.92Z</time></trkpt><trkpt lat="38.0338852" lon="15.7093243"><ele>683.0</ele><time>2026-04-25T07:39:28.926Z</time></trkpt><trkpt lat="38.0338623" lon="15.7094513"><ele>684.1666666666666</ele><time>2026-04-25T07:39:29.929Z</time></trkpt><trkpt lat="38.0338415" lon="15.7095688"><ele>685.3333333333333</ele><time>2026-04-25T07:39:30.934Z</time></trkpt><trkpt lat="38.0338157" lon="15.7096599"><ele>686.5</ele><time>2026-04-25T07:39:31.924Z</time></trkpt><trkpt lat="38.033786" lon="15.7097404"><ele>687.6666666666666</ele><time>2026-04-25T07:39:32.938Z</time></trkpt><trkpt lat="38.033741" lon="15.7098026"><ele>688.8333333333334</ele><time>2026-04-25T07:39:33.937Z</time></trkpt><trkpt lat="38.0336942" lon="15.7098564"><ele>690.0</ele><time>2026-04-25T07:39:34.943Z</time></trkpt><trkpt lat="38.0336233" lon="15.7099875"><ele>690.0</ele><time>2026-04-25T07:39:36.942Z</time></trkpt><trkpt lat="38.0336111" lon="15.7100711"><ele>690.0</ele><time>2026-04-25T07:39:37.927Z</time></trkpt><trkpt lat="38.0336022" lon="15.7101615"><ele>690.0</ele><time>2026-04-25T07:39:38.939Z</time></trkpt><trkpt lat="38.0335945" lon="15.7102656"><ele>690.0</ele><time>2026-04-25T07:39:39.938Z</time></trkpt><trkpt lat="38.0335911" lon="15.7103703"><ele>690.0</ele><time>2026-04-25T07:39:40.939Z</time></trkpt><trkpt lat="38.0336135" lon="15.7104711"><ele>690.0</ele><time>2026-04-25T07:39:41.934Z</time></trkpt><trkpt lat="38.0336462" lon="15.7105713"><ele>690.1666666666666</ele><time>2026-04-25T07:39:42.941Z</time></trkpt><trkpt lat="38.0336835" lon="15.7106661"><ele>690.3333333333334</ele><time>2026-04-25T07:39:43.928Z</time></trkpt><trkpt lat="38.0337178" lon="15.7107633"><ele>690.5</ele><time>2026-04-25T07:39:44.929Z</time></trkpt><trkpt lat="38.0337463" lon="15.7108628"><ele>690.6666666666667</ele><time>2026-04-25T07:39:45.939Z</time></trkpt><trkpt lat="38.0337572" lon="15.7109638"><ele>690.8333333333334</ele><time>2026-04-25T07:39:46.939Z</time></trkpt><trkpt lat="38.0337569" lon="15.711064"><ele>691.0</ele><time>2026-04-25T07:39:47.948Z</time></trkpt><trkpt lat="38.0337445" lon="15.7111657"><ele>692.5</ele><time>2026-04-25T07:39:48.942Z</time></trkpt><trkpt lat="38.0337223" lon="15.711266"><ele>694.0</ele><time>2026-04-25T07:39:49.957Z</time></trkpt><trkpt lat="38.0336968" lon="15.7113688"><ele>695.5</ele><time>2026-04-25T07:39:50.951Z</time></trkpt><trkpt lat="38.0336838" lon="15.7114663"><ele>697.0</ele><time>2026-04-25T07:39:51.942Z</time></trkpt><trkpt lat="38.0336917" lon="15.7115607"><ele>698.5</ele><time>2026-04-25T07:39:52.936Z</time></trkpt><trkpt lat="38.0337197" lon="15.7116492"><ele>700.0</ele><time>2026-04-25T07:39:53.959Z</time></trkpt><trkpt lat="38.0337636" lon="15.7117339"><ele>700.0</ele><time>2026-04-25T07:39:54.953Z</time></trkpt><trkpt lat="38.0338066" lon="15.7118322"><ele>700.0</ele><time>2026-04-25T07:39:55.96Z</time></trkpt><trkpt lat="38.0338494" lon="15.7119352"><ele>700.0</ele><time>2026-04-25T07:39:56.955Z</time></trkpt><trkpt lat="38.0338987" lon="15.7120612"><ele>700.0</ele><time>2026-04-25T07:39:57.947Z</time></trkpt><trkpt lat="38.0339546" lon="15.7122022"><ele>700.0</ele><time>2026-04-25T07:39:58.964Z</time></trkpt><trkpt lat="38.0340067" lon="15.7123429"><ele>696.3333333333334</ele><time>2026-04-25T07:39:59.955Z</time></trkpt><trkpt lat="38.0341053" lon="15.7126082"><ele>692.6666666666666</ele><time>2026-04-25T07:40:01.872Z</time></trkpt><trkpt lat="38.0341562" lon="15.712742"><ele>689.0</ele><time>2026-04-25T07:40:02.86Z</time></trkpt><trkpt lat="38.0341938" lon="15.7128735"><ele>689.0</ele><time>2026-04-25T07:40:03.853Z</time></trkpt><trkpt lat="38.034225" lon="15.713002"><ele>689.0</ele><time>2026-04-25T07:40:04.857Z</time></trkpt><trkpt lat="38.0342565" lon="15.7131374"><ele>689.0</ele><time>2026-04-25T07:40:05.854Z</time></trkpt><trkpt lat="38.0342951" lon="15.7132802"><ele>689.0</ele><time>2026-04-25T07:40:06.867Z</time></trkpt><trkpt lat="38.0343326" lon="15.713418"><ele>689.0</ele><time>2026-04-25T07:40:07.858Z</time></trkpt><trkpt lat="38.0343658" lon="15.7135513"><ele>689.0</ele><time>2026-04-25T07:40:08.868Z</time></trkpt><trkpt lat="38.0343875" lon="15.7136838"><ele>689.0</ele><time>2026-04-25T07:40:09.869Z</time></trkpt><trkpt lat="38.0344098" lon="15.7138016"><ele>689.0</ele><time>2026-04-25T07:40:10.872Z</time></trkpt><trkpt lat="38.0344378" lon="15.7139118"><ele>689.0</ele><time>2026-04-25T07:40:11.87Z</time></trkpt><trkpt lat="38.0344629" lon="15.7140181"><ele>691.1666666666666</ele><time>2026-04-25T07:40:12.864Z</time></trkpt><trkpt lat="38.0344839" lon="15.7141148"><ele>693.3333333333333</ele><time>2026-04-25T07:40:13.862Z</time></trkpt><trkpt lat="38.0344919" lon="15.7142095"><ele>695.5</ele><time>2026-04-25T07:40:14.86Z</time></trkpt><trkpt lat="38.0344884" lon="15.7143046"><ele>697.6666666666666</ele><time>2026-04-25T07:40:15.872Z</time></trkpt><trkpt lat="38.0344722" lon="15.7144103"><ele>699.8333333333334</ele><time>2026-04-25T07:40:16.879Z</time></trkpt><trkpt lat="38.0344482" lon="15.7145347"><ele>702.0</ele><time>2026-04-25T07:40:17.869Z</time></trkpt><trkpt lat="38.0344291" lon="15.7146879"><ele>702.8</ele><time>2026-04-25T07:40:18.88Z</time></trkpt><trkpt lat="38.0344096" lon="15.7148241"><ele>703.6</ele><time>2026-04-25T07:40:19.862Z</time></trkpt><trkpt lat="38.0343918" lon="15.7149446"><ele>704.4</ele><time>2026-04-25T07:40:20.872Z</time></trkpt><trkpt lat="38.0343855" lon="15.7150608"><ele>705.1999999999999</ele><time>2026-04-25T07:40:21.872Z</time></trkpt><trkpt lat="38.0343845" lon="15.7151662"><ele>706.0</ele><time>2026-04-25T07:40:22.871Z</time></trkpt><trkpt lat="38.0343767" lon="15.7152552"><ele>706.0</ele><time>2026-04-25T07:40:23.867Z</time></trkpt><trkpt lat="38.0343553" lon="15.715338"><ele>706.0</ele><time>2026-04-25T07:40:24.87Z</time></trkpt><trkpt lat="38.0343221" lon="15.7154214"><ele>706.0</ele><time>2026-04-25T07:40:25.877Z</time></trkpt><trkpt lat="38.0342804" lon="15.7155116"><ele>706.0</ele><time>2026-04-25T07:40:26.889Z</time></trkpt><trkpt lat="38.0342279" lon="15.7156195"><ele>706.0</ele><time>2026-04-25T07:40:27.889Z</time></trkpt><trkpt lat="38.0341873" lon="15.7157152"><ele>706.0</ele><time>2026-04-25T07:40:28.886Z</time></trkpt><trkpt lat="38.0341512" lon="15.7158037"><ele>703.0</ele><time>2026-04-25T07:40:29.899Z</time></trkpt><trkpt lat="38.0341068" lon="15.7159015"><ele>700.0</ele><time>2026-04-25T07:40:30.881Z</time></trkpt><trkpt lat="38.0340616" lon="15.7159897"><ele>697.0</ele><time>2026-04-25T07:40:31.889Z</time></trkpt><trkpt lat="38.0340266" lon="15.7160762"><ele>694.0</ele><time>2026-04-25T07:40:32.897Z</time></trkpt><trkpt lat="38.0340108" lon="15.7161608"><ele>691.0</ele><time>2026-04-25T07:40:33.89Z</time></trkpt><trkpt lat="38.0340042" lon="15.7162554"><ele>688.0</ele><time>2026-04-25T07:40:34.884Z</time></trkpt><trkpt lat="38.0339992" lon="15.7163685"><ele>688.0</ele><time>2026-04-25T07:40:35.9Z</time></trkpt><trkpt lat="38.034" lon="15.7164849"><ele>688.0</ele><time>2026-04-25T07:40:36.896Z</time></trkpt><trkpt lat="38.0339978" lon="15.7165972"><ele>688.0</ele><time>2026-04-25T07:40:37.903Z</time></trkpt><trkpt lat="38.0339968" lon="15.7167045"><ele>688.0</ele><time>2026-04-25T07:40:38.889Z</time></trkpt><trkpt lat="38.0339924" lon="15.7168041"><ele>688.0</ele><time>2026-04-25T07:40:39.896Z</time></trkpt><trkpt lat="38.033983" lon="15.7168951"><ele>688.0</ele><time>2026-04-25T07:40:40.888Z</time></trkpt><trkpt lat="38.0339441" lon="15.7170362"><ele>685.5999999999999</ele><time>2026-04-25T07:40:42.892Z</time></trkpt><trkpt lat="38.0338691" lon="15.7171415"><ele>683.1999999999999</ele><time>2026-04-25T07:40:44.918Z</time></trkpt><trkpt lat="38.0338145" lon="15.7171826"><ele>680.8</ele><time>2026-04-25T07:40:45.915Z</time></trkpt><trkpt lat="38.0337567" lon="15.7172187"><ele>678.4</ele><time>2026-04-25T07:40:46.903Z</time></trkpt><trkpt lat="38.0336453" lon="15.7172586"><ele>676.0</ele><time>2026-04-25T07:40:48.905Z</time></trkpt><trkpt lat="38.0335378" lon="15.7172246"><ele>676.0</ele><time>2026-04-25T07:40:50.91Z</time></trkpt><trkpt lat="38.0334382" lon="15.7172223"><ele>676.0</ele><time>2026-04-25T07:40:52.93Z</time></trkpt><trkpt lat="38.0334572" lon="15.717335"><ele>676.0</ele><time>2026-04-25T07:40:55.934Z</time></trkpt><trkpt lat="38.0335135" lon="15.7173913"><ele>676.0</ele><time>2026-04-25T07:40:56.907Z</time></trkpt><trkpt lat="38.0335744" lon="15.717455"><ele>676.0</ele><time>2026-04-25T07:40:57.923Z</time></trkpt><trkpt lat="38.0336373" lon="15.7175572"><ele>676.0</ele><time>2026-04-25T07:40:59.921Z</time></trkpt><trkpt lat="38.0336266" lon="15.7177293"><ele>674.4</ele><time>2026-04-25T07:41:01.925Z</time></trkpt><trkpt lat="38.0336065" lon="15.7178527"><ele>672.8</ele><time>2026-04-25T07:41:02.922Z</time></trkpt><trkpt lat="38.0335821" lon="15.7179847"><ele>671.1999999999999</ele><time>2026-04-25T07:41:03.925Z</time></trkpt><trkpt lat="38.0335518" lon="15.7181063"><ele>669.5999999999999</ele><time>2026-04-25T07:41:04.934Z</time></trkpt><trkpt lat="38.033507" lon="15.7182054"><ele>668.0</ele><time>2026-04-25T07:41:05.936Z</time></trkpt><trkpt lat="38.0334579" lon="15.718286"><ele>668.0</ele><time>2026-04-25T07:41:06.934Z</time></trkpt><trkpt lat="38.0333968" lon="15.7183577"><ele>668.0</ele><time>2026-04-25T07:41:07.936Z</time></trkpt><trkpt lat="38.033339" lon="15.7184134"><ele>668.0</ele><time>2026-04-25T07:41:08.942Z</time></trkpt><trkpt lat="38.0332886" lon="15.7185643"><ele>668.0</ele><time>2026-04-25T07:41:10.948Z</time></trkpt><trkpt lat="38.0332853" lon="15.7186643"><ele>668.0</ele><time>2026-04-25T07:41:11.938Z</time></trkpt><trkpt lat="38.0332871" lon="15.7187732"><ele>668.0</ele><time>2026-04-25T07:41:12.932Z</time></trkpt><trkpt lat="38.0332865" lon="15.7188877"><ele>669.0</ele><time>2026-04-25T07:41:13.931Z</time></trkpt><trkpt lat="38.0332773" lon="15.7190166"><ele>670.0</ele><time>2026-04-25T07:41:14.946Z</time></trkpt><trkpt lat="38.0332583" lon="15.7191491"><ele>671.0</ele><time>2026-04-25T07:41:15.942Z</time></trkpt><trkpt lat="38.0332352" lon="15.7192775"><ele>672.0</ele><time>2026-04-25T07:41:16.945Z</time></trkpt><trkpt lat="38.0332104" lon="15.7193991"><ele>673.0</ele><time>2026-04-25T07:41:17.937Z</time></trkpt><trkpt lat="38.0331773" lon="15.7195058"><ele>675.1666666666667</ele><time>2026-04-25T07:41:18.945Z</time></trkpt><trkpt lat="38.0331477" lon="15.719594"><ele>677.3333333333334</ele><time>2026-04-25T07:41:19.937Z</time></trkpt><trkpt lat="38.0331628" lon="15.7197427"><ele>679.5</ele><time>2026-04-25T07:41:21.934Z</time></trkpt><trkpt lat="38.0332001" lon="15.719832"><ele>681.6666666666666</ele><time>2026-04-25T07:41:22.934Z</time></trkpt><trkpt lat="38.0332318" lon="15.7199167"><ele>683.8333333333333</ele><time>2026-04-25T07:41:23.931Z</time></trkpt><trkpt lat="38.0332405" lon="15.7200001"><ele>686.0</ele><time>2026-04-25T07:41:24.932Z</time></trkpt><trkpt lat="38.0332395" lon="15.7200882"><ele>686.0</ele><time>2026-04-25T07:41:25.928Z</time></trkpt><trkpt lat="38.0332172" lon="15.7201765"><ele>686.0</ele><time>2026-04-25T07:41:26.928Z</time></trkpt><trkpt lat="38.0331822" lon="15.7202533"><ele>686.0</ele><time>2026-04-25T07:41:27.939Z</time></trkpt><trkpt lat="38.0331462" lon="15.7203218"><ele>686.0</ele><time>2026-04-25T07:41:28.939Z</time></trkpt><trkpt lat="38.0330815" lon="15.7203943"><ele>686.0</ele><time>2026-04-25T07:41:30.944Z</time></trkpt><trkpt lat="38.0330204" lon="15.7203245"><ele>686.0</ele><time>2026-04-25T07:41:33.943Z</time></trkpt><trkpt lat="38.0330392" lon="15.7202062"><ele>686.0</ele><time>2026-04-25T07:41:35.948Z</time></trkpt><trkpt lat="38.0330045" lon="15.7200676"><ele>686.0</ele><time>2026-04-25T07:41:37.954Z</time></trkpt><trkpt lat="38.0329445" lon="15.7199975"><ele>686.0</ele><time>2026-04-25T07:41:38.974Z</time></trkpt><trkpt lat="38.0328756" lon="15.7199202"><ele>686.0</ele><time>2026-04-25T07:41:39.951Z</time></trkpt><trkpt lat="38.0328007" lon="15.7198449"><ele>686.0</ele><time>2026-04-25T07:41:40.862Z</time></trkpt><trkpt lat="38.0327229" lon="15.7197652"><ele>686.0</ele><time>2026-04-25T07:41:41.967Z</time></trkpt><trkpt lat="38.0326113" lon="15.7195807"><ele>686.0</ele><time>2026-04-25T07:41:43.962Z</time></trkpt><trkpt lat="38.0325552" lon="15.71948"><ele>686.0</ele><time>2026-04-25T07:41:44.96Z</time></trkpt><trkpt lat="38.0325007" lon="15.7193835"><ele>686.0</ele><time>2026-04-25T07:41:45.96Z</time></trkpt><trkpt lat="38.0324505" lon="15.7192723"><ele>683.4</ele><time>2026-04-25T07:41:47.879Z</time></trkpt><trkpt lat="38.0324905" lon="15.7191939"><ele>680.8</ele><time>2026-04-25T07:41:49.859Z</time></trkpt><trkpt lat="38.032583" lon="15.7191185"><ele>678.1999999999999</ele><time>2026-04-25T07:41:51.857Z</time></trkpt><trkpt lat="38.0326457" lon="15.7190158"><ele>675.5999999999999</ele><time>2026-04-25T07:41:53.86Z</time></trkpt><trkpt lat="38.0326189" lon="15.7188901"><ele>673.0</ele><time>2026-04-25T07:41:55.87Z</time></trkpt><trkpt lat="38.0325427" lon="15.7187626"><ele>673.0</ele><time>2026-04-25T07:41:57.873Z</time></trkpt><trkpt lat="38.0324847" lon="15.7186925"><ele>673.0</ele><time>2026-04-25T07:41:58.876Z</time></trkpt><trkpt lat="38.0324207" lon="15.7186147"><ele>673.0</ele><time>2026-04-25T07:41:59.876Z</time></trkpt><trkpt lat="38.0323673" lon="15.7185332"><ele>673.0</ele><time>2026-04-25T07:42:00.892Z</time></trkpt><trkpt lat="38.0323311" lon="15.7184485"><ele>673.0</ele><time>2026-04-25T07:42:01.866Z</time></trkpt><trkpt lat="38.0323103" lon="15.7183683"><ele>673.0</ele><time>2026-04-25T07:42:02.867Z</time></trkpt><trkpt lat="38.0323176" lon="15.7182123"><ele>677.4</ele><time>2026-04-25T07:42:04.875Z</time></trkpt><trkpt lat="38.0323156" lon="15.7180709"><ele>681.8</ele><time>2026-04-25T07:42:06.895Z</time></trkpt><trkpt lat="38.0322622" lon="15.7179382"><ele>686.2</ele><time>2026-04-25T07:42:08.88Z</time></trkpt><trkpt lat="38.0322185" lon="15.7178656"><ele>690.6</ele><time>2026-04-25T07:42:09.864Z</time></trkpt><trkpt lat="38.0321696" lon="15.7177783"><ele>695.0</ele><time>2026-04-25T07:42:10.858Z</time></trkpt><trkpt lat="38.0321146" lon="15.7176856"><ele>695.0</ele><time>2026-04-25T07:42:11.875Z</time></trkpt><trkpt lat="38.0320631" lon="15.7175893"><ele>695.0</ele><time>2026-04-25T07:42:12.889Z</time></trkpt><trkpt lat="38.0320094" lon="15.717505"><ele>695.0</ele><time>2026-04-25T07:42:13.868Z</time></trkpt><trkpt lat="38.0319554" lon="15.717447"><ele>695.0</ele><time>2026-04-25T07:42:14.874Z</time></trkpt><trkpt lat="38.0318561" lon="15.7174048"><ele>695.0</ele><time>2026-04-25T07:42:16.87Z</time></trkpt><trkpt lat="38.0317456" lon="15.7174125"><ele>695.0</ele><time>2026-04-25T07:42:18.876Z</time></trkpt><trkpt lat="38.0316818" lon="15.7174212"><ele>695.0</ele><time>2026-04-25T07:42:19.865Z</time></trkpt><trkpt lat="38.0316181" lon="15.7174346"><ele>695.0</ele><time>2026-04-25T07:42:20.888Z</time></trkpt><trkpt lat="38.0315446" lon="15.7174502"><ele>695.0</ele><time>2026-04-25T07:42:21.875Z</time></trkpt><trkpt lat="38.0314776" lon="15.7174341"><ele>695.0</ele><time>2026-04-25T07:42:22.88Z</time></trkpt><trkpt lat="38.0314177" lon="15.7173295"><ele>695.0</ele><time>2026-04-25T07:42:24.876Z</time></trkpt><trkpt lat="38.0314584" lon="15.7172053"><ele>697.6666666666666</ele><time>2026-04-25T07:42:26.872Z</time></trkpt><trkpt lat="38.0314687" lon="15.7171254"><ele>700.3333333333333</ele><time>2026-04-25T07:42:27.89Z</time></trkpt><trkpt lat="38.0314697" lon="15.717036"><ele>703.0</ele><time>2026-04-25T07:42:28.891Z</time></trkpt><trkpt lat="38.0314634" lon="15.7169525"><ele>705.6666666666666</ele><time>2026-04-25T07:42:29.885Z</time></trkpt><trkpt lat="38.0314104" lon="15.7168184"><ele>708.3333333333334</ele><time>2026-04-25T07:42:31.879Z</time></trkpt><trkpt lat="38.0313364" lon="15.7167367"><ele>711.0</ele><time>2026-04-25T07:42:33.893Z</time></trkpt><trkpt lat="38.0312141" lon="15.7166917"><ele>711.0</ele><time>2026-04-25T07:42:35.882Z</time></trkpt><trkpt lat="38.0311344" lon="15.716699"><ele>711.0</ele><time>2026-04-25T07:42:36.883Z</time></trkpt><trkpt lat="38.0310629" lon="15.716698"><ele>711.0</ele><time>2026-04-25T07:42:37.895Z</time></trkpt><trkpt lat="38.0310006" lon="15.7166062"><ele>711.0</ele><time>2026-04-25T07:42:39.889Z</time></trkpt><trkpt lat="38.0309816" lon="15.7164678"><ele>711.0</ele><time>2026-04-25T07:42:41.879Z</time></trkpt><trkpt lat="38.0309488" lon="15.7163948"><ele>711.0</ele><time>2026-04-25T07:42:42.884Z</time></trkpt><trkpt lat="38.030891" lon="15.7163273"><ele>711.0</ele><time>2026-04-25T07:42:43.902Z</time></trkpt><trkpt lat="38.0308255" lon="15.7162808"><ele>711.0</ele><time>2026-04-25T07:42:44.885Z</time></trkpt><trkpt lat="38.0307406" lon="15.7162559"><ele>711.0</ele><time>2026-04-25T07:42:45.888Z</time></trkpt><trkpt lat="38.0306518" lon="15.7162413"><ele>711.0</ele><time>2026-04-25T07:42:46.889Z</time></trkpt><trkpt lat="38.0305584" lon="15.716244"><ele>711.0</ele><time>2026-04-25T07:42:47.888Z</time></trkpt><trkpt lat="38.0304734" lon="15.7162575"><ele>711.0</ele><time>2026-04-25T07:42:48.901Z</time></trkpt><trkpt lat="38.0304029" lon="15.7162519"><ele>711.4</ele><time>2026-04-25T07:42:49.901Z</time></trkpt><trkpt lat="38.0303233" lon="15.7161733"><ele>711.8</ele><time>2026-04-25T07:42:51.892Z</time></trkpt><trkpt lat="38.0303031" lon="15.7160829"><ele>712.1999999999999</ele><time>2026-04-25T07:42:52.911Z</time></trkpt><trkpt lat="38.0302869" lon="15.7159758"><ele>712.5999999999999</ele><time>2026-04-25T07:42:53.901Z</time></trkpt><trkpt lat="38.0302583" lon="15.7158655"><ele>713.0</ele><time>2026-04-25T07:42:54.906Z</time></trkpt><trkpt lat="38.0302105" lon="15.7157454"><ele>713.0</ele><time>2026-04-25T07:42:55.906Z</time></trkpt><trkpt lat="38.0301583" lon="15.7156221"><ele>713.0</ele><time>2026-04-25T07:42:56.913Z</time></trkpt><trkpt lat="38.0300979" lon="15.7155224"><ele>713.0</ele><time>2026-04-25T07:42:57.926Z</time></trkpt><trkpt lat="38.0300464" lon="15.7154406"><ele>713.0</ele><time>2026-04-25T07:42:58.908Z</time></trkpt><trkpt lat="38.0300018" lon="15.71536"><ele>713.0</ele><time>2026-04-25T07:42:59.903Z</time></trkpt><trkpt lat="38.0299317" lon="15.7152632"><ele>713.0</ele><time>2026-04-25T07:43:01.909Z</time></trkpt><trkpt lat="38.0299357" lon="15.7153668"><ele>713.0</ele><time>2026-04-25T07:43:08.944Z</time></trkpt><trkpt lat="38.0299891" lon="15.7155088"><ele>713.0</ele><time>2026-04-25T07:43:10.918Z</time></trkpt><trkpt lat="38.0300162" lon="15.7155965"><ele>713.0</ele><time>2026-04-25T07:43:11.937Z</time></trkpt><trkpt lat="38.0300439" lon="15.7156954"><ele>713.0</ele><time>2026-04-25T07:43:12.955Z</time></trkpt><trkpt lat="38.0300649" lon="15.7157995"><ele>713.0</ele><time>2026-04-25T07:43:13.939Z</time></trkpt><trkpt lat="38.0300817" lon="15.7159085"><ele>713.0</ele><time>2026-04-25T07:43:14.93Z</time></trkpt><trkpt lat="38.0300949" lon="15.7160188"><ele>713.0</ele><time>2026-04-25T07:43:15.929Z</time></trkpt><trkpt lat="38.030103" lon="15.7161233"><ele>713.0</ele><time>2026-04-25T07:43:16.941Z</time></trkpt><trkpt lat="38.0301005" lon="15.7162236"><ele>713.0</ele><time>2026-04-25T07:43:17.936Z</time></trkpt><trkpt lat="38.0300878" lon="15.7163272"><ele>713.0</ele><time>2026-04-25T07:43:18.932Z</time></trkpt><trkpt lat="38.0300907" lon="15.7164251"><ele>713.0</ele><time>2026-04-25T07:43:19.939Z</time></trkpt><trkpt lat="38.0301256" lon="15.7165197"><ele>713.4</ele><time>2026-04-25T07:43:20.941Z</time></trkpt><trkpt lat="38.0301706" lon="15.7166208"><ele>713.8</ele><time>2026-04-25T07:43:21.941Z</time></trkpt><trkpt lat="38.0302129" lon="15.7167199"><ele>714.2</ele><time>2026-04-25T07:43:22.949Z</time></trkpt><trkpt lat="38.0302551" lon="15.7168177"><ele>714.6</ele><time>2026-04-25T07:43:23.943Z</time></trkpt><trkpt lat="38.0302949" lon="15.7169237"><ele>715.0</ele><time>2026-04-25T07:43:24.947Z</time></trkpt><trkpt lat="38.0303386" lon="15.7170303"><ele>715.0</ele><time>2026-04-25T07:43:25.952Z</time></trkpt><trkpt lat="38.0303854" lon="15.7171356"><ele>715.0</ele><time>2026-04-25T07:43:26.971Z</time></trkpt><trkpt lat="38.0304357" lon="15.71724"><ele>715.0</ele><time>2026-04-25T07:43:27.954Z</time></trkpt><trkpt lat="38.030482" lon="15.7173366"><ele>715.0</ele><time>2026-04-25T07:43:28.954Z</time></trkpt><trkpt lat="38.03052" lon="15.7174325"><ele>715.0</ele><time>2026-04-25T07:43:29.95Z</time></trkpt><trkpt lat="38.0305491" lon="15.7175449"><ele>715.0</ele><time>2026-04-25T07:43:30.948Z</time></trkpt><trkpt lat="38.030553" lon="15.7176541"><ele>715.0</ele><time>2026-04-25T07:43:31.936Z</time></trkpt><trkpt lat="38.0305394" lon="15.7177546"><ele>715.0</ele><time>2026-04-25T07:43:32.966Z</time></trkpt><trkpt lat="38.0305212" lon="15.7178582"><ele>715.0</ele><time>2026-04-25T07:43:33.973Z</time></trkpt><trkpt lat="38.0304947" lon="15.717982"><ele>715.0</ele><time>2026-04-25T07:43:34.959Z</time></trkpt><trkpt lat="38.0304644" lon="15.7181254"><ele>716.6</ele><time>2026-04-25T07:43:35.968Z</time></trkpt><trkpt lat="38.0304283" lon="15.7182482"><ele>718.2</ele><time>2026-04-25T07:43:36.956Z</time></trkpt><trkpt lat="38.0303825" lon="15.718351"><ele>719.8</ele><time>2026-04-25T07:43:37.947Z</time></trkpt><trkpt lat="38.0303242" lon="15.7184657"><ele>721.4</ele><time>2026-04-25T07:43:38.852Z</time></trkpt><trkpt lat="38.0302595" lon="15.7185979"><ele>723.0</ele><time>2026-04-25T07:43:39.866Z</time></trkpt><trkpt lat="38.0302035" lon="15.7187318"><ele>723.8333333333334</ele><time>2026-04-25T07:43:40.867Z</time></trkpt><trkpt lat="38.0301648" lon="15.718849"><ele>724.6666666666666</ele><time>2026-04-25T07:43:41.852Z</time></trkpt><trkpt lat="38.030145" lon="15.7189443"><ele>725.5</ele><time>2026-04-25T07:43:42.865Z</time></trkpt><trkpt lat="38.0301314" lon="15.7190353"><ele>726.3333333333333</ele><time>2026-04-25T07:43:43.857Z</time></trkpt><trkpt lat="38.0301032" lon="15.7191239"><ele>727.1666666666666</ele><time>2026-04-25T07:43:44.863Z</time></trkpt><trkpt lat="38.0300573" lon="15.7192107"><ele>728.0</ele><time>2026-04-25T07:43:45.867Z</time></trkpt><trkpt lat="38.0299995" lon="15.7192957"><ele>728.8333333333333</ele><time>2026-04-25T07:43:46.88Z</time></trkpt><trkpt lat="38.029944" lon="15.7193827"><ele>729.6666666666666</ele><time>2026-04-25T07:43:47.87Z</time></trkpt><trkpt lat="38.029898" lon="15.7194598"><ele>730.5</ele><time>2026-04-25T07:43:48.877Z</time></trkpt><trkpt lat="38.0298634" lon="15.719534"><ele>731.3333333333334</ele><time>2026-04-25T07:43:49.874Z</time></trkpt><trkpt lat="38.0298483" lon="15.7196199"><ele>732.1666666666667</ele><time>2026-04-25T07:43:50.873Z</time></trkpt><trkpt lat="38.0298319" lon="15.7197204"><ele>733.0</ele><time>2026-04-25T07:43:51.867Z</time></trkpt><trkpt lat="38.0298129" lon="15.719837"><ele>734.8333333333334</ele><time>2026-04-25T07:43:52.881Z</time></trkpt><trkpt lat="38.0298024" lon="15.7199498"><ele>736.6666666666667</ele><time>2026-04-25T07:43:53.872Z</time></trkpt><trkpt lat="38.0298027" lon="15.7200524"><ele>738.5</ele><time>2026-04-25T07:43:54.875Z</time></trkpt><trkpt lat="38.0298097" lon="15.7201533"><ele>740.3333333333334</ele><time>2026-04-25T07:43:55.866Z</time></trkpt><trkpt lat="38.0298192" lon="15.7202577"><ele>742.1666666666666</ele><time>2026-04-25T07:43:56.881Z</time></trkpt><trkpt lat="38.02981" lon="15.720356"><ele>744.0</ele><time>2026-04-25T07:43:57.884Z</time></trkpt><trkpt lat="38.0297663" lon="15.7204363"><ele>744.6666666666666</ele><time>2026-04-25T07:43:58.882Z</time></trkpt><trkpt lat="38.0297214" lon="15.7204993"><ele>745.3333333333334</ele><time>2026-04-25T07:43:59.871Z</time></trkpt><trkpt lat="38.0296631" lon="15.7205448"><ele>746.0</ele><time>2026-04-25T07:44:00.868Z</time></trkpt><trkpt lat="38.0295974" lon="15.7205949"><ele>746.6666666666667</ele><time>2026-04-25T07:44:01.888Z</time></trkpt><trkpt lat="38.0295165" lon="15.7206396"><ele>747.3333333333334</ele><time>2026-04-25T07:44:02.873Z</time></trkpt><trkpt lat="38.029427" lon="15.7206829"><ele>748.0</ele><time>2026-04-25T07:44:03.888Z</time></trkpt><trkpt lat="38.0293276" lon="15.7207241"><ele>748.0</ele><time>2026-04-25T07:44:04.89Z</time></trkpt><trkpt lat="38.0292236" lon="15.7207603"><ele>748.0</ele><time>2026-04-25T07:44:05.889Z</time></trkpt><trkpt lat="38.0291202" lon="15.7208026"><ele>748.0</ele><time>2026-04-25T07:44:06.901Z</time></trkpt><trkpt lat="38.0290362" lon="15.7208409"><ele>748.0</ele><time>2026-04-25T07:44:07.894Z</time></trkpt><trkpt lat="38.0289627" lon="15.7208884"><ele>748.0</ele><time>2026-04-25T07:44:08.884Z</time></trkpt><trkpt lat="38.0289023" lon="15.7209586"><ele>748.0</ele><time>2026-04-25T07:44:09.886Z</time></trkpt><trkpt lat="38.0288556" lon="15.721049"><ele>748.0</ele><time>2026-04-25T07:44:10.886Z</time></trkpt><trkpt lat="38.0288252" lon="15.7211522"><ele>748.0</ele><time>2026-04-25T07:44:11.908Z</time></trkpt><trkpt lat="38.0287999" lon="15.721271"><ele>748.0</ele><time>2026-04-25T07:44:12.883Z</time></trkpt><trkpt lat="38.0287948" lon="15.7214033"><ele>748.0</ele><time>2026-04-25T07:44:13.9Z</time></trkpt><trkpt lat="38.0288176" lon="15.721544"><ele>749.2</ele><time>2026-04-25T07:44:14.888Z</time></trkpt><trkpt lat="38.0288307" lon="15.7216886"><ele>750.4</ele><time>2026-04-25T07:44:15.899Z</time></trkpt><trkpt lat="38.0288105" lon="15.7218311"><ele>751.6</ele><time>2026-04-25T07:44:16.899Z</time></trkpt><trkpt lat="38.0287688" lon="15.7219592"><ele>752.8000000000001</ele><time>2026-04-25T07:44:17.896Z</time></trkpt><trkpt lat="38.0287197" lon="15.722082"><ele>754.0</ele><time>2026-04-25T07:44:18.906Z</time></trkpt><trkpt lat="38.0286841" lon="15.7222006"><ele>756.0</ele><time>2026-04-25T07:44:19.914Z</time></trkpt><trkpt lat="38.0286618" lon="15.7223179"><ele>758.0</ele><time>2026-04-25T07:44:20.902Z</time></trkpt><trkpt lat="38.028649" lon="15.722435"><ele>760.0</ele><time>2026-04-25T07:44:21.899Z</time></trkpt><trkpt lat="38.0286575" lon="15.722542"><ele>762.0</ele><time>2026-04-25T07:44:22.899Z</time></trkpt><trkpt lat="38.0286755" lon="15.722644"><ele>764.0</ele><time>2026-04-25T07:44:23.913Z</time></trkpt><trkpt lat="38.0287003" lon="15.7227519"><ele>766.0</ele><time>2026-04-25T07:44:24.925Z</time></trkpt><trkpt lat="38.0287267" lon="15.7228762"><ele>767.3333333333334</ele><time>2026-04-25T07:44:25.922Z</time></trkpt><trkpt lat="38.0287441" lon="15.7229865"><ele>768.6666666666667</ele><time>2026-04-25T07:44:26.911Z</time></trkpt><trkpt lat="38.028747" lon="15.7230789"><ele>770.0</ele><time>2026-04-25T07:44:27.908Z</time></trkpt><trkpt lat="38.0287381" lon="15.7231797"><ele>771.3333333333334</ele><time>2026-04-25T07:44:28.928Z</time></trkpt><trkpt lat="38.0287265" lon="15.7232911"><ele>772.6666666666666</ele><time>2026-04-25T07:44:29.916Z</time></trkpt><trkpt lat="38.0287137" lon="15.7234148"><ele>774.0</ele><time>2026-04-25T07:44:30.925Z</time></trkpt><trkpt lat="38.0286919" lon="15.723542"><ele>775.4000000000001</ele><time>2026-04-25T07:44:31.923Z</time></trkpt><trkpt lat="38.0286732" lon="15.7236696"><ele>776.8</ele><time>2026-04-25T07:44:32.918Z</time></trkpt><trkpt lat="38.0286714" lon="15.7237974"><ele>778.2</ele><time>2026-04-25T07:44:33.92Z</time></trkpt><trkpt lat="38.0286672" lon="15.7239222"><ele>779.5999999999999</ele><time>2026-04-25T07:44:34.931Z</time></trkpt><trkpt lat="38.0286586" lon="15.7240353"><ele>781.0</ele><time>2026-04-25T07:44:35.929Z</time></trkpt><trkpt lat="38.0286654" lon="15.7241358"><ele>781.0</ele><time>2026-04-25T07:44:36.922Z</time></trkpt><trkpt lat="38.0286935" lon="15.7242285"><ele>781.0</ele><time>2026-04-25T07:44:37.921Z</time></trkpt><trkpt lat="38.028736" lon="15.7243258"><ele>781.0</ele><time>2026-04-25T07:44:38.922Z</time></trkpt><trkpt lat="38.0287723" lon="15.7244262"><ele>781.0</ele><time>2026-04-25T07:44:39.924Z</time></trkpt><trkpt lat="38.0288022" lon="15.7245513"><ele>781.0</ele><time>2026-04-25T07:44:40.947Z</time></trkpt><trkpt lat="38.0288257" lon="15.7246873"><ele>782.1999999999999</ele><time>2026-04-25T07:44:41.936Z</time></trkpt><trkpt lat="38.0288512" lon="15.7248253"><ele>783.4</ele><time>2026-04-25T07:44:42.937Z</time></trkpt><trkpt lat="38.0288701" lon="15.7249318"><ele>784.6</ele><time>2026-04-25T07:44:43.944Z</time></trkpt><trkpt lat="38.0288871" lon="15.7250568"><ele>785.8</ele><time>2026-04-25T07:44:45.939Z</time></trkpt><trkpt lat="38.0288027" lon="15.7251367"><ele>787.0</ele><time>2026-04-25T07:44:47.949Z</time></trkpt><trkpt lat="38.0287364" lon="15.7251705"><ele>786.9999999999999</ele><time>2026-04-25T07:44:48.944Z</time></trkpt><trkpt lat="38.0286661" lon="15.7252227"><ele>787.0</ele><time>2026-04-25T07:44:49.944Z</time></trkpt><trkpt lat="38.0286065" lon="15.7252897"><ele>787.0</ele><time>2026-04-25T07:44:50.932Z</time></trkpt><trkpt lat="38.0285583" lon="15.7253681"><ele>787.0</ele><time>2026-04-25T07:44:51.941Z</time></trkpt><trkpt lat="38.0285198" lon="15.7254639"><ele>786.9999999999999</ele><time>2026-04-25T07:44:52.946Z</time></trkpt><trkpt lat="38.0284857" lon="15.7255594"><ele>787.0</ele><time>2026-04-25T07:44:53.948Z</time></trkpt><trkpt lat="38.0284419" lon="15.725663"><ele>787.0</ele><time>2026-04-25T07:44:54.943Z</time></trkpt><trkpt lat="38.0283898" lon="15.7257711"><ele>787.0</ele><time>2026-04-25T07:44:55.959Z</time></trkpt><trkpt lat="38.0283411" lon="15.7258795"><ele>787.0</ele><time>2026-04-25T07:44:56.952Z</time></trkpt><trkpt lat="38.0282999" lon="15.7259852"><ele>787.0</ele><time>2026-04-25T07:44:57.953Z</time></trkpt><trkpt lat="38.0282698" lon="15.726093"><ele>787.0</ele><time>2026-04-25T07:44:58.948Z</time></trkpt><trkpt lat="38.0282484" lon="15.7262001"><ele>788.2</ele><time>2026-04-25T07:44:59.946Z</time></trkpt><trkpt lat="38.0282413" lon="15.7262978"><ele>789.4000000000001</ele><time>2026-04-25T07:45:00.955Z</time></trkpt><trkpt lat="38.0282486" lon="15.7263797"><ele>790.5999999999999</ele><time>2026-04-25T07:45:01.964Z</time></trkpt><trkpt lat="38.0283194" lon="15.7265299"><ele>791.8</ele><time>2026-04-25T07:45:03.878Z</time></trkpt><trkpt lat="38.0283761" lon="15.7266073"><ele>793.0</ele><time>2026-04-25T07:45:04.952Z</time></trkpt><trkpt lat="38.0284223" lon="15.7267007"><ele>793.1666666666666</ele><time>2026-04-25T07:45:05.854Z</time></trkpt><trkpt lat="38.0284551" lon="15.7268039"><ele>793.3333333333333</ele><time>2026-04-25T07:45:06.861Z</time></trkpt><trkpt lat="38.0284763" lon="15.7269065"><ele>793.5</ele><time>2026-04-25T07:45:07.857Z</time></trkpt><trkpt lat="38.0284796" lon="15.7270098"><ele>793.6666666666667</ele><time>2026-04-25T07:45:08.862Z</time></trkpt><trkpt lat="38.0284773" lon="15.7271208"><ele>793.8333333333334</ele><time>2026-04-25T07:45:09.858Z</time></trkpt><trkpt lat="38.0284708" lon="15.7272476"><ele>794.0</ele><time>2026-04-25T07:45:10.873Z</time></trkpt><trkpt lat="38.0284629" lon="15.7273746"><ele>794.6666666666667</ele><time>2026-04-25T07:45:11.853Z</time></trkpt><trkpt lat="38.0284598" lon="15.7274898"><ele>795.3333333333334</ele><time>2026-04-25T07:45:12.89Z</time></trkpt><trkpt lat="38.028455" lon="15.7275971"><ele>796.0</ele><time>2026-04-25T07:45:13.852Z</time></trkpt><trkpt lat="38.0284417" lon="15.7277014"><ele>796.6666666666667</ele><time>2026-04-25T07:45:14.868Z</time></trkpt><trkpt lat="38.0284072" lon="15.7277967"><ele>797.3333333333334</ele><time>2026-04-25T07:45:15.857Z</time></trkpt><trkpt lat="38.0283537" lon="15.7278827"><ele>798.0</ele><time>2026-04-25T07:45:16.872Z</time></trkpt><trkpt lat="38.0282923" lon="15.7279607"><ele>800.0</ele><time>2026-04-25T07:45:17.864Z</time></trkpt><trkpt lat="38.0282285" lon="15.7280493"><ele>802.0</ele><time>2026-04-25T07:45:18.867Z</time></trkpt><trkpt lat="38.0281516" lon="15.728122"><ele>804.0</ele><time>2026-04-25T07:45:19.88Z</time></trkpt><trkpt lat="38.0280588" lon="15.7281678"><ele>806.0</ele><time>2026-04-25T07:45:20.883Z</time></trkpt><trkpt lat="38.0279485" lon="15.7282057"><ele>808.0</ele><time>2026-04-25T07:45:21.88Z</time></trkpt><trkpt lat="38.0278311" lon="15.7282597"><ele>808.0</ele><time>2026-04-25T07:45:22.905Z</time></trkpt><trkpt lat="38.0277334" lon="15.7283292"><ele>808.0</ele><time>2026-04-25T07:45:23.87Z</time></trkpt><trkpt lat="38.0276557" lon="15.7284023"><ele>808.0</ele><time>2026-04-25T07:45:24.882Z</time></trkpt><trkpt lat="38.027597" lon="15.7284886"><ele>808.0</ele><time>2026-04-25T07:45:25.881Z</time></trkpt><trkpt lat="38.0275678" lon="15.7285823"><ele>808.0</ele><time>2026-04-25T07:45:26.882Z</time></trkpt><trkpt lat="38.0275675" lon="15.7286773"><ele>808.3333333333333</ele><time>2026-04-25T07:45:27.875Z</time></trkpt><trkpt lat="38.0275752" lon="15.7287747"><ele>808.6666666666666</ele><time>2026-04-25T07:45:28.883Z</time></trkpt><trkpt lat="38.027595" lon="15.7288739"><ele>809.0</ele><time>2026-04-25T07:45:29.894Z</time></trkpt><trkpt lat="38.027644" lon="15.7289613"><ele>809.3333333333333</ele><time>2026-04-25T07:45:30.882Z</time></trkpt><trkpt lat="38.0277088" lon="15.7290461"><ele>809.6666666666666</ele><time>2026-04-25T07:45:31.896Z</time></trkpt><trkpt lat="38.0277891" lon="15.7291423"><ele>810.0</ele><time>2026-04-25T07:45:32.882Z</time></trkpt><trkpt lat="38.0278614" lon="15.7292412"><ele>810.0</ele><time>2026-04-25T07:45:33.896Z</time></trkpt><trkpt lat="38.0279334" lon="15.729329"><ele>810.0</ele><time>2026-04-25T07:45:34.887Z</time></trkpt><trkpt lat="38.0280146" lon="15.7293864"><ele>810.0</ele><time>2026-04-25T07:45:35.899Z</time></trkpt><trkpt lat="38.0281101" lon="15.7294264"><ele>810.0</ele><time>2026-04-25T07:45:36.897Z</time></trkpt><trkpt lat="38.0282068" lon="15.7294674"><ele>810.0</ele><time>2026-04-25T07:45:37.89Z</time></trkpt><trkpt lat="38.0282874" lon="15.7295206"><ele>809.8</ele><time>2026-04-25T07:45:38.887Z</time></trkpt><trkpt lat="38.0283543" lon="15.7296012"><ele>809.6</ele><time>2026-04-25T07:45:39.899Z</time></trkpt><trkpt lat="38.0284061" lon="15.7296948"><ele>809.4000000000001</ele><time>2026-04-25T07:45:40.9Z</time></trkpt><trkpt lat="38.0284399" lon="15.7297973"><ele>809.2</ele><time>2026-04-25T07:45:41.904Z</time></trkpt><trkpt lat="38.0284571" lon="15.7299136"><ele>809.0</ele><time>2026-04-25T07:45:42.91Z</time></trkpt><trkpt lat="38.0284731" lon="15.7300352"><ele>809.0000000000001</ele><time>2026-04-25T07:45:43.902Z</time></trkpt><trkpt lat="38.02849" lon="15.7301565"><ele>809.0</ele><time>2026-04-25T07:45:44.897Z</time></trkpt><trkpt lat="38.0284897" lon="15.7302676"><ele>809.0</ele><time>2026-04-25T07:45:45.917Z</time></trkpt><trkpt lat="38.0284661" lon="15.7303743"><ele>809.0</ele><time>2026-04-25T07:45:46.902Z</time></trkpt><trkpt lat="38.0284273" lon="15.7304779"><ele>809.0000000000001</ele><time>2026-04-25T07:45:47.916Z</time></trkpt><trkpt lat="38.0284018" lon="15.7305808"><ele>809.0</ele><time>2026-04-25T07:45:48.909Z</time></trkpt><trkpt lat="38.0284101" lon="15.7306963"><ele>808.0</ele><time>2026-04-25T07:45:49.893Z</time></trkpt><trkpt lat="38.0284338" lon="15.7308315"><ele>807.0</ele><time>2026-04-25T07:45:50.909Z</time></trkpt><trkpt lat="38.0284483" lon="15.7309665"><ele>806.0</ele><time>2026-04-25T07:45:51.899Z</time></trkpt><trkpt lat="38.0284774" lon="15.7310809"><ele>805.0</ele><time>2026-04-25T07:45:52.901Z</time></trkpt><trkpt lat="38.028532" lon="15.7311684"><ele>804.0</ele><time>2026-04-25T07:45:53.906Z</time></trkpt><trkpt lat="38.0286053" lon="15.7312402"><ele>802.8000000000001</ele><time>2026-04-25T07:45:54.927Z</time></trkpt><trkpt lat="38.0286871" lon="15.7313133"><ele>801.6</ele><time>2026-04-25T07:45:55.911Z</time></trkpt><trkpt lat="38.0287454" lon="15.7314151"><ele>800.4</ele><time>2026-04-25T07:45:56.915Z</time></trkpt><trkpt lat="38.0287799" lon="15.7315305"><ele>799.2</ele><time>2026-04-25T07:45:57.91Z</time></trkpt><trkpt lat="38.0288152" lon="15.7316448"><ele>798.0</ele><time>2026-04-25T07:45:58.915Z</time></trkpt><trkpt lat="38.0288462" lon="15.7317574"><ele>798.0</ele><time>2026-04-25T07:45:59.928Z</time></trkpt><trkpt lat="38.0288521" lon="15.7318529"><ele>798.0</ele><time>2026-04-25T07:46:00.915Z</time></trkpt><trkpt lat="38.0288423" lon="15.7319504"><ele>798.0</ele><time>2026-04-25T07:46:01.922Z</time></trkpt><trkpt lat="38.0288229" lon="15.7320707"><ele>798.0</ele><time>2026-04-25T07:46:02.914Z</time></trkpt><trkpt lat="38.028791" lon="15.7322012"><ele>798.0</ele><time>2026-04-25T07:46:03.909Z</time></trkpt><trkpt lat="38.0287534" lon="15.7323262"><ele>798.8</ele><time>2026-04-25T07:46:04.924Z</time></trkpt><trkpt lat="38.0287051" lon="15.7324324"><ele>799.5999999999999</ele><time>2026-04-25T07:46:05.917Z</time></trkpt><trkpt lat="38.0286442" lon="15.7325401"><ele>800.4000000000001</ele><time>2026-04-25T07:46:06.92Z</time></trkpt><trkpt lat="38.0285772" lon="15.7326536"><ele>801.2</ele><time>2026-04-25T07:46:07.926Z</time></trkpt><trkpt lat="38.0285153" lon="15.7327648"><ele>802.0</ele><time>2026-04-25T07:46:08.915Z</time></trkpt><trkpt lat="38.0284629" lon="15.7328534"><ele>802.4000000000001</ele><time>2026-04-25T07:46:09.915Z</time></trkpt><trkpt lat="38.0284104" lon="15.7329229"><ele>802.8000000000001</ele><time>2026-04-25T07:46:10.921Z</time></trkpt><trkpt lat="38.0283465" lon="15.7329695"><ele>803.2</ele><time>2026-04-25T07:46:11.918Z</time></trkpt><trkpt lat="38.028266" lon="15.7330141"><ele>803.6</ele><time>2026-04-25T07:46:12.933Z</time></trkpt><trkpt lat="38.0281644" lon="15.7330634"><ele>804.0</ele><time>2026-04-25T07:46:13.925Z</time></trkpt><trkpt lat="38.0280572" lon="15.7331329"><ele>801.75</ele><time>2026-04-25T07:46:14.937Z</time></trkpt><trkpt lat="38.0279462" lon="15.7332208"><ele>799.5</ele><time>2026-04-25T07:46:15.917Z</time></trkpt><trkpt lat="38.0278422" lon="15.7333154"><ele>797.25</ele><time>2026-04-25T07:46:16.919Z</time></trkpt><trkpt lat="38.0277365" lon="15.7334219"><ele>795.0</ele><time>2026-04-25T07:46:17.926Z</time></trkpt><trkpt lat="38.027631" lon="15.7335312"><ele>794.25</ele><time>2026-04-25T07:46:18.916Z</time></trkpt><trkpt lat="38.0275306" lon="15.7336162"><ele>793.5</ele><time>2026-04-25T07:46:19.935Z</time></trkpt><trkpt lat="38.0274405" lon="15.7336777"><ele>792.75</ele><time>2026-04-25T07:46:20.934Z</time></trkpt><trkpt lat="38.027324" lon="15.7337454"><ele>792.0</ele><time>2026-04-25T07:46:21.937Z</time></trkpt><trkpt lat="38.0271975" lon="15.7338206"><ele>789.75</ele><time>2026-04-25T07:46:22.933Z</time></trkpt><trkpt lat="38.0270696" lon="15.733899"><ele>787.5</ele><time>2026-04-25T07:46:23.921Z</time></trkpt><trkpt lat="38.0269596" lon="15.7339791"><ele>785.25</ele><time>2026-04-25T07:46:24.934Z</time></trkpt><trkpt lat="38.0268627" lon="15.73407"><ele>783.0</ele><time>2026-04-25T07:46:25.917Z</time></trkpt><trkpt lat="38.0267731" lon="15.7341705"><ele>783.0</ele><time>2026-04-25T07:46:26.944Z</time></trkpt><trkpt lat="38.0266872" lon="15.7342715"><ele>783.0</ele><time>2026-04-25T07:46:27.928Z</time></trkpt><trkpt lat="38.0265847" lon="15.734378"><ele>783.0</ele><time>2026-04-25T07:46:28.936Z</time></trkpt><trkpt lat="38.026483" lon="15.7344742"><ele>783.0</ele><time>2026-04-25T07:46:29.922Z</time></trkpt><trkpt lat="38.026385" lon="15.7345615"><ele>785.8</ele><time>2026-04-25T07:46:30.927Z</time></trkpt><trkpt lat="38.0263006" lon="15.734637"><ele>788.5999999999999</ele><time>2026-04-25T07:46:31.931Z</time></trkpt><trkpt lat="38.0262259" lon="15.7346912"><ele>791.4000000000001</ele><time>2026-04-25T07:46:32.931Z</time></trkpt><trkpt lat="38.0261442" lon="15.7347069"><ele>794.2</ele><time>2026-04-25T07:46:33.923Z</time></trkpt><trkpt lat="38.0260536" lon="15.7347048"><ele>797.0</ele><time>2026-04-25T07:46:34.942Z</time></trkpt><trkpt lat="38.0259571" lon="15.7346986"><ele>797.0</ele><time>2026-04-25T07:46:35.93Z</time></trkpt><trkpt lat="38.0258566" lon="15.7347189"><ele>797.0</ele><time>2026-04-25T07:46:36.926Z</time></trkpt><trkpt lat="38.0257882" lon="15.7347666"><ele>797.0</ele><time>2026-04-25T07:46:37.932Z</time></trkpt><trkpt lat="38.0257382" lon="15.734855"><ele>797.0</ele><time>2026-04-25T07:46:38.932Z</time></trkpt><trkpt lat="38.0256902" lon="15.7349569"><ele>797.0</ele><time>2026-04-25T07:46:39.939Z</time></trkpt><trkpt lat="38.0256262" lon="15.7350541"><ele>797.25</ele><time>2026-04-25T07:46:40.933Z</time></trkpt><trkpt lat="38.0255423" lon="15.7351427"><ele>797.5</ele><time>2026-04-25T07:46:41.927Z</time></trkpt><trkpt lat="38.0254435" lon="15.7352147"><ele>797.75</ele><time>2026-04-25T07:46:42.931Z</time></trkpt><trkpt lat="38.0253415" lon="15.7352792"><ele>798.0</ele><time>2026-04-25T07:46:43.948Z</time></trkpt><trkpt lat="38.0252397" lon="15.7353436"><ele>798.2</ele><time>2026-04-25T07:46:44.927Z</time></trkpt><trkpt lat="38.0251472" lon="15.7354043"><ele>798.4</ele><time>2026-04-25T07:46:45.941Z</time></trkpt><trkpt lat="38.0250568" lon="15.7354706"><ele>798.6</ele><time>2026-04-25T07:46:46.937Z</time></trkpt><trkpt lat="38.0249703" lon="15.735537"><ele>798.8000000000001</ele><time>2026-04-25T07:46:47.937Z</time></trkpt><trkpt lat="38.0248899" lon="15.7356057"><ele>799.0</ele><time>2026-04-25T07:46:48.934Z</time></trkpt><trkpt lat="38.0248289" lon="15.7356867"><ele>799.0</ele><time>2026-04-25T07:46:49.937Z</time></trkpt><trkpt lat="38.0247811" lon="15.7357828"><ele>799.0</ele><time>2026-04-25T07:46:50.942Z</time></trkpt><trkpt lat="38.0247438" lon="15.7358965"><ele>799.0</ele><time>2026-04-25T07:46:51.944Z</time></trkpt><trkpt lat="38.0247233" lon="15.7360217"><ele>799.0</ele><time>2026-04-25T07:46:52.926Z</time></trkpt><trkpt lat="38.024706" lon="15.7361606"><ele>799.0</ele><time>2026-04-25T07:46:53.93Z</time></trkpt><trkpt lat="38.0246952" lon="15.7363034"><ele>800.3333333333333</ele><time>2026-04-25T07:46:54.937Z</time></trkpt><trkpt lat="38.0246768" lon="15.7364341"><ele>801.6666666666666</ele><time>2026-04-25T07:46:55.934Z</time></trkpt><trkpt lat="38.0246483" lon="15.7365257"><ele>803.0</ele><time>2026-04-25T07:46:56.929Z</time></trkpt><trkpt lat="38.0245953" lon="15.7365828"><ele>804.3333333333333</ele><time>2026-04-25T07:46:57.932Z</time></trkpt><trkpt lat="38.024509" lon="15.7366325"><ele>805.6666666666666</ele><time>2026-04-25T07:46:58.931Z</time></trkpt><trkpt lat="38.0244266" lon="15.7366842"><ele>807.0</ele><time>2026-04-25T07:46:59.947Z</time></trkpt><trkpt lat="38.0243465" lon="15.7367457"><ele>807.0</ele><time>2026-04-25T07:47:00.935Z</time></trkpt><trkpt lat="38.024264" lon="15.7368243"><ele>807.0</ele><time>2026-04-25T07:47:01.951Z</time></trkpt><trkpt lat="38.0241874" lon="15.7369007"><ele>807.0</ele><time>2026-04-25T07:47:02.941Z</time></trkpt><trkpt lat="38.0241062" lon="15.7369701"><ele>807.0</ele><time>2026-04-25T07:47:03.938Z</time></trkpt><trkpt lat="38.0240212" lon="15.7370292"><ele>807.0</ele><time>2026-04-25T07:47:04.926Z</time></trkpt><trkpt lat="38.0239484" lon="15.7370837"><ele>809.1666666666666</ele><time>2026-04-25T07:47:05.949Z</time></trkpt><trkpt lat="38.0239046" lon="15.7371482"><ele>811.3333333333333</ele><time>2026-04-25T07:47:06.957Z</time></trkpt><trkpt lat="38.0238652" lon="15.7372308"><ele>813.5</ele><time>2026-04-25T07:47:07.939Z</time></trkpt><trkpt lat="38.0238186" lon="15.7372997"><ele>815.6666666666666</ele><time>2026-04-25T07:47:08.932Z</time></trkpt><trkpt lat="38.0237116" lon="15.7373412"><ele>817.8333333333333</ele><time>2026-04-25T07:47:10.933Z</time></trkpt><trkpt lat="38.0236418" lon="15.737333"><ele>820.0</ele><time>2026-04-25T07:47:11.936Z</time></trkpt><trkpt lat="38.0235688" lon="15.7373148"><ele>820.0</ele><time>2026-04-25T07:47:12.944Z</time></trkpt><trkpt lat="38.0234923" lon="15.7372977"><ele>820.0</ele><time>2026-04-25T07:47:13.927Z</time></trkpt><trkpt lat="38.0234076" lon="15.7372707"><ele>820.0</ele><time>2026-04-25T07:47:14.938Z</time></trkpt><trkpt lat="38.0233172" lon="15.737224"><ele>820.0</ele><time>2026-04-25T07:47:15.929Z</time></trkpt><trkpt lat="38.0232193" lon="15.7371707"><ele>820.0</ele><time>2026-04-25T07:47:16.941Z</time></trkpt><trkpt lat="38.023121" lon="15.7371212"><ele>818.4</ele><time>2026-04-25T07:47:17.932Z</time></trkpt><trkpt lat="38.0230288" lon="15.7370733"><ele>816.8</ele><time>2026-04-25T07:47:18.943Z</time></trkpt><trkpt lat="38.022941" lon="15.7370427"><ele>815.2</ele><time>2026-04-25T07:47:19.947Z</time></trkpt><trkpt lat="38.0228557" lon="15.7370383"><ele>813.6</ele><time>2026-04-25T07:47:20.941Z</time></trkpt><trkpt lat="38.0227792" lon="15.7370435"><ele>812.0</ele><time>2026-04-25T07:47:21.939Z</time></trkpt><trkpt lat="38.0226621" lon="15.7370042"><ele>812.0</ele><time>2026-04-25T07:47:23.934Z</time></trkpt><trkpt lat="38.0226122" lon="15.7369511"><ele>812.0</ele><time>2026-04-25T07:47:24.936Z</time></trkpt><trkpt lat="38.0225669" lon="15.7368904"><ele>812.0</ele><time>2026-04-25T07:47:25.947Z</time></trkpt><trkpt lat="38.0225059" lon="15.736837"><ele>812.0</ele><time>2026-04-25T07:47:26.929Z</time></trkpt><trkpt lat="38.0224371" lon="15.7367913"><ele>812.0</ele><time>2026-04-25T07:47:27.946Z</time></trkpt><trkpt lat="38.0223707" lon="15.7367479"><ele>812.0</ele><time>2026-04-25T07:47:28.93Z</time></trkpt><trkpt lat="38.0222939" lon="15.7367097"><ele>812.0</ele><time>2026-04-25T07:47:29.938Z</time></trkpt><trkpt lat="38.0222077" lon="15.7366883"><ele>810.3333333333334</ele><time>2026-04-25T07:47:30.953Z</time></trkpt><trkpt lat="38.0221139" lon="15.7366755"><ele>808.6666666666667</ele><time>2026-04-25T07:47:31.935Z</time></trkpt><trkpt lat="38.0220175" lon="15.7366651"><ele>807.0</ele><time>2026-04-25T07:47:32.938Z</time></trkpt><trkpt lat="38.0219197" lon="15.7366607"><ele>805.3333333333333</ele><time>2026-04-25T07:47:33.934Z</time></trkpt><trkpt lat="38.0218319" lon="15.7366638"><ele>803.6666666666666</ele><time>2026-04-25T07:47:34.945Z</time></trkpt><trkpt lat="38.0217657" lon="15.7366745"><ele>802.0</ele><time>2026-04-25T07:47:35.943Z</time></trkpt><trkpt lat="38.0217053" lon="15.7366976"><ele>801.4999999999999</ele><time>2026-04-25T07:47:36.955Z</time></trkpt><trkpt lat="38.0216448" lon="15.7367447"><ele>801.0</ele><time>2026-04-25T07:47:37.951Z</time></trkpt><trkpt lat="38.0215733" lon="15.7368005"><ele>800.5</ele><time>2026-04-25T07:47:38.954Z</time></trkpt><trkpt lat="38.0215044" lon="15.7368572"><ele>800.0</ele><time>2026-04-25T07:47:39.938Z</time></trkpt><trkpt lat="38.0214414" lon="15.7369087"><ele>799.4999999999999</ele><time>2026-04-25T07:47:40.945Z</time></trkpt><trkpt lat="38.0213816" lon="15.7369563"><ele>799.0</ele><time>2026-04-25T07:47:41.951Z</time></trkpt><trkpt lat="38.0213202" lon="15.7370058"><ele>798.2</ele><time>2026-04-25T07:47:42.947Z</time></trkpt><trkpt lat="38.021278" lon="15.737068"><ele>797.4000000000001</ele><time>2026-04-25T07:47:43.957Z</time></trkpt><trkpt lat="38.0212496" lon="15.7372226"><ele>796.6</ele><time>2026-04-25T07:47:45.948Z</time></trkpt><trkpt lat="38.0212349" lon="15.7373151"><ele>795.8</ele><time>2026-04-25T07:47:46.96Z</time></trkpt><trkpt lat="38.0211792" lon="15.7374476"><ele>795.0</ele><time>2026-04-25T07:47:48.947Z</time></trkpt><trkpt lat="38.0211142" lon="15.7375027"><ele>795.0</ele><time>2026-04-25T07:47:49.956Z</time></trkpt><trkpt lat="38.0209922" lon="15.7375396"><ele>795.0</ele><time>2026-04-25T07:47:51.869Z</time></trkpt><trkpt lat="38.0209123" lon="15.737512"><ele>795.0</ele><time>2026-04-25T07:47:52.869Z</time></trkpt><trkpt lat="38.0208178" lon="15.7374714"><ele>795.0</ele><time>2026-04-25T07:47:53.862Z</time></trkpt><trkpt lat="38.020725" lon="15.73743"><ele>795.0</ele><time>2026-04-25T07:47:54.859Z</time></trkpt><trkpt lat="38.020636" lon="15.7374032"><ele>796.8333333333334</ele><time>2026-04-25T07:47:55.867Z</time></trkpt><trkpt lat="38.0205664" lon="15.7373839"><ele>798.6666666666667</ele><time>2026-04-25T07:47:56.864Z</time></trkpt><trkpt lat="38.0204991" lon="15.7373788"><ele>800.5</ele><time>2026-04-25T07:47:57.873Z</time></trkpt><trkpt lat="38.0203982" lon="15.7373912"><ele>802.3333333333334</ele><time>2026-04-25T07:47:59.871Z</time></trkpt><trkpt lat="38.0203384" lon="15.7374842"><ele>804.1666666666667</ele><time>2026-04-25T07:48:01.872Z</time></trkpt><trkpt lat="38.0203002" lon="15.7375646"><ele>806.0</ele><time>2026-04-25T07:48:02.88Z</time></trkpt><trkpt lat="38.0202461" lon="15.7376711"><ele>806.5</ele><time>2026-04-25T07:48:03.874Z</time></trkpt><trkpt lat="38.0201759" lon="15.7377903"><ele>807.0</ele><time>2026-04-25T07:48:04.877Z</time></trkpt><trkpt lat="38.0200962" lon="15.7379076"><ele>807.5</ele><time>2026-04-25T07:48:05.88Z</time></trkpt><trkpt lat="38.0200102" lon="15.7380242"><ele>808.0</ele><time>2026-04-25T07:48:06.889Z</time></trkpt><trkpt lat="38.0199296" lon="15.738142"><ele>808.0</ele><time>2026-04-25T07:48:07.886Z</time></trkpt><trkpt lat="38.0198583" lon="15.7382468"><ele>808.0</ele><time>2026-04-25T07:48:08.876Z</time></trkpt><trkpt lat="38.0197914" lon="15.7383366"><ele>808.0</ele><time>2026-04-25T07:48:09.889Z</time></trkpt><trkpt lat="38.0197032" lon="15.7384125"><ele>808.0</ele><time>2026-04-25T07:48:10.877Z</time></trkpt><trkpt lat="38.0196027" lon="15.7384742"><ele>808.0</ele><time>2026-04-25T07:48:11.883Z</time></trkpt><trkpt lat="38.0195069" lon="15.7385363"><ele>808.0</ele><time>2026-04-25T07:48:12.883Z</time></trkpt><trkpt lat="38.0194246" lon="15.7386027"><ele>808.0</ele><time>2026-04-25T07:48:13.884Z</time></trkpt><trkpt lat="38.0193474" lon="15.7387009"><ele>808.0</ele><time>2026-04-25T07:48:14.879Z</time></trkpt><trkpt lat="38.0192705" lon="15.7388081"><ele>808.0</ele><time>2026-04-25T07:48:15.88Z</time></trkpt><trkpt lat="38.0192033" lon="15.7389015"><ele>808.0</ele><time>2026-04-25T07:48:16.883Z</time></trkpt><trkpt lat="38.0191326" lon="15.738971"><ele>811.5999999999999</ele><time>2026-04-25T07:48:17.889Z</time></trkpt><trkpt lat="38.0190315" lon="15.7389677"><ele>815.1999999999999</ele><time>2026-04-25T07:48:19.895Z</time></trkpt><trkpt lat="38.0189302" lon="15.7389014"><ele>818.8</ele><time>2026-04-25T07:48:21.879Z</time></trkpt><trkpt lat="38.0188656" lon="15.7388536"><ele>822.4</ele><time>2026-04-25T07:48:22.894Z</time></trkpt><trkpt lat="38.0187832" lon="15.7388114"><ele>826.0</ele><time>2026-04-25T07:48:23.903Z</time></trkpt><trkpt lat="38.018681" lon="15.7387655"><ele>826.0</ele><time>2026-04-25T07:48:24.888Z</time></trkpt><trkpt lat="38.018558" lon="15.7387215"><ele>826.0</ele><time>2026-04-25T07:48:25.881Z</time></trkpt><trkpt lat="38.0184259" lon="15.7386784"><ele>826.0</ele><time>2026-04-25T07:48:26.891Z</time></trkpt><trkpt lat="38.0182991" lon="15.7386368"><ele>826.0</ele><time>2026-04-25T07:48:27.919Z</time></trkpt><trkpt lat="38.0181959" lon="15.738599"><ele>828.4999999999999</ele><time>2026-04-25T07:48:28.886Z</time></trkpt><trkpt lat="38.0181194" lon="15.7385698"><ele>831.0</ele><time>2026-04-25T07:48:29.899Z</time></trkpt><trkpt lat="38.0180339" lon="15.738537"><ele>833.5</ele><time>2026-04-25T07:48:31.905Z</time></trkpt><trkpt lat="38.0179428" lon="15.7385602"><ele>836.0</ele><time>2026-04-25T07:48:34.928Z</time></trkpt><trkpt lat="38.0178772" lon="15.738624"><ele>838.4999999999999</ele><time>2026-04-25T07:48:37.931Z</time></trkpt><trkpt lat="38.0178268" lon="15.7386952"><ele>841.0</ele><time>2026-04-25T07:48:40.911Z</time></trkpt><trkpt lat="38.0177757" lon="15.7387831"><ele>841.0</ele><time>2026-04-25T07:48:42.891Z</time></trkpt><trkpt lat="38.0177203" lon="15.7389162"><ele>841.0</ele><time>2026-04-25T07:48:44.91Z</time></trkpt><trkpt lat="38.0176663" lon="15.7390087"><ele>841.0</ele><time>2026-04-25T07:48:46.903Z</time></trkpt><trkpt lat="38.0175927" lon="15.739107"><ele>841.0</ele><time>2026-04-25T07:48:48.91Z</time></trkpt><trkpt lat="38.0175156" lon="15.7391936"><ele>841.0</ele><time>2026-04-25T07:48:50.903Z</time></trkpt><trkpt lat="38.0174588" lon="15.7392694"><ele>843.4999999999999</ele><time>2026-04-25T07:48:52.913Z</time></trkpt><trkpt lat="38.0173639" lon="15.7393238"><ele>846.0</ele><time>2026-04-25T07:48:55.912Z</time></trkpt><trkpt lat="38.0173025" lon="15.7393583"><ele>848.5</ele><time>2026-04-25T07:48:56.915Z</time></trkpt><trkpt lat="38.0172453" lon="15.739418"><ele>851.0</ele><time>2026-04-25T07:48:58.929Z</time></trkpt><trkpt lat="38.0172499" lon="15.7395064"><ele>853.4999999999999</ele><time>2026-04-25T07:49:00.917Z</time></trkpt><trkpt lat="38.0172277" lon="15.7396134"><ele>856.0</ele><time>2026-04-25T07:49:03.931Z</time></trkpt><trkpt lat="38.0172813" lon="15.7396831"><ele>856.1999999999999</ele><time>2026-04-25T07:49:06.933Z</time></trkpt><trkpt lat="38.0173088" lon="15.7397774"><ele>856.3999999999999</ele><time>2026-04-25T07:49:08.931Z</time></trkpt><trkpt lat="38.0173018" lon="15.7399342"><ele>856.6</ele><time>2026-04-25T07:49:10.925Z</time></trkpt><trkpt lat="38.0172979" lon="15.7400446"><ele>856.8</ele><time>2026-04-25T07:49:11.933Z</time></trkpt><trkpt lat="38.0172898" lon="15.7401498"><ele>857.0</ele><time>2026-04-25T07:49:12.921Z</time></trkpt><trkpt lat="38.0172698" lon="15.7402571"><ele>857.0</ele><time>2026-04-25T07:49:13.937Z</time></trkpt><trkpt lat="38.0172408" lon="15.740361"><ele>857.0</ele><time>2026-04-25T07:49:14.936Z</time></trkpt><trkpt lat="38.0172216" lon="15.7404535"><ele>857.0</ele><time>2026-04-25T07:49:15.929Z</time></trkpt><trkpt lat="38.0171989" lon="15.7405308"><ele>857.0</ele><time>2026-04-25T07:49:16.928Z</time></trkpt><trkpt lat="38.0171169" lon="15.7406423"><ele>857.0</ele><time>2026-04-25T07:49:18.937Z</time></trkpt><trkpt lat="38.0170222" lon="15.7407175"><ele>857.0000000000001</ele><time>2026-04-25T07:49:20.926Z</time></trkpt><trkpt lat="38.016985" lon="15.7408045"><ele>857.0</ele><time>2026-04-25T07:49:22.917Z</time></trkpt><trkpt lat="38.0169304" lon="15.740882"><ele>857.0</ele><time>2026-04-25T07:49:25.932Z</time></trkpt><trkpt lat="38.0168286" lon="15.7409398"><ele>857.0</ele><time>2026-04-25T07:49:27.937Z</time></trkpt><trkpt lat="38.0167695" lon="15.7409776"><ele>857.0000000000001</ele><time>2026-04-25T07:49:28.917Z</time></trkpt><trkpt lat="38.0167001" lon="15.741018"><ele>857.0</ele><time>2026-04-25T07:49:30.757Z</time></trkpt><trkpt lat="38.016627" lon="15.741056"><ele>858.5000000000001</ele><time>2026-04-25T07:49:31.759Z</time></trkpt><trkpt lat="38.0165416" lon="15.7411036"><ele>860.0</ele><time>2026-04-25T07:49:32.772Z</time></trkpt><trkpt lat="38.016466" lon="15.741142"><ele>861.5</ele><time>2026-04-25T07:49:33.772Z</time></trkpt><trkpt lat="38.0163945" lon="15.7411862"><ele>863.0</ele><time>2026-04-25T07:49:34.753Z</time></trkpt><trkpt lat="38.0163323" lon="15.7412449"><ele>864.5000000000001</ele><time>2026-04-25T07:49:35.778Z</time></trkpt><trkpt lat="38.0162689" lon="15.7413203"><ele>866.0</ele><time>2026-04-25T07:49:36.788Z</time></trkpt><trkpt lat="38.0162023" lon="15.7414063"><ele>866.0000000000001</ele><time>2026-04-25T07:49:37.768Z</time></trkpt><trkpt lat="38.0161381" lon="15.7414933"><ele>866.0</ele><time>2026-04-25T07:49:38.758Z</time></trkpt><trkpt lat="38.0160697" lon="15.7415825"><ele>866.0</ele><time>2026-04-25T07:49:39.78Z</time></trkpt><trkpt lat="38.0160138" lon="15.7416656"><ele>866.0</ele><time>2026-04-25T07:49:40.769Z</time></trkpt><trkpt lat="38.0159642" lon="15.741752"><ele>866.0000000000001</ele><time>2026-04-25T07:49:41.773Z</time></trkpt><trkpt lat="38.0159276" lon="15.74185"><ele>866.0</ele><time>2026-04-25T07:49:42.766Z</time></trkpt><trkpt lat="38.0158921" lon="15.7419385"><ele>865.1999999999999</ele><time>2026-04-25T07:49:43.792Z</time></trkpt><trkpt lat="38.0158464" lon="15.7420237"><ele>864.3999999999999</ele><time>2026-04-25T07:49:44.781Z</time></trkpt><trkpt lat="38.0157919" lon="15.7421113"><ele>863.6</ele><time>2026-04-25T07:49:45.78Z</time></trkpt><trkpt lat="38.0157268" lon="15.742205"><ele>862.8</ele><time>2026-04-25T07:49:46.776Z</time></trkpt><trkpt lat="38.0156552" lon="15.7422989"><ele>862.0</ele><time>2026-04-25T07:49:47.785Z</time></trkpt><trkpt lat="38.0155888" lon="15.7423967"><ele>861.8</ele><time>2026-04-25T07:49:48.798Z</time></trkpt><trkpt lat="38.01553" lon="15.742503"><ele>861.6</ele><time>2026-04-25T07:49:49.786Z</time></trkpt><trkpt lat="38.0154708" lon="15.7426174"><ele>861.3999999999999</ele><time>2026-04-25T07:49:50.783Z</time></trkpt><trkpt lat="38.0154127" lon="15.7427343"><ele>861.1999999999999</ele><time>2026-04-25T07:49:51.792Z</time></trkpt><trkpt lat="38.0153436" lon="15.7428385"><ele>861.0</ele><time>2026-04-25T07:49:52.801Z</time></trkpt><trkpt lat="38.0152654" lon="15.7429324"><ele>861.0</ele><time>2026-04-25T07:49:53.79Z</time></trkpt><trkpt lat="38.0151704" lon="15.743026"><ele>861.0</ele><time>2026-04-25T07:49:54.796Z</time></trkpt><trkpt lat="38.015074" lon="15.7431213"><ele>861.0</ele><time>2026-04-25T07:49:55.803Z</time></trkpt><trkpt lat="38.014978" lon="15.7432163"><ele>861.0</ele><time>2026-04-25T07:49:56.781Z</time></trkpt><trkpt lat="38.0148826" lon="15.7433168"><ele>860.8</ele><time>2026-04-25T07:49:57.697Z</time></trkpt><trkpt lat="38.0147897" lon="15.7434108"><ele>860.5999999999999</ele><time>2026-04-25T07:49:58.686Z</time></trkpt><trkpt lat="38.0147001" lon="15.7434976"><ele>860.4</ele><time>2026-04-25T07:49:59.693Z</time></trkpt><trkpt lat="38.0146239" lon="15.7435878"><ele>860.2</ele><time>2026-04-25T07:50:00.704Z</time></trkpt><trkpt lat="38.0145634" lon="15.7436863"><ele>860.0</ele><time>2026-04-25T07:50:01.687Z</time></trkpt><trkpt lat="38.0145039" lon="15.7438048"><ele>860.0</ele><time>2026-04-25T07:50:02.802Z</time></trkpt><trkpt lat="38.0144426" lon="15.7439294"><ele>860.0</ele><time>2026-04-25T07:50:03.8Z</time></trkpt><trkpt lat="38.0143406" lon="15.744148"><ele>860.0</ele><time>2026-04-25T07:50:05.737Z</time></trkpt><trkpt lat="38.014319" lon="15.7442311"><ele>860.0</ele><time>2026-04-25T07:50:06.702Z</time></trkpt><trkpt lat="38.0143394" lon="15.7443814"><ele>859.8</ele><time>2026-04-25T07:50:08.69Z</time></trkpt><trkpt lat="38.0143714" lon="15.7444533"><ele>859.6</ele><time>2026-04-25T07:50:09.693Z</time></trkpt><trkpt lat="38.01441" lon="15.7445191"><ele>859.4000000000001</ele><time>2026-04-25T07:50:10.692Z</time></trkpt><trkpt lat="38.0144767" lon="15.7446285"><ele>859.2</ele><time>2026-04-25T07:50:12.685Z</time></trkpt><trkpt lat="38.0145606" lon="15.7446924"><ele>859.0</ele><time>2026-04-25T07:50:14.69Z</time></trkpt><trkpt lat="38.0146509" lon="15.7447971"><ele>858.9999999999999</ele><time>2026-04-25T07:50:16.697Z</time></trkpt><trkpt lat="38.0146827" lon="15.7448676"><ele>859.0</ele><time>2026-04-25T07:50:17.707Z</time></trkpt><trkpt lat="38.0147224" lon="15.7450129"><ele>859.0</ele><time>2026-04-25T07:50:19.75Z</time></trkpt><trkpt lat="38.0147893" lon="15.7451055"><ele>859.0</ele><time>2026-04-25T07:50:21.698Z</time></trkpt><trkpt lat="38.0148507" lon="15.7451453"><ele>858.9999999999999</ele><time>2026-04-25T07:50:22.7Z</time></trkpt><trkpt lat="38.0149218" lon="15.7451638"><ele>859.0</ele><time>2026-04-25T07:50:23.709Z</time></trkpt><trkpt lat="38.0149821" lon="15.7451931"><ele>857.4000000000001</ele><time>2026-04-25T07:50:24.691Z</time></trkpt><trkpt lat="38.0150201" lon="15.7453253"><ele>855.8000000000001</ele><time>2026-04-25T07:50:26.7Z</time></trkpt><trkpt lat="38.0149629" lon="15.7454303"><ele>854.2</ele><time>2026-04-25T07:50:28.701Z</time></trkpt><trkpt lat="38.0148588" lon="15.7454089"><ele>852.5999999999999</ele><time>2026-04-25T07:50:30.723Z</time></trkpt><trkpt lat="38.0147929" lon="15.7453936"><ele>851.0</ele><time>2026-04-25T07:50:31.712Z</time></trkpt><trkpt lat="38.014726" lon="15.745367"><ele>851.0000000000001</ele><time>2026-04-25T07:50:32.717Z</time></trkpt><trkpt lat="38.0146568" lon="15.7453539"><ele>851.0</ele><time>2026-04-25T07:50:33.71Z</time></trkpt><trkpt lat="38.0145905" lon="15.7453621"><ele>851.0</ele><time>2026-04-25T07:50:34.714Z</time></trkpt><trkpt lat="38.0145116" lon="15.7454592"><ele>851.0</ele><time>2026-04-25T07:50:36.707Z</time></trkpt><trkpt lat="38.0144861" lon="15.7455468"><ele>851.0000000000001</ele><time>2026-04-25T07:50:37.712Z</time></trkpt><trkpt lat="38.014463" lon="15.7456618"><ele>851.0</ele><time>2026-04-25T07:50:38.728Z</time></trkpt><trkpt lat="38.0144366" lon="15.7457821"><ele>851.0</ele><time>2026-04-25T07:50:39.709Z</time></trkpt><trkpt lat="38.0144151" lon="15.7459132"><ele>851.0</ele><time>2026-04-25T07:50:40.738Z</time></trkpt><trkpt lat="38.0143938" lon="15.7460484"><ele>851.0</ele><time>2026-04-25T07:50:41.718Z</time></trkpt><trkpt lat="38.0143688" lon="15.7461829"><ele>851.0</ele><time>2026-04-25T07:50:42.722Z</time></trkpt><trkpt lat="38.0143449" lon="15.7463246"><ele>851.0</ele><time>2026-04-25T07:50:43.727Z</time></trkpt><trkpt lat="38.0143164" lon="15.7464673"><ele>847.5999999999999</ele><time>2026-04-25T07:50:44.729Z</time></trkpt><trkpt lat="38.0142876" lon="15.7466113"><ele>844.2</ele><time>2026-04-25T07:50:45.728Z</time></trkpt><trkpt lat="38.0142649" lon="15.7467559"><ele>840.8</ele><time>2026-04-25T07:50:46.722Z</time></trkpt><trkpt lat="38.0142347" lon="15.7468957"><ele>837.4000000000001</ele><time>2026-04-25T07:50:47.739Z</time></trkpt><trkpt lat="38.0141971" lon="15.7470147"><ele>834.0</ele><time>2026-04-25T07:50:48.728Z</time></trkpt><trkpt lat="38.0141556" lon="15.7471138"><ele>829.3333333333334</ele><time>2026-04-25T07:50:49.724Z</time></trkpt><trkpt lat="38.0141104" lon="15.7471967"><ele>824.6666666666667</ele><time>2026-04-25T07:50:50.735Z</time></trkpt><trkpt lat="38.0140518" lon="15.7472588"><ele>820.0</ele><time>2026-04-25T07:50:51.733Z</time></trkpt><trkpt lat="38.0139886" lon="15.7472968"><ele>815.3333333333334</ele><time>2026-04-25T07:50:52.746Z</time></trkpt><trkpt lat="38.0139143" lon="15.7473235"><ele>810.6666666666667</ele><time>2026-04-25T07:50:53.745Z</time></trkpt><trkpt lat="38.0138328" lon="15.7473463"><ele>806.0</ele><time>2026-04-25T07:50:54.731Z</time></trkpt><trkpt lat="38.0137511" lon="15.7473568"><ele>806.0</ele><time>2026-04-25T07:50:55.747Z</time></trkpt><trkpt lat="38.0136661" lon="15.7473433"><ele>806.0</ele><time>2026-04-25T07:50:56.74Z</time></trkpt><trkpt lat="38.0135639" lon="15.7473195"><ele>806.0</ele><time>2026-04-25T07:50:57.735Z</time></trkpt><trkpt lat="38.0134646" lon="15.7472825"><ele>806.0</ele><time>2026-04-25T07:50:58.746Z</time></trkpt><trkpt lat="38.0133817" lon="15.747235"><ele>806.0</ele><time>2026-04-25T07:50:59.741Z</time></trkpt><trkpt lat="38.0133118" lon="15.7471444"><ele>802.25</ele><time>2026-04-25T07:51:00.746Z</time></trkpt><trkpt lat="38.0132423" lon="15.7470206"><ele>798.5</ele><time>2026-04-25T07:51:01.752Z</time></trkpt><trkpt lat="38.013175" lon="15.7468964"><ele>794.75</ele><time>2026-04-25T07:51:02.762Z</time></trkpt><trkpt lat="38.01311" lon="15.7468004"><ele>791.0</ele><time>2026-04-25T07:51:03.77Z</time></trkpt><trkpt lat="38.0130099" lon="15.7467382"><ele>791.0000000000001</ele><time>2026-04-25T07:51:05.755Z</time></trkpt><trkpt lat="38.0128935" lon="15.7466709"><ele>791.0</ele><time>2026-04-25T07:51:07.755Z</time></trkpt><trkpt lat="38.0128419" lon="15.746608"><ele>791.0</ele><time>2026-04-25T07:51:08.768Z</time></trkpt><trkpt lat="38.0127917" lon="15.7465388"><ele>791.0</ele><time>2026-04-25T07:51:09.766Z</time></trkpt><trkpt lat="38.0127553" lon="15.7464553"><ele>791.0000000000001</ele><time>2026-04-25T07:51:10.766Z</time></trkpt><trkpt lat="38.0127353" lon="15.7463492"><ele>791.0</ele><time>2026-04-25T07:51:11.78Z</time></trkpt><trkpt lat="38.012703" lon="15.7462245"><ele>791.0</ele><time>2026-04-25T07:51:12.751Z</time></trkpt><trkpt lat="38.012661" lon="15.7460947"><ele>791.0</ele><time>2026-04-25T07:51:13.762Z</time></trkpt><trkpt lat="38.0126128" lon="15.7459752"><ele>791.0</ele><time>2026-04-25T07:51:14.764Z</time></trkpt><trkpt lat="38.0125641" lon="15.7458809"><ele>791.0</ele><time>2026-04-25T07:51:15.757Z</time></trkpt><trkpt lat="38.0125097" lon="15.7458012"><ele>791.0</ele><time>2026-04-25T07:51:16.764Z</time></trkpt><trkpt lat="38.0124703" lon="15.7457199"><ele>789.1666666666667</ele><time>2026-04-25T07:51:17.764Z</time></trkpt><trkpt lat="38.0124397" lon="15.7456431"><ele>787.3333333333334</ele><time>2026-04-25T07:51:18.765Z</time></trkpt><trkpt lat="38.012403" lon="15.7455738"><ele>785.5</ele><time>2026-04-25T07:51:19.769Z</time></trkpt><trkpt lat="38.0122981" lon="15.7454945"><ele>783.6666666666667</ele><time>2026-04-25T07:51:21.78Z</time></trkpt><trkpt lat="38.0122367" lon="15.7454603"><ele>781.8333333333334</ele><time>2026-04-25T07:51:22.779Z</time></trkpt><trkpt lat="38.0121699" lon="15.7454309"><ele>780.0</ele><time>2026-04-25T07:51:23.791Z</time></trkpt><trkpt lat="38.0121007" lon="15.7453992"><ele>780.0</ele><time>2026-04-25T07:51:24.79Z</time></trkpt><trkpt lat="38.0120233" lon="15.7453722"><ele>780.0</ele><time>2026-04-25T07:51:25.791Z</time></trkpt><trkpt lat="38.0119334" lon="15.7453464"><ele>780.0</ele><time>2026-04-25T07:51:26.791Z</time></trkpt><trkpt lat="38.0118369" lon="15.7453308"><ele>780.0</ele><time>2026-04-25T07:51:27.785Z</time></trkpt><trkpt lat="38.0117408" lon="15.7453199"><ele>780.0</ele><time>2026-04-25T07:51:28.793Z</time></trkpt><trkpt lat="38.0116453" lon="15.7453161"><ele>779.0</ele><time>2026-04-25T07:51:29.776Z</time></trkpt><trkpt lat="38.011556" lon="15.7453032"><ele>778.0</ele><time>2026-04-25T07:51:30.78Z</time></trkpt><trkpt lat="38.0114637" lon="15.7452788"><ele>777.0</ele><time>2026-04-25T07:51:31.781Z</time></trkpt><trkpt lat="38.0113779" lon="15.7452664"><ele>776.0</ele><time>2026-04-25T07:51:32.784Z</time></trkpt><trkpt lat="38.0112932" lon="15.7452884"><ele>775.0</ele><time>2026-04-25T07:51:33.783Z</time></trkpt><trkpt lat="38.0112063" lon="15.7453248"><ele>774.0</ele><time>2026-04-25T07:51:34.783Z</time></trkpt><trkpt lat="38.0111049" lon="15.7453654"><ele>774.0</ele><time>2026-04-25T07:51:35.781Z</time></trkpt><trkpt lat="38.0110038" lon="15.7454121"><ele>774.0</ele><time>2026-04-25T07:51:36.791Z</time></trkpt><trkpt lat="38.0109131" lon="15.7454493"><ele>774.0</ele><time>2026-04-25T07:51:37.781Z</time></trkpt><trkpt lat="38.0108413" lon="15.7454764"><ele>774.0</ele><time>2026-04-25T07:51:38.798Z</time></trkpt><trkpt lat="38.0107783" lon="15.7454738"><ele>774.0</ele><time>2026-04-25T07:51:39.796Z</time></trkpt><trkpt lat="38.0107055" lon="15.7454468"><ele>774.0</ele><time>2026-04-25T07:51:40.792Z</time></trkpt><trkpt lat="38.010625" lon="15.7454007"><ele>771.5</ele><time>2026-04-25T07:51:41.791Z</time></trkpt><trkpt lat="38.0105188" lon="15.7453576"><ele>769.0</ele><time>2026-04-25T07:51:42.797Z</time></trkpt><trkpt lat="38.0103883" lon="15.7453266"><ele>766.5</ele><time>2026-04-25T07:51:43.775Z</time></trkpt><trkpt lat="38.0102624" lon="15.7453051"><ele>764.0</ele><time>2026-04-25T07:51:44.795Z</time></trkpt><trkpt lat="38.0101556" lon="15.7452776"><ele>764.0</ele><time>2026-04-25T07:51:45.782Z</time></trkpt><trkpt lat="38.0100793" lon="15.7452419"><ele>764.0</ele><time>2026-04-25T07:51:46.797Z</time></trkpt><trkpt lat="38.0100152" lon="15.7452036"><ele>764.0</ele><time>2026-04-25T07:51:47.78Z</time></trkpt><trkpt lat="38.0099255" lon="15.7451054"><ele>764.0</ele><time>2026-04-25T07:51:49.695Z</time></trkpt><trkpt lat="38.0098552" lon="15.7451454"><ele>764.0</ele><time>2026-04-25T07:51:51.683Z</time></trkpt><trkpt lat="38.0098712" lon="15.7453135"><ele>764.0</ele><time>2026-04-25T07:51:53.687Z</time></trkpt><trkpt lat="38.0098953" lon="15.7454339"><ele>764.0</ele><time>2026-04-25T07:51:54.699Z</time></trkpt><trkpt lat="38.0099112" lon="15.7455499"><ele>764.0</ele><time>2026-04-25T07:51:55.69Z</time></trkpt><trkpt lat="38.0099379" lon="15.7456478"><ele>764.0</ele><time>2026-04-25T07:51:56.697Z</time></trkpt><trkpt lat="38.0099743" lon="15.7457172"><ele>764.0</ele><time>2026-04-25T07:51:57.69Z</time></trkpt><trkpt lat="38.0100276" lon="15.7457739"><ele>764.0</ele><time>2026-04-25T07:51:58.702Z</time></trkpt><trkpt lat="38.0100714" lon="15.7458409"><ele>764.0</ele><time>2026-04-25T07:51:59.691Z</time></trkpt><trkpt lat="38.0101042" lon="15.7459233"><ele>764.0</ele><time>2026-04-25T07:52:00.709Z</time></trkpt><trkpt lat="38.0101284" lon="15.7460195"><ele>764.0</ele><time>2026-04-25T07:52:01.711Z</time></trkpt><trkpt lat="38.0101624" lon="15.7461161"><ele>764.0</ele><time>2026-04-25T07:52:02.705Z</time></trkpt><trkpt lat="38.0102114" lon="15.7462021"><ele>764.0</ele><time>2026-04-25T07:52:03.694Z</time></trkpt><trkpt lat="38.0102764" lon="15.7462825"><ele>764.0</ele><time>2026-04-25T07:52:04.696Z</time></trkpt><trkpt lat="38.0103435" lon="15.746367"><ele>760.0</ele><time>2026-04-25T07:52:05.705Z</time></trkpt><trkpt lat="38.0104091" lon="15.7464531"><ele>756.0</ele><time>2026-04-25T07:52:06.7Z</time></trkpt><trkpt lat="38.0104583" lon="15.7465224"><ele>752.0</ele><time>2026-04-25T07:52:07.714Z</time></trkpt><trkpt lat="38.0104556" lon="15.7466258"><ele>748.0</ele><time>2026-04-25T07:52:09.719Z</time></trkpt><trkpt lat="38.0103613" lon="15.7466625"><ele>744.0</ele><time>2026-04-25T07:52:11.702Z</time></trkpt><trkpt lat="38.0102281" lon="15.7465927"><ele>744.0</ele><time>2026-04-25T07:52:13.7Z</time></trkpt><trkpt lat="38.0101479" lon="15.7465404"><ele>744.0</ele><time>2026-04-25T07:52:14.707Z</time></trkpt><trkpt lat="38.0100666" lon="15.7464652"><ele>744.0</ele><time>2026-04-25T07:52:15.714Z</time></trkpt><trkpt lat="38.0099818" lon="15.7463874"><ele>744.0</ele><time>2026-04-25T07:52:16.715Z</time></trkpt><trkpt lat="38.0099028" lon="15.7463165"><ele>744.0</ele><time>2026-04-25T07:52:17.716Z</time></trkpt><trkpt lat="38.0098239" lon="15.7462393"><ele>744.4000000000001</ele><time>2026-04-25T07:52:18.708Z</time></trkpt><trkpt lat="38.0097529" lon="15.7461539"><ele>744.8</ele><time>2026-04-25T07:52:19.719Z</time></trkpt><trkpt lat="38.0096808" lon="15.7460658"><ele>745.2</ele><time>2026-04-25T07:52:20.723Z</time></trkpt><trkpt lat="38.0096003" lon="15.7459879"><ele>745.5999999999999</ele><time>2026-04-25T07:52:21.715Z</time></trkpt><trkpt lat="38.0095061" lon="15.7459278"><ele>746.0</ele><time>2026-04-25T07:52:22.712Z</time></trkpt><trkpt lat="38.0094109" lon="15.7458882"><ele>746.0</ele><time>2026-04-25T07:52:23.707Z</time></trkpt><trkpt lat="38.0093235" lon="15.7458627"><ele>746.0</ele><time>2026-04-25T07:52:24.713Z</time></trkpt><trkpt lat="38.0092348" lon="15.7458545"><ele>746.0</ele><time>2026-04-25T07:52:25.71Z</time></trkpt><trkpt lat="38.0091527" lon="15.7458675"><ele>746.0</ele><time>2026-04-25T07:52:26.712Z</time></trkpt><trkpt lat="38.0090701" lon="15.7458619"><ele>746.0</ele><time>2026-04-25T07:52:27.718Z</time></trkpt><trkpt lat="38.0089777" lon="15.7458475"><ele>746.0</ele><time>2026-04-25T07:52:28.712Z</time></trkpt><trkpt lat="38.0088832" lon="15.7458249"><ele>741.8</ele><time>2026-04-25T07:52:29.715Z</time></trkpt><trkpt lat="38.0088105" lon="15.7457854"><ele>737.5999999999999</ele><time>2026-04-25T07:52:30.73Z</time></trkpt><trkpt lat="38.0087117" lon="15.7456665"><ele>733.4</ele><time>2026-04-25T07:52:32.714Z</time></trkpt><trkpt lat="38.0086614" lon="15.7455893"><ele>729.2</ele><time>2026-04-25T07:52:33.712Z</time></trkpt><trkpt lat="38.0085744" lon="15.7455347"><ele>725.0</ele><time>2026-04-25T07:52:35.727Z</time></trkpt><trkpt lat="38.0084787" lon="15.7455453"><ele>725.0</ele><time>2026-04-25T07:52:37.714Z</time></trkpt><trkpt lat="38.0083786" lon="15.7456017"><ele>725.0</ele><time>2026-04-25T07:52:39.72Z</time></trkpt><trkpt lat="38.0083675" lon="15.7457209"><ele>725.0</ele><time>2026-04-25T07:52:41.726Z</time></trkpt><trkpt lat="38.0084302" lon="15.7458752"><ele>725.0</ele><time>2026-04-25T07:52:43.748Z</time></trkpt><trkpt lat="38.0084769" lon="15.7459503"><ele>725.0</ele><time>2026-04-25T07:52:44.728Z</time></trkpt><trkpt lat="38.0085269" lon="15.7460365"><ele>719.8</ele><time>2026-04-25T07:52:45.741Z</time></trkpt><trkpt lat="38.0085805" lon="15.7461406"><ele>714.6</ele><time>2026-04-25T07:52:46.732Z</time></trkpt><trkpt lat="38.0086401" lon="15.7462485"><ele>709.4000000000001</ele><time>2026-04-25T07:52:47.726Z</time></trkpt><trkpt lat="38.0087015" lon="15.7463515"><ele>704.2</ele><time>2026-04-25T07:52:48.728Z</time></trkpt><trkpt lat="38.0087573" lon="15.7464426"><ele>699.0</ele><time>2026-04-25T07:52:49.732Z</time></trkpt><trkpt lat="38.0088105" lon="15.7465139"><ele>699.0</ele><time>2026-04-25T07:52:50.728Z</time></trkpt><trkpt lat="38.0088651" lon="15.7465735"><ele>699.0</ele><time>2026-04-25T07:52:51.719Z</time></trkpt><trkpt lat="38.0089338" lon="15.7466255"><ele>699.0</ele><time>2026-04-25T07:52:52.729Z</time></trkpt><trkpt lat="38.0090132" lon="15.7466724"><ele>699.0</ele><time>2026-04-25T07:52:53.745Z</time></trkpt><trkpt lat="38.0090933" lon="15.7467295"><ele>699.0</ele><time>2026-04-25T07:52:54.733Z</time></trkpt><trkpt lat="38.0091662" lon="15.746804"><ele>699.0</ele><time>2026-04-25T07:52:55.728Z</time></trkpt><trkpt lat="38.0092371" lon="15.7468926"><ele>699.0</ele><time>2026-04-25T07:52:56.72Z</time></trkpt><trkpt lat="38.0092972" lon="15.7469746"><ele>699.0</ele><time>2026-04-25T07:52:57.741Z</time></trkpt><trkpt lat="38.0093433" lon="15.7470417"><ele>699.0</ele><time>2026-04-25T07:52:58.748Z</time></trkpt><trkpt lat="38.0093574" lon="15.7471845"><ele>699.0</ele><time>2026-04-25T07:53:00.729Z</time></trkpt><trkpt lat="38.0093298" lon="15.7473487"><ele>699.0</ele><time>2026-04-25T07:53:02.725Z</time></trkpt><trkpt lat="38.0092918" lon="15.7474437"><ele>699.0</ele><time>2026-04-25T07:53:03.734Z</time></trkpt><trkpt lat="38.0092377" lon="15.7475251"><ele>699.0</ele><time>2026-04-25T07:53:04.747Z</time></trkpt><trkpt lat="38.0091861" lon="15.7475984"><ele>699.0</ele><time>2026-04-25T07:53:05.738Z</time></trkpt><trkpt lat="38.0091815" lon="15.7477406"><ele>699.0</ele><time>2026-04-25T07:53:07.745Z</time></trkpt><trkpt lat="38.0092282" lon="15.7478059"><ele>699.0</ele><time>2026-04-25T07:53:08.743Z</time></trkpt><trkpt lat="38.0092868" lon="15.7478816"><ele>699.0</ele><time>2026-04-25T07:53:09.749Z</time></trkpt><trkpt lat="38.0093433" lon="15.7479794"><ele>695.0</ele><time>2026-04-25T07:53:10.738Z</time></trkpt><trkpt lat="38.0093915" lon="15.7481036"><ele>691.0</ele><time>2026-04-25T07:53:11.732Z</time></trkpt><trkpt lat="38.0094389" lon="15.7482238"><ele>687.0</ele><time>2026-04-25T07:53:12.737Z</time></trkpt><trkpt lat="38.009477" lon="15.7483307"><ele>683.0</ele><time>2026-04-25T07:53:13.731Z</time></trkpt><trkpt lat="38.0095111" lon="15.7484343"><ele>679.0</ele><time>2026-04-25T07:53:14.732Z</time></trkpt><trkpt lat="38.0095504" lon="15.7485283"><ele>674.8333333333334</ele><time>2026-04-25T07:53:15.73Z</time></trkpt><trkpt lat="38.0095964" lon="15.7486088"><ele>670.6666666666667</ele><time>2026-04-25T07:53:16.736Z</time></trkpt><trkpt lat="38.0096573" lon="15.7486794"><ele>666.5</ele><time>2026-04-25T07:53:17.735Z</time></trkpt><trkpt lat="38.009725" lon="15.7487429"><ele>662.3333333333334</ele><time>2026-04-25T07:53:18.746Z</time></trkpt><trkpt lat="38.0098047" lon="15.748805"><ele>658.1666666666666</ele><time>2026-04-25T07:53:19.738Z</time></trkpt><trkpt lat="38.0098781" lon="15.7488678"><ele>654.0</ele><time>2026-04-25T07:53:20.755Z</time></trkpt><trkpt lat="38.0099483" lon="15.7489261"><ele>657.1666666666666</ele><time>2026-04-25T07:53:21.735Z</time></trkpt><trkpt lat="38.0100261" lon="15.7489574"><ele>660.3333333333334</ele><time>2026-04-25T07:53:22.737Z</time></trkpt><trkpt lat="38.0101046" lon="15.7489652"><ele>663.5</ele><time>2026-04-25T07:53:23.732Z</time></trkpt><trkpt lat="38.010174" lon="15.7489864"><ele>666.6666666666667</ele><time>2026-04-25T07:53:24.751Z</time></trkpt><trkpt lat="38.0102448" lon="15.7490195"><ele>669.8333333333334</ele><time>2026-04-25T07:53:25.737Z</time></trkpt><trkpt lat="38.0103215" lon="15.7490647"><ele>673.0</ele><time>2026-04-25T07:53:26.748Z</time></trkpt><trkpt lat="38.0103927" lon="15.7491169"><ele>673.0</ele><time>2026-04-25T07:53:27.736Z</time></trkpt><trkpt lat="38.0104465" lon="15.7491763"><ele>673.0</ele><time>2026-04-25T07:53:28.745Z</time></trkpt><trkpt lat="38.010513" lon="15.7492896"><ele>673.0</ele><time>2026-04-25T07:53:30.747Z</time></trkpt><trkpt lat="38.0105649" lon="15.7494133"><ele>673.0</ele><time>2026-04-25T07:53:32.741Z</time></trkpt><trkpt lat="38.0106095" lon="15.7495273"><ele>673.0</ele><time>2026-04-25T07:53:34.738Z</time></trkpt><trkpt lat="38.0106774" lon="15.7496522"><ele>668.5</ele><time>2026-04-25T07:53:36.735Z</time></trkpt><trkpt lat="38.0106944" lon="15.7497429"><ele>664.0</ele><time>2026-04-25T07:53:37.743Z</time></trkpt><trkpt lat="38.0106924" lon="15.7498432"><ele>659.5</ele><time>2026-04-25T07:53:38.753Z</time></trkpt><trkpt lat="38.0106707" lon="15.7499208"><ele>655.0</ele><time>2026-04-25T07:53:39.746Z</time></trkpt><trkpt lat="38.0105879" lon="15.7499458"><ele>650.5</ele><time>2026-04-25T07:53:41.757Z</time></trkpt><trkpt lat="38.0105193" lon="15.7498651"><ele>646.0</ele><time>2026-04-25T07:53:43.752Z</time></trkpt><trkpt lat="38.010426" lon="15.7497722"><ele>646.0</ele><time>2026-04-25T07:53:45.754Z</time></trkpt><trkpt lat="38.0103522" lon="15.7497293"><ele>646.0</ele><time>2026-04-25T07:53:46.762Z</time></trkpt><trkpt lat="38.0102747" lon="15.7496983"><ele>646.0</ele><time>2026-04-25T07:53:47.76Z</time></trkpt><trkpt lat="38.0101861" lon="15.7496916"><ele>646.0</ele><time>2026-04-25T07:53:48.764Z</time></trkpt><trkpt lat="38.0101076" lon="15.749695"><ele>646.0</ele><time>2026-04-25T07:53:49.756Z</time></trkpt><trkpt lat="38.0100426" lon="15.7497145"><ele>646.0</ele><time>2026-04-25T07:53:50.777Z</time></trkpt><trkpt lat="38.0099844" lon="15.7497533"><ele>643.6666666666667</ele><time>2026-04-25T07:53:51.771Z</time></trkpt><trkpt lat="38.0099305" lon="15.7498216"><ele>641.3333333333334</ele><time>2026-04-25T07:53:52.774Z</time></trkpt><trkpt lat="38.0098853" lon="15.7499122"><ele>639.0</ele><time>2026-04-25T07:53:53.769Z</time></trkpt><trkpt lat="38.0098351" lon="15.7500117"><ele>636.6666666666666</ele><time>2026-04-25T07:53:54.769Z</time></trkpt><trkpt lat="38.0097863" lon="15.7500856"><ele>634.3333333333333</ele><time>2026-04-25T07:53:55.777Z</time></trkpt><trkpt lat="38.0096987" lon="15.7501773"><ele>632.0</ele><time>2026-04-25T07:53:57.777Z</time></trkpt><trkpt lat="38.009615" lon="15.7502906"><ele>632.0</ele><time>2026-04-25T07:53:59.785Z</time></trkpt><trkpt lat="38.0095712" lon="15.7503529"><ele>632.0</ele><time>2026-04-25T07:54:00.772Z</time></trkpt><trkpt lat="38.0094827" lon="15.7503656"><ele>632.0</ele><time>2026-04-25T07:54:02.786Z</time></trkpt><trkpt lat="38.0093959" lon="15.7502796"><ele>632.0</ele><time>2026-04-25T07:54:04.777Z</time></trkpt><trkpt lat="38.0093434" lon="15.7502216"><ele>632.0</ele><time>2026-04-25T07:54:05.791Z</time></trkpt><trkpt lat="38.0092754" lon="15.7501526"><ele>632.0</ele><time>2026-04-25T07:54:06.805Z</time></trkpt><trkpt lat="38.0092056" lon="15.7500714"><ele>627.2</ele><time>2026-04-25T07:54:07.788Z</time></trkpt><trkpt lat="38.0091348" lon="15.7499973"><ele>622.4000000000001</ele><time>2026-04-25T07:54:08.797Z</time></trkpt><trkpt lat="38.0090127" lon="15.7498941"><ele>617.5999999999999</ele><time>2026-04-25T07:54:10.695Z</time></trkpt><trkpt lat="38.0089202" lon="15.7498623"><ele>612.8</ele><time>2026-04-25T07:54:12.685Z</time></trkpt><trkpt lat="38.0089302" lon="15.7499827"><ele>608.0</ele><time>2026-04-25T07:54:36.732Z</time></trkpt><trkpt lat="38.0089431" lon="15.7501396"><ele>605.7142857142857</ele><time>2026-04-25T07:54:38.729Z</time></trkpt><trkpt lat="38.0089502" lon="15.7502302"><ele>603.4285714285714</ele><time>2026-04-25T07:54:39.757Z</time></trkpt><trkpt lat="38.0089534" lon="15.7503256"><ele>601.1428571428571</ele><time>2026-04-25T07:54:40.744Z</time></trkpt><trkpt lat="38.0089517" lon="15.7504161"><ele>598.8571428571429</ele><time>2026-04-25T07:54:41.731Z</time></trkpt><trkpt lat="38.0089288" lon="15.7504983"><ele>596.5714285714286</ele><time>2026-04-25T07:54:42.719Z</time></trkpt><trkpt lat="38.0088899" lon="15.7505615"><ele>594.2857142857143</ele><time>2026-04-25T07:54:43.721Z</time></trkpt><trkpt lat="38.0088027" lon="15.7506198"><ele>592.0</ele><time>2026-04-25T07:54:45.72Z</time></trkpt><trkpt lat="38.0087274" lon="15.7505225"><ele>592.0</ele><time>2026-04-25T07:54:47.74Z</time></trkpt><trkpt lat="38.0086816" lon="15.7504589"><ele>592.0</ele><time>2026-04-25T07:54:48.74Z</time></trkpt><trkpt lat="38.0086266" lon="15.7504156"><ele>592.0</ele><time>2026-04-25T07:54:49.736Z</time></trkpt><trkpt lat="38.0085345" lon="15.7504232"><ele>592.0</ele><time>2026-04-25T07:54:51.749Z</time></trkpt><trkpt lat="38.0085249" lon="15.7505205"><ele>592.0</ele><time>2026-04-25T07:54:53.733Z</time></trkpt><trkpt lat="38.0085858" lon="15.7506554"><ele>592.0</ele><time>2026-04-25T07:54:55.752Z</time></trkpt><trkpt lat="38.0085891" lon="15.7507358"><ele>592.0</ele><time>2026-04-25T07:54:56.738Z</time></trkpt><trkpt lat="38.0085806" lon="15.7508788"><ele>592.0</ele><time>2026-04-25T07:54:58.745Z</time></trkpt><trkpt lat="38.0086127" lon="15.7510351"><ele>592.0</ele><time>2026-04-25T07:55:00.74Z</time></trkpt><trkpt lat="38.0086465" lon="15.7511308"><ele>592.0</ele><time>2026-04-25T07:55:01.756Z</time></trkpt><trkpt lat="38.0086761" lon="15.7512336"><ele>592.0</ele><time>2026-04-25T07:55:02.744Z</time></trkpt><trkpt lat="38.0087106" lon="15.7513299"><ele>589.6666666666667</ele><time>2026-04-25T07:55:03.747Z</time></trkpt><trkpt lat="38.0087436" lon="15.7514265"><ele>587.3333333333334</ele><time>2026-04-25T07:55:04.757Z</time></trkpt><trkpt lat="38.008781" lon="15.7515215"><ele>585.0</ele><time>2026-04-25T07:55:05.735Z</time></trkpt><trkpt lat="38.0088272" lon="15.7516125"><ele>582.6666666666666</ele><time>2026-04-25T07:55:06.754Z</time></trkpt><trkpt lat="38.00886" lon="15.7516945"><ele>580.3333333333333</ele><time>2026-04-25T07:55:07.774Z</time></trkpt><trkpt lat="38.0088077" lon="15.7518132"><ele>578.0</ele><time>2026-04-25T07:55:09.757Z</time></trkpt><trkpt lat="38.008744" lon="15.7518428"><ele>578.0</ele><time>2026-04-25T07:55:10.751Z</time></trkpt><trkpt lat="38.0086682" lon="15.751846"><ele>578.0</ele><time>2026-04-25T07:55:11.742Z</time></trkpt><trkpt lat="38.008597" lon="15.751823"><ele>578.0</ele><time>2026-04-25T07:55:12.743Z</time></trkpt><trkpt lat="38.0085349" lon="15.7517815"><ele>578.0</ele><time>2026-04-25T07:55:13.744Z</time></trkpt><trkpt lat="38.008482" lon="15.7517053"><ele>578.0</ele><time>2026-04-25T07:55:14.75Z</time></trkpt><trkpt lat="38.0084256" lon="15.751606"><ele>578.0</ele><time>2026-04-25T07:55:15.761Z</time></trkpt><trkpt lat="38.0083547" lon="15.7515164"><ele>577.6</ele><time>2026-04-25T07:55:16.753Z</time></trkpt><trkpt lat="38.0082788" lon="15.7514297"><ele>577.1999999999999</ele><time>2026-04-25T07:55:17.758Z</time></trkpt><trkpt lat="38.0082065" lon="15.7513288"><ele>576.8</ele><time>2026-04-25T07:55:18.752Z</time></trkpt><trkpt lat="38.0081295" lon="15.7512317"><ele>576.4</ele><time>2026-04-25T07:55:19.762Z</time></trkpt><trkpt lat="38.0080519" lon="15.7511399"><ele>576.0</ele><time>2026-04-25T07:55:20.751Z</time></trkpt><trkpt lat="38.0079771" lon="15.7510404"><ele>576.0</ele><time>2026-04-25T07:55:21.756Z</time></trkpt><trkpt lat="38.0079149" lon="15.7509398"><ele>576.0</ele><time>2026-04-25T07:55:22.759Z</time></trkpt><trkpt lat="38.0078648" lon="15.7508254"><ele>576.0</ele><time>2026-04-25T07:55:23.776Z</time></trkpt><trkpt lat="38.0078236" lon="15.7507079"><ele>576.0</ele><time>2026-04-25T07:55:24.775Z</time></trkpt><trkpt lat="38.0077805" lon="15.7506015"><ele>576.0</ele><time>2026-04-25T07:55:25.761Z</time></trkpt><trkpt lat="38.007725" lon="15.7505034"><ele>576.0</ele><time>2026-04-25T07:55:26.753Z</time></trkpt><trkpt lat="38.0076656" lon="15.7504233"><ele>576.0</ele><time>2026-04-25T07:55:27.749Z</time></trkpt><trkpt lat="38.0075968" lon="15.7503568"><ele>576.0</ele><time>2026-04-25T07:55:28.754Z</time></trkpt><trkpt lat="38.0075353" lon="15.7502981"><ele>576.0</ele><time>2026-04-25T07:55:29.758Z</time></trkpt><trkpt lat="38.0074844" lon="15.7502286"><ele>576.0</ele><time>2026-04-25T07:55:30.764Z</time></trkpt><trkpt lat="38.0074409" lon="15.750169"><ele>576.0</ele><time>2026-04-25T07:55:31.769Z</time></trkpt><trkpt lat="38.0073537" lon="15.7501109"><ele>581.6666666666666</ele><time>2026-04-25T07:55:33.762Z</time></trkpt><trkpt lat="38.0072723" lon="15.7501374"><ele>587.3333333333334</ele><time>2026-04-25T07:55:35.761Z</time></trkpt><trkpt lat="38.0072561" lon="15.7502464"><ele>593.0</ele><time>2026-04-25T07:55:37.755Z</time></trkpt><trkpt lat="38.0072682" lon="15.750327"><ele>598.6666666666667</ele><time>2026-04-25T07:55:38.769Z</time></trkpt><trkpt lat="38.0072756" lon="15.7504179"><ele>604.3333333333334</ele><time>2026-04-25T07:55:39.758Z</time></trkpt><trkpt lat="38.0072883" lon="15.7505247"><ele>610.0</ele><time>2026-04-25T07:55:40.778Z</time></trkpt><trkpt lat="38.0072978" lon="15.7506544"><ele>610.0</ele><time>2026-04-25T07:55:41.765Z</time></trkpt><trkpt lat="38.0072986" lon="15.7508014"><ele>610.0</ele><time>2026-04-25T07:55:42.766Z</time></trkpt><trkpt lat="38.0072835" lon="15.750939"><ele>610.0</ele><time>2026-04-25T07:55:43.766Z</time></trkpt><trkpt lat="38.0072738" lon="15.7510829"><ele>610.0</ele><time>2026-04-25T07:55:44.774Z</time></trkpt><trkpt lat="38.007278" lon="15.7512469"><ele>603.25</ele><time>2026-04-25T07:55:45.771Z</time></trkpt><trkpt lat="38.0072892" lon="15.7514363"><ele>596.5</ele><time>2026-04-25T07:55:46.761Z</time></trkpt><trkpt lat="38.0073221" lon="15.7516129"><ele>589.75</ele><time>2026-04-25T07:55:47.759Z</time></trkpt><trkpt lat="38.0073573" lon="15.7517723"><ele>583.0</ele><time>2026-04-25T07:55:48.753Z</time></trkpt><trkpt lat="38.0073993" lon="15.7519328"><ele>579.0</ele><time>2026-04-25T07:55:49.759Z</time></trkpt><trkpt lat="38.0074468" lon="15.7520917"><ele>575.0</ele><time>2026-04-25T07:55:50.753Z</time></trkpt><trkpt lat="38.0074938" lon="15.7522514"><ele>571.0</ele><time>2026-04-25T07:55:51.771Z</time></trkpt><trkpt lat="38.0075377" lon="15.7524011"><ele>567.0</ele><time>2026-04-25T07:55:52.758Z</time></trkpt><trkpt lat="38.0075736" lon="15.7525317"><ele>565.4</ele><time>2026-04-25T07:55:53.76Z</time></trkpt><trkpt lat="38.0075976" lon="15.7526482"><ele>563.8000000000001</ele><time>2026-04-25T07:55:54.759Z</time></trkpt><trkpt lat="38.0076031" lon="15.7527673"><ele>562.2</ele><time>2026-04-25T07:55:55.763Z</time></trkpt><trkpt lat="38.0075762" lon="15.7529125"><ele>560.6</ele><time>2026-04-25T07:55:56.771Z</time></trkpt><trkpt lat="38.00753" lon="15.7530655"><ele>559.0</ele><time>2026-04-25T07:55:57.763Z</time></trkpt><trkpt lat="38.0074895" lon="15.753209"><ele>558.75</ele><time>2026-04-25T07:55:58.781Z</time></trkpt><trkpt lat="38.0074424" lon="15.7533501"><ele>558.5</ele><time>2026-04-25T07:55:59.774Z</time></trkpt><trkpt lat="38.0073964" lon="15.7534961"><ele>558.25</ele><time>2026-04-25T07:56:00.772Z</time></trkpt><trkpt lat="38.0073632" lon="15.7536495"><ele>558.0</ele><time>2026-04-25T07:56:01.777Z</time></trkpt><trkpt lat="38.0073335" lon="15.7538099"><ele>555.0</ele><time>2026-04-25T07:56:02.774Z</time></trkpt><trkpt lat="38.0072997" lon="15.7539776"><ele>552.0</ele><time>2026-04-25T07:56:03.775Z</time></trkpt><trkpt lat="38.0072638" lon="15.7541481"><ele>549.0</ele><time>2026-04-25T07:56:04.779Z</time></trkpt><trkpt lat="38.0072223" lon="15.7543162"><ele>546.0</ele><time>2026-04-25T07:56:05.772Z</time></trkpt><trkpt lat="38.0071862" lon="15.7544839"><ele>543.5</ele><time>2026-04-25T07:56:06.765Z</time></trkpt><trkpt lat="38.0071525" lon="15.7546499"><ele>541.0</ele><time>2026-04-25T07:56:07.782Z</time></trkpt><trkpt lat="38.0071199" lon="15.7548189"><ele>538.5</ele><time>2026-04-25T07:56:08.765Z</time></trkpt><trkpt lat="38.0070864" lon="15.7549852"><ele>536.0</ele><time>2026-04-25T07:56:09.777Z</time></trkpt><trkpt lat="38.0070606" lon="15.7551448"><ele>534.25</ele><time>2026-04-25T07:56:10.778Z</time></trkpt><trkpt lat="38.0070377" lon="15.755316"><ele>532.5</ele><time>2026-04-25T07:56:11.787Z</time></trkpt><trkpt lat="38.0070071" lon="15.7554979"><ele>530.75</ele><time>2026-04-25T07:56:12.781Z</time></trkpt><trkpt lat="38.006974" lon="15.7556801"><ele>529.0</ele><time>2026-04-25T07:56:13.788Z</time></trkpt><trkpt lat="38.0069317" lon="15.7558654"><ele>526.3333333333334</ele><time>2026-04-25T07:56:14.777Z</time></trkpt><trkpt lat="38.0068865" lon="15.7560511"><ele>523.6666666666666</ele><time>2026-04-25T07:56:15.789Z</time></trkpt><trkpt lat="38.0068446" lon="15.7562403"><ele>521.0</ele><time>2026-04-25T07:56:16.774Z</time></trkpt><trkpt lat="38.006801" lon="15.756416"><ele>521.0</ele><time>2026-04-25T07:56:17.773Z</time></trkpt><trkpt lat="38.0067509" lon="15.756582"><ele>521.0</ele><time>2026-04-25T07:56:18.775Z</time></trkpt><trkpt lat="38.0066903" lon="15.7567428"><ele>521.0</ele><time>2026-04-25T07:56:19.793Z</time></trkpt><trkpt lat="38.0066329" lon="15.756885"><ele>521.0</ele><time>2026-04-25T07:56:20.778Z</time></trkpt><trkpt lat="38.0065805" lon="15.7570036"><ele>520.6666666666666</ele><time>2026-04-25T07:56:21.777Z</time></trkpt><trkpt lat="38.0065444" lon="15.7570896"><ele>520.3333333333333</ele><time>2026-04-25T07:56:22.778Z</time></trkpt><trkpt lat="38.0065387" lon="15.7571891"><ele>520.0</ele><time>2026-04-25T07:56:24.79Z</time></trkpt><trkpt lat="38.0065833" lon="15.7572544"><ele>519.6666666666666</ele><time>2026-04-25T07:56:26.778Z</time></trkpt><trkpt lat="38.0066452" lon="15.7573166"><ele>519.3333333333334</ele><time>2026-04-25T07:56:28.78Z</time></trkpt><trkpt lat="38.0067042" lon="15.7573639"><ele>519.0</ele><time>2026-04-25T07:56:30.692Z</time></trkpt><trkpt lat="38.0067869" lon="15.7573154"><ele>518.3333333333334</ele><time>2026-04-25T07:56:33.705Z</time></trkpt><trkpt lat="38.0068709" lon="15.7572393"><ele>517.6666666666666</ele><time>2026-04-25T07:56:35.687Z</time></trkpt><trkpt lat="38.0069506" lon="15.7572045"><ele>517.0</ele><time>2026-04-25T07:56:37.696Z</time></trkpt><trkpt lat="38.0070362" lon="15.7572155"><ele>516.3333333333333</ele><time>2026-04-25T07:56:39.698Z</time></trkpt><trkpt lat="38.0071312" lon="15.7572331"><ele>515.6666666666666</ele><time>2026-04-25T07:56:41.701Z</time></trkpt><trkpt lat="38.007193" lon="15.757213"><ele>515.0</ele><time>2026-04-25T07:56:54.729Z</time></trkpt><trkpt lat="38.0072549" lon="15.7571796"><ele>515.0</ele><time>2026-04-25T07:56:56.727Z</time></trkpt><trkpt lat="38.0071924" lon="15.7572273"><ele>515.0</ele><time>2026-04-25T07:57:11.75Z</time></trkpt><trkpt lat="38.0070879" lon="15.7572388"><ele>515.0</ele><time>2026-04-25T07:57:14.74Z</time></trkpt><trkpt lat="38.0069895" lon="15.7572112"><ele>515.0</ele><time>2026-04-25T07:57:16.73Z</time></trkpt><trkpt lat="38.0069052" lon="15.7572052"><ele>515.0</ele><time>2026-04-25T07:57:18.739Z</time></trkpt><trkpt lat="38.0068744" lon="15.7572827"><ele>515.0</ele><time>2026-04-25T07:57:21.733Z</time></trkpt><trkpt lat="38.0068854" lon="15.7573637"><ele>515.0</ele><time>2026-04-25T07:57:24.733Z</time></trkpt><trkpt lat="38.0068571" lon="15.7574408"><ele>515.0</ele><time>2026-04-25T07:57:27.751Z</time></trkpt><trkpt lat="38.0067867" lon="15.7574972"><ele>515.0</ele><time>2026-04-25T07:57:31.738Z</time></trkpt><trkpt lat="38.0067306" lon="15.7575958"><ele>515.0</ele><time>2026-04-25T07:57:34.74Z</time></trkpt><trkpt lat="38.0066754" lon="15.7576843"><ele>515.0</ele><time>2026-04-25T07:57:36.749Z</time></trkpt><trkpt lat="38.0065979" lon="15.7577821"><ele>515.0</ele><time>2026-04-25T07:57:38.735Z</time></trkpt><trkpt lat="38.0065324" lon="15.757873"><ele>514.4</ele><time>2026-04-25T07:57:40.748Z</time></trkpt><trkpt lat="38.0064988" lon="15.7580043"><ele>513.8</ele><time>2026-04-25T07:57:42.744Z</time></trkpt><trkpt lat="38.0064509" lon="15.7581267"><ele>513.2</ele><time>2026-04-25T07:57:44.738Z</time></trkpt><trkpt lat="38.0064075" lon="15.7582379"><ele>512.6</ele><time>2026-04-25T07:57:46.749Z</time></trkpt><trkpt lat="38.0063798" lon="15.7583232"><ele>512.0</ele><time>2026-04-25T07:57:48.746Z</time></trkpt><trkpt lat="38.0063381" lon="15.7584233"><ele>511.99999999999994</ele><time>2026-04-25T07:58:03.766Z</time></trkpt><trkpt lat="38.006291" lon="15.758519"><ele>512.0</ele><time>2026-04-25T07:58:05.762Z</time></trkpt><trkpt lat="38.0062506" lon="15.758585"><ele>512.0</ele><time>2026-04-25T07:58:08.75Z</time></trkpt><trkpt lat="38.0061946" lon="15.7586519"><ele>512.0</ele><time>2026-04-25T07:58:15.765Z</time></trkpt><trkpt lat="38.0061396" lon="15.7587375"><ele>511.99999999999994</ele><time>2026-04-25T07:58:17.764Z</time></trkpt><trkpt lat="38.0060758" lon="15.7588424"><ele>512.0</ele><time>2026-04-25T07:58:19.779Z</time></trkpt><trkpt lat="38.0060008" lon="15.7589332"><ele>512.2</ele><time>2026-04-25T07:58:21.765Z</time></trkpt><trkpt lat="38.0059343" lon="15.7590167"><ele>512.4000000000001</ele><time>2026-04-25T07:58:23.775Z</time></trkpt><trkpt lat="38.0058598" lon="15.7591013"><ele>512.5999999999999</ele><time>2026-04-25T07:58:25.782Z</time></trkpt><trkpt lat="38.0057932" lon="15.7592042"><ele>512.8</ele><time>2026-04-25T07:58:27.772Z</time></trkpt><trkpt lat="38.0057301" lon="15.7593206"><ele>513.0</ele><time>2026-04-25T07:58:29.778Z</time></trkpt><trkpt lat="38.0056735" lon="15.7594434"><ele>509.59999999999997</ele><time>2026-04-25T07:58:31.764Z</time></trkpt><trkpt lat="38.0056137" lon="15.759549"><ele>506.19999999999993</ele><time>2026-04-25T07:58:33.768Z</time></trkpt><trkpt lat="38.0055293" lon="15.7596129"><ele>502.8</ele><time>2026-04-25T07:58:35.772Z</time></trkpt><trkpt lat="38.0054251" lon="15.7596844"><ele>499.4</ele><time>2026-04-25T07:58:37.775Z</time></trkpt><trkpt lat="38.0053293" lon="15.7597653"><ele>496.0</ele><time>2026-04-25T07:58:39.764Z</time></trkpt><trkpt lat="38.0052619" lon="15.7598714"><ele>496.0</ele><time>2026-04-25T07:58:41.781Z</time></trkpt><trkpt lat="38.0051979" lon="15.7599923"><ele>496.0</ele><time>2026-04-25T07:58:43.774Z</time></trkpt><trkpt lat="38.0051117" lon="15.7601025"><ele>496.0</ele><time>2026-04-25T07:58:45.786Z</time></trkpt><trkpt lat="38.0050594" lon="15.7601544"><ele>496.0</ele><time>2026-04-25T07:58:46.772Z</time></trkpt><trkpt lat="38.0050032" lon="15.76021"><ele>496.0</ele><time>2026-04-25T07:58:47.777Z</time></trkpt><trkpt lat="38.0049472" lon="15.760275"><ele>496.00000000000006</ele><time>2026-04-25T07:58:48.774Z</time></trkpt><trkpt lat="38.0048753" lon="15.7604033"><ele>496.0</ele><time>2026-04-25T07:58:50.774Z</time></trkpt><trkpt lat="38.0048352" lon="15.7604721"><ele>496.0</ele><time>2026-04-25T07:58:51.769Z</time></trkpt><trkpt lat="38.0047889" lon="15.7605304"><ele>496.0</ele><time>2026-04-25T07:58:52.765Z</time></trkpt><trkpt lat="38.0047359" lon="15.7605858"><ele>496.00000000000006</ele><time>2026-04-25T07:58:53.778Z</time></trkpt><trkpt lat="38.0046834" lon="15.7606459"><ele>496.0</ele><time>2026-04-25T07:58:54.767Z</time></trkpt><trkpt lat="38.0046388" lon="15.7607043"><ele>496.0</ele><time>2026-04-25T07:58:55.785Z</time></trkpt><trkpt lat="38.0045999" lon="15.7607704"><ele>496.00000000000006</ele><time>2026-04-25T07:58:56.779Z</time></trkpt><trkpt lat="38.0045625" lon="15.760839"><ele>496.0</ele><time>2026-04-25T07:58:57.784Z</time></trkpt><trkpt lat="38.0045243" lon="15.7609045"><ele>496.0</ele><time>2026-04-25T07:58:58.771Z</time></trkpt><trkpt lat="38.0044873" lon="15.7609718"><ele>496.00000000000006</ele><time>2026-04-25T07:58:59.779Z</time></trkpt><trkpt lat="38.0044545" lon="15.7610486"><ele>496.0</ele><time>2026-04-25T07:59:00.782Z</time></trkpt><trkpt lat="38.0044271" lon="15.7611234"><ele>496.0</ele><time>2026-04-25T07:59:01.779Z</time></trkpt><trkpt lat="38.0043949" lon="15.7612104"><ele>494.00000000000006</ele><time>2026-04-25T07:59:03.783Z</time></trkpt><trkpt lat="38.0043577" lon="15.7613159"><ele>492.0</ele><time>2026-04-25T07:59:07.779Z</time></trkpt><trkpt lat="38.0042941" lon="15.761409"><ele>490.0</ele><time>2026-04-25T07:59:09.767Z</time></trkpt><trkpt lat="38.004232" lon="15.7614715"><ele>488.0</ele><time>2026-04-25T07:59:10.771Z</time></trkpt><trkpt lat="38.0041667" lon="15.7615288"><ele>486.00000000000006</ele><time>2026-04-25T07:59:11.78Z</time></trkpt><trkpt lat="38.0041002" lon="15.7615795"><ele>484.0</ele><time>2026-04-25T07:59:12.777Z</time></trkpt><trkpt lat="38.0040317" lon="15.7616172"><ele>483.1666666666667</ele><time>2026-04-25T07:59:13.789Z</time></trkpt><trkpt lat="38.0039565" lon="15.7616415"><ele>482.33333333333337</ele><time>2026-04-25T07:59:14.773Z</time></trkpt><trkpt lat="38.0038737" lon="15.76166"><ele>481.5</ele><time>2026-04-25T07:59:15.785Z</time></trkpt><trkpt lat="38.003795" lon="15.7616739"><ele>480.66666666666663</ele><time>2026-04-25T07:59:16.777Z</time></trkpt><trkpt lat="38.0037191" lon="15.7616874"><ele>479.8333333333333</ele><time>2026-04-25T07:59:17.771Z</time></trkpt><trkpt lat="38.0036496" lon="15.761705"><ele>479.0</ele><time>2026-04-25T07:59:18.776Z</time></trkpt><trkpt lat="38.0035563" lon="15.761732"><ele>479.0</ele><time>2026-04-25T07:59:20.772Z</time></trkpt><trkpt lat="38.0034854" lon="15.7617596"><ele>479.0</ele><time>2026-04-25T07:59:22.775Z</time></trkpt><trkpt lat="38.0034124" lon="15.7617888"><ele>479.0</ele><time>2026-04-25T07:59:24.774Z</time></trkpt><trkpt lat="38.0033448" lon="15.7618143"><ele>479.0</ele><time>2026-04-25T07:59:26.79Z</time></trkpt><trkpt lat="38.0034407" lon="15.7618237"><ele>479.0</ele><time>2026-04-25T07:59:45.774Z</time></trkpt><trkpt lat="38.0035766" lon="15.7618235"><ele>479.0</ele><time>2026-04-25T07:59:47.783Z</time></trkpt><trkpt lat="38.0036712" lon="15.761858"><ele>479.0</ele><time>2026-04-25T07:59:48.772Z</time></trkpt><trkpt lat="38.003769" lon="15.7619003"><ele>479.0</ele><time>2026-04-25T07:59:49.817Z</time></trkpt><trkpt lat="38.0038571" lon="15.7619463"><ele>479.0</ele><time>2026-04-25T07:59:50.784Z</time></trkpt><trkpt lat="38.0039369" lon="15.7619888"><ele>479.0</ele><time>2026-04-25T07:59:51.776Z</time></trkpt><trkpt lat="38.0040135" lon="15.7620186"><ele>478.8333333333333</ele><time>2026-04-25T07:59:52.784Z</time></trkpt><trkpt lat="38.0040903" lon="15.7620502"><ele>478.66666666666663</ele><time>2026-04-25T07:59:53.798Z</time></trkpt><trkpt lat="38.0041739" lon="15.7620853"><ele>478.5</ele><time>2026-04-25T07:59:54.778Z</time></trkpt><trkpt lat="38.0042629" lon="15.7621112"><ele>478.33333333333337</ele><time>2026-04-25T07:59:55.79Z</time></trkpt><trkpt lat="38.0043449" lon="15.7621188"><ele>478.1666666666667</ele><time>2026-04-25T07:59:56.792Z</time></trkpt><trkpt lat="38.0044295" lon="15.7621159"><ele>478.0</ele><time>2026-04-25T07:59:57.785Z</time></trkpt><trkpt lat="38.0045119" lon="15.7621362"><ele>479.4</ele><time>2026-04-25T07:59:58.776Z</time></trkpt><trkpt lat="38.0045911" lon="15.7621856"><ele>480.79999999999995</ele><time>2026-04-25T07:59:59.793Z</time></trkpt><trkpt lat="38.0046675" lon="15.7622525"><ele>482.2</ele><time>2026-04-25T08:00:00.78Z</time></trkpt><trkpt lat="38.0047523" lon="15.7623193"><ele>483.6</ele><time>2026-04-25T08:00:01.783Z</time></trkpt><trkpt lat="38.0048365" lon="15.7623764"><ele>485.0</ele><time>2026-04-25T08:00:02.786Z</time></trkpt><trkpt lat="38.0049179" lon="15.7624154"><ele>486.6</ele><time>2026-04-25T08:00:03.786Z</time></trkpt><trkpt lat="38.0050011" lon="15.762436"><ele>488.2</ele><time>2026-04-25T08:00:04.775Z</time></trkpt><trkpt lat="38.0050885" lon="15.7624598"><ele>489.79999999999995</ele><time>2026-04-25T08:00:05.779Z</time></trkpt><trkpt lat="38.0051901" lon="15.7624984"><ele>491.4</ele><time>2026-04-25T08:00:06.788Z</time></trkpt><trkpt lat="38.0053021" lon="15.7625371"><ele>493.0</ele><time>2026-04-25T08:00:07.785Z</time></trkpt><trkpt lat="38.0054012" lon="15.7625848"><ele>493.0</ele><time>2026-04-25T08:00:08.776Z</time></trkpt><trkpt lat="38.0054932" lon="15.7626393"><ele>493.0</ele><time>2026-04-25T08:00:09.783Z</time></trkpt><trkpt lat="38.0055862" lon="15.7627095"><ele>493.0</ele><time>2026-04-25T08:00:10.798Z</time></trkpt><trkpt lat="38.0056875" lon="15.7627844"><ele>493.0</ele><time>2026-04-25T08:00:11.805Z</time></trkpt><trkpt lat="38.0057951" lon="15.7628626"><ele>495.25</ele><time>2026-04-25T08:00:12.795Z</time></trkpt><trkpt lat="38.0059007" lon="15.7629394"><ele>497.5</ele><time>2026-04-25T08:00:13.787Z</time></trkpt><trkpt lat="38.0060058" lon="15.7630156"><ele>499.75</ele><time>2026-04-25T08:00:14.788Z</time></trkpt><trkpt lat="38.0061117" lon="15.7630826"><ele>502.0</ele><time>2026-04-25T08:00:15.79Z</time></trkpt><trkpt lat="38.0062028" lon="15.7631456"><ele>502.00000000000006</ele><time>2026-04-25T08:00:16.793Z</time></trkpt><trkpt lat="38.006288" lon="15.7632128"><ele>502.0</ele><time>2026-04-25T08:00:17.8Z</time></trkpt><trkpt lat="38.0063641" lon="15.7632857"><ele>502.0</ele><time>2026-04-25T08:00:18.789Z</time></trkpt><trkpt lat="38.0064331" lon="15.763346"><ele>502.0</ele><time>2026-04-25T08:00:19.782Z</time></trkpt><trkpt lat="38.006501" lon="15.7633992"><ele>502.00000000000006</ele><time>2026-04-25T08:00:20.696Z</time></trkpt><trkpt lat="38.0065749" lon="15.7634487"><ele>502.0</ele><time>2026-04-25T08:00:21.683Z</time></trkpt><trkpt lat="38.0066656" lon="15.7634896"><ele>504.83333333333337</ele><time>2026-04-25T08:00:22.794Z</time></trkpt><trkpt lat="38.0067582" lon="15.7635339"><ele>507.6666666666667</ele><time>2026-04-25T08:00:23.778Z</time></trkpt><trkpt lat="38.0068457" lon="15.7635776"><ele>510.5</ele><time>2026-04-25T08:00:24.781Z</time></trkpt><trkpt lat="38.0069309" lon="15.7636157"><ele>513.3333333333334</ele><time>2026-04-25T08:00:25.78Z</time></trkpt><trkpt lat="38.0070025" lon="15.7636533"><ele>516.1666666666666</ele><time>2026-04-25T08:00:26.784Z</time></trkpt><trkpt lat="38.0070606" lon="15.7637134"><ele>519.0</ele><time>2026-04-25T08:00:27.688Z</time></trkpt><trkpt lat="38.0071217" lon="15.7637986"><ele>519.0</ele><time>2026-04-25T08:00:28.697Z</time></trkpt><trkpt lat="38.0071943" lon="15.7638998"><ele>519.0</ele><time>2026-04-25T08:00:29.705Z</time></trkpt><trkpt lat="38.0072731" lon="15.7640193"><ele>519.0</ele><time>2026-04-25T08:00:30.782Z</time></trkpt><trkpt lat="38.0073694" lon="15.7641486"><ele>519.0</ele><time>2026-04-25T08:00:31.802Z</time></trkpt><trkpt lat="38.0074804" lon="15.7642777"><ele>522.3333333333334</ele><time>2026-04-25T08:00:32.789Z</time></trkpt><trkpt lat="38.0075989" lon="15.764407"><ele>525.6666666666667</ele><time>2026-04-25T08:00:33.715Z</time></trkpt><trkpt lat="38.0077119" lon="15.7645334"><ele>529.0</ele><time>2026-04-25T08:00:34.706Z</time></trkpt><trkpt lat="38.0078268" lon="15.7646601"><ele>529.0</ele><time>2026-04-25T08:00:35.698Z</time></trkpt><trkpt lat="38.0079428" lon="15.7647857"><ele>529.0</ele><time>2026-04-25T08:00:36.696Z</time></trkpt><trkpt lat="38.0080589" lon="15.7649049"><ele>529.0</ele><time>2026-04-25T08:00:37.708Z</time></trkpt><trkpt lat="38.0081734" lon="15.7650231"><ele>529.0</ele><time>2026-04-25T08:00:38.798Z</time></trkpt><trkpt lat="38.0082861" lon="15.7651422"><ele>530.75</ele><time>2026-04-25T08:00:39.795Z</time></trkpt><trkpt lat="38.0083904" lon="15.7652524"><ele>532.5</ele><time>2026-04-25T08:00:40.696Z</time></trkpt><trkpt lat="38.0084854" lon="15.7653545"><ele>534.25</ele><time>2026-04-25T08:00:41.69Z</time></trkpt><trkpt lat="38.008575" lon="15.7654421"><ele>536.0</ele><time>2026-04-25T08:00:42.696Z</time></trkpt><trkpt lat="38.0086717" lon="15.7655202"><ele>536.0</ele><time>2026-04-25T08:00:43.689Z</time></trkpt><trkpt lat="38.0087573" lon="15.7655987"><ele>536.0</ele><time>2026-04-25T08:00:44.688Z</time></trkpt><trkpt lat="38.0088314" lon="15.765678"><ele>536.0</ele><time>2026-04-25T08:00:45.71Z</time></trkpt><trkpt lat="38.0089001" lon="15.7657559"><ele>536.0</ele><time>2026-04-25T08:00:46.686Z</time></trkpt><trkpt lat="38.008971" lon="15.7658396"><ele>536.0</ele><time>2026-04-25T08:00:47.705Z</time></trkpt><trkpt lat="38.0090511" lon="15.7659257"><ele>536.0</ele><time>2026-04-25T08:00:48.694Z</time></trkpt><trkpt lat="38.0091403" lon="15.7660101"><ele>536.0</ele><time>2026-04-25T08:00:49.682Z</time></trkpt><trkpt lat="38.0092348" lon="15.7661054"><ele>536.0</ele><time>2026-04-25T08:00:50.686Z</time></trkpt><trkpt lat="38.0093348" lon="15.7662087"><ele>536.0</ele><time>2026-04-25T08:00:51.687Z</time></trkpt><trkpt lat="38.0094361" lon="15.7663203"><ele>538.25</ele><time>2026-04-25T08:00:52.695Z</time></trkpt><trkpt lat="38.009539" lon="15.7664351"><ele>540.5</ele><time>2026-04-25T08:00:53.687Z</time></trkpt><trkpt lat="38.0096468" lon="15.7665383"><ele>542.75</ele><time>2026-04-25T08:00:54.706Z</time></trkpt><trkpt lat="38.0097579" lon="15.7666412"><ele>545.0</ele><time>2026-04-25T08:00:55.704Z</time></trkpt><trkpt lat="38.0098663" lon="15.7667376"><ele>545.0</ele><time>2026-04-25T08:00:56.696Z</time></trkpt><trkpt lat="38.0099657" lon="15.7668314"><ele>545.0</ele><time>2026-04-25T08:00:57.696Z</time></trkpt><trkpt lat="38.0100598" lon="15.7669174"><ele>545.0</ele><time>2026-04-25T08:00:58.695Z</time></trkpt><trkpt lat="38.0101536" lon="15.767001"><ele>545.0</ele><time>2026-04-25T08:00:59.702Z</time></trkpt><trkpt lat="38.0102481" lon="15.7670923"><ele>548.5</ele><time>2026-04-25T08:01:00.709Z</time></trkpt><trkpt lat="38.01034" lon="15.7671999"><ele>552.0</ele><time>2026-04-25T08:01:01.7Z</time></trkpt><trkpt lat="38.0104372" lon="15.7673193"><ele>555.5</ele><time>2026-04-25T08:01:02.7Z</time></trkpt><trkpt lat="38.0105384" lon="15.7674407"><ele>559.0</ele><time>2026-04-25T08:01:03.687Z</time></trkpt><trkpt lat="38.0106412" lon="15.7675652"><ele>559.0</ele><time>2026-04-25T08:01:04.696Z</time></trkpt><trkpt lat="38.0107532" lon="15.7676912"><ele>559.0</ele><time>2026-04-25T08:01:05.698Z</time></trkpt><trkpt lat="38.0108697" lon="15.767823"><ele>559.0</ele><time>2026-04-25T08:01:06.68Z</time></trkpt><trkpt lat="38.0109706" lon="15.7679424"><ele>559.0</ele><time>2026-04-25T08:01:07.694Z</time></trkpt><trkpt lat="38.0110702" lon="15.7680538"><ele>561.0</ele><time>2026-04-25T08:01:08.698Z</time></trkpt><trkpt lat="38.0111773" lon="15.7681714"><ele>563.0</ele><time>2026-04-25T08:01:09.685Z</time></trkpt><trkpt lat="38.0112953" lon="15.7682854"><ele>565.0</ele><time>2026-04-25T08:01:10.695Z</time></trkpt><trkpt lat="38.01142" lon="15.768403"><ele>567.0</ele><time>2026-04-25T08:01:11.69Z</time></trkpt><trkpt lat="38.0115507" lon="15.7685175"><ele>570.75</ele><time>2026-04-25T08:01:12.691Z</time></trkpt><trkpt lat="38.0116804" lon="15.7686169"><ele>574.5</ele><time>2026-04-25T08:01:13.688Z</time></trkpt><trkpt lat="38.0118105" lon="15.7687092"><ele>578.25</ele><time>2026-04-25T08:01:14.72Z</time></trkpt><trkpt lat="38.011941" lon="15.7687941"><ele>582.0</ele><time>2026-04-25T08:01:15.695Z</time></trkpt><trkpt lat="38.012074" lon="15.7688692"><ele>582.0</ele><time>2026-04-25T08:01:16.706Z</time></trkpt><trkpt lat="38.0122006" lon="15.7689406"><ele>582.0</ele><time>2026-04-25T08:01:17.703Z</time></trkpt><trkpt lat="38.012309" lon="15.7690005"><ele>582.0</ele><time>2026-04-25T08:01:18.711Z</time></trkpt><trkpt lat="38.0124149" lon="15.7690373"><ele>582.0</ele><time>2026-04-25T08:01:19.693Z</time></trkpt><trkpt lat="38.0125374" lon="15.7690638"><ele>581.0</ele><time>2026-04-25T08:01:20.688Z</time></trkpt><trkpt lat="38.0126638" lon="15.7690795"><ele>580.0</ele><time>2026-04-25T08:01:21.706Z</time></trkpt><trkpt lat="38.012806" lon="15.7691039"><ele>579.0</ele><time>2026-04-25T08:01:22.695Z</time></trkpt><trkpt lat="38.012948" lon="15.7691248"><ele>578.0</ele><time>2026-04-25T08:01:23.698Z</time></trkpt><trkpt lat="38.0130863" lon="15.769136"><ele>578.0</ele><time>2026-04-25T08:01:24.692Z</time></trkpt><trkpt lat="38.0132264" lon="15.769136"><ele>578.0</ele><time>2026-04-25T08:01:25.7Z</time></trkpt><trkpt lat="38.0133559" lon="15.7691282"><ele>578.0</ele><time>2026-04-25T08:01:26.701Z</time></trkpt><trkpt lat="38.0134687" lon="15.7691131"><ele>578.0</ele><time>2026-04-25T08:01:27.692Z</time></trkpt><trkpt lat="38.0135706" lon="15.7690901"><ele>579.3333333333333</ele><time>2026-04-25T08:01:28.693Z</time></trkpt><trkpt lat="38.0136652" lon="15.7690702"><ele>580.6666666666666</ele><time>2026-04-25T08:01:29.727Z</time></trkpt><trkpt lat="38.0137516" lon="15.7690572"><ele>582.0</ele><time>2026-04-25T08:01:30.692Z</time></trkpt><trkpt lat="38.013819" lon="15.7690542"><ele>583.3333333333334</ele><time>2026-04-25T08:01:31.702Z</time></trkpt><trkpt lat="38.0138791" lon="15.7690831"><ele>584.6666666666667</ele><time>2026-04-25T08:01:33.693Z</time></trkpt><trkpt lat="38.0139096" lon="15.769173"><ele>586.0</ele><time>2026-04-25T08:01:35.696Z</time></trkpt><trkpt lat="38.0139433" lon="15.7693014"><ele>586.25</ele><time>2026-04-25T08:01:37.706Z</time></trkpt><trkpt lat="38.0139609" lon="15.7694583"><ele>586.5</ele><time>2026-04-25T08:01:39.716Z</time></trkpt><trkpt lat="38.0139604" lon="15.7696522"><ele>586.75</ele><time>2026-04-25T08:01:41.704Z</time></trkpt><trkpt lat="38.0139644" lon="15.769762"><ele>587.0</ele><time>2026-04-25T08:01:42.7Z</time></trkpt><trkpt lat="38.013966" lon="15.7698713"><ele>587.0</ele><time>2026-04-25T08:01:43.707Z</time></trkpt><trkpt lat="38.013961" lon="15.7699894"><ele>587.0</ele><time>2026-04-25T08:01:44.696Z</time></trkpt><trkpt lat="38.0139485" lon="15.7701034"><ele>587.0</ele><time>2026-04-25T08:01:45.715Z</time></trkpt><trkpt lat="38.0139245" lon="15.7702128"><ele>587.0</ele><time>2026-04-25T08:01:46.695Z</time></trkpt><trkpt lat="38.0138928" lon="15.7703162"><ele>587.0</ele><time>2026-04-25T08:01:47.694Z</time></trkpt><trkpt lat="38.0138563" lon="15.7704237"><ele>590.2</ele><time>2026-04-25T08:01:48.703Z</time></trkpt><trkpt lat="38.0138168" lon="15.7705383"><ele>593.4000000000001</ele><time>2026-04-25T08:01:49.695Z</time></trkpt><trkpt lat="38.0137773" lon="15.7706705"><ele>596.5999999999999</ele><time>2026-04-25T08:01:50.71Z</time></trkpt><trkpt lat="38.013747" lon="15.770805"><ele>599.8</ele><time>2026-04-25T08:01:51.707Z</time></trkpt><trkpt lat="38.013729" lon="15.7709407"><ele>603.0</ele><time>2026-04-25T08:01:52.707Z</time></trkpt><trkpt lat="38.0137259" lon="15.7710774"><ele>606.25</ele><time>2026-04-25T08:01:53.705Z</time></trkpt><trkpt lat="38.0137317" lon="15.7712218"><ele>609.5</ele><time>2026-04-25T08:01:54.706Z</time></trkpt><trkpt lat="38.0137381" lon="15.7713695"><ele>612.75</ele><time>2026-04-25T08:01:55.726Z</time></trkpt><trkpt lat="38.0137491" lon="15.7715139"><ele>616.0</ele><time>2026-04-25T08:01:56.723Z</time></trkpt><trkpt lat="38.0137699" lon="15.7716606"><ele>616.0</ele><time>2026-04-25T08:01:57.714Z</time></trkpt><trkpt lat="38.013795" lon="15.7718121"><ele>616.0</ele><time>2026-04-25T08:01:58.694Z</time></trkpt><trkpt lat="38.0138309" lon="15.7719719"><ele>616.0</ele><time>2026-04-25T08:01:59.725Z</time></trkpt><trkpt lat="38.0138799" lon="15.7721451"><ele>616.0</ele><time>2026-04-25T08:02:00.698Z</time></trkpt><trkpt lat="38.0139325" lon="15.7723067"><ele>614.75</ele><time>2026-04-25T08:02:01.702Z</time></trkpt><trkpt lat="38.0139923" lon="15.7724398"><ele>613.5</ele><time>2026-04-25T08:02:02.705Z</time></trkpt><trkpt lat="38.0140645" lon="15.7725624"><ele>612.25</ele><time>2026-04-25T08:02:03.717Z</time></trkpt><trkpt lat="38.0141661" lon="15.7726916"><ele>611.0</ele><time>2026-04-25T08:02:04.701Z</time></trkpt><trkpt lat="38.0142932" lon="15.7728242"><ele>611.0</ele><time>2026-04-25T08:02:05.695Z</time></trkpt><trkpt lat="38.0144232" lon="15.7729711"><ele>611.0</ele><time>2026-04-25T08:02:06.703Z</time></trkpt><trkpt lat="38.0145494" lon="15.7731101"><ele>611.0</ele><time>2026-04-25T08:02:07.709Z</time></trkpt><trkpt lat="38.0146688" lon="15.773228"><ele>611.0</ele><time>2026-04-25T08:02:08.715Z</time></trkpt><trkpt lat="38.0149236" lon="15.7734646"><ele>611.0</ele><time>2026-04-25T08:02:10.746Z</time></trkpt><trkpt lat="38.0150448" lon="15.7735799"><ele>613.6666666666666</ele><time>2026-04-25T08:02:11.713Z</time></trkpt><trkpt lat="38.0152664" lon="15.7737441"><ele>616.3333333333334</ele><time>2026-04-25T08:02:13.7Z</time></trkpt><trkpt lat="38.0153671" lon="15.7737913"><ele>619.0</ele><time>2026-04-25T08:02:14.718Z</time></trkpt><trkpt lat="38.0155552" lon="15.7737835"><ele>619.0</ele><time>2026-04-25T08:02:16.709Z</time></trkpt><trkpt lat="38.0156529" lon="15.7737514"><ele>619.0</ele><time>2026-04-25T08:02:17.705Z</time></trkpt><trkpt lat="38.0158616" lon="15.7737202"><ele>619.0</ele><time>2026-04-25T08:02:19.703Z</time></trkpt><trkpt lat="38.0159831" lon="15.7737442"><ele>619.0</ele><time>2026-04-25T08:02:20.702Z</time></trkpt><trkpt lat="38.0161689" lon="15.7738393"><ele>619.8333333333334</ele><time>2026-04-25T08:02:22.711Z</time></trkpt><trkpt lat="38.0162146" lon="15.7739163"><ele>620.6666666666667</ele><time>2026-04-25T08:02:23.725Z</time></trkpt><trkpt lat="38.0162236" lon="15.7740117"><ele>621.5</ele><time>2026-04-25T08:02:24.736Z</time></trkpt><trkpt lat="38.0162085" lon="15.7741115"><ele>622.3333333333334</ele><time>2026-04-25T08:02:25.699Z</time></trkpt><trkpt lat="38.0161777" lon="15.7742094"><ele>623.1666666666666</ele><time>2026-04-25T08:02:26.701Z</time></trkpt><trkpt lat="38.0161338" lon="15.7743111"><ele>624.0</ele><time>2026-04-25T08:02:27.719Z</time></trkpt><trkpt lat="38.0160873" lon="15.7744285"><ele>627.0</ele><time>2026-04-25T08:02:28.704Z</time></trkpt><trkpt lat="38.0160416" lon="15.774553"><ele>630.0</ele><time>2026-04-25T08:02:29.717Z</time></trkpt><trkpt lat="38.0159934" lon="15.7746902"><ele>633.0</ele><time>2026-04-25T08:02:30.706Z</time></trkpt><trkpt lat="38.0159446" lon="15.7748276"><ele>636.0</ele><time>2026-04-25T08:02:31.708Z</time></trkpt><trkpt lat="38.0158943" lon="15.7749516"><ele>636.0</ele><time>2026-04-25T08:02:32.703Z</time></trkpt><trkpt lat="38.0158493" lon="15.7750566"><ele>636.0</ele><time>2026-04-25T08:02:33.704Z</time></trkpt><trkpt lat="38.0157866" lon="15.7751465"><ele>636.0</ele><time>2026-04-25T08:02:34.701Z</time></trkpt><trkpt lat="38.0157164" lon="15.775198"><ele>636.0</ele><time>2026-04-25T08:02:35.701Z</time></trkpt><trkpt lat="38.0156423" lon="15.7752229"><ele>636.0</ele><time>2026-04-25T08:02:36.718Z</time></trkpt><trkpt lat="38.0155601" lon="15.7752281"><ele>636.0</ele><time>2026-04-25T08:02:37.722Z</time></trkpt><trkpt lat="38.0154777" lon="15.7752265"><ele>637.6666666666666</ele><time>2026-04-25T08:02:38.719Z</time></trkpt><trkpt lat="38.0153922" lon="15.7752255"><ele>639.3333333333334</ele><time>2026-04-25T08:02:39.736Z</time></trkpt><trkpt lat="38.0153059" lon="15.7752257"><ele>641.0</ele><time>2026-04-25T08:02:40.709Z</time></trkpt><trkpt lat="38.0152231" lon="15.7752236"><ele>642.6666666666667</ele><time>2026-04-25T08:02:41.718Z</time></trkpt><trkpt lat="38.0151343" lon="15.7752267"><ele>644.3333333333334</ele><time>2026-04-25T08:02:42.713Z</time></trkpt><trkpt lat="38.0150308" lon="15.7752502"><ele>646.0</ele><time>2026-04-25T08:02:43.718Z</time></trkpt><trkpt lat="38.0149394" lon="15.7752868"><ele>646.0</ele><time>2026-04-25T08:02:44.729Z</time></trkpt><trkpt lat="38.0148578" lon="15.775313"><ele>646.0</ele><time>2026-04-25T08:02:45.71Z</time></trkpt><trkpt lat="38.0147843" lon="15.7753312"><ele>646.0</ele><time>2026-04-25T08:02:46.717Z</time></trkpt><trkpt lat="38.0147149" lon="15.7753428"><ele>646.0</ele><time>2026-04-25T08:02:47.736Z</time></trkpt><trkpt lat="38.014651" lon="15.7753539"><ele>646.0</ele><time>2026-04-25T08:02:48.716Z</time></trkpt><trkpt lat="38.0145625" lon="15.7753675"><ele>646.0</ele><time>2026-04-25T08:02:50.719Z</time></trkpt><trkpt lat="38.0145385" lon="15.775451"><ele>646.0</ele><time>2026-04-25T08:03:14.715Z</time></trkpt><trkpt lat="38.0145104" lon="15.7755655"><ele>646.0</ele><time>2026-04-25T08:03:16.729Z</time></trkpt><trkpt lat="38.0145048" lon="15.7756501"><ele>646.0</ele><time>2026-04-25T08:03:17.725Z</time></trkpt><trkpt lat="38.0145126" lon="15.7757424"><ele>646.0</ele><time>2026-04-25T08:03:18.72Z</time></trkpt><trkpt lat="38.0145159" lon="15.7758445"><ele>646.0</ele><time>2026-04-25T08:03:19.729Z</time></trkpt><trkpt lat="38.0144908" lon="15.775939"><ele>646.0</ele><time>2026-04-25T08:03:20.727Z</time></trkpt><trkpt lat="38.0144411" lon="15.7760048"><ele>646.8333333333334</ele><time>2026-04-25T08:03:21.732Z</time></trkpt><trkpt lat="38.0143714" lon="15.7760692"><ele>647.6666666666667</ele><time>2026-04-25T08:03:22.724Z</time></trkpt><trkpt lat="38.0143038" lon="15.7761198"><ele>648.5</ele><time>2026-04-25T08:03:23.726Z</time></trkpt><trkpt lat="38.0142122" lon="15.7762218"><ele>649.3333333333334</ele><time>2026-04-25T08:03:25.721Z</time></trkpt><trkpt lat="38.0141803" lon="15.7762923"><ele>650.1666666666666</ele><time>2026-04-25T08:03:26.728Z</time></trkpt><trkpt lat="38.0141387" lon="15.7763737"><ele>651.0</ele><time>2026-04-25T08:03:27.733Z</time></trkpt><trkpt lat="38.0140804" lon="15.776443"><ele>651.0</ele><time>2026-04-25T08:03:28.722Z</time></trkpt><trkpt lat="38.0140052" lon="15.7765021"><ele>651.0</ele><time>2026-04-25T08:03:29.716Z</time></trkpt><trkpt lat="38.0139243" lon="15.7765575"><ele>651.0</ele><time>2026-04-25T08:03:30.721Z</time></trkpt><trkpt lat="38.0138547" lon="15.7766128"><ele>651.0</ele><time>2026-04-25T08:03:31.728Z</time></trkpt><trkpt lat="38.0138008" lon="15.7766774"><ele>651.0</ele><time>2026-04-25T08:03:32.727Z</time></trkpt><trkpt lat="38.013769" lon="15.7767705"><ele>651.0</ele><time>2026-04-25T08:03:33.721Z</time></trkpt><trkpt lat="38.0137359" lon="15.7768786"><ele>653.1999999999999</ele><time>2026-04-25T08:03:34.734Z</time></trkpt><trkpt lat="38.0136964" lon="15.7770022"><ele>655.4</ele><time>2026-04-25T08:03:35.726Z</time></trkpt><trkpt lat="38.0136532" lon="15.7771159"><ele>657.6</ele><time>2026-04-25T08:03:36.732Z</time></trkpt><trkpt lat="38.0136186" lon="15.7772289"><ele>659.8</ele><time>2026-04-25T08:03:37.763Z</time></trkpt><trkpt lat="38.0135851" lon="15.7773447"><ele>662.0</ele><time>2026-04-25T08:03:38.726Z</time></trkpt><trkpt lat="38.0135637" lon="15.7774531"><ele>662.0</ele><time>2026-04-25T08:03:39.752Z</time></trkpt><trkpt lat="38.0135527" lon="15.7775647"><ele>662.0</ele><time>2026-04-25T08:03:40.725Z</time></trkpt><trkpt lat="38.013549" lon="15.777685"><ele>662.0</ele><time>2026-04-25T08:03:41.745Z</time></trkpt><trkpt lat="38.013542" lon="15.7778197"><ele>662.0</ele><time>2026-04-25T08:03:42.735Z</time></trkpt><trkpt lat="38.0135348" lon="15.7779564"><ele>662.0</ele><time>2026-04-25T08:03:43.727Z</time></trkpt><trkpt lat="38.0135233" lon="15.7780961"><ele>664.2</ele><time>2026-04-25T08:03:44.728Z</time></trkpt><trkpt lat="38.013501" lon="15.7782188"><ele>666.4000000000001</ele><time>2026-04-25T08:03:45.725Z</time></trkpt><trkpt lat="38.0134727" lon="15.7783338"><ele>668.5999999999999</ele><time>2026-04-25T08:03:46.724Z</time></trkpt><trkpt lat="38.0134461" lon="15.7784109"><ele>670.8</ele><time>2026-04-25T08:03:47.736Z</time></trkpt><trkpt lat="38.0133642" lon="15.7784341"><ele>673.0</ele><time>2026-04-25T08:03:49.722Z</time></trkpt><trkpt lat="38.0132367" lon="15.7783748"><ele>674.8333333333334</ele><time>2026-04-25T08:03:51.749Z</time></trkpt><trkpt lat="38.0131557" lon="15.7783293"><ele>676.6666666666667</ele><time>2026-04-25T08:03:52.735Z</time></trkpt><trkpt lat="38.0130752" lon="15.7782763"><ele>678.5</ele><time>2026-04-25T08:03:53.726Z</time></trkpt><trkpt lat="38.0129979" lon="15.7782369"><ele>680.3333333333334</ele><time>2026-04-25T08:03:54.727Z</time></trkpt><trkpt lat="38.0129294" lon="15.7782204"><ele>682.1666666666666</ele><time>2026-04-25T08:03:55.74Z</time></trkpt><trkpt lat="38.0128636" lon="15.7782081"><ele>684.0</ele><time>2026-04-25T08:03:56.724Z</time></trkpt><trkpt lat="38.0127811" lon="15.7781627"><ele>684.0</ele><time>2026-04-25T08:03:58.724Z</time></trkpt><trkpt lat="38.0127322" lon="15.7780736"><ele>684.0</ele><time>2026-04-25T08:04:00.724Z</time></trkpt><trkpt lat="38.0126969" lon="15.7779686"><ele>684.0</ele><time>2026-04-25T08:04:53.738Z</time></trkpt><trkpt lat="38.0126602" lon="15.77785"><ele>684.0</ele><time>2026-04-25T08:04:55.753Z</time></trkpt><trkpt lat="38.0126424" lon="15.777713"><ele>684.0</ele><time>2026-04-25T08:04:57.738Z</time></trkpt><trkpt lat="38.0126145" lon="15.7776147"><ele>684.0</ele><time>2026-04-25T08:04:59.737Z</time></trkpt><trkpt lat="38.0125472" lon="15.777508"><ele>684.0</ele><time>2026-04-25T08:05:01.752Z</time></trkpt><trkpt lat="38.0124407" lon="15.7774181"><ele>684.0</ele><time>2026-04-25T08:05:03.742Z</time></trkpt><trkpt lat="38.0123802" lon="15.7773696"><ele>684.0</ele><time>2026-04-25T08:05:04.744Z</time></trkpt><trkpt lat="38.0123188" lon="15.7773207"><ele>684.0</ele><time>2026-04-25T08:05:05.737Z</time></trkpt><trkpt lat="38.0122628" lon="15.7772635"><ele>684.0</ele><time>2026-04-25T08:05:06.757Z</time></trkpt><trkpt lat="38.0122082" lon="15.7772103"><ele>684.0</ele><time>2026-04-25T08:05:07.735Z</time></trkpt><trkpt lat="38.0120978" lon="15.7771694"><ele>684.0</ele><time>2026-04-25T08:05:09.769Z</time></trkpt><trkpt lat="38.0120304" lon="15.7771739"><ele>684.0</ele><time>2026-04-25T08:05:10.742Z</time></trkpt><trkpt lat="38.0119582" lon="15.7771807"><ele>684.0</ele><time>2026-04-25T08:05:11.765Z</time></trkpt><trkpt lat="38.0118672" lon="15.7772525"><ele>684.0</ele><time>2026-04-25T08:05:13.746Z</time></trkpt><trkpt lat="38.0118307" lon="15.777335"><ele>684.0</ele><time>2026-04-25T08:05:14.753Z</time></trkpt><trkpt lat="38.0117883" lon="15.7774315"><ele>684.0</ele><time>2026-04-25T08:05:15.761Z</time></trkpt><trkpt lat="38.0117357" lon="15.7775159"><ele>684.0</ele><time>2026-04-25T08:05:16.74Z</time></trkpt><trkpt lat="38.0116944" lon="15.7775873"><ele>684.0</ele><time>2026-04-25T08:05:17.758Z</time></trkpt><trkpt lat="38.0116917" lon="15.7777415"><ele>684.0</ele><time>2026-04-25T08:05:19.749Z</time></trkpt><trkpt lat="38.0117216" lon="15.7778215"><ele>684.0</ele><time>2026-04-25T08:05:20.744Z</time></trkpt><trkpt lat="38.011769" lon="15.7779091"><ele>683.3333333333334</ele><time>2026-04-25T08:05:21.737Z</time></trkpt><trkpt lat="38.0118305" lon="15.7779981"><ele>682.6666666666666</ele><time>2026-04-25T08:05:22.746Z</time></trkpt><trkpt lat="38.0118966" lon="15.7780732"><ele>682.0</ele><time>2026-04-25T08:05:23.746Z</time></trkpt><trkpt lat="38.0119628" lon="15.77813"><ele>681.3333333333333</ele><time>2026-04-25T08:05:24.753Z</time></trkpt><trkpt lat="38.0120289" lon="15.7781665"><ele>680.6666666666666</ele><time>2026-04-25T08:05:25.761Z</time></trkpt><trkpt lat="38.0121" lon="15.7781916"><ele>680.0</ele><time>2026-04-25T08:05:26.762Z</time></trkpt><trkpt lat="38.0121795" lon="15.7782219"><ele>680.0</ele><time>2026-04-25T08:05:27.763Z</time></trkpt><trkpt lat="38.0122516" lon="15.7782703"><ele>680.0</ele><time>2026-04-25T08:05:28.745Z</time></trkpt><trkpt lat="38.0123024" lon="15.7783411"><ele>680.0</ele><time>2026-04-25T08:05:29.762Z</time></trkpt><trkpt lat="38.0123451" lon="15.7784296"><ele>680.0</ele><time>2026-04-25T08:05:30.762Z</time></trkpt><trkpt lat="38.0123811" lon="15.7785203"><ele>680.0</ele><time>2026-04-25T08:05:31.775Z</time></trkpt><trkpt lat="38.0124159" lon="15.7786062"><ele>680.0</ele><time>2026-04-25T08:05:32.741Z</time></trkpt><trkpt lat="38.0124457" lon="15.7787259"><ele>678.3333333333333</ele><time>2026-04-25T08:05:34.753Z</time></trkpt><trkpt lat="38.0124629" lon="15.7788071"><ele>676.6666666666666</ele><time>2026-04-25T08:07:13.744Z</time></trkpt><trkpt lat="38.0124924" lon="15.7789415"><ele>675.0</ele><time>2026-04-25T08:07:15.76Z</time></trkpt><trkpt lat="38.0125195" lon="15.7790281"><ele>673.3333333333334</ele><time>2026-04-25T08:07:16.75Z</time></trkpt><trkpt lat="38.0125425" lon="15.7791325"><ele>671.6666666666667</ele><time>2026-04-25T08:07:17.782Z</time></trkpt><trkpt lat="38.012555" lon="15.7792532"><ele>670.0</ele><time>2026-04-25T08:07:18.755Z</time></trkpt><trkpt lat="38.0125607" lon="15.7793869"><ele>676.4</ele><time>2026-04-25T08:07:19.76Z</time></trkpt><trkpt lat="38.0125602" lon="15.7795209"><ele>682.8</ele><time>2026-04-25T08:07:20.758Z</time></trkpt><trkpt lat="38.0125466" lon="15.779655"><ele>689.2</ele><time>2026-04-25T08:07:21.752Z</time></trkpt><trkpt lat="38.0125245" lon="15.7797916"><ele>695.6</ele><time>2026-04-25T08:07:22.753Z</time></trkpt><trkpt lat="38.012506" lon="15.7799173"><ele>702.0</ele><time>2026-04-25T08:07:23.757Z</time></trkpt><trkpt lat="38.0124957" lon="15.7800302"><ele>696.8</ele><time>2026-04-25T08:07:24.762Z</time></trkpt><trkpt lat="38.0124818" lon="15.7801463"><ele>691.6</ele><time>2026-04-25T08:07:25.753Z</time></trkpt><trkpt lat="38.0124694" lon="15.7802682"><ele>686.4</ele><time>2026-04-25T08:07:26.751Z</time></trkpt><trkpt lat="38.0124654" lon="15.7803961"><ele>681.1999999999999</ele><time>2026-04-25T08:07:27.756Z</time></trkpt><trkpt lat="38.0124586" lon="15.7805246"><ele>676.0</ele><time>2026-04-25T08:07:28.759Z</time></trkpt><trkpt lat="38.0124377" lon="15.7806536"><ele>676.0</ele><time>2026-04-25T08:07:29.762Z</time></trkpt><trkpt lat="38.012412" lon="15.7807855"><ele>676.0</ele><time>2026-04-25T08:07:30.757Z</time></trkpt><trkpt lat="38.0124041" lon="15.7809157"><ele>676.0</ele><time>2026-04-25T08:07:31.774Z</time></trkpt><trkpt lat="38.0123988" lon="15.7810487"><ele>676.0</ele><time>2026-04-25T08:07:32.761Z</time></trkpt><trkpt lat="38.0123833" lon="15.7811849"><ele>676.0</ele><time>2026-04-25T08:07:33.761Z</time></trkpt><trkpt lat="38.0123644" lon="15.7813029"><ele>679.0</ele><time>2026-04-25T08:07:34.764Z</time></trkpt><trkpt lat="38.01234" lon="15.7813963"><ele>682.0</ele><time>2026-04-25T08:07:35.768Z</time></trkpt><trkpt lat="38.0123115" lon="15.7815293"><ele>685.0</ele><time>2026-04-25T08:07:37.758Z</time></trkpt><trkpt lat="38.0123266" lon="15.7816168"><ele>688.0</ele><time>2026-04-25T08:07:39.767Z</time></trkpt><trkpt lat="38.0123636" lon="15.7817058"><ele>691.0</ele><time>2026-04-25T08:07:41.766Z</time></trkpt><trkpt lat="38.0123967" lon="15.7818298"><ele>694.0</ele><time>2026-04-25T08:07:43.751Z</time></trkpt><trkpt lat="38.0124084" lon="15.7819722"><ele>696.5714285714286</ele><time>2026-04-25T08:07:45.772Z</time></trkpt><trkpt lat="38.0124036" lon="15.7820582"><ele>699.1428571428571</ele><time>2026-04-25T08:07:46.765Z</time></trkpt><trkpt lat="38.0123971" lon="15.7821482"><ele>701.7142857142857</ele><time>2026-04-25T08:07:47.765Z</time></trkpt><trkpt lat="38.012383" lon="15.7822385"><ele>704.2857142857142</ele><time>2026-04-25T08:07:48.752Z</time></trkpt><trkpt lat="38.0123584" lon="15.7823332"><ele>706.8571428571429</ele><time>2026-04-25T08:07:49.744Z</time></trkpt><trkpt lat="38.012338" lon="15.7824251"><ele>709.4285714285713</ele><time>2026-04-25T08:07:50.765Z</time></trkpt><trkpt lat="38.0123237" lon="15.7825181"><ele>712.0</ele><time>2026-04-25T08:07:51.774Z</time></trkpt><trkpt lat="38.0123093" lon="15.7826202"><ele>711.6</ele><time>2026-04-25T08:07:52.765Z</time></trkpt><trkpt lat="38.0122969" lon="15.7827221"><ele>711.2</ele><time>2026-04-25T08:07:53.774Z</time></trkpt><trkpt lat="38.0122739" lon="15.7828297"><ele>710.8</ele><time>2026-04-25T08:07:54.76Z</time></trkpt><trkpt lat="38.0122411" lon="15.7829514"><ele>710.4</ele><time>2026-04-25T08:07:55.758Z</time></trkpt><trkpt lat="38.0122047" lon="15.7830697"><ele>710.0</ele><time>2026-04-25T08:07:56.776Z</time></trkpt><trkpt lat="38.0121761" lon="15.7831839"><ele>710.0</ele><time>2026-04-25T08:07:57.763Z</time></trkpt><trkpt lat="38.0121527" lon="15.783302"><ele>710.0</ele><time>2026-04-25T08:07:58.76Z</time></trkpt><trkpt lat="38.0121289" lon="15.7834187"><ele>710.0</ele><time>2026-04-25T08:07:59.79Z</time></trkpt><trkpt lat="38.0120913" lon="15.7835356"><ele>710.0</ele><time>2026-04-25T08:08:00.774Z</time></trkpt><trkpt lat="38.0120424" lon="15.7836537"><ele>710.0</ele><time>2026-04-25T08:08:01.765Z</time></trkpt><trkpt lat="38.0120025" lon="15.7837628"><ele>708.6666666666666</ele><time>2026-04-25T08:08:02.772Z</time></trkpt><trkpt lat="38.0119631" lon="15.7838623"><ele>707.3333333333333</ele><time>2026-04-25T08:08:03.772Z</time></trkpt><trkpt lat="38.0119284" lon="15.7839535"><ele>706.0</ele><time>2026-04-25T08:08:04.758Z</time></trkpt><trkpt lat="38.0118933" lon="15.7840326"><ele>704.6666666666666</ele><time>2026-04-25T08:08:05.769Z</time></trkpt><trkpt lat="38.0118671" lon="15.7841061"><ele>703.3333333333334</ele><time>2026-04-25T08:08:06.764Z</time></trkpt><trkpt lat="38.0118653" lon="15.7842199"><ele>702.0</ele><time>2026-04-25T08:08:08.775Z</time></trkpt><trkpt lat="38.0119426" lon="15.784234"><ele>702.0</ele><time>2026-04-25T08:08:10.776Z</time></trkpt><trkpt lat="38.0120425" lon="15.7841116"><ele>702.0</ele><time>2026-04-25T08:08:12.772Z</time></trkpt><trkpt lat="38.0121051" lon="15.7840273"><ele>702.0</ele><time>2026-04-25T08:08:13.765Z</time></trkpt><trkpt lat="38.012168" lon="15.7839504"><ele>702.0</ele><time>2026-04-25T08:08:14.77Z</time></trkpt><trkpt lat="38.0122316" lon="15.7838891"><ele>702.0</ele><time>2026-04-25T08:08:15.768Z</time></trkpt><trkpt lat="38.012299" lon="15.7838304"><ele>702.0</ele><time>2026-04-25T08:08:16.773Z</time></trkpt><trkpt lat="38.0123675" lon="15.7837703"><ele>702.0</ele><time>2026-04-25T08:08:17.78Z</time></trkpt><trkpt lat="38.012422" lon="15.7837258"><ele>702.0</ele><time>2026-04-25T08:08:18.781Z</time></trkpt><trkpt lat="38.0125262" lon="15.7836875"><ele>702.0</ele><time>2026-04-25T08:08:20.768Z</time></trkpt><trkpt lat="38.012645" lon="15.7836993"><ele>702.0</ele><time>2026-04-25T08:08:22.777Z</time></trkpt><trkpt lat="38.0127246" lon="15.7837504"><ele>696.1666666666666</ele><time>2026-04-25T08:08:24.775Z</time></trkpt><trkpt lat="38.0127044" lon="15.7838689"><ele>690.3333333333334</ele><time>2026-04-25T08:08:26.766Z</time></trkpt><trkpt lat="38.0126643" lon="15.7839447"><ele>684.5</ele><time>2026-04-25T08:08:27.786Z</time></trkpt><trkpt lat="38.0126215" lon="15.7840326"><ele>678.6666666666667</ele><time>2026-04-25T08:08:28.784Z</time></trkpt><trkpt lat="38.0125816" lon="15.7841294"><ele>672.8333333333334</ele><time>2026-04-25T08:08:29.775Z</time></trkpt><trkpt lat="38.0125567" lon="15.7842204"><ele>667.0</ele><time>2026-04-25T08:08:30.781Z</time></trkpt><trkpt lat="38.0125421" lon="15.7843157"><ele>664.6666666666667</ele><time>2026-04-25T08:08:31.769Z</time></trkpt><trkpt lat="38.0125427" lon="15.7844119"><ele>662.3333333333334</ele><time>2026-04-25T08:08:32.792Z</time></trkpt><trkpt lat="38.0125516" lon="15.7845097"><ele>660.0</ele><time>2026-04-25T08:08:33.773Z</time></trkpt><trkpt lat="38.0125472" lon="15.7846006"><ele>657.6666666666666</ele><time>2026-04-25T08:08:34.782Z</time></trkpt><trkpt lat="38.0124765" lon="15.7847005"><ele>655.3333333333333</ele><time>2026-04-25T08:08:36.772Z</time></trkpt><trkpt lat="38.0123856" lon="15.7847721"><ele>653.0</ele><time>2026-04-25T08:08:38.764Z</time></trkpt><trkpt lat="38.0123478" lon="15.7848463"><ele>655.3333333333333</ele><time>2026-04-25T08:08:39.784Z</time></trkpt><trkpt lat="38.0123313" lon="15.7849381"><ele>657.6666666666666</ele><time>2026-04-25T08:08:40.77Z</time></trkpt><trkpt lat="38.0123361" lon="15.7850369"><ele>660.0</ele><time>2026-04-25T08:08:41.784Z</time></trkpt><trkpt lat="38.0123372" lon="15.7851348"><ele>662.3333333333334</ele><time>2026-04-25T08:08:42.793Z</time></trkpt><trkpt lat="38.012332" lon="15.7852441"><ele>664.6666666666667</ele><time>2026-04-25T08:08:43.791Z</time></trkpt><trkpt lat="38.0123128" lon="15.7853636"><ele>667.0</ele><time>2026-04-25T08:08:44.791Z</time></trkpt><trkpt lat="38.0122882" lon="15.7854841"><ele>667.0</ele><time>2026-04-25T08:08:45.792Z</time></trkpt><trkpt lat="38.0122692" lon="15.7856071"><ele>667.0</ele><time>2026-04-25T08:08:46.782Z</time></trkpt><trkpt lat="38.0122544" lon="15.7857233"><ele>667.0</ele><time>2026-04-25T08:08:47.768Z</time></trkpt><trkpt lat="38.0122455" lon="15.7858367"><ele>667.0</ele><time>2026-04-25T08:08:48.771Z</time></trkpt><trkpt lat="38.0122372" lon="15.7859423"><ele>667.0</ele><time>2026-04-25T08:08:49.78Z</time></trkpt><trkpt lat="38.0122362" lon="15.7860279"><ele>667.0</ele><time>2026-04-25T08:08:50.788Z</time></trkpt><trkpt lat="38.0122616" lon="15.7861397"><ele>667.0</ele><time>2026-04-25T08:08:52.789Z</time></trkpt><trkpt lat="38.0123291" lon="15.7861293"><ele>667.0</ele><time>2026-04-25T08:08:54.778Z</time></trkpt><trkpt lat="38.0124332" lon="15.7859998"><ele>667.0</ele><time>2026-04-25T08:08:56.789Z</time></trkpt><trkpt lat="38.0124864" lon="15.7859101"><ele>667.0</ele><time>2026-04-25T08:08:57.781Z</time></trkpt><trkpt lat="38.0125255" lon="15.7858132"><ele>667.0</ele><time>2026-04-25T08:08:58.778Z</time></trkpt><trkpt lat="38.0125683" lon="15.7857211"><ele>661.3333333333334</ele><time>2026-04-25T08:08:59.782Z</time></trkpt><trkpt lat="38.0126233" lon="15.7856279"><ele>655.6666666666667</ele><time>2026-04-25T08:09:00.788Z</time></trkpt><trkpt lat="38.0126951" lon="15.7855584"><ele>650.0</ele><time>2026-04-25T08:09:01.787Z</time></trkpt><trkpt lat="38.0127677" lon="15.7854998"><ele>644.3333333333334</ele><time>2026-04-25T08:09:02.779Z</time></trkpt><trkpt lat="38.0128372" lon="15.7854481"><ele>638.6666666666666</ele><time>2026-04-25T08:09:03.786Z</time></trkpt><trkpt lat="38.0128997" lon="15.7854142"><ele>633.0</ele><time>2026-04-25T08:09:04.782Z</time></trkpt><trkpt lat="38.0129607" lon="15.7853917"><ele>633.0</ele><time>2026-04-25T08:09:05.781Z</time></trkpt><trkpt lat="38.0130275" lon="15.7853875"><ele>633.0</ele><time>2026-04-25T08:09:06.791Z</time></trkpt><trkpt lat="38.0131104" lon="15.7853789"><ele>633.0</ele><time>2026-04-25T08:09:07.799Z</time></trkpt><trkpt lat="38.0131953" lon="15.7853592"><ele>633.0</ele><time>2026-04-25T08:09:08.791Z</time></trkpt><trkpt lat="38.0132711" lon="15.7853183"><ele>633.0</ele><time>2026-04-25T08:09:09.781Z</time></trkpt><trkpt lat="38.0133278" lon="15.7852621"><ele>633.0</ele><time>2026-04-25T08:09:10.78Z</time></trkpt><trkpt lat="38.0133797" lon="15.785192"><ele>631.3333333333334</ele><time>2026-04-25T08:09:11.787Z</time></trkpt><trkpt lat="38.0134376" lon="15.7851243"><ele>629.6666666666666</ele><time>2026-04-25T08:09:12.785Z</time></trkpt><trkpt lat="38.0135048" lon="15.7850547"><ele>628.0</ele><time>2026-04-25T08:09:13.78Z</time></trkpt><trkpt lat="38.0135732" lon="15.784987"><ele>626.3333333333333</ele><time>2026-04-25T08:09:14.801Z</time></trkpt><trkpt lat="38.0136245" lon="15.784914"><ele>624.6666666666666</ele><time>2026-04-25T08:09:15.797Z</time></trkpt><trkpt lat="38.0136691" lon="15.784775"><ele>623.0</ele><time>2026-04-25T08:09:17.799Z</time></trkpt><trkpt lat="38.0137293" lon="15.7846119"><ele>623.0</ele><time>2026-04-25T08:09:19.706Z</time></trkpt><trkpt lat="38.0137708" lon="15.7845253"><ele>623.0</ele><time>2026-04-25T08:09:20.808Z</time></trkpt><trkpt lat="38.0138107" lon="15.7844422"><ele>623.0</ele><time>2026-04-25T08:09:21.792Z</time></trkpt><trkpt lat="38.0138622" lon="15.7843921"><ele>623.0</ele><time>2026-04-25T08:09:22.788Z</time></trkpt><trkpt lat="38.013926" lon="15.7843644"><ele>623.0</ele><time>2026-04-25T08:09:23.786Z</time></trkpt><trkpt lat="38.0139937" lon="15.7843556"><ele>623.0</ele><time>2026-04-25T08:09:24.781Z</time></trkpt><trkpt lat="38.0140645" lon="15.7844137"><ele>623.0</ele><time>2026-04-25T08:09:26.686Z</time></trkpt><trkpt lat="38.0140578" lon="15.7845629"><ele>623.0</ele><time>2026-04-25T08:09:28.685Z</time></trkpt><trkpt lat="38.0140449" lon="15.7846777"><ele>623.0</ele><time>2026-04-25T08:09:29.685Z</time></trkpt><trkpt lat="38.014033" lon="15.7847862"><ele>623.0</ele><time>2026-04-25T08:09:30.689Z</time></trkpt><trkpt lat="38.0140139" lon="15.7848887"><ele>623.0</ele><time>2026-04-25T08:09:31.692Z</time></trkpt><trkpt lat="38.0139971" lon="15.7849936"><ele>623.0</ele><time>2026-04-25T08:09:32.687Z</time></trkpt><trkpt lat="38.0139935" lon="15.7851024"><ele>623.0</ele><time>2026-04-25T08:09:33.686Z</time></trkpt><trkpt lat="38.013998" lon="15.7852142"><ele>620.3333333333333</ele><time>2026-04-25T08:09:34.693Z</time></trkpt><trkpt lat="38.0140085" lon="15.7853256"><ele>617.6666666666666</ele><time>2026-04-25T08:09:35.689Z</time></trkpt><trkpt lat="38.0140135" lon="15.7854476"><ele>615.0</ele><time>2026-04-25T08:09:36.691Z</time></trkpt><trkpt lat="38.0140134" lon="15.7855642"><ele>612.3333333333334</ele><time>2026-04-25T08:09:37.692Z</time></trkpt><trkpt lat="38.0140171" lon="15.7856674"><ele>609.6666666666667</ele><time>2026-04-25T08:09:38.703Z</time></trkpt><trkpt lat="38.0140207" lon="15.7857599"><ele>607.0</ele><time>2026-04-25T08:09:39.702Z</time></trkpt><trkpt lat="38.014032" lon="15.7858625"><ele>607.0</ele><time>2026-04-25T08:09:40.72Z</time></trkpt><trkpt lat="38.0140503" lon="15.7859724"><ele>607.0</ele><time>2026-04-25T08:09:41.687Z</time></trkpt><trkpt lat="38.0140707" lon="15.7860856"><ele>607.0</ele><time>2026-04-25T08:09:42.696Z</time></trkpt><trkpt lat="38.0140815" lon="15.7861996"><ele>607.0</ele><time>2026-04-25T08:09:43.707Z</time></trkpt><trkpt lat="38.0140805" lon="15.7863151"><ele>607.0</ele><time>2026-04-25T08:09:44.694Z</time></trkpt><trkpt lat="38.014079" lon="15.7864162"><ele>607.0</ele><time>2026-04-25T08:09:45.691Z</time></trkpt><trkpt lat="38.0140679" lon="15.7865516"><ele>604.8333333333334</ele><time>2026-04-25T08:09:47.691Z</time></trkpt><trkpt lat="38.0140008" lon="15.786668"><ele>602.6666666666667</ele><time>2026-04-25T08:09:49.697Z</time></trkpt><trkpt lat="38.0139681" lon="15.7867541"><ele>600.5</ele><time>2026-04-25T08:09:50.69Z</time></trkpt><trkpt lat="38.013944" lon="15.7868501"><ele>598.3333333333334</ele><time>2026-04-25T08:09:51.704Z</time></trkpt><trkpt lat="38.0139331" lon="15.7869513"><ele>596.1666666666666</ele><time>2026-04-25T08:09:52.691Z</time></trkpt><trkpt lat="38.0139191" lon="15.7870569"><ele>594.0</ele><time>2026-04-25T08:09:53.695Z</time></trkpt><trkpt lat="38.013904" lon="15.7871601"><ele>591.6</ele><time>2026-04-25T08:09:54.693Z</time></trkpt><trkpt lat="38.0138888" lon="15.787261"><ele>589.2</ele><time>2026-04-25T08:09:55.698Z</time></trkpt><trkpt lat="38.0138782" lon="15.7873484"><ele>586.8000000000001</ele><time>2026-04-25T08:09:56.709Z</time></trkpt><trkpt lat="38.0138521" lon="15.7874586"><ele>584.4</ele><time>2026-04-25T08:09:58.699Z</time></trkpt><trkpt lat="38.0138502" lon="15.787558"><ele>582.0</ele><time>2026-04-25T08:10:00.707Z</time></trkpt><trkpt lat="38.0138596" lon="15.7877242"><ele>581.2857142857142</ele><time>2026-04-25T08:10:02.7Z</time></trkpt><trkpt lat="38.0138649" lon="15.7878065"><ele>580.5714285714286</ele><time>2026-04-25T08:10:03.722Z</time></trkpt><trkpt lat="38.0138725" lon="15.787886"><ele>579.8571428571429</ele><time>2026-04-25T08:10:04.713Z</time></trkpt><trkpt lat="38.0138577" lon="15.7880305"><ele>579.1428571428571</ele><time>2026-04-25T08:10:06.727Z</time></trkpt><trkpt lat="38.0138425" lon="15.7881148"><ele>578.4285714285714</ele><time>2026-04-25T08:10:07.723Z</time></trkpt><trkpt lat="38.0138213" lon="15.7882023"><ele>577.7142857142857</ele><time>2026-04-25T08:10:08.712Z</time></trkpt><trkpt lat="38.013801" lon="15.7882806"><ele>577.0</ele><time>2026-04-25T08:10:09.71Z</time></trkpt><trkpt lat="38.0137933" lon="15.7884239"><ele>576.0</ele><time>2026-04-25T08:10:11.707Z</time></trkpt><trkpt lat="38.0138055" lon="15.7885845"><ele>575.0</ele><time>2026-04-25T08:10:13.725Z</time></trkpt><trkpt lat="38.0138062" lon="15.7886675"><ele>574.0</ele><time>2026-04-25T08:10:14.707Z</time></trkpt><trkpt lat="38.0137981" lon="15.7887509"><ele>573.0</ele><time>2026-04-25T08:10:15.709Z</time></trkpt><trkpt lat="38.0137869" lon="15.7888364"><ele>572.0</ele><time>2026-04-25T08:10:16.721Z</time></trkpt><trkpt lat="38.013778" lon="15.7889182"><ele>571.0</ele><time>2026-04-25T08:10:17.708Z</time></trkpt><trkpt lat="38.0137756" lon="15.7890671"><ele>571.0</ele><time>2026-04-25T08:10:19.733Z</time></trkpt><trkpt lat="38.0137764" lon="15.7892007"><ele>571.0</ele><time>2026-04-25T08:10:21.707Z</time></trkpt><trkpt lat="38.0137803" lon="15.7893098"><ele>571.0</ele><time>2026-04-25T08:10:23.721Z</time></trkpt><trkpt lat="38.0137898" lon="15.7894045"><ele>571.0</ele><time>2026-04-25T08:10:25.722Z</time></trkpt><trkpt lat="38.0138008" lon="15.7895039"><ele>571.0</ele><time>2026-04-25T08:10:27.73Z</time></trkpt><trkpt lat="38.0138118" lon="15.7896123"><ele>571.0</ele><time>2026-04-25T08:10:29.713Z</time></trkpt><trkpt lat="38.0138125" lon="15.7897287"><ele>569.5</ele><time>2026-04-25T08:10:32.721Z</time></trkpt><trkpt lat="38.0138331" lon="15.7898593"><ele>568.0</ele><time>2026-04-25T08:10:34.713Z</time></trkpt><trkpt lat="38.0138518" lon="15.7899549"><ele>566.5</ele><time>2026-04-25T08:10:35.73Z</time></trkpt><trkpt lat="38.0138657" lon="15.7900468"><ele>565.0</ele><time>2026-04-25T08:10:36.744Z</time></trkpt><trkpt lat="38.0138725" lon="15.790145"><ele>563.5</ele><time>2026-04-25T08:10:37.747Z</time></trkpt><trkpt lat="38.0138704" lon="15.7902516"><ele>562.0</ele><time>2026-04-25T08:10:38.724Z</time></trkpt><trkpt lat="38.0138641" lon="15.7903658"><ele>560.8333333333334</ele><time>2026-04-25T08:10:39.72Z</time></trkpt><trkpt lat="38.0138552" lon="15.7904818"><ele>559.6666666666667</ele><time>2026-04-25T08:10:40.719Z</time></trkpt><trkpt lat="38.013856" lon="15.790592"><ele>558.5</ele><time>2026-04-25T08:10:41.737Z</time></trkpt><trkpt lat="38.0138591" lon="15.7907062"><ele>557.3333333333334</ele><time>2026-04-25T08:10:42.724Z</time></trkpt><trkpt lat="38.0138588" lon="15.7908175"><ele>556.1666666666666</ele><time>2026-04-25T08:10:43.727Z</time></trkpt><trkpt lat="38.0138541" lon="15.7909308"><ele>555.0</ele><time>2026-04-25T08:10:44.728Z</time></trkpt><trkpt lat="38.0138469" lon="15.7910395"><ele>554.3333333333334</ele><time>2026-04-25T08:10:45.731Z</time></trkpt><trkpt lat="38.0138414" lon="15.7911288"><ele>553.6666666666666</ele><time>2026-04-25T08:10:46.744Z</time></trkpt><trkpt lat="38.0138564" lon="15.7912611"><ele>553.0</ele><time>2026-04-25T08:10:48.723Z</time></trkpt><trkpt lat="38.0138862" lon="15.7913383"><ele>552.3333333333333</ele><time>2026-04-25T08:10:49.735Z</time></trkpt><trkpt lat="38.0139259" lon="15.7914213"><ele>551.6666666666666</ele><time>2026-04-25T08:10:50.73Z</time></trkpt><trkpt lat="38.0139597" lon="15.7915237"><ele>551.0</ele><time>2026-04-25T08:10:51.73Z</time></trkpt><trkpt lat="38.013981" lon="15.791637"><ele>551.0</ele><time>2026-04-25T08:10:52.74Z</time></trkpt><trkpt lat="38.0140001" lon="15.7917522"><ele>551.0</ele><time>2026-04-25T08:10:53.734Z</time></trkpt><trkpt lat="38.0140182" lon="15.7918704"><ele>551.0</ele><time>2026-04-25T08:10:54.726Z</time></trkpt><trkpt lat="38.0140353" lon="15.7919841"><ele>551.0</ele><time>2026-04-25T08:10:55.738Z</time></trkpt><trkpt lat="38.0140412" lon="15.7920994"><ele>551.0</ele><time>2026-04-25T08:10:56.731Z</time></trkpt><trkpt lat="38.0140406" lon="15.7922136"><ele>549.6</ele><time>2026-04-25T08:10:57.738Z</time></trkpt><trkpt lat="38.014028" lon="15.7923288"><ele>548.2</ele><time>2026-04-25T08:10:58.738Z</time></trkpt><trkpt lat="38.0140135" lon="15.7924444"><ele>546.8</ele><time>2026-04-25T08:10:59.742Z</time></trkpt><trkpt lat="38.0140065" lon="15.7925626"><ele>545.4</ele><time>2026-04-25T08:11:00.73Z</time></trkpt><trkpt lat="38.013997" lon="15.7926769"><ele>544.0</ele><time>2026-04-25T08:11:01.751Z</time></trkpt><trkpt lat="38.0139887" lon="15.7927931"><ele>543.0</ele><time>2026-04-25T08:11:02.73Z</time></trkpt><trkpt lat="38.0139842" lon="15.7928986"><ele>542.0</ele><time>2026-04-25T08:11:03.746Z</time></trkpt><trkpt lat="38.0139803" lon="15.7930071"><ele>541.0</ele><time>2026-04-25T08:11:04.745Z</time></trkpt><trkpt lat="38.0139752" lon="15.7931141"><ele>540.0</ele><time>2026-04-25T08:11:05.738Z</time></trkpt><trkpt lat="38.0139705" lon="15.7932176"><ele>539.0</ele><time>2026-04-25T08:11:06.734Z</time></trkpt><trkpt lat="38.0139699" lon="15.7933039"><ele>538.0</ele><time>2026-04-25T08:11:07.755Z</time></trkpt><trkpt lat="38.0139813" lon="15.7933855"><ele>538.0</ele><time>2026-04-25T08:11:08.737Z</time></trkpt><trkpt lat="38.0140038" lon="15.7934684"><ele>538.0</ele><time>2026-04-25T08:11:09.746Z</time></trkpt><trkpt lat="38.014041" lon="15.7935649"><ele>538.0</ele><time>2026-04-25T08:11:10.736Z</time></trkpt><trkpt lat="38.0140878" lon="15.793669"><ele>538.0</ele><time>2026-04-25T08:11:11.75Z</time></trkpt><trkpt lat="38.0141253" lon="15.7937711"><ele>538.0</ele><time>2026-04-25T08:11:12.745Z</time></trkpt><trkpt lat="38.0141477" lon="15.7938717"><ele>538.0</ele><time>2026-04-25T08:11:13.737Z</time></trkpt><trkpt lat="38.0141631" lon="15.7939712"><ele>535.8333333333334</ele><time>2026-04-25T08:11:14.749Z</time></trkpt><trkpt lat="38.0141733" lon="15.7940674"><ele>533.6666666666667</ele><time>2026-04-25T08:11:15.737Z</time></trkpt><trkpt lat="38.0141734" lon="15.794161"><ele>531.5</ele><time>2026-04-25T08:11:16.746Z</time></trkpt><trkpt lat="38.014167" lon="15.794259"><ele>529.3333333333334</ele><time>2026-04-25T08:11:17.748Z</time></trkpt><trkpt lat="38.0141657" lon="15.7943516"><ele>527.1666666666666</ele><time>2026-04-25T08:11:18.744Z</time></trkpt><trkpt lat="38.0141739" lon="15.794446"><ele>525.0</ele><time>2026-04-25T08:11:19.74Z</time></trkpt><trkpt lat="38.0141779" lon="15.7945509"><ele>524.3333333333334</ele><time>2026-04-25T08:11:20.735Z</time></trkpt><trkpt lat="38.0141771" lon="15.7946528"><ele>523.6666666666666</ele><time>2026-04-25T08:11:21.735Z</time></trkpt><trkpt lat="38.0141801" lon="15.7947575"><ele>523.0</ele><time>2026-04-25T08:11:22.745Z</time></trkpt><trkpt lat="38.0141936" lon="15.7948697"><ele>522.3333333333333</ele><time>2026-04-25T08:11:23.762Z</time></trkpt><trkpt lat="38.0142138" lon="15.7949909"><ele>521.6666666666666</ele><time>2026-04-25T08:11:24.761Z</time></trkpt><trkpt lat="38.0142305" lon="15.7951148"><ele>521.0</ele><time>2026-04-25T08:11:25.74Z</time></trkpt><trkpt lat="38.0142476" lon="15.7952385"><ele>520.6666666666666</ele><time>2026-04-25T08:11:26.741Z</time></trkpt><trkpt lat="38.0142641" lon="15.7953509"><ele>520.3333333333333</ele><time>2026-04-25T08:11:27.747Z</time></trkpt><trkpt lat="38.014274" lon="15.7954435"><ele>520.0</ele><time>2026-04-25T08:11:28.737Z</time></trkpt><trkpt lat="38.0142458" lon="15.7955689"><ele>519.6666666666666</ele><time>2026-04-25T08:11:30.744Z</time></trkpt><trkpt lat="38.014195" lon="15.7956991"><ele>519.3333333333334</ele><time>2026-04-25T08:11:32.755Z</time></trkpt><trkpt lat="38.0141847" lon="15.7957829"><ele>519.0</ele><time>2026-04-25T08:11:33.756Z</time></trkpt><trkpt lat="38.0141764" lon="15.7958715"><ele>519.0</ele><time>2026-04-25T08:11:34.743Z</time></trkpt><trkpt lat="38.0141724" lon="15.7959736"><ele>519.0</ele><time>2026-04-25T08:11:35.753Z</time></trkpt><trkpt lat="38.0141755" lon="15.7960819"><ele>519.0</ele><time>2026-04-25T08:11:36.766Z</time></trkpt><trkpt lat="38.0141931" lon="15.7961843"><ele>519.0</ele><time>2026-04-25T08:11:37.751Z</time></trkpt><trkpt lat="38.0142297" lon="15.7962932"><ele>519.0</ele><time>2026-04-25T08:11:38.748Z</time></trkpt><trkpt lat="38.0142718" lon="15.7964159"><ele>519.0</ele><time>2026-04-25T08:11:39.751Z</time></trkpt><trkpt lat="38.0143117" lon="15.7965379"><ele>519.5</ele><time>2026-04-25T08:11:40.747Z</time></trkpt><trkpt lat="38.0143475" lon="15.7966559"><ele>520.0</ele><time>2026-04-25T08:11:41.778Z</time></trkpt><trkpt lat="38.0143794" lon="15.7967761"><ele>520.5</ele><time>2026-04-25T08:11:42.744Z</time></trkpt><trkpt lat="38.0144157" lon="15.7968837"><ele>521.0</ele><time>2026-04-25T08:11:43.749Z</time></trkpt><trkpt lat="38.0144498" lon="15.796964"><ele>521.5</ele><time>2026-04-25T08:11:44.753Z</time></trkpt><trkpt lat="38.0144916" lon="15.7970557"><ele>522.0</ele><time>2026-04-25T08:11:46.755Z</time></trkpt><trkpt lat="38.0145489" lon="15.7971474"><ele>523.4</ele><time>2026-04-25T08:12:11.762Z</time></trkpt><trkpt lat="38.0146553" lon="15.7972199"><ele>524.8000000000001</ele><time>2026-04-25T08:12:13.78Z</time></trkpt><trkpt lat="38.0147715" lon="15.7972991"><ele>526.2</ele><time>2026-04-25T08:12:15.775Z</time></trkpt><trkpt lat="38.0148412" lon="15.7973332"><ele>527.6</ele><time>2026-04-25T08:12:16.762Z</time></trkpt><trkpt lat="38.0149162" lon="15.7973568"><ele>529.0</ele><time>2026-04-25T08:12:17.771Z</time></trkpt><trkpt lat="38.0149782" lon="15.7973853"><ele>525.3333333333334</ele><time>2026-04-25T08:12:18.761Z</time></trkpt><trkpt lat="38.0150603" lon="15.797477"><ele>521.6666666666667</ele><time>2026-04-25T08:12:20.761Z</time></trkpt><trkpt lat="38.0151032" lon="15.7975496"><ele>518.0</ele><time>2026-04-25T08:12:21.765Z</time></trkpt><trkpt lat="38.0151544" lon="15.7976298"><ele>514.3333333333334</ele><time>2026-04-25T08:12:22.761Z</time></trkpt><trkpt lat="38.0152118" lon="15.7976988"><ele>510.6666666666667</ele><time>2026-04-25T08:12:23.775Z</time></trkpt><trkpt lat="38.0152672" lon="15.7977639"><ele>507.0</ele><time>2026-04-25T08:12:24.774Z</time></trkpt><trkpt lat="38.0153255" lon="15.7978383"><ele>507.0</ele><time>2026-04-25T08:12:25.778Z</time></trkpt><trkpt lat="38.0153841" lon="15.7979201"><ele>507.0</ele><time>2026-04-25T08:12:26.782Z</time></trkpt><trkpt lat="38.015439" lon="15.7979959"><ele>507.0</ele><time>2026-04-25T08:12:27.768Z</time></trkpt><trkpt lat="38.0154841" lon="15.7980662"><ele>507.0</ele><time>2026-04-25T08:12:28.774Z</time></trkpt><trkpt lat="38.015513" lon="15.7981575"><ele>507.0</ele><time>2026-04-25T08:12:29.773Z</time></trkpt><trkpt lat="38.0155279" lon="15.7982569"><ele>507.0</ele><time>2026-04-25T08:12:30.777Z</time></trkpt><trkpt lat="38.0155545" lon="15.7983613"><ele>507.0</ele><time>2026-04-25T08:12:31.769Z</time></trkpt><trkpt lat="38.0155931" lon="15.7984671"><ele>507.0</ele><time>2026-04-25T08:12:32.774Z</time></trkpt><trkpt lat="38.0156374" lon="15.7985749"><ele>507.0</ele><time>2026-04-25T08:12:33.781Z</time></trkpt><trkpt lat="38.0156894" lon="15.7986626"><ele>507.0</ele><time>2026-04-25T08:12:34.778Z</time></trkpt><trkpt lat="38.0157487" lon="15.7987398"><ele>507.0</ele><time>2026-04-25T08:12:35.777Z</time></trkpt><trkpt lat="38.0157993" lon="15.7988241"><ele>507.0</ele><time>2026-04-25T08:12:36.781Z</time></trkpt><trkpt lat="38.0158441" lon="15.7989138"><ele>505.1666666666667</ele><time>2026-04-25T08:12:37.772Z</time></trkpt><trkpt lat="38.0158983" lon="15.7989873"><ele>503.33333333333337</ele><time>2026-04-25T08:12:38.776Z</time></trkpt><trkpt lat="38.0159539" lon="15.7990628"><ele>501.5</ele><time>2026-04-25T08:12:39.783Z</time></trkpt><trkpt lat="38.0160072" lon="15.7991432"><ele>499.6666666666667</ele><time>2026-04-25T08:12:40.772Z</time></trkpt><trkpt lat="38.0160698" lon="15.7992127"><ele>497.83333333333337</ele><time>2026-04-25T08:12:41.772Z</time></trkpt><trkpt lat="38.0161417" lon="15.7992697"><ele>496.0</ele><time>2026-04-25T08:12:42.784Z</time></trkpt><trkpt lat="38.0162169" lon="15.7993253"><ele>499.8</ele><time>2026-04-25T08:12:43.777Z</time></trkpt><trkpt lat="38.0162957" lon="15.7993847"><ele>503.6</ele><time>2026-04-25T08:12:44.785Z</time></trkpt><trkpt lat="38.0163815" lon="15.7994429"><ele>507.4</ele><time>2026-04-25T08:12:45.785Z</time></trkpt><trkpt lat="38.0164696" lon="15.7994932"><ele>511.2</ele><time>2026-04-25T08:12:46.775Z</time></trkpt><trkpt lat="38.0165551" lon="15.7995317"><ele>515.0</ele><time>2026-04-25T08:12:47.772Z</time></trkpt><trkpt lat="38.0166385" lon="15.7995728"><ele>511.3333333333333</ele><time>2026-04-25T08:12:48.771Z</time></trkpt><trkpt lat="38.0167208" lon="15.7996133"><ele>507.66666666666663</ele><time>2026-04-25T08:12:49.776Z</time></trkpt><trkpt lat="38.0167867" lon="15.7996405"><ele>504.0</ele><time>2026-04-25T08:12:50.772Z</time></trkpt><trkpt lat="38.0168832" lon="15.7996782"><ele>500.33333333333337</ele><time>2026-04-25T08:12:52.794Z</time></trkpt><trkpt lat="38.0169508" lon="15.7997504"><ele>496.6666666666667</ele><time>2026-04-25T08:12:55.775Z</time></trkpt><trkpt lat="38.0170296" lon="15.799811"><ele>493.0</ele><time>2026-04-25T08:12:59.789Z</time></trkpt><trkpt lat="38.0171295" lon="15.7998989"><ele>493.0</ele><time>2026-04-25T08:13:01.785Z</time></trkpt><trkpt lat="38.017286" lon="15.8000002"><ele>493.0</ele><time>2026-04-25T08:13:03.776Z</time></trkpt><trkpt lat="38.0173652" lon="15.8000627"><ele>493.0</ele><time>2026-04-25T08:13:04.771Z</time></trkpt><trkpt lat="38.0174389" lon="15.8001341"><ele>493.0</ele><time>2026-04-25T08:13:05.814Z</time></trkpt><trkpt lat="38.0175076" lon="15.8002135"><ele>490.83333333333337</ele><time>2026-04-25T08:13:06.785Z</time></trkpt><trkpt lat="38.0175744" lon="15.8002931"><ele>488.6666666666667</ele><time>2026-04-25T08:13:07.801Z</time></trkpt><trkpt lat="38.0176404" lon="15.8003692"><ele>486.5</ele><time>2026-04-25T08:13:08.788Z</time></trkpt><trkpt lat="38.0177038" lon="15.8004463"><ele>484.33333333333337</ele><time>2026-04-25T08:13:09.692Z</time></trkpt><trkpt lat="38.0177568" lon="15.8005274"><ele>482.1666666666667</ele><time>2026-04-25T08:13:10.679Z</time></trkpt><trkpt lat="38.0177973" lon="15.8006029"><ele>480.0</ele><time>2026-04-25T08:13:11.777Z</time></trkpt><trkpt lat="38.0178602" lon="15.8007323"><ele>480.0</ele><time>2026-04-25T08:13:13.781Z</time></trkpt><trkpt lat="38.0179193" lon="15.8008207"><ele>480.0</ele><time>2026-04-25T08:13:15.786Z</time></trkpt><trkpt lat="38.0180231" lon="15.8009311"><ele>480.0</ele><time>2026-04-25T08:13:17.69Z</time></trkpt><trkpt lat="38.018092" lon="15.800986"><ele>480.0</ele><time>2026-04-25T08:13:18.676Z</time></trkpt><trkpt lat="38.0181566" lon="15.8010407"><ele>480.0</ele><time>2026-04-25T08:13:19.681Z</time></trkpt><trkpt lat="38.0182192" lon="15.8010975"><ele>478.0</ele><time>2026-04-25T08:13:20.694Z</time></trkpt><trkpt lat="38.0182815" lon="15.8011526"><ele>476.0</ele><time>2026-04-25T08:13:21.792Z</time></trkpt><trkpt lat="38.0183998" lon="15.8012303"><ele>474.0</ele><time>2026-04-25T08:13:23.702Z</time></trkpt><trkpt lat="38.0184954" lon="15.801294"><ele>472.0</ele><time>2026-04-25T08:13:25.68Z</time></trkpt><trkpt lat="38.0185883" lon="15.8013614"><ele>470.0</ele><time>2026-04-25T08:13:27.697Z</time></trkpt><trkpt lat="38.0186636" lon="15.8014474"><ele>470.0</ele><time>2026-04-25T08:13:29.711Z</time></trkpt><trkpt lat="38.0187156" lon="15.8015006"><ele>469.99999999999994</ele><time>2026-04-25T08:13:30.687Z</time></trkpt><trkpt lat="38.0187715" lon="15.8015624"><ele>470.0</ele><time>2026-04-25T08:13:31.697Z</time></trkpt><trkpt lat="38.0188224" lon="15.8016332"><ele>470.0</ele><time>2026-04-25T08:13:32.699Z</time></trkpt><trkpt lat="38.0188692" lon="15.8017155"><ele>469.99999999999994</ele><time>2026-04-25T08:13:33.694Z</time></trkpt><trkpt lat="38.0189096" lon="15.8017898"><ele>470.0</ele><time>2026-04-25T08:13:34.682Z</time></trkpt><trkpt lat="38.0189474" lon="15.8018669"><ele>470.0</ele><time>2026-04-25T08:13:35.711Z</time></trkpt><trkpt lat="38.0189838" lon="15.801934"><ele>469.2</ele><time>2026-04-25T08:13:36.707Z</time></trkpt><trkpt lat="38.0190712" lon="15.8020394"><ele>468.4</ele><time>2026-04-25T08:13:38.698Z</time></trkpt><trkpt lat="38.0191318" lon="15.8021146"><ele>467.6</ele><time>2026-04-25T08:13:39.693Z</time></trkpt><trkpt lat="38.0191971" lon="15.8021911"><ele>466.8</ele><time>2026-04-25T08:13:40.703Z</time></trkpt><trkpt lat="38.0192611" lon="15.8022538"><ele>466.0</ele><time>2026-04-25T08:13:41.695Z</time></trkpt><trkpt lat="38.0193251" lon="15.8023076"><ele>466.0</ele><time>2026-04-25T08:13:42.694Z</time></trkpt><trkpt lat="38.0194352" lon="15.8023602"><ele>466.0</ele><time>2026-04-25T08:13:44.691Z</time></trkpt><trkpt lat="38.0195463" lon="15.8024209"><ele>466.0</ele><time>2026-04-25T08:13:46.692Z</time></trkpt><trkpt lat="38.0195928" lon="15.802477"><ele>466.0</ele><time>2026-04-25T08:13:47.699Z</time></trkpt><trkpt lat="38.0196345" lon="15.8025378"><ele>466.0</ele><time>2026-04-25T08:13:48.69Z</time></trkpt><trkpt lat="38.0197238" lon="15.8026526"><ele>466.6666666666667</ele><time>2026-04-25T08:13:50.693Z</time></trkpt><trkpt lat="38.019803" lon="15.80274"><ele>467.33333333333337</ele><time>2026-04-25T08:13:52.697Z</time></trkpt><trkpt lat="38.0198644" lon="15.8028258"><ele>468.0</ele><time>2026-04-25T08:13:54.693Z</time></trkpt><trkpt lat="38.0199154" lon="15.8028769"><ele>468.66666666666663</ele><time>2026-04-25T08:13:57.688Z</time></trkpt><trkpt lat="38.0199671" lon="15.8029239"><ele>469.3333333333333</ele><time>2026-04-25T08:13:59.696Z</time></trkpt><trkpt lat="38.0200174" lon="15.8029746"><ele>470.0</ele><time>2026-04-25T08:14:00.703Z</time></trkpt><trkpt lat="38.0200791" lon="15.8030359"><ele>465.8</ele><time>2026-04-25T08:14:01.705Z</time></trkpt><trkpt lat="38.0201448" lon="15.8031056"><ele>461.6</ele><time>2026-04-25T08:14:02.704Z</time></trkpt><trkpt lat="38.0202107" lon="15.8031767"><ele>457.4</ele><time>2026-04-25T08:14:03.682Z</time></trkpt><trkpt lat="38.0202583" lon="15.8032427"><ele>453.2</ele><time>2026-04-25T08:14:04.722Z</time></trkpt><trkpt lat="38.0203231" lon="15.8033475"><ele>449.0</ele><time>2026-04-25T08:14:06.695Z</time></trkpt><trkpt lat="38.0203852" lon="15.8034649"><ele>448.16666666666663</ele><time>2026-04-25T08:14:08.696Z</time></trkpt><trkpt lat="38.0204175" lon="15.8035498"><ele>447.3333333333333</ele><time>2026-04-25T08:14:10.702Z</time></trkpt><trkpt lat="38.0204532" lon="15.8036416"><ele>446.5</ele><time>2026-04-25T08:14:13.693Z</time></trkpt><trkpt lat="38.0205029" lon="15.8036942"><ele>445.66666666666663</ele><time>2026-04-25T08:14:17.705Z</time></trkpt><trkpt lat="38.0205642" lon="15.8036588"><ele>444.8333333333333</ele><time>2026-04-25T08:14:19.697Z</time></trkpt><trkpt lat="38.0206511" lon="15.8036134"><ele>444.0</ele><time>2026-04-25T08:14:21.692Z</time></trkpt><trkpt lat="38.0207091" lon="15.8035534"><ele>445.0</ele><time>2026-04-25T08:14:24.704Z</time></trkpt><trkpt lat="38.0207529" lon="15.8034666"><ele>446.0</ele><time>2026-04-25T08:14:26.7Z</time></trkpt><trkpt lat="38.0207956" lon="15.8033314"><ele>447.0</ele><time>2026-04-25T08:14:28.695Z</time></trkpt><trkpt lat="38.0208353" lon="15.8031895"><ele>448.0</ele><time>2026-04-25T08:14:30.704Z</time></trkpt><trkpt lat="38.0208903" lon="15.8030775"><ele>449.0</ele><time>2026-04-25T08:14:32.699Z</time></trkpt><trkpt lat="38.0209668" lon="15.8029399"><ele>449.49999999999994</ele><time>2026-04-25T08:14:34.694Z</time></trkpt><trkpt lat="38.021068" lon="15.8028386"><ele>450.0</ele><time>2026-04-25T08:14:36.693Z</time></trkpt><trkpt lat="38.0211327" lon="15.8028004"><ele>450.5</ele><time>2026-04-25T08:14:37.694Z</time></trkpt><trkpt lat="38.0211995" lon="15.8027567"><ele>451.0</ele><time>2026-04-25T08:14:38.704Z</time></trkpt><trkpt lat="38.0212636" lon="15.8027045"><ele>451.49999999999994</ele><time>2026-04-25T08:14:39.698Z</time></trkpt><trkpt lat="38.0213164" lon="15.8026465"><ele>452.0</ele><time>2026-04-25T08:14:40.717Z</time></trkpt><trkpt lat="38.0213544" lon="15.8025772"><ele>452.6</ele><time>2026-04-25T08:14:41.723Z</time></trkpt><trkpt lat="38.0213802" lon="15.8025042"><ele>453.20000000000005</ele><time>2026-04-25T08:14:42.711Z</time></trkpt><trkpt lat="38.021448" lon="15.8023792"><ele>453.8</ele><time>2026-04-25T08:14:44.693Z</time></trkpt><trkpt lat="38.0215519" lon="15.8022807"><ele>454.4</ele><time>2026-04-25T08:14:46.694Z</time></trkpt><trkpt lat="38.021615" lon="15.8022215"><ele>455.0</ele><time>2026-04-25T08:14:47.69Z</time></trkpt><trkpt lat="38.0216821" lon="15.8021757"><ele>455.6</ele><time>2026-04-25T08:14:48.693Z</time></trkpt><trkpt lat="38.0217541" lon="15.8021385"><ele>456.2</ele><time>2026-04-25T08:14:49.727Z</time></trkpt><trkpt lat="38.0218471" lon="15.8021037"><ele>456.79999999999995</ele><time>2026-04-25T08:14:50.701Z</time></trkpt><trkpt lat="38.021954" lon="15.8020824"><ele>457.4</ele><time>2026-04-25T08:14:51.707Z</time></trkpt><trkpt lat="38.0220705" lon="15.8020682"><ele>458.0</ele><time>2026-04-25T08:14:52.717Z</time></trkpt><trkpt lat="38.0221891" lon="15.8020383"><ele>458.0</ele><time>2026-04-25T08:14:53.708Z</time></trkpt><trkpt lat="38.0223159" lon="15.8020016"><ele>458.0</ele><time>2026-04-25T08:14:54.703Z</time></trkpt><trkpt lat="38.0224414" lon="15.8019577"><ele>458.0</ele><time>2026-04-25T08:14:55.716Z</time></trkpt><trkpt lat="38.0225479" lon="15.8019155"><ele>458.0</ele><time>2026-04-25T08:14:56.718Z</time></trkpt><trkpt lat="38.0226479" lon="15.8018675"><ele>460.0</ele><time>2026-04-25T08:14:57.711Z</time></trkpt><trkpt lat="38.0227471" lon="15.8018216"><ele>461.99999999999994</ele><time>2026-04-25T08:14:58.697Z</time></trkpt><trkpt lat="38.0228491" lon="15.8017756"><ele>463.99999999999994</ele><time>2026-04-25T08:14:59.703Z</time></trkpt><trkpt lat="38.0229595" lon="15.8017385"><ele>466.0</ele><time>2026-04-25T08:15:00.71Z</time></trkpt><trkpt lat="38.023077" lon="15.8017012"><ele>468.0</ele><time>2026-04-25T08:15:01.699Z</time></trkpt><trkpt lat="38.0231998" lon="15.801659"><ele>469.75</ele><time>2026-04-25T08:15:02.706Z</time></trkpt><trkpt lat="38.0233324" lon="15.801608"><ele>471.5</ele><time>2026-04-25T08:15:03.702Z</time></trkpt><trkpt lat="38.0234678" lon="15.8015492"><ele>473.25</ele><time>2026-04-25T08:15:04.702Z</time></trkpt><trkpt lat="38.0236015" lon="15.8014903"><ele>475.0</ele><time>2026-04-25T08:15:05.71Z</time></trkpt><trkpt lat="38.0237218" lon="15.8014393"><ele>475.0</ele><time>2026-04-25T08:15:06.709Z</time></trkpt><trkpt lat="38.0238302" lon="15.801406"><ele>475.0</ele><time>2026-04-25T08:15:07.716Z</time></trkpt><trkpt lat="38.023937" lon="15.8013767"><ele>475.0</ele><time>2026-04-25T08:15:08.704Z</time></trkpt><trkpt lat="38.0240377" lon="15.8013296"><ele>475.0</ele><time>2026-04-25T08:15:09.71Z</time></trkpt><trkpt lat="38.0241345" lon="15.8012793"><ele>475.0</ele><time>2026-04-25T08:15:10.704Z</time></trkpt><trkpt lat="38.0242299" lon="15.8012437"><ele>476.4</ele><time>2026-04-25T08:15:11.71Z</time></trkpt><trkpt lat="38.024335" lon="15.8012165"><ele>477.8</ele><time>2026-04-25T08:15:12.71Z</time></trkpt><trkpt lat="38.0244357" lon="15.8011923"><ele>479.20000000000005</ele><time>2026-04-25T08:15:13.725Z</time></trkpt><trkpt lat="38.024522" lon="15.801144"><ele>480.6</ele><time>2026-04-25T08:15:14.713Z</time></trkpt><trkpt lat="38.0245922" lon="15.8010801"><ele>482.0</ele><time>2026-04-25T08:15:15.721Z</time></trkpt><trkpt lat="38.0246588" lon="15.8010249"><ele>481.99999999999994</ele><time>2026-04-25T08:15:16.733Z</time></trkpt><trkpt lat="38.0247215" lon="15.800991"><ele>482.0</ele><time>2026-04-25T08:15:17.711Z</time></trkpt><trkpt lat="38.0248116" lon="15.8009822"><ele>482.0</ele><time>2026-04-25T08:15:19.718Z</time></trkpt><trkpt lat="38.0248777" lon="15.8010236"><ele>482.0</ele><time>2026-04-25T08:15:21.712Z</time></trkpt><trkpt lat="38.0249457" lon="15.8010739"><ele>481.99999999999994</ele><time>2026-04-25T08:15:23.716Z</time></trkpt><trkpt lat="38.0250301" lon="15.8011261"><ele>482.0</ele><time>2026-04-25T08:15:25.72Z</time></trkpt><trkpt lat="38.0250939" lon="15.801157"><ele>483.66666666666663</ele><time>2026-04-25T08:15:27.722Z</time></trkpt><trkpt lat="38.0251717" lon="15.8011613"><ele>485.3333333333333</ele><time>2026-04-25T08:16:19.724Z</time></trkpt><trkpt lat="38.0252875" lon="15.8011457"><ele>487.0</ele><time>2026-04-25T08:16:21.717Z</time></trkpt><trkpt lat="38.0253651" lon="15.80112"><ele>488.66666666666663</ele><time>2026-04-25T08:16:22.729Z</time></trkpt><trkpt lat="38.0254439" lon="15.8011005"><ele>490.3333333333333</ele><time>2026-04-25T08:16:23.718Z</time></trkpt><trkpt lat="38.0255234" lon="15.8010931"><ele>492.0</ele><time>2026-04-25T08:16:24.732Z</time></trkpt><trkpt lat="38.0255962" lon="15.8010984"><ele>492.0</ele><time>2026-04-25T08:16:25.73Z</time></trkpt><trkpt lat="38.0256615" lon="15.8011214"><ele>492.0</ele><time>2026-04-25T08:16:26.723Z</time></trkpt><trkpt lat="38.0257311" lon="15.8011355"><ele>492.0</ele><time>2026-04-25T08:16:27.724Z</time></trkpt><trkpt lat="38.025811" lon="15.8011308"><ele>492.0</ele><time>2026-04-25T08:16:28.717Z</time></trkpt><trkpt lat="38.0258968" lon="15.8011071"><ele>492.0</ele><time>2026-04-25T08:16:29.722Z</time></trkpt><trkpt lat="38.0259959" lon="15.8010842"><ele>492.0</ele><time>2026-04-25T08:16:30.726Z</time></trkpt><trkpt lat="38.0261051" lon="15.8010599"><ele>492.6</ele><time>2026-04-25T08:16:31.709Z</time></trkpt><trkpt lat="38.02621" lon="15.8010292"><ele>493.20000000000005</ele><time>2026-04-25T08:16:32.71Z</time></trkpt><trkpt lat="38.026304" lon="15.8009811"><ele>493.8</ele><time>2026-04-25T08:16:33.718Z</time></trkpt><trkpt lat="38.0263951" lon="15.8009257"><ele>494.4</ele><time>2026-04-25T08:16:34.718Z</time></trkpt><trkpt lat="38.0264878" lon="15.8008695"><ele>495.0</ele><time>2026-04-25T08:16:35.71Z</time></trkpt><trkpt lat="38.0265955" lon="15.8008223"><ele>498.5</ele><time>2026-04-25T08:16:36.718Z</time></trkpt><trkpt lat="38.0267104" lon="15.8007785"><ele>502.0</ele><time>2026-04-25T08:16:37.726Z</time></trkpt><trkpt lat="38.0268179" lon="15.8007266"><ele>505.5</ele><time>2026-04-25T08:16:38.706Z</time></trkpt><trkpt lat="38.0269228" lon="15.8006579"><ele>509.0</ele><time>2026-04-25T08:16:39.718Z</time></trkpt><trkpt lat="38.0270367" lon="15.8005816"><ele>509.0</ele><time>2026-04-25T08:16:40.714Z</time></trkpt><trkpt lat="38.0271597" lon="15.8005021"><ele>509.0</ele><time>2026-04-25T08:16:41.708Z</time></trkpt><trkpt lat="38.0272726" lon="15.8004247"><ele>509.0</ele><time>2026-04-25T08:16:42.722Z</time></trkpt><trkpt lat="38.027377" lon="15.8003456"><ele>509.0</ele><time>2026-04-25T08:16:43.708Z</time></trkpt><trkpt lat="38.0274873" lon="15.800259"><ele>509.5</ele><time>2026-04-25T08:16:44.719Z</time></trkpt><trkpt lat="38.0276082" lon="15.8001799"><ele>510.0</ele><time>2026-04-25T08:16:45.722Z</time></trkpt><trkpt lat="38.0277325" lon="15.8001024"><ele>510.5</ele><time>2026-04-25T08:16:46.723Z</time></trkpt><trkpt lat="38.0278421" lon="15.8000289"><ele>511.0</ele><time>2026-04-25T08:16:47.731Z</time></trkpt><trkpt lat="38.0279316" lon="15.7999653"><ele>511.0</ele><time>2026-04-25T08:16:48.725Z</time></trkpt><trkpt lat="38.0279982" lon="15.7999006"><ele>511.0</ele><time>2026-04-25T08:16:49.713Z</time></trkpt><trkpt lat="38.0280423" lon="15.7998307"><ele>511.0</ele><time>2026-04-25T08:16:50.71Z</time></trkpt><trkpt lat="38.0280918" lon="15.7997446"><ele>511.0</ele><time>2026-04-25T08:16:51.718Z</time></trkpt><trkpt lat="38.0281578" lon="15.7996446"><ele>511.0</ele><time>2026-04-25T08:16:52.723Z</time></trkpt><trkpt lat="38.0282397" lon="15.7995448"><ele>513.0</ele><time>2026-04-25T08:16:53.72Z</time></trkpt><trkpt lat="38.0283214" lon="15.7994429"><ele>515.0</ele><time>2026-04-25T08:16:54.718Z</time></trkpt><trkpt lat="38.0283976" lon="15.7993466"><ele>517.0</ele><time>2026-04-25T08:16:55.727Z</time></trkpt><trkpt lat="38.028485" lon="15.7992462"><ele>519.0</ele><time>2026-04-25T08:16:56.738Z</time></trkpt><trkpt lat="38.0285856" lon="15.7991448"><ele>519.0</ele><time>2026-04-25T08:16:57.712Z</time></trkpt><trkpt lat="38.0286919" lon="15.799065"><ele>519.0</ele><time>2026-04-25T08:16:58.719Z</time></trkpt><trkpt lat="38.0287995" lon="15.7990036"><ele>519.0</ele><time>2026-04-25T08:16:59.722Z</time></trkpt><trkpt lat="38.028914" lon="15.7989561"><ele>519.0</ele><time>2026-04-25T08:17:00.74Z</time></trkpt><trkpt lat="38.0290355" lon="15.798917"><ele>522.0</ele><time>2026-04-25T08:17:01.723Z</time></trkpt><trkpt lat="38.0291512" lon="15.7988874"><ele>525.0</ele><time>2026-04-25T08:17:02.714Z</time></trkpt><trkpt lat="38.0292555" lon="15.7988641"><ele>528.0</ele><time>2026-04-25T08:17:03.729Z</time></trkpt><trkpt lat="38.0293501" lon="15.7988434"><ele>531.0</ele><time>2026-04-25T08:17:04.71Z</time></trkpt><trkpt lat="38.0294394" lon="15.7988403"><ele>534.0</ele><time>2026-04-25T08:17:05.731Z</time></trkpt><trkpt lat="38.0295315" lon="15.7988482"><ele>534.0</ele><time>2026-04-25T08:17:06.717Z</time></trkpt><trkpt lat="38.0296397" lon="15.7988503"><ele>534.0</ele><time>2026-04-25T08:17:07.712Z</time></trkpt><trkpt lat="38.0297443" lon="15.7988447"><ele>534.0</ele><time>2026-04-25T08:17:08.725Z</time></trkpt><trkpt lat="38.0298467" lon="15.798834"><ele>534.0</ele><time>2026-04-25T08:17:09.713Z</time></trkpt><trkpt lat="38.0299505" lon="15.7988258"><ele>534.0</ele><time>2026-04-25T08:17:10.729Z</time></trkpt><trkpt lat="38.0300429" lon="15.7988345"><ele>537.1666666666666</ele><time>2026-04-25T08:17:11.717Z</time></trkpt><trkpt lat="38.0301212" lon="15.7988608"><ele>540.3333333333334</ele><time>2026-04-25T08:17:12.718Z</time></trkpt><trkpt lat="38.0301937" lon="15.7988977"><ele>543.5</ele><time>2026-04-25T08:17:13.725Z</time></trkpt><trkpt lat="38.0302666" lon="15.7989395"><ele>546.6666666666667</ele><time>2026-04-25T08:17:14.71Z</time></trkpt><trkpt lat="38.0303473" lon="15.7989757"><ele>549.8333333333334</ele><time>2026-04-25T08:17:15.716Z</time></trkpt><trkpt lat="38.0304123" lon="15.7990074"><ele>553.0</ele><time>2026-04-25T08:17:16.714Z</time></trkpt><trkpt lat="38.0304866" lon="15.7990368"><ele>553.0</ele><time>2026-04-25T08:17:18.714Z</time></trkpt><trkpt lat="38.0305722" lon="15.7990777"><ele>553.0</ele><time>2026-04-25T08:17:34.734Z</time></trkpt><trkpt lat="38.0306347" lon="15.7991126"><ele>553.0</ele><time>2026-04-25T08:17:35.713Z</time></trkpt><trkpt lat="38.0307203" lon="15.7991435"><ele>553.0</ele><time>2026-04-25T08:17:36.727Z</time></trkpt><trkpt lat="38.0308091" lon="15.7991624"><ele>553.0</ele><time>2026-04-25T08:17:37.733Z</time></trkpt><trkpt lat="38.0309033" lon="15.7991749"><ele>553.0</ele><time>2026-04-25T08:17:38.712Z</time></trkpt><trkpt lat="38.030997" lon="15.7991763"><ele>556.0</ele><time>2026-04-25T08:17:39.728Z</time></trkpt><trkpt lat="38.0310997" lon="15.799161"><ele>559.0</ele><time>2026-04-25T08:17:40.723Z</time></trkpt><trkpt lat="38.0312022" lon="15.7991485"><ele>562.0</ele><time>2026-04-25T08:17:41.732Z</time></trkpt><trkpt lat="38.0313114" lon="15.7991335"><ele>565.0</ele><time>2026-04-25T08:17:42.718Z</time></trkpt><trkpt lat="38.0314182" lon="15.7991179"><ele>568.0</ele><time>2026-04-25T08:17:43.718Z</time></trkpt><trkpt lat="38.0315225" lon="15.7991076"><ele>568.0</ele><time>2026-04-25T08:17:44.724Z</time></trkpt><trkpt lat="38.0316228" lon="15.7990935"><ele>568.0</ele><time>2026-04-25T08:17:45.726Z</time></trkpt><trkpt lat="38.031721" lon="15.7990779"><ele>568.0</ele><time>2026-04-25T08:17:46.737Z</time></trkpt><trkpt lat="38.0318125" lon="15.7990607"><ele>568.0</ele><time>2026-04-25T08:17:47.72Z</time></trkpt><trkpt lat="38.0318931" lon="15.7990512"><ele>568.0</ele><time>2026-04-25T08:17:48.72Z</time></trkpt><trkpt lat="38.0319661" lon="15.7990576"><ele>568.0</ele><time>2026-04-25T08:17:49.721Z</time></trkpt><trkpt lat="38.0320375" lon="15.7990855"><ele>569.0</ele><time>2026-04-25T08:17:50.717Z</time></trkpt><trkpt lat="38.0321095" lon="15.7991263"><ele>570.0</ele><time>2026-04-25T08:17:51.724Z</time></trkpt><trkpt lat="38.0321793" lon="15.7991525"><ele>571.0</ele><time>2026-04-25T08:17:52.722Z</time></trkpt><trkpt lat="38.032247" lon="15.7991515"><ele>572.0</ele><time>2026-04-25T08:17:53.73Z</time></trkpt><trkpt lat="38.0323184" lon="15.7991455"><ele>573.0</ele><time>2026-04-25T08:17:54.735Z</time></trkpt><trkpt lat="38.0323989" lon="15.799144"><ele>574.0</ele><time>2026-04-25T08:17:55.715Z</time></trkpt><trkpt lat="38.0324881" lon="15.7991535"><ele>576.0</ele><time>2026-04-25T08:17:56.754Z</time></trkpt><trkpt lat="38.0325804" lon="15.7991583"><ele>578.0</ele><time>2026-04-25T08:17:57.732Z</time></trkpt><trkpt lat="38.0326844" lon="15.7991521"><ele>580.0</ele><time>2026-04-25T08:17:58.721Z</time></trkpt><trkpt lat="38.0327908" lon="15.7991375"><ele>582.0</ele><time>2026-04-25T08:17:59.74Z</time></trkpt><trkpt lat="38.032906" lon="15.7991196"><ele>584.0</ele><time>2026-04-25T08:18:00.729Z</time></trkpt><trkpt lat="38.0330214" lon="15.7990989"><ele>584.0</ele><time>2026-04-25T08:18:01.754Z</time></trkpt><trkpt lat="38.0331385" lon="15.7990769"><ele>584.0</ele><time>2026-04-25T08:18:02.722Z</time></trkpt><trkpt lat="38.0332532" lon="15.7990459"><ele>584.0</ele><time>2026-04-25T08:18:03.724Z</time></trkpt><trkpt lat="38.0333646" lon="15.7990143"><ele>584.0</ele><time>2026-04-25T08:18:04.736Z</time></trkpt><trkpt lat="38.0334695" lon="15.7989885"><ele>585.8333333333333</ele><time>2026-04-25T08:18:05.73Z</time></trkpt><trkpt lat="38.0335688" lon="15.7989726"><ele>587.6666666666666</ele><time>2026-04-25T08:18:06.722Z</time></trkpt><trkpt lat="38.0336539" lon="15.798949"><ele>589.5</ele><time>2026-04-25T08:18:07.725Z</time></trkpt><trkpt lat="38.0337111" lon="15.798903"><ele>591.3333333333334</ele><time>2026-04-25T08:18:08.738Z</time></trkpt><trkpt lat="38.0337639" lon="15.798835"><ele>593.1666666666667</ele><time>2026-04-25T08:18:09.727Z</time></trkpt><trkpt lat="38.0338196" lon="15.7987751"><ele>595.0</ele><time>2026-04-25T08:18:10.733Z</time></trkpt><trkpt lat="38.0338921" lon="15.7987398"><ele>595.0</ele><time>2026-04-25T08:18:11.731Z</time></trkpt><trkpt lat="38.0339683" lon="15.7987193"><ele>595.0</ele><time>2026-04-25T08:18:12.728Z</time></trkpt><trkpt lat="38.0340515" lon="15.7987153"><ele>595.0</ele><time>2026-04-25T08:18:13.728Z</time></trkpt><trkpt lat="38.0341426" lon="15.7987216"><ele>595.0</ele><time>2026-04-25T08:18:14.726Z</time></trkpt><trkpt lat="38.0342435" lon="15.7987373"><ele>595.0</ele><time>2026-04-25T08:18:15.736Z</time></trkpt><trkpt lat="38.0343504" lon="15.7987449"><ele>597.75</ele><time>2026-04-25T08:18:16.733Z</time></trkpt><trkpt lat="38.0344734" lon="15.7987439"><ele>600.5</ele><time>2026-04-25T08:18:17.745Z</time></trkpt><trkpt lat="38.0346013" lon="15.7987363"><ele>603.25</ele><time>2026-04-25T08:18:18.728Z</time></trkpt><trkpt lat="38.0347219" lon="15.7987287"><ele>606.0</ele><time>2026-04-25T08:18:19.754Z</time></trkpt><trkpt lat="38.0348238" lon="15.7987192"><ele>606.0</ele><time>2026-04-25T08:18:20.72Z</time></trkpt><trkpt lat="38.034926" lon="15.7987003"><ele>606.0</ele><time>2026-04-25T08:18:21.734Z</time></trkpt><trkpt lat="38.0350298" lon="15.7986734"><ele>606.0</ele><time>2026-04-25T08:18:22.723Z</time></trkpt><trkpt lat="38.0351369" lon="15.7986397"><ele>606.0</ele><time>2026-04-25T08:18:23.73Z</time></trkpt><trkpt lat="38.0352428" lon="15.7986008"><ele>606.0</ele><time>2026-04-25T08:18:24.722Z</time></trkpt><trkpt lat="38.0353443" lon="15.7985594"><ele>608.5</ele><time>2026-04-25T08:18:25.73Z</time></trkpt><trkpt lat="38.0354487" lon="15.7985074"><ele>611.0</ele><time>2026-04-25T08:18:26.732Z</time></trkpt><trkpt lat="38.035564" lon="15.798447"><ele>613.5</ele><time>2026-04-25T08:18:27.732Z</time></trkpt><trkpt lat="38.0356774" lon="15.7983882"><ele>616.0</ele><time>2026-04-25T08:18:28.738Z</time></trkpt><trkpt lat="38.0357916" lon="15.7983306"><ele>612.5</ele><time>2026-04-25T08:18:29.739Z</time></trkpt><trkpt lat="38.035901" lon="15.7982709"><ele>609.0</ele><time>2026-04-25T08:18:30.726Z</time></trkpt><trkpt lat="38.0360053" lon="15.7982054"><ele>605.5</ele><time>2026-04-25T08:18:31.722Z</time></trkpt><trkpt lat="38.0361082" lon="15.7981352"><ele>602.0</ele><time>2026-04-25T08:18:32.741Z</time></trkpt><trkpt lat="38.0362146" lon="15.7980668"><ele>602.0</ele><time>2026-04-25T08:18:33.73Z</time></trkpt><trkpt lat="38.0363209" lon="15.7980056"><ele>602.0</ele><time>2026-04-25T08:18:34.743Z</time></trkpt><trkpt lat="38.036433" lon="15.7979571"><ele>602.0</ele><time>2026-04-25T08:18:35.746Z</time></trkpt><trkpt lat="38.036544" lon="15.7979071"><ele>602.0</ele><time>2026-04-25T08:18:36.746Z</time></trkpt><trkpt lat="38.0366612" lon="15.7978586"><ele>602.0</ele><time>2026-04-25T08:18:37.732Z</time></trkpt><trkpt lat="38.0367762" lon="15.7978101"><ele>602.0</ele><time>2026-04-25T08:18:38.732Z</time></trkpt><trkpt lat="38.0368855" lon="15.7977529"><ele>602.0</ele><time>2026-04-25T08:18:39.733Z</time></trkpt><trkpt lat="38.0369978" lon="15.7976872"><ele>602.0</ele><time>2026-04-25T08:18:40.726Z</time></trkpt><trkpt lat="38.0370978" lon="15.7976319"><ele>602.0</ele><time>2026-04-25T08:18:41.728Z</time></trkpt><trkpt lat="38.0371828" lon="15.7975851"><ele>602.0</ele><time>2026-04-25T08:18:42.732Z</time></trkpt><trkpt lat="38.0372577" lon="15.7975255"><ele>602.0</ele><time>2026-04-25T08:18:43.745Z</time></trkpt><trkpt lat="38.0373361" lon="15.7974551"><ele>602.0</ele><time>2026-04-25T08:18:44.743Z</time></trkpt><trkpt lat="38.0374187" lon="15.7973928"><ele>602.0</ele><time>2026-04-25T08:18:45.744Z</time></trkpt><trkpt lat="38.0375094" lon="15.7973401"><ele>604.8000000000001</ele><time>2026-04-25T08:18:46.741Z</time></trkpt><trkpt lat="38.0376046" lon="15.7972918"><ele>607.6</ele><time>2026-04-25T08:18:47.729Z</time></trkpt><trkpt lat="38.0376994" lon="15.7972458"><ele>610.4000000000001</ele><time>2026-04-25T08:18:48.748Z</time></trkpt><trkpt lat="38.0377967" lon="15.7972077"><ele>613.2</ele><time>2026-04-25T08:18:49.73Z</time></trkpt><trkpt lat="38.0378944" lon="15.7971773"><ele>616.0</ele><time>2026-04-25T08:18:50.733Z</time></trkpt><trkpt lat="38.0380002" lon="15.7971582"><ele>616.0</ele><time>2026-04-25T08:18:51.759Z</time></trkpt><trkpt lat="38.0381153" lon="15.7971489"><ele>616.0</ele><time>2026-04-25T08:18:52.731Z</time></trkpt><trkpt lat="38.0382229" lon="15.797138"><ele>616.0</ele><time>2026-04-25T08:18:53.732Z</time></trkpt><trkpt lat="38.0383245" lon="15.7971199"><ele>616.0</ele><time>2026-04-25T08:18:54.741Z</time></trkpt><trkpt lat="38.038425" lon="15.7971035"><ele>616.0</ele><time>2026-04-25T08:18:55.745Z</time></trkpt><trkpt lat="38.0385213" lon="15.7970956"><ele>618.0</ele><time>2026-04-25T08:18:56.745Z</time></trkpt><trkpt lat="38.0386067" lon="15.7971024"><ele>620.0</ele><time>2026-04-25T08:18:57.742Z</time></trkpt><trkpt lat="38.0386925" lon="15.7971185"><ele>622.0</ele><time>2026-04-25T08:18:58.733Z</time></trkpt><trkpt lat="38.0387835" lon="15.797138"><ele>624.0</ele><time>2026-04-25T08:18:59.734Z</time></trkpt><trkpt lat="38.0388738" lon="15.7971633"><ele>626.0</ele><time>2026-04-25T08:19:00.736Z</time></trkpt><trkpt lat="38.038971" lon="15.7971865"><ele>626.0</ele><time>2026-04-25T08:19:01.732Z</time></trkpt><trkpt lat="38.0390699" lon="15.7972111"><ele>626.0</ele><time>2026-04-25T08:19:02.741Z</time></trkpt><trkpt lat="38.0391559" lon="15.7972328"><ele>626.0</ele><time>2026-04-25T08:19:03.75Z</time></trkpt><trkpt lat="38.0392297" lon="15.7972494"><ele>626.0</ele><time>2026-04-25T08:19:04.735Z</time></trkpt><trkpt lat="38.0393291" lon="15.7973018"><ele>626.0</ele><time>2026-04-25T08:19:06.733Z</time></trkpt><trkpt lat="38.0393733" lon="15.7974231"><ele>627.6</ele><time>2026-04-25T08:19:08.733Z</time></trkpt><trkpt lat="38.0394063" lon="15.7975087"><ele>629.2</ele><time>2026-04-25T08:19:09.752Z</time></trkpt><trkpt lat="38.0394444" lon="15.7976059"><ele>630.8</ele><time>2026-04-25T08:19:10.748Z</time></trkpt><trkpt lat="38.0394896" lon="15.7977269"><ele>632.4</ele><time>2026-04-25T08:19:11.733Z</time></trkpt><trkpt lat="38.0395428" lon="15.7978627"><ele>634.0</ele><time>2026-04-25T08:19:12.735Z</time></trkpt><trkpt lat="38.0396006" lon="15.7979793"><ele>635.1666666666667</ele><time>2026-04-25T08:19:13.742Z</time></trkpt><trkpt lat="38.0396565" lon="15.7980885"><ele>636.3333333333334</ele><time>2026-04-25T08:19:14.739Z</time></trkpt><trkpt lat="38.0397019" lon="15.7981914"><ele>637.5</ele><time>2026-04-25T08:19:15.751Z</time></trkpt><trkpt lat="38.0397268" lon="15.7982703"><ele>638.6666666666666</ele><time>2026-04-25T08:19:16.752Z</time></trkpt><trkpt lat="38.0397836" lon="15.798324"><ele>639.8333333333333</ele><time>2026-04-25T08:19:18.737Z</time></trkpt><trkpt lat="38.0398695" lon="15.7983333"><ele>641.0</ele><time>2026-04-25T08:19:21.74Z</time></trkpt><trkpt lat="38.0399723" lon="15.7982839"><ele>643.8</ele><time>2026-04-25T08:19:23.75Z</time></trkpt><trkpt lat="38.04005" lon="15.798259"><ele>646.5999999999999</ele><time>2026-04-25T08:19:24.746Z</time></trkpt><trkpt lat="38.0401525" lon="15.7982376"><ele>649.4</ele><time>2026-04-25T08:19:25.734Z</time></trkpt><trkpt lat="38.0402679" lon="15.7982095"><ele>652.2</ele><time>2026-04-25T08:19:26.741Z</time></trkpt><trkpt lat="38.040385" lon="15.7981716"><ele>655.0</ele><time>2026-04-25T08:19:27.734Z</time></trkpt><trkpt lat="38.0404984" lon="15.7981372"><ele>655.0</ele><time>2026-04-25T08:19:28.734Z</time></trkpt><trkpt lat="38.0406171" lon="15.7981082"><ele>655.0</ele><time>2026-04-25T08:19:29.743Z</time></trkpt><trkpt lat="38.0407308" lon="15.7980767"><ele>655.0</ele><time>2026-04-25T08:19:30.733Z</time></trkpt><trkpt lat="38.0408371" lon="15.798038"><ele>655.0</ele><time>2026-04-25T08:19:31.734Z</time></trkpt><trkpt lat="38.040941" lon="15.7979948"><ele>659.8</ele><time>2026-04-25T08:19:32.739Z</time></trkpt><trkpt lat="38.0410427" lon="15.797948"><ele>664.6</ele><time>2026-04-25T08:19:33.742Z</time></trkpt><trkpt lat="38.0411427" lon="15.7979042"><ele>669.4000000000001</ele><time>2026-04-25T08:19:34.741Z</time></trkpt><trkpt lat="38.0412495" lon="15.7978646"><ele>674.2</ele><time>2026-04-25T08:19:35.75Z</time></trkpt><trkpt lat="38.0413583" lon="15.7978236"><ele>679.0</ele><time>2026-04-25T08:19:36.736Z</time></trkpt><trkpt lat="38.0414506" lon="15.7977947"><ele>679.0</ele><time>2026-04-25T08:19:37.739Z</time></trkpt><trkpt lat="38.0415273" lon="15.7977759"><ele>679.0</ele><time>2026-04-25T08:19:38.736Z</time></trkpt><trkpt lat="38.0415964" lon="15.7977656"><ele>679.0</ele><time>2026-04-25T08:19:39.743Z</time></trkpt><trkpt lat="38.0417027" lon="15.7977609"><ele>679.0</ele><time>2026-04-25T08:19:41.737Z</time></trkpt><trkpt lat="38.041642" lon="15.7978458"><ele>679.0</ele><time>2026-04-25T08:19:46.732Z</time></trkpt><trkpt lat="38.0415408" lon="15.7978856"><ele>679.0</ele><time>2026-04-25T08:19:48.738Z</time></trkpt><trkpt lat="38.0414143" lon="15.797968"><ele>679.0</ele><time>2026-04-25T08:19:50.736Z</time></trkpt><trkpt lat="38.0413374" lon="15.7980474"><ele>679.0</ele><time>2026-04-25T08:19:51.733Z</time></trkpt><trkpt lat="38.0412763" lon="15.7981305"><ele>679.0</ele><time>2026-04-25T08:19:52.739Z</time></trkpt><trkpt lat="38.0412307" lon="15.7981983"><ele>679.0</ele><time>2026-04-25T08:19:53.759Z</time></trkpt><trkpt lat="38.0412222" lon="15.7982807"><ele>679.0</ele><time>2026-04-25T08:19:55.744Z</time></trkpt><trkpt lat="38.0412956" lon="15.7983537"><ele>679.0</ele><time>2026-04-25T08:19:57.741Z</time></trkpt><trkpt lat="38.0413652" lon="15.7984004"><ele>679.0</ele><time>2026-04-25T08:19:58.736Z</time></trkpt><trkpt lat="38.0414287" lon="15.798445"><ele>679.0</ele><time>2026-04-25T08:19:59.754Z</time></trkpt><trkpt lat="38.0414839" lon="15.7984906"><ele>679.0</ele><time>2026-04-25T08:20:00.74Z</time></trkpt><trkpt lat="38.0415767" lon="15.798583"><ele>679.0</ele><time>2026-04-25T08:20:02.748Z</time></trkpt><trkpt lat="38.0416502" lon="15.798641"><ele>684.0</ele><time>2026-04-25T08:20:03.743Z</time></trkpt><trkpt lat="38.0417213" lon="15.7987185"><ele>689.0</ele><time>2026-04-25T08:20:04.769Z</time></trkpt><trkpt lat="38.0417797" lon="15.7987918"><ele>694.0</ele><time>2026-04-25T08:20:05.754Z</time></trkpt><trkpt lat="38.0418286" lon="15.7988683"><ele>699.0</ele><time>2026-04-25T08:20:06.75Z</time></trkpt><trkpt lat="38.0418603" lon="15.7989599"><ele>704.0</ele><time>2026-04-25T08:20:07.743Z</time></trkpt><trkpt lat="38.04189" lon="15.7990591"><ele>709.0</ele><time>2026-04-25T08:20:08.737Z</time></trkpt><trkpt lat="38.041921" lon="15.799169"><ele>709.0</ele><time>2026-04-25T08:20:09.751Z</time></trkpt><trkpt lat="38.0419571" lon="15.7992816"><ele>709.0</ele><time>2026-04-25T08:20:10.74Z</time></trkpt><trkpt lat="38.0419888" lon="15.7993959"><ele>709.0</ele><time>2026-04-25T08:20:11.737Z</time></trkpt><trkpt lat="38.0420202" lon="15.7994788"><ele>709.0</ele><time>2026-04-25T08:20:12.747Z</time></trkpt><trkpt lat="38.0420635" lon="15.7995722"><ele>709.0</ele><time>2026-04-25T08:20:14.742Z</time></trkpt><trkpt lat="38.0421216" lon="15.7995372"><ele>709.0</ele><time>2026-04-25T08:20:17.748Z</time></trkpt><trkpt lat="38.0420772" lon="15.7994085"><ele>709.0</ele><time>2026-04-25T08:20:21.743Z</time></trkpt><trkpt lat="38.0420633" lon="15.7993242"><ele>709.0</ele><time>2026-04-25T08:20:22.751Z</time></trkpt><trkpt lat="38.0420738" lon="15.799209"><ele>709.0</ele><time>2026-04-25T08:20:23.755Z</time></trkpt><trkpt lat="38.0420863" lon="15.7990751"><ele>709.0</ele><time>2026-04-25T08:20:24.733Z</time></trkpt><trkpt lat="38.0420966" lon="15.7989425"><ele>709.0</ele><time>2026-04-25T08:20:25.738Z</time></trkpt><trkpt lat="38.0421074" lon="15.7988127"><ele>709.0</ele><time>2026-04-25T08:20:26.747Z</time></trkpt><trkpt lat="38.0421097" lon="15.7987231"><ele>709.0</ele><time>2026-04-25T08:20:27.764Z</time></trkpt><trkpt lat="38.0420765" lon="15.7986056"><ele>709.0</ele><time>2026-04-25T08:20:29.758Z</time></trkpt><trkpt lat="38.0420587" lon="15.7985201"><ele>709.0</ele><time>2026-04-25T08:20:30.75Z</time></trkpt><trkpt lat="38.0420578" lon="15.7984221"><ele>709.0</ele><time>2026-04-25T08:20:31.756Z</time></trkpt><trkpt lat="38.0420873" lon="15.7983398"><ele>709.0</ele><time>2026-04-25T08:20:32.748Z</time></trkpt><trkpt lat="38.0421531" lon="15.7982832"><ele>710.0</ele><time>2026-04-25T08:20:33.764Z</time></trkpt><trkpt lat="38.0422253" lon="15.7982247"><ele>711.0</ele><time>2026-04-25T08:20:34.751Z</time></trkpt><trkpt lat="38.0422966" lon="15.7981616"><ele>712.0</ele><time>2026-04-25T08:20:35.759Z</time></trkpt><trkpt lat="38.0423608" lon="15.7981083"><ele>713.0</ele><time>2026-04-25T08:20:36.746Z</time></trkpt><trkpt lat="38.0424409" lon="15.798092"><ele>714.0</ele><time>2026-04-25T08:20:37.756Z</time></trkpt><trkpt lat="38.0425193" lon="15.7980835"><ele>715.0</ele><time>2026-04-25T08:20:38.749Z</time></trkpt><trkpt lat="38.0425878" lon="15.7980701"><ele>722.1666666666667</ele><time>2026-04-25T08:20:39.751Z</time></trkpt><trkpt lat="38.0426946" lon="15.7980518"><ele>729.3333333333334</ele><time>2026-04-25T08:20:41.739Z</time></trkpt><trkpt lat="38.0427545" lon="15.7979729"><ele>736.5</ele><time>2026-04-25T08:20:43.737Z</time></trkpt><trkpt lat="38.042789" lon="15.7978989"><ele>743.6666666666666</ele><time>2026-04-25T08:20:44.738Z</time></trkpt><trkpt lat="38.0428292" lon="15.797813"><ele>750.8333333333333</ele><time>2026-04-25T08:20:45.751Z</time></trkpt><trkpt lat="38.0428808" lon="15.7977609"><ele>758.0</ele><time>2026-04-25T08:20:46.751Z</time></trkpt><trkpt lat="38.0429693" lon="15.797757"><ele>758.0</ele><time>2026-04-25T08:20:48.742Z</time></trkpt><trkpt lat="38.0430533" lon="15.7978362"><ele>758.0</ele><time>2026-04-25T08:20:50.746Z</time></trkpt><trkpt lat="38.0431058" lon="15.7978825"><ele>758.0</ele><time>2026-04-25T08:20:51.74Z</time></trkpt><trkpt lat="38.0431644" lon="15.7979211"><ele>758.0</ele><time>2026-04-25T08:20:52.742Z</time></trkpt><trkpt lat="38.0432283" lon="15.7979469"><ele>758.0</ele><time>2026-04-25T08:20:53.742Z</time></trkpt><trkpt lat="38.0433411" lon="15.7979967"><ele>758.0</ele><time>2026-04-25T08:20:55.755Z</time></trkpt><trkpt lat="38.0434249" lon="15.7980329"><ele>758.0</ele><time>2026-04-25T08:20:57.736Z</time></trkpt><trkpt lat="38.0434067" lon="15.7981168"><ele>758.0</ele><time>2026-04-25T08:21:01.758Z</time></trkpt><trkpt lat="38.0433305" lon="15.7981088"><ele>758.0</ele><time>2026-04-25T08:21:04.76Z</time></trkpt><trkpt lat="38.0432442" lon="15.7981017"><ele>758.0</ele><time>2026-04-25T08:21:07.751Z</time></trkpt><trkpt lat="38.0431637" lon="15.7981134"><ele>758.0</ele><time>2026-04-25T08:21:10.748Z</time></trkpt><trkpt lat="38.0430345" lon="15.7981459"><ele>758.0</ele><time>2026-04-25T08:21:12.762Z</time></trkpt><trkpt lat="38.0429589" lon="15.7982511"><ele>758.0</ele><time>2026-04-25T08:21:14.747Z</time></trkpt><trkpt lat="38.0429208" lon="15.7983318"><ele>758.0</ele><time>2026-04-25T08:21:15.748Z</time></trkpt><trkpt lat="38.0428689" lon="15.7984233"><ele>758.0</ele><time>2026-04-25T08:21:16.75Z</time></trkpt><trkpt lat="38.0428142" lon="15.7985219"><ele>758.0</ele><time>2026-04-25T08:21:17.75Z</time></trkpt><trkpt lat="38.0427798" lon="15.7985993"><ele>758.0</ele><time>2026-04-25T08:21:18.749Z</time></trkpt><trkpt lat="38.0428398" lon="15.7986404"><ele>758.0</ele><time>2026-04-25T08:21:23.762Z</time></trkpt><trkpt lat="38.0429188" lon="15.7985458"><ele>758.0</ele><time>2026-04-25T08:21:25.752Z</time></trkpt><trkpt lat="38.0429717" lon="15.7984886"><ele>758.0</ele><time>2026-04-25T08:21:26.752Z</time></trkpt><trkpt lat="38.0430256" lon="15.7984428"><ele>758.0</ele><time>2026-04-25T08:21:27.75Z</time></trkpt><trkpt lat="38.0430937" lon="15.7984164"><ele>758.0</ele><time>2026-04-25T08:21:28.76Z</time></trkpt><trkpt lat="38.0431759" lon="15.7984277"><ele>758.0</ele><time>2026-04-25T08:21:29.763Z</time></trkpt><trkpt lat="38.0432576" lon="15.7984456"><ele>758.0</ele><time>2026-04-25T08:21:30.76Z</time></trkpt><trkpt lat="38.0433362" lon="15.7984624"><ele>758.6666666666666</ele><time>2026-04-25T08:21:31.755Z</time></trkpt><trkpt lat="38.043421" lon="15.7984979"><ele>759.3333333333333</ele><time>2026-04-25T08:21:33.755Z</time></trkpt><trkpt lat="38.0433698" lon="15.7985652"><ele>760.0</ele><time>2026-04-25T08:21:38.753Z</time></trkpt><trkpt lat="38.0432471" lon="15.798574"><ele>760.6666666666666</ele><time>2026-04-25T08:21:40.765Z</time></trkpt><trkpt lat="38.0431776" lon="15.798604"><ele>761.3333333333334</ele><time>2026-04-25T08:21:41.762Z</time></trkpt><trkpt lat="38.0431226" lon="15.7986441"><ele>762.0</ele><time>2026-04-25T08:21:42.755Z</time></trkpt><trkpt lat="38.0430726" lon="15.7987417"><ele>762.0</ele><time>2026-04-25T08:21:44.756Z</time></trkpt><trkpt lat="38.0430925" lon="15.7988312"><ele>762.0</ele><time>2026-04-25T08:21:46.764Z</time></trkpt><trkpt lat="38.0431735" lon="15.7988995"><ele>762.0</ele><time>2026-04-25T08:21:48.755Z</time></trkpt><trkpt lat="38.0432354" lon="15.798935"><ele>762.0</ele><time>2026-04-25T08:21:49.767Z</time></trkpt><trkpt lat="38.0433066" lon="15.7989717"><ele>762.0</ele><time>2026-04-25T08:21:50.756Z</time></trkpt><trkpt lat="38.0433893" lon="15.7990106"><ele>762.0</ele><time>2026-04-25T08:21:51.766Z</time></trkpt><trkpt lat="38.0434737" lon="15.7990443"><ele>765.5</ele><time>2026-04-25T08:21:52.749Z</time></trkpt><trkpt lat="38.0435517" lon="15.7990793"><ele>769.0</ele><time>2026-04-25T08:21:53.759Z</time></trkpt><trkpt lat="38.0436177" lon="15.7991246"><ele>772.5</ele><time>2026-04-25T08:21:54.753Z</time></trkpt><trkpt lat="38.0436752" lon="15.7991746"><ele>776.0</ele><time>2026-04-25T08:21:55.769Z</time></trkpt><trkpt lat="38.0437326" lon="15.7992401"><ele>779.5</ele><time>2026-04-25T08:21:56.757Z</time></trkpt><trkpt lat="38.043789" lon="15.7993095"><ele>783.0</ele><time>2026-04-25T08:21:57.758Z</time></trkpt><trkpt lat="38.0438473" lon="15.7993904"><ele>783.0</ele><time>2026-04-25T08:21:58.756Z</time></trkpt><trkpt lat="38.0439068" lon="15.7994736"><ele>783.0</ele><time>2026-04-25T08:21:59.763Z</time></trkpt><trkpt lat="38.043965" lon="15.7995501"><ele>783.0</ele><time>2026-04-25T08:22:00.765Z</time></trkpt><trkpt lat="38.0440196" lon="15.7996127"><ele>783.0</ele><time>2026-04-25T08:22:01.772Z</time></trkpt><trkpt lat="38.0440723" lon="15.7996706"><ele>783.0</ele><time>2026-04-25T08:22:02.761Z</time></trkpt><trkpt lat="38.0441404" lon="15.7997242"><ele>783.0</ele><time>2026-04-25T08:22:03.752Z</time></trkpt><trkpt lat="38.0442094" lon="15.7997627"><ele>791.0</ele><time>2026-04-25T08:22:04.754Z</time></trkpt><trkpt lat="38.0442761" lon="15.7997927"><ele>799.0</ele><time>2026-04-25T08:22:05.756Z</time></trkpt><trkpt lat="38.0443357" lon="15.7998285"><ele>807.0</ele><time>2026-04-25T08:22:06.751Z</time></trkpt><trkpt lat="38.0443947" lon="15.7998648"><ele>815.0</ele><time>2026-04-25T08:22:07.755Z</time></trkpt><trkpt lat="38.0444769" lon="15.7999768"><ele>823.0</ele><time>2026-04-25T08:22:09.756Z</time></trkpt><trkpt lat="38.0445267" lon="15.8000851"><ele>831.0</ele><time>2026-04-25T08:22:11.754Z</time></trkpt><trkpt lat="38.0445955" lon="15.8001626"><ele>833.0</ele><time>2026-04-25T08:22:13.757Z</time></trkpt><trkpt lat="38.0447079" lon="15.8002375"><ele>835.0</ele><time>2026-04-25T08:22:15.764Z</time></trkpt><trkpt lat="38.0447926" lon="15.8003102"><ele>837.0</ele><time>2026-04-25T08:22:17.771Z</time></trkpt><trkpt lat="38.0447759" lon="15.8004333"><ele>839.0</ele><time>2026-04-25T08:22:19.767Z</time></trkpt><trkpt lat="38.0447292" lon="15.8005009"><ele>841.0</ele><time>2026-04-25T08:22:20.765Z</time></trkpt><trkpt lat="38.0446804" lon="15.8005631"><ele>841.0</ele><time>2026-04-25T08:22:21.753Z</time></trkpt><trkpt lat="38.0446227" lon="15.8006733"><ele>841.0</ele><time>2026-04-25T08:22:23.76Z</time></trkpt><trkpt lat="38.0445533" lon="15.8007847"><ele>841.0</ele><time>2026-04-25T08:22:25.768Z</time></trkpt><trkpt lat="38.0444648" lon="15.8008507"><ele>841.0</ele><time>2026-04-25T08:22:27.759Z</time></trkpt><trkpt lat="38.0444106" lon="15.8008931"><ele>841.0</ele><time>2026-04-25T08:22:28.766Z</time></trkpt><trkpt lat="38.0443587" lon="15.8009533"><ele>841.0</ele><time>2026-04-25T08:22:29.762Z</time></trkpt><trkpt lat="38.0443091" lon="15.8010215"><ele>841.0</ele><time>2026-04-25T08:22:31.774Z</time></trkpt><trkpt lat="38.0443998" lon="15.8010354"><ele>841.0</ele><time>2026-04-25T08:22:35.775Z</time></trkpt><trkpt lat="38.0444857" lon="15.8009829"><ele>841.0</ele><time>2026-04-25T08:22:37.774Z</time></trkpt><trkpt lat="38.0446063" lon="15.8009345"><ele>841.0</ele><time>2026-04-25T08:22:39.768Z</time></trkpt><trkpt lat="38.0446746" lon="15.8009036"><ele>841.0</ele><time>2026-04-25T08:22:40.769Z</time></trkpt><trkpt lat="38.0447376" lon="15.8008693"><ele>841.0</ele><time>2026-04-25T08:22:41.77Z</time></trkpt><trkpt lat="38.0448002" lon="15.8008309"><ele>841.0</ele><time>2026-04-25T08:22:42.773Z</time></trkpt><trkpt lat="38.0448626" lon="15.8008136"><ele>841.0</ele><time>2026-04-25T08:22:43.786Z</time></trkpt><trkpt lat="38.0449289" lon="15.8008036"><ele>841.0</ele><time>2026-04-25T08:22:44.764Z</time></trkpt><trkpt lat="38.0450006" lon="15.800793"><ele>841.0</ele><time>2026-04-25T08:22:45.776Z</time></trkpt><trkpt lat="38.0450665" lon="15.8007895"><ele>841.0</ele><time>2026-04-25T08:22:46.767Z</time></trkpt><trkpt lat="38.0451754" lon="15.8007543"><ele>846.6666666666666</ele><time>2026-04-25T08:22:48.78Z</time></trkpt><trkpt lat="38.0452528" lon="15.800671"><ele>852.3333333333333</ele><time>2026-04-25T08:22:50.776Z</time></trkpt><trkpt lat="38.045302" lon="15.8006169"><ele>858.0</ele><time>2026-04-25T08:22:51.778Z</time></trkpt><trkpt lat="38.0453443" lon="15.8004989"><ele>863.6666666666667</ele><time>2026-04-25T08:22:53.769Z</time></trkpt><trkpt lat="38.0453183" lon="15.8004196"><ele>869.3333333333334</ele><time>2026-04-25T08:22:54.77Z</time></trkpt><trkpt lat="38.0452691" lon="15.8003433"><ele>875.0</ele><time>2026-04-25T08:22:55.775Z</time></trkpt><trkpt lat="38.0452232" lon="15.8002485"><ele>875.5000000000001</ele><time>2026-04-25T08:22:56.776Z</time></trkpt><trkpt lat="38.045184" lon="15.8001587"><ele>876.0</ele><time>2026-04-25T08:22:57.778Z</time></trkpt><trkpt lat="38.0451547" lon="15.8000641"><ele>876.5</ele><time>2026-04-25T08:22:58.793Z</time></trkpt><trkpt lat="38.0451156" lon="15.7999611"><ele>877.0</ele><time>2026-04-25T08:22:59.778Z</time></trkpt><trkpt lat="38.0450788" lon="15.7998795"><ele>877.5000000000001</ele><time>2026-04-25T08:23:00.778Z</time></trkpt><trkpt lat="38.0450397" lon="15.7997989"><ele>878.0</ele><time>2026-04-25T08:23:01.784Z</time></trkpt><trkpt lat="38.0450093" lon="15.7997125"><ele>878.0</ele><time>2026-04-25T08:23:02.775Z</time></trkpt><trkpt lat="38.0449869" lon="15.7995723"><ele>878.0</ele><time>2026-04-25T08:23:04.683Z</time></trkpt><trkpt lat="38.0450501" lon="15.7995728"><ele>878.0</ele><time>2026-04-25T08:23:08.695Z</time></trkpt><trkpt lat="38.0450798" lon="15.7996914"><ele>878.0</ele><time>2026-04-25T08:23:10.68Z</time></trkpt><trkpt lat="38.0451323" lon="15.7997853"><ele>878.0</ele><time>2026-04-25T08:23:12.685Z</time></trkpt><trkpt lat="38.0452199" lon="15.7998634"><ele>878.0</ele><time>2026-04-25T08:23:14.684Z</time></trkpt><trkpt lat="38.0452751" lon="15.7999159"><ele>878.0</ele><time>2026-04-25T08:23:15.695Z</time></trkpt><trkpt lat="38.0453308" lon="15.7999752"><ele>878.0</ele><time>2026-04-25T08:23:16.694Z</time></trkpt><trkpt lat="38.0453875" lon="15.8000413"><ele>878.0</ele><time>2026-04-25T08:23:17.705Z</time></trkpt><trkpt lat="38.0454439" lon="15.8000984"><ele>878.0</ele><time>2026-04-25T08:23:18.697Z</time></trkpt><trkpt lat="38.0455032" lon="15.8001551"><ele>878.0</ele><time>2026-04-25T08:23:19.702Z</time></trkpt><trkpt lat="38.0455771" lon="15.8001973"><ele>878.0</ele><time>2026-04-25T08:23:20.699Z</time></trkpt><trkpt lat="38.0456499" lon="15.8002203"><ele>877.5000000000001</ele><time>2026-04-25T08:23:21.712Z</time></trkpt><trkpt lat="38.0457221" lon="15.8002203"><ele>877.0</ele><time>2026-04-25T08:23:22.696Z</time></trkpt><trkpt lat="38.0457996" lon="15.8002158"><ele>876.5</ele><time>2026-04-25T08:23:23.704Z</time></trkpt><trkpt lat="38.0458658" lon="15.8002211"><ele>876.0</ele><time>2026-04-25T08:23:24.707Z</time></trkpt><trkpt lat="38.0459703" lon="15.8002721"><ele>875.5000000000001</ele><time>2026-04-25T08:23:26.705Z</time></trkpt><trkpt lat="38.0459731" lon="15.8003833"><ele>875.0</ele><time>2026-04-25T08:23:28.704Z</time></trkpt><trkpt lat="38.0459236" lon="15.8005066"><ele>875.0000000000001</ele><time>2026-04-25T08:23:30.711Z</time></trkpt><trkpt lat="38.0458938" lon="15.8005802"><ele>875.0</ele><time>2026-04-25T08:23:31.718Z</time></trkpt><trkpt lat="38.0458676" lon="15.8006666"><ele>875.0</ele><time>2026-04-25T08:23:32.731Z</time></trkpt><trkpt lat="38.0458439" lon="15.8007603"><ele>875.0</ele><time>2026-04-25T08:23:33.737Z</time></trkpt><trkpt lat="38.0458137" lon="15.8008532"><ele>875.0000000000001</ele><time>2026-04-25T08:23:34.717Z</time></trkpt><trkpt lat="38.0457943" lon="15.8009719"><ele>875.0</ele><time>2026-04-25T08:23:36.72Z</time></trkpt><trkpt lat="38.0458708" lon="15.8009411"><ele>880.3333333333334</ele><time>2026-04-25T08:23:40.74Z</time></trkpt><trkpt lat="38.0459342" lon="15.800833"><ele>885.6666666666667</ele><time>2026-04-25T08:23:42.73Z</time></trkpt><trkpt lat="38.0459682" lon="15.8007639"><ele>891.0</ele><time>2026-04-25T08:23:43.728Z</time></trkpt><trkpt lat="38.0460086" lon="15.8006965"><ele>896.3333333333333</ele><time>2026-04-25T08:23:44.737Z</time></trkpt><trkpt lat="38.0460963" lon="15.8006016"><ele>901.6666666666666</ele><time>2026-04-25T08:23:46.734Z</time></trkpt><trkpt lat="38.046181" lon="15.800542"><ele>907.0</ele><time>2026-04-25T08:23:48.734Z</time></trkpt><trkpt lat="38.0462375" lon="15.800489"><ele>906.9999999999999</ele><time>2026-04-25T08:23:50.733Z</time></trkpt><trkpt lat="38.0462868" lon="15.8004144"><ele>907.0</ele><time>2026-04-25T08:23:52.74Z</time></trkpt><trkpt lat="38.0463485" lon="15.8002866"><ele>907.0</ele><time>2026-04-25T08:23:54.742Z</time></trkpt><trkpt lat="38.0463865" lon="15.8002217"><ele>907.0</ele><time>2026-04-25T08:23:55.745Z</time></trkpt><trkpt lat="38.0464539" lon="15.800134"><ele>906.9999999999999</ele><time>2026-04-25T08:23:57.751Z</time></trkpt><trkpt lat="38.0465367" lon="15.8000796"><ele>907.0</ele><time>2026-04-25T08:24:00.743Z</time></trkpt><trkpt lat="38.0465989" lon="15.8001097"><ele>908.4999999999999</ele><time>2026-04-25T08:24:17.778Z</time></trkpt><trkpt lat="38.0466453" lon="15.8001651"><ele>910.0</ele><time>2026-04-25T08:24:43.698Z</time></trkpt><trkpt lat="38.0466878" lon="15.8002464"><ele>911.5</ele><time>2026-04-25T08:24:45.708Z</time></trkpt><trkpt lat="38.0467512" lon="15.8003219"><ele>913.0</ele><time>2026-04-25T08:24:47.695Z</time></trkpt><trkpt lat="38.0468245" lon="15.8003748"><ele>914.4999999999999</ele><time>2026-04-25T08:24:49.708Z</time></trkpt><trkpt lat="38.046881" lon="15.8004217"><ele>916.0</ele><time>2026-04-25T08:24:52.717Z</time></trkpt><trkpt lat="38.0468827" lon="15.8005506"><ele>915.6666666666666</ele><time>2026-04-25T08:24:55.719Z</time></trkpt><trkpt lat="38.0468599" lon="15.800649"><ele>915.3333333333333</ele><time>2026-04-25T08:24:57.735Z</time></trkpt><trkpt lat="38.0468246" lon="15.8007741"><ele>915.0</ele><time>2026-04-25T08:24:59.731Z</time></trkpt><trkpt lat="38.0468037" lon="15.8008883"><ele>914.6666666666667</ele><time>2026-04-25T08:25:01.723Z</time></trkpt><trkpt lat="38.0468299" lon="15.8009744"><ele>914.3333333333334</ele><time>2026-04-25T08:25:03.712Z</time></trkpt><trkpt lat="38.046861" lon="15.8010464"><ele>914.0</ele><time>2026-04-25T08:25:05.723Z</time></trkpt><trkpt lat="38.0469324" lon="15.8011005"><ele>914.0</ele><time>2026-04-25T08:25:07.724Z</time></trkpt><trkpt lat="38.0470244" lon="15.8011224"><ele>914.0000000000001</ele><time>2026-04-25T08:25:09.735Z</time></trkpt><trkpt lat="38.0471241" lon="15.8011419"><ele>914.0000000000001</ele><time>2026-04-25T08:25:11.757Z</time></trkpt><trkpt lat="38.0472518" lon="15.801179"><ele>914.0</ele><time>2026-04-25T08:25:13.737Z</time></trkpt><trkpt lat="38.0473336" lon="15.801189"><ele>914.0</ele><time>2026-04-25T08:25:14.739Z</time></trkpt><trkpt lat="38.0474138" lon="15.8012023"><ele>920.6666666666667</ele><time>2026-04-25T08:25:15.744Z</time></trkpt><trkpt lat="38.0474974" lon="15.8012193"><ele>927.3333333333334</ele><time>2026-04-25T08:25:16.75Z</time></trkpt><trkpt lat="38.0475774" lon="15.8012475"><ele>934.0</ele><time>2026-04-25T08:25:17.752Z</time></trkpt><trkpt lat="38.0476535" lon="15.8012828"><ele>940.6666666666667</ele><time>2026-04-25T08:25:18.737Z</time></trkpt><trkpt lat="38.0477276" lon="15.8013243"><ele>947.3333333333334</ele><time>2026-04-25T08:25:19.738Z</time></trkpt><trkpt lat="38.0477956" lon="15.8013582"><ele>954.0</ele><time>2026-04-25T08:25:20.753Z</time></trkpt><trkpt lat="38.04791" lon="15.8014306"><ele>954.0</ele><time>2026-04-25T08:25:22.749Z</time></trkpt><trkpt lat="38.0479671" lon="15.8014674"><ele>953.9999999999999</ele><time>2026-04-25T08:25:23.754Z</time></trkpt><trkpt lat="38.0480253" lon="15.8015027"><ele>954.0</ele><time>2026-04-25T08:25:24.747Z</time></trkpt><trkpt lat="38.0480877" lon="15.8015366"><ele>954.0</ele><time>2026-04-25T08:25:25.772Z</time></trkpt><trkpt lat="38.0481496" lon="15.8015629"><ele>953.9999999999999</ele><time>2026-04-25T08:25:26.759Z</time></trkpt><trkpt lat="38.0482187" lon="15.8015776"><ele>954.0</ele><time>2026-04-25T08:25:27.761Z</time></trkpt><trkpt lat="38.0482881" lon="15.8015878"><ele>954.0</ele><time>2026-04-25T08:25:28.76Z</time></trkpt><trkpt lat="38.0483596" lon="15.8015965"><ele>957.0</ele><time>2026-04-25T08:25:29.751Z</time></trkpt><trkpt lat="38.0484374" lon="15.8016048"><ele>959.9999999999999</ele><time>2026-04-25T08:25:30.749Z</time></trkpt><trkpt lat="38.0485064" lon="15.8016158"><ele>963.0</ele><time>2026-04-25T08:25:31.756Z</time></trkpt><trkpt lat="38.0485673" lon="15.8016386"><ele>966.0</ele><time>2026-04-25T08:25:32.759Z</time></trkpt><trkpt lat="38.0486344" lon="15.8016691"><ele>968.9999999999999</ele><time>2026-04-25T08:25:33.769Z</time></trkpt><trkpt lat="38.0487085" lon="15.8017023"><ele>972.0</ele><time>2026-04-25T08:25:34.768Z</time></trkpt><trkpt lat="38.048774" lon="15.8017334"><ele>975.0</ele><time>2026-04-25T08:25:35.768Z</time></trkpt><trkpt lat="38.048835" lon="15.8017649"><ele>975.0</ele><time>2026-04-25T08:25:36.759Z</time></trkpt><trkpt lat="38.048926" lon="15.8017975"><ele>975.0</ele><time>2026-04-25T08:25:38.76Z</time></trkpt><trkpt lat="38.0490635" lon="15.8017652"><ele>975.0</ele><time>2026-04-25T08:25:40.773Z</time></trkpt><trkpt lat="38.0491338" lon="15.8017189"><ele>975.0</ele><time>2026-04-25T08:25:41.767Z</time></trkpt><trkpt lat="38.0491946" lon="15.8016584"><ele>975.0</ele><time>2026-04-25T08:25:42.762Z</time></trkpt><trkpt lat="38.0492464" lon="15.8015852"><ele>978.3333333333334</ele><time>2026-04-25T08:25:43.777Z</time></trkpt><trkpt lat="38.0492957" lon="15.8015132"><ele>981.6666666666667</ele><time>2026-04-25T08:25:44.76Z</time></trkpt><trkpt lat="38.0493376" lon="15.801452"><ele>985.0</ele><time>2026-04-25T08:25:45.769Z</time></trkpt><trkpt lat="38.0494219" lon="15.8013503"><ele>988.3333333333334</ele><time>2026-04-25T08:25:47.766Z</time></trkpt><trkpt lat="38.0494897" lon="15.8013407"><ele>991.6666666666667</ele><time>2026-04-25T08:25:50.767Z</time></trkpt><trkpt lat="38.0495236" lon="15.8014365"><ele>995.0</ele><time>2026-04-25T08:25:53.779Z</time></trkpt><trkpt lat="38.0494291" lon="15.8015756"><ele>995.0</ele><time>2026-04-25T08:25:55.766Z</time></trkpt><trkpt lat="38.0493944" lon="15.801655"><ele>995.0</ele><time>2026-04-25T08:25:56.779Z</time></trkpt><trkpt lat="38.049386" lon="15.8017919"><ele>995.0</ele><time>2026-04-25T08:25:58.767Z</time></trkpt><trkpt lat="38.04945" lon="15.8019137"><ele>995.0</ele><time>2026-04-25T08:26:00.761Z</time></trkpt><trkpt lat="38.0494976" lon="15.8019882"><ele>995.0</ele><time>2026-04-25T08:26:01.772Z</time></trkpt><trkpt lat="38.0495438" lon="15.8020785"><ele>993.8333333333334</ele><time>2026-04-25T08:26:02.771Z</time></trkpt><trkpt lat="38.049583" lon="15.8021729"><ele>992.6666666666667</ele><time>2026-04-25T08:26:03.785Z</time></trkpt><trkpt lat="38.049615" lon="15.8022674"><ele>991.5</ele><time>2026-04-25T08:26:04.761Z</time></trkpt><trkpt lat="38.0496364" lon="15.8023668"><ele>990.3333333333333</ele><time>2026-04-25T08:26:05.799Z</time></trkpt><trkpt lat="38.0496528" lon="15.8024555"><ele>989.1666666666666</ele><time>2026-04-25T08:26:06.765Z</time></trkpt><trkpt lat="38.0497069" lon="15.8025937"><ele>988.0</ele><time>2026-04-25T08:26:08.769Z</time></trkpt><trkpt lat="38.0497765" lon="15.8027305"><ele>992.6666666666666</ele><time>2026-04-25T08:26:10.775Z</time></trkpt><trkpt lat="38.0498091" lon="15.8028103"><ele>997.3333333333333</ele><time>2026-04-25T08:26:11.773Z</time></trkpt><trkpt lat="38.0498428" lon="15.8028846"><ele>1002.0</ele><time>2026-04-25T08:26:12.775Z</time></trkpt><trkpt lat="38.0499128" lon="15.8029582"><ele>1006.6666666666667</ele><time>2026-04-25T08:26:14.787Z</time></trkpt><trkpt lat="38.0499996" lon="15.8029553"><ele>1011.3333333333334</ele><time>2026-04-25T08:26:16.778Z</time></trkpt><trkpt lat="38.0501151" lon="15.8029862"><ele>1016.0</ele><time>2026-04-25T08:26:18.787Z</time></trkpt><trkpt lat="38.0502431" lon="15.8031001"><ele>1016.0</ele><time>2026-04-25T08:26:21.698Z</time></trkpt><trkpt lat="38.0502767" lon="15.8032038"><ele>1015.9999999999999</ele><time>2026-04-25T08:26:23.687Z</time></trkpt><trkpt lat="38.0503319" lon="15.8033079"><ele>1015.9999999999999</ele><time>2026-04-25T08:26:25.689Z</time></trkpt><trkpt lat="38.0504119" lon="15.8033735"><ele>1016.0</ele><time>2026-04-25T08:26:27.711Z</time></trkpt><trkpt lat="38.0504947" lon="15.8034609"><ele>1016.0</ele><time>2026-04-25T08:26:29.693Z</time></trkpt><trkpt lat="38.0505795" lon="15.8035585"><ele>1015.0</ele><time>2026-04-25T08:26:31.686Z</time></trkpt><trkpt lat="38.0506082" lon="15.80366"><ele>1013.9999999999999</ele><time>2026-04-25T08:26:33.685Z</time></trkpt><trkpt lat="38.0505778" lon="15.8037679"><ele>1012.9999999999999</ele><time>2026-04-25T08:26:35.694Z</time></trkpt><trkpt lat="38.0505393" lon="15.803881"><ele>1012.0</ele><time>2026-04-25T08:26:37.696Z</time></trkpt><trkpt lat="38.050567" lon="15.8039789"><ele>1011.0</ele><time>2026-04-25T08:26:39.705Z</time></trkpt><trkpt lat="38.0506332" lon="15.8041062"><ele>1011.0</ele><time>2026-04-25T08:26:41.714Z</time></trkpt><trkpt lat="38.0506965" lon="15.8042436"><ele>1010.9999999999999</ele><time>2026-04-25T08:26:43.707Z</time></trkpt><trkpt lat="38.050757" lon="15.8043729"><ele>1010.9999999999999</ele><time>2026-04-25T08:26:45.719Z</time></trkpt><trkpt lat="38.0508143" lon="15.8045199"><ele>1011.0</ele><time>2026-04-25T08:26:47.717Z</time></trkpt><trkpt lat="38.0508479" lon="15.804592"><ele>1011.0</ele><time>2026-04-25T08:26:48.714Z</time></trkpt><trkpt lat="38.0508848" lon="15.804661"><ele>1016.1999999999999</ele><time>2026-04-25T08:26:49.703Z</time></trkpt><trkpt lat="38.0509279" lon="15.8047256"><ele>1021.3999999999999</ele><time>2026-04-25T08:26:50.714Z</time></trkpt><trkpt lat="38.0510238" lon="15.8048081"><ele>1026.6</ele><time>2026-04-25T08:26:52.71Z</time></trkpt><trkpt lat="38.0511314" lon="15.8048445"><ele>1031.8</ele><time>2026-04-25T08:26:54.733Z</time></trkpt><trkpt lat="38.0512337" lon="15.8049106"><ele>1037.0</ele><time>2026-04-25T08:26:56.727Z</time></trkpt><trkpt lat="38.0513249" lon="15.8049765"><ele>1037.0</ele><time>2026-04-25T08:26:58.713Z</time></trkpt><trkpt lat="38.0514171" lon="15.8050137"><ele>1037.0</ele><time>2026-04-25T08:27:00.725Z</time></trkpt><trkpt lat="38.0514653" lon="15.8049231"><ele>1037.0</ele><time>2026-04-25T08:27:03.721Z</time></trkpt><trkpt lat="38.0514776" lon="15.8047595"><ele>1037.0</ele><time>2026-04-25T08:27:05.716Z</time></trkpt><trkpt lat="38.0514945" lon="15.8046414"><ele>1037.0</ele><time>2026-04-25T08:27:07.734Z</time></trkpt><trkpt lat="38.0515214" lon="15.804546"><ele>1037.0</ele><time>2026-04-25T08:27:10.748Z</time></trkpt><trkpt lat="38.0515101" lon="15.8044601"><ele>1037.0</ele><time>2026-04-25T08:27:24.737Z</time></trkpt><trkpt lat="38.0515272" lon="15.804331"><ele>1037.0</ele><time>2026-04-25T08:27:26.747Z</time></trkpt><trkpt lat="38.0515928" lon="15.8042092"><ele>1037.0</ele><time>2026-04-25T08:27:28.742Z</time></trkpt><trkpt lat="38.0516994" lon="15.804171"><ele>1037.0</ele><time>2026-04-25T08:27:30.729Z</time></trkpt><trkpt lat="38.0517644" lon="15.8041904"><ele>1040.8333333333335</ele><time>2026-04-25T08:27:31.741Z</time></trkpt><trkpt lat="38.0518293" lon="15.8042193"><ele>1044.6666666666667</ele><time>2026-04-25T08:27:32.727Z</time></trkpt><trkpt lat="38.0518955" lon="15.8042623"><ele>1048.5</ele><time>2026-04-25T08:27:33.744Z</time></trkpt><trkpt lat="38.0519623" lon="15.8043132"><ele>1052.3333333333333</ele><time>2026-04-25T08:27:34.757Z</time></trkpt><trkpt lat="38.0520236" lon="15.8043753"><ele>1056.1666666666665</ele><time>2026-04-25T08:27:35.754Z</time></trkpt><trkpt lat="38.0520909" lon="15.8044407"><ele>1060.0</ele><time>2026-04-25T08:27:36.749Z</time></trkpt><trkpt lat="38.052166" lon="15.8045077"><ele>1062.0</ele><time>2026-04-25T08:27:37.748Z</time></trkpt><trkpt lat="38.0522436" lon="15.8045616"><ele>1064.0</ele><time>2026-04-25T08:27:38.75Z</time></trkpt><trkpt lat="38.0523301" lon="15.8046221"><ele>1066.0</ele><time>2026-04-25T08:27:39.752Z</time></trkpt><trkpt lat="38.0524095" lon="15.8046903"><ele>1068.0</ele><time>2026-04-25T08:27:40.736Z</time></trkpt><trkpt lat="38.0524928" lon="15.8047564"><ele>1070.0</ele><time>2026-04-25T08:27:41.791Z</time></trkpt><trkpt lat="38.0525737" lon="15.80482"><ele>1069.6666666666667</ele><time>2026-04-25T08:27:42.761Z</time></trkpt><trkpt lat="38.0526417" lon="15.8048848"><ele>1069.3333333333335</ele><time>2026-04-25T08:27:43.761Z</time></trkpt><trkpt lat="38.052695" lon="15.8049495"><ele>1069.0</ele><time>2026-04-25T08:27:44.76Z</time></trkpt><trkpt lat="38.0527422" lon="15.8050783"><ele>1068.6666666666667</ele><time>2026-04-25T08:27:46.76Z</time></trkpt><trkpt lat="38.0527755" lon="15.8051498"><ele>1068.3333333333333</ele><time>2026-04-25T08:27:47.766Z</time></trkpt><trkpt lat="38.052819" lon="15.8052076"><ele>1068.0</ele><time>2026-04-25T08:27:48.77Z</time></trkpt><trkpt lat="38.0528758" lon="15.8052425"><ele>1068.0</ele><time>2026-04-25T08:27:49.755Z</time></trkpt><trkpt lat="38.0529533" lon="15.805284"><ele>1068.0</ele><time>2026-04-25T08:27:50.789Z</time></trkpt><trkpt lat="38.0530287" lon="15.805335"><ele>1068.0</ele><time>2026-04-25T08:27:51.761Z</time></trkpt><trkpt lat="38.0531027" lon="15.805393"><ele>1068.0</ele><time>2026-04-25T08:27:52.783Z</time></trkpt><trkpt lat="38.0531703" lon="15.80544"><ele>1068.0</ele><time>2026-04-25T08:27:53.768Z</time></trkpt><trkpt lat="38.0532793" lon="15.8054909"><ele>1069.3333333333333</ele><time>2026-04-25T08:27:55.773Z</time></trkpt><trkpt lat="38.0533388" lon="15.8055245"><ele>1070.6666666666667</ele><time>2026-04-25T08:27:56.774Z</time></trkpt><trkpt lat="38.0534092" lon="15.8055676"><ele>1072.0</ele><time>2026-04-25T08:27:57.763Z</time></trkpt><trkpt lat="38.0534851" lon="15.8056096"><ele>1073.3333333333335</ele><time>2026-04-25T08:27:58.779Z</time></trkpt><trkpt lat="38.0535598" lon="15.8056484"><ele>1074.6666666666667</ele><time>2026-04-25T08:27:59.788Z</time></trkpt><trkpt lat="38.0536329" lon="15.8056831"><ele>1076.0</ele><time>2026-04-25T08:28:00.766Z</time></trkpt><trkpt lat="38.0537036" lon="15.8057146"><ele>1076.0</ele><time>2026-04-25T08:28:01.773Z</time></trkpt><trkpt lat="38.0537705" lon="15.8057453"><ele>1076.0</ele><time>2026-04-25T08:28:02.788Z</time></trkpt><trkpt lat="38.0538389" lon="15.8057698"><ele>1076.0</ele><time>2026-04-25T08:28:03.784Z</time></trkpt><trkpt lat="38.0539059" lon="15.8057885"><ele>1076.0</ele><time>2026-04-25T08:28:04.776Z</time></trkpt><trkpt lat="38.0539716" lon="15.8058064"><ele>1076.0</ele><time>2026-04-25T08:28:05.769Z</time></trkpt><trkpt lat="38.0540357" lon="15.8058245"><ele>1076.0</ele><time>2026-04-25T08:28:06.777Z</time></trkpt><trkpt lat="38.0540984" lon="15.8058435"><ele>1076.0</ele><time>2026-04-25T08:28:07.769Z</time></trkpt><trkpt lat="38.0542054" lon="15.8058634"><ele>1078.6</ele><time>2026-04-25T08:28:09.769Z</time></trkpt><trkpt lat="38.0543162" lon="15.8058898"><ele>1081.1999999999998</ele><time>2026-04-25T08:28:11.791Z</time></trkpt><trkpt lat="38.0544409" lon="15.8059128"><ele>1083.8000000000002</ele><time>2026-04-25T08:28:13.797Z</time></trkpt><trkpt lat="38.0545078" lon="15.8059235"><ele>1086.4</ele><time>2026-04-25T08:28:14.796Z</time></trkpt><trkpt lat="38.054582" lon="15.8059376"><ele>1089.0</ele><time>2026-04-25T08:28:15.78Z</time></trkpt><trkpt lat="38.0546627" lon="15.8059535"><ele>1089.0</ele><time>2026-04-25T08:28:16.807Z</time></trkpt><trkpt lat="38.0547327" lon="15.8059705"><ele>1089.0</ele><time>2026-04-25T08:28:17.792Z</time></trkpt><trkpt lat="38.0548477" lon="15.8060219"><ele>1089.0</ele><time>2026-04-25T08:28:19.78Z</time></trkpt><trkpt lat="38.0549369" lon="15.8060418"><ele>1089.0</ele><time>2026-04-25T08:28:21.786Z</time></trkpt><trkpt lat="38.0550301" lon="15.8060445"><ele>1089.0</ele><time>2026-04-25T08:28:23.798Z</time></trkpt><trkpt lat="38.055101" lon="15.8060812"><ele>1091.1666666666667</ele><time>2026-04-25T08:28:25.778Z</time></trkpt><trkpt lat="38.0551387" lon="15.8062167"><ele>1093.3333333333333</ele><time>2026-04-25T08:28:27.795Z</time></trkpt><trkpt lat="38.0551639" lon="15.8063006"><ele>1095.5</ele><time>2026-04-25T08:28:28.8Z</time></trkpt><trkpt lat="38.0552024" lon="15.8063783"><ele>1097.6666666666665</ele><time>2026-04-25T08:28:29.797Z</time></trkpt><trkpt lat="38.0552545" lon="15.8064332"><ele>1099.8333333333333</ele><time>2026-04-25T08:28:30.787Z</time></trkpt><trkpt lat="38.0553224" lon="15.8064601"><ele>1102.0</ele><time>2026-04-25T08:28:31.784Z</time></trkpt><trkpt lat="38.0554033" lon="15.8064592"><ele>1102.0</ele><time>2026-04-25T08:28:32.777Z</time></trkpt><trkpt lat="38.0554969" lon="15.8064397"><ele>1102.0</ele><time>2026-04-25T08:28:33.789Z</time></trkpt><trkpt lat="38.0555968" lon="15.8064044"><ele>1102.0</ele><time>2026-04-25T08:28:34.784Z</time></trkpt><trkpt lat="38.0556783" lon="15.8063553"><ele>1102.0</ele><time>2026-04-25T08:28:35.788Z</time></trkpt><trkpt lat="38.0557312" lon="15.8062863"><ele>1102.0</ele><time>2026-04-25T08:28:36.796Z</time></trkpt><trkpt lat="38.0557788" lon="15.8061984"><ele>1102.0</ele><time>2026-04-25T08:28:37.778Z</time></trkpt><trkpt lat="38.0558358" lon="15.8061077"><ele>1104.2</ele><time>2026-04-25T08:28:38.78Z</time></trkpt><trkpt lat="38.0558996" lon="15.8060199"><ele>1106.4</ele><time>2026-04-25T08:28:39.801Z</time></trkpt><trkpt lat="38.0559694" lon="15.8059528"><ele>1108.6</ele><time>2026-04-25T08:28:40.804Z</time></trkpt><trkpt lat="38.0560546" lon="15.8058912"><ele>1110.8</ele><time>2026-04-25T08:28:41.774Z</time></trkpt><trkpt lat="38.0561554" lon="15.8058372"><ele>1113.0</ele><time>2026-04-25T08:28:42.798Z</time></trkpt><trkpt lat="38.0562604" lon="15.8057909"><ele>1113.0</ele><time>2026-04-25T08:28:43.789Z</time></trkpt><trkpt lat="38.0563727" lon="15.8057639"><ele>1113.0</ele><time>2026-04-25T08:28:44.796Z</time></trkpt><trkpt lat="38.0564768" lon="15.8057432"><ele>1113.0</ele><time>2026-04-25T08:28:45.8Z</time></trkpt><trkpt lat="38.0565535" lon="15.8057324"><ele>1113.0</ele><time>2026-04-25T08:28:46.808Z</time></trkpt><trkpt lat="38.0566141" lon="15.8056639"><ele>1113.0</ele><time>2026-04-25T08:28:50.809Z</time></trkpt><trkpt lat="38.0566278" lon="15.8054952"><ele>1115.0</ele><time>2026-04-25T08:28:52.775Z</time></trkpt><trkpt lat="38.0566354" lon="15.8053736"><ele>1117.0</ele><time>2026-04-25T08:28:53.778Z</time></trkpt><trkpt lat="38.0566431" lon="15.8052382"><ele>1119.0</ele><time>2026-04-25T08:28:54.785Z</time></trkpt><trkpt lat="38.0566586" lon="15.8050846"><ele>1121.0</ele><time>2026-04-25T08:28:55.781Z</time></trkpt><trkpt lat="38.0566855" lon="15.8049133"><ele>1121.0</ele><time>2026-04-25T08:28:56.803Z</time></trkpt><trkpt lat="38.0567196" lon="15.8047434"><ele>1121.0</ele><time>2026-04-25T08:28:57.786Z</time></trkpt><trkpt lat="38.0567497" lon="15.8045699"><ele>1121.0</ele><time>2026-04-25T08:28:58.78Z</time></trkpt><trkpt lat="38.0567778" lon="15.8043955"><ele>1121.0</ele><time>2026-04-25T08:28:59.78Z</time></trkpt><trkpt lat="38.0568451" lon="15.8040341"><ele>1119.25</ele><time>2026-04-25T08:29:01.693Z</time></trkpt><trkpt lat="38.0568888" lon="15.8038606"><ele>1117.5</ele><time>2026-04-25T08:29:02.68Z</time></trkpt><trkpt lat="38.0569327" lon="15.8037024"><ele>1115.75</ele><time>2026-04-25T08:29:03.795Z</time></trkpt><trkpt lat="38.0569837" lon="15.8035504"><ele>1114.0</ele><time>2026-04-25T08:29:04.791Z</time></trkpt><trkpt lat="38.0570384" lon="15.8034035"><ele>1114.0</ele><time>2026-04-25T08:29:05.782Z</time></trkpt><trkpt lat="38.0571068" lon="15.8032652"><ele>1114.0</ele><time>2026-04-25T08:29:06.797Z</time></trkpt><trkpt lat="38.0571844" lon="15.8031402"><ele>1114.0</ele><time>2026-04-25T08:29:07.776Z</time></trkpt><trkpt lat="38.0572746" lon="15.8030174"><ele>1114.0</ele><time>2026-04-25T08:29:08.791Z</time></trkpt><trkpt lat="38.0573779" lon="15.8028891"><ele>1114.25</ele><time>2026-04-25T08:29:09.784Z</time></trkpt><trkpt lat="38.0574877" lon="15.8027576"><ele>1114.5</ele><time>2026-04-25T08:29:10.778Z</time></trkpt><trkpt lat="38.0576" lon="15.802627"><ele>1114.75</ele><time>2026-04-25T08:29:11.789Z</time></trkpt><trkpt lat="38.0577099" lon="15.8025053"><ele>1115.0</ele><time>2026-04-25T08:29:12.786Z</time></trkpt><trkpt lat="38.0578176" lon="15.802382"><ele>1115.0</ele><time>2026-04-25T08:29:13.778Z</time></trkpt><trkpt lat="38.0579311" lon="15.8022592"><ele>1115.0</ele><time>2026-04-25T08:29:14.797Z</time></trkpt><trkpt lat="38.0580425" lon="15.8021331"><ele>1115.0</ele><time>2026-04-25T08:29:15.778Z</time></trkpt><trkpt lat="38.0581541" lon="15.8020057"><ele>1115.0</ele><time>2026-04-25T08:29:16.783Z</time></trkpt><trkpt lat="38.0582675" lon="15.8018757"><ele>1115.5</ele><time>2026-04-25T08:29:17.785Z</time></trkpt><trkpt lat="38.058382" lon="15.801746"><ele>1116.0</ele><time>2026-04-25T08:29:18.779Z</time></trkpt><trkpt lat="38.0584946" lon="15.8016187"><ele>1116.5</ele><time>2026-04-25T08:29:19.774Z</time></trkpt><trkpt lat="38.0586025" lon="15.8014978"><ele>1117.0</ele><time>2026-04-25T08:29:20.788Z</time></trkpt><trkpt lat="38.0587101" lon="15.801381"><ele>1117.0</ele><time>2026-04-25T08:29:21.79Z</time></trkpt><trkpt lat="38.0588136" lon="15.8012668"><ele>1117.0</ele><time>2026-04-25T08:29:22.785Z</time></trkpt><trkpt lat="38.0589071" lon="15.8011613"><ele>1117.0</ele><time>2026-04-25T08:29:23.791Z</time></trkpt><trkpt lat="38.0589907" lon="15.801064"><ele>1117.0</ele><time>2026-04-25T08:29:24.785Z</time></trkpt><trkpt lat="38.0590637" lon="15.8009899"><ele>1116.8333333333333</ele><time>2026-04-25T08:29:25.788Z</time></trkpt><trkpt lat="38.059128" lon="15.8009359"><ele>1116.6666666666665</ele><time>2026-04-25T08:29:26.796Z</time></trkpt><trkpt lat="38.0591886" lon="15.8009037"><ele>1116.5</ele><time>2026-04-25T08:29:27.772Z</time></trkpt><trkpt lat="38.059258" lon="15.8008597"><ele>1116.3333333333333</ele><time>2026-04-25T08:29:28.782Z</time></trkpt><trkpt lat="38.0593372" lon="15.8008071"><ele>1116.1666666666667</ele><time>2026-04-25T08:29:29.779Z</time></trkpt><trkpt lat="38.0594253" lon="15.8007553"><ele>1116.0</ele><time>2026-04-25T08:29:30.791Z</time></trkpt><trkpt lat="38.0595098" lon="15.8007031"><ele>1116.0</ele><time>2026-04-25T08:29:31.793Z</time></trkpt><trkpt lat="38.0595948" lon="15.8006516"><ele>1116.0</ele><time>2026-04-25T08:29:32.79Z</time></trkpt><trkpt lat="38.059681" lon="15.8006102"><ele>1116.0</ele><time>2026-04-25T08:29:33.777Z</time></trkpt><trkpt lat="38.059772" lon="15.8005724"><ele>1116.0</ele><time>2026-04-25T08:29:34.793Z</time></trkpt><trkpt lat="38.0598749" lon="15.8005383"><ele>1116.0</ele><time>2026-04-25T08:29:35.787Z</time></trkpt><trkpt lat="38.0599688" lon="15.8005041"><ele>1117.3999999999999</ele><time>2026-04-25T08:29:36.78Z</time></trkpt><trkpt lat="38.0600589" lon="15.8004707"><ele>1118.8</ele><time>2026-04-25T08:29:37.769Z</time></trkpt><trkpt lat="38.0601491" lon="15.8004378"><ele>1120.1999999999998</ele><time>2026-04-25T08:29:38.783Z</time></trkpt><trkpt lat="38.0602411" lon="15.8004062"><ele>1121.6</ele><time>2026-04-25T08:29:39.787Z</time></trkpt><trkpt lat="38.0603321" lon="15.8003751"><ele>1123.0</ele><time>2026-04-25T08:29:40.769Z</time></trkpt><trkpt lat="38.0604155" lon="15.8003402"><ele>1123.0</ele><time>2026-04-25T08:29:41.773Z</time></trkpt><trkpt lat="38.0604917" lon="15.8002933"><ele>1123.0</ele><time>2026-04-25T08:29:42.778Z</time></trkpt><trkpt lat="38.060571" lon="15.8002388"><ele>1123.0</ele><time>2026-04-25T08:29:43.77Z</time></trkpt><trkpt lat="38.0606496" lon="15.8001757"><ele>1123.0</ele><time>2026-04-25T08:29:44.788Z</time></trkpt><trkpt lat="38.0607348" lon="15.8001212"><ele>1123.0</ele><time>2026-04-25T08:29:45.775Z</time></trkpt><trkpt lat="38.0608214" lon="15.8000868"><ele>1122.8333333333333</ele><time>2026-04-25T08:29:46.792Z</time></trkpt><trkpt lat="38.0609091" lon="15.8000715"><ele>1122.6666666666665</ele><time>2026-04-25T08:29:47.785Z</time></trkpt><trkpt lat="38.0609913" lon="15.8000698"><ele>1122.5</ele><time>2026-04-25T08:29:48.776Z</time></trkpt><trkpt lat="38.0610715" lon="15.8000746"><ele>1122.3333333333333</ele><time>2026-04-25T08:29:49.783Z</time></trkpt><trkpt lat="38.0611477" lon="15.8000651"><ele>1122.1666666666667</ele><time>2026-04-25T08:29:50.794Z</time></trkpt><trkpt lat="38.0612125" lon="15.800055"><ele>1122.0</ele><time>2026-04-25T08:29:51.786Z</time></trkpt><trkpt lat="38.0612851" lon="15.8000376"><ele>1122.0</ele><time>2026-04-25T08:29:53.774Z</time></trkpt><trkpt lat="38.0613644" lon="15.8000114"><ele>1122.0</ele><time>2026-04-25T08:29:59.789Z</time></trkpt><trkpt lat="38.0614195" lon="15.7999716"><ele>1122.0</ele><time>2026-04-25T08:30:01.767Z</time></trkpt><trkpt lat="38.0615045" lon="15.7999216"><ele>1122.0</ele><time>2026-04-25T08:30:03.793Z</time></trkpt><trkpt lat="38.0616288" lon="15.7998648"><ele>1122.0</ele><time>2026-04-25T08:30:05.774Z</time></trkpt><trkpt lat="38.0616929" lon="15.7998308"><ele>1122.0</ele><time>2026-04-25T08:30:06.776Z</time></trkpt><trkpt lat="38.0617545" lon="15.7997869"><ele>1121.4</ele><time>2026-04-25T08:30:07.783Z</time></trkpt><trkpt lat="38.0618075" lon="15.7997299"><ele>1120.8000000000002</ele><time>2026-04-25T08:30:08.786Z</time></trkpt><trkpt lat="38.0618588" lon="15.7996619"><ele>1120.2</ele><time>2026-04-25T08:30:09.785Z</time></trkpt><trkpt lat="38.0619438" lon="15.7995659"><ele>1119.6000000000001</ele><time>2026-04-25T08:30:11.675Z</time></trkpt><trkpt lat="38.0620109" lon="15.7994825"><ele>1119.0</ele><time>2026-04-25T08:30:13.69Z</time></trkpt><trkpt lat="38.0620622" lon="15.7993639"><ele>1119.0</ele><time>2026-04-25T08:30:15.692Z</time></trkpt><trkpt lat="38.0620744" lon="15.7992381"><ele>1119.0</ele><time>2026-04-25T08:30:17.686Z</time></trkpt><trkpt lat="38.0620879" lon="15.799123"><ele>1119.0</ele><time>2026-04-25T08:30:19.681Z</time></trkpt><trkpt lat="38.0621447" lon="15.7990797"><ele>1119.0</ele><time>2026-04-25T08:30:23.681Z</time></trkpt><trkpt lat="38.0621342" lon="15.7992177"><ele>1119.0</ele><time>2026-04-25T08:30:26.684Z</time></trkpt><trkpt lat="38.0621349" lon="15.7993144"><ele>1119.0</ele><time>2026-04-25T08:30:27.686Z</time></trkpt><trkpt lat="38.0621357" lon="15.7994055"><ele>1119.0</ele><time>2026-04-25T08:30:28.686Z</time></trkpt><trkpt lat="38.0621275" lon="15.7994952"><ele>1119.0</ele><time>2026-04-25T08:30:29.695Z</time></trkpt><trkpt lat="38.0621151" lon="15.7996089"><ele>1119.0</ele><time>2026-04-25T08:30:31.692Z</time></trkpt><trkpt lat="38.0621595" lon="15.7996773"><ele>1119.0</ele><time>2026-04-25T08:30:51.704Z</time></trkpt><trkpt lat="38.0622349" lon="15.7997001"><ele>1119.0</ele><time>2026-04-25T08:30:54.71Z</time></trkpt><trkpt lat="38.0623259" lon="15.7996775"><ele>1119.0</ele><time>2026-04-25T08:30:57.717Z</time></trkpt><trkpt lat="38.0624168" lon="15.7996785"><ele>1117.2</ele><time>2026-04-25T08:31:00.73Z</time></trkpt><trkpt lat="38.0624765" lon="15.7997067"><ele>1115.4</ele><time>2026-04-25T08:31:02.655Z</time></trkpt><trkpt lat="38.0625632" lon="15.7997399"><ele>1113.6</ele><time>2026-04-25T08:31:04.713Z</time></trkpt><trkpt lat="38.0626947" lon="15.7997898"><ele>1111.8</ele><time>2026-04-25T08:31:06.713Z</time></trkpt><trkpt lat="38.0627709" lon="15.7998173"><ele>1110.0</ele><time>2026-04-25T08:31:07.72Z</time></trkpt><trkpt lat="38.0628488" lon="15.7998439"><ele>1110.0</ele><time>2026-04-25T08:31:08.715Z</time></trkpt><trkpt lat="38.062924" lon="15.7998712"><ele>1110.0</ele><time>2026-04-25T08:31:09.716Z</time></trkpt><trkpt lat="38.0629971" lon="15.7998978"><ele>1110.0</ele><time>2026-04-25T08:31:10.714Z</time></trkpt><trkpt lat="38.0630722" lon="15.7999225"><ele>1110.0</ele><time>2026-04-25T08:31:11.723Z</time></trkpt><trkpt lat="38.0631457" lon="15.7999497"><ele>1110.0</ele><time>2026-04-25T08:31:12.733Z</time></trkpt><trkpt lat="38.0632155" lon="15.7999792"><ele>1110.0</ele><time>2026-04-25T08:31:13.72Z</time></trkpt><trkpt lat="38.0632859" lon="15.8000074"><ele>1110.8333333333333</ele><time>2026-04-25T08:31:14.708Z</time></trkpt><trkpt lat="38.06336" lon="15.8000326"><ele>1111.6666666666667</ele><time>2026-04-25T08:31:15.719Z</time></trkpt><trkpt lat="38.0634382" lon="15.8000702"><ele>1112.5</ele><time>2026-04-25T08:31:16.721Z</time></trkpt><trkpt lat="38.0635178" lon="15.8001145"><ele>1113.3333333333335</ele><time>2026-04-25T08:31:17.72Z</time></trkpt><trkpt lat="38.0636034" lon="15.8001562"><ele>1114.1666666666667</ele><time>2026-04-25T08:31:18.716Z</time></trkpt><trkpt lat="38.0637018" lon="15.8001952"><ele>1115.0</ele><time>2026-04-25T08:31:19.715Z</time></trkpt><trkpt lat="38.0637871" lon="15.8002321"><ele>1115.0</ele><time>2026-04-25T08:31:20.72Z</time></trkpt><trkpt lat="38.063866" lon="15.8002632"><ele>1115.0</ele><time>2026-04-25T08:31:21.718Z</time></trkpt><trkpt lat="38.0639361" lon="15.8002811"><ele>1115.0</ele><time>2026-04-25T08:31:22.721Z</time></trkpt><trkpt lat="38.0640011" lon="15.800285"><ele>1115.0</ele><time>2026-04-25T08:31:23.727Z</time></trkpt><trkpt lat="38.0640757" lon="15.8002851"><ele>1115.0</ele><time>2026-04-25T08:31:24.719Z</time></trkpt><trkpt lat="38.064163" lon="15.8002869"><ele>1115.0</ele><time>2026-04-25T08:31:25.713Z</time></trkpt><trkpt lat="38.064257" lon="15.800281"><ele>1116.3333333333335</ele><time>2026-04-25T08:31:26.725Z</time></trkpt><trkpt lat="38.0643511" lon="15.8002784"><ele>1117.6666666666667</ele><time>2026-04-25T08:31:27.723Z</time></trkpt><trkpt lat="38.0644444" lon="15.8002735"><ele>1119.0</ele><time>2026-04-25T08:31:28.717Z</time></trkpt><trkpt lat="38.0645357" lon="15.8002631"><ele>1120.3333333333333</ele><time>2026-04-25T08:31:29.718Z</time></trkpt><trkpt lat="38.0646176" lon="15.800255"><ele>1121.6666666666665</ele><time>2026-04-25T08:31:30.723Z</time></trkpt><trkpt lat="38.064694" lon="15.8002422"><ele>1123.0</ele><time>2026-04-25T08:31:31.716Z</time></trkpt><trkpt lat="38.0647658" lon="15.8002274"><ele>1123.0</ele><time>2026-04-25T08:31:32.715Z</time></trkpt><trkpt lat="38.0648392" lon="15.8002088"><ele>1123.0</ele><time>2026-04-25T08:31:33.733Z</time></trkpt><trkpt lat="38.0649181" lon="15.8001801"><ele>1123.0</ele><time>2026-04-25T08:31:34.725Z</time></trkpt><trkpt lat="38.065004" lon="15.8001435"><ele>1123.0</ele><time>2026-04-25T08:31:35.715Z</time></trkpt><trkpt lat="38.0650881" lon="15.8001098"><ele>1123.0</ele><time>2026-04-25T08:31:36.72Z</time></trkpt><trkpt lat="38.0651763" lon="15.8000952"><ele>1123.0</ele><time>2026-04-25T08:31:38.724Z</time></trkpt><trkpt lat="38.0652362" lon="15.8002077"><ele>1123.8</ele><time>2026-04-25T08:31:41.73Z</time></trkpt><trkpt lat="38.0652617" lon="15.8003537"><ele>1124.6</ele><time>2026-04-25T08:31:43.736Z</time></trkpt><trkpt lat="38.065299" lon="15.8005069"><ele>1125.4</ele><time>2026-04-25T08:31:45.72Z</time></trkpt><trkpt lat="38.0653253" lon="15.8005962"><ele>1126.2</ele><time>2026-04-25T08:31:46.738Z</time></trkpt><trkpt lat="38.0653547" lon="15.8007024"><ele>1127.0</ele><time>2026-04-25T08:31:47.724Z</time></trkpt><trkpt lat="38.065387" lon="15.8008102"><ele>1127.0</ele><time>2026-04-25T08:31:48.733Z</time></trkpt><trkpt lat="38.0654224" lon="15.8009207"><ele>1127.0</ele><time>2026-04-25T08:31:49.743Z</time></trkpt><trkpt lat="38.0654596" lon="15.8010272"><ele>1127.0</ele><time>2026-04-25T08:31:50.721Z</time></trkpt><trkpt lat="38.0654866" lon="15.8011326"><ele>1127.0</ele><time>2026-04-25T08:31:51.736Z</time></trkpt><trkpt lat="38.0655011" lon="15.8012412"><ele>1127.0</ele><time>2026-04-25T08:31:52.723Z</time></trkpt><trkpt lat="38.0655055" lon="15.8013566"><ele>1126.6666666666667</ele><time>2026-04-25T08:31:53.744Z</time></trkpt><trkpt lat="38.0655052" lon="15.8014704"><ele>1126.3333333333335</ele><time>2026-04-25T08:31:54.714Z</time></trkpt><trkpt lat="38.06551" lon="15.8015792"><ele>1126.0</ele><time>2026-04-25T08:31:55.723Z</time></trkpt><trkpt lat="38.0655131" lon="15.8016912"><ele>1125.6666666666667</ele><time>2026-04-25T08:31:56.72Z</time></trkpt><trkpt lat="38.0655123" lon="15.801802"><ele>1125.3333333333333</ele><time>2026-04-25T08:31:57.722Z</time></trkpt><trkpt lat="38.0655041" lon="15.8019156"><ele>1125.0</ele><time>2026-04-25T08:31:58.716Z</time></trkpt><trkpt lat="38.0654959" lon="15.8020291"><ele>1125.0</ele><time>2026-04-25T08:31:59.718Z</time></trkpt><trkpt lat="38.0654947" lon="15.8021358"><ele>1125.0</ele><time>2026-04-25T08:32:00.722Z</time></trkpt><trkpt lat="38.0655039" lon="15.8022373"><ele>1125.0</ele><time>2026-04-25T08:32:01.727Z</time></trkpt><trkpt lat="38.0655226" lon="15.802344"><ele>1125.0</ele><time>2026-04-25T08:32:02.715Z</time></trkpt><trkpt lat="38.0655484" lon="15.8024639"><ele>1125.0</ele><time>2026-04-25T08:32:03.732Z</time></trkpt><trkpt lat="38.0655805" lon="15.8025823"><ele>1125.0</ele><time>2026-04-25T08:32:04.726Z</time></trkpt><trkpt lat="38.0656141" lon="15.8027017"><ele>1125.8</ele><time>2026-04-25T08:32:05.717Z</time></trkpt><trkpt lat="38.065652" lon="15.802817"><ele>1126.6</ele><time>2026-04-25T08:32:06.716Z</time></trkpt><trkpt lat="38.0656901" lon="15.8029366"><ele>1127.4</ele><time>2026-04-25T08:32:07.714Z</time></trkpt><trkpt lat="38.0657248" lon="15.8030522"><ele>1128.2</ele><time>2026-04-25T08:32:08.731Z</time></trkpt><trkpt lat="38.0657562" lon="15.8031734"><ele>1129.0</ele><time>2026-04-25T08:32:09.718Z</time></trkpt><trkpt lat="38.0657856" lon="15.8032976"><ele>1129.4</ele><time>2026-04-25T08:32:10.728Z</time></trkpt><trkpt lat="38.0658213" lon="15.8034173"><ele>1129.8000000000002</ele><time>2026-04-25T08:32:11.716Z</time></trkpt><trkpt lat="38.0658554" lon="15.8035382"><ele>1130.1999999999998</ele><time>2026-04-25T08:32:12.72Z</time></trkpt><trkpt lat="38.0658834" lon="15.803657"><ele>1130.6</ele><time>2026-04-25T08:32:13.72Z</time></trkpt><trkpt lat="38.0659036" lon="15.8037649"><ele>1131.0</ele><time>2026-04-25T08:32:14.714Z</time></trkpt><trkpt lat="38.0659271" lon="15.8038572"><ele>1131.8333333333333</ele><time>2026-04-25T08:32:15.725Z</time></trkpt><trkpt lat="38.0659448" lon="15.8039468"><ele>1132.6666666666667</ele><time>2026-04-25T08:32:16.726Z</time></trkpt><trkpt lat="38.0659667" lon="15.8040436"><ele>1133.5</ele><time>2026-04-25T08:32:17.731Z</time></trkpt><trkpt lat="38.0659918" lon="15.8041446"><ele>1134.3333333333335</ele><time>2026-04-25T08:32:18.722Z</time></trkpt><trkpt lat="38.0660211" lon="15.804256"><ele>1135.1666666666667</ele><time>2026-04-25T08:32:19.728Z</time></trkpt><trkpt lat="38.0660427" lon="15.8043651"><ele>1136.0</ele><time>2026-04-25T08:32:20.719Z</time></trkpt><trkpt lat="38.0660532" lon="15.8044729"><ele>1136.5</ele><time>2026-04-25T08:32:21.727Z</time></trkpt><trkpt lat="38.0660613" lon="15.8045773"><ele>1137.0</ele><time>2026-04-25T08:32:22.735Z</time></trkpt><trkpt lat="38.0660657" lon="15.8046839"><ele>1137.5</ele><time>2026-04-25T08:32:23.719Z</time></trkpt><trkpt lat="38.0660723" lon="15.8047878"><ele>1138.0</ele><time>2026-04-25T08:32:24.725Z</time></trkpt><trkpt lat="38.0660817" lon="15.8048897"><ele>1138.5</ele><time>2026-04-25T08:32:25.718Z</time></trkpt><trkpt lat="38.0660832" lon="15.8049865"><ele>1139.0</ele><time>2026-04-25T08:32:26.724Z</time></trkpt><trkpt lat="38.0660798" lon="15.8050919"><ele>1139.4</ele><time>2026-04-25T08:32:27.711Z</time></trkpt><trkpt lat="38.066075" lon="15.8052058"><ele>1139.8000000000002</ele><time>2026-04-25T08:32:28.725Z</time></trkpt><trkpt lat="38.0660662" lon="15.8053238"><ele>1140.1999999999998</ele><time>2026-04-25T08:32:29.708Z</time></trkpt><trkpt lat="38.066081" lon="15.8054557"><ele>1140.6</ele><time>2026-04-25T08:32:30.707Z</time></trkpt><trkpt lat="38.0661154" lon="15.805604"><ele>1141.0</ele><time>2026-04-25T08:32:31.715Z</time></trkpt><trkpt lat="38.0661405" lon="15.8057396"><ele>1141.0</ele><time>2026-04-25T08:32:32.723Z</time></trkpt><trkpt lat="38.0661621" lon="15.8058686"><ele>1141.0</ele><time>2026-04-25T08:32:33.718Z</time></trkpt><trkpt lat="38.0661842" lon="15.8059879"><ele>1141.0</ele><time>2026-04-25T08:32:34.717Z</time></trkpt><trkpt lat="38.0662051" lon="15.8061054"><ele>1141.0</ele><time>2026-04-25T08:32:35.724Z</time></trkpt><trkpt lat="38.0662204" lon="15.8062272"><ele>1141.0</ele><time>2026-04-25T08:32:36.727Z</time></trkpt><trkpt lat="38.0662372" lon="15.8063503"><ele>1141.3333333333333</ele><time>2026-04-25T08:32:37.732Z</time></trkpt><trkpt lat="38.0662633" lon="15.8064595"><ele>1141.6666666666665</ele><time>2026-04-25T08:32:38.717Z</time></trkpt><trkpt lat="38.0663019" lon="15.8065506"><ele>1142.0</ele><time>2026-04-25T08:32:39.716Z</time></trkpt><trkpt lat="38.0663408" lon="15.8066425"><ele>1142.3333333333333</ele><time>2026-04-25T08:32:40.719Z</time></trkpt><trkpt lat="38.0663679" lon="15.8067395"><ele>1142.6666666666667</ele><time>2026-04-25T08:32:41.719Z</time></trkpt><trkpt lat="38.0663841" lon="15.806855"><ele>1143.0</ele><time>2026-04-25T08:32:42.722Z</time></trkpt><trkpt lat="38.0664055" lon="15.8069916"><ele>1143.6</ele><time>2026-04-25T08:32:43.721Z</time></trkpt><trkpt lat="38.0664352" lon="15.8071325"><ele>1144.1999999999998</ele><time>2026-04-25T08:32:44.711Z</time></trkpt><trkpt lat="38.0664568" lon="15.8072509"><ele>1144.8</ele><time>2026-04-25T08:32:45.713Z</time></trkpt><trkpt lat="38.0664765" lon="15.8073625"><ele>1145.3999999999999</ele><time>2026-04-25T08:32:46.712Z</time></trkpt><trkpt lat="38.066494" lon="15.8074678"><ele>1146.0</ele><time>2026-04-25T08:32:47.714Z</time></trkpt><trkpt lat="38.0665143" lon="15.8075681"><ele>1146.8</ele><time>2026-04-25T08:32:48.723Z</time></trkpt><trkpt lat="38.0665371" lon="15.8076832"><ele>1147.6</ele><time>2026-04-25T08:32:49.715Z</time></trkpt><trkpt lat="38.066564" lon="15.807798"><ele>1148.4</ele><time>2026-04-25T08:32:50.709Z</time></trkpt><trkpt lat="38.0665843" lon="15.8079168"><ele>1149.2</ele><time>2026-04-25T08:32:51.716Z</time></trkpt><trkpt lat="38.066602" lon="15.8080359"><ele>1150.0</ele><time>2026-04-25T08:32:52.71Z</time></trkpt><trkpt lat="38.0666158" lon="15.8081528"><ele>1150.0</ele><time>2026-04-25T08:32:53.717Z</time></trkpt><trkpt lat="38.0666256" lon="15.8082666"><ele>1150.0</ele><time>2026-04-25T08:32:54.724Z</time></trkpt><trkpt lat="38.0666403" lon="15.8083809"><ele>1150.0</ele><time>2026-04-25T08:32:55.711Z</time></trkpt><trkpt lat="38.0666592" lon="15.8084975"><ele>1150.0</ele><time>2026-04-25T08:32:56.718Z</time></trkpt><trkpt lat="38.0666776" lon="15.8086143"><ele>1150.0</ele><time>2026-04-25T08:32:57.712Z</time></trkpt><trkpt lat="38.0667056" lon="15.8087356"><ele>1150.0</ele><time>2026-04-25T08:32:58.704Z</time></trkpt><trkpt lat="38.0667409" lon="15.8088602"><ele>1150.0</ele><time>2026-04-25T08:32:59.703Z</time></trkpt><trkpt lat="38.0667771" lon="15.8089784"><ele>1150.0</ele><time>2026-04-25T08:33:00.704Z</time></trkpt><trkpt lat="38.066812" lon="15.8091014"><ele>1150.0</ele><time>2026-04-25T08:33:01.708Z</time></trkpt><trkpt lat="38.0668498" lon="15.8092303"><ele>1150.0</ele><time>2026-04-25T08:33:02.709Z</time></trkpt><trkpt lat="38.0668896" lon="15.8093619"><ele>1150.2</ele><time>2026-04-25T08:33:03.723Z</time></trkpt><trkpt lat="38.0669328" lon="15.8094937"><ele>1150.4</ele><time>2026-04-25T08:33:04.702Z</time></trkpt><trkpt lat="38.0669787" lon="15.809626"><ele>1150.6</ele><time>2026-04-25T08:33:05.708Z</time></trkpt><trkpt lat="38.0670266" lon="15.8097559"><ele>1150.8</ele><time>2026-04-25T08:33:06.709Z</time></trkpt><trkpt lat="38.0670771" lon="15.8098749"><ele>1151.0</ele><time>2026-04-25T08:33:07.707Z</time></trkpt><trkpt lat="38.0671264" lon="15.8099822"><ele>1151.0</ele><time>2026-04-25T08:33:08.696Z</time></trkpt><trkpt lat="38.0671716" lon="15.8100766"><ele>1151.0</ele><time>2026-04-25T08:33:09.711Z</time></trkpt><trkpt lat="38.0672131" lon="15.8101623"><ele>1151.0</ele><time>2026-04-25T08:33:10.705Z</time></trkpt><trkpt lat="38.0672516" lon="15.8102455"><ele>1151.0</ele><time>2026-04-25T08:33:11.702Z</time></trkpt><trkpt lat="38.06729" lon="15.8103285"><ele>1151.0</ele><time>2026-04-25T08:33:12.708Z</time></trkpt><trkpt lat="38.0673281" lon="15.8104075"><ele>1151.0</ele><time>2026-04-25T08:33:13.71Z</time></trkpt><trkpt lat="38.0673698" lon="15.8104817"><ele>1152.0</ele><time>2026-04-25T08:33:14.707Z</time></trkpt><trkpt lat="38.0674181" lon="15.8105503"><ele>1153.0</ele><time>2026-04-25T08:33:15.707Z</time></trkpt><trkpt lat="38.0674764" lon="15.8106166"><ele>1154.0</ele><time>2026-04-25T08:33:16.703Z</time></trkpt><trkpt lat="38.0675357" lon="15.8106763"><ele>1155.0</ele><time>2026-04-25T08:33:17.71Z</time></trkpt><trkpt lat="38.0675967" lon="15.8107343"><ele>1156.0</ele><time>2026-04-25T08:33:18.71Z</time></trkpt><trkpt lat="38.0676559" lon="15.8107935"><ele>1157.0</ele><time>2026-04-25T08:33:19.708Z</time></trkpt><trkpt lat="38.0677174" lon="15.8108514"><ele>1157.1666666666667</ele><time>2026-04-25T08:33:20.701Z</time></trkpt><trkpt lat="38.0677871" lon="15.8109068"><ele>1157.3333333333335</ele><time>2026-04-25T08:33:21.705Z</time></trkpt><trkpt lat="38.0678616" lon="15.8109648"><ele>1157.5</ele><time>2026-04-25T08:33:22.704Z</time></trkpt><trkpt lat="38.0679386" lon="15.811027"><ele>1157.6666666666667</ele><time>2026-04-25T08:33:23.7Z</time></trkpt><trkpt lat="38.0680216" lon="15.8110855"><ele>1157.8333333333333</ele><time>2026-04-25T08:33:24.705Z</time></trkpt><trkpt lat="38.0681009" lon="15.8111425"><ele>1158.0</ele><time>2026-04-25T08:33:25.711Z</time></trkpt><trkpt lat="38.0681756" lon="15.8112052"><ele>1158.4</ele><time>2026-04-25T08:33:26.702Z</time></trkpt><trkpt lat="38.0682519" lon="15.8112735"><ele>1158.8</ele><time>2026-04-25T08:33:27.706Z</time></trkpt><trkpt lat="38.0683123" lon="15.8113584"><ele>1159.2</ele><time>2026-04-25T08:33:28.703Z</time></trkpt><trkpt lat="38.068362" lon="15.811462"><ele>1159.6</ele><time>2026-04-25T08:33:29.714Z</time></trkpt><trkpt lat="38.0683979" lon="15.8115752"><ele>1160.0</ele><time>2026-04-25T08:33:30.708Z</time></trkpt><trkpt lat="38.0684183" lon="15.8116925"><ele>1160.4</ele><time>2026-04-25T08:33:31.714Z</time></trkpt><trkpt lat="38.0684405" lon="15.8118108"><ele>1160.8</ele><time>2026-04-25T08:33:32.713Z</time></trkpt><trkpt lat="38.0684658" lon="15.8119298"><ele>1161.2</ele><time>2026-04-25T08:33:33.705Z</time></trkpt><trkpt lat="38.068499" lon="15.8120405"><ele>1161.6</ele><time>2026-04-25T08:33:34.72Z</time></trkpt><trkpt lat="38.0685405" lon="15.8121491"><ele>1162.0</ele><time>2026-04-25T08:33:35.702Z</time></trkpt><trkpt lat="38.0685947" lon="15.8122507"><ele>1162.4</ele><time>2026-04-25T08:33:36.7Z</time></trkpt><trkpt lat="38.0686558" lon="15.8123419"><ele>1162.8000000000002</ele><time>2026-04-25T08:33:37.707Z</time></trkpt><trkpt lat="38.0687186" lon="15.8124458"><ele>1163.2</ele><time>2026-04-25T08:33:38.703Z</time></trkpt><trkpt lat="38.0687738" lon="15.8125498"><ele>1163.6000000000001</ele><time>2026-04-25T08:33:39.72Z</time></trkpt><trkpt lat="38.0688301" lon="15.812659"><ele>1164.0</ele><time>2026-04-25T08:33:40.707Z</time></trkpt><trkpt lat="38.0688787" lon="15.8127807"><ele>1164.2</ele><time>2026-04-25T08:33:41.703Z</time></trkpt><trkpt lat="38.0689237" lon="15.81291"><ele>1164.4</ele><time>2026-04-25T08:33:42.703Z</time></trkpt><trkpt lat="38.0689707" lon="15.8130294"><ele>1164.6</ele><time>2026-04-25T08:33:43.702Z</time></trkpt><trkpt lat="38.0690227" lon="15.8131377"><ele>1164.8</ele><time>2026-04-25T08:33:44.702Z</time></trkpt><trkpt lat="38.0690742" lon="15.8132423"><ele>1165.0</ele><time>2026-04-25T08:33:45.706Z</time></trkpt><trkpt lat="38.0691275" lon="15.8133385"><ele>1165.6</ele><time>2026-04-25T08:33:46.699Z</time></trkpt><trkpt lat="38.0691865" lon="15.8134258"><ele>1166.2</ele><time>2026-04-25T08:33:47.705Z</time></trkpt><trkpt lat="38.0692534" lon="15.8135036"><ele>1166.8</ele><time>2026-04-25T08:33:48.712Z</time></trkpt><trkpt lat="38.0693267" lon="15.8135864"><ele>1167.4</ele><time>2026-04-25T08:33:49.718Z</time></trkpt><trkpt lat="38.0693978" lon="15.8136736"><ele>1168.0</ele><time>2026-04-25T08:33:50.703Z</time></trkpt><trkpt lat="38.0694667" lon="15.8137651"><ele>1168.4</ele><time>2026-04-25T08:33:51.714Z</time></trkpt><trkpt lat="38.0695317" lon="15.8138556"><ele>1168.8</ele><time>2026-04-25T08:33:52.706Z</time></trkpt><trkpt lat="38.0695887" lon="15.8139501"><ele>1169.2</ele><time>2026-04-25T08:33:53.716Z</time></trkpt><trkpt lat="38.0696415" lon="15.8140438"><ele>1169.6</ele><time>2026-04-25T08:33:54.701Z</time></trkpt><trkpt lat="38.0696907" lon="15.8141407"><ele>1170.0</ele><time>2026-04-25T08:33:55.71Z</time></trkpt><trkpt lat="38.0697349" lon="15.8142484"><ele>1170.2</ele><time>2026-04-25T08:33:56.697Z</time></trkpt><trkpt lat="38.0697783" lon="15.8143568"><ele>1170.4</ele><time>2026-04-25T08:33:57.712Z</time></trkpt><trkpt lat="38.0698266" lon="15.8144701"><ele>1170.6</ele><time>2026-04-25T08:33:58.722Z</time></trkpt><trkpt lat="38.0698658" lon="15.8145802"><ele>1170.8</ele><time>2026-04-25T08:33:59.707Z</time></trkpt><trkpt lat="38.0699013" lon="15.8146911"><ele>1171.0</ele><time>2026-04-25T08:34:00.704Z</time></trkpt><trkpt lat="38.0699282" lon="15.8148102"><ele>1171.3999999999999</ele><time>2026-04-25T08:34:01.702Z</time></trkpt><trkpt lat="38.0699511" lon="15.8149322"><ele>1171.8</ele><time>2026-04-25T08:34:02.698Z</time></trkpt><trkpt lat="38.0699807" lon="15.8150646"><ele>1172.1999999999998</ele><time>2026-04-25T08:34:03.696Z</time></trkpt><trkpt lat="38.0700166" lon="15.8151913"><ele>1172.6</ele><time>2026-04-25T08:34:04.712Z</time></trkpt><trkpt lat="38.0700626" lon="15.8153195"><ele>1173.0</ele><time>2026-04-25T08:34:05.706Z</time></trkpt><trkpt lat="38.0701121" lon="15.8154572"><ele>1173.5</ele><time>2026-04-25T08:34:06.716Z</time></trkpt><trkpt lat="38.0701611" lon="15.8156066"><ele>1174.0</ele><time>2026-04-25T08:34:07.722Z</time></trkpt><trkpt lat="38.070215" lon="15.8157478"><ele>1174.5</ele><time>2026-04-25T08:34:08.703Z</time></trkpt><trkpt lat="38.0702654" lon="15.8158859"><ele>1175.0</ele><time>2026-04-25T08:34:09.701Z</time></trkpt><trkpt lat="38.0703069" lon="15.8160017"><ele>1175.0</ele><time>2026-04-25T08:34:10.702Z</time></trkpt><trkpt lat="38.0703422" lon="15.8160932"><ele>1175.0</ele><time>2026-04-25T08:34:11.712Z</time></trkpt><trkpt lat="38.0703885" lon="15.8162012"><ele>1175.0</ele><time>2026-04-25T08:34:13.705Z</time></trkpt><trkpt lat="38.0703856" lon="15.8163034"><ele>1175.0</ele><time>2026-04-25T08:34:15.703Z</time></trkpt><trkpt lat="38.0703651" lon="15.8163964"><ele>1175.0</ele><time>2026-04-25T08:34:16.702Z</time></trkpt><trkpt lat="38.0703507" lon="15.8165086"><ele>1175.0</ele><time>2026-04-25T08:34:17.702Z</time></trkpt><trkpt lat="38.0703483" lon="15.8166527"><ele>1175.0</ele><time>2026-04-25T08:34:18.706Z</time></trkpt><trkpt lat="38.0703566" lon="15.8168007"><ele>1175.0</ele><time>2026-04-25T08:34:19.7Z</time></trkpt><trkpt lat="38.0703806" lon="15.8169468"><ele>1175.0</ele><time>2026-04-25T08:34:20.702Z</time></trkpt><trkpt lat="38.070416" lon="15.8171042"><ele>1175.0</ele><time>2026-04-25T08:34:21.702Z</time></trkpt><trkpt lat="38.0704613" lon="15.8172697"><ele>1176.0</ele><time>2026-04-25T08:34:22.706Z</time></trkpt><trkpt lat="38.0705048" lon="15.8174528"><ele>1177.0</ele><time>2026-04-25T08:34:23.717Z</time></trkpt><trkpt lat="38.0705462" lon="15.8176445"><ele>1178.0</ele><time>2026-04-25T08:34:24.706Z</time></trkpt><trkpt lat="38.0705886" lon="15.8178307"><ele>1179.0</ele><time>2026-04-25T08:34:25.715Z</time></trkpt><trkpt lat="38.070634" lon="15.8180202"><ele>1180.0</ele><time>2026-04-25T08:34:26.715Z</time></trkpt><trkpt lat="38.0706792" lon="15.8182164"><ele>1181.0</ele><time>2026-04-25T08:34:27.713Z</time></trkpt><trkpt lat="38.0707274" lon="15.8184207"><ele>1181.0</ele><time>2026-04-25T08:34:28.709Z</time></trkpt><trkpt lat="38.0707769" lon="15.8186348"><ele>1181.0</ele><time>2026-04-25T08:34:29.726Z</time></trkpt><trkpt lat="38.0708269" lon="15.8188483"><ele>1181.0</ele><time>2026-04-25T08:34:30.72Z</time></trkpt><trkpt lat="38.0708773" lon="15.8190558"><ele>1181.0</ele><time>2026-04-25T08:34:31.715Z</time></trkpt><trkpt lat="38.0709281" lon="15.819264"><ele>1181.0</ele><time>2026-04-25T08:34:32.721Z</time></trkpt><trkpt lat="38.0709722" lon="15.819472"><ele>1181.0</ele><time>2026-04-25T08:34:33.725Z</time></trkpt><trkpt lat="38.0710135" lon="15.8196793"><ele>1182.6666666666667</ele><time>2026-04-25T08:34:34.722Z</time></trkpt><trkpt lat="38.0710484" lon="15.8198914"><ele>1184.3333333333333</ele><time>2026-04-25T08:34:35.718Z</time></trkpt><trkpt lat="38.0710772" lon="15.8201073"><ele>1186.0</ele><time>2026-04-25T08:34:36.729Z</time></trkpt><trkpt lat="38.0711039" lon="15.820319"><ele>1186.0</ele><time>2026-04-25T08:34:37.712Z</time></trkpt><trkpt lat="38.0711324" lon="15.8205235"><ele>1186.0</ele><time>2026-04-25T08:34:38.72Z</time></trkpt><trkpt lat="38.0711587" lon="15.8207247"><ele>1186.0</ele><time>2026-04-25T08:34:39.719Z</time></trkpt><trkpt lat="38.0711867" lon="15.8209099"><ele>1186.75</ele><time>2026-04-25T08:34:40.721Z</time></trkpt><trkpt lat="38.0712234" lon="15.8210709"><ele>1187.5</ele><time>2026-04-25T08:34:41.728Z</time></trkpt><trkpt lat="38.071274" lon="15.8212148"><ele>1188.25</ele><time>2026-04-25T08:34:42.715Z</time></trkpt><trkpt lat="38.0713424" lon="15.821341"><ele>1189.0</ele><time>2026-04-25T08:34:43.73Z</time></trkpt><trkpt lat="38.071433" lon="15.8214681"><ele>1189.0</ele><time>2026-04-25T08:34:44.724Z</time></trkpt><trkpt lat="38.0715235" lon="15.8216013"><ele>1189.0</ele><time>2026-04-25T08:34:45.718Z</time></trkpt><trkpt lat="38.0716147" lon="15.8217431"><ele>1189.0</ele><time>2026-04-25T08:34:46.732Z</time></trkpt><trkpt lat="38.0716914" lon="15.821875"><ele>1189.0</ele><time>2026-04-25T08:34:47.718Z</time></trkpt><trkpt lat="38.0717556" lon="15.8219897"><ele>1189.8</ele><time>2026-04-25T08:34:48.735Z</time></trkpt><trkpt lat="38.0718076" lon="15.8220845"><ele>1190.6000000000001</ele><time>2026-04-25T08:34:49.735Z</time></trkpt><trkpt lat="38.0718307" lon="15.822204"><ele>1191.4</ele><time>2026-04-25T08:34:51.726Z</time></trkpt><trkpt lat="38.0717572" lon="15.8222428"><ele>1192.2</ele><time>2026-04-25T08:34:54.712Z</time></trkpt><trkpt lat="38.0716723" lon="15.8222361"><ele>1193.0</ele><time>2026-04-25T08:34:56.717Z</time></trkpt><trkpt lat="38.0715689" lon="15.8222073"><ele>1193.0</ele><time>2026-04-25T08:34:58.721Z</time></trkpt><trkpt lat="38.0714845" lon="15.8221671"><ele>1193.0</ele><time>2026-04-25T08:35:00.728Z</time></trkpt><trkpt lat="38.0714112" lon="15.8221356"><ele>1193.0</ele><time>2026-04-25T08:35:02.71Z</time></trkpt><trkpt lat="38.0714988" lon="15.8221747"><ele>1193.0</ele><time>2026-04-25T08:49:47.891Z</time></trkpt><trkpt lat="38.071604" lon="15.8222093"><ele>1193.0</ele><time>2026-04-25T08:49:49.757Z</time></trkpt><trkpt lat="38.0717125" lon="15.8222456"><ele>1194.0</ele><time>2026-04-25T08:49:51.863Z</time></trkpt><trkpt lat="38.0718019" lon="15.8222895"><ele>1195.0</ele><time>2026-04-25T08:49:53.737Z</time></trkpt><trkpt lat="38.0718683" lon="15.8223367"><ele>1196.0</ele><time>2026-04-25T08:49:55.752Z</time></trkpt><trkpt lat="38.07193" lon="15.8224728"><ele>1197.0</ele><time>2026-04-25T08:49:59.732Z</time></trkpt><trkpt lat="38.0719073" lon="15.8225965"><ele>1198.0</ele><time>2026-04-25T08:50:01.738Z</time></trkpt><trkpt lat="38.0718663" lon="15.8226685"><ele>1198.0</ele><time>2026-04-25T08:50:02.729Z</time></trkpt><trkpt lat="38.0718081" lon="15.8227512"><ele>1198.0</ele><time>2026-04-25T08:50:03.737Z</time></trkpt><trkpt lat="38.0717491" lon="15.8228397"><ele>1198.0</ele><time>2026-04-25T08:50:04.738Z</time></trkpt><trkpt lat="38.0716851" lon="15.8229293"><ele>1198.0</ele><time>2026-04-25T08:50:05.745Z</time></trkpt><trkpt lat="38.0716167" lon="15.8230245"><ele>1198.0</ele><time>2026-04-25T08:50:06.755Z</time></trkpt><trkpt lat="38.0715588" lon="15.8231165"><ele>1198.0</ele><time>2026-04-25T08:50:07.758Z</time></trkpt><trkpt lat="38.0715015" lon="15.8231994"><ele>1198.0</ele><time>2026-04-25T08:50:08.726Z</time></trkpt><trkpt lat="38.0714343" lon="15.8232822"><ele>1198.0</ele><time>2026-04-25T08:50:09.76Z</time></trkpt><trkpt lat="38.0713582" lon="15.8233822"><ele>1198.0</ele><time>2026-04-25T08:50:10.758Z</time></trkpt><trkpt lat="38.0712877" lon="15.8234685"><ele>1198.0</ele><time>2026-04-25T08:50:11.745Z</time></trkpt><trkpt lat="38.0712319" lon="15.8235501"><ele>1199.0</ele><time>2026-04-25T08:50:12.738Z</time></trkpt><trkpt lat="38.0711834" lon="15.8236316"><ele>1200.0</ele><time>2026-04-25T08:50:13.753Z</time></trkpt><trkpt lat="38.0711331" lon="15.8237256"><ele>1201.0</ele><time>2026-04-25T08:50:14.781Z</time></trkpt><trkpt lat="38.0710775" lon="15.8238256"><ele>1202.0</ele><time>2026-04-25T08:50:15.791Z</time></trkpt><trkpt lat="38.0710278" lon="15.8239263"><ele>1203.0</ele><time>2026-04-25T08:50:16.723Z</time></trkpt><trkpt lat="38.070972" lon="15.8240404"><ele>1203.0</ele><time>2026-04-25T08:50:17.726Z</time></trkpt><trkpt lat="38.0709185" lon="15.8241543"><ele>1203.0</ele><time>2026-04-25T08:50:18.741Z</time></trkpt><trkpt lat="38.070861" lon="15.8242735"><ele>1203.0</ele><time>2026-04-25T08:50:19.752Z</time></trkpt><trkpt lat="38.0708096" lon="15.8244108"><ele>1203.0</ele><time>2026-04-25T08:50:20.745Z</time></trkpt><trkpt lat="38.0707635" lon="15.8245434"><ele>1203.0</ele><time>2026-04-25T08:50:21.755Z</time></trkpt><trkpt lat="38.0707309" lon="15.8246808"><ele>1203.0</ele><time>2026-04-25T08:50:22.733Z</time></trkpt><trkpt lat="38.0707037" lon="15.8248151"><ele>1203.0</ele><time>2026-04-25T08:50:23.729Z</time></trkpt><trkpt lat="38.0706749" lon="15.824951"><ele>1203.0</ele><time>2026-04-25T08:50:24.792Z</time></trkpt><trkpt lat="38.0706505" lon="15.8250788"><ele>1203.0</ele><time>2026-04-25T08:50:25.743Z</time></trkpt><trkpt lat="38.0706208" lon="15.8252056"><ele>1203.0</ele><time>2026-04-25T08:50:26.728Z</time></trkpt><trkpt lat="38.07059" lon="15.82533"><ele>1204.6</ele><time>2026-04-25T08:50:27.742Z</time></trkpt><trkpt lat="38.0705624" lon="15.8254563"><ele>1206.1999999999998</ele><time>2026-04-25T08:50:28.75Z</time></trkpt><trkpt lat="38.0705327" lon="15.8255833"><ele>1207.8</ele><time>2026-04-25T08:50:29.738Z</time></trkpt><trkpt lat="38.0705046" lon="15.8257031"><ele>1209.3999999999999</ele><time>2026-04-25T08:50:30.722Z</time></trkpt><trkpt lat="38.0704766" lon="15.8258267"><ele>1211.0</ele><time>2026-04-25T08:50:31.746Z</time></trkpt><trkpt lat="38.0704495" lon="15.8259484"><ele>1212.3333333333335</ele><time>2026-04-25T08:50:32.717Z</time></trkpt><trkpt lat="38.0704204" lon="15.826069"><ele>1213.6666666666667</ele><time>2026-04-25T08:50:33.726Z</time></trkpt><trkpt lat="38.0703964" lon="15.8261911"><ele>1215.0</ele><time>2026-04-25T08:50:34.72Z</time></trkpt><trkpt lat="38.0703767" lon="15.8263066"><ele>1216.3333333333333</ele><time>2026-04-25T08:50:35.734Z</time></trkpt><trkpt lat="38.0703658" lon="15.8264087"><ele>1217.6666666666665</ele><time>2026-04-25T08:50:36.728Z</time></trkpt><trkpt lat="38.070357" lon="15.8264988"><ele>1219.0</ele><time>2026-04-25T08:50:37.758Z</time></trkpt><trkpt lat="38.07035" lon="15.8265921"><ele>1219.0</ele><time>2026-04-25T08:50:38.737Z</time></trkpt><trkpt lat="38.0703526" lon="15.8266942"><ele>1219.0</ele><time>2026-04-25T08:50:39.736Z</time></trkpt><trkpt lat="38.0703633" lon="15.8267985"><ele>1219.0</ele><time>2026-04-25T08:50:40.763Z</time></trkpt><trkpt lat="38.0703765" lon="15.8269079"><ele>1219.0</ele><time>2026-04-25T08:50:41.744Z</time></trkpt><trkpt lat="38.070394" lon="15.8270141"><ele>1219.0</ele><time>2026-04-25T08:50:42.735Z</time></trkpt><trkpt lat="38.0704224" lon="15.827102"><ele>1219.0</ele><time>2026-04-25T08:50:43.753Z</time></trkpt><trkpt lat="38.070499" lon="15.8271937"><ele>1218.3333333333333</ele><time>2026-04-25T08:50:45.724Z</time></trkpt><trkpt lat="38.0705636" lon="15.8272123"><ele>1217.6666666666665</ele><time>2026-04-25T08:50:47.76Z</time></trkpt><trkpt lat="38.0706746" lon="15.8272213"><ele>1217.0</ele><time>2026-04-25T08:50:49.761Z</time></trkpt><trkpt lat="38.070748" lon="15.8272376"><ele>1216.3333333333333</ele><time>2026-04-25T08:50:50.723Z</time></trkpt><trkpt lat="38.0708185" lon="15.8272573"><ele>1215.6666666666667</ele><time>2026-04-25T08:50:51.729Z</time></trkpt><trkpt lat="38.0708813" lon="15.8272783"><ele>1215.0</ele><time>2026-04-25T08:50:52.728Z</time></trkpt><trkpt lat="38.0709686" lon="15.8273437"><ele>1215.0</ele><time>2026-04-25T08:50:54.737Z</time></trkpt><trkpt lat="38.070992" lon="15.8274528"><ele>1215.0</ele><time>2026-04-25T08:50:57.74Z</time></trkpt><trkpt lat="38.0709658" lon="15.8275457"><ele>1215.0</ele><time>2026-04-25T08:50:59.763Z</time></trkpt><trkpt lat="38.0709076" lon="15.8276119"><ele>1215.0</ele><time>2026-04-25T08:51:01.735Z</time></trkpt><trkpt lat="38.0708372" lon="15.8276633"><ele>1215.0</ele><time>2026-04-25T08:51:03.734Z</time></trkpt><trkpt lat="38.0707534" lon="15.8277552"><ele>1215.0</ele><time>2026-04-25T08:51:05.789Z</time></trkpt><trkpt lat="38.0707273" lon="15.8278867"><ele>1212.5</ele><time>2026-04-25T08:51:07.764Z</time></trkpt><trkpt lat="38.0707117" lon="15.8280089"><ele>1210.0</ele><time>2026-04-25T08:51:09.743Z</time></trkpt><trkpt lat="38.0707056" lon="15.828143"><ele>1207.5</ele><time>2026-04-25T08:51:11.773Z</time></trkpt><trkpt lat="38.0706997" lon="15.8282252"><ele>1205.0</ele><time>2026-04-25T08:51:12.746Z</time></trkpt><trkpt lat="38.0706942" lon="15.8283127"><ele>1202.5</ele><time>2026-04-25T08:51:13.753Z</time></trkpt><trkpt lat="38.0706918" lon="15.8283987"><ele>1200.0</ele><time>2026-04-25T08:51:14.763Z</time></trkpt><trkpt lat="38.0706867" lon="15.8284866"><ele>1199.5</ele><time>2026-04-25T08:51:15.77Z</time></trkpt><trkpt lat="38.0706765" lon="15.8285758"><ele>1199.0</ele><time>2026-04-25T08:51:16.762Z</time></trkpt><trkpt lat="38.0706708" lon="15.8286587"><ele>1198.5</ele><time>2026-04-25T08:51:17.758Z</time></trkpt><trkpt lat="38.0706772" lon="15.8287417"><ele>1198.0</ele><time>2026-04-25T08:51:18.761Z</time></trkpt><trkpt lat="38.070694" lon="15.828822"><ele>1197.5</ele><time>2026-04-25T08:51:19.769Z</time></trkpt><trkpt lat="38.0707451" lon="15.8289545"><ele>1197.0</ele><time>2026-04-25T08:51:21.782Z</time></trkpt><trkpt lat="38.0708391" lon="15.8290431"><ele>1197.0</ele><time>2026-04-25T08:51:23.789Z</time></trkpt><trkpt lat="38.0709528" lon="15.8290298"><ele>1197.0</ele><time>2026-04-25T08:51:25.797Z</time></trkpt><trkpt lat="38.0710188" lon="15.8289886"><ele>1197.0</ele><time>2026-04-25T08:51:26.75Z</time></trkpt><trkpt lat="38.071083" lon="15.8289534"><ele>1197.0</ele><time>2026-04-25T08:51:27.767Z</time></trkpt><trkpt lat="38.071146" lon="15.8289216"><ele>1197.0</ele><time>2026-04-25T08:51:28.771Z</time></trkpt><trkpt lat="38.0712432" lon="15.8288756"><ele>1197.0</ele><time>2026-04-25T08:51:30.916Z</time></trkpt><trkpt lat="38.071355" lon="15.8288697"><ele>1197.0</ele><time>2026-04-25T08:51:32.88Z</time></trkpt><trkpt lat="38.0714214" lon="15.8288887"><ele>1197.0</ele><time>2026-04-25T08:51:33.885Z</time></trkpt><trkpt lat="38.0715316" lon="15.828932"><ele>1197.0</ele><time>2026-04-25T08:51:35.941Z</time></trkpt><trkpt lat="38.0715804" lon="15.8290294"><ele>1197.0</ele><time>2026-04-25T08:51:37.812Z</time></trkpt><trkpt lat="38.0715747" lon="15.8291535"><ele>1197.0</ele><time>2026-04-25T08:51:39.83Z</time></trkpt><trkpt lat="38.0715291" lon="15.8292441"><ele>1197.0</ele><time>2026-04-25T08:51:42.158Z</time></trkpt><trkpt lat="38.0714405" lon="15.829283"><ele>1197.0</ele><time>2026-04-25T08:51:43.822Z</time></trkpt><trkpt lat="38.0713695" lon="15.8292922"><ele>1197.0</ele><time>2026-04-25T08:51:44.843Z</time></trkpt><trkpt lat="38.0712917" lon="15.8293076"><ele>1197.0</ele><time>2026-04-25T08:51:45.888Z</time></trkpt><trkpt lat="38.0711133" lon="15.8293416"><ele>1197.0</ele><time>2026-04-25T08:51:47.834Z</time></trkpt><trkpt lat="38.0710328" lon="15.8293837"><ele>1195.6666666666667</ele><time>2026-04-25T08:51:48.791Z</time></trkpt><trkpt lat="38.0709712" lon="15.829454"><ele>1194.3333333333333</ele><time>2026-04-25T08:51:49.807Z</time></trkpt><trkpt lat="38.0709209" lon="15.8295325"><ele>1193.0</ele><time>2026-04-25T08:51:50.79Z</time></trkpt><trkpt lat="38.0708695" lon="15.8296254"><ele>1191.6666666666665</ele><time>2026-04-25T08:51:51.789Z</time></trkpt><trkpt lat="38.0708152" lon="15.8297196"><ele>1190.3333333333333</ele><time>2026-04-25T08:51:52.796Z</time></trkpt><trkpt lat="38.0707669" lon="15.8298182"><ele>1189.0</ele><time>2026-04-25T08:51:53.8Z</time></trkpt><trkpt lat="38.070721" lon="15.8299043"><ele>1187.6000000000001</ele><time>2026-04-25T08:51:54.795Z</time></trkpt><trkpt lat="38.0706247" lon="15.8299629"><ele>1186.2</ele><time>2026-04-25T08:51:56.79Z</time></trkpt><trkpt lat="38.0705605" lon="15.8299476"><ele>1184.8000000000002</ele><time>2026-04-25T08:51:57.817Z</time></trkpt><trkpt lat="38.0704965" lon="15.8299169"><ele>1183.4</ele><time>2026-04-25T08:51:58.832Z</time></trkpt><trkpt lat="38.0703484" lon="15.8298403"><ele>1182.0</ele><time>2026-04-25T08:52:00.712Z</time></trkpt><trkpt lat="38.0702621" lon="15.829804"><ele>1182.0</ele><time>2026-04-25T08:52:01.709Z</time></trkpt><trkpt lat="38.0701747" lon="15.8297767"><ele>1182.0</ele><time>2026-04-25T08:52:02.716Z</time></trkpt><trkpt lat="38.070083" lon="15.8297728"><ele>1182.0</ele><time>2026-04-25T08:52:03.731Z</time></trkpt><trkpt lat="38.0699884" lon="15.829783"><ele>1182.0</ele><time>2026-04-25T08:52:04.728Z</time></trkpt><trkpt lat="38.0698908" lon="15.8297952"><ele>1182.0</ele><time>2026-04-25T08:52:05.737Z</time></trkpt><trkpt lat="38.069788" lon="15.8298101"><ele>1179.4</ele><time>2026-04-25T08:52:06.734Z</time></trkpt><trkpt lat="38.0696866" lon="15.8298258"><ele>1176.8000000000002</ele><time>2026-04-25T08:52:07.716Z</time></trkpt><trkpt lat="38.0695829" lon="15.8298383"><ele>1174.2</ele><time>2026-04-25T08:52:08.722Z</time></trkpt><trkpt lat="38.0694832" lon="15.829834"><ele>1171.6000000000001</ele><time>2026-04-25T08:52:09.733Z</time></trkpt><trkpt lat="38.0693806" lon="15.8298247"><ele>1169.0</ele><time>2026-04-25T08:52:10.737Z</time></trkpt><trkpt lat="38.0692791" lon="15.8298127"><ele>1169.0</ele><time>2026-04-25T08:52:11.727Z</time></trkpt><trkpt lat="38.0691784" lon="15.8298217"><ele>1169.0</ele><time>2026-04-25T08:52:12.718Z</time></trkpt><trkpt lat="38.0690748" lon="15.8298545"><ele>1169.0</ele><time>2026-04-25T08:52:13.726Z</time></trkpt><trkpt lat="38.0689863" lon="15.8298943"><ele>1169.0</ele><time>2026-04-25T08:52:14.735Z</time></trkpt><trkpt lat="38.0689274" lon="15.8299402"><ele>1169.0</ele><time>2026-04-25T08:52:15.742Z</time></trkpt><trkpt lat="38.0688823" lon="15.8300412"><ele>1165.8</ele><time>2026-04-25T08:52:17.733Z</time></trkpt><trkpt lat="38.0689587" lon="15.830214"><ele>1162.6000000000001</ele><time>2026-04-25T08:52:20.775Z</time></trkpt><trkpt lat="38.0690107" lon="15.830279"><ele>1159.4</ele><time>2026-04-25T08:52:21.807Z</time></trkpt><trkpt lat="38.0690666" lon="15.8303624"><ele>1156.2</ele><time>2026-04-25T08:52:22.729Z</time></trkpt><trkpt lat="38.0691276" lon="15.8304581"><ele>1153.0</ele><time>2026-04-25T08:52:23.735Z</time></trkpt><trkpt lat="38.0691938" lon="15.8305583"><ele>1153.0</ele><time>2026-04-25T08:52:24.943Z</time></trkpt><trkpt lat="38.0693116" lon="15.8307282"><ele>1153.0</ele><time>2026-04-25T08:52:26.719Z</time></trkpt><trkpt lat="38.0693188" lon="15.8308905"><ele>1153.0</ele><time>2026-04-25T08:52:28.784Z</time></trkpt><trkpt lat="38.0693001" lon="15.8309895"><ele>1153.0</ele><time>2026-04-25T08:52:29.764Z</time></trkpt><trkpt lat="38.0692836" lon="15.8310873"><ele>1148.4</ele><time>2026-04-25T08:52:30.736Z</time></trkpt><trkpt lat="38.0692749" lon="15.8311896"><ele>1143.8</ele><time>2026-04-25T08:52:31.77Z</time></trkpt><trkpt lat="38.0693228" lon="15.8313293"><ele>1139.2</ele><time>2026-04-25T08:52:33.746Z</time></trkpt><trkpt lat="38.0693854" lon="15.8313609"><ele>1134.6</ele><time>2026-04-25T08:52:34.733Z</time></trkpt><trkpt lat="38.0694532" lon="15.8313828"><ele>1130.0</ele><time>2026-04-25T08:52:35.893Z</time></trkpt><trkpt lat="38.0696128" lon="15.8313799"><ele>1130.0</ele><time>2026-04-25T08:52:37.748Z</time></trkpt><trkpt lat="38.0696906" lon="15.8313635"><ele>1130.0</ele><time>2026-04-25T08:52:38.766Z</time></trkpt><trkpt lat="38.0697544" lon="15.8313514"><ele>1130.0</ele><time>2026-04-25T08:52:39.745Z</time></trkpt><trkpt lat="38.0698154" lon="15.8313964"><ele>1130.0</ele><time>2026-04-25T08:52:41.769Z</time></trkpt><trkpt lat="38.0697835" lon="15.8314761"><ele>1130.0</ele><time>2026-04-25T08:52:43.74Z</time></trkpt><trkpt lat="38.069706" lon="15.8315154"><ele>1130.0</ele><time>2026-04-25T08:52:45.776Z</time></trkpt><trkpt lat="38.069606" lon="15.8315582"><ele>1130.0</ele><time>2026-04-25T08:52:47.802Z</time></trkpt><trkpt lat="38.0695819" lon="15.8316567"><ele>1130.0</ele><time>2026-04-25T08:52:49.768Z</time></trkpt><trkpt lat="38.0696282" lon="15.831723"><ele>1130.0</ele><time>2026-04-25T08:52:51.772Z</time></trkpt><trkpt lat="38.0696937" lon="15.8316801"><ele>1130.0</ele><time>2026-04-25T08:52:53.763Z</time></trkpt><trkpt lat="38.0698217" lon="15.8315986"><ele>1130.0</ele><time>2026-04-25T08:52:55.787Z</time></trkpt><trkpt lat="38.0699005" lon="15.831551"><ele>1131.2</ele><time>2026-04-25T08:52:56.764Z</time></trkpt><trkpt lat="38.0699793" lon="15.8314994"><ele>1132.4</ele><time>2026-04-25T08:52:57.785Z</time></trkpt><trkpt lat="38.0700552" lon="15.8314373"><ele>1133.6</ele><time>2026-04-25T08:52:58.794Z</time></trkpt><trkpt lat="38.0701337" lon="15.8313763"><ele>1134.8</ele><time>2026-04-25T08:52:59.773Z</time></trkpt><trkpt lat="38.0702182" lon="15.8313205"><ele>1136.0</ele><time>2026-04-25T08:53:00.772Z</time></trkpt><trkpt lat="38.0703035" lon="15.8312716"><ele>1136.0</ele><time>2026-04-25T08:53:01.787Z</time></trkpt><trkpt lat="38.070389" lon="15.8312263"><ele>1136.0</ele><time>2026-04-25T08:53:02.783Z</time></trkpt><trkpt lat="38.0704791" lon="15.8311899"><ele>1136.0</ele><time>2026-04-25T08:53:03.808Z</time></trkpt><trkpt lat="38.0705689" lon="15.8311595"><ele>1136.0</ele><time>2026-04-25T08:53:04.807Z</time></trkpt><trkpt lat="38.0706588" lon="15.8311313"><ele>1136.0</ele><time>2026-04-25T08:53:05.779Z</time></trkpt><trkpt lat="38.0707422" lon="15.8311001"><ele>1132.0</ele><time>2026-04-25T08:53:06.792Z</time></trkpt><trkpt lat="38.0708185" lon="15.8310832"><ele>1128.0</ele><time>2026-04-25T08:53:07.797Z</time></trkpt><trkpt lat="38.0709024" lon="15.8310848"><ele>1124.0</ele><time>2026-04-25T08:53:08.774Z</time></trkpt><trkpt lat="38.0709772" lon="15.831122"><ele>1120.0</ele><time>2026-04-25T08:53:09.804Z</time></trkpt><trkpt lat="38.071059" lon="15.8311691"><ele>1116.0</ele><time>2026-04-25T08:53:10.795Z</time></trkpt><trkpt lat="38.0711468" lon="15.8312083"><ele>1112.0</ele><time>2026-04-25T08:53:11.803Z</time></trkpt><trkpt lat="38.0712311" lon="15.8312578"><ele>1112.0</ele><time>2026-04-25T08:53:12.785Z</time></trkpt><trkpt lat="38.0713071" lon="15.8313124"><ele>1112.0</ele><time>2026-04-25T08:53:13.787Z</time></trkpt><trkpt lat="38.0713799" lon="15.8313766"><ele>1112.0</ele><time>2026-04-25T08:53:14.811Z</time></trkpt><trkpt lat="38.071445" lon="15.8314274"><ele>1112.0</ele><time>2026-04-25T08:53:15.786Z</time></trkpt><trkpt lat="38.0714944" lon="15.8314806"><ele>1112.0</ele><time>2026-04-25T08:53:16.809Z</time></trkpt><trkpt lat="38.0714707" lon="15.8315723"><ele>1112.0</ele><time>2026-04-25T08:53:19.802Z</time></trkpt><trkpt lat="38.0713851" lon="15.8315524"><ele>1112.0</ele><time>2026-04-25T08:53:21.785Z</time></trkpt><trkpt lat="38.0711757" lon="15.8315526"><ele>1112.0</ele><time>2026-04-25T08:53:24.703Z</time></trkpt><trkpt lat="38.0711081" lon="15.8315835"><ele>1112.0</ele><time>2026-04-25T08:53:25.702Z</time></trkpt><trkpt lat="38.0710387" lon="15.831644"><ele>1112.0</ele><time>2026-04-25T08:53:26.69Z</time></trkpt><trkpt lat="38.0709472" lon="15.8317219"><ele>1105.75</ele><time>2026-04-25T08:53:27.732Z</time></trkpt><trkpt lat="38.070862" lon="15.8318271"><ele>1099.5</ele><time>2026-04-25T08:53:28.703Z</time></trkpt><trkpt lat="38.0707773" lon="15.8319268"><ele>1093.25</ele><time>2026-04-25T08:53:29.708Z</time></trkpt><trkpt lat="38.0706933" lon="15.8320198"><ele>1087.0</ele><time>2026-04-25T08:53:30.695Z</time></trkpt><trkpt lat="38.0706026" lon="15.8321011"><ele>1087.0</ele><time>2026-04-25T08:53:31.701Z</time></trkpt><trkpt lat="38.0705247" lon="15.832176"><ele>1087.0</ele><time>2026-04-25T08:53:32.712Z</time></trkpt><trkpt lat="38.0704586" lon="15.8322414"><ele>1087.0</ele><time>2026-04-25T08:53:33.723Z</time></trkpt><trkpt lat="38.0704035" lon="15.8323363"><ele>1087.0</ele><time>2026-04-25T08:53:35.704Z</time></trkpt><trkpt lat="38.0704648" lon="15.8323768"><ele>1087.0</ele><time>2026-04-25T08:53:37.715Z</time></trkpt><trkpt lat="38.0705318" lon="15.8323928"><ele>1087.0</ele><time>2026-04-25T08:53:38.733Z</time></trkpt><trkpt lat="38.070618" lon="15.8324287"><ele>1087.0</ele><time>2026-04-25T08:53:39.716Z</time></trkpt><trkpt lat="38.0707034" lon="15.8324936"><ele>1087.0</ele><time>2026-04-25T08:53:40.715Z</time></trkpt><trkpt lat="38.0707905" lon="15.8325504"><ele>1087.0</ele><time>2026-04-25T08:53:41.698Z</time></trkpt><trkpt lat="38.0708511" lon="15.8325917"><ele>1087.0</ele><time>2026-04-25T08:53:42.709Z</time></trkpt><trkpt lat="38.0708713" lon="15.8326909"><ele>1087.0</ele><time>2026-04-25T08:53:44.726Z</time></trkpt><trkpt lat="38.0707923" lon="15.8327419"><ele>1087.0</ele><time>2026-04-25T08:53:46.717Z</time></trkpt><trkpt lat="38.0707267" lon="15.8327215"><ele>1080.5</ele><time>2026-04-25T08:53:47.727Z</time></trkpt><trkpt lat="38.0706627" lon="15.8326843"><ele>1074.0</ele><time>2026-04-25T08:53:48.72Z</time></trkpt><trkpt lat="38.0706356" lon="15.8327814"><ele>1067.5</ele><time>2026-04-25T08:53:51.728Z</time></trkpt><trkpt lat="38.0707372" lon="15.8328487"><ele>1061.0</ele><time>2026-04-25T08:53:53.734Z</time></trkpt><trkpt lat="38.0707681" lon="15.8329212"><ele>1054.5</ele><time>2026-04-25T08:53:55.713Z</time></trkpt><trkpt lat="38.0707046" lon="15.8329458"><ele>1048.0</ele><time>2026-04-25T08:53:57.734Z</time></trkpt><trkpt lat="38.0705786" lon="15.8329035"><ele>1048.0</ele><time>2026-04-25T08:53:59.72Z</time></trkpt><trkpt lat="38.0705012" lon="15.8328781"><ele>1048.0</ele><time>2026-04-25T08:54:00.752Z</time></trkpt><trkpt lat="38.0704251" lon="15.8328595"><ele>1048.0</ele><time>2026-04-25T08:54:01.767Z</time></trkpt><trkpt lat="38.0703519" lon="15.8328543"><ele>1048.0</ele><time>2026-04-25T08:54:02.725Z</time></trkpt><trkpt lat="38.070281" lon="15.8328637"><ele>1048.0</ele><time>2026-04-25T08:54:03.74Z</time></trkpt><trkpt lat="38.0702085" lon="15.8328812"><ele>1048.0</ele><time>2026-04-25T08:54:04.711Z</time></trkpt><trkpt lat="38.0701405" lon="15.8329031"><ele>1048.0</ele><time>2026-04-25T08:54:05.721Z</time></trkpt><trkpt lat="38.0700658" lon="15.8329313"><ele>1048.0</ele><time>2026-04-25T08:54:06.715Z</time></trkpt><trkpt lat="38.0699852" lon="15.8329651"><ele>1048.0</ele><time>2026-04-25T08:54:07.717Z</time></trkpt><trkpt lat="38.0699035" lon="15.8330047"><ele>1048.0</ele><time>2026-04-25T08:54:08.712Z</time></trkpt><trkpt lat="38.0698193" lon="15.8330476"><ele>1048.0</ele><time>2026-04-25T08:54:09.709Z</time></trkpt><trkpt lat="38.0697217" lon="15.8331005"><ele>1048.0</ele><time>2026-04-25T08:54:10.726Z</time></trkpt><trkpt lat="38.0696211" lon="15.8331564"><ele>1050.8</ele><time>2026-04-25T08:54:11.714Z</time></trkpt><trkpt lat="38.0695218" lon="15.8332104"><ele>1053.6</ele><time>2026-04-25T08:54:12.716Z</time></trkpt><trkpt lat="38.0694219" lon="15.8332591"><ele>1056.4</ele><time>2026-04-25T08:54:13.725Z</time></trkpt><trkpt lat="38.069322" lon="15.8333002"><ele>1059.2</ele><time>2026-04-25T08:54:14.727Z</time></trkpt><trkpt lat="38.0692239" lon="15.8333485"><ele>1062.0</ele><time>2026-04-25T08:54:15.73Z</time></trkpt><trkpt lat="38.0691312" lon="15.8334032"><ele>1058.0</ele><time>2026-04-25T08:54:16.73Z</time></trkpt><trkpt lat="38.0690383" lon="15.8334776"><ele>1054.0</ele><time>2026-04-25T08:54:17.743Z</time></trkpt><trkpt lat="38.0689432" lon="15.8335548"><ele>1050.0</ele><time>2026-04-25T08:54:18.724Z</time></trkpt><trkpt lat="38.06885" lon="15.8336298"><ele>1046.0</ele><time>2026-04-25T08:54:19.76Z</time></trkpt><trkpt lat="38.0687654" lon="15.8337087"><ele>1042.0</ele><time>2026-04-25T08:54:20.729Z</time></trkpt><trkpt lat="38.0686958" lon="15.8337929"><ele>1042.0</ele><time>2026-04-25T08:54:21.734Z</time></trkpt><trkpt lat="38.0686358" lon="15.833886"><ele>1042.0</ele><time>2026-04-25T08:54:22.74Z</time></trkpt><trkpt lat="38.0685727" lon="15.8339779"><ele>1042.0</ele><time>2026-04-25T08:54:23.742Z</time></trkpt><trkpt lat="38.0685126" lon="15.8340761"><ele>1042.0</ele><time>2026-04-25T08:54:24.719Z</time></trkpt><trkpt lat="38.068462" lon="15.8341673"><ele>1042.0</ele><time>2026-04-25T08:54:25.716Z</time></trkpt><trkpt lat="38.0684224" lon="15.8342505"><ele>1037.8333333333333</ele><time>2026-04-25T08:54:26.723Z</time></trkpt><trkpt lat="38.0683853" lon="15.8343387"><ele>1033.6666666666665</ele><time>2026-04-25T08:54:27.752Z</time></trkpt><trkpt lat="38.0683481" lon="15.8344324"><ele>1029.5</ele><time>2026-04-25T08:54:28.721Z</time></trkpt><trkpt lat="38.0683005" lon="15.8345287"><ele>1025.3333333333333</ele><time>2026-04-25T08:54:29.722Z</time></trkpt><trkpt lat="38.0682437" lon="15.8346327"><ele>1021.1666666666666</ele><time>2026-04-25T08:54:30.731Z</time></trkpt><trkpt lat="38.0681844" lon="15.8347321"><ele>1017.0</ele><time>2026-04-25T08:54:31.72Z</time></trkpt><trkpt lat="38.0681145" lon="15.8348045"><ele>1014.2</ele><time>2026-04-25T08:54:32.72Z</time></trkpt><trkpt lat="38.068055" lon="15.8348608"><ele>1011.4000000000001</ele><time>2026-04-25T08:54:33.725Z</time></trkpt><trkpt lat="38.0679456" lon="15.8348977"><ele>1008.5999999999999</ele><time>2026-04-25T08:54:35.722Z</time></trkpt><trkpt lat="38.0678364" lon="15.8348555"><ele>1005.8</ele><time>2026-04-25T08:54:37.723Z</time></trkpt><trkpt lat="38.0677482" lon="15.8347595"><ele>1003.0</ele><time>2026-04-25T08:54:39.759Z</time></trkpt><trkpt lat="38.0677021" lon="15.834702"><ele>1002.9999999999999</ele><time>2026-04-25T08:54:40.73Z</time></trkpt><trkpt lat="38.0676587" lon="15.8346311"><ele>1003.0</ele><time>2026-04-25T08:54:41.734Z</time></trkpt><trkpt lat="38.0676147" lon="15.8345534"><ele>1003.0</ele><time>2026-04-25T08:54:42.731Z</time></trkpt><trkpt lat="38.0675713" lon="15.8344801"><ele>1003.0</ele><time>2026-04-25T08:54:43.745Z</time></trkpt><trkpt lat="38.067525" lon="15.834422"><ele>1002.9999999999999</ele><time>2026-04-25T08:54:44.73Z</time></trkpt><trkpt lat="38.0674557" lon="15.8344576"><ele>1003.0</ele><time>2026-04-25T08:54:47.727Z</time></trkpt><trkpt lat="38.0674492" lon="15.8346116"><ele>1002.9999999999999</ele><time>2026-04-25T08:54:49.722Z</time></trkpt><trkpt lat="38.0674607" lon="15.8347111"><ele>1003.0</ele><time>2026-04-25T08:54:50.723Z</time></trkpt><trkpt lat="38.0674783" lon="15.8347993"><ele>1003.0</ele><time>2026-04-25T08:54:51.728Z</time></trkpt><trkpt lat="38.0674981" lon="15.8348852"><ele>1003.0</ele><time>2026-04-25T08:54:52.723Z</time></trkpt><trkpt lat="38.0675305" lon="15.8349733"><ele>1002.9999999999999</ele><time>2026-04-25T08:54:53.732Z</time></trkpt><trkpt lat="38.0675692" lon="15.8350689"><ele>1003.0</ele><time>2026-04-25T08:54:54.723Z</time></trkpt><trkpt lat="38.0676293" lon="15.8351575"><ele>997.9999999999999</ele><time>2026-04-25T08:54:55.734Z</time></trkpt><trkpt lat="38.0677019" lon="15.8352387"><ele>993.0</ele><time>2026-04-25T08:54:56.737Z</time></trkpt><trkpt lat="38.0677746" lon="15.8353084"><ele>988.0</ele><time>2026-04-25T08:54:57.727Z</time></trkpt><trkpt lat="38.0678357" lon="15.8354045"><ele>983.0</ele><time>2026-04-25T08:54:59.726Z</time></trkpt><trkpt lat="38.0677819" lon="15.8354495"><ele>977.9999999999999</ele><time>2026-04-25T08:55:02.741Z</time></trkpt><trkpt lat="38.0677185" lon="15.8354048"><ele>973.0</ele><time>2026-04-25T08:55:04.736Z</time></trkpt><trkpt lat="38.0676182" lon="15.8353299"><ele>972.9999999999999</ele><time>2026-04-25T08:55:06.733Z</time></trkpt><trkpt lat="38.0675443" lon="15.83527"><ele>973.0</ele><time>2026-04-25T08:55:07.763Z</time></trkpt><trkpt lat="38.0674732" lon="15.8352081"><ele>973.0</ele><time>2026-04-25T08:55:08.743Z</time></trkpt><trkpt lat="38.0674086" lon="15.8351441"><ele>973.0</ele><time>2026-04-25T08:55:09.749Z</time></trkpt><trkpt lat="38.0673445" lon="15.835076"><ele>972.9999999999999</ele><time>2026-04-25T08:55:10.741Z</time></trkpt><trkpt lat="38.0672827" lon="15.8350035"><ele>973.0</ele><time>2026-04-25T08:55:11.734Z</time></trkpt><trkpt lat="38.0672301" lon="15.8349262"><ele>970.3333333333333</ele><time>2026-04-25T08:55:12.726Z</time></trkpt><trkpt lat="38.0671897" lon="15.8348532"><ele>967.6666666666666</ele><time>2026-04-25T08:55:13.747Z</time></trkpt><trkpt lat="38.0671465" lon="15.8347857"><ele>965.0</ele><time>2026-04-25T08:55:15.737Z</time></trkpt><trkpt lat="38.0671292" lon="15.8348732"><ele>962.3333333333333</ele><time>2026-04-25T08:55:19.747Z</time></trkpt><trkpt lat="38.0672033" lon="15.8349818"><ele>959.6666666666666</ele><time>2026-04-25T08:55:21.739Z</time></trkpt><trkpt lat="38.067256" lon="15.8350605"><ele>957.0</ele><time>2026-04-25T08:55:22.742Z</time></trkpt><trkpt lat="38.0673125" lon="15.8351465"><ele>959.6666666666666</ele><time>2026-04-25T08:55:23.743Z</time></trkpt><trkpt lat="38.0673776" lon="15.8352406"><ele>962.3333333333333</ele><time>2026-04-25T08:55:24.74Z</time></trkpt><trkpt lat="38.0674408" lon="15.8353285"><ele>965.0</ele><time>2026-04-25T08:55:25.751Z</time></trkpt><trkpt lat="38.0674936" lon="15.8354137"><ele>967.6666666666666</ele><time>2026-04-25T08:55:26.742Z</time></trkpt><trkpt lat="38.0675399" lon="15.835501"><ele>970.3333333333333</ele><time>2026-04-25T08:55:27.742Z</time></trkpt><trkpt lat="38.0675778" lon="15.8355942"><ele>973.0</ele><time>2026-04-25T08:55:28.743Z</time></trkpt><trkpt lat="38.0676068" lon="15.8356964"><ele>972.9999999999999</ele><time>2026-04-25T08:55:29.747Z</time></trkpt><trkpt lat="38.0676305" lon="15.8357787"><ele>973.0</ele><time>2026-04-25T08:55:30.743Z</time></trkpt><trkpt lat="38.0677244" lon="15.8358619"><ele>973.0</ele><time>2026-04-25T08:55:32.736Z</time></trkpt><trkpt lat="38.0677982" lon="15.8359183"><ele>973.0</ele><time>2026-04-25T08:55:34.733Z</time></trkpt><trkpt lat="38.0677661" lon="15.8359918"><ele>972.9999999999999</ele><time>2026-04-25T08:55:38.746Z</time></trkpt><trkpt lat="38.0676692" lon="15.8359541"><ele>973.0</ele><time>2026-04-25T08:55:40.748Z</time></trkpt><trkpt lat="38.0675617" lon="15.8359049"><ele>973.0</ele><time>2026-04-25T08:55:42.737Z</time></trkpt><trkpt lat="38.0674592" lon="15.8358279"><ele>973.0</ele><time>2026-04-25T08:55:44.733Z</time></trkpt><trkpt lat="38.0674124" lon="15.8357641"><ele>973.0</ele><time>2026-04-25T08:55:45.734Z</time></trkpt><trkpt lat="38.0673545" lon="15.83568"><ele>973.0</ele><time>2026-04-25T08:55:46.745Z</time></trkpt><trkpt lat="38.0672955" lon="15.8355946"><ele>973.0</ele><time>2026-04-25T08:55:47.75Z</time></trkpt><trkpt lat="38.0672237" lon="15.8355104"><ele>967.4999999999999</ele><time>2026-04-25T08:55:48.747Z</time></trkpt><trkpt lat="38.0671447" lon="15.8354304"><ele>962.0</ele><time>2026-04-25T08:55:49.738Z</time></trkpt><trkpt lat="38.0670718" lon="15.8353595"><ele>956.5</ele><time>2026-04-25T08:55:50.74Z</time></trkpt><trkpt lat="38.0669995" lon="15.8352985"><ele>951.0</ele><time>2026-04-25T08:55:51.747Z</time></trkpt><trkpt lat="38.0669204" lon="15.8352587"><ele>945.4999999999999</ele><time>2026-04-25T08:55:52.761Z</time></trkpt><trkpt lat="38.0668466" lon="15.8352488"><ele>940.0</ele><time>2026-04-25T08:55:53.753Z</time></trkpt><trkpt lat="38.0667825" lon="15.8352209"><ele>944.25</ele><time>2026-04-25T08:55:54.744Z</time></trkpt><trkpt lat="38.066712" lon="15.8351276"><ele>948.5</ele><time>2026-04-25T08:55:56.748Z</time></trkpt><trkpt lat="38.0666759" lon="15.8349824"><ele>952.75</ele><time>2026-04-25T08:55:58.758Z</time></trkpt><trkpt lat="38.0666873" lon="15.8348518"><ele>957.0</ele><time>2026-04-25T08:56:00.739Z</time></trkpt><trkpt lat="38.0667208" lon="15.8346929"><ele>957.0</ele><time>2026-04-25T08:56:02.744Z</time></trkpt><trkpt lat="38.0667456" lon="15.8346065"><ele>957.0</ele><time>2026-04-25T08:56:03.753Z</time></trkpt><trkpt lat="38.0667699" lon="15.8345121"><ele>957.0</ele><time>2026-04-25T08:56:04.755Z</time></trkpt><trkpt lat="38.0667857" lon="15.8344219"><ele>957.0</ele><time>2026-04-25T08:56:05.737Z</time></trkpt><trkpt lat="38.0667907" lon="15.8342863"><ele>957.0</ele><time>2026-04-25T08:56:07.752Z</time></trkpt><trkpt lat="38.0667702" lon="15.8341985"><ele>957.0</ele><time>2026-04-25T08:56:10.742Z</time></trkpt><trkpt lat="38.0667062" lon="15.8343146"><ele>957.0</ele><time>2026-04-25T08:56:13.737Z</time></trkpt><trkpt lat="38.0666631" lon="15.8344606"><ele>957.0</ele><time>2026-04-25T08:56:15.74Z</time></trkpt><trkpt lat="38.0666248" lon="15.8345409"><ele>957.0</ele><time>2026-04-25T08:56:16.739Z</time></trkpt><trkpt lat="38.066571" lon="15.8346295"><ele>957.0</ele><time>2026-04-25T08:56:17.747Z</time></trkpt><trkpt lat="38.0665185" lon="15.8347175"><ele>957.0</ele><time>2026-04-25T08:56:18.743Z</time></trkpt><trkpt lat="38.0664766" lon="15.8347944"><ele>957.0</ele><time>2026-04-25T08:56:19.763Z</time></trkpt><trkpt lat="38.0664741" lon="15.834917"><ele>953.6</ele><time>2026-04-25T08:56:21.736Z</time></trkpt><trkpt lat="38.0664997" lon="15.8350476"><ele>950.2</ele><time>2026-04-25T08:56:23.749Z</time></trkpt><trkpt lat="38.0665209" lon="15.8351371"><ele>946.8</ele><time>2026-04-25T08:56:24.752Z</time></trkpt><trkpt lat="38.0665581" lon="15.8352334"><ele>943.4</ele><time>2026-04-25T08:56:25.74Z</time></trkpt><trkpt lat="38.0666007" lon="15.8353138"><ele>940.0</ele><time>2026-04-25T08:56:26.74Z</time></trkpt><trkpt lat="38.066695" lon="15.8353989"><ele>939.9999999999999</ele><time>2026-04-25T08:56:28.733Z</time></trkpt><trkpt lat="38.0668001" lon="15.8354607"><ele>940.0</ele><time>2026-04-25T08:56:30.74Z</time></trkpt><trkpt lat="38.0668744" lon="15.8354997"><ele>940.0</ele><time>2026-04-25T08:56:31.738Z</time></trkpt><trkpt lat="38.0669466" lon="15.8355609"><ele>940.0</ele><time>2026-04-25T08:56:32.748Z</time></trkpt><trkpt lat="38.0670081" lon="15.8356262"><ele>939.9999999999999</ele><time>2026-04-25T08:56:33.737Z</time></trkpt><trkpt lat="38.067064" lon="15.8356951"><ele>940.0</ele><time>2026-04-25T08:56:34.741Z</time></trkpt><trkpt lat="38.0671051" lon="15.8357774"><ele>940.0</ele><time>2026-04-25T08:56:35.741Z</time></trkpt><trkpt lat="38.0671382" lon="15.8358617"><ele>939.9999999999999</ele><time>2026-04-25T08:56:36.742Z</time></trkpt><trkpt lat="38.0671624" lon="15.8359482"><ele>940.0</ele><time>2026-04-25T08:56:37.751Z</time></trkpt><trkpt lat="38.0671945" lon="15.8360331"><ele>940.0</ele><time>2026-04-25T08:56:38.751Z</time></trkpt><trkpt lat="38.067231" lon="15.8361023"><ele>939.9999999999999</ele><time>2026-04-25T08:56:39.741Z</time></trkpt><trkpt lat="38.0672766" lon="15.8361737"><ele>940.0</ele><time>2026-04-25T08:56:40.75Z</time></trkpt><trkpt lat="38.0673284" lon="15.8362339"><ele>940.0</ele><time>2026-04-25T08:56:41.75Z</time></trkpt><trkpt lat="38.0673853" lon="15.8362766"><ele>937.4999999999999</ele><time>2026-04-25T08:56:42.748Z</time></trkpt><trkpt lat="38.0674523" lon="15.8362975"><ele>935.0</ele><time>2026-04-25T08:56:43.733Z</time></trkpt><trkpt lat="38.0675192" lon="15.8363098"><ele>932.5</ele><time>2026-04-25T08:56:44.752Z</time></trkpt><trkpt lat="38.0675833" lon="15.8363242"><ele>930.0</ele><time>2026-04-25T08:56:45.739Z</time></trkpt><trkpt lat="38.0676417" lon="15.8363591"><ele>927.4999999999999</ele><time>2026-04-25T08:56:46.739Z</time></trkpt><trkpt lat="38.0677217" lon="15.8364668"><ele>925.0</ele><time>2026-04-25T08:56:48.744Z</time></trkpt><trkpt lat="38.0678081" lon="15.8365358"><ele>924.9999999999999</ele><time>2026-04-25T08:56:50.742Z</time></trkpt><trkpt lat="38.0679054" lon="15.8364961"><ele>925.0</ele><time>2026-04-25T08:56:52.729Z</time></trkpt><trkpt lat="38.0679727" lon="15.8364578"><ele>925.0</ele><time>2026-04-25T08:56:53.763Z</time></trkpt><trkpt lat="38.0680505" lon="15.8364364"><ele>925.0</ele><time>2026-04-25T08:56:54.759Z</time></trkpt><trkpt lat="38.0681207" lon="15.8364358"><ele>924.9999999999999</ele><time>2026-04-25T08:56:55.739Z</time></trkpt><trkpt lat="38.0681864" lon="15.8364306"><ele>925.0</ele><time>2026-04-25T08:56:56.738Z</time></trkpt><trkpt lat="38.0682968" lon="15.8363607"><ele>925.3333333333333</ele><time>2026-04-25T08:56:58.746Z</time></trkpt><trkpt lat="38.068364" lon="15.8363137"><ele>925.6666666666666</ele><time>2026-04-25T08:56:59.735Z</time></trkpt><trkpt lat="38.0684495" lon="15.8362571"><ele>926.0</ele><time>2026-04-25T08:57:00.733Z</time></trkpt><trkpt lat="38.0685261" lon="15.8361965"><ele>926.3333333333333</ele><time>2026-04-25T08:57:01.739Z</time></trkpt><trkpt lat="38.0685945" lon="15.8361297"><ele>926.6666666666666</ele><time>2026-04-25T08:57:02.746Z</time></trkpt><trkpt lat="38.0686513" lon="15.8360529"><ele>927.0</ele><time>2026-04-25T08:57:03.748Z</time></trkpt><trkpt lat="38.0687086" lon="15.8359818"><ele>927.0</ele><time>2026-04-25T08:57:04.743Z</time></trkpt><trkpt lat="38.0687583" lon="15.8359302"><ele>927.0</ele><time>2026-04-25T08:57:05.735Z</time></trkpt><trkpt lat="38.0688552" lon="15.83591"><ele>927.0</ele><time>2026-04-25T08:57:07.741Z</time></trkpt><trkpt lat="38.0689437" lon="15.836002"><ele>927.0</ele><time>2026-04-25T08:57:09.748Z</time></trkpt><trkpt lat="38.0689769" lon="15.8360729"><ele>927.0</ele><time>2026-04-25T08:57:10.74Z</time></trkpt><trkpt lat="38.069063" lon="15.8361583"><ele>925.6666666666666</ele><time>2026-04-25T08:57:12.737Z</time></trkpt><trkpt lat="38.0691286" lon="15.8362031"><ele>924.3333333333333</ele><time>2026-04-25T08:57:13.748Z</time></trkpt><trkpt lat="38.0691968" lon="15.8362456"><ele>923.0</ele><time>2026-04-25T08:57:14.742Z</time></trkpt><trkpt lat="38.069268" lon="15.8362753"><ele>921.6666666666666</ele><time>2026-04-25T08:57:15.732Z</time></trkpt><trkpt lat="38.0693369" lon="15.8362964"><ele>920.3333333333333</ele><time>2026-04-25T08:57:16.751Z</time></trkpt><trkpt lat="38.0694509" lon="15.8362658"><ele>919.0</ele><time>2026-04-25T08:57:18.75Z</time></trkpt><trkpt lat="38.0695022" lon="15.8362084"><ele>918.9999999999999</ele><time>2026-04-25T08:57:19.733Z</time></trkpt><trkpt lat="38.0695584" lon="15.8361582"><ele>919.0</ele><time>2026-04-25T08:57:20.741Z</time></trkpt><trkpt lat="38.0696232" lon="15.8361252"><ele>919.0</ele><time>2026-04-25T08:57:21.746Z</time></trkpt><trkpt lat="38.0697001" lon="15.8361192"><ele>919.0</ele><time>2026-04-25T08:57:22.732Z</time></trkpt><trkpt lat="38.0697879" lon="15.836124"><ele>918.9999999999999</ele><time>2026-04-25T08:57:23.738Z</time></trkpt><trkpt lat="38.0698726" lon="15.8361385"><ele>919.0</ele><time>2026-04-25T08:57:24.738Z</time></trkpt><trkpt lat="38.069952" lon="15.8361712"><ele>919.1666666666666</ele><time>2026-04-25T08:57:25.753Z</time></trkpt><trkpt lat="38.0700266" lon="15.8362208"><ele>919.3333333333333</ele><time>2026-04-25T08:57:26.739Z</time></trkpt><trkpt lat="38.070106" lon="15.8362767"><ele>919.5</ele><time>2026-04-25T08:57:27.737Z</time></trkpt><trkpt lat="38.070181" lon="15.836338"><ele>919.6666666666667</ele><time>2026-04-25T08:57:28.727Z</time></trkpt><trkpt lat="38.0702473" lon="15.8363891"><ele>919.8333333333334</ele><time>2026-04-25T08:57:29.738Z</time></trkpt><trkpt lat="38.0703104" lon="15.8364366"><ele>920.0</ele><time>2026-04-25T08:57:30.746Z</time></trkpt><trkpt lat="38.0703652" lon="15.8364895"><ele>920.0000000000001</ele><time>2026-04-25T08:57:31.743Z</time></trkpt><trkpt lat="38.0704091" lon="15.8365581"><ele>920.0</ele><time>2026-04-25T08:57:32.743Z</time></trkpt><trkpt lat="38.0704377" lon="15.8366346"><ele>920.0</ele><time>2026-04-25T08:57:33.731Z</time></trkpt><trkpt lat="38.0704536" lon="15.8367128"><ele>920.0</ele><time>2026-04-25T08:57:34.73Z</time></trkpt><trkpt lat="38.0704938" lon="15.8368399"><ele>920.0000000000001</ele><time>2026-04-25T08:57:36.737Z</time></trkpt><trkpt lat="38.070584" lon="15.8369275"><ele>920.0</ele><time>2026-04-25T08:57:38.735Z</time></trkpt><trkpt lat="38.0706496" lon="15.8369762"><ele>920.8333333333334</ele><time>2026-04-25T08:57:39.738Z</time></trkpt><trkpt lat="38.0707239" lon="15.8370241"><ele>921.6666666666667</ele><time>2026-04-25T08:57:40.746Z</time></trkpt><trkpt lat="38.0707944" lon="15.8370714"><ele>922.5</ele><time>2026-04-25T08:57:41.737Z</time></trkpt><trkpt lat="38.0708487" lon="15.8371357"><ele>923.3333333333333</ele><time>2026-04-25T08:57:42.748Z</time></trkpt><trkpt lat="38.0708871" lon="15.8372007"><ele>924.1666666666666</ele><time>2026-04-25T08:57:43.747Z</time></trkpt><trkpt lat="38.0709748" lon="15.837234"><ele>925.0</ele><time>2026-04-25T08:57:45.732Z</time></trkpt><trkpt lat="38.0709977" lon="15.8373102"><ele>924.9999999999999</ele><time>2026-04-25T08:57:48.726Z</time></trkpt><trkpt lat="38.0709615" lon="15.8373788"><ele>925.0</ele><time>2026-04-25T08:57:50.743Z</time></trkpt><trkpt lat="38.0708953" lon="15.837432"><ele>925.0</ele><time>2026-04-25T08:57:52.733Z</time></trkpt><trkpt lat="38.0708044" lon="15.8374685"><ele>925.0</ele><time>2026-04-25T08:57:54.74Z</time></trkpt><trkpt lat="38.0707272" lon="15.8374579"><ele>924.9999999999999</ele><time>2026-04-25T08:57:56.745Z</time></trkpt><trkpt lat="38.0706666" lon="15.8374206"><ele>925.0</ele><time>2026-04-25T08:57:58.748Z</time></trkpt><trkpt lat="38.0705729" lon="15.8373748"><ele>924.9999999999999</ele><time>2026-04-25T08:58:00.755Z</time></trkpt><trkpt lat="38.0704776" lon="15.8373226"><ele>925.0</ele><time>2026-04-25T08:58:02.736Z</time></trkpt><trkpt lat="38.0703462" lon="15.8373054"><ele>925.0</ele><time>2026-04-25T08:58:04.736Z</time></trkpt><trkpt lat="38.0702774" lon="15.8372836"><ele>925.0</ele><time>2026-04-25T08:58:05.747Z</time></trkpt><trkpt lat="38.070216" lon="15.837252"><ele>924.9999999999999</ele><time>2026-04-25T08:58:06.733Z</time></trkpt><trkpt lat="38.0701588" lon="15.8372072"><ele>925.0</ele><time>2026-04-25T08:58:07.747Z</time></trkpt><trkpt lat="38.0700601" lon="15.8371389"><ele>924.9999999999999</ele><time>2026-04-25T08:58:09.742Z</time></trkpt><trkpt lat="38.0699945" lon="15.8371542"><ele>925.0</ele><time>2026-04-25T08:58:11.738Z</time></trkpt><trkpt lat="38.0699676" lon="15.8372804"><ele>925.0</ele><time>2026-04-25T08:58:13.744Z</time></trkpt><trkpt lat="38.069949" lon="15.8373615"><ele>925.0</ele><time>2026-04-25T08:58:14.736Z</time></trkpt><trkpt lat="38.0699205" lon="15.8374384"><ele>924.9999999999999</ele><time>2026-04-25T08:58:15.733Z</time></trkpt><trkpt lat="38.069888" lon="15.8375235"><ele>925.0</ele><time>2026-04-25T08:58:16.742Z</time></trkpt><trkpt lat="38.0698599" lon="15.8376141"><ele>923.8333333333333</ele><time>2026-04-25T08:58:17.734Z</time></trkpt><trkpt lat="38.0698238" lon="15.8377141"><ele>922.6666666666666</ele><time>2026-04-25T08:58:18.736Z</time></trkpt><trkpt lat="38.0697894" lon="15.8378137"><ele>921.5</ele><time>2026-04-25T08:58:19.734Z</time></trkpt><trkpt lat="38.0697515" lon="15.8379114"><ele>920.3333333333333</ele><time>2026-04-25T08:58:20.737Z</time></trkpt><trkpt lat="38.0696995" lon="15.8379853"><ele>919.1666666666666</ele><time>2026-04-25T08:58:21.742Z</time></trkpt><trkpt lat="38.0696389" lon="15.8380343"><ele>918.0</ele><time>2026-04-25T08:58:22.743Z</time></trkpt><trkpt lat="38.0695818" lon="15.8380718"><ele>918.0</ele><time>2026-04-25T08:58:23.738Z</time></trkpt><trkpt lat="38.0695021" lon="15.8381727"><ele>918.0</ele><time>2026-04-25T08:58:25.755Z</time></trkpt><trkpt lat="38.0694789" lon="15.8382561"><ele>918.0</ele><time>2026-04-25T08:58:26.753Z</time></trkpt><trkpt lat="38.0694468" lon="15.8383601"><ele>918.0</ele><time>2026-04-25T08:58:27.752Z</time></trkpt><trkpt lat="38.0694001" lon="15.8384581"><ele>918.0</ele><time>2026-04-25T08:58:28.735Z</time></trkpt><trkpt lat="38.0693615" lon="15.8385459"><ele>918.0</ele><time>2026-04-25T08:58:29.734Z</time></trkpt><trkpt lat="38.0693333" lon="15.8386218"><ele>918.0</ele><time>2026-04-25T08:58:30.748Z</time></trkpt><trkpt lat="38.0692446" lon="15.8387102"><ele>918.0</ele><time>2026-04-25T08:58:32.736Z</time></trkpt><trkpt lat="38.0691351" lon="15.8387876"><ele>918.0</ele><time>2026-04-25T08:58:34.743Z</time></trkpt><trkpt lat="38.0690949" lon="15.8388496"><ele>918.0</ele><time>2026-04-25T08:58:35.753Z</time></trkpt><trkpt lat="38.0690574" lon="15.8389305"><ele>918.0</ele><time>2026-04-25T08:58:36.75Z</time></trkpt><trkpt lat="38.0690208" lon="15.8390223"><ele>918.0</ele><time>2026-04-25T08:58:37.744Z</time></trkpt><trkpt lat="38.0689965" lon="15.8391071"><ele>918.0</ele><time>2026-04-25T08:58:38.736Z</time></trkpt><trkpt lat="38.0689747" lon="15.8392015"><ele>918.0</ele><time>2026-04-25T08:58:39.75Z</time></trkpt><trkpt lat="38.0689539" lon="15.8393025"><ele>918.0</ele><time>2026-04-25T08:58:40.739Z</time></trkpt><trkpt lat="38.0689338" lon="15.8394042"><ele>918.0</ele><time>2026-04-25T08:58:41.751Z</time></trkpt><trkpt lat="38.0689179" lon="15.8395021"><ele>918.0</ele><time>2026-04-25T08:58:42.743Z</time></trkpt><trkpt lat="38.0688606" lon="15.8396132"><ele>926.8</ele><time>2026-04-25T08:58:44.733Z</time></trkpt><trkpt lat="38.068771" lon="15.839612"><ele>935.5999999999999</ele><time>2026-04-25T08:58:46.747Z</time></trkpt><trkpt lat="38.068654" lon="15.8395428"><ele>944.4000000000001</ele><time>2026-04-25T08:58:48.738Z</time></trkpt><trkpt lat="38.068583" lon="15.8394926"><ele>953.2</ele><time>2026-04-25T08:58:49.753Z</time></trkpt><trkpt lat="38.0685126" lon="15.8394392"><ele>962.0</ele><time>2026-04-25T08:58:50.752Z</time></trkpt><trkpt lat="38.0684342" lon="15.8393781"><ele>962.0</ele><time>2026-04-25T08:58:51.745Z</time></trkpt><trkpt lat="38.0683537" lon="15.8393106"><ele>962.0</ele><time>2026-04-25T08:58:52.741Z</time></trkpt><trkpt lat="38.06827" lon="15.8392405"><ele>962.0</ele><time>2026-04-25T08:58:53.767Z</time></trkpt><trkpt lat="38.0681844" lon="15.8391771"><ele>962.0</ele><time>2026-04-25T08:58:54.763Z</time></trkpt><trkpt lat="38.068095" lon="15.8391194"><ele>962.0</ele><time>2026-04-25T08:58:55.751Z</time></trkpt><trkpt lat="38.0680039" lon="15.8390594"><ele>955.4000000000001</ele><time>2026-04-25T08:58:56.758Z</time></trkpt><trkpt lat="38.0679177" lon="15.839006"><ele>948.8000000000001</ele><time>2026-04-25T08:58:57.762Z</time></trkpt><trkpt lat="38.0678318" lon="15.8389549"><ele>942.2</ele><time>2026-04-25T08:58:58.748Z</time></trkpt><trkpt lat="38.0677508" lon="15.8388974"><ele>935.6</ele><time>2026-04-25T08:58:59.747Z</time></trkpt><trkpt lat="38.067672" lon="15.8388342"><ele>929.0</ele><time>2026-04-25T08:59:00.75Z</time></trkpt><trkpt lat="38.0675838" lon="15.8387766"><ele>929.0000000000001</ele><time>2026-04-25T08:59:01.756Z</time></trkpt><trkpt lat="38.0675059" lon="15.8387209"><ele>929.0</ele><time>2026-04-25T08:59:02.765Z</time></trkpt><trkpt lat="38.0674378" lon="15.8386648"><ele>929.0</ele><time>2026-04-25T08:59:03.756Z</time></trkpt><trkpt lat="38.0673823" lon="15.8386065"><ele>929.0</ele><time>2026-04-25T08:59:04.765Z</time></trkpt><trkpt lat="38.0673365" lon="15.8385304"><ele>929.0000000000001</ele><time>2026-04-25T08:59:05.772Z</time></trkpt><trkpt lat="38.0672514" lon="15.8384547"><ele>929.0</ele><time>2026-04-25T08:59:07.75Z</time></trkpt><trkpt lat="38.0671346" lon="15.8384235"><ele>922.2</ele><time>2026-04-25T08:59:09.748Z</time></trkpt><trkpt lat="38.0670744" lon="15.8383967"><ele>915.4000000000001</ele><time>2026-04-25T08:59:10.761Z</time></trkpt><trkpt lat="38.0669955" lon="15.8382843"><ele>908.6</ele><time>2026-04-25T08:59:12.765Z</time></trkpt><trkpt lat="38.0669334" lon="15.8382156"><ele>901.8</ele><time>2026-04-25T08:59:14.769Z</time></trkpt><trkpt lat="38.0668191" lon="15.8382323"><ele>895.0</ele><time>2026-04-25T08:59:16.747Z</time></trkpt><trkpt lat="38.0667514" lon="15.8382592"><ele>894.9999999999999</ele><time>2026-04-25T08:59:17.76Z</time></trkpt><trkpt lat="38.0666835" lon="15.8382926"><ele>895.0</ele><time>2026-04-25T08:59:18.754Z</time></trkpt><trkpt lat="38.0666042" lon="15.8383207"><ele>895.0</ele><time>2026-04-25T08:59:19.772Z</time></trkpt><trkpt lat="38.0665286" lon="15.8383379"><ele>895.0</ele><time>2026-04-25T08:59:20.75Z</time></trkpt><trkpt lat="38.066448" lon="15.8383355"><ele>894.9999999999999</ele><time>2026-04-25T08:59:21.746Z</time></trkpt><trkpt lat="38.0663672" lon="15.8383152"><ele>895.0</ele><time>2026-04-25T08:59:22.761Z</time></trkpt><trkpt lat="38.0662953" lon="15.8382822"><ele>895.8333333333333</ele><time>2026-04-25T08:59:23.761Z</time></trkpt><trkpt lat="38.0662327" lon="15.8382361"><ele>896.6666666666666</ele><time>2026-04-25T08:59:24.755Z</time></trkpt><trkpt lat="38.0661757" lon="15.8381818"><ele>897.5</ele><time>2026-04-25T08:59:25.767Z</time></trkpt><trkpt lat="38.0661139" lon="15.8381138"><ele>898.3333333333333</ele><time>2026-04-25T08:59:26.748Z</time></trkpt><trkpt lat="38.0660415" lon="15.8380432"><ele>899.1666666666666</ele><time>2026-04-25T08:59:27.77Z</time></trkpt><trkpt lat="38.0659645" lon="15.8379653"><ele>900.0</ele><time>2026-04-25T08:59:28.755Z</time></trkpt><trkpt lat="38.065891" lon="15.8378985"><ele>900.0</ele><time>2026-04-25T08:59:29.755Z</time></trkpt><trkpt lat="38.0658284" lon="15.8378512"><ele>900.0</ele><time>2026-04-25T08:59:30.748Z</time></trkpt><trkpt lat="38.0657401" lon="15.8378567"><ele>900.0</ele><time>2026-04-25T08:59:32.747Z</time></trkpt><trkpt lat="38.0656383" lon="15.8379387"><ele>900.0</ele><time>2026-04-25T08:59:34.754Z</time></trkpt><trkpt lat="38.0655428" lon="15.8380302"><ele>900.0</ele><time>2026-04-25T08:59:36.749Z</time></trkpt><trkpt lat="38.065515" lon="15.8381195"><ele>899.0</ele><time>2026-04-25T08:59:37.76Z</time></trkpt><trkpt lat="38.0654912" lon="15.8382319"><ele>898.0</ele><time>2026-04-25T08:59:38.758Z</time></trkpt><trkpt lat="38.0654711" lon="15.8383367"><ele>897.0</ele><time>2026-04-25T08:59:39.752Z</time></trkpt><trkpt lat="38.0654439" lon="15.8384254"><ele>896.0</ele><time>2026-04-25T08:59:40.754Z</time></trkpt><trkpt lat="38.0653756" lon="15.8385262"><ele>895.0</ele><time>2026-04-25T08:59:42.749Z</time></trkpt><trkpt lat="38.0652627" lon="15.8385324"><ele>894.9999999999999</ele><time>2026-04-25T08:59:44.769Z</time></trkpt><trkpt lat="38.0651641" lon="15.8384821"><ele>895.0</ele><time>2026-04-25T08:59:46.754Z</time></trkpt><trkpt lat="38.0651198" lon="15.8384163"><ele>895.0</ele><time>2026-04-25T08:59:47.769Z</time></trkpt><trkpt lat="38.0650828" lon="15.8383342"><ele>895.0</ele><time>2026-04-25T08:59:48.766Z</time></trkpt><trkpt lat="38.0650558" lon="15.8382503"><ele>894.9999999999999</ele><time>2026-04-25T08:59:49.764Z</time></trkpt><trkpt lat="38.06499" lon="15.8381189"><ele>895.0</ele><time>2026-04-25T08:59:51.761Z</time></trkpt><trkpt lat="38.0649375" lon="15.8380522"><ele>904.0</ele><time>2026-04-25T08:59:52.751Z</time></trkpt><trkpt lat="38.0648776" lon="15.8379836"><ele>913.0</ele><time>2026-04-25T08:59:53.748Z</time></trkpt><trkpt lat="38.0648073" lon="15.8379126"><ele>922.0</ele><time>2026-04-25T08:59:54.746Z</time></trkpt><trkpt lat="38.0647245" lon="15.8378366"><ele>931.0</ele><time>2026-04-25T08:59:55.759Z</time></trkpt><trkpt lat="38.0646397" lon="15.8377565"><ele>940.0</ele><time>2026-04-25T08:59:56.76Z</time></trkpt><trkpt lat="38.0645697" lon="15.8376986"><ele>939.9999999999999</ele><time>2026-04-25T08:59:57.761Z</time></trkpt><trkpt lat="38.0645116" lon="15.8376651"><ele>940.0</ele><time>2026-04-25T08:59:58.746Z</time></trkpt><trkpt lat="38.0644427" lon="15.8376441"><ele>940.0</ele><time>2026-04-25T08:59:59.748Z</time></trkpt><trkpt lat="38.0643591" lon="15.8376331"><ele>940.0</ele><time>2026-04-25T09:00:00.76Z</time></trkpt><trkpt lat="38.0642634" lon="15.8376174"><ele>939.9999999999999</ele><time>2026-04-25T09:00:01.766Z</time></trkpt><trkpt lat="38.0641639" lon="15.8376067"><ele>940.0</ele><time>2026-04-25T09:00:02.756Z</time></trkpt><trkpt lat="38.0640698" lon="15.8376072"><ele>937.8</ele><time>2026-04-25T09:00:03.765Z</time></trkpt><trkpt lat="38.0639721" lon="15.8375982"><ele>935.6</ele><time>2026-04-25T09:00:04.766Z</time></trkpt><trkpt lat="38.0638729" lon="15.8375684"><ele>933.4000000000001</ele><time>2026-04-25T09:00:05.752Z</time></trkpt><trkpt lat="38.0637769" lon="15.8375319"><ele>931.2</ele><time>2026-04-25T09:00:06.746Z</time></trkpt><trkpt lat="38.0636977" lon="15.837492"><ele>929.0</ele><time>2026-04-25T09:00:07.77Z</time></trkpt><trkpt lat="38.0636397" lon="15.8374517"><ele>929.0</ele><time>2026-04-25T09:00:08.759Z</time></trkpt><trkpt lat="38.0635578" lon="15.8373153"><ele>929.0000000000001</ele><time>2026-04-25T09:00:10.753Z</time></trkpt><trkpt lat="38.0635031" lon="15.8372181"><ele>929.0000000000001</ele><time>2026-04-25T09:00:11.748Z</time></trkpt><trkpt lat="38.0634401" lon="15.8371108"><ele>929.0</ele><time>2026-04-25T09:00:12.755Z</time></trkpt><trkpt lat="38.0633847" lon="15.8370163"><ele>929.0</ele><time>2026-04-25T09:00:13.768Z</time></trkpt><trkpt lat="38.0633263" lon="15.8369505"><ele>925.4000000000001</ele><time>2026-04-25T09:00:14.754Z</time></trkpt><trkpt lat="38.0632579" lon="15.8368813"><ele>921.8000000000001</ele><time>2026-04-25T09:00:15.748Z</time></trkpt><trkpt lat="38.0631817" lon="15.836804"><ele>918.1999999999999</ele><time>2026-04-25T09:00:16.745Z</time></trkpt><trkpt lat="38.0631209" lon="15.836723"><ele>914.5999999999999</ele><time>2026-04-25T09:00:17.761Z</time></trkpt><trkpt lat="38.0630736" lon="15.8366549"><ele>911.0</ele><time>2026-04-25T09:00:18.761Z</time></trkpt><trkpt lat="38.0629722" lon="15.8366055"><ele>911.0</ele><time>2026-04-25T09:00:20.746Z</time></trkpt><trkpt lat="38.0628928" lon="15.8366224"><ele>910.9999999999999</ele><time>2026-04-25T09:00:21.746Z</time></trkpt><trkpt lat="38.0627965" lon="15.8366378"><ele>910.9999999999999</ele><time>2026-04-25T09:00:22.75Z</time></trkpt><trkpt lat="38.0626849" lon="15.8366659"><ele>911.0</ele><time>2026-04-25T09:00:23.762Z</time></trkpt><trkpt lat="38.0625684" lon="15.8366927"><ele>911.0</ele><time>2026-04-25T09:00:24.753Z</time></trkpt><trkpt lat="38.0624728" lon="15.8367057"><ele>909.6666666666667</ele><time>2026-04-25T09:00:25.764Z</time></trkpt><trkpt lat="38.0624017" lon="15.8367059"><ele>908.3333333333334</ele><time>2026-04-25T09:00:26.758Z</time></trkpt><trkpt lat="38.0623236" lon="15.8367109"><ele>907.0</ele><time>2026-04-25T09:00:28.746Z</time></trkpt><trkpt lat="38.0623397" lon="15.8367937"><ele>905.6666666666667</ele><time>2026-04-25T09:00:31.762Z</time></trkpt><trkpt lat="38.0624226" lon="15.836818"><ele>904.3333333333334</ele><time>2026-04-25T09:00:33.744Z</time></trkpt><trkpt lat="38.062544" lon="15.8368295"><ele>903.0</ele><time>2026-04-25T09:00:35.761Z</time></trkpt><trkpt lat="38.0626153" lon="15.8368487"><ele>911.3333333333334</ele><time>2026-04-25T09:00:36.746Z</time></trkpt><trkpt lat="38.0626966" lon="15.8368734"><ele>919.6666666666667</ele><time>2026-04-25T09:00:37.761Z</time></trkpt><trkpt lat="38.0627862" lon="15.8369002"><ele>928.0</ele><time>2026-04-25T09:00:38.756Z</time></trkpt><trkpt lat="38.0628743" lon="15.836934"><ele>936.3333333333334</ele><time>2026-04-25T09:00:39.776Z</time></trkpt><trkpt lat="38.0629537" lon="15.8369614"><ele>944.6666666666667</ele><time>2026-04-25T09:00:40.748Z</time></trkpt><trkpt lat="38.0630186" lon="15.8369746"><ele>953.0</ele><time>2026-04-25T09:00:41.759Z</time></trkpt><trkpt lat="38.0631181" lon="15.8370227"><ele>953.0</ele><time>2026-04-25T09:00:43.758Z</time></trkpt><trkpt lat="38.0631146" lon="15.8371174"><ele>953.0</ele><time>2026-04-25T09:00:46.746Z</time></trkpt><trkpt lat="38.0630211" lon="15.8370908"><ele>953.0</ele><time>2026-04-25T09:00:49.749Z</time></trkpt><trkpt lat="38.0629289" lon="15.8370552"><ele>953.0</ele><time>2026-04-25T09:00:51.755Z</time></trkpt><trkpt lat="38.0628076" lon="15.8370626"><ele>953.0</ele><time>2026-04-25T09:00:53.76Z</time></trkpt><trkpt lat="38.0627283" lon="15.8370836"><ele>953.0000000000001</ele><time>2026-04-25T09:00:54.769Z</time></trkpt><trkpt lat="38.0626372" lon="15.8371136"><ele>953.0</ele><time>2026-04-25T09:00:55.771Z</time></trkpt><trkpt lat="38.0625518" lon="15.8371384"><ele>953.0</ele><time>2026-04-25T09:00:56.754Z</time></trkpt><trkpt lat="38.0624683" lon="15.8371545"><ele>953.0</ele><time>2026-04-25T09:00:57.751Z</time></trkpt><trkpt lat="38.0623818" lon="15.8371629"><ele>953.0000000000001</ele><time>2026-04-25T09:00:58.768Z</time></trkpt><trkpt lat="38.0622884" lon="15.8371615"><ele>953.0</ele><time>2026-04-25T09:00:59.759Z</time></trkpt><trkpt lat="38.0621912" lon="15.8371546"><ele>953.5000000000001</ele><time>2026-04-25T09:01:00.757Z</time></trkpt><trkpt lat="38.0620997" lon="15.8371462"><ele>954.0</ele><time>2026-04-25T09:01:01.774Z</time></trkpt><trkpt lat="38.0620191" lon="15.837138"><ele>954.5</ele><time>2026-04-25T09:01:02.754Z</time></trkpt><trkpt lat="38.0619436" lon="15.8371294"><ele>955.0</ele><time>2026-04-25T09:01:03.768Z</time></trkpt><trkpt lat="38.061869" lon="15.837122"><ele>955.5000000000001</ele><time>2026-04-25T09:01:04.761Z</time></trkpt><trkpt lat="38.0618004" lon="15.8371216"><ele>956.0</ele><time>2026-04-25T09:01:05.766Z</time></trkpt><trkpt lat="38.0616913" lon="15.8371196"><ele>953.0</ele><time>2026-04-25T09:01:07.768Z</time></trkpt><trkpt lat="38.0616151" lon="15.8371765"><ele>949.9999999999999</ele><time>2026-04-25T09:01:09.758Z</time></trkpt><trkpt lat="38.0615093" lon="15.837267"><ele>946.9999999999999</ele><time>2026-04-25T09:01:11.752Z</time></trkpt><trkpt lat="38.0614404" lon="15.8373314"><ele>944.0</ele><time>2026-04-25T09:01:12.771Z</time></trkpt><trkpt lat="38.0613647" lon="15.8374038"><ele>941.0</ele><time>2026-04-25T09:01:13.76Z</time></trkpt><trkpt lat="38.0612779" lon="15.8374804"><ele>941.0000000000001</ele><time>2026-04-25T09:01:14.762Z</time></trkpt><trkpt lat="38.0611861" lon="15.8375391"><ele>941.0</ele><time>2026-04-25T09:01:15.788Z</time></trkpt><trkpt lat="38.0611058" lon="15.8375814"><ele>941.0</ele><time>2026-04-25T09:01:16.769Z</time></trkpt><trkpt lat="38.0610336" lon="15.8376106"><ele>941.0</ele><time>2026-04-25T09:01:17.755Z</time></trkpt><trkpt lat="38.0609612" lon="15.8376267"><ele>941.0000000000001</ele><time>2026-04-25T09:01:18.764Z</time></trkpt><trkpt lat="38.0608876" lon="15.8376304"><ele>941.0</ele><time>2026-04-25T09:01:19.768Z</time></trkpt><trkpt lat="38.060822" lon="15.8376324"><ele>933.0</ele><time>2026-04-25T09:01:20.781Z</time></trkpt><trkpt lat="38.0607195" lon="15.8377017"><ele>925.0</ele><time>2026-04-25T09:01:22.759Z</time></trkpt><trkpt lat="38.0606433" lon="15.8378132"><ele>917.0</ele><time>2026-04-25T09:01:24.766Z</time></trkpt><trkpt lat="38.0606087" lon="15.8379349"><ele>909.0</ele><time>2026-04-25T09:01:26.764Z</time></trkpt><trkpt lat="38.0606323" lon="15.8380849"><ele>909.0</ele><time>2026-04-25T09:01:28.76Z</time></trkpt><trkpt lat="38.0606393" lon="15.8381856"><ele>909.0</ele><time>2026-04-25T09:01:29.776Z</time></trkpt><trkpt lat="38.0606305" lon="15.8382876"><ele>909.0</ele><time>2026-04-25T09:01:30.769Z</time></trkpt><trkpt lat="38.060618" lon="15.8383767"><ele>909.0</ele><time>2026-04-25T09:01:31.779Z</time></trkpt><trkpt lat="38.0606276" lon="15.8384907"><ele>909.0</ele><time>2026-04-25T09:01:33.779Z</time></trkpt><trkpt lat="38.0606814" lon="15.8385828"><ele>909.0</ele><time>2026-04-25T09:01:35.772Z</time></trkpt><trkpt lat="38.0607734" lon="15.8387104"><ele>917.1666666666666</ele><time>2026-04-25T09:01:37.775Z</time></trkpt><trkpt lat="38.0608283" lon="15.8387879"><ele>925.3333333333333</ele><time>2026-04-25T09:01:38.778Z</time></trkpt><trkpt lat="38.0608825" lon="15.838861"><ele>933.5</ele><time>2026-04-25T09:01:39.769Z</time></trkpt><trkpt lat="38.0609455" lon="15.8389254"><ele>941.6666666666666</ele><time>2026-04-25T09:01:40.768Z</time></trkpt><trkpt lat="38.0610195" lon="15.8389913"><ele>949.8333333333333</ele><time>2026-04-25T09:01:41.775Z</time></trkpt><trkpt lat="38.0611014" lon="15.8390573"><ele>958.0</ele><time>2026-04-25T09:01:42.779Z</time></trkpt><trkpt lat="38.0611787" lon="15.8391201"><ele>957.9999999999999</ele><time>2026-04-25T09:01:43.78Z</time></trkpt><trkpt lat="38.0612478" lon="15.8391923"><ele>958.0</ele><time>2026-04-25T09:01:44.771Z</time></trkpt><trkpt lat="38.0613119" lon="15.8392726"><ele>958.0</ele><time>2026-04-25T09:01:45.775Z</time></trkpt><trkpt lat="38.0613741" lon="15.8393541"><ele>958.0</ele><time>2026-04-25T09:01:46.79Z</time></trkpt><trkpt lat="38.0614353" lon="15.839431"><ele>957.9999999999999</ele><time>2026-04-25T09:01:47.769Z</time></trkpt><trkpt lat="38.0614948" lon="15.8395109"><ele>958.0</ele><time>2026-04-25T09:01:48.787Z</time></trkpt><trkpt lat="38.0615561" lon="15.8396022"><ele>963.5999999999999</ele><time>2026-04-25T09:01:49.774Z</time></trkpt><trkpt lat="38.0616239" lon="15.8396923"><ele>969.1999999999999</ele><time>2026-04-25T09:01:50.786Z</time></trkpt><trkpt lat="38.0616997" lon="15.8397781"><ele>974.8</ele><time>2026-04-25T09:01:51.775Z</time></trkpt><trkpt lat="38.0617704" lon="15.8398704"><ele>980.4</ele><time>2026-04-25T09:01:52.771Z</time></trkpt><trkpt lat="38.0618236" lon="15.8399582"><ele>986.0</ele><time>2026-04-25T09:01:53.677Z</time></trkpt><trkpt lat="38.0618661" lon="15.8400434"><ele>988.0000000000001</ele><time>2026-04-25T09:01:54.685Z</time></trkpt><trkpt lat="38.0619033" lon="15.8401414"><ele>990.0</ele><time>2026-04-25T09:01:55.673Z</time></trkpt><trkpt lat="38.061936" lon="15.8402482"><ele>992.0</ele><time>2026-04-25T09:01:56.682Z</time></trkpt><trkpt lat="38.0619586" lon="15.8403628"><ele>994.0</ele><time>2026-04-25T09:01:57.677Z</time></trkpt><trkpt lat="38.0619796" lon="15.8404731"><ele>996.0000000000001</ele><time>2026-04-25T09:01:58.682Z</time></trkpt><trkpt lat="38.0619966" lon="15.8405689"><ele>998.0</ele><time>2026-04-25T09:01:59.687Z</time></trkpt><trkpt lat="38.06201" lon="15.8406589"><ele>998.0000000000001</ele><time>2026-04-25T09:02:00.705Z</time></trkpt><trkpt lat="38.062026" lon="15.8407439"><ele>998.0</ele><time>2026-04-25T09:02:01.692Z</time></trkpt><trkpt lat="38.0620412" lon="15.8408222"><ele>998.0</ele><time>2026-04-25T09:02:02.7Z</time></trkpt><trkpt lat="38.0620037" lon="15.8409305"><ele>998.0</ele><time>2026-04-25T09:02:04.686Z</time></trkpt><trkpt lat="38.0618858" lon="15.8409885"><ele>998.0000000000001</ele><time>2026-04-25T09:02:06.696Z</time></trkpt><trkpt lat="38.0618092" lon="15.8409948"><ele>998.0</ele><time>2026-04-25T09:02:07.694Z</time></trkpt><trkpt lat="38.0617263" lon="15.8409943"><ele>998.6666666666667</ele><time>2026-04-25T09:02:08.684Z</time></trkpt><trkpt lat="38.061643" lon="15.8409914"><ele>999.3333333333334</ele><time>2026-04-25T09:02:09.683Z</time></trkpt><trkpt lat="38.0615695" lon="15.8409923"><ele>1000.0</ele><time>2026-04-25T09:02:10.704Z</time></trkpt><trkpt lat="38.0615058" lon="15.8410104"><ele>1000.6666666666667</ele><time>2026-04-25T09:02:11.679Z</time></trkpt><trkpt lat="38.0614412" lon="15.8410447"><ele>1001.3333333333334</ele><time>2026-04-25T09:02:12.698Z</time></trkpt><trkpt lat="38.0613673" lon="15.8410848"><ele>1002.0</ele><time>2026-04-25T09:02:13.684Z</time></trkpt><trkpt lat="38.0612953" lon="15.8411284"><ele>1002.0</ele><time>2026-04-25T09:02:14.678Z</time></trkpt><trkpt lat="38.0612222" lon="15.8411564"><ele>1002.0</ele><time>2026-04-25T09:02:15.7Z</time></trkpt><trkpt lat="38.0611522" lon="15.84117"><ele>1002.0</ele><time>2026-04-25T09:02:16.691Z</time></trkpt><trkpt lat="38.0610524" lon="15.8412323"><ele>1002.0</ele><time>2026-04-25T09:02:18.694Z</time></trkpt><trkpt lat="38.060997" lon="15.8413619"><ele>1002.0</ele><time>2026-04-25T09:02:20.696Z</time></trkpt><trkpt lat="38.0609733" lon="15.8414543"><ele>1002.0</ele><time>2026-04-25T09:02:21.682Z</time></trkpt><trkpt lat="38.0609508" lon="15.8415581"><ele>1002.0</ele><time>2026-04-25T09:02:22.681Z</time></trkpt><trkpt lat="38.0609275" lon="15.8416682"><ele>1002.0</ele><time>2026-04-25T09:02:23.682Z</time></trkpt><trkpt lat="38.0608977" lon="15.8417817"><ele>1002.0</ele><time>2026-04-25T09:02:24.688Z</time></trkpt><trkpt lat="38.0608661" lon="15.8418874"><ele>1002.0</ele><time>2026-04-25T09:02:25.685Z</time></trkpt><trkpt lat="38.0608353" lon="15.8419928"><ele>1002.0</ele><time>2026-04-25T09:02:26.685Z</time></trkpt><trkpt lat="38.0608203" lon="15.8420977"><ele>999.6666666666666</ele><time>2026-04-25T09:02:27.689Z</time></trkpt><trkpt lat="38.060819" lon="15.8421917"><ele>997.3333333333333</ele><time>2026-04-25T09:02:28.692Z</time></trkpt><trkpt lat="38.0608228" lon="15.8422805"><ele>995.0</ele><time>2026-04-25T09:02:29.69Z</time></trkpt><trkpt lat="38.0608244" lon="15.8423694"><ele>992.6666666666666</ele><time>2026-04-25T09:02:30.689Z</time></trkpt><trkpt lat="38.0607711" lon="15.8425093"><ele>990.3333333333333</ele><time>2026-04-25T09:02:32.683Z</time></trkpt><trkpt lat="38.0607139" lon="15.8425654"><ele>988.0</ele><time>2026-04-25T09:02:33.682Z</time></trkpt><trkpt lat="38.0606446" lon="15.8426218"><ele>993.6666666666666</ele><time>2026-04-25T09:02:34.69Z</time></trkpt><trkpt lat="38.0605781" lon="15.8426717"><ele>999.3333333333333</ele><time>2026-04-25T09:02:35.692Z</time></trkpt><trkpt lat="38.0605154" lon="15.8427219"><ele>1005.0</ele><time>2026-04-25T09:02:36.701Z</time></trkpt><trkpt lat="38.0604507" lon="15.8427708"><ele>1010.6666666666667</ele><time>2026-04-25T09:02:37.696Z</time></trkpt><trkpt lat="38.0603777" lon="15.8428167"><ele>1016.3333333333334</ele><time>2026-04-25T09:02:38.689Z</time></trkpt><trkpt lat="38.0603018" lon="15.8428596"><ele>1022.0</ele><time>2026-04-25T09:02:39.684Z</time></trkpt><trkpt lat="38.0602243" lon="15.8429092"><ele>1022.0</ele><time>2026-04-25T09:02:40.682Z</time></trkpt><trkpt lat="38.0601502" lon="15.842962"><ele>1022.0</ele><time>2026-04-25T09:02:41.704Z</time></trkpt><trkpt lat="38.0600805" lon="15.8430063"><ele>1022.0</ele><time>2026-04-25T09:02:42.69Z</time></trkpt><trkpt lat="38.0600166" lon="15.8430487"><ele>1022.0</ele><time>2026-04-25T09:02:43.696Z</time></trkpt><trkpt lat="38.0599679" lon="15.8431007"><ele>1022.0</ele><time>2026-04-25T09:02:44.704Z</time></trkpt><trkpt lat="38.0599279" lon="15.8431688"><ele>1022.0</ele><time>2026-04-25T09:02:45.692Z</time></trkpt><trkpt lat="38.0598861" lon="15.8432482"><ele>1022.0</ele><time>2026-04-25T09:02:46.702Z</time></trkpt><trkpt lat="38.0598501" lon="15.8433255"><ele>1013.6666666666667</ele><time>2026-04-25T09:02:47.699Z</time></trkpt><trkpt lat="38.0598265" lon="15.8434667"><ele>1005.3333333333334</ele><time>2026-04-25T09:02:49.694Z</time></trkpt><trkpt lat="38.0598475" lon="15.8435962"><ele>997.0</ele><time>2026-04-25T09:02:51.691Z</time></trkpt><trkpt lat="38.059865" lon="15.8436845"><ele>988.6666666666667</ele><time>2026-04-25T09:02:52.692Z</time></trkpt><trkpt lat="38.059884" lon="15.8437783"><ele>980.3333333333334</ele><time>2026-04-25T09:02:53.702Z</time></trkpt><trkpt lat="38.0599063" lon="15.8438727"><ele>972.0</ele><time>2026-04-25T09:02:54.695Z</time></trkpt><trkpt lat="38.0599358" lon="15.8439682"><ele>979.5</ele><time>2026-04-25T09:02:55.71Z</time></trkpt><trkpt lat="38.0599729" lon="15.8440713"><ele>987.0</ele><time>2026-04-25T09:02:56.711Z</time></trkpt><trkpt lat="38.0600059" lon="15.8441837"><ele>994.5</ele><time>2026-04-25T09:02:57.694Z</time></trkpt><trkpt lat="38.0600361" lon="15.8442935"><ele>1002.0</ele><time>2026-04-25T09:02:58.696Z</time></trkpt><trkpt lat="38.0600569" lon="15.8443907"><ele>1009.5</ele><time>2026-04-25T09:02:59.689Z</time></trkpt><trkpt lat="38.0600702" lon="15.8444784"><ele>1017.0</ele><time>2026-04-25T09:03:00.701Z</time></trkpt><trkpt lat="38.0600668" lon="15.844559"><ele>1017.0</ele><time>2026-04-25T09:03:01.696Z</time></trkpt><trkpt lat="38.0599982" lon="15.8446927"><ele>1017.0</ele><time>2026-04-25T09:03:03.708Z</time></trkpt><trkpt lat="38.0599699" lon="15.8447663"><ele>1017.0</ele><time>2026-04-25T09:03:04.707Z</time></trkpt><trkpt lat="38.0599819" lon="15.8448885"><ele>1017.0</ele><time>2026-04-25T09:03:06.716Z</time></trkpt><trkpt lat="38.0600833" lon="15.8449455"><ele>1017.0</ele><time>2026-04-25T09:03:08.715Z</time></trkpt><trkpt lat="38.0601535" lon="15.8449835"><ele>1017.0</ele><time>2026-04-25T09:03:09.707Z</time></trkpt><trkpt lat="38.060215" lon="15.8450437"><ele>1017.0</ele><time>2026-04-25T09:03:10.701Z</time></trkpt><trkpt lat="38.0602622" lon="15.8451169"><ele>1017.0</ele><time>2026-04-25T09:03:11.702Z</time></trkpt><trkpt lat="38.0602992" lon="15.8452027"><ele>1017.0</ele><time>2026-04-25T09:03:12.702Z</time></trkpt><trkpt lat="38.060329" lon="15.8452951"><ele>1017.0</ele><time>2026-04-25T09:03:13.712Z</time></trkpt><trkpt lat="38.0603638" lon="15.8453708"><ele>1017.0</ele><time>2026-04-25T09:03:14.705Z</time></trkpt><trkpt lat="38.0604264" lon="15.8454886"><ele>1018.8333333333334</ele><time>2026-04-25T09:03:16.707Z</time></trkpt><trkpt lat="38.0604057" lon="15.845578"><ele>1020.6666666666667</ele><time>2026-04-25T09:03:18.714Z</time></trkpt><trkpt lat="38.0603052" lon="15.8455988"><ele>1022.5</ele><time>2026-04-25T09:03:20.721Z</time></trkpt><trkpt lat="38.0602374" lon="15.8455848"><ele>1024.3333333333335</ele><time>2026-04-25T09:03:21.711Z</time></trkpt><trkpt lat="38.0601636" lon="15.8455629"><ele>1026.1666666666667</ele><time>2026-04-25T09:03:22.716Z</time></trkpt><trkpt lat="38.0600947" lon="15.8455512"><ele>1028.0</ele><time>2026-04-25T09:03:23.723Z</time></trkpt><trkpt lat="38.0599822" lon="15.8455751"><ele>1026.2</ele><time>2026-04-25T09:03:25.705Z</time></trkpt><trkpt lat="38.0598983" lon="15.8457192"><ele>1024.4</ele><time>2026-04-25T09:03:27.717Z</time></trkpt><trkpt lat="38.0598557" lon="15.8458163"><ele>1022.6000000000001</ele><time>2026-04-25T09:03:28.7Z</time></trkpt><trkpt lat="38.0598123" lon="15.8458951"><ele>1020.8000000000001</ele><time>2026-04-25T09:03:29.713Z</time></trkpt><trkpt lat="38.0597523" lon="15.8459584"><ele>1019.0</ele><time>2026-04-25T09:03:30.708Z</time></trkpt><trkpt lat="38.0596815" lon="15.8460204"><ele>1027.0</ele><time>2026-04-25T09:03:31.714Z</time></trkpt><trkpt lat="38.0596026" lon="15.8460749"><ele>1035.0</ele><time>2026-04-25T09:03:32.717Z</time></trkpt><trkpt lat="38.0595318" lon="15.8461113"><ele>1043.0</ele><time>2026-04-25T09:03:33.699Z</time></trkpt><trkpt lat="38.0594592" lon="15.8461262"><ele>1051.0</ele><time>2026-04-25T09:03:34.716Z</time></trkpt><trkpt lat="38.0593807" lon="15.8461242"><ele>1059.0</ele><time>2026-04-25T09:03:35.704Z</time></trkpt><trkpt lat="38.0592982" lon="15.8461137"><ele>1067.0</ele><time>2026-04-25T09:03:36.704Z</time></trkpt><trkpt lat="38.0592199" lon="15.846106"><ele>1067.0</ele><time>2026-04-25T09:03:37.711Z</time></trkpt><trkpt lat="38.0591504" lon="15.846097"><ele>1067.0</ele><time>2026-04-25T09:03:38.712Z</time></trkpt><trkpt lat="38.0590405" lon="15.846042"><ele>1067.0</ele><time>2026-04-25T09:03:40.716Z</time></trkpt><trkpt lat="38.0589954" lon="15.8459838"><ele>1067.0</ele><time>2026-04-25T09:03:41.711Z</time></trkpt><trkpt lat="38.0589525" lon="15.8459159"><ele>1067.0</ele><time>2026-04-25T09:03:42.72Z</time></trkpt><trkpt lat="38.0588585" lon="15.8458422"><ele>1067.0</ele><time>2026-04-25T09:03:44.721Z</time></trkpt><trkpt lat="38.0587751" lon="15.8458547"><ele>1068.25</ele><time>2026-04-25T09:03:46.705Z</time></trkpt><trkpt lat="38.0586986" lon="15.845943"><ele>1069.5</ele><time>2026-04-25T09:03:48.719Z</time></trkpt><trkpt lat="38.0586229" lon="15.846076"><ele>1070.75</ele><time>2026-04-25T09:03:50.721Z</time></trkpt><trkpt lat="38.0585123" lon="15.846133"><ele>1072.0</ele><time>2026-04-25T09:03:52.709Z</time></trkpt><trkpt lat="38.0584141" lon="15.8460832"><ele>1072.0</ele><time>2026-04-25T09:03:54.704Z</time></trkpt><trkpt lat="38.0583761" lon="15.8459672"><ele>1072.0</ele><time>2026-04-25T09:03:56.717Z</time></trkpt><trkpt lat="38.0583098" lon="15.8458317"><ele>1072.0</ele><time>2026-04-25T09:03:58.732Z</time></trkpt><trkpt lat="38.0582207" lon="15.8457168"><ele>1072.0</ele><time>2026-04-25T09:04:00.73Z</time></trkpt><trkpt lat="38.0581634" lon="15.8456609"><ele>1072.0</ele><time>2026-04-25T09:04:01.718Z</time></trkpt><trkpt lat="38.0580902" lon="15.8456226"><ele>1068.5</ele><time>2026-04-25T09:04:02.722Z</time></trkpt><trkpt lat="38.0580054" lon="15.845606"><ele>1065.0</ele><time>2026-04-25T09:04:03.728Z</time></trkpt><trkpt lat="38.0579229" lon="15.8455901"><ele>1061.5</ele><time>2026-04-25T09:04:04.726Z</time></trkpt><trkpt lat="38.0578449" lon="15.8455611"><ele>1058.0</ele><time>2026-04-25T09:04:05.719Z</time></trkpt><trkpt lat="38.0577747" lon="15.8455195"><ele>1054.5</ele><time>2026-04-25T09:04:06.725Z</time></trkpt><trkpt lat="38.0577009" lon="15.8454611"><ele>1051.0</ele><time>2026-04-25T09:04:07.72Z</time></trkpt><trkpt lat="38.057623" lon="15.8453788"><ele>1051.0</ele><time>2026-04-25T09:04:08.736Z</time></trkpt><trkpt lat="38.0575556" lon="15.8452988"><ele>1051.0</ele><time>2026-04-25T09:04:09.741Z</time></trkpt><trkpt lat="38.0575088" lon="15.8452068"><ele>1051.0</ele><time>2026-04-25T09:04:10.732Z</time></trkpt><trkpt lat="38.0574773" lon="15.8450932"><ele>1051.0</ele><time>2026-04-25T09:04:11.74Z</time></trkpt><trkpt lat="38.0574514" lon="15.8449713"><ele>1051.0</ele><time>2026-04-25T09:04:12.736Z</time></trkpt><trkpt lat="38.0574286" lon="15.844839"><ele>1046.8</ele><time>2026-04-25T09:04:13.728Z</time></trkpt><trkpt lat="38.0574122" lon="15.844705"><ele>1042.6</ele><time>2026-04-25T09:04:14.724Z</time></trkpt><trkpt lat="38.0574013" lon="15.8445813"><ele>1038.4</ele><time>2026-04-25T09:04:15.734Z</time></trkpt><trkpt lat="38.0573972" lon="15.8444728"><ele>1034.2</ele><time>2026-04-25T09:04:16.735Z</time></trkpt><trkpt lat="38.0573832" lon="15.8443887"><ele>1030.0</ele><time>2026-04-25T09:04:17.74Z</time></trkpt><trkpt lat="38.0573313" lon="15.8442792"><ele>1025.5</ele><time>2026-04-25T09:04:19.731Z</time></trkpt><trkpt lat="38.057282" lon="15.8442239"><ele>1021.0</ele><time>2026-04-25T09:04:20.736Z</time></trkpt><trkpt lat="38.0572124" lon="15.8441833"><ele>1016.5</ele><time>2026-04-25T09:04:21.746Z</time></trkpt><trkpt lat="38.0571026" lon="15.8441592"><ele>1012.0</ele><time>2026-04-25T09:04:23.734Z</time></trkpt><trkpt lat="38.0570415" lon="15.8441923"><ele>1007.4999999999999</ele><time>2026-04-25T09:04:24.736Z</time></trkpt><trkpt lat="38.0569801" lon="15.8442353"><ele>1003.0</ele><time>2026-04-25T09:04:25.728Z</time></trkpt><trkpt lat="38.056919" lon="15.8442765"><ele>1000.9999999999999</ele><time>2026-04-25T09:04:26.731Z</time></trkpt><trkpt lat="38.0568536" lon="15.8443118"><ele>999.0</ele><time>2026-04-25T09:04:27.748Z</time></trkpt><trkpt lat="38.0567729" lon="15.8443385"><ele>997.0</ele><time>2026-04-25T09:04:28.734Z</time></trkpt><trkpt lat="38.0566917" lon="15.8443702"><ele>995.0</ele><time>2026-04-25T09:04:29.741Z</time></trkpt><trkpt lat="38.0566131" lon="15.8444034"><ele>992.9999999999999</ele><time>2026-04-25T09:04:30.735Z</time></trkpt><trkpt lat="38.0565546" lon="15.8444417"><ele>991.0</ele><time>2026-04-25T09:04:31.739Z</time></trkpt><trkpt lat="38.0565068" lon="15.844556"><ele>990.9999999999999</ele><time>2026-04-25T09:04:33.738Z</time></trkpt><trkpt lat="38.056505" lon="15.8446469"><ele>991.0</ele><time>2026-04-25T09:04:34.725Z</time></trkpt><trkpt lat="38.0565071" lon="15.8447483"><ele>991.0</ele><time>2026-04-25T09:04:35.736Z</time></trkpt><trkpt lat="38.0565071" lon="15.8448557"><ele>991.0</ele><time>2026-04-25T09:04:36.745Z</time></trkpt><trkpt lat="38.0564926" lon="15.8449649"><ele>990.9999999999999</ele><time>2026-04-25T09:04:37.728Z</time></trkpt><trkpt lat="38.0564661" lon="15.8450576"><ele>991.0</ele><time>2026-04-25T09:04:38.74Z</time></trkpt><trkpt lat="38.056426" lon="15.845137"><ele>997.8333333333333</ele><time>2026-04-25T09:04:39.728Z</time></trkpt><trkpt lat="38.0563768" lon="15.8451944"><ele>1004.6666666666666</ele><time>2026-04-25T09:04:40.729Z</time></trkpt><trkpt lat="38.056318" lon="15.8452331"><ele>1011.5</ele><time>2026-04-25T09:04:41.718Z</time></trkpt><trkpt lat="38.0562414" lon="15.845271"><ele>1018.3333333333333</ele><time>2026-04-25T09:04:42.732Z</time></trkpt><trkpt lat="38.056158" lon="15.8453085"><ele>1025.1666666666667</ele><time>2026-04-25T09:04:43.744Z</time></trkpt><trkpt lat="38.0560843" lon="15.8453531"><ele>1032.0</ele><time>2026-04-25T09:04:44.72Z</time></trkpt><trkpt lat="38.0560259" lon="15.8454102"><ele>1032.0</ele><time>2026-04-25T09:04:45.719Z</time></trkpt><trkpt lat="38.0559774" lon="15.8454826"><ele>1032.0</ele><time>2026-04-25T09:04:46.723Z</time></trkpt><trkpt lat="38.0559422" lon="15.845569"><ele>1032.0</ele><time>2026-04-25T09:04:47.747Z</time></trkpt><trkpt lat="38.05592" lon="15.8456637"><ele>1032.0</ele><time>2026-04-25T09:04:48.729Z</time></trkpt><trkpt lat="38.0559" lon="15.845755"><ele>1032.0</ele><time>2026-04-25T09:04:49.725Z</time></trkpt><trkpt lat="38.0558751" lon="15.8458362"><ele>1032.0</ele><time>2026-04-25T09:04:50.732Z</time></trkpt><trkpt lat="38.0557879" lon="15.8459284"><ele>1038.2</ele><time>2026-04-25T09:04:52.731Z</time></trkpt><trkpt lat="38.0556653" lon="15.8459674"><ele>1044.4</ele><time>2026-04-25T09:04:54.734Z</time></trkpt><trkpt lat="38.0555972" lon="15.8460066"><ele>1050.6</ele><time>2026-04-25T09:04:55.726Z</time></trkpt><trkpt lat="38.0555317" lon="15.8460597"><ele>1056.8</ele><time>2026-04-25T09:04:56.724Z</time></trkpt><trkpt lat="38.0554308" lon="15.8460987"><ele>1063.0</ele><time>2026-04-25T09:04:58.732Z</time></trkpt><trkpt lat="38.0553626" lon="15.8460359"><ele>1063.0</ele><time>2026-04-25T09:05:00.724Z</time></trkpt><trkpt lat="38.0553335" lon="15.8459647"><ele>1063.0</ele><time>2026-04-25T09:05:01.73Z</time></trkpt><trkpt lat="38.0553092" lon="15.8458859"><ele>1063.0</ele><time>2026-04-25T09:05:02.73Z</time></trkpt><trkpt lat="38.0552595" lon="15.8457396"><ele>1063.0</ele><time>2026-04-25T09:05:04.737Z</time></trkpt><trkpt lat="38.0552187" lon="15.8456726"><ele>1063.0</ele><time>2026-04-25T09:05:05.765Z</time></trkpt><trkpt lat="38.0551725" lon="15.8456129"><ele>1063.0</ele><time>2026-04-25T09:05:06.74Z</time></trkpt><trkpt lat="38.0550857" lon="15.8455467"><ele>1060.1666666666665</ele><time>2026-04-25T09:05:08.726Z</time></trkpt><trkpt lat="38.0550072" lon="15.8455983"><ele>1057.3333333333333</ele><time>2026-04-25T09:05:10.738Z</time></trkpt><trkpt lat="38.0549538" lon="15.8456595"><ele>1054.5</ele><time>2026-04-25T09:05:11.741Z</time></trkpt><trkpt lat="38.0548999" lon="15.8457335"><ele>1051.6666666666667</ele><time>2026-04-25T09:05:12.734Z</time></trkpt><trkpt lat="38.0548526" lon="15.8458163"><ele>1048.8333333333335</ele><time>2026-04-25T09:05:13.742Z</time></trkpt><trkpt lat="38.0548239" lon="15.845919"><ele>1046.0</ele><time>2026-04-25T09:05:14.735Z</time></trkpt><trkpt lat="38.054798" lon="15.8460208"><ele>1046.0</ele><time>2026-04-25T09:05:15.738Z</time></trkpt><trkpt lat="38.0547548" lon="15.846088"><ele>1046.0</ele><time>2026-04-25T09:05:16.731Z</time></trkpt><trkpt lat="38.0546427" lon="15.8461604"><ele>1046.0</ele><time>2026-04-25T09:05:18.747Z</time></trkpt><trkpt lat="38.0545726" lon="15.8462"><ele>1046.0</ele><time>2026-04-25T09:05:19.741Z</time></trkpt><trkpt lat="38.0545019" lon="15.8462488"><ele>1046.0</ele><time>2026-04-25T09:05:20.742Z</time></trkpt><trkpt lat="38.0544354" lon="15.8463093"><ele>1046.0</ele><time>2026-04-25T09:05:21.735Z</time></trkpt><trkpt lat="38.0543686" lon="15.8463733"><ele>1046.0</ele><time>2026-04-25T09:05:22.755Z</time></trkpt><trkpt lat="38.0543058" lon="15.8464467"><ele>1046.0</ele><time>2026-04-25T09:05:23.745Z</time></trkpt><trkpt lat="38.0542442" lon="15.8465188"><ele>1046.0</ele><time>2026-04-25T09:05:24.75Z</time></trkpt><trkpt lat="38.0541786" lon="15.8465827"><ele>1046.0</ele><time>2026-04-25T09:05:25.77Z</time></trkpt><trkpt lat="38.0541075" lon="15.8466405"><ele>1046.0</ele><time>2026-04-25T09:05:26.743Z</time></trkpt><trkpt lat="38.0540363" lon="15.8466765"><ele>1046.0</ele><time>2026-04-25T09:05:27.755Z</time></trkpt><trkpt lat="38.0539643" lon="15.8466848"><ele>1044.0</ele><time>2026-04-25T09:05:28.765Z</time></trkpt><trkpt lat="38.0538943" lon="15.8466805"><ele>1042.0</ele><time>2026-04-25T09:05:29.746Z</time></trkpt><trkpt lat="38.0538313" lon="15.8466639"><ele>1040.0</ele><time>2026-04-25T09:05:30.753Z</time></trkpt><trkpt lat="38.0537495" lon="15.8467229"><ele>1038.0</ele><time>2026-04-25T09:05:32.741Z</time></trkpt><trkpt lat="38.0536843" lon="15.8468577"><ele>1036.0</ele><time>2026-04-25T09:05:34.741Z</time></trkpt><trkpt lat="38.053626" lon="15.8469152"><ele>1034.0</ele><time>2026-04-25T09:05:35.761Z</time></trkpt><trkpt lat="38.0535464" lon="15.8469653"><ele>1034.0</ele><time>2026-04-25T09:05:36.737Z</time></trkpt><trkpt lat="38.0534682" lon="15.8470225"><ele>1034.0</ele><time>2026-04-25T09:05:37.749Z</time></trkpt><trkpt lat="38.0533988" lon="15.8470791"><ele>1034.0</ele><time>2026-04-25T09:05:38.747Z</time></trkpt><trkpt lat="38.0533486" lon="15.8471354"><ele>1034.0</ele><time>2026-04-25T09:05:39.741Z</time></trkpt><trkpt lat="38.0533288" lon="15.8472706"><ele>1034.0</ele><time>2026-04-25T09:05:41.744Z</time></trkpt><trkpt lat="38.0533553" lon="15.8473529"><ele>1034.0</ele><time>2026-04-25T09:05:42.741Z</time></trkpt><trkpt lat="38.0533842" lon="15.8474443"><ele>1034.0</ele><time>2026-04-25T09:05:43.741Z</time></trkpt><trkpt lat="38.053408" lon="15.847529"><ele>1034.0</ele><time>2026-04-25T09:05:44.741Z</time></trkpt><trkpt lat="38.0534244" lon="15.8476812"><ele>1034.0</ele><time>2026-04-25T09:05:46.755Z</time></trkpt><trkpt lat="38.0534275" lon="15.8478326"><ele>1034.0</ele><time>2026-04-25T09:05:48.759Z</time></trkpt><trkpt lat="38.0534842" lon="15.8479697"><ele>1034.0</ele><time>2026-04-25T09:05:50.822Z</time></trkpt><trkpt lat="38.0535855" lon="15.8480701"><ele>1035.5</ele><time>2026-04-25T09:05:52.827Z</time></trkpt><trkpt lat="38.0536401" lon="15.8481263"><ele>1037.0</ele><time>2026-04-25T09:05:53.84Z</time></trkpt><trkpt lat="38.0536614" lon="15.8482513"><ele>1038.5</ele><time>2026-04-25T09:05:55.841Z</time></trkpt><trkpt lat="38.0536086" lon="15.8483578"><ele>1040.0</ele><time>2026-04-25T09:05:57.826Z</time></trkpt><trkpt lat="38.0535666" lon="15.8484192"><ele>1041.5</ele><time>2026-04-25T09:05:58.832Z</time></trkpt><trkpt lat="38.0535166" lon="15.8484941"><ele>1043.0</ele><time>2026-04-25T09:05:59.829Z</time></trkpt><trkpt lat="38.0534585" lon="15.8485537"><ele>1041.1666666666667</ele><time>2026-04-25T09:06:00.833Z</time></trkpt><trkpt lat="38.0533908" lon="15.8486013"><ele>1039.3333333333335</ele><time>2026-04-25T09:06:01.845Z</time></trkpt><trkpt lat="38.0533314" lon="15.8486318"><ele>1037.5</ele><time>2026-04-25T09:06:02.839Z</time></trkpt><trkpt lat="38.0532671" lon="15.8487055"><ele>1035.6666666666667</ele><time>2026-04-25T09:06:04.836Z</time></trkpt><trkpt lat="38.0532721" lon="15.8488422"><ele>1033.8333333333333</ele><time>2026-04-25T09:06:06.825Z</time></trkpt><trkpt lat="38.0532845" lon="15.8489328"><ele>1032.0</ele><time>2026-04-25T09:06:07.829Z</time></trkpt><trkpt lat="38.0533041" lon="15.8490305"><ele>1038.3333333333333</ele><time>2026-04-25T09:06:08.845Z</time></trkpt><trkpt lat="38.0533275" lon="15.8491376"><ele>1044.6666666666667</ele><time>2026-04-25T09:06:09.826Z</time></trkpt><trkpt lat="38.0533483" lon="15.8492379"><ele>1051.0</ele><time>2026-04-25T09:06:10.843Z</time></trkpt><trkpt lat="38.0533558" lon="15.8493207"><ele>1057.3333333333335</ele><time>2026-04-25T09:06:11.824Z</time></trkpt><trkpt lat="38.0533265" lon="15.8494296"><ele>1063.6666666666667</ele><time>2026-04-25T09:06:13.835Z</time></trkpt><trkpt lat="38.0532509" lon="15.8494614"><ele>1070.0</ele><time>2026-04-25T09:06:15.833Z</time></trkpt><trkpt lat="38.0531279" lon="15.8494561"><ele>1070.0</ele><time>2026-04-25T09:06:17.843Z</time></trkpt><trkpt lat="38.053024" lon="15.8495006"><ele>1070.0</ele><time>2026-04-25T09:06:19.835Z</time></trkpt><trkpt lat="38.0529663" lon="15.8496361"><ele>1070.0</ele><time>2026-04-25T09:06:21.847Z</time></trkpt><trkpt lat="38.052929" lon="15.8497422"><ele>1070.0</ele><time>2026-04-25T09:06:22.828Z</time></trkpt><trkpt lat="38.05288" lon="15.8498725"><ele>1070.0</ele><time>2026-04-25T09:06:23.841Z</time></trkpt><trkpt lat="38.0528375" lon="15.8499883"><ele>1070.0</ele><time>2026-04-25T09:06:24.83Z</time></trkpt><trkpt lat="38.0527961" lon="15.8500764"><ele>1070.0</ele><time>2026-04-25T09:06:25.828Z</time></trkpt><trkpt lat="38.0527606" lon="15.8501616"><ele>1070.0</ele><time>2026-04-25T09:06:26.833Z</time></trkpt><trkpt lat="38.0527332" lon="15.8502511"><ele>1070.0</ele><time>2026-04-25T09:06:27.833Z</time></trkpt><trkpt lat="38.0527217" lon="15.8503374"><ele>1070.0</ele><time>2026-04-25T09:06:28.831Z</time></trkpt><trkpt lat="38.0527083" lon="15.8504185"><ele>1070.0</ele><time>2026-04-25T09:06:29.85Z</time></trkpt><trkpt lat="38.0526328" lon="15.8505257"><ele>1077.3333333333335</ele><time>2026-04-25T09:06:31.843Z</time></trkpt><trkpt lat="38.0525221" lon="15.8505183"><ele>1084.6666666666667</ele><time>2026-04-25T09:06:33.837Z</time></trkpt><trkpt lat="38.0524623" lon="15.8504727"><ele>1092.0</ele><time>2026-04-25T09:06:34.839Z</time></trkpt><trkpt lat="38.0524023" lon="15.8504173"><ele>1099.3333333333333</ele><time>2026-04-25T09:06:35.85Z</time></trkpt><trkpt lat="38.0523375" lon="15.8503542"><ele>1106.6666666666665</ele><time>2026-04-25T09:06:36.834Z</time></trkpt><trkpt lat="38.0522742" lon="15.8502926"><ele>1114.0</ele><time>2026-04-25T09:06:37.843Z</time></trkpt><trkpt lat="38.0522014" lon="15.850251"><ele>1117.2</ele><time>2026-04-25T09:06:38.836Z</time></trkpt><trkpt lat="38.0521234" lon="15.8502221"><ele>1120.4</ele><time>2026-04-25T09:06:39.835Z</time></trkpt><trkpt lat="38.052043" lon="15.8502045"><ele>1123.6</ele><time>2026-04-25T09:06:40.839Z</time></trkpt><trkpt lat="38.0519435" lon="15.8501258"><ele>1126.8</ele><time>2026-04-25T09:06:42.851Z</time></trkpt><trkpt lat="38.0518877" lon="15.8500507"><ele>1130.0</ele><time>2026-04-25T09:06:43.846Z</time></trkpt><trkpt lat="38.0518151" lon="15.8499602"><ele>1125.4</ele><time>2026-04-25T09:06:44.85Z</time></trkpt><trkpt lat="38.0517313" lon="15.8498621"><ele>1120.8</ele><time>2026-04-25T09:06:45.843Z</time></trkpt><trkpt lat="38.051657" lon="15.8497788"><ele>1116.2</ele><time>2026-04-25T09:06:46.84Z</time></trkpt><trkpt lat="38.0515958" lon="15.8496984"><ele>1111.6</ele><time>2026-04-25T09:06:47.84Z</time></trkpt><trkpt lat="38.0515405" lon="15.8496276"><ele>1107.0</ele><time>2026-04-25T09:06:48.842Z</time></trkpt><trkpt lat="38.051488" lon="15.8495617"><ele>1107.0</ele><time>2026-04-25T09:06:49.84Z</time></trkpt><trkpt lat="38.0514295" lon="15.8495132"><ele>1107.0</ele><time>2026-04-25T09:06:50.835Z</time></trkpt><trkpt lat="38.0513689" lon="15.8494837"><ele>1107.0</ele><time>2026-04-25T09:06:51.834Z</time></trkpt><trkpt lat="38.0512883" lon="15.8494721"><ele>1107.0</ele><time>2026-04-25T09:06:52.833Z</time></trkpt><trkpt lat="38.051208" lon="15.8494871"><ele>1107.0</ele><time>2026-04-25T09:06:53.846Z</time></trkpt><trkpt lat="38.0511289" lon="15.8495223"><ele>1107.0</ele><time>2026-04-25T09:06:54.833Z</time></trkpt><trkpt lat="38.0510548" lon="15.8495696"><ele>1107.0</ele><time>2026-04-25T09:06:55.844Z</time></trkpt><trkpt lat="38.050991" lon="15.8496142"><ele>1107.0</ele><time>2026-04-25T09:06:56.845Z</time></trkpt><trkpt lat="38.0509278" lon="15.8496293"><ele>1107.0</ele><time>2026-04-25T09:06:57.839Z</time></trkpt><trkpt lat="38.0508287" lon="15.8495842"><ele>1107.0</ele><time>2026-04-25T09:06:59.837Z</time></trkpt><trkpt lat="38.0507892" lon="15.8495177"><ele>1107.0</ele><time>2026-04-25T09:07:00.832Z</time></trkpt><trkpt lat="38.0507401" lon="15.8494272"><ele>1107.0</ele><time>2026-04-25T09:07:01.854Z</time></trkpt><trkpt lat="38.050678" lon="15.8493351"><ele>1108.5</ele><time>2026-04-25T09:07:02.847Z</time></trkpt><trkpt lat="38.0505858" lon="15.8492254"><ele>1110.0</ele><time>2026-04-25T09:07:03.86Z</time></trkpt><trkpt lat="38.0505031" lon="15.8491032"><ele>1111.5</ele><time>2026-04-25T09:07:04.836Z</time></trkpt><trkpt lat="38.0504291" lon="15.8489841"><ele>1113.0</ele><time>2026-04-25T09:07:05.858Z</time></trkpt><trkpt lat="38.0503787" lon="15.8488555"><ele>1113.0</ele><time>2026-04-25T09:07:06.844Z</time></trkpt><trkpt lat="38.0503425" lon="15.8487265"><ele>1113.0</ele><time>2026-04-25T09:07:07.838Z</time></trkpt><trkpt lat="38.0503205" lon="15.8485959"><ele>1113.0</ele><time>2026-04-25T09:07:08.842Z</time></trkpt><trkpt lat="38.0503067" lon="15.8484666"><ele>1113.0</ele><time>2026-04-25T09:07:09.842Z</time></trkpt><trkpt lat="38.0503077" lon="15.848353"><ele>1113.0</ele><time>2026-04-25T09:07:10.855Z</time></trkpt><trkpt lat="38.0503216" lon="15.8482532"><ele>1109.1666666666667</ele><time>2026-04-25T09:07:11.849Z</time></trkpt><trkpt lat="38.0503259" lon="15.8481573"><ele>1105.3333333333333</ele><time>2026-04-25T09:07:12.842Z</time></trkpt><trkpt lat="38.0503016" lon="15.8480801"><ele>1101.5</ele><time>2026-04-25T09:07:13.854Z</time></trkpt><trkpt lat="38.0502603" lon="15.8480077"><ele>1097.6666666666665</ele><time>2026-04-25T09:07:14.856Z</time></trkpt><trkpt lat="38.0501905" lon="15.8479263"><ele>1093.8333333333333</ele><time>2026-04-25T09:07:15.844Z</time></trkpt><trkpt lat="38.0501063" lon="15.8478398"><ele>1090.0</ele><time>2026-04-25T09:07:16.856Z</time></trkpt><trkpt lat="38.0500103" lon="15.847743"><ele>1093.0</ele><time>2026-04-25T09:07:17.854Z</time></trkpt><trkpt lat="38.0499137" lon="15.847649"><ele>1096.0</ele><time>2026-04-25T09:07:18.862Z</time></trkpt><trkpt lat="38.0498309" lon="15.8475558"><ele>1099.0</ele><time>2026-04-25T09:07:19.851Z</time></trkpt><trkpt lat="38.0497758" lon="15.8474527"><ele>1102.0</ele><time>2026-04-25T09:07:20.839Z</time></trkpt><trkpt lat="38.0497424" lon="15.8473387"><ele>1105.0</ele><time>2026-04-25T09:07:21.845Z</time></trkpt><trkpt lat="38.0497285" lon="15.8472149"><ele>1105.0</ele><time>2026-04-25T09:07:22.842Z</time></trkpt><trkpt lat="38.0497126" lon="15.847096"><ele>1105.0</ele><time>2026-04-25T09:07:23.845Z</time></trkpt><trkpt lat="38.049698" lon="15.8469985"><ele>1105.0</ele><time>2026-04-25T09:07:24.856Z</time></trkpt><trkpt lat="38.0496677" lon="15.8469264"><ele>1105.0</ele><time>2026-04-25T09:07:25.853Z</time></trkpt><trkpt lat="38.049624" lon="15.8468675"><ele>1105.0</ele><time>2026-04-25T09:07:26.882Z</time></trkpt><trkpt lat="38.0495684" lon="15.8468132"><ele>1105.0</ele><time>2026-04-25T09:07:27.848Z</time></trkpt><trkpt lat="38.0495001" lon="15.8467686"><ele>1105.0</ele><time>2026-04-25T09:07:28.847Z</time></trkpt><trkpt lat="38.0494234" lon="15.8467164"><ele>1102.0</ele><time>2026-04-25T09:07:29.858Z</time></trkpt><trkpt lat="38.0493523" lon="15.8466545"><ele>1099.0</ele><time>2026-04-25T09:07:30.834Z</time></trkpt><trkpt lat="38.0492742" lon="15.8465809"><ele>1096.0</ele><time>2026-04-25T09:07:31.851Z</time></trkpt><trkpt lat="38.0491923" lon="15.8464972"><ele>1093.0</ele><time>2026-04-25T09:07:32.855Z</time></trkpt><trkpt lat="38.0491133" lon="15.8464139"><ele>1090.0</ele><time>2026-04-25T09:07:33.844Z</time></trkpt><trkpt lat="38.0490428" lon="15.8463217"><ele>1090.0</ele><time>2026-04-25T09:07:34.848Z</time></trkpt><trkpt lat="38.0489767" lon="15.8462385"><ele>1090.0</ele><time>2026-04-25T09:07:35.853Z</time></trkpt><trkpt lat="38.0489013" lon="15.8461747"><ele>1090.0</ele><time>2026-04-25T09:07:36.848Z</time></trkpt><trkpt lat="38.0488123" lon="15.8461121"><ele>1090.0</ele><time>2026-04-25T09:07:37.837Z</time></trkpt><trkpt lat="38.0487345" lon="15.8460544"><ele>1090.0</ele><time>2026-04-25T09:07:38.856Z</time></trkpt><trkpt lat="38.0486787" lon="15.8460102"><ele>1090.0</ele><time>2026-04-25T09:07:39.84Z</time></trkpt><trkpt lat="38.0485846" lon="15.8459884"><ele>1090.0</ele><time>2026-04-25T09:07:41.857Z</time></trkpt><trkpt lat="38.0484627" lon="15.8460661"><ele>1090.0</ele><time>2026-04-25T09:07:43.839Z</time></trkpt><trkpt lat="38.0483653" lon="15.8461049"><ele>1090.0</ele><time>2026-04-25T09:07:44.847Z</time></trkpt><trkpt lat="38.0482601" lon="15.8461487"><ele>1090.0</ele><time>2026-04-25T09:07:45.833Z</time></trkpt><trkpt lat="38.0481552" lon="15.8461905"><ele>1085.6666666666665</ele><time>2026-04-25T09:07:46.843Z</time></trkpt><trkpt lat="38.0480555" lon="15.846224"><ele>1081.3333333333333</ele><time>2026-04-25T09:07:47.848Z</time></trkpt><trkpt lat="38.0479553" lon="15.8462459"><ele>1077.0</ele><time>2026-04-25T09:07:48.838Z</time></trkpt><trkpt lat="38.047866" lon="15.8462524"><ele>1072.6666666666667</ele><time>2026-04-25T09:07:49.853Z</time></trkpt><trkpt lat="38.0477872" lon="15.8462493"><ele>1068.3333333333335</ele><time>2026-04-25T09:07:50.841Z</time></trkpt><trkpt lat="38.04772" lon="15.8462537"><ele>1064.0</ele><time>2026-04-25T09:07:51.84Z</time></trkpt><trkpt lat="38.0475993" lon="15.8463088"><ele>1064.0</ele><time>2026-04-25T09:07:53.836Z</time></trkpt><trkpt lat="38.0475093" lon="15.8464472"><ele>1064.0</ele><time>2026-04-25T09:07:55.843Z</time></trkpt><trkpt lat="38.0474643" lon="15.8465412"><ele>1064.0</ele><time>2026-04-25T09:07:56.845Z</time></trkpt><trkpt lat="38.0474192" lon="15.8466537"><ele>1064.0</ele><time>2026-04-25T09:07:57.84Z</time></trkpt><trkpt lat="38.0473716" lon="15.8467851"><ele>1064.0</ele><time>2026-04-25T09:07:58.848Z</time></trkpt><trkpt lat="38.0473275" lon="15.8469183"><ele>1062.3333333333335</ele><time>2026-04-25T09:07:59.862Z</time></trkpt><trkpt lat="38.0472909" lon="15.8470228"><ele>1060.6666666666667</ele><time>2026-04-25T09:08:00.835Z</time></trkpt><trkpt lat="38.0472655" lon="15.8471029"><ele>1059.0</ele><time>2026-04-25T09:08:01.858Z</time></trkpt><trkpt lat="38.0472408" lon="15.8471878"><ele>1057.3333333333333</ele><time>2026-04-25T09:08:02.853Z</time></trkpt><trkpt lat="38.0472127" lon="15.8472946"><ele>1055.6666666666665</ele><time>2026-04-25T09:08:03.844Z</time></trkpt><trkpt lat="38.0471832" lon="15.8474087"><ele>1054.0</ele><time>2026-04-25T09:08:04.837Z</time></trkpt><trkpt lat="38.0471648" lon="15.8475147"><ele>1060.8</ele><time>2026-04-25T09:08:05.85Z</time></trkpt><trkpt lat="38.0470958" lon="15.8476298"><ele>1067.6000000000001</ele><time>2026-04-25T09:08:07.841Z</time></trkpt><trkpt lat="38.0470184" lon="15.847678"><ele>1074.4</ele><time>2026-04-25T09:08:08.842Z</time></trkpt><trkpt lat="38.0469351" lon="15.8477422"><ele>1081.2</ele><time>2026-04-25T09:08:09.837Z</time></trkpt><trkpt lat="38.0468466" lon="15.8478028"><ele>1088.0</ele><time>2026-04-25T09:08:10.853Z</time></trkpt><trkpt lat="38.0467457" lon="15.8478415"><ele>1088.0</ele><time>2026-04-25T09:08:11.84Z</time></trkpt><trkpt lat="38.0466634" lon="15.8478367"><ele>1088.0</ele><time>2026-04-25T09:08:12.837Z</time></trkpt><trkpt lat="38.046581" lon="15.8478144"><ele>1088.0</ele><time>2026-04-25T09:08:13.838Z</time></trkpt><trkpt lat="38.0464939" lon="15.8478303"><ele>1088.0</ele><time>2026-04-25T09:08:14.836Z</time></trkpt><trkpt lat="38.0463967" lon="15.8478916"><ele>1088.0</ele><time>2026-04-25T09:08:15.845Z</time></trkpt><trkpt lat="38.0462957" lon="15.8479564"><ele>1085.4</ele><time>2026-04-25T09:08:16.85Z</time></trkpt><trkpt lat="38.0462026" lon="15.8480102"><ele>1082.8</ele><time>2026-04-25T09:08:17.854Z</time></trkpt><trkpt lat="38.0461113" lon="15.8480077"><ele>1080.2</ele><time>2026-04-25T09:08:18.853Z</time></trkpt><trkpt lat="38.0460195" lon="15.8479864"><ele>1077.6</ele><time>2026-04-25T09:08:19.844Z</time></trkpt><trkpt lat="38.045912" lon="15.847975"><ele>1075.0</ele><time>2026-04-25T09:08:20.85Z</time></trkpt><trkpt lat="38.0457882" lon="15.8479696"><ele>1072.5</ele><time>2026-04-25T09:08:21.844Z</time></trkpt><trkpt lat="38.0456505" lon="15.8479806"><ele>1070.0</ele><time>2026-04-25T09:08:22.847Z</time></trkpt><trkpt lat="38.0455139" lon="15.8480071"><ele>1067.5</ele><time>2026-04-25T09:08:23.836Z</time></trkpt><trkpt lat="38.0453865" lon="15.8480401"><ele>1065.0</ele><time>2026-04-25T09:08:24.846Z</time></trkpt><trkpt lat="38.045264" lon="15.8480764"><ele>1065.0</ele><time>2026-04-25T09:08:25.846Z</time></trkpt><trkpt lat="38.0451389" lon="15.8481148"><ele>1065.0</ele><time>2026-04-25T09:08:26.862Z</time></trkpt><trkpt lat="38.0450092" lon="15.848155"><ele>1065.0</ele><time>2026-04-25T09:08:27.837Z</time></trkpt><trkpt lat="38.0448948" lon="15.8481785"><ele>1065.0</ele><time>2026-04-25T09:08:28.847Z</time></trkpt><trkpt lat="38.0447911" lon="15.8481858"><ele>1064.0</ele><time>2026-04-25T09:08:29.833Z</time></trkpt><trkpt lat="38.0446895" lon="15.8482072"><ele>1063.0</ele><time>2026-04-25T09:08:30.859Z</time></trkpt><trkpt lat="38.0445824" lon="15.8482457"><ele>1062.0</ele><time>2026-04-25T09:08:31.838Z</time></trkpt><trkpt lat="38.044488" lon="15.8482728"><ele>1061.0</ele><time>2026-04-25T09:08:32.836Z</time></trkpt><trkpt lat="38.044405" lon="15.8482766"><ele>1060.0</ele><time>2026-04-25T09:08:33.833Z</time></trkpt><trkpt lat="38.0443216" lon="15.8482599"><ele>1060.0</ele><time>2026-04-25T09:08:34.844Z</time></trkpt><trkpt lat="38.0442283" lon="15.8482217"><ele>1060.0</ele><time>2026-04-25T09:08:35.853Z</time></trkpt><trkpt lat="38.0441315" lon="15.8481833"><ele>1060.0</ele><time>2026-04-25T09:08:36.848Z</time></trkpt><trkpt lat="38.0440367" lon="15.8481566"><ele>1060.0</ele><time>2026-04-25T09:08:37.851Z</time></trkpt><trkpt lat="38.0439483" lon="15.8481517"><ele>1060.0</ele><time>2026-04-25T09:08:38.831Z</time></trkpt><trkpt lat="38.0438629" lon="15.8481604"><ele>1058.4</ele><time>2026-04-25T09:08:39.843Z</time></trkpt><trkpt lat="38.0437817" lon="15.8481851"><ele>1056.8</ele><time>2026-04-25T09:08:40.841Z</time></trkpt><trkpt lat="38.0437244" lon="15.8482512"><ele>1055.2</ele><time>2026-04-25T09:08:41.853Z</time></trkpt><trkpt lat="38.0436814" lon="15.8483569"><ele>1053.6</ele><time>2026-04-25T09:08:42.863Z</time></trkpt><trkpt lat="38.0436499" lon="15.8484866"><ele>1052.0</ele><time>2026-04-25T09:08:43.843Z</time></trkpt><trkpt lat="38.0436045" lon="15.8486185"><ele>1052.0</ele><time>2026-04-25T09:08:44.846Z</time></trkpt><trkpt lat="38.0435454" lon="15.8487395"><ele>1052.0</ele><time>2026-04-25T09:08:45.842Z</time></trkpt><trkpt lat="38.0434781" lon="15.8488431"><ele>1052.0</ele><time>2026-04-25T09:08:46.832Z</time></trkpt><trkpt lat="38.0434183" lon="15.84894"><ele>1052.0</ele><time>2026-04-25T09:08:47.854Z</time></trkpt><trkpt lat="38.0433609" lon="15.849038"><ele>1052.0</ele><time>2026-04-25T09:08:48.854Z</time></trkpt><trkpt lat="38.0433121" lon="15.8491345"><ele>1051.1666666666667</ele><time>2026-04-25T09:08:49.864Z</time></trkpt><trkpt lat="38.0432831" lon="15.8492114"><ele>1050.3333333333335</ele><time>2026-04-25T09:08:50.847Z</time></trkpt><trkpt lat="38.0433232" lon="15.8493392"><ele>1049.5</ele><time>2026-04-25T09:08:52.847Z</time></trkpt><trkpt lat="38.0433707" lon="15.8494146"><ele>1048.6666666666667</ele><time>2026-04-25T09:08:53.853Z</time></trkpt><trkpt lat="38.0434314" lon="15.8494749"><ele>1047.8333333333333</ele><time>2026-04-25T09:08:54.868Z</time></trkpt><trkpt lat="38.043502" lon="15.8495069"><ele>1047.0</ele><time>2026-04-25T09:08:55.843Z</time></trkpt><trkpt lat="38.0435768" lon="15.8494897"><ele>1047.0</ele><time>2026-04-25T09:08:56.854Z</time></trkpt><trkpt lat="38.0436514" lon="15.8494383"><ele>1047.0</ele><time>2026-04-25T09:08:57.842Z</time></trkpt><trkpt lat="38.0437122" lon="15.8493767"><ele>1047.0</ele><time>2026-04-25T09:08:58.848Z</time></trkpt><trkpt lat="38.0437709" lon="15.8493235"><ele>1047.0</ele><time>2026-04-25T09:08:59.854Z</time></trkpt><trkpt lat="38.0438351" lon="15.8492963"><ele>1047.0</ele><time>2026-04-25T09:09:00.836Z</time></trkpt><trkpt lat="38.043918" lon="15.849291"><ele>1047.0</ele><time>2026-04-25T09:09:01.855Z</time></trkpt><trkpt lat="38.0439985" lon="15.8493094"><ele>1047.0</ele><time>2026-04-25T09:09:02.85Z</time></trkpt><trkpt lat="38.0440788" lon="15.849347"><ele>1047.0</ele><time>2026-04-25T09:09:03.849Z</time></trkpt><trkpt lat="38.0441526" lon="15.8494034"><ele>1047.0</ele><time>2026-04-25T09:09:04.829Z</time></trkpt><trkpt lat="38.0442254" lon="15.8494559"><ele>1047.0</ele><time>2026-04-25T09:09:05.849Z</time></trkpt><trkpt lat="38.0442939" lon="15.8494716"><ele>1047.0</ele><time>2026-04-25T09:09:06.849Z</time></trkpt><trkpt lat="38.0444129" lon="15.8494262"><ele>1047.0</ele><time>2026-04-25T09:09:08.841Z</time></trkpt><trkpt lat="38.0444626" lon="15.8493621"><ele>1045.5</ele><time>2026-04-25T09:09:09.854Z</time></trkpt><trkpt lat="38.0445173" lon="15.849288"><ele>1044.0</ele><time>2026-04-25T09:09:10.865Z</time></trkpt><trkpt lat="38.0446546" lon="15.8492913"><ele>1042.5</ele><time>2026-04-25T09:09:12.847Z</time></trkpt><trkpt lat="38.0447465" lon="15.849338"><ele>1041.0</ele><time>2026-04-25T09:09:13.858Z</time></trkpt><trkpt lat="38.0448643" lon="15.8494175"><ele>1042.5</ele><time>2026-04-25T09:09:14.847Z</time></trkpt><trkpt lat="38.0449974" lon="15.8494977"><ele>1044.0</ele><time>2026-04-25T09:09:15.836Z</time></trkpt><trkpt lat="38.0451122" lon="15.8495825"><ele>1045.5</ele><time>2026-04-25T09:09:16.848Z</time></trkpt><trkpt lat="38.0452018" lon="15.8496658"><ele>1047.0</ele><time>2026-04-25T09:09:17.852Z</time></trkpt><trkpt lat="38.0452777" lon="15.8497393"><ele>1047.0</ele><time>2026-04-25T09:09:18.849Z</time></trkpt><trkpt lat="38.0453524" lon="15.8497741"><ele>1047.0</ele><time>2026-04-25T09:09:19.85Z</time></trkpt><trkpt lat="38.0454367" lon="15.8497929"><ele>1047.0</ele><time>2026-04-25T09:09:20.848Z</time></trkpt><trkpt lat="38.0455479" lon="15.8498009"><ele>1047.0</ele><time>2026-04-25T09:09:21.837Z</time></trkpt><trkpt lat="38.0456724" lon="15.849815"><ele>1047.0</ele><time>2026-04-25T09:09:22.848Z</time></trkpt><trkpt lat="38.0457939" lon="15.8498347"><ele>1048.25</ele><time>2026-04-25T09:09:23.839Z</time></trkpt><trkpt lat="38.0459211" lon="15.8498959"><ele>1049.5</ele><time>2026-04-25T09:09:24.835Z</time></trkpt><trkpt lat="38.0460413" lon="15.8499866"><ele>1050.75</ele><time>2026-04-25T09:09:25.842Z</time></trkpt><trkpt lat="38.0461461" lon="15.8500792"><ele>1052.0</ele><time>2026-04-25T09:09:26.852Z</time></trkpt><trkpt lat="38.0462441" lon="15.850162"><ele>1052.0</ele><time>2026-04-25T09:09:27.839Z</time></trkpt><trkpt lat="38.0463188" lon="15.8502415"><ele>1052.0</ele><time>2026-04-25T09:09:28.832Z</time></trkpt><trkpt lat="38.0463648" lon="15.8503151"><ele>1052.0</ele><time>2026-04-25T09:09:29.839Z</time></trkpt><trkpt lat="38.0463627" lon="15.850433"><ele>1052.0</ele><time>2026-04-25T09:09:31.846Z</time></trkpt><trkpt lat="38.0462518" lon="15.8505138"><ele>1052.0</ele><time>2026-04-25T09:09:33.849Z</time></trkpt><trkpt lat="38.0461706" lon="15.8505451"><ele>1052.0</ele><time>2026-04-25T09:09:34.855Z</time></trkpt><trkpt lat="38.0460899" lon="15.8505754"><ele>1052.0</ele><time>2026-04-25T09:09:35.844Z</time></trkpt><trkpt lat="38.0460182" lon="15.8506218"><ele>1052.0</ele><time>2026-04-25T09:09:36.841Z</time></trkpt><trkpt lat="38.0459388" lon="15.8506922"><ele>1052.0</ele><time>2026-04-25T09:09:37.841Z</time></trkpt><trkpt lat="38.0458545" lon="15.8507761"><ele>1052.0</ele><time>2026-04-25T09:09:38.845Z</time></trkpt><trkpt lat="38.0457716" lon="15.8508608"><ele>1048.4</ele><time>2026-04-25T09:09:39.842Z</time></trkpt><trkpt lat="38.0456882" lon="15.8509428"><ele>1044.8000000000002</ele><time>2026-04-25T09:09:40.855Z</time></trkpt><trkpt lat="38.0456064" lon="15.8510249"><ele>1041.2</ele><time>2026-04-25T09:09:41.85Z</time></trkpt><trkpt lat="38.0455386" lon="15.851095"><ele>1037.6000000000001</ele><time>2026-04-25T09:09:42.842Z</time></trkpt><trkpt lat="38.0454644" lon="15.8511675"><ele>1034.0</ele><time>2026-04-25T09:09:44.85Z</time></trkpt><trkpt lat="38.0454693" lon="15.8512733"><ele>1034.0</ele><time>2026-04-25T09:10:21.856Z</time></trkpt><trkpt lat="38.0454828" lon="15.8514156"><ele>1034.0</ele><time>2026-04-25T09:10:23.849Z</time></trkpt><trkpt lat="38.0454647" lon="15.8515088"><ele>1034.0</ele><time>2026-04-25T09:10:24.86Z</time></trkpt><trkpt lat="38.0454473" lon="15.8516169"><ele>1034.0</ele><time>2026-04-25T09:10:25.858Z</time></trkpt><trkpt lat="38.0454404" lon="15.851753"><ele>1034.0</ele><time>2026-04-25T09:10:26.864Z</time></trkpt><trkpt lat="38.0454595" lon="15.8518715"><ele>1034.4</ele><time>2026-04-25T09:10:27.847Z</time></trkpt><trkpt lat="38.0455122" lon="15.8519599"><ele>1034.8000000000002</ele><time>2026-04-25T09:10:28.855Z</time></trkpt><trkpt lat="38.0455895" lon="15.8520169"><ele>1035.1999999999998</ele><time>2026-04-25T09:10:29.852Z</time></trkpt><trkpt lat="38.0456814" lon="15.852074"><ele>1035.6</ele><time>2026-04-25T09:10:30.854Z</time></trkpt><trkpt lat="38.0457751" lon="15.852146"><ele>1036.0</ele><time>2026-04-25T09:10:31.852Z</time></trkpt><trkpt lat="38.0458667" lon="15.8522054"><ele>1039.25</ele><time>2026-04-25T09:10:32.858Z</time></trkpt><trkpt lat="38.0459634" lon="15.8522251"><ele>1042.5</ele><time>2026-04-25T09:10:33.859Z</time></trkpt><trkpt lat="38.046068" lon="15.8522154"><ele>1045.75</ele><time>2026-04-25T09:10:34.862Z</time></trkpt><trkpt lat="38.0461972" lon="15.8521874"><ele>1049.0</ele><time>2026-04-25T09:10:35.855Z</time></trkpt><trkpt lat="38.0463407" lon="15.8521578"><ele>1049.0</ele><time>2026-04-25T09:10:36.839Z</time></trkpt><trkpt lat="38.0464839" lon="15.8521352"><ele>1049.0</ele><time>2026-04-25T09:10:37.864Z</time></trkpt><trkpt lat="38.0466251" lon="15.8521148"><ele>1049.0</ele><time>2026-04-25T09:10:38.854Z</time></trkpt><trkpt lat="38.0467726" lon="15.8521144"><ele>1049.0</ele><time>2026-04-25T09:10:39.858Z</time></trkpt><trkpt lat="38.0469129" lon="15.8521425"><ele>1052.25</ele><time>2026-04-25T09:10:40.858Z</time></trkpt><trkpt lat="38.0470358" lon="15.8521853"><ele>1055.5</ele><time>2026-04-25T09:10:41.845Z</time></trkpt><trkpt lat="38.0471496" lon="15.8522249"><ele>1058.75</ele><time>2026-04-25T09:10:42.859Z</time></trkpt><trkpt lat="38.0472586" lon="15.8522799"><ele>1062.0</ele><time>2026-04-25T09:10:43.849Z</time></trkpt><trkpt lat="38.047363" lon="15.8523348"><ele>1065.0</ele><time>2026-04-25T09:10:44.855Z</time></trkpt><trkpt lat="38.0474675" lon="15.8523792"><ele>1068.0</ele><time>2026-04-25T09:10:45.866Z</time></trkpt><trkpt lat="38.0475762" lon="15.8523968"><ele>1071.0</ele><time>2026-04-25T09:10:46.853Z</time></trkpt><trkpt lat="38.0476871" lon="15.8523825"><ele>1074.0</ele><time>2026-04-25T09:10:47.864Z</time></trkpt><trkpt lat="38.0477928" lon="15.8523553"><ele>1077.0</ele><time>2026-04-25T09:10:48.847Z</time></trkpt><trkpt lat="38.0478828" lon="15.85234"><ele>1077.0</ele><time>2026-04-25T09:10:49.85Z</time></trkpt><trkpt lat="38.047957" lon="15.8523684"><ele>1077.0</ele><time>2026-04-25T09:10:50.848Z</time></trkpt><trkpt lat="38.0480001" lon="15.8524428"><ele>1077.0</ele><time>2026-04-25T09:10:51.855Z</time></trkpt><trkpt lat="38.0480221" lon="15.8525333"><ele>1077.0</ele><time>2026-04-25T09:10:52.861Z</time></trkpt><trkpt lat="38.0480428" lon="15.8526315"><ele>1077.0</ele><time>2026-04-25T09:10:53.858Z</time></trkpt><trkpt lat="38.0480775" lon="15.8527393"><ele>1077.0</ele><time>2026-04-25T09:10:54.875Z</time></trkpt><trkpt lat="38.0481374" lon="15.8528479"><ele>1077.4</ele><time>2026-04-25T09:10:55.852Z</time></trkpt><trkpt lat="38.0482104" lon="15.8529413"><ele>1077.8000000000002</ele><time>2026-04-25T09:10:56.847Z</time></trkpt><trkpt lat="38.0482886" lon="15.8529902"><ele>1078.2</ele><time>2026-04-25T09:10:57.852Z</time></trkpt><trkpt lat="38.0483593" lon="15.8529914"><ele>1078.6000000000001</ele><time>2026-04-25T09:10:58.872Z</time></trkpt><trkpt lat="38.0484304" lon="15.852891"><ele>1079.0</ele><time>2026-04-25T09:11:00.86Z</time></trkpt><trkpt lat="38.0483622" lon="15.852756"><ele>1079.0</ele><time>2026-04-25T09:11:02.859Z</time></trkpt><trkpt lat="38.0483201" lon="15.8526604"><ele>1079.0</ele><time>2026-04-25T09:11:03.875Z</time></trkpt><trkpt lat="38.0483031" lon="15.8525423"><ele>1079.0</ele><time>2026-04-25T09:11:04.856Z</time></trkpt><trkpt lat="38.0483167" lon="15.8524017"><ele>1079.0</ele><time>2026-04-25T09:11:05.861Z</time></trkpt><trkpt lat="38.0483303" lon="15.8522497"><ele>1079.0</ele><time>2026-04-25T09:11:06.851Z</time></trkpt><trkpt lat="38.0483104" lon="15.8520882"><ele>1078.5</ele><time>2026-04-25T09:11:07.851Z</time></trkpt><trkpt lat="38.0482502" lon="15.8519465"><ele>1078.0</ele><time>2026-04-25T09:11:08.863Z</time></trkpt><trkpt lat="38.0481736" lon="15.8518151"><ele>1077.5</ele><time>2026-04-25T09:11:09.859Z</time></trkpt><trkpt lat="38.0480993" lon="15.851675"><ele>1077.0</ele><time>2026-04-25T09:11:10.85Z</time></trkpt><trkpt lat="38.0480388" lon="15.8515142"><ele>1084.0</ele><time>2026-04-25T09:11:11.845Z</time></trkpt><trkpt lat="38.0479914" lon="15.8513346"><ele>1091.0</ele><time>2026-04-25T09:11:12.848Z</time></trkpt><trkpt lat="38.0479486" lon="15.8511283"><ele>1098.0</ele><time>2026-04-25T09:11:13.862Z</time></trkpt><trkpt lat="38.0479059" lon="15.8509137"><ele>1098.5</ele><time>2026-04-25T09:11:14.863Z</time></trkpt><trkpt lat="38.0478551" lon="15.8507295"><ele>1099.0</ele><time>2026-04-25T09:11:15.864Z</time></trkpt><trkpt lat="38.0477901" lon="15.8505692"><ele>1099.5</ele><time>2026-04-25T09:11:16.858Z</time></trkpt><trkpt lat="38.0477093" lon="15.8504272"><ele>1100.0</ele><time>2026-04-25T09:11:17.86Z</time></trkpt><trkpt lat="38.0476295" lon="15.8502776"><ele>1100.0</ele><time>2026-04-25T09:11:18.858Z</time></trkpt><trkpt lat="38.0475623" lon="15.8501275"><ele>1100.0</ele><time>2026-04-25T09:11:19.86Z</time></trkpt><trkpt lat="38.0475091" lon="15.8499693"><ele>1100.0</ele><time>2026-04-25T09:11:20.851Z</time></trkpt><trkpt lat="38.0474734" lon="15.8498186"><ele>1100.0</ele><time>2026-04-25T09:11:21.857Z</time></trkpt><trkpt lat="38.0474629" lon="15.8497102"><ele>1103.5</ele><time>2026-04-25T09:11:22.857Z</time></trkpt><trkpt lat="38.0475027" lon="15.8495928"><ele>1107.0</ele><time>2026-04-25T09:11:24.845Z</time></trkpt><trkpt lat="38.0476382" lon="15.8495735"><ele>1110.5</ele><time>2026-04-25T09:11:26.86Z</time></trkpt><trkpt lat="38.0477358" lon="15.849608"><ele>1114.0</ele><time>2026-04-25T09:11:27.847Z</time></trkpt><trkpt lat="38.0478488" lon="15.8496683"><ele>1114.0</ele><time>2026-04-25T09:11:28.864Z</time></trkpt><trkpt lat="38.0479698" lon="15.8497372"><ele>1114.0</ele><time>2026-04-25T09:11:29.872Z</time></trkpt><trkpt lat="38.0480961" lon="15.8498094"><ele>1114.0</ele><time>2026-04-25T09:11:30.874Z</time></trkpt><trkpt lat="38.0482207" lon="15.8498765"><ele>1114.0</ele><time>2026-04-25T09:11:31.849Z</time></trkpt><trkpt lat="38.0483413" lon="15.8499329"><ele>1115.75</ele><time>2026-04-25T09:11:32.858Z</time></trkpt><trkpt lat="38.048461" lon="15.8499877"><ele>1117.5</ele><time>2026-04-25T09:11:33.856Z</time></trkpt><trkpt lat="38.0485897" lon="15.8500593"><ele>1119.25</ele><time>2026-04-25T09:11:34.867Z</time></trkpt><trkpt lat="38.0487186" lon="15.8501377"><ele>1121.0</ele><time>2026-04-25T09:11:35.874Z</time></trkpt><trkpt lat="38.0488511" lon="15.8502168"><ele>1121.0</ele><time>2026-04-25T09:11:36.865Z</time></trkpt><trkpt lat="38.0489939" lon="15.850299"><ele>1121.0</ele><time>2026-04-25T09:11:37.873Z</time></trkpt><trkpt lat="38.049142" lon="15.8503843"><ele>1121.0</ele><time>2026-04-25T09:11:38.863Z</time></trkpt><trkpt lat="38.0492909" lon="15.8504855"><ele>1126.6666666666667</ele><time>2026-04-25T09:11:39.864Z</time></trkpt><trkpt lat="38.04943" lon="15.8506098"><ele>1132.3333333333333</ele><time>2026-04-25T09:11:40.864Z</time></trkpt><trkpt lat="38.0495506" lon="15.8507652"><ele>1138.0</ele><time>2026-04-25T09:11:41.866Z</time></trkpt><trkpt lat="38.0496676" lon="15.8509192"><ele>1135.3333333333333</ele><time>2026-04-25T09:11:42.874Z</time></trkpt><trkpt lat="38.0497825" lon="15.8510659"><ele>1132.6666666666667</ele><time>2026-04-25T09:11:43.863Z</time></trkpt><trkpt lat="38.0498955" lon="15.8512012"><ele>1130.0</ele><time>2026-04-25T09:11:44.872Z</time></trkpt><trkpt lat="38.0500125" lon="15.8513368"><ele>1136.0</ele><time>2026-04-25T09:11:45.869Z</time></trkpt><trkpt lat="38.050137" lon="15.8514726"><ele>1142.0</ele><time>2026-04-25T09:11:46.876Z</time></trkpt><trkpt lat="38.050271" lon="15.8516116"><ele>1148.0</ele><time>2026-04-25T09:11:47.857Z</time></trkpt><trkpt lat="38.0504098" lon="15.8517407"><ele>1143.3333333333335</ele><time>2026-04-25T09:11:48.861Z</time></trkpt><trkpt lat="38.0505351" lon="15.8518699"><ele>1138.6666666666667</ele><time>2026-04-25T09:11:49.862Z</time></trkpt><trkpt lat="38.0506445" lon="15.8520172"><ele>1134.0</ele><time>2026-04-25T09:11:50.865Z</time></trkpt><trkpt lat="38.050745" lon="15.8521579"><ele>1138.0</ele><time>2026-04-25T09:11:51.854Z</time></trkpt><trkpt lat="38.0508421" lon="15.8522931"><ele>1142.0</ele><time>2026-04-25T09:11:52.867Z</time></trkpt><trkpt lat="38.0509382" lon="15.8524024"><ele>1146.0</ele><time>2026-04-25T09:11:53.866Z</time></trkpt><trkpt lat="38.0510335" lon="15.8524817"><ele>1150.0</ele><time>2026-04-25T09:11:54.865Z</time></trkpt><trkpt lat="38.0511373" lon="15.8525275"><ele>1150.0</ele><time>2026-04-25T09:11:55.863Z</time></trkpt><trkpt lat="38.0512572" lon="15.8525445"><ele>1150.0</ele><time>2026-04-25T09:11:56.875Z</time></trkpt><trkpt lat="38.0513937" lon="15.8525351"><ele>1150.0</ele><time>2026-04-25T09:11:57.868Z</time></trkpt><trkpt lat="38.051543" lon="15.8525291"><ele>1150.0</ele><time>2026-04-25T09:11:58.869Z</time></trkpt><trkpt lat="38.0517006" lon="15.8525236"><ele>1152.25</ele><time>2026-04-25T09:11:59.878Z</time></trkpt><trkpt lat="38.0518525" lon="15.8525151"><ele>1154.5</ele><time>2026-04-25T09:12:00.865Z</time></trkpt><trkpt lat="38.0519942" lon="15.8525194"><ele>1156.75</ele><time>2026-04-25T09:12:01.869Z</time></trkpt><trkpt lat="38.052108" lon="15.8525256"><ele>1159.0</ele><time>2026-04-25T09:12:02.864Z</time></trkpt><trkpt lat="38.0521999" lon="15.8525162"><ele>1159.0</ele><time>2026-04-25T09:12:03.86Z</time></trkpt><trkpt lat="38.0522891" lon="15.8524664"><ele>1159.0</ele><time>2026-04-25T09:12:04.874Z</time></trkpt><trkpt lat="38.052395" lon="15.8523836"><ele>1159.0</ele><time>2026-04-25T09:12:05.868Z</time></trkpt><trkpt lat="38.0525053" lon="15.8522923"><ele>1159.0</ele><time>2026-04-25T09:12:06.876Z</time></trkpt><trkpt lat="38.0526192" lon="15.8522188"><ele>1159.5</ele><time>2026-04-25T09:12:07.857Z</time></trkpt><trkpt lat="38.052747" lon="15.8521737"><ele>1160.0</ele><time>2026-04-25T09:12:08.869Z</time></trkpt><trkpt lat="38.0528748" lon="15.8521387"><ele>1160.5</ele><time>2026-04-25T09:12:09.869Z</time></trkpt><trkpt lat="38.0529902" lon="15.8521348"><ele>1161.0</ele><time>2026-04-25T09:12:10.862Z</time></trkpt><trkpt lat="38.0530879" lon="15.8521676"><ele>1161.0</ele><time>2026-04-25T09:12:11.844Z</time></trkpt><trkpt lat="38.0531653" lon="15.8522413"><ele>1161.0</ele><time>2026-04-25T09:12:12.871Z</time></trkpt><trkpt lat="38.0532168" lon="15.8523447"><ele>1161.0</ele><time>2026-04-25T09:12:13.862Z</time></trkpt><trkpt lat="38.053269" lon="15.8524406"><ele>1161.0</ele><time>2026-04-25T09:12:14.86Z</time></trkpt><trkpt lat="38.053327" lon="15.8525134"><ele>1161.0</ele><time>2026-04-25T09:12:15.858Z</time></trkpt><trkpt lat="38.0534355" lon="15.8525003"><ele>1162.6</ele><time>2026-04-25T09:12:17.869Z</time></trkpt><trkpt lat="38.0534852" lon="15.8524361"><ele>1164.1999999999998</ele><time>2026-04-25T09:12:18.857Z</time></trkpt><trkpt lat="38.0535342" lon="15.8523433"><ele>1165.8000000000002</ele><time>2026-04-25T09:12:19.859Z</time></trkpt><trkpt lat="38.0535876" lon="15.8522404"><ele>1167.4</ele><time>2026-04-25T09:12:20.861Z</time></trkpt><trkpt lat="38.0536491" lon="15.8521207"><ele>1169.0</ele><time>2026-04-25T09:12:21.862Z</time></trkpt><trkpt lat="38.0537103" lon="15.8519854"><ele>1169.0</ele><time>2026-04-25T09:12:22.862Z</time></trkpt><trkpt lat="38.0537698" lon="15.8518686"><ele>1169.0</ele><time>2026-04-25T09:12:23.854Z</time></trkpt><trkpt lat="38.0538375" lon="15.8517911"><ele>1169.0</ele><time>2026-04-25T09:12:24.848Z</time></trkpt><trkpt lat="38.0539273" lon="15.8517278"><ele>1169.0</ele><time>2026-04-25T09:12:25.856Z</time></trkpt><trkpt lat="38.0540337" lon="15.8516681"><ele>1169.0</ele><time>2026-04-25T09:12:26.87Z</time></trkpt><trkpt lat="38.0541481" lon="15.8516042"><ele>1172.25</ele><time>2026-04-25T09:12:27.858Z</time></trkpt><trkpt lat="38.054269" lon="15.8515331"><ele>1175.5</ele><time>2026-04-25T09:12:28.869Z</time></trkpt><trkpt lat="38.0543897" lon="15.8514605"><ele>1178.75</ele><time>2026-04-25T09:12:29.855Z</time></trkpt><trkpt lat="38.054509" lon="15.851408"><ele>1182.0</ele><time>2026-04-25T09:12:30.849Z</time></trkpt><trkpt lat="38.0546432" lon="15.8513924"><ele>1182.0</ele><time>2026-04-25T09:12:31.86Z</time></trkpt><trkpt lat="38.0547896" lon="15.85139"><ele>1182.0</ele><time>2026-04-25T09:12:32.85Z</time></trkpt><trkpt lat="38.0549342" lon="15.8513888"><ele>1182.0</ele><time>2026-04-25T09:12:33.857Z</time></trkpt><trkpt lat="38.055075" lon="15.8513827"><ele>1182.0</ele><time>2026-04-25T09:12:34.851Z</time></trkpt><trkpt lat="38.055199" lon="15.8513683"><ele>1182.8333333333333</ele><time>2026-04-25T09:12:35.86Z</time></trkpt><trkpt lat="38.0553018" lon="15.8513525"><ele>1183.6666666666667</ele><time>2026-04-25T09:12:36.869Z</time></trkpt><trkpt lat="38.0553822" lon="15.8513452"><ele>1184.5</ele><time>2026-04-25T09:12:37.854Z</time></trkpt><trkpt lat="38.0554487" lon="15.8513633"><ele>1185.3333333333335</ele><time>2026-04-25T09:12:38.865Z</time></trkpt><trkpt lat="38.0555058" lon="15.8514414"><ele>1186.1666666666667</ele><time>2026-04-25T09:12:40.854Z</time></trkpt><trkpt lat="38.0555115" lon="15.8515326"><ele>1187.0</ele><time>2026-04-25T09:12:42.865Z</time></trkpt><trkpt lat="38.0554827" lon="15.8516725"><ele>1187.0</ele><time>2026-04-25T09:12:44.858Z</time></trkpt><trkpt lat="38.0554833" lon="15.851763"><ele>1187.0</ele><time>2026-04-25T09:12:45.842Z</time></trkpt><trkpt lat="38.0555071" lon="15.8518652"><ele>1187.0</ele><time>2026-04-25T09:12:46.845Z</time></trkpt><trkpt lat="38.0555475" lon="15.8519653"><ele>1187.0</ele><time>2026-04-25T09:12:47.86Z</time></trkpt><trkpt lat="38.055603" lon="15.8520682"><ele>1187.0</ele><time>2026-04-25T09:12:48.845Z</time></trkpt><trkpt lat="38.0556761" lon="15.8521662"><ele>1187.0</ele><time>2026-04-25T09:12:49.854Z</time></trkpt><trkpt lat="38.0557659" lon="15.852254"><ele>1187.8</ele><time>2026-04-25T09:12:50.865Z</time></trkpt><trkpt lat="38.0558526" lon="15.8523369"><ele>1188.6</ele><time>2026-04-25T09:12:51.853Z</time></trkpt><trkpt lat="38.0559241" lon="15.8524208"><ele>1189.3999999999999</ele><time>2026-04-25T09:12:52.861Z</time></trkpt><trkpt lat="38.0559764" lon="15.8525099"><ele>1190.2</ele><time>2026-04-25T09:12:53.858Z</time></trkpt><trkpt lat="38.0560165" lon="15.8526113"><ele>1191.0</ele><time>2026-04-25T09:12:54.859Z</time></trkpt><trkpt lat="38.0560363" lon="15.8527205"><ele>1192.1666666666667</ele><time>2026-04-25T09:12:55.873Z</time></trkpt><trkpt lat="38.0560585" lon="15.8528298"><ele>1193.3333333333333</ele><time>2026-04-25T09:12:56.872Z</time></trkpt><trkpt lat="38.0560738" lon="15.8529267"><ele>1194.5</ele><time>2026-04-25T09:12:57.863Z</time></trkpt><trkpt lat="38.0560696" lon="15.8530189"><ele>1195.6666666666665</ele><time>2026-04-25T09:12:58.855Z</time></trkpt><trkpt lat="38.0559971" lon="15.8531258"><ele>1196.8333333333333</ele><time>2026-04-25T09:13:00.855Z</time></trkpt><trkpt lat="38.0559178" lon="15.8531291"><ele>1198.0</ele><time>2026-04-25T09:13:01.861Z</time></trkpt><trkpt lat="38.0558423" lon="15.8531401"><ele>1198.0</ele><time>2026-04-25T09:13:02.863Z</time></trkpt><trkpt lat="38.0557596" lon="15.8532047"><ele>1198.0</ele><time>2026-04-25T09:13:04.865Z</time></trkpt><trkpt lat="38.0557688" lon="15.8532892"><ele>1198.0</ele><time>2026-04-25T09:13:05.847Z</time></trkpt><trkpt lat="38.055794" lon="15.8533872"><ele>1198.0</ele><time>2026-04-25T09:13:06.843Z</time></trkpt><trkpt lat="38.0558291" lon="15.8534828"><ele>1198.0</ele><time>2026-04-25T09:13:07.853Z</time></trkpt><trkpt lat="38.0558772" lon="15.8535854"><ele>1198.0</ele><time>2026-04-25T09:13:08.857Z</time></trkpt><trkpt lat="38.0559344" lon="15.8537056"><ele>1198.5</ele><time>2026-04-25T09:13:09.85Z</time></trkpt><trkpt lat="38.0559976" lon="15.8538653"><ele>1199.0</ele><time>2026-04-25T09:13:10.865Z</time></trkpt><trkpt lat="38.0560473" lon="15.8540197"><ele>1199.5</ele><time>2026-04-25T09:13:11.848Z</time></trkpt><trkpt lat="38.0560922" lon="15.8541662"><ele>1200.0</ele><time>2026-04-25T09:13:12.852Z</time></trkpt><trkpt lat="38.0561295" lon="15.8543129"><ele>1200.0</ele><time>2026-04-25T09:13:13.847Z</time></trkpt><trkpt lat="38.056153" lon="15.8544633"><ele>1200.0</ele><time>2026-04-25T09:13:14.871Z</time></trkpt><trkpt lat="38.0561746" lon="15.8546145"><ele>1200.0</ele><time>2026-04-25T09:13:15.86Z</time></trkpt><trkpt lat="38.0562039" lon="15.8547479"><ele>1200.0</ele><time>2026-04-25T09:13:16.849Z</time></trkpt><trkpt lat="38.0562468" lon="15.8548544"><ele>1200.0</ele><time>2026-04-25T09:13:17.847Z</time></trkpt><trkpt lat="38.056292" lon="15.8549308"><ele>1200.0</ele><time>2026-04-25T09:13:18.858Z</time></trkpt><trkpt lat="38.0563611" lon="15.8550029"><ele>1200.0</ele><time>2026-04-25T09:13:19.846Z</time></trkpt><trkpt lat="38.0564553" lon="15.8550808"><ele>1200.0</ele><time>2026-04-25T09:13:20.846Z</time></trkpt><trkpt lat="38.0565535" lon="15.8551585"><ele>1200.0</ele><time>2026-04-25T09:13:21.851Z</time></trkpt><trkpt lat="38.0566375" lon="15.8552408"><ele>1200.0</ele><time>2026-04-25T09:13:22.846Z</time></trkpt><trkpt lat="38.0567101" lon="15.8553131"><ele>1201.8</ele><time>2026-04-25T09:13:23.848Z</time></trkpt><trkpt lat="38.0567729" lon="15.8553565"><ele>1203.6</ele><time>2026-04-25T09:13:24.862Z</time></trkpt><trkpt lat="38.0568479" lon="15.8553739"><ele>1205.4</ele><time>2026-04-25T09:13:25.854Z</time></trkpt><trkpt lat="38.0569452" lon="15.8553539"><ele>1207.2</ele><time>2026-04-25T09:13:26.84Z</time></trkpt><trkpt lat="38.0570635" lon="15.8553069"><ele>1209.0</ele><time>2026-04-25T09:13:27.851Z</time></trkpt><trkpt lat="38.0571514" lon="15.8552919"><ele>1209.0</ele><time>2026-04-25T09:13:28.842Z</time></trkpt><trkpt lat="38.0572483" lon="15.855344"><ele>1209.0</ele><time>2026-04-25T09:13:30.863Z</time></trkpt><trkpt lat="38.0573062" lon="15.8554691"><ele>1209.0</ele><time>2026-04-25T09:13:32.853Z</time></trkpt><trkpt lat="38.057356" lon="15.8555514"><ele>1209.0</ele><time>2026-04-25T09:13:33.846Z</time></trkpt><trkpt lat="38.0574512" lon="15.8556654"><ele>1209.0</ele><time>2026-04-25T09:13:34.843Z</time></trkpt><trkpt lat="38.0575494" lon="15.8557487"><ele>1211.4</ele><time>2026-04-25T09:13:35.854Z</time></trkpt><trkpt lat="38.0576222" lon="15.8557831"><ele>1213.8000000000002</ele><time>2026-04-25T09:13:36.845Z</time></trkpt><trkpt lat="38.0576273" lon="15.8556861"><ele>1216.1999999999998</ele><time>2026-04-25T09:13:40.852Z</time></trkpt><trkpt lat="38.0575743" lon="15.8555547"><ele>1218.6</ele><time>2026-04-25T09:13:42.857Z</time></trkpt><trkpt lat="38.0575557" lon="15.8553851"><ele>1221.0</ele><time>2026-04-25T09:13:44.869Z</time></trkpt><trkpt lat="38.0575861" lon="15.8552787"><ele>1221.0</ele><time>2026-04-25T09:13:45.863Z</time></trkpt><trkpt lat="38.0576272" lon="15.8551747"><ele>1221.0</ele><time>2026-04-25T09:13:46.856Z</time></trkpt><trkpt lat="38.0576594" lon="15.8550723"><ele>1221.0</ele><time>2026-04-25T09:13:47.856Z</time></trkpt><trkpt lat="38.0576801" lon="15.8549858"><ele>1221.0</ele><time>2026-04-25T09:13:48.855Z</time></trkpt><trkpt lat="38.057663" lon="15.8548958"><ele>1221.0</ele><time>2026-04-25T09:13:49.845Z</time></trkpt><trkpt lat="38.0576133" lon="15.8548287"><ele>1221.0</ele><time>2026-04-25T09:13:50.849Z</time></trkpt><trkpt lat="38.05756" lon="15.8547786"><ele>1220.3333333333333</ele><time>2026-04-25T09:13:51.851Z</time></trkpt><trkpt lat="38.0574863" lon="15.8547478"><ele>1219.6666666666667</ele><time>2026-04-25T09:13:52.847Z</time></trkpt><trkpt lat="38.0573981" lon="15.8547161"><ele>1219.0</ele><time>2026-04-25T09:13:53.853Z</time></trkpt><trkpt lat="38.0573367" lon="15.8546573"><ele>1218.3333333333335</ele><time>2026-04-25T09:13:54.843Z</time></trkpt><trkpt lat="38.0573104" lon="15.8545737"><ele>1217.6666666666667</ele><time>2026-04-25T09:13:55.856Z</time></trkpt><trkpt lat="38.05732" lon="15.8544798"><ele>1217.0</ele><time>2026-04-25T09:13:56.841Z</time></trkpt><trkpt lat="38.0573507" lon="15.8543828"><ele>1217.2</ele><time>2026-04-25T09:13:57.851Z</time></trkpt><trkpt lat="38.0574021" lon="15.8542798"><ele>1217.4</ele><time>2026-04-25T09:13:58.86Z</time></trkpt><trkpt lat="38.0574635" lon="15.8541913"><ele>1217.6</ele><time>2026-04-25T09:13:59.848Z</time></trkpt><trkpt lat="38.0575368" lon="15.8541151"><ele>1217.8</ele><time>2026-04-25T09:14:00.849Z</time></trkpt><trkpt lat="38.0576128" lon="15.8540539"><ele>1218.0</ele><time>2026-04-25T09:14:01.86Z</time></trkpt><trkpt lat="38.0576939" lon="15.8540043"><ele>1220.4</ele><time>2026-04-25T09:14:02.842Z</time></trkpt><trkpt lat="38.0577611" lon="15.8539756"><ele>1222.8</ele><time>2026-04-25T09:14:03.848Z</time></trkpt><trkpt lat="38.0578348" lon="15.8540235"><ele>1225.2</ele><time>2026-04-25T09:14:05.853Z</time></trkpt><trkpt lat="38.0578886" lon="15.8541729"><ele>1227.6</ele><time>2026-04-25T09:14:07.847Z</time></trkpt><trkpt lat="38.0579527" lon="15.8542803"><ele>1230.0</ele><time>2026-04-25T09:14:08.857Z</time></trkpt><trkpt lat="38.058025" lon="15.8543785"><ele>1230.0</ele><time>2026-04-25T09:14:09.857Z</time></trkpt><trkpt lat="38.0580876" lon="15.854471"><ele>1230.0</ele><time>2026-04-25T09:14:10.848Z</time></trkpt><trkpt lat="38.0581328" lon="15.8545682"><ele>1230.0</ele><time>2026-04-25T09:14:11.845Z</time></trkpt><trkpt lat="38.0581508" lon="15.8546657"><ele>1230.0</ele><time>2026-04-25T09:14:12.845Z</time></trkpt><trkpt lat="38.0581538" lon="15.8547459"><ele>1230.0</ele><time>2026-04-25T09:14:13.867Z</time></trkpt><trkpt lat="38.0582005" lon="15.8548396"><ele>1230.0</ele><time>2026-04-25T09:14:15.844Z</time></trkpt><trkpt lat="38.0582778" lon="15.8548087"><ele>1231.8333333333333</ele><time>2026-04-25T09:14:17.854Z</time></trkpt><trkpt lat="38.0582884" lon="15.8546469"><ele>1233.6666666666667</ele><time>2026-04-25T09:14:19.853Z</time></trkpt><trkpt lat="38.0582883" lon="15.8545362"><ele>1235.5</ele><time>2026-04-25T09:14:20.848Z</time></trkpt><trkpt lat="38.0582923" lon="15.8544355"><ele>1237.3333333333335</ele><time>2026-04-25T09:14:21.858Z</time></trkpt><trkpt lat="38.0582972" lon="15.854341"><ele>1239.1666666666667</ele><time>2026-04-25T09:14:22.853Z</time></trkpt><trkpt lat="38.0582996" lon="15.8542494"><ele>1241.0</ele><time>2026-04-25T09:14:23.864Z</time></trkpt><trkpt lat="38.0583076" lon="15.854151"><ele>1242.5</ele><time>2026-04-25T09:14:24.846Z</time></trkpt><trkpt lat="38.0583267" lon="15.8540584"><ele>1244.0</ele><time>2026-04-25T09:14:25.856Z</time></trkpt><trkpt lat="38.0583507" lon="15.8539842"><ele>1245.5</ele><time>2026-04-25T09:14:26.859Z</time></trkpt><trkpt lat="38.0583763" lon="15.8539074"><ele>1247.0</ele><time>2026-04-25T09:14:28.841Z</time></trkpt><trkpt lat="38.0584647" lon="15.8538498"><ele>1248.5</ele><time>2026-04-25T09:17:21.871Z</time></trkpt><trkpt lat="38.0585794" lon="15.8537648"><ele>1250.0</ele><time>2026-04-25T09:17:23.873Z</time></trkpt><trkpt lat="38.0586495" lon="15.8537185"><ele>1250.0</ele><time>2026-04-25T09:17:24.78Z</time></trkpt><trkpt lat="38.0587276" lon="15.8536806"><ele>1250.0</ele><time>2026-04-25T09:17:25.775Z</time></trkpt><trkpt lat="38.058804" lon="15.8536595"><ele>1250.0</ele><time>2026-04-25T09:17:26.77Z</time></trkpt><trkpt lat="38.0588845" lon="15.8536568"><ele>1250.0</ele><time>2026-04-25T09:17:27.774Z</time></trkpt><trkpt lat="38.0589691" lon="15.8536594"><ele>1250.0</ele><time>2026-04-25T09:17:28.784Z</time></trkpt><trkpt lat="38.059056" lon="15.8536543"><ele>1250.0</ele><time>2026-04-25T09:17:29.878Z</time></trkpt><trkpt lat="38.0591355" lon="15.8536292"><ele>1249.3333333333335</ele><time>2026-04-25T09:17:30.78Z</time></trkpt><trkpt lat="38.0592" lon="15.8535819"><ele>1248.6666666666667</ele><time>2026-04-25T09:17:31.757Z</time></trkpt><trkpt lat="38.0592664" lon="15.8535053"><ele>1248.0</ele><time>2026-04-25T09:17:32.78Z</time></trkpt><trkpt lat="38.0593346" lon="15.8534354"><ele>1247.3333333333333</ele><time>2026-04-25T09:17:33.777Z</time></trkpt><trkpt lat="38.0594075" lon="15.8533983"><ele>1246.6666666666665</ele><time>2026-04-25T09:17:34.779Z</time></trkpt><trkpt lat="38.0594883" lon="15.85338"><ele>1246.0</ele><time>2026-04-25T09:17:35.776Z</time></trkpt><trkpt lat="38.0595782" lon="15.8533665"><ele>1249.8</ele><time>2026-04-25T09:17:36.774Z</time></trkpt><trkpt lat="38.0596802" lon="15.8533626"><ele>1253.6</ele><time>2026-04-25T09:17:37.784Z</time></trkpt><trkpt lat="38.0597811" lon="15.8533579"><ele>1257.4</ele><time>2026-04-25T09:17:38.776Z</time></trkpt><trkpt lat="38.059868" lon="15.8533491"><ele>1261.2</ele><time>2026-04-25T09:17:39.771Z</time></trkpt><trkpt lat="38.0599416" lon="15.8533254"><ele>1265.0</ele><time>2026-04-25T09:17:40.778Z</time></trkpt><trkpt lat="38.060021" lon="15.853269"><ele>1265.0</ele><time>2026-04-25T09:17:41.775Z</time></trkpt><trkpt lat="38.0601071" lon="15.8531838"><ele>1265.0</ele><time>2026-04-25T09:17:42.763Z</time></trkpt><trkpt lat="38.0602006" lon="15.8530846"><ele>1265.0</ele><time>2026-04-25T09:17:43.774Z</time></trkpt><trkpt lat="38.0603681" lon="15.8529094"><ele>1265.0</ele><time>2026-04-25T09:17:45.088Z</time></trkpt><trkpt lat="38.0604569" lon="15.8528269"><ele>1265.0</ele><time>2026-04-25T09:17:46.086Z</time></trkpt><trkpt lat="38.0605475" lon="15.8527584"><ele>1265.0</ele><time>2026-04-25T09:17:47.068Z</time></trkpt><trkpt lat="38.0606417" lon="15.8526872"><ele>1265.0</ele><time>2026-04-25T09:17:48.088Z</time></trkpt><trkpt lat="38.0607367" lon="15.8526102"><ele>1265.0</ele><time>2026-04-25T09:17:49.068Z</time></trkpt><trkpt lat="38.060824" lon="15.8525271"><ele>1265.0</ele><time>2026-04-25T09:17:50.071Z</time></trkpt><trkpt lat="38.0609042" lon="15.8524536"><ele>1267.8333333333335</ele><time>2026-04-25T09:17:51.07Z</time></trkpt><trkpt lat="38.0609788" lon="15.8523909"><ele>1270.6666666666667</ele><time>2026-04-25T09:17:52.084Z</time></trkpt><trkpt lat="38.0610466" lon="15.8523387"><ele>1273.5</ele><time>2026-04-25T09:17:53.076Z</time></trkpt><trkpt lat="38.0611064" lon="15.8523078"><ele>1276.3333333333333</ele><time>2026-04-25T09:17:54.077Z</time></trkpt><trkpt lat="38.0612112" lon="15.8523363"><ele>1279.1666666666665</ele><time>2026-04-25T09:17:56.075Z</time></trkpt><trkpt lat="38.0612699" lon="15.8523837"><ele>1282.0</ele><time>2026-04-25T09:17:57.085Z</time></trkpt><trkpt lat="38.0613291" lon="15.8524481"><ele>1282.0</ele><time>2026-04-25T09:17:58.082Z</time></trkpt><trkpt lat="38.0613998" lon="15.8525083"><ele>1282.0</ele><time>2026-04-25T09:17:59.061Z</time></trkpt><trkpt lat="38.0614736" lon="15.85256"><ele>1282.0</ele><time>2026-04-25T09:18:00.089Z</time></trkpt><trkpt lat="38.0615565" lon="15.8525998"><ele>1282.0</ele><time>2026-04-25T09:18:01.069Z</time></trkpt><trkpt lat="38.0616516" lon="15.852629"><ele>1282.0</ele><time>2026-04-25T09:18:02.093Z</time></trkpt><trkpt lat="38.0617363" lon="15.8526461"><ele>1282.0</ele><time>2026-04-25T09:18:03.084Z</time></trkpt><trkpt lat="38.0618103" lon="15.8526361"><ele>1280.0</ele><time>2026-04-25T09:18:04.082Z</time></trkpt><trkpt lat="38.0618741" lon="15.8526039"><ele>1278.0</ele><time>2026-04-25T09:18:05.068Z</time></trkpt><trkpt lat="38.0619265" lon="15.8525439"><ele>1276.0</ele><time>2026-04-25T09:18:06.077Z</time></trkpt><trkpt lat="38.0619882" lon="15.8524586"><ele>1274.0</ele><time>2026-04-25T09:18:07.083Z</time></trkpt><trkpt lat="38.0620417" lon="15.8523653"><ele>1272.0</ele><time>2026-04-25T09:18:08.083Z</time></trkpt><trkpt lat="38.062084" lon="15.8522771"><ele>1270.0</ele><time>2026-04-25T09:18:09.086Z</time></trkpt><trkpt lat="38.0620987" lon="15.8521952"><ele>1270.0</ele><time>2026-04-25T09:18:10.088Z</time></trkpt><trkpt lat="38.0620833" lon="15.8521115"><ele>1270.0</ele><time>2026-04-25T09:18:11.07Z</time></trkpt><trkpt lat="38.0620589" lon="15.8520274"><ele>1270.0</ele><time>2026-04-25T09:18:12.094Z</time></trkpt><trkpt lat="38.0620373" lon="15.8519386"><ele>1270.0</ele><time>2026-04-25T09:18:13.089Z</time></trkpt><trkpt lat="38.0620222" lon="15.8518505"><ele>1270.0</ele><time>2026-04-25T09:18:14.066Z</time></trkpt><trkpt lat="38.0620586" lon="15.8517347"><ele>1270.0</ele><time>2026-04-25T09:18:16.07Z</time></trkpt><trkpt lat="38.0621802" lon="15.8516803"><ele>1271.1666666666665</ele><time>2026-04-25T09:18:18.07Z</time></trkpt><trkpt lat="38.0622697" lon="15.851672"><ele>1272.3333333333333</ele><time>2026-04-25T09:18:19.079Z</time></trkpt><trkpt lat="38.0623583" lon="15.851668"><ele>1273.5</ele><time>2026-04-25T09:18:20.086Z</time></trkpt><trkpt lat="38.0624438" lon="15.8516482"><ele>1274.6666666666667</ele><time>2026-04-25T09:18:21.094Z</time></trkpt><trkpt lat="38.0625233" lon="15.8516104"><ele>1275.8333333333335</ele><time>2026-04-25T09:18:22.083Z</time></trkpt><trkpt lat="38.0626028" lon="15.8515591"><ele>1277.0</ele><time>2026-04-25T09:18:23.08Z</time></trkpt><trkpt lat="38.0626916" lon="15.8515095"><ele>1273.8</ele><time>2026-04-25T09:18:24.088Z</time></trkpt><trkpt lat="38.0627895" lon="15.851475"><ele>1270.6</ele><time>2026-04-25T09:18:25.085Z</time></trkpt><trkpt lat="38.0628908" lon="15.851456"><ele>1267.3999999999999</ele><time>2026-04-25T09:18:26.089Z</time></trkpt><trkpt lat="38.0629866" lon="15.8514256"><ele>1264.2</ele><time>2026-04-25T09:18:27.09Z</time></trkpt><trkpt lat="38.0630662" lon="15.8513761"><ele>1261.0</ele><time>2026-04-25T09:18:28.089Z</time></trkpt><trkpt lat="38.0631498" lon="15.8513014"><ele>1261.0</ele><time>2026-04-25T09:18:29.082Z</time></trkpt><trkpt lat="38.0632534" lon="15.8512069"><ele>1261.0</ele><time>2026-04-25T09:18:30.078Z</time></trkpt><trkpt lat="38.0633712" lon="15.8511093"><ele>1261.0</ele><time>2026-04-25T09:18:31.091Z</time></trkpt><trkpt lat="38.0634909" lon="15.8510209"><ele>1261.0</ele><time>2026-04-25T09:18:32.078Z</time></trkpt><trkpt lat="38.0636035" lon="15.8509411"><ele>1258.3999999999999</ele><time>2026-04-25T09:18:33.086Z</time></trkpt><trkpt lat="38.0637104" lon="15.8508656"><ele>1255.8</ele><time>2026-04-25T09:18:34.091Z</time></trkpt><trkpt lat="38.0638071" lon="15.8507963"><ele>1253.1999999999998</ele><time>2026-04-25T09:18:35.078Z</time></trkpt><trkpt lat="38.0639019" lon="15.8507309"><ele>1250.6</ele><time>2026-04-25T09:18:36.087Z</time></trkpt><trkpt lat="38.0639971" lon="15.8506884"><ele>1248.0</ele><time>2026-04-25T09:18:37.089Z</time></trkpt><trkpt lat="38.0640885" lon="15.8506796"><ele>1249.4</ele><time>2026-04-25T09:18:38.073Z</time></trkpt><trkpt lat="38.0641763" lon="15.8506939"><ele>1250.8</ele><time>2026-04-25T09:18:39.097Z</time></trkpt><trkpt lat="38.0642541" lon="15.8507233"><ele>1252.2</ele><time>2026-04-25T09:18:40.09Z</time></trkpt><trkpt lat="38.064348" lon="15.8507236"><ele>1253.6</ele><time>2026-04-25T09:18:42.078Z</time></trkpt><trkpt lat="38.0644413" lon="15.8506561"><ele>1255.0</ele><time>2026-04-25T09:18:44.09Z</time></trkpt><trkpt lat="38.0645144" lon="15.8506039"><ele>1255.0</ele><time>2026-04-25T09:18:45.097Z</time></trkpt><trkpt lat="38.0645997" lon="15.8505545"><ele>1255.0</ele><time>2026-04-25T09:18:46.098Z</time></trkpt><trkpt lat="38.0647037" lon="15.8505228"><ele>1255.0</ele><time>2026-04-25T09:18:47.085Z</time></trkpt><trkpt lat="38.0648116" lon="15.8504919"><ele>1255.0</ele><time>2026-04-25T09:18:48.097Z</time></trkpt><trkpt lat="38.064894" lon="15.8504562"><ele>1255.0</ele><time>2026-04-25T09:18:49.088Z</time></trkpt><trkpt lat="38.0649579" lon="15.8504199"><ele>1254.2</ele><time>2026-04-25T09:18:50.095Z</time></trkpt><trkpt lat="38.0650057" lon="15.8503637"><ele>1253.4</ele><time>2026-04-25T09:18:51.083Z</time></trkpt><trkpt lat="38.0650626" lon="15.8502645"><ele>1252.6</ele><time>2026-04-25T09:18:52.09Z</time></trkpt><trkpt lat="38.0651133" lon="15.850146"><ele>1251.8</ele><time>2026-04-25T09:18:53.089Z</time></trkpt><trkpt lat="38.0651619" lon="15.8500105"><ele>1251.0</ele><time>2026-04-25T09:18:54.083Z</time></trkpt><trkpt lat="38.0652073" lon="15.8498817"><ele>1254.6</ele><time>2026-04-25T09:18:55.071Z</time></trkpt><trkpt lat="38.0652412" lon="15.8497456"><ele>1258.1999999999998</ele><time>2026-04-25T09:18:56.087Z</time></trkpt><trkpt lat="38.0652695" lon="15.8495976"><ele>1261.8000000000002</ele><time>2026-04-25T09:18:57.095Z</time></trkpt><trkpt lat="38.0652953" lon="15.8494607"><ele>1265.4</ele><time>2026-04-25T09:18:58.088Z</time></trkpt><trkpt lat="38.0653265" lon="15.8493462"><ele>1269.0</ele><time>2026-04-25T09:18:59.09Z</time></trkpt><trkpt lat="38.0653717" lon="15.8492515"><ele>1269.0</ele><time>2026-04-25T09:19:00.088Z</time></trkpt><trkpt lat="38.0654275" lon="15.8491597"><ele>1269.0</ele><time>2026-04-25T09:19:01.087Z</time></trkpt><trkpt lat="38.065492" lon="15.8490794"><ele>1269.0</ele><time>2026-04-25T09:19:02.071Z</time></trkpt><trkpt lat="38.0655547" lon="15.8490134"><ele>1269.0</ele><time>2026-04-25T09:19:03.084Z</time></trkpt><trkpt lat="38.0656269" lon="15.8489526"><ele>1269.0</ele><time>2026-04-25T09:19:04.106Z</time></trkpt><trkpt lat="38.0657044" lon="15.848898"><ele>1269.0</ele><time>2026-04-25T09:19:05.089Z</time></trkpt><trkpt lat="38.0657824" lon="15.8488707"><ele>1270.4285714285716</ele><time>2026-04-25T09:19:06.079Z</time></trkpt><trkpt lat="38.0658587" lon="15.8488566"><ele>1271.8571428571427</ele><time>2026-04-25T09:19:07.086Z</time></trkpt><trkpt lat="38.0659327" lon="15.8488483"><ele>1273.2857142857142</ele><time>2026-04-25T09:19:08.095Z</time></trkpt><trkpt lat="38.0659953" lon="15.8488256"><ele>1274.7142857142858</ele><time>2026-04-25T09:19:09.086Z</time></trkpt><trkpt lat="38.0660448" lon="15.8487704"><ele>1276.1428571428573</ele><time>2026-04-25T09:19:10.086Z</time></trkpt><trkpt lat="38.0660804" lon="15.8487025"><ele>1277.5714285714284</ele><time>2026-04-25T09:19:11.097Z</time></trkpt><trkpt lat="38.0661143" lon="15.848625"><ele>1279.0</ele><time>2026-04-25T09:19:12.081Z</time></trkpt><trkpt lat="38.0661453" lon="15.8485301"><ele>1281.2</ele><time>2026-04-25T09:19:13.098Z</time></trkpt><trkpt lat="38.0661787" lon="15.8484189"><ele>1283.4</ele><time>2026-04-25T09:19:14.089Z</time></trkpt><trkpt lat="38.0662239" lon="15.8482951"><ele>1285.6</ele><time>2026-04-25T09:19:15.095Z</time></trkpt><trkpt lat="38.0662889" lon="15.848163"><ele>1287.8</ele><time>2026-04-25T09:19:16.091Z</time></trkpt><trkpt lat="38.0663581" lon="15.8480423"><ele>1290.0</ele><time>2026-04-25T09:19:17.085Z</time></trkpt><trkpt lat="38.06642" lon="15.847941"><ele>1290.0</ele><time>2026-04-25T09:19:18.094Z</time></trkpt><trkpt lat="38.0664796" lon="15.8478654"><ele>1290.0</ele><time>2026-04-25T09:19:19.073Z</time></trkpt><trkpt lat="38.0665343" lon="15.84782"><ele>1290.0</ele><time>2026-04-25T09:19:20.096Z</time></trkpt><trkpt lat="38.0666402" lon="15.8478266"><ele>1290.0</ele><time>2026-04-25T09:19:22.095Z</time></trkpt><trkpt lat="38.0667276" lon="15.8479288"><ele>1290.0</ele><time>2026-04-25T09:19:24.089Z</time></trkpt><trkpt lat="38.0667737" lon="15.847985"><ele>1290.0</ele><time>2026-04-25T09:19:25.1Z</time></trkpt><trkpt lat="38.0668269" lon="15.8480413"><ele>1290.0</ele><time>2026-04-25T09:19:26.081Z</time></trkpt><trkpt lat="38.0668958" lon="15.8481186"><ele>1290.0</ele><time>2026-04-25T09:19:27.085Z</time></trkpt><trkpt lat="38.0669659" lon="15.8482095"><ele>1290.0</ele><time>2026-04-25T09:19:28.089Z</time></trkpt><trkpt lat="38.067029" lon="15.8483038"><ele>1290.0</ele><time>2026-04-25T09:19:29.1Z</time></trkpt><trkpt lat="38.0670869" lon="15.8483766"><ele>1290.0</ele><time>2026-04-25T09:19:30.09Z</time></trkpt><trkpt lat="38.0671484" lon="15.848425"><ele>1290.0</ele><time>2026-04-25T09:19:31.098Z</time></trkpt><trkpt lat="38.0672262" lon="15.848458"><ele>1290.2</ele><time>2026-04-25T09:19:32.104Z</time></trkpt><trkpt lat="38.0673245" lon="15.8484869"><ele>1290.4</ele><time>2026-04-25T09:19:33.08Z</time></trkpt><trkpt lat="38.0674214" lon="15.8485228"><ele>1290.6</ele><time>2026-04-25T09:19:34.089Z</time></trkpt><trkpt lat="38.0675032" lon="15.8485758"><ele>1290.8</ele><time>2026-04-25T09:19:35.096Z</time></trkpt><trkpt lat="38.0675695" lon="15.8486459"><ele>1291.0</ele><time>2026-04-25T09:19:36.087Z</time></trkpt><trkpt lat="38.0676267" lon="15.8487366"><ele>1291.0</ele><time>2026-04-25T09:19:37.079Z</time></trkpt><trkpt lat="38.0676906" lon="15.8488292"><ele>1291.0</ele><time>2026-04-25T09:19:38.092Z</time></trkpt><trkpt lat="38.0677502" lon="15.8489178"><ele>1291.0</ele><time>2026-04-25T09:19:39.093Z</time></trkpt><trkpt lat="38.0678093" lon="15.8490084"><ele>1291.0</ele><time>2026-04-25T09:19:40.08Z</time></trkpt><trkpt lat="38.0678629" lon="15.8491012"><ele>1291.0</ele><time>2026-04-25T09:19:41.088Z</time></trkpt><trkpt lat="38.0679121" lon="15.8491991"><ele>1291.0</ele><time>2026-04-25T09:19:42.092Z</time></trkpt><trkpt lat="38.0679699" lon="15.8492803"><ele>1291.0</ele><time>2026-04-25T09:19:43.095Z</time></trkpt><trkpt lat="38.0680266" lon="15.8493237"><ele>1291.0</ele><time>2026-04-25T09:19:44.101Z</time></trkpt><trkpt lat="38.0680975" lon="15.8493533"><ele>1291.0</ele><time>2026-04-25T09:19:45.094Z</time></trkpt><trkpt lat="38.0681636" lon="15.849387"><ele>1291.0</ele><time>2026-04-25T09:19:46.106Z</time></trkpt><trkpt lat="38.0682349" lon="15.849496"><ele>1291.0</ele><time>2026-04-25T09:19:48.1Z</time></trkpt><trkpt lat="38.0682346" lon="15.849657"><ele>1291.5</ele><time>2026-04-25T09:19:50.085Z</time></trkpt><trkpt lat="38.0682466" lon="15.8497608"><ele>1292.0</ele><time>2026-04-25T09:19:51.09Z</time></trkpt><trkpt lat="38.0682748" lon="15.8498651"><ele>1292.5</ele><time>2026-04-25T09:19:52.099Z</time></trkpt><trkpt lat="38.0683664" lon="15.8499368"><ele>1293.0</ele><time>2026-04-25T09:19:54.103Z</time></trkpt><trkpt lat="38.0684372" lon="15.8499427"><ele>1293.5</ele><time>2026-04-25T09:19:55.095Z</time></trkpt><trkpt lat="38.0685024" lon="15.8499558"><ele>1294.0</ele><time>2026-04-25T09:19:56.095Z</time></trkpt><trkpt lat="38.0685849" lon="15.8500217"><ele>1294.6666666666665</ele><time>2026-04-25T09:19:58.109Z</time></trkpt><trkpt lat="38.0686316" lon="15.8501269"><ele>1295.3333333333333</ele><time>2026-04-25T09:20:00.106Z</time></trkpt><trkpt lat="38.0686305" lon="15.8502261"><ele>1296.0</ele><time>2026-04-25T09:20:03.106Z</time></trkpt><trkpt lat="38.06859" lon="15.8503149"><ele>1296.6666666666667</ele><time>2026-04-25T09:20:06.109Z</time></trkpt><trkpt lat="38.0685362" lon="15.8503745"><ele>1297.3333333333335</ele><time>2026-04-25T09:20:08.104Z</time></trkpt><trkpt lat="38.06846" lon="15.8504325"><ele>1298.0</ele><time>2026-04-25T09:20:10.11Z</time></trkpt><trkpt lat="38.0683971" lon="15.8504822"><ele>1298.0</ele><time>2026-04-25T09:20:11.102Z</time></trkpt><trkpt lat="38.0683205" lon="15.8505278"><ele>1298.0</ele><time>2026-04-25T09:20:12.104Z</time></trkpt><trkpt lat="38.0682471" lon="15.8505798"><ele>1298.0</ele><time>2026-04-25T09:20:13.12Z</time></trkpt><trkpt lat="38.0681822" lon="15.8506451"><ele>1298.0</ele><time>2026-04-25T09:20:14.117Z</time></trkpt><trkpt lat="38.0681209" lon="15.8507341"><ele>1298.0</ele><time>2026-04-25T09:20:16.112Z</time></trkpt><trkpt lat="38.0680853" lon="15.8508135"><ele>1298.0</ele><time>2026-04-25T09:20:19.128Z</time></trkpt><trkpt lat="38.0680552" lon="15.8509071"><ele>1298.0</ele><time>2026-04-25T09:20:22.13Z</time></trkpt><trkpt lat="38.0680896" lon="15.8508388"><ele>1298.0</ele><time>2026-04-25T09:20:41.148Z</time></trkpt><trkpt lat="38.0681243" lon="15.8507314"><ele>1298.0</ele><time>2026-04-25T09:20:43.144Z</time></trkpt><trkpt lat="38.0682166" lon="15.850608"><ele>1298.0</ele><time>2026-04-25T09:20:45.154Z</time></trkpt><trkpt lat="38.0682826" lon="15.8505587"><ele>1298.0</ele><time>2026-04-25T09:20:46.145Z</time></trkpt><trkpt lat="38.068357" lon="15.8505156"><ele>1298.0</ele><time>2026-04-25T09:20:47.151Z</time></trkpt><trkpt lat="38.0684278" lon="15.8504735"><ele>1298.0</ele><time>2026-04-25T09:20:48.159Z</time></trkpt><trkpt lat="38.0684908" lon="15.8504371"><ele>1298.0</ele><time>2026-04-25T09:20:49.157Z</time></trkpt><trkpt lat="38.0685645" lon="15.8503556"><ele>1298.0</ele><time>2026-04-25T09:20:51.159Z</time></trkpt><trkpt lat="38.0686215" lon="15.8502645"><ele>1298.0</ele><time>2026-04-25T09:20:53.152Z</time></trkpt><trkpt lat="38.0686907" lon="15.8502882"><ele>1298.0</ele><time>2026-04-25T09:20:57.148Z</time></trkpt><trkpt lat="38.0688006" lon="15.8503533"><ele>1298.0</ele><time>2026-04-25T09:20:59.164Z</time></trkpt><trkpt lat="38.0688622" lon="15.8503755"><ele>1298.0</ele><time>2026-04-25T09:21:00.152Z</time></trkpt><trkpt lat="38.0689324" lon="15.8503972"><ele>1298.0</ele><time>2026-04-25T09:21:01.158Z</time></trkpt><trkpt lat="38.069007" lon="15.8504027"><ele>1298.0</ele><time>2026-04-25T09:21:02.144Z</time></trkpt><trkpt lat="38.0690733" lon="15.8503776"><ele>1298.0</ele><time>2026-04-25T09:21:03.167Z</time></trkpt><trkpt lat="38.0691402" lon="15.8503268"><ele>1298.0</ele><time>2026-04-25T09:21:04.154Z</time></trkpt><trkpt lat="38.0692208" lon="15.8502639"><ele>1299.2</ele><time>2026-04-25T09:21:05.157Z</time></trkpt><trkpt lat="38.0693032" lon="15.8502025"><ele>1300.4</ele><time>2026-04-25T09:21:06.158Z</time></trkpt><trkpt lat="38.0693767" lon="15.8501583"><ele>1301.6000000000001</ele><time>2026-04-25T09:21:07.165Z</time></trkpt><trkpt lat="38.0694432" lon="15.8502056"><ele>1302.8000000000002</ele><time>2026-04-25T09:21:09.175Z</time></trkpt><trkpt lat="38.0694869" lon="15.8503312"><ele>1304.0</ele><time>2026-04-25T09:21:11.17Z</time></trkpt><trkpt lat="38.0695413" lon="15.85045"><ele>1304.0</ele><time>2026-04-25T09:21:13.159Z</time></trkpt><trkpt lat="38.0696538" lon="15.8505102"><ele>1304.0</ele><time>2026-04-25T09:21:15.162Z</time></trkpt><trkpt lat="38.0697176" lon="15.8505075"><ele>1304.0</ele><time>2026-04-25T09:21:16.154Z</time></trkpt><trkpt lat="38.0697886" lon="15.8504727"><ele>1304.0</ele><time>2026-04-25T09:21:17.171Z</time></trkpt><trkpt lat="38.0699005" lon="15.8503986"><ele>1304.0</ele><time>2026-04-25T09:21:19.169Z</time></trkpt><trkpt lat="38.0699984" lon="15.8503216"><ele>1303.6</ele><time>2026-04-25T09:21:21.163Z</time></trkpt><trkpt lat="38.0700958" lon="15.8502137"><ele>1303.2</ele><time>2026-04-25T09:21:23.069Z</time></trkpt><trkpt lat="38.0701704" lon="15.850118"><ele>1302.8</ele><time>2026-04-25T09:21:25.07Z</time></trkpt><trkpt lat="38.0702625" lon="15.8500944"><ele>1302.3999999999999</ele><time>2026-04-25T09:21:27.062Z</time></trkpt><trkpt lat="38.070369" lon="15.8501323"><ele>1302.0</ele><time>2026-04-25T09:21:29.07Z</time></trkpt><trkpt lat="38.0704188" lon="15.8502115"><ele>1302.0</ele><time>2026-04-25T09:21:30.077Z</time></trkpt><trkpt lat="38.0704794" lon="15.8503273"><ele>1302.0</ele><time>2026-04-25T09:21:32.077Z</time></trkpt><trkpt lat="38.0705708" lon="15.8504697"><ele>1302.0</ele><time>2026-04-25T09:21:34.074Z</time></trkpt><trkpt lat="38.0706084" lon="15.8505691"><ele>1302.0</ele><time>2026-04-25T09:21:35.071Z</time></trkpt><trkpt lat="38.0706504" lon="15.850677"><ele>1302.0</ele><time>2026-04-25T09:21:36.073Z</time></trkpt><trkpt lat="38.0707071" lon="15.8507981"><ele>1302.0</ele><time>2026-04-25T09:21:37.074Z</time></trkpt><trkpt lat="38.0707659" lon="15.85092"><ele>1302.0</ele><time>2026-04-25T09:21:38.085Z</time></trkpt><trkpt lat="38.0708182" lon="15.851038"><ele>1302.0</ele><time>2026-04-25T09:21:39.084Z</time></trkpt><trkpt lat="38.0708592" lon="15.8511553"><ele>1302.0</ele><time>2026-04-25T09:21:40.087Z</time></trkpt><trkpt lat="38.070897" lon="15.8512677"><ele>1302.0</ele><time>2026-04-25T09:21:41.088Z</time></trkpt><trkpt lat="38.0709272" lon="15.8513903"><ele>1302.0</ele><time>2026-04-25T09:21:42.095Z</time></trkpt><trkpt lat="38.0709613" lon="15.8515144"><ele>1302.0</ele><time>2026-04-25T09:21:43.087Z</time></trkpt><trkpt lat="38.0710066" lon="15.851634"><ele>1302.0</ele><time>2026-04-25T09:21:44.082Z</time></trkpt><trkpt lat="38.0710499" lon="15.8517418"><ele>1302.0</ele><time>2026-04-25T09:21:45.098Z</time></trkpt><trkpt lat="38.0710849" lon="15.8518428"><ele>1302.0</ele><time>2026-04-25T09:21:46.086Z</time></trkpt><trkpt lat="38.0711245" lon="15.8519621"><ele>1302.0</ele><time>2026-04-25T09:21:47.096Z</time></trkpt><trkpt lat="38.0711816" lon="15.8520843"><ele>1302.0</ele><time>2026-04-25T09:21:48.106Z</time></trkpt><trkpt lat="38.0712532" lon="15.8521821"><ele>1302.0</ele><time>2026-04-25T09:21:49.09Z</time></trkpt><trkpt lat="38.0713243" lon="15.8522731"><ele>1302.0</ele><time>2026-04-25T09:21:50.096Z</time></trkpt><trkpt lat="38.0713945" lon="15.8523335"><ele>1302.0</ele><time>2026-04-25T09:21:51.091Z</time></trkpt><trkpt lat="38.0714789" lon="15.8523684"><ele>1302.0</ele><time>2026-04-25T09:21:52.1Z</time></trkpt><trkpt lat="38.0715611" lon="15.8524049"><ele>1302.0</ele><time>2026-04-25T09:21:53.097Z</time></trkpt><trkpt lat="38.0716225" lon="15.8524392"><ele>1302.0</ele><time>2026-04-25T09:21:54.095Z</time></trkpt><trkpt lat="38.071673" lon="15.8525309"><ele>1302.0</ele><time>2026-04-25T09:21:56.092Z</time></trkpt><trkpt lat="38.0717124" lon="15.8526102"><ele>1302.0</ele><time>2026-04-25T09:21:57.101Z</time></trkpt><trkpt lat="38.071757" lon="15.8527088"><ele>1302.0</ele><time>2026-04-25T09:21:58.1Z</time></trkpt><trkpt lat="38.0718082" lon="15.852816"><ele>1300.6</ele><time>2026-04-25T09:21:59.088Z</time></trkpt><trkpt lat="38.0718727" lon="15.8529187"><ele>1299.1999999999998</ele><time>2026-04-25T09:22:00.097Z</time></trkpt><trkpt lat="38.07195" lon="15.8529993"><ele>1297.8</ele><time>2026-04-25T09:22:01.094Z</time></trkpt><trkpt lat="38.0720292" lon="15.8530572"><ele>1296.4</ele><time>2026-04-25T09:22:02.107Z</time></trkpt><trkpt lat="38.0721208" lon="15.8531177"><ele>1295.0</ele><time>2026-04-25T09:22:03.1Z</time></trkpt><trkpt lat="38.0722129" lon="15.8531738"><ele>1295.0</ele><time>2026-04-25T09:22:04.09Z</time></trkpt><trkpt lat="38.0723076" lon="15.8532028"><ele>1295.0</ele><time>2026-04-25T09:22:05.096Z</time></trkpt><trkpt lat="38.0724034" lon="15.8532445"><ele>1295.0</ele><time>2026-04-25T09:22:06.106Z</time></trkpt><trkpt lat="38.0724985" lon="15.8532888"><ele>1295.0</ele><time>2026-04-25T09:22:07.091Z</time></trkpt><trkpt lat="38.0725858" lon="15.8533492"><ele>1295.0</ele><time>2026-04-25T09:22:08.116Z</time></trkpt><trkpt lat="38.0726689" lon="15.8534141"><ele>1294.6666666666667</ele><time>2026-04-25T09:22:09.118Z</time></trkpt><trkpt lat="38.07276" lon="15.8534857"><ele>1294.3333333333335</ele><time>2026-04-25T09:22:10.088Z</time></trkpt><trkpt lat="38.0728475" lon="15.8535661"><ele>1294.0</ele><time>2026-04-25T09:22:11.117Z</time></trkpt><trkpt lat="38.0729104" lon="15.8536439"><ele>1293.6666666666667</ele><time>2026-04-25T09:22:12.118Z</time></trkpt><trkpt lat="38.0729462" lon="15.8537218"><ele>1293.3333333333333</ele><time>2026-04-25T09:22:13.1Z</time></trkpt><trkpt lat="38.0729634" lon="15.8538068"><ele>1293.0</ele><time>2026-04-25T09:22:14.11Z</time></trkpt><trkpt lat="38.0729651" lon="15.8539153"><ele>1293.0</ele><time>2026-04-25T09:22:15.099Z</time></trkpt><trkpt lat="38.0729475" lon="15.8540182"><ele>1293.0</ele><time>2026-04-25T09:22:16.104Z</time></trkpt><trkpt lat="38.0729193" lon="15.8541192"><ele>1293.0</ele><time>2026-04-25T09:22:17.119Z</time></trkpt><trkpt lat="38.07288" lon="15.8542161"><ele>1293.0</ele><time>2026-04-25T09:22:18.098Z</time></trkpt><trkpt lat="38.0728182" lon="15.8542962"><ele>1293.0</ele><time>2026-04-25T09:22:19.116Z</time></trkpt><trkpt lat="38.0727566" lon="15.8543876"><ele>1293.0</ele><time>2026-04-25T09:22:20.095Z</time></trkpt><trkpt lat="38.0726998" lon="15.8544863"><ele>1292.6666666666667</ele><time>2026-04-25T09:22:21.094Z</time></trkpt><trkpt lat="38.0726463" lon="15.8545684"><ele>1292.3333333333333</ele><time>2026-04-25T09:22:22.101Z</time></trkpt><trkpt lat="38.0725916" lon="15.8546252"><ele>1292.0</ele><time>2026-04-25T09:22:23.118Z</time></trkpt><trkpt lat="38.072531" lon="15.8546703"><ele>1291.6666666666665</ele><time>2026-04-25T09:22:24.098Z</time></trkpt><trkpt lat="38.0724477" lon="15.854711"><ele>1291.3333333333333</ele><time>2026-04-25T09:22:25.123Z</time></trkpt><trkpt lat="38.0723961" lon="15.8547712"><ele>1291.0</ele><time>2026-04-25T09:22:26.109Z</time></trkpt><trkpt lat="38.072386" lon="15.85488"><ele>1291.0</ele><time>2026-04-25T09:22:28.116Z</time></trkpt><trkpt lat="38.0724458" lon="15.8550189"><ele>1291.0</ele><time>2026-04-25T09:22:30.11Z</time></trkpt><trkpt lat="38.0724787" lon="15.8551049"><ele>1291.0</ele><time>2026-04-25T09:22:31.106Z</time></trkpt><trkpt lat="38.0725006" lon="15.8551997"><ele>1291.0</ele><time>2026-04-25T09:22:32.123Z</time></trkpt><trkpt lat="38.0725089" lon="15.8553049"><ele>1291.0</ele><time>2026-04-25T09:22:33.118Z</time></trkpt><trkpt lat="38.0725152" lon="15.8554219"><ele>1291.0</ele><time>2026-04-25T09:22:34.113Z</time></trkpt><trkpt lat="38.0725295" lon="15.8555333"><ele>1291.0</ele><time>2026-04-25T09:22:35.119Z</time></trkpt><trkpt lat="38.0725503" lon="15.8556291"><ele>1291.0</ele><time>2026-04-25T09:22:36.109Z</time></trkpt><trkpt lat="38.0725957" lon="15.8557378"><ele>1291.0</ele><time>2026-04-25T09:22:38.125Z</time></trkpt><trkpt lat="38.0726872" lon="15.855737"><ele>1291.0</ele><time>2026-04-25T09:22:41.133Z</time></trkpt><trkpt lat="38.0727977" lon="15.8557123"><ele>1291.0</ele><time>2026-04-25T09:22:43.138Z</time></trkpt><trkpt lat="38.0728716" lon="15.8557022"><ele>1291.0</ele><time>2026-04-25T09:22:44.116Z</time></trkpt><trkpt lat="38.0729384" lon="15.8556684"><ele>1291.0</ele><time>2026-04-25T09:22:45.118Z</time></trkpt><trkpt lat="38.0729957" lon="15.8556093"><ele>1291.0</ele><time>2026-04-25T09:22:46.11Z</time></trkpt><trkpt lat="38.0730517" lon="15.855548"><ele>1291.0</ele><time>2026-04-25T09:22:47.121Z</time></trkpt><trkpt lat="38.0731389" lon="15.8555038"><ele>1291.0</ele><time>2026-04-25T09:22:49.132Z</time></trkpt><trkpt lat="38.073165" lon="15.8555967"><ele>1291.0</ele><time>2026-04-25T09:22:52.116Z</time></trkpt><trkpt lat="38.0731417" lon="15.8556816"><ele>1291.0</ele><time>2026-04-25T09:22:53.128Z</time></trkpt><trkpt lat="38.0731166" lon="15.8557568"><ele>1291.0</ele><time>2026-04-25T09:22:54.127Z</time></trkpt><trkpt lat="38.0730935" lon="15.8558424"><ele>1291.0</ele><time>2026-04-25T09:22:55.117Z</time></trkpt><trkpt lat="38.0730968" lon="15.8559441"><ele>1291.0</ele><time>2026-04-25T09:22:56.137Z</time></trkpt><trkpt lat="38.0730978" lon="15.8560364"><ele>1291.0</ele><time>2026-04-25T09:22:57.12Z</time></trkpt><trkpt lat="38.0731243" lon="15.8561543"><ele>1289.3333333333333</ele><time>2026-04-25T09:22:59.126Z</time></trkpt><trkpt lat="38.0731856" lon="15.8561728"><ele>1287.6666666666665</ele><time>2026-04-25T09:23:01.127Z</time></trkpt><trkpt lat="38.0732479" lon="15.8561139"><ele>1286.0</ele><time>2026-04-25T09:23:03.131Z</time></trkpt><trkpt lat="38.0733072" lon="15.8560095"><ele>1284.3333333333333</ele><time>2026-04-25T09:23:05.121Z</time></trkpt><trkpt lat="38.0733404" lon="15.8559306"><ele>1282.6666666666667</ele><time>2026-04-25T09:23:06.143Z</time></trkpt><trkpt lat="38.0733745" lon="15.8558471"><ele>1281.0</ele><time>2026-04-25T09:23:07.136Z</time></trkpt><trkpt lat="38.0734545" lon="15.8557887"><ele>1285.1666666666667</ele><time>2026-04-25T09:23:09.112Z</time></trkpt><trkpt lat="38.0735107" lon="15.8559088"><ele>1289.3333333333333</ele><time>2026-04-25T09:23:12.131Z</time></trkpt><trkpt lat="38.0735262" lon="15.856003"><ele>1293.5</ele><time>2026-04-25T09:23:13.119Z</time></trkpt><trkpt lat="38.0735437" lon="15.8561061"><ele>1297.6666666666665</ele><time>2026-04-25T09:23:14.122Z</time></trkpt><trkpt lat="38.0735559" lon="15.8562232"><ele>1301.8333333333333</ele><time>2026-04-25T09:23:15.138Z</time></trkpt><trkpt lat="38.073574" lon="15.8563191"><ele>1306.0</ele><time>2026-04-25T09:23:16.133Z</time></trkpt><trkpt lat="38.0736375" lon="15.8564512"><ele>1306.0000000000002</ele><time>2026-04-25T09:23:18.144Z</time></trkpt><trkpt lat="38.073693" lon="15.8565109"><ele>1306.0</ele><time>2026-04-25T09:23:19.137Z</time></trkpt><trkpt lat="38.0737545" lon="15.8565653"><ele>1306.0</ele><time>2026-04-25T09:23:20.147Z</time></trkpt><trkpt lat="38.0738258" lon="15.8566167"><ele>1306.0</ele><time>2026-04-25T09:23:21.158Z</time></trkpt><trkpt lat="38.0738957" lon="15.8566426"><ele>1306.0</ele><time>2026-04-25T09:23:22.129Z</time></trkpt><trkpt lat="38.073957" lon="15.8566202"><ele>1306.0000000000002</ele><time>2026-04-25T09:23:23.141Z</time></trkpt><trkpt lat="38.0740167" lon="15.8565751"><ele>1306.0</ele><time>2026-04-25T09:23:24.132Z</time></trkpt><trkpt lat="38.074086" lon="15.8565201"><ele>1309.6666666666665</ele><time>2026-04-25T09:23:25.149Z</time></trkpt><trkpt lat="38.0741609" lon="15.8564714"><ele>1313.3333333333333</ele><time>2026-04-25T09:23:26.142Z</time></trkpt><trkpt lat="38.0742425" lon="15.8564579"><ele>1317.0</ele><time>2026-04-25T09:23:27.135Z</time></trkpt><trkpt lat="38.0743281" lon="15.8564673"><ele>1320.6666666666667</ele><time>2026-04-25T09:23:28.127Z</time></trkpt><trkpt lat="38.0744166" lon="15.856496"><ele>1324.3333333333335</ele><time>2026-04-25T09:23:29.136Z</time></trkpt><trkpt lat="38.074499" lon="15.8565382"><ele>1328.0</ele><time>2026-04-25T09:23:30.121Z</time></trkpt><trkpt lat="38.0745675" lon="15.8565963"><ele>1328.0</ele><time>2026-04-25T09:23:31.142Z</time></trkpt><trkpt lat="38.0746263" lon="15.8566532"><ele>1328.0</ele><time>2026-04-25T09:23:32.122Z</time></trkpt><trkpt lat="38.0746844" lon="15.8566905"><ele>1328.0</ele><time>2026-04-25T09:23:33.131Z</time></trkpt><trkpt lat="38.0747483" lon="15.8567125"><ele>1328.0</ele><time>2026-04-25T09:23:34.126Z</time></trkpt><trkpt lat="38.0748268" lon="15.856734"><ele>1328.0</ele><time>2026-04-25T09:23:35.146Z</time></trkpt><trkpt lat="38.0749253" lon="15.8567522"><ele>1328.0</ele><time>2026-04-25T09:23:36.124Z</time></trkpt><trkpt lat="38.0750265" lon="15.8567604"><ele>1329.0</ele><time>2026-04-25T09:23:37.134Z</time></trkpt><trkpt lat="38.0751232" lon="15.8567468"><ele>1330.0</ele><time>2026-04-25T09:23:38.118Z</time></trkpt><trkpt lat="38.0752207" lon="15.8567309"><ele>1331.0</ele><time>2026-04-25T09:23:39.141Z</time></trkpt><trkpt lat="38.0753285" lon="15.8567079"><ele>1332.0</ele><time>2026-04-25T09:23:40.143Z</time></trkpt><trkpt lat="38.0754383" lon="15.8566859"><ele>1333.0</ele><time>2026-04-25T09:23:41.143Z</time></trkpt><trkpt lat="38.0755435" lon="15.8566817"><ele>1333.0</ele><time>2026-04-25T09:23:42.122Z</time></trkpt><trkpt lat="38.0756476" lon="15.8566828"><ele>1333.0</ele><time>2026-04-25T09:23:43.133Z</time></trkpt><trkpt lat="38.0757467" lon="15.8566703"><ele>1333.0</ele><time>2026-04-25T09:23:44.127Z</time></trkpt><trkpt lat="38.0758432" lon="15.8566458"><ele>1333.0</ele><time>2026-04-25T09:23:45.123Z</time></trkpt><trkpt lat="38.0759368" lon="15.8565957"><ele>1333.0</ele><time>2026-04-25T09:23:46.124Z</time></trkpt><trkpt lat="38.0760322" lon="15.8565147"><ele>1331.5</ele><time>2026-04-25T09:23:47.124Z</time></trkpt><trkpt lat="38.076119" lon="15.8564334"><ele>1330.0</ele><time>2026-04-25T09:23:48.136Z</time></trkpt><trkpt lat="38.0761907" lon="15.8563751"><ele>1328.5</ele><time>2026-04-25T09:23:49.143Z</time></trkpt><trkpt lat="38.0762528" lon="15.8563426"><ele>1327.0</ele><time>2026-04-25T09:23:50.139Z</time></trkpt><trkpt lat="38.0763257" lon="15.8563372"><ele>1325.5</ele><time>2026-04-25T09:23:51.152Z</time></trkpt><trkpt lat="38.0764332" lon="15.8563441"><ele>1324.0</ele><time>2026-04-25T09:23:52.136Z</time></trkpt><trkpt lat="38.076546" lon="15.8563503"><ele>1324.0</ele><time>2026-04-25T09:23:53.141Z</time></trkpt><trkpt lat="38.0766494" lon="15.8563461"><ele>1324.0</ele><time>2026-04-25T09:23:54.131Z</time></trkpt><trkpt lat="38.0767377" lon="15.8563509"><ele>1324.0</ele><time>2026-04-25T09:23:55.131Z</time></trkpt><trkpt lat="38.0768127" lon="15.8563578"><ele>1324.0</ele><time>2026-04-25T09:23:56.13Z</time></trkpt><trkpt lat="38.0768997" lon="15.8564201"><ele>1324.0</ele><time>2026-04-25T09:23:58.126Z</time></trkpt><trkpt lat="38.0769136" lon="15.85651"><ele>1324.0</ele><time>2026-04-25T09:24:00.125Z</time></trkpt><trkpt lat="38.0769337" lon="15.8566363"><ele>1324.0</ele><time>2026-04-25T09:24:02.142Z</time></trkpt><trkpt lat="38.0770198" lon="15.8567638"><ele>1324.0</ele><time>2026-04-25T09:24:04.134Z</time></trkpt><trkpt lat="38.0770888" lon="15.8568188"><ele>1324.0</ele><time>2026-04-25T09:24:05.134Z</time></trkpt><trkpt lat="38.0771552" lon="15.8568754"><ele>1324.0</ele><time>2026-04-25T09:24:06.133Z</time></trkpt><trkpt lat="38.0772039" lon="15.8569366"><ele>1324.0</ele><time>2026-04-25T09:24:07.133Z</time></trkpt><trkpt lat="38.077237" lon="15.8570399"><ele>1325.8000000000002</ele><time>2026-04-25T09:24:09.135Z</time></trkpt><trkpt lat="38.0771641" lon="15.8571018"><ele>1327.6000000000001</ele><time>2026-04-25T09:24:11.149Z</time></trkpt><trkpt lat="38.0770672" lon="15.8571155"><ele>1329.4</ele><time>2026-04-25T09:24:13.13Z</time></trkpt><trkpt lat="38.0769454" lon="15.8571077"><ele>1331.2</ele><time>2026-04-25T09:24:15.131Z</time></trkpt><trkpt lat="38.0768627" lon="15.8571208"><ele>1333.0</ele><time>2026-04-25T09:24:16.133Z</time></trkpt><trkpt lat="38.0767711" lon="15.8571308"><ele>1333.0</ele><time>2026-04-25T09:24:17.149Z</time></trkpt><trkpt lat="38.0766689" lon="15.8571463"><ele>1333.0</ele><time>2026-04-25T09:24:18.15Z</time></trkpt><trkpt lat="38.0765852" lon="15.857153"><ele>1333.0</ele><time>2026-04-25T09:24:19.137Z</time></trkpt><trkpt lat="38.0764701" lon="15.857193"><ele>1333.0</ele><time>2026-04-25T09:24:21.143Z</time></trkpt><trkpt lat="38.0763769" lon="15.857308"><ele>1333.0</ele><time>2026-04-25T09:24:23.142Z</time></trkpt><trkpt lat="38.0763344" lon="15.8573862"><ele>1330.2</ele><time>2026-04-25T09:24:24.152Z</time></trkpt><trkpt lat="38.0762864" lon="15.8574605"><ele>1327.4</ele><time>2026-04-25T09:24:25.14Z</time></trkpt><trkpt lat="38.0762326" lon="15.8575324"><ele>1324.6000000000001</ele><time>2026-04-25T09:24:26.141Z</time></trkpt><trkpt lat="38.0761835" lon="15.8576078"><ele>1321.8000000000002</ele><time>2026-04-25T09:24:27.157Z</time></trkpt><trkpt lat="38.0761415" lon="15.8577721"><ele>1319.0</ele><time>2026-04-25T09:24:29.159Z</time></trkpt><trkpt lat="38.076132" lon="15.8579086"><ele>1319.0</ele><time>2026-04-25T09:24:30.16Z</time></trkpt><trkpt lat="38.0761072" lon="15.8580481"><ele>1319.0</ele><time>2026-04-25T09:24:31.157Z</time></trkpt><trkpt lat="38.076097" lon="15.8581689"><ele>1319.0</ele><time>2026-04-25T09:24:32.16Z</time></trkpt><trkpt lat="38.0760739" lon="15.858268"><ele>1319.0</ele><time>2026-04-25T09:24:33.159Z</time></trkpt><trkpt lat="38.0760459" lon="15.858372"><ele>1319.0</ele><time>2026-04-25T09:24:34.16Z</time></trkpt><trkpt lat="38.0760307" lon="15.8584654"><ele>1321.4</ele><time>2026-04-25T09:24:35.147Z</time></trkpt><trkpt lat="38.0760069" lon="15.8585756"><ele>1323.8000000000002</ele><time>2026-04-25T09:24:36.16Z</time></trkpt><trkpt lat="38.0759871" lon="15.8586968"><ele>1326.1999999999998</ele><time>2026-04-25T09:24:37.152Z</time></trkpt><trkpt lat="38.0759701" lon="15.8588332"><ele>1328.6</ele><time>2026-04-25T09:24:38.157Z</time></trkpt><trkpt lat="38.0759535" lon="15.8589638"><ele>1331.0</ele><time>2026-04-25T09:24:39.15Z</time></trkpt><trkpt lat="38.0759353" lon="15.8591044"><ele>1331.0</ele><time>2026-04-25T09:24:40.164Z</time></trkpt><trkpt lat="38.075912" lon="15.8592529"><ele>1331.0</ele><time>2026-04-25T09:24:41.16Z</time></trkpt><trkpt lat="38.0758947" lon="15.8593976"><ele>1331.0</ele><time>2026-04-25T09:24:42.162Z</time></trkpt><trkpt lat="38.0758755" lon="15.8595322"><ele>1331.0</ele><time>2026-04-25T09:24:43.153Z</time></trkpt><trkpt lat="38.0758618" lon="15.859658"><ele>1331.0</ele><time>2026-04-25T09:24:44.15Z</time></trkpt><trkpt lat="38.0758608" lon="15.8597743"><ele>1333.6</ele><time>2026-04-25T09:24:45.154Z</time></trkpt><trkpt lat="38.0758731" lon="15.8598861"><ele>1336.1999999999998</ele><time>2026-04-25T09:24:46.153Z</time></trkpt><trkpt lat="38.075899" lon="15.860008"><ele>1338.8000000000002</ele><time>2026-04-25T09:24:47.168Z</time></trkpt><trkpt lat="38.0759348" lon="15.8601255"><ele>1341.4</ele><time>2026-04-25T09:24:48.163Z</time></trkpt><trkpt lat="38.0759579" lon="15.8602197"><ele>1344.0</ele><time>2026-04-25T09:24:49.151Z</time></trkpt><trkpt lat="38.0759366" lon="15.8603311"><ele>1344.6</ele><time>2026-04-25T09:24:51.162Z</time></trkpt><trkpt lat="38.0758494" lon="15.8603598"><ele>1345.2</ele><time>2026-04-25T09:24:53.168Z</time></trkpt><trkpt lat="38.0757146" lon="15.8603186"><ele>1345.8</ele><time>2026-04-25T09:24:55.145Z</time></trkpt><trkpt lat="38.07563" lon="15.8602965"><ele>1346.3999999999999</ele><time>2026-04-25T09:24:56.173Z</time></trkpt><trkpt lat="38.075548" lon="15.8602701"><ele>1347.0</ele><time>2026-04-25T09:24:57.16Z</time></trkpt><trkpt lat="38.0754688" lon="15.8602307"><ele>1347.0</ele><time>2026-04-25T09:24:58.156Z</time></trkpt><trkpt lat="38.075399" lon="15.8601768"><ele>1347.0</ele><time>2026-04-25T09:24:59.157Z</time></trkpt><trkpt lat="38.0753421" lon="15.8601256"><ele>1347.0</ele><time>2026-04-25T09:25:00.16Z</time></trkpt><trkpt lat="38.0752443" lon="15.8600817"><ele>1347.0</ele><time>2026-04-25T09:25:02.168Z</time></trkpt><trkpt lat="38.0751516" lon="15.8601252"><ele>1347.0</ele><time>2026-04-25T09:25:04.153Z</time></trkpt><trkpt lat="38.0751044" lon="15.8601802"><ele>1347.0</ele><time>2026-04-25T09:25:05.159Z</time></trkpt><trkpt lat="38.0750555" lon="15.8602601"><ele>1347.0</ele><time>2026-04-25T09:25:06.157Z</time></trkpt><trkpt lat="38.0750076" lon="15.860352"><ele>1347.0</ele><time>2026-04-25T09:25:07.164Z</time></trkpt><trkpt lat="38.0749655" lon="15.8604408"><ele>1347.0</ele><time>2026-04-25T09:25:08.154Z</time></trkpt><trkpt lat="38.0749324" lon="15.8605202"><ele>1347.0</ele><time>2026-04-25T09:25:09.164Z</time></trkpt><trkpt lat="38.0749144" lon="15.8606095"><ele>1347.0</ele><time>2026-04-25T09:25:10.153Z</time></trkpt><trkpt lat="38.0749182" lon="15.8607081"><ele>1347.0</ele><time>2026-04-25T09:25:11.15Z</time></trkpt><trkpt lat="38.0749377" lon="15.860802"><ele>1347.0</ele><time>2026-04-25T09:25:12.156Z</time></trkpt><trkpt lat="38.0749701" lon="15.8609043"><ele>1347.0</ele><time>2026-04-25T09:25:13.159Z</time></trkpt><trkpt lat="38.0749988" lon="15.8610149"><ele>1347.0</ele><time>2026-04-25T09:25:14.153Z</time></trkpt><trkpt lat="38.0750113" lon="15.861124"><ele>1347.0</ele><time>2026-04-25T09:25:15.146Z</time></trkpt><trkpt lat="38.0750054" lon="15.8612319"><ele>1347.0</ele><time>2026-04-25T09:25:16.157Z</time></trkpt><trkpt lat="38.0749827" lon="15.8613462"><ele>1347.0</ele><time>2026-04-25T09:25:17.168Z</time></trkpt><trkpt lat="38.0749532" lon="15.8614758"><ele>1347.0</ele><time>2026-04-25T09:25:18.148Z</time></trkpt><trkpt lat="38.0749208" lon="15.8615887"><ele>1347.0</ele><time>2026-04-25T09:25:19.161Z</time></trkpt><trkpt lat="38.0748874" lon="15.861693"><ele>1347.0</ele><time>2026-04-25T09:25:20.164Z</time></trkpt><trkpt lat="38.0748517" lon="15.8617745"><ele>1347.0</ele><time>2026-04-25T09:25:21.156Z</time></trkpt><trkpt lat="38.0747625" lon="15.8618515"><ele>1347.0</ele><time>2026-04-25T09:25:23.153Z</time></trkpt><trkpt lat="38.0746798" lon="15.8618271"><ele>1347.0</ele><time>2026-04-25T09:25:25.16Z</time></trkpt><trkpt lat="38.0746102" lon="15.8617425"><ele>1347.0</ele><time>2026-04-25T09:25:27.152Z</time></trkpt><trkpt lat="38.0745277" lon="15.8616464"><ele>1347.0</ele><time>2026-04-25T09:25:29.149Z</time></trkpt><trkpt lat="38.0744599" lon="15.861633"><ele>1347.0</ele><time>2026-04-25T09:25:30.153Z</time></trkpt><trkpt lat="38.0743836" lon="15.8616253"><ele>1347.0</ele><time>2026-04-25T09:25:31.146Z</time></trkpt><trkpt lat="38.0742991" lon="15.8616139"><ele>1347.0</ele><time>2026-04-25T09:25:32.166Z</time></trkpt><trkpt lat="38.0742156" lon="15.8615942"><ele>1347.0</ele><time>2026-04-25T09:25:33.169Z</time></trkpt><trkpt lat="38.0741413" lon="15.861589"><ele>1347.6666666666667</ele><time>2026-04-25T09:25:34.17Z</time></trkpt><trkpt lat="38.0740756" lon="15.8616215"><ele>1348.3333333333333</ele><time>2026-04-25T09:25:35.166Z</time></trkpt><trkpt lat="38.074017" lon="15.861677"><ele>1349.0</ele><time>2026-04-25T09:25:36.162Z</time></trkpt><trkpt lat="38.073968" lon="15.8617522"><ele>1349.6666666666665</ele><time>2026-04-25T09:25:37.16Z</time></trkpt><trkpt lat="38.0739258" lon="15.8618342"><ele>1350.3333333333333</ele><time>2026-04-25T09:25:38.168Z</time></trkpt><trkpt lat="38.0739032" lon="15.8619507"><ele>1351.0</ele><time>2026-04-25T09:25:39.159Z</time></trkpt><trkpt lat="38.0738838" lon="15.8620774"><ele>1351.0</ele><time>2026-04-25T09:25:40.152Z</time></trkpt><trkpt lat="38.0738642" lon="15.8621979"><ele>1351.0</ele><time>2026-04-25T09:25:41.167Z</time></trkpt><trkpt lat="38.0738337" lon="15.8622893"><ele>1351.0</ele><time>2026-04-25T09:25:42.171Z</time></trkpt><trkpt lat="38.0737883" lon="15.8623571"><ele>1351.0</ele><time>2026-04-25T09:25:43.159Z</time></trkpt><trkpt lat="38.0737338" lon="15.8624016"><ele>1351.0</ele><time>2026-04-25T09:25:44.155Z</time></trkpt><trkpt lat="38.0736721" lon="15.8624316"><ele>1351.0</ele><time>2026-04-25T09:25:45.166Z</time></trkpt><trkpt lat="38.0736022" lon="15.8624451"><ele>1351.0</ele><time>2026-04-25T09:25:46.155Z</time></trkpt><trkpt lat="38.0735089" lon="15.862469"><ele>1351.0</ele><time>2026-04-25T09:25:48.168Z</time></trkpt><trkpt lat="38.0735048" lon="15.8625937"><ele>1351.0</ele><time>2026-04-25T09:25:59.16Z</time></trkpt><trkpt lat="38.0735002" lon="15.862744"><ele>1351.0</ele><time>2026-04-25T09:26:01.149Z</time></trkpt><trkpt lat="38.073461" lon="15.8628253"><ele>1351.0</ele><time>2026-04-25T09:26:02.164Z</time></trkpt><trkpt lat="38.0734429" lon="15.862906"><ele>1351.0</ele><time>2026-04-25T09:26:03.149Z</time></trkpt><trkpt lat="38.0735179" lon="15.8630284"><ele>1351.6</ele><time>2026-04-25T09:26:05.164Z</time></trkpt><trkpt lat="38.0735977" lon="15.8630455"><ele>1352.1999999999998</ele><time>2026-04-25T09:26:06.156Z</time></trkpt><trkpt lat="38.0736838" lon="15.8630164"><ele>1352.8000000000002</ele><time>2026-04-25T09:26:07.147Z</time></trkpt><trkpt lat="38.0737641" lon="15.8629564"><ele>1353.4</ele><time>2026-04-25T09:26:08.142Z</time></trkpt><trkpt lat="38.0738488" lon="15.8628739"><ele>1354.0</ele><time>2026-04-25T09:26:09.147Z</time></trkpt><trkpt lat="38.0739446" lon="15.8627834"><ele>1354.0</ele><time>2026-04-25T09:26:10.149Z</time></trkpt><trkpt lat="38.0740404" lon="15.8627064"><ele>1354.0</ele><time>2026-04-25T09:26:11.161Z</time></trkpt><trkpt lat="38.0741344" lon="15.8626487"><ele>1354.0</ele><time>2026-04-25T09:26:12.158Z</time></trkpt><trkpt lat="38.0741996" lon="15.8626322"><ele>1354.0</ele><time>2026-04-25T09:26:13.148Z</time></trkpt><trkpt lat="38.0742463" lon="15.8626906"><ele>1354.0</ele><time>2026-04-25T09:26:15.159Z</time></trkpt><trkpt lat="38.0741999" lon="15.862778"><ele>1354.0</ele><time>2026-04-25T09:26:17.16Z</time></trkpt><trkpt lat="38.0741566" lon="15.8628782"><ele>1357.0</ele><time>2026-04-25T09:26:19.149Z</time></trkpt><trkpt lat="38.0742315" lon="15.8629241"><ele>1360.0</ele><time>2026-04-25T09:26:21.158Z</time></trkpt><trkpt lat="38.0743015" lon="15.8629051"><ele>1363.0</ele><time>2026-04-25T09:26:22.157Z</time></trkpt><trkpt lat="38.0743847" lon="15.8628514"><ele>1366.0</ele><time>2026-04-25T09:26:23.153Z</time></trkpt><trkpt lat="38.0744859" lon="15.8627893"><ele>1369.0</ele><time>2026-04-25T09:26:24.152Z</time></trkpt><trkpt lat="38.0746156" lon="15.8627439"><ele>1369.0</ele><time>2026-04-25T09:26:25.147Z</time></trkpt><trkpt lat="38.0747511" lon="15.8627181"><ele>1369.0</ele><time>2026-04-25T09:26:26.154Z</time></trkpt><trkpt lat="38.0748775" lon="15.8627213"><ele>1369.0</ele><time>2026-04-25T09:26:27.15Z</time></trkpt><trkpt lat="38.0749963" lon="15.8627353"><ele>1369.0</ele><time>2026-04-25T09:26:28.154Z</time></trkpt><trkpt lat="38.0751014" lon="15.8627468"><ele>1369.0</ele><time>2026-04-25T09:26:29.151Z</time></trkpt><trkpt lat="38.0751993" lon="15.8627347"><ele>1369.0</ele><time>2026-04-25T09:26:30.161Z</time></trkpt><trkpt lat="38.0752745" lon="15.8626778"><ele>1369.0</ele><time>2026-04-25T09:26:31.158Z</time></trkpt><trkpt lat="38.0753277" lon="15.8626047"><ele>1369.0</ele><time>2026-04-25T09:26:32.151Z</time></trkpt><trkpt lat="38.0753658" lon="15.8625099"><ele>1369.0</ele><time>2026-04-25T09:26:33.144Z</time></trkpt><trkpt lat="38.0753991" lon="15.862385"><ele>1369.0</ele><time>2026-04-25T09:26:34.148Z</time></trkpt><trkpt lat="38.0754431" lon="15.8622685"><ele>1369.0</ele><time>2026-04-25T09:26:35.154Z</time></trkpt><trkpt lat="38.0755222" lon="15.8621805"><ele>1369.0</ele><time>2026-04-25T09:26:36.143Z</time></trkpt><trkpt lat="38.0756255" lon="15.8621172"><ele>1369.0</ele><time>2026-04-25T09:26:37.142Z</time></trkpt><trkpt lat="38.0757316" lon="15.8620887"><ele>1369.0</ele><time>2026-04-25T09:26:38.15Z</time></trkpt><trkpt lat="38.0758507" lon="15.862105"><ele>1373.25</ele><time>2026-04-25T09:26:39.16Z</time></trkpt><trkpt lat="38.0759691" lon="15.8621436"><ele>1377.5</ele><time>2026-04-25T09:26:40.138Z</time></trkpt><trkpt lat="38.0760942" lon="15.8621985"><ele>1381.75</ele><time>2026-04-25T09:26:41.146Z</time></trkpt><trkpt lat="38.0762201" lon="15.8622511"><ele>1386.0</ele><time>2026-04-25T09:26:42.157Z</time></trkpt><trkpt lat="38.0763381" lon="15.8622971"><ele>1386.0</ele><time>2026-04-25T09:26:43.163Z</time></trkpt><trkpt lat="38.0764447" lon="15.8623432"><ele>1386.0</ele><time>2026-04-25T09:26:44.172Z</time></trkpt><trkpt lat="38.0765459" lon="15.8623915"><ele>1386.0</ele><time>2026-04-25T09:26:45.147Z</time></trkpt><trkpt lat="38.0766268" lon="15.8624571"><ele>1386.0</ele><time>2026-04-25T09:26:46.14Z</time></trkpt><trkpt lat="38.0766968" lon="15.8625309"><ele>1386.0</ele><time>2026-04-25T09:26:47.151Z</time></trkpt><trkpt lat="38.0767549" lon="15.8626036"><ele>1387.4</ele><time>2026-04-25T09:26:48.142Z</time></trkpt><trkpt lat="38.0768571" lon="15.8626379"><ele>1388.8</ele><time>2026-04-25T09:26:50.139Z</time></trkpt><trkpt lat="38.0769229" lon="15.8626093"><ele>1390.2</ele><time>2026-04-25T09:26:51.14Z</time></trkpt><trkpt lat="38.0769924" lon="15.8625481"><ele>1391.6000000000001</ele><time>2026-04-25T09:26:52.16Z</time></trkpt><trkpt lat="38.0770709" lon="15.8624771"><ele>1393.0</ele><time>2026-04-25T09:26:53.143Z</time></trkpt><trkpt lat="38.0771545" lon="15.8624156"><ele>1393.0</ele><time>2026-04-25T09:26:54.147Z</time></trkpt><trkpt lat="38.0772417" lon="15.8623858"><ele>1393.0</ele><time>2026-04-25T09:26:55.136Z</time></trkpt><trkpt lat="38.0773228" lon="15.8623876"><ele>1393.0</ele><time>2026-04-25T09:26:56.148Z</time></trkpt><trkpt lat="38.0773869" lon="15.8623762"><ele>1393.0</ele><time>2026-04-25T09:26:57.146Z</time></trkpt><trkpt lat="38.0774606" lon="15.8622851"><ele>1393.0</ele><time>2026-04-25T09:26:59.16Z</time></trkpt><trkpt lat="38.0774746" lon="15.862205"><ele>1393.0</ele><time>2026-04-25T09:27:00.14Z</time></trkpt><trkpt lat="38.0774747" lon="15.8620977"><ele>1395.6000000000001</ele><time>2026-04-25T09:27:01.13Z</time></trkpt><trkpt lat="38.0774895" lon="15.8619709"><ele>1398.2</ele><time>2026-04-25T09:27:02.136Z</time></trkpt><trkpt lat="38.077527" lon="15.8618522"><ele>1400.8</ele><time>2026-04-25T09:27:03.145Z</time></trkpt><trkpt lat="38.0775832" lon="15.8617504"><ele>1403.4</ele><time>2026-04-25T09:27:04.14Z</time></trkpt><trkpt lat="38.07766" lon="15.8616488"><ele>1406.0</ele><time>2026-04-25T09:27:05.145Z</time></trkpt><trkpt lat="38.0777558" lon="15.8615401"><ele>1406.0</ele><time>2026-04-25T09:27:06.136Z</time></trkpt><trkpt lat="38.0778547" lon="15.8614436"><ele>1406.0</ele><time>2026-04-25T09:27:07.134Z</time></trkpt><trkpt lat="38.0779569" lon="15.8613477"><ele>1406.0</ele><time>2026-04-25T09:27:08.142Z</time></trkpt><trkpt lat="38.0780608" lon="15.861267"><ele>1406.0</ele><time>2026-04-25T09:27:09.142Z</time></trkpt><trkpt lat="38.078162" lon="15.8612024"><ele>1406.0</ele><time>2026-04-25T09:27:10.134Z</time></trkpt><trkpt lat="38.0782475" lon="15.8611926"><ele>1406.0</ele><time>2026-04-25T09:27:11.154Z</time></trkpt><trkpt lat="38.0783348" lon="15.8612004"><ele>1406.0</ele><time>2026-04-25T09:27:12.136Z</time></trkpt><trkpt lat="38.0784374" lon="15.8612161"><ele>1406.0</ele><time>2026-04-25T09:27:13.131Z</time></trkpt><trkpt lat="38.0785575" lon="15.8612322"><ele>1406.0</ele><time>2026-04-25T09:27:14.158Z</time></trkpt><trkpt lat="38.0786984" lon="15.8612532"><ele>1408.25</ele><time>2026-04-25T09:27:15.155Z</time></trkpt><trkpt lat="38.0788424" lon="15.8612684"><ele>1410.5</ele><time>2026-04-25T09:27:16.15Z</time></trkpt><trkpt lat="38.0789859" lon="15.8613072"><ele>1412.75</ele><time>2026-04-25T09:27:17.141Z</time></trkpt><trkpt lat="38.0790969" lon="15.8613397"><ele>1415.0</ele><time>2026-04-25T09:27:18.139Z</time></trkpt><trkpt lat="38.0791903" lon="15.8613586"><ele>1415.0</ele><time>2026-04-25T09:27:19.14Z</time></trkpt><trkpt lat="38.0792927" lon="15.8613339"><ele>1415.0</ele><time>2026-04-25T09:27:20.149Z</time></trkpt><trkpt lat="38.079409" lon="15.8612757"><ele>1415.0</ele><time>2026-04-25T09:27:21.138Z</time></trkpt><trkpt lat="38.0795178" lon="15.8612009"><ele>1415.0</ele><time>2026-04-25T09:27:22.147Z</time></trkpt><trkpt lat="38.0796177" lon="15.8611513"><ele>1415.0</ele><time>2026-04-25T09:27:23.146Z</time></trkpt><trkpt lat="38.0796978" lon="15.8611509"><ele>1415.0</ele><time>2026-04-25T09:27:24.146Z</time></trkpt><trkpt lat="38.0797717" lon="15.8611782"><ele>1415.0</ele><time>2026-04-25T09:27:25.128Z</time></trkpt><trkpt lat="38.0798553" lon="15.8611992"><ele>1415.0</ele><time>2026-04-25T09:27:26.14Z</time></trkpt><trkpt lat="38.0799446" lon="15.8612026"><ele>1415.0</ele><time>2026-04-25T09:27:27.132Z</time></trkpt><trkpt lat="38.0800302" lon="15.8611708"><ele>1415.0</ele><time>2026-04-25T09:27:28.147Z</time></trkpt><trkpt lat="38.0801068" lon="15.8611138"><ele>1415.0</ele><time>2026-04-25T09:27:29.142Z</time></trkpt><trkpt lat="38.080185" lon="15.8610637"><ele>1415.0</ele><time>2026-04-25T09:27:30.16Z</time></trkpt><trkpt lat="38.0802642" lon="15.8610337"><ele>1415.0</ele><time>2026-04-25T09:27:31.134Z</time></trkpt><trkpt lat="38.0803467" lon="15.861049"><ele>1415.0</ele><time>2026-04-25T09:27:32.154Z</time></trkpt><trkpt lat="38.0804439" lon="15.8611085"><ele>1415.0</ele><time>2026-04-25T09:27:33.138Z</time></trkpt><trkpt lat="38.0805461" lon="15.8611779"><ele>1415.0</ele><time>2026-04-25T09:27:34.131Z</time></trkpt><trkpt lat="38.0806502" lon="15.8612324"><ele>1415.0</ele><time>2026-04-25T09:27:35.146Z</time></trkpt><trkpt lat="38.0807722" lon="15.8612316"><ele>1415.0</ele><time>2026-04-25T09:27:36.138Z</time></trkpt><trkpt lat="38.0808908" lon="15.8612143"><ele>1415.0</ele><time>2026-04-25T09:27:37.15Z</time></trkpt><trkpt lat="38.0810161" lon="15.861194"><ele>1411.75</ele><time>2026-04-25T09:27:38.137Z</time></trkpt><trkpt lat="38.0811335" lon="15.8611704"><ele>1408.5</ele><time>2026-04-25T09:27:39.154Z</time></trkpt><trkpt lat="38.0812506" lon="15.861134"><ele>1405.25</ele><time>2026-04-25T09:27:40.14Z</time></trkpt><trkpt lat="38.0813667" lon="15.8610822"><ele>1402.0</ele><time>2026-04-25T09:27:41.138Z</time></trkpt><trkpt lat="38.0814708" lon="15.861018"><ele>1402.0</ele><time>2026-04-25T09:27:42.138Z</time></trkpt><trkpt lat="38.0815674" lon="15.8609431"><ele>1402.0</ele><time>2026-04-25T09:27:43.144Z</time></trkpt><trkpt lat="38.0816608" lon="15.8608563"><ele>1402.0</ele><time>2026-04-25T09:27:44.126Z</time></trkpt><trkpt lat="38.0817572" lon="15.8607641"><ele>1402.0</ele><time>2026-04-25T09:27:45.126Z</time></trkpt><trkpt lat="38.0818631" lon="15.8606812"><ele>1402.0</ele><time>2026-04-25T09:27:46.149Z</time></trkpt><trkpt lat="38.0819909" lon="15.8606171"><ele>1402.0</ele><time>2026-04-25T09:27:47.148Z</time></trkpt><trkpt lat="38.0821274" lon="15.8605427"><ele>1402.0</ele><time>2026-04-25T09:27:48.148Z</time></trkpt><trkpt lat="38.0822534" lon="15.8604722"><ele>1402.0</ele><time>2026-04-25T09:27:49.159Z</time></trkpt><trkpt lat="38.0823746" lon="15.8603923"><ele>1401.5</ele><time>2026-04-25T09:27:50.14Z</time></trkpt><trkpt lat="38.0824739" lon="15.8603156"><ele>1401.0</ele><time>2026-04-25T09:27:51.15Z</time></trkpt><trkpt lat="38.0825835" lon="15.8602476"><ele>1400.5</ele><time>2026-04-25T09:27:52.139Z</time></trkpt><trkpt lat="38.0827174" lon="15.8601899"><ele>1400.0</ele><time>2026-04-25T09:27:53.147Z</time></trkpt><trkpt lat="38.0829935" lon="15.8600646"><ele>1402.5</ele><time>2026-04-25T09:27:55.15Z</time></trkpt><trkpt lat="38.0831331" lon="15.8599834"><ele>1405.0</ele><time>2026-04-25T09:27:56.136Z</time></trkpt><trkpt lat="38.083258" lon="15.8598996"><ele>1407.5</ele><time>2026-04-25T09:27:57.14Z</time></trkpt><trkpt lat="38.0833545" lon="15.859851"><ele>1410.0</ele><time>2026-04-25T09:27:58.147Z</time></trkpt><trkpt lat="38.0834224" lon="15.8598402"><ele>1409.2</ele><time>2026-04-25T09:27:59.151Z</time></trkpt><trkpt lat="38.0835184" lon="15.8599198"><ele>1408.4</ele><time>2026-04-25T09:28:01.144Z</time></trkpt><trkpt lat="38.0835761" lon="15.859998"><ele>1407.6</ele><time>2026-04-25T09:28:02.138Z</time></trkpt><trkpt lat="38.0836605" lon="15.8600764"><ele>1406.8</ele><time>2026-04-25T09:28:03.139Z</time></trkpt><trkpt lat="38.083745" lon="15.8601526"><ele>1406.0</ele><time>2026-04-25T09:28:04.165Z</time></trkpt><trkpt lat="38.0838316" lon="15.8602052"><ele>1406.0</ele><time>2026-04-25T09:28:05.158Z</time></trkpt><trkpt lat="38.0839092" lon="15.8602357"><ele>1406.0</ele><time>2026-04-25T09:28:06.136Z</time></trkpt><trkpt lat="38.0839802" lon="15.860231"><ele>1406.0</ele><time>2026-04-25T09:28:07.153Z</time></trkpt><trkpt lat="38.0840571" lon="15.8602002"><ele>1406.0</ele><time>2026-04-25T09:28:08.143Z</time></trkpt><trkpt lat="38.0841455" lon="15.8601454"><ele>1406.0</ele><time>2026-04-25T09:28:09.16Z</time></trkpt><trkpt lat="38.0842363" lon="15.8600838"><ele>1406.0</ele><time>2026-04-25T09:28:10.151Z</time></trkpt><trkpt lat="38.0843341" lon="15.8600004"><ele>1408.4</ele><time>2026-04-25T09:28:11.152Z</time></trkpt><trkpt lat="38.0844332" lon="15.8599006"><ele>1410.8</ele><time>2026-04-25T09:28:12.164Z</time></trkpt><trkpt lat="38.084523" lon="15.8598186"><ele>1413.2</ele><time>2026-04-25T09:28:13.153Z</time></trkpt><trkpt lat="38.0845975" lon="15.8597786"><ele>1415.6000000000001</ele><time>2026-04-25T09:28:14.15Z</time></trkpt><trkpt lat="38.0846828" lon="15.8598262"><ele>1418.0</ele><time>2026-04-25T09:28:16.147Z</time></trkpt><trkpt lat="38.0847282" lon="15.8598919"><ele>1418.0</ele><time>2026-04-25T09:28:17.148Z</time></trkpt><trkpt lat="38.0847722" lon="15.8599753"><ele>1418.0</ele><time>2026-04-25T09:28:18.154Z</time></trkpt><trkpt lat="38.0848389" lon="15.8600576"><ele>1418.0</ele><time>2026-04-25T09:28:19.165Z</time></trkpt><trkpt lat="38.0849331" lon="15.8601389"><ele>1418.0</ele><time>2026-04-25T09:28:20.147Z</time></trkpt><trkpt lat="38.0850388" lon="15.8602326"><ele>1418.0</ele><time>2026-04-25T09:28:21.163Z</time></trkpt><trkpt lat="38.0851377" lon="15.860335"><ele>1417.5</ele><time>2026-04-25T09:28:22.151Z</time></trkpt><trkpt lat="38.0852277" lon="15.8604454"><ele>1417.0</ele><time>2026-04-25T09:28:23.152Z</time></trkpt><trkpt lat="38.0853041" lon="15.8605533"><ele>1416.5</ele><time>2026-04-25T09:28:24.161Z</time></trkpt><trkpt lat="38.0853664" lon="15.8606636"><ele>1416.0</ele><time>2026-04-25T09:28:25.153Z</time></trkpt><trkpt lat="38.0854185" lon="15.860788"><ele>1416.0</ele><time>2026-04-25T09:28:26.154Z</time></trkpt><trkpt lat="38.0854619" lon="15.8609258"><ele>1416.0</ele><time>2026-04-25T09:28:27.169Z</time></trkpt><trkpt lat="38.0854892" lon="15.8610693"><ele>1416.0</ele><time>2026-04-25T09:28:28.155Z</time></trkpt><trkpt lat="38.0855047" lon="15.8612153"><ele>1416.0</ele><time>2026-04-25T09:28:29.178Z</time></trkpt><trkpt lat="38.0855183" lon="15.8613597"><ele>1414.75</ele><time>2026-04-25T09:28:30.157Z</time></trkpt><trkpt lat="38.0855366" lon="15.8614997"><ele>1413.5</ele><time>2026-04-25T09:28:31.162Z</time></trkpt><trkpt lat="38.0855594" lon="15.8616365"><ele>1412.25</ele><time>2026-04-25T09:28:32.164Z</time></trkpt><trkpt lat="38.0856083" lon="15.8617747"><ele>1411.0</ele><time>2026-04-25T09:28:33.171Z</time></trkpt><trkpt lat="38.0857562" lon="15.8620581"><ele>1411.25</ele><time>2026-04-25T09:28:35.069Z</time></trkpt><trkpt lat="38.0858581" lon="15.8621913"><ele>1411.5</ele><time>2026-04-25T09:28:36.062Z</time></trkpt><trkpt lat="38.0859561" lon="15.8623094"><ele>1411.75</ele><time>2026-04-25T09:28:37.071Z</time></trkpt><trkpt lat="38.086062" lon="15.8624137"><ele>1412.0</ele><time>2026-04-25T09:28:38.062Z</time></trkpt><trkpt lat="38.0861753" lon="15.862512"><ele>1412.0</ele><time>2026-04-25T09:28:39.072Z</time></trkpt><trkpt lat="38.0863" lon="15.862604"><ele>1412.0</ele><time>2026-04-25T09:28:40.073Z</time></trkpt><trkpt lat="38.0864246" lon="15.862682"><ele>1412.0</ele><time>2026-04-25T09:28:41.072Z</time></trkpt><trkpt lat="38.0865463" lon="15.8627507"><ele>1412.0</ele><time>2026-04-25T09:28:42.07Z</time></trkpt><trkpt lat="38.086668" lon="15.8628154"><ele>1411.25</ele><time>2026-04-25T09:28:43.068Z</time></trkpt><trkpt lat="38.0867907" lon="15.8628761"><ele>1410.5</ele><time>2026-04-25T09:28:44.061Z</time></trkpt><trkpt lat="38.0869054" lon="15.862945"><ele>1409.75</ele><time>2026-04-25T09:28:45.074Z</time></trkpt><trkpt lat="38.0870272" lon="15.8630165"><ele>1409.0</ele><time>2026-04-25T09:28:46.088Z</time></trkpt><trkpt lat="38.0871473" lon="15.8630977"><ele>1409.0</ele><time>2026-04-25T09:28:47.093Z</time></trkpt><trkpt lat="38.0872597" lon="15.8631874"><ele>1409.0</ele><time>2026-04-25T09:28:48.089Z</time></trkpt><trkpt lat="38.0873668" lon="15.8632849"><ele>1409.0</ele><time>2026-04-25T09:28:49.085Z</time></trkpt><trkpt lat="38.087471" lon="15.8633968"><ele>1409.0</ele><time>2026-04-25T09:28:50.073Z</time></trkpt><trkpt lat="38.0875718" lon="15.8635269"><ele>1406.75</ele><time>2026-04-25T09:28:51.093Z</time></trkpt><trkpt lat="38.087659" lon="15.8636699"><ele>1404.5</ele><time>2026-04-25T09:28:52.072Z</time></trkpt><trkpt lat="38.0877312" lon="15.8638212"><ele>1402.25</ele><time>2026-04-25T09:28:53.078Z</time></trkpt><trkpt lat="38.0877939" lon="15.8639709"><ele>1400.0</ele><time>2026-04-25T09:28:54.073Z</time></trkpt><trkpt lat="38.0878439" lon="15.8641001"><ele>1400.0</ele><time>2026-04-25T09:28:55.089Z</time></trkpt><trkpt lat="38.0878762" lon="15.8642081"><ele>1400.0</ele><time>2026-04-25T09:28:56.086Z</time></trkpt><trkpt lat="38.0878896" lon="15.8643117"><ele>1400.0</ele><time>2026-04-25T09:28:57.084Z</time></trkpt><trkpt lat="38.0878784" lon="15.8644104"><ele>1400.0</ele><time>2026-04-25T09:28:58.082Z</time></trkpt><trkpt lat="38.0878463" lon="15.8645019"><ele>1400.0</ele><time>2026-04-25T09:28:59.084Z</time></trkpt><trkpt lat="38.0878048" lon="15.8646011"><ele>1400.0</ele><time>2026-04-25T09:29:00.094Z</time></trkpt><trkpt lat="38.0877617" lon="15.8647272"><ele>1398.25</ele><time>2026-04-25T09:29:01.086Z</time></trkpt><trkpt lat="38.0877212" lon="15.8648823"><ele>1396.5</ele><time>2026-04-25T09:29:02.079Z</time></trkpt><trkpt lat="38.0876903" lon="15.865047"><ele>1394.75</ele><time>2026-04-25T09:29:03.087Z</time></trkpt><trkpt lat="38.0876717" lon="15.8652087"><ele>1393.0</ele><time>2026-04-25T09:29:04.092Z</time></trkpt><trkpt lat="38.0876646" lon="15.8653586"><ele>1392.0</ele><time>2026-04-25T09:29:05.085Z</time></trkpt><trkpt lat="38.0876691" lon="15.8654969"><ele>1391.0</ele><time>2026-04-25T09:29:06.106Z</time></trkpt><trkpt lat="38.0876898" lon="15.865627"><ele>1390.0</ele><time>2026-04-25T09:29:07.087Z</time></trkpt><trkpt lat="38.087732" lon="15.8657655"><ele>1389.0</ele><time>2026-04-25T09:29:08.09Z</time></trkpt><trkpt lat="38.0877825" lon="15.8658978"><ele>1388.0</ele><time>2026-04-25T09:29:09.095Z</time></trkpt><trkpt lat="38.0878304" lon="15.8660294"><ele>1388.0</ele><time>2026-04-25T09:29:10.092Z</time></trkpt><trkpt lat="38.0878647" lon="15.8661553"><ele>1388.0</ele><time>2026-04-25T09:29:11.095Z</time></trkpt><trkpt lat="38.0878836" lon="15.8662768"><ele>1388.0</ele><time>2026-04-25T09:29:12.086Z</time></trkpt><trkpt lat="38.0878947" lon="15.8663944"><ele>1388.0</ele><time>2026-04-25T09:29:13.092Z</time></trkpt><trkpt lat="38.0878909" lon="15.8665217"><ele>1388.0</ele><time>2026-04-25T09:29:14.114Z</time></trkpt><trkpt lat="38.0878946" lon="15.8666327"><ele>1388.0</ele><time>2026-04-25T09:29:15.104Z</time></trkpt><trkpt lat="38.0879158" lon="15.8667125"><ele>1388.0</ele><time>2026-04-25T09:29:16.107Z</time></trkpt><trkpt lat="38.0879602" lon="15.866776"><ele>1388.0</ele><time>2026-04-25T09:29:17.09Z</time></trkpt><trkpt lat="38.0880141" lon="15.8668373"><ele>1388.0</ele><time>2026-04-25T09:29:18.096Z</time></trkpt><trkpt lat="38.0880822" lon="15.8668995"><ele>1388.0</ele><time>2026-04-25T09:29:19.102Z</time></trkpt><trkpt lat="38.0881711" lon="15.8669719"><ele>1388.0</ele><time>2026-04-25T09:29:20.095Z</time></trkpt><trkpt lat="38.0882668" lon="15.8670302"><ele>1388.0</ele><time>2026-04-25T09:29:21.109Z</time></trkpt><trkpt lat="38.0883772" lon="15.8670762"><ele>1388.0</ele><time>2026-04-25T09:29:22.103Z</time></trkpt><trkpt lat="38.088503" lon="15.8671117"><ele>1388.0</ele><time>2026-04-25T09:29:23.099Z</time></trkpt><trkpt lat="38.0886376" lon="15.8671531"><ele>1388.0</ele><time>2026-04-25T09:29:24.103Z</time></trkpt><trkpt lat="38.0887604" lon="15.8672231"><ele>1388.0</ele><time>2026-04-25T09:29:25.098Z</time></trkpt><trkpt lat="38.0888739" lon="15.8673154"><ele>1388.0</ele><time>2026-04-25T09:29:26.104Z</time></trkpt><trkpt lat="38.0889806" lon="15.8674086"><ele>1388.0</ele><time>2026-04-25T09:29:27.11Z</time></trkpt><trkpt lat="38.089092" lon="15.8675034"><ele>1388.0</ele><time>2026-04-25T09:29:28.115Z</time></trkpt><trkpt lat="38.0892048" lon="15.8675958"><ele>1386.5</ele><time>2026-04-25T09:29:29.107Z</time></trkpt><trkpt lat="38.0893176" lon="15.8676959"><ele>1385.0</ele><time>2026-04-25T09:29:30.104Z</time></trkpt><trkpt lat="38.0894411" lon="15.8677963"><ele>1383.5</ele><time>2026-04-25T09:29:31.108Z</time></trkpt><trkpt lat="38.0895643" lon="15.8678939"><ele>1382.0</ele><time>2026-04-25T09:29:32.117Z</time></trkpt><trkpt lat="38.089667" lon="15.8679715"><ele>1382.0</ele><time>2026-04-25T09:29:33.115Z</time></trkpt><trkpt lat="38.0897189" lon="15.8680214"><ele>1382.0</ele><time>2026-04-25T09:29:34.112Z</time></trkpt><trkpt lat="38.0898067" lon="15.8681064"><ele>1382.0</ele><time>2026-04-25T09:29:36.102Z</time></trkpt><trkpt lat="38.0898965" lon="15.8681955"><ele>1382.0</ele><time>2026-04-25T09:29:38.111Z</time></trkpt><trkpt lat="38.0899468" lon="15.8682588"><ele>1382.0</ele><time>2026-04-25T09:29:40.117Z</time></trkpt><trkpt lat="38.0898981" lon="15.8681908"><ele>1382.0</ele><time>2026-04-25T09:29:46.118Z</time></trkpt><trkpt lat="38.0898277" lon="15.8681107"><ele>1382.0</ele><time>2026-04-25T09:29:48.114Z</time></trkpt><trkpt lat="38.0897923" lon="15.8680302"><ele>1382.0</ele><time>2026-04-25T09:29:50.125Z</time></trkpt><trkpt lat="38.0898686" lon="15.8679977"><ele>1382.0</ele><time>2026-04-25T09:29:55.081Z</time></trkpt><trkpt lat="38.0899609" lon="15.8680135"><ele>1382.0</ele><time>2026-04-25T09:29:57.045Z</time></trkpt><trkpt lat="38.0900434" lon="15.8680171"><ele>1382.0</ele><time>2026-04-25T09:29:58.129Z</time></trkpt><trkpt lat="38.0901116" lon="15.8680179"><ele>1382.0</ele><time>2026-04-25T09:29:59.125Z</time></trkpt><trkpt lat="38.0901871" lon="15.8680098"><ele>1383.8333333333335</ele><time>2026-04-25T09:30:00.132Z</time></trkpt><trkpt lat="38.0902604" lon="15.8679984"><ele>1385.6666666666667</ele><time>2026-04-25T09:30:01.127Z</time></trkpt><trkpt lat="38.0903459" lon="15.8679891"><ele>1387.5</ele><time>2026-04-25T09:30:02.12Z</time></trkpt><trkpt lat="38.0904368" lon="15.8679844"><ele>1389.3333333333333</ele><time>2026-04-25T09:30:03.135Z</time></trkpt><trkpt lat="38.0905175" lon="15.8679808"><ele>1391.1666666666665</ele><time>2026-04-25T09:30:04.117Z</time></trkpt><trkpt lat="38.0905899" lon="15.86798"><ele>1393.0</ele><time>2026-04-25T09:30:05.145Z</time></trkpt><trkpt lat="38.0906537" lon="15.8679766"><ele>1393.0</ele><time>2026-04-25T09:30:06.136Z</time></trkpt><trkpt lat="38.0907515" lon="15.8679105"><ele>1393.0</ele><time>2026-04-25T09:30:08.135Z</time></trkpt><trkpt lat="38.0907973" lon="15.8678435"><ele>1393.0</ele><time>2026-04-25T09:30:09.128Z</time></trkpt><trkpt lat="38.0908418" lon="15.867761"><ele>1393.0</ele><time>2026-04-25T09:30:10.132Z</time></trkpt><trkpt lat="38.0908781" lon="15.8676729"><ele>1393.0</ele><time>2026-04-25T09:30:11.135Z</time></trkpt><trkpt lat="38.0909145" lon="15.8675746"><ele>1393.0</ele><time>2026-04-25T09:30:12.125Z</time></trkpt><trkpt lat="38.0909429" lon="15.8674848"><ele>1394.5</ele><time>2026-04-25T09:30:13.137Z</time></trkpt><trkpt lat="38.0909806" lon="15.8674009"><ele>1396.0</ele><time>2026-04-25T09:30:14.14Z</time></trkpt><trkpt lat="38.0910252" lon="15.8673294"><ele>1397.5</ele><time>2026-04-25T09:30:15.15Z</time></trkpt><trkpt lat="38.0910831" lon="15.8672564"><ele>1399.0</ele><time>2026-04-25T09:30:16.143Z</time></trkpt><trkpt lat="38.09114" lon="15.8671875"><ele>1400.5</ele><time>2026-04-25T09:30:17.169Z</time></trkpt><trkpt lat="38.0911943" lon="15.8671171"><ele>1402.0</ele><time>2026-04-25T09:30:18.145Z</time></trkpt><trkpt lat="38.0912466" lon="15.867041"><ele>1402.0</ele><time>2026-04-25T09:30:19.137Z</time></trkpt><trkpt lat="38.0913125" lon="15.8669658"><ele>1402.0</ele><time>2026-04-25T09:30:20.136Z</time></trkpt><trkpt lat="38.0913761" lon="15.8669154"><ele>1402.0</ele><time>2026-04-25T09:30:21.143Z</time></trkpt><trkpt lat="38.0914431" lon="15.8668948"><ele>1402.0</ele><time>2026-04-25T09:30:22.139Z</time></trkpt><trkpt lat="38.0915611" lon="15.8668833"><ele>1402.0</ele><time>2026-04-25T09:30:24.141Z</time></trkpt><trkpt lat="38.0916371" lon="15.8668841"><ele>1402.0</ele><time>2026-04-25T09:30:26.14Z</time></trkpt><trkpt lat="38.0917084" lon="15.8668337"><ele>1404.6</ele><time>2026-04-25T09:30:30.141Z</time></trkpt><trkpt lat="38.0917468" lon="15.8667315"><ele>1407.1999999999998</ele><time>2026-04-25T09:30:33.14Z</time></trkpt><trkpt lat="38.0917642" lon="15.8666137"><ele>1409.8</ele><time>2026-04-25T09:30:35.146Z</time></trkpt><trkpt lat="38.0917816" lon="15.8664822"><ele>1412.4</ele><time>2026-04-25T09:30:37.155Z</time></trkpt><trkpt lat="38.0918165" lon="15.866384"><ele>1415.0</ele><time>2026-04-25T09:30:39.141Z</time></trkpt><trkpt lat="38.0918698" lon="15.8662551"><ele>1415.0</ele><time>2026-04-25T09:30:41.154Z</time></trkpt><trkpt lat="38.0919047" lon="15.8661623"><ele>1415.0</ele><time>2026-04-25T09:30:43.145Z</time></trkpt><trkpt lat="38.0919027" lon="15.8660711"><ele>1415.0</ele><time>2026-04-25T09:30:45.153Z</time></trkpt><trkpt lat="38.0918504" lon="15.8659685"><ele>1415.0</ele><time>2026-04-25T09:30:47.141Z</time></trkpt><trkpt lat="38.0917876" lon="15.8658386"><ele>1415.0</ele><time>2026-04-25T09:30:49.156Z</time></trkpt><trkpt lat="38.0917447" lon="15.8657552"><ele>1415.0</ele><time>2026-04-25T09:30:50.147Z</time></trkpt><trkpt lat="38.0917095" lon="15.8656609"><ele>1414.2857142857142</ele><time>2026-04-25T09:30:51.151Z</time></trkpt><trkpt lat="38.0916853" lon="15.8655739"><ele>1413.5714285714284</ele><time>2026-04-25T09:30:52.144Z</time></trkpt><trkpt lat="38.0916713" lon="15.8654788"><ele>1412.8571428571427</ele><time>2026-04-25T09:30:53.152Z</time></trkpt><trkpt lat="38.0916691" lon="15.865384"><ele>1412.142857142857</ele><time>2026-04-25T09:30:54.144Z</time></trkpt><trkpt lat="38.0916706" lon="15.8652962"><ele>1411.4285714285713</ele><time>2026-04-25T09:30:55.14Z</time></trkpt><trkpt lat="38.0916745" lon="15.8652098"><ele>1410.7142857142856</ele><time>2026-04-25T09:30:56.142Z</time></trkpt><trkpt lat="38.091683" lon="15.8651151"><ele>1410.0</ele><time>2026-04-25T09:30:57.138Z</time></trkpt><trkpt lat="38.0916929" lon="15.8650336"><ele>1408.8</ele><time>2026-04-25T09:30:58.135Z</time></trkpt><trkpt lat="38.0917482" lon="15.8649219"><ele>1407.6</ele><time>2026-04-25T09:31:00.138Z</time></trkpt><trkpt lat="38.091838" lon="15.8648305"><ele>1406.4</ele><time>2026-04-25T09:31:02.146Z</time></trkpt><trkpt lat="38.0919009" lon="15.8647821"><ele>1405.2</ele><time>2026-04-25T09:31:03.136Z</time></trkpt><trkpt lat="38.0919653" lon="15.8646438"><ele>1404.0</ele><time>2026-04-25T09:31:05.137Z</time></trkpt><trkpt lat="38.0919397" lon="15.8644993"><ele>1404.0</ele><time>2026-04-25T09:31:07.143Z</time></trkpt><trkpt lat="38.0919157" lon="15.8643601"><ele>1404.0</ele><time>2026-04-25T09:31:09.137Z</time></trkpt><trkpt lat="38.0919224" lon="15.8642235"><ele>1404.0</ele><time>2026-04-25T09:31:11.164Z</time></trkpt><trkpt lat="38.0918514" lon="15.8641229"><ele>1404.0</ele><time>2026-04-25T09:31:13.149Z</time></trkpt><trkpt lat="38.0918177" lon="15.8640115"><ele>1404.0</ele><time>2026-04-25T09:31:15.14Z</time></trkpt><trkpt lat="38.0918671" lon="15.8638543"><ele>1401.6666666666667</ele><time>2026-04-25T09:31:17.146Z</time></trkpt><trkpt lat="38.0919053" lon="15.8637723"><ele>1399.3333333333333</ele><time>2026-04-25T09:31:18.149Z</time></trkpt><trkpt lat="38.0919545" lon="15.8636957"><ele>1397.0</ele><time>2026-04-25T09:31:19.137Z</time></trkpt><trkpt lat="38.0919996" lon="15.8636373"><ele>1394.6666666666665</ele><time>2026-04-25T09:31:20.135Z</time></trkpt><trkpt lat="38.0920979" lon="15.8635713"><ele>1392.3333333333333</ele><time>2026-04-25T09:31:22.141Z</time></trkpt><trkpt lat="38.0921733" lon="15.8635598"><ele>1390.0</ele><time>2026-04-25T09:31:23.147Z</time></trkpt><trkpt lat="38.0922575" lon="15.8635443"><ele>1390.0</ele><time>2026-04-25T09:31:24.16Z</time></trkpt><trkpt lat="38.0923334" lon="15.8635237"><ele>1390.0</ele><time>2026-04-25T09:31:25.143Z</time></trkpt><trkpt lat="38.0923966" lon="15.8635285"><ele>1390.0</ele><time>2026-04-25T09:31:26.13Z</time></trkpt><trkpt lat="38.0925103" lon="15.8635835"><ele>1390.0</ele><time>2026-04-25T09:31:28.144Z</time></trkpt><trkpt lat="38.0925788" lon="15.8636096"><ele>1390.0</ele><time>2026-04-25T09:31:29.146Z</time></trkpt><trkpt lat="38.092694" lon="15.8636039"><ele>1390.0</ele><time>2026-04-25T09:31:31.146Z</time></trkpt><trkpt lat="38.0927849" lon="15.8635117"><ele>1389.6</ele><time>2026-04-25T09:31:33.139Z</time></trkpt><trkpt lat="38.09288" lon="15.8634225"><ele>1389.2</ele><time>2026-04-25T09:31:35.139Z</time></trkpt><trkpt lat="38.0929889" lon="15.8633946"><ele>1388.8000000000002</ele><time>2026-04-25T09:31:37.146Z</time></trkpt><trkpt lat="38.0930956" lon="15.8634471"><ele>1388.4</ele><time>2026-04-25T09:31:39.141Z</time></trkpt><trkpt lat="38.0931525" lon="15.8634966"><ele>1388.0</ele><time>2026-04-25T09:31:40.133Z</time></trkpt><trkpt lat="38.0932163" lon="15.8635529"><ele>1391.8333333333335</ele><time>2026-04-25T09:31:41.131Z</time></trkpt><trkpt lat="38.0932779" lon="15.8636082"><ele>1395.6666666666667</ele><time>2026-04-25T09:31:42.128Z</time></trkpt><trkpt lat="38.0933358" lon="15.8636644"><ele>1399.5</ele><time>2026-04-25T09:31:43.133Z</time></trkpt><trkpt lat="38.0934262" lon="15.8637691"><ele>1403.3333333333333</ele><time>2026-04-25T09:31:45.127Z</time></trkpt><trkpt lat="38.0934698" lon="15.863843"><ele>1407.1666666666665</ele><time>2026-04-25T09:31:46.135Z</time></trkpt><trkpt lat="38.0935218" lon="15.8639217"><ele>1411.0</ele><time>2026-04-25T09:31:47.142Z</time></trkpt><trkpt lat="38.093585" lon="15.8639989"><ele>1411.0</ele><time>2026-04-25T09:31:48.132Z</time></trkpt><trkpt lat="38.0936299" lon="15.8640659"><ele>1411.0</ele><time>2026-04-25T09:31:49.134Z</time></trkpt><trkpt lat="38.0937029" lon="15.8641535"><ele>1411.0</ele><time>2026-04-25T09:31:51.128Z</time></trkpt><trkpt lat="38.0937684" lon="15.8641307"><ele>1411.0</ele><time>2026-04-25T09:31:54.129Z</time></trkpt><trkpt lat="38.0937745" lon="15.8640167"><ele>1411.0</ele><time>2026-04-25T09:31:58.132Z</time></trkpt><trkpt lat="38.0937606" lon="15.8638944"><ele>1411.0</ele><time>2026-04-25T09:32:00.141Z</time></trkpt><trkpt lat="38.0937765" lon="15.8638101"><ele>1411.0</ele><time>2026-04-25T09:32:02.133Z</time></trkpt><trkpt lat="38.0938182" lon="15.8637347"><ele>1411.0</ele><time>2026-04-25T09:32:04.127Z</time></trkpt><trkpt lat="38.0938504" lon="15.8636127"><ele>1411.0</ele><time>2026-04-25T09:32:06.124Z</time></trkpt><trkpt lat="38.0938537" lon="15.8635278"><ele>1411.0</ele><time>2026-04-25T09:32:07.129Z</time></trkpt><trkpt lat="38.0938005" lon="15.8633933"><ele>1411.0</ele><time>2026-04-25T09:32:09.13Z</time></trkpt><trkpt lat="38.0937525" lon="15.8633174"><ele>1411.0</ele><time>2026-04-25T09:32:10.15Z</time></trkpt><trkpt lat="38.0936995" lon="15.8632261"><ele>1407.0</ele><time>2026-04-25T09:32:11.142Z</time></trkpt><trkpt lat="38.0936716" lon="15.8631401"><ele>1403.0</ele><time>2026-04-25T09:32:12.142Z</time></trkpt><trkpt lat="38.0937146" lon="15.8629743"><ele>1399.0</ele><time>2026-04-25T09:32:14.149Z</time></trkpt><trkpt lat="38.0937624" lon="15.8629108"><ele>1395.0</ele><time>2026-04-25T09:32:15.15Z</time></trkpt><trkpt lat="38.0938084" lon="15.8628509"><ele>1391.0</ele><time>2026-04-25T09:32:16.131Z</time></trkpt><trkpt lat="38.0938669" lon="15.8627942"><ele>1387.0</ele><time>2026-04-25T09:32:17.138Z</time></trkpt><trkpt lat="38.0939428" lon="15.8627166"><ele>1384.3333333333333</ele><time>2026-04-25T09:32:19.153Z</time></trkpt><trkpt lat="38.0939767" lon="15.8626068"><ele>1381.6666666666665</ele><time>2026-04-25T09:32:21.143Z</time></trkpt><trkpt lat="38.0939878" lon="15.8625212"><ele>1379.0</ele><time>2026-04-25T09:32:22.142Z</time></trkpt><trkpt lat="38.0940011" lon="15.8624318"><ele>1376.3333333333333</ele><time>2026-04-25T09:32:23.155Z</time></trkpt><trkpt lat="38.0939932" lon="15.8622962"><ele>1373.6666666666667</ele><time>2026-04-25T09:32:25.149Z</time></trkpt><trkpt lat="38.093954" lon="15.8622141"><ele>1371.0</ele><time>2026-04-25T09:32:27.142Z</time></trkpt><trkpt lat="38.0938847" lon="15.8621766"><ele>1371.0</ele><time>2026-04-25T09:32:28.145Z</time></trkpt><trkpt lat="38.0937844" lon="15.86215"><ele>1371.0</ele><time>2026-04-25T09:32:29.153Z</time></trkpt><trkpt lat="38.093696" lon="15.86212"><ele>1371.0</ele><time>2026-04-25T09:32:30.148Z</time></trkpt><trkpt lat="38.0936292" lon="15.8620651"><ele>1371.0</ele><time>2026-04-25T09:32:31.15Z</time></trkpt><trkpt lat="38.0935736" lon="15.8619872"><ele>1371.0</ele><time>2026-04-25T09:32:32.171Z</time></trkpt><trkpt lat="38.0935315" lon="15.861835"><ele>1370.75</ele><time>2026-04-25T09:32:34.166Z</time></trkpt><trkpt lat="38.0935682" lon="15.8616212"><ele>1370.5</ele><time>2026-04-25T09:32:36.16Z</time></trkpt><trkpt lat="38.093599" lon="15.8615046"><ele>1370.25</ele><time>2026-04-25T09:32:37.147Z</time></trkpt><trkpt lat="38.0936166" lon="15.8613814"><ele>1370.0</ele><time>2026-04-25T09:32:38.148Z</time></trkpt><trkpt lat="38.0936238" lon="15.8612675"><ele>1370.0</ele><time>2026-04-25T09:32:39.153Z</time></trkpt><trkpt lat="38.0936244" lon="15.8611547"><ele>1370.0</ele><time>2026-04-25T09:32:40.153Z</time></trkpt><trkpt lat="38.0936238" lon="15.8610546"><ele>1370.0</ele><time>2026-04-25T09:32:41.168Z</time></trkpt><trkpt lat="38.0936153" lon="15.8609209"><ele>1370.0</ele><time>2026-04-25T09:32:43.155Z</time></trkpt><trkpt lat="38.0935933" lon="15.8608443"><ele>1370.0</ele><time>2026-04-25T09:32:45.172Z</time></trkpt><trkpt lat="38.0935358" lon="15.8607973"><ele>1370.0</ele><time>2026-04-25T09:32:47.071Z</time></trkpt><trkpt lat="38.0934169" lon="15.8607527"><ele>1370.0</ele><time>2026-04-25T09:32:49.157Z</time></trkpt><trkpt lat="38.093314" lon="15.8606906"><ele>1370.0</ele><time>2026-04-25T09:32:51.156Z</time></trkpt><trkpt lat="38.0932623" lon="15.8606051"><ele>1370.0</ele><time>2026-04-25T09:32:53.162Z</time></trkpt><trkpt lat="38.0932319" lon="15.8605225"><ele>1370.0</ele><time>2026-04-25T09:32:55.062Z</time></trkpt><trkpt lat="38.0931643" lon="15.8604445"><ele>1370.0</ele><time>2026-04-25T09:32:58.085Z</time></trkpt><trkpt lat="38.0931166" lon="15.8603859"><ele>1370.0</ele><time>2026-04-25T09:33:00.085Z</time></trkpt><trkpt lat="38.0930636" lon="15.8602754"><ele>1365.75</ele><time>2026-04-25T09:33:02.071Z</time></trkpt><trkpt lat="38.0929934" lon="15.860182"><ele>1361.5</ele><time>2026-04-25T09:33:04.076Z</time></trkpt><trkpt lat="38.0929092" lon="15.8600768"><ele>1357.25</ele><time>2026-04-25T09:33:06.074Z</time></trkpt><trkpt lat="38.0928784" lon="15.8599429"><ele>1353.0</ele><time>2026-04-25T09:33:08.066Z</time></trkpt><trkpt lat="38.092861" lon="15.8597877"><ele>1353.0</ele><time>2026-04-25T09:33:10.07Z</time></trkpt><trkpt lat="38.0928732" lon="15.8597027"><ele>1353.0</ele><time>2026-04-25T09:33:11.069Z</time></trkpt><trkpt lat="38.0929126" lon="15.8596168"><ele>1353.0</ele><time>2026-04-25T09:33:12.076Z</time></trkpt><trkpt lat="38.0929524" lon="15.8595296"><ele>1353.0</ele><time>2026-04-25T09:33:13.067Z</time></trkpt><trkpt lat="38.0929867" lon="15.8594466"><ele>1353.0</ele><time>2026-04-25T09:33:14.074Z</time></trkpt><trkpt lat="38.0930088" lon="15.8593626"><ele>1353.0</ele><time>2026-04-25T09:33:15.071Z</time></trkpt><trkpt lat="38.0930136" lon="15.859206"><ele>1350.4</ele><time>2026-04-25T09:33:17.071Z</time></trkpt><trkpt lat="38.0930144" lon="15.8590955"><ele>1347.8000000000002</ele><time>2026-04-25T09:33:18.082Z</time></trkpt><trkpt lat="38.0930341" lon="15.8589821"><ele>1345.2</ele><time>2026-04-25T09:33:19.073Z</time></trkpt><trkpt lat="38.0930673" lon="15.8588839"><ele>1342.6</ele><time>2026-04-25T09:33:20.074Z</time></trkpt><trkpt lat="38.0931138" lon="15.8587864"><ele>1340.0</ele><time>2026-04-25T09:33:21.07Z</time></trkpt><trkpt lat="38.0931655" lon="15.8586788"><ele>1340.0</ele><time>2026-04-25T09:33:22.077Z</time></trkpt><trkpt lat="38.0932098" lon="15.8585822"><ele>1340.0</ele><time>2026-04-25T09:33:23.08Z</time></trkpt><trkpt lat="38.0932571" lon="15.8584845"><ele>1340.0</ele><time>2026-04-25T09:33:24.081Z</time></trkpt><trkpt lat="38.0933061" lon="15.8583948"><ele>1340.0</ele><time>2026-04-25T09:33:25.072Z</time></trkpt><trkpt lat="38.0933556" lon="15.8583208"><ele>1340.0</ele><time>2026-04-25T09:33:26.097Z</time></trkpt><trkpt lat="38.0934025" lon="15.8582414"><ele>1340.0</ele><time>2026-04-25T09:33:27.079Z</time></trkpt><trkpt lat="38.0934679" lon="15.8581622"><ele>1341.8333333333335</ele><time>2026-04-25T09:33:28.092Z</time></trkpt><trkpt lat="38.0935248" lon="15.85808"><ele>1343.6666666666667</ele><time>2026-04-25T09:33:29.085Z</time></trkpt><trkpt lat="38.0935747" lon="15.8580057"><ele>1345.5</ele><time>2026-04-25T09:33:30.087Z</time></trkpt><trkpt lat="38.0936259" lon="15.8579528"><ele>1347.3333333333333</ele><time>2026-04-25T09:33:32.074Z</time></trkpt><trkpt lat="38.0936787" lon="15.8579088"><ele>1349.1666666666665</ele><time>2026-04-25T09:33:34.083Z</time></trkpt><trkpt lat="38.0937507" lon="15.8577951"><ele>1351.0</ele><time>2026-04-25T09:33:36.09Z</time></trkpt><trkpt lat="38.0937677" lon="15.8576564"><ele>1345.75</ele><time>2026-04-25T09:33:38.079Z</time></trkpt><trkpt lat="38.0937611" lon="15.8575066"><ele>1340.5</ele><time>2026-04-25T09:33:40.087Z</time></trkpt><trkpt lat="38.0937229" lon="15.8573756"><ele>1335.25</ele><time>2026-04-25T09:33:42.086Z</time></trkpt><trkpt lat="38.0936742" lon="15.8572365"><ele>1330.0</ele><time>2026-04-25T09:33:44.084Z</time></trkpt><trkpt lat="38.0935951" lon="15.8571199"><ele>1330.0</ele><time>2026-04-25T09:33:46.087Z</time></trkpt><trkpt lat="38.0935676" lon="15.8570452"><ele>1330.0</ele><time>2026-04-25T09:33:47.091Z</time></trkpt><trkpt lat="38.093569" lon="15.8569006"><ele>1330.0</ele><time>2026-04-25T09:33:49.088Z</time></trkpt><trkpt lat="38.0935857" lon="15.8568187"><ele>1330.0</ele><time>2026-04-25T09:33:50.09Z</time></trkpt><trkpt lat="38.0936323" lon="15.856673"><ele>1330.0</ele><time>2026-04-25T09:33:52.087Z</time></trkpt><trkpt lat="38.09371" lon="15.8565714"><ele>1326.6</ele><time>2026-04-25T09:33:54.093Z</time></trkpt><trkpt lat="38.0938049" lon="15.8564673"><ele>1323.2</ele><time>2026-04-25T09:33:56.095Z</time></trkpt><trkpt lat="38.0938955" lon="15.8563574"><ele>1319.8000000000002</ele><time>2026-04-25T09:33:58.084Z</time></trkpt><trkpt lat="38.093942" lon="15.8562782"><ele>1316.4</ele><time>2026-04-25T09:33:59.092Z</time></trkpt><trkpt lat="38.0939946" lon="15.8561922"><ele>1313.0</ele><time>2026-04-25T09:34:00.096Z</time></trkpt><trkpt lat="38.0940514" lon="15.8561094"><ele>1314.1666666666667</ele><time>2026-04-25T09:34:01.107Z</time></trkpt><trkpt lat="38.09411" lon="15.8560258"><ele>1315.3333333333335</ele><time>2026-04-25T09:34:02.105Z</time></trkpt><trkpt lat="38.0941697" lon="15.8559399"><ele>1316.5</ele><time>2026-04-25T09:34:03.09Z</time></trkpt><trkpt lat="38.0942293" lon="15.8558565"><ele>1317.6666666666667</ele><time>2026-04-25T09:34:04.104Z</time></trkpt><trkpt lat="38.0942897" lon="15.8557704"><ele>1318.8333333333333</ele><time>2026-04-25T09:34:05.097Z</time></trkpt><trkpt lat="38.0943496" lon="15.8556875"><ele>1320.0</ele><time>2026-04-25T09:34:06.096Z</time></trkpt><trkpt lat="38.0944148" lon="15.855597"><ele>1320.0</ele><time>2026-04-25T09:34:07.102Z</time></trkpt><trkpt lat="38.0944743" lon="15.8555188"><ele>1320.0</ele><time>2026-04-25T09:34:08.101Z</time></trkpt><trkpt lat="38.0945215" lon="15.8554525"><ele>1320.0</ele><time>2026-04-25T09:34:09.096Z</time></trkpt><trkpt lat="38.0945463" lon="15.855378"><ele>1320.0</ele><time>2026-04-25T09:34:10.104Z</time></trkpt><trkpt lat="38.0945606" lon="15.8552977"><ele>1320.0</ele><time>2026-04-25T09:34:11.095Z</time></trkpt><trkpt lat="38.0945667" lon="15.8552076"><ele>1320.0</ele><time>2026-04-25T09:34:12.103Z</time></trkpt><trkpt lat="38.0945763" lon="15.8550684"><ele>1315.4</ele><time>2026-04-25T09:34:14.105Z</time></trkpt><trkpt lat="38.094608" lon="15.8549523"><ele>1310.8</ele><time>2026-04-25T09:34:16.102Z</time></trkpt><trkpt lat="38.0946608" lon="15.854862"><ele>1306.1999999999998</ele><time>2026-04-25T09:34:18.097Z</time></trkpt><trkpt lat="38.094741" lon="15.8547609"><ele>1301.6</ele><time>2026-04-25T09:34:20.099Z</time></trkpt><trkpt lat="38.0948145" lon="15.8546377"><ele>1297.0</ele><time>2026-04-25T09:34:22.12Z</time></trkpt><trkpt lat="38.0948322" lon="15.8544887"><ele>1297.0</ele><time>2026-04-25T09:34:24.103Z</time></trkpt><trkpt lat="38.0948214" lon="15.8543371"><ele>1297.0</ele><time>2026-04-25T09:34:26.1Z</time></trkpt><trkpt lat="38.0948108" lon="15.8541906"><ele>1297.0</ele><time>2026-04-25T09:34:28.108Z</time></trkpt><trkpt lat="38.0948366" lon="15.8540496"><ele>1297.0</ele><time>2026-04-25T09:34:30.107Z</time></trkpt><trkpt lat="38.0948973" lon="15.8539218"><ele>1297.8</ele><time>2026-04-25T09:34:32.11Z</time></trkpt><trkpt lat="38.0949659" lon="15.8538724"><ele>1298.6</ele><time>2026-04-25T09:34:34.121Z</time></trkpt><trkpt lat="38.0950556" lon="15.8538295"><ele>1299.3999999999999</ele><time>2026-04-25T09:34:37.111Z</time></trkpt><trkpt lat="38.0951375" lon="15.8537695"><ele>1300.1999999999998</ele><time>2026-04-25T09:34:39.119Z</time></trkpt><trkpt lat="38.0952425" lon="15.853745"><ele>1301.0</ele><time>2026-04-25T09:34:41.12Z</time></trkpt><trkpt lat="38.0953434" lon="15.8537446"><ele>1301.0</ele><time>2026-04-25T09:34:43.128Z</time></trkpt><trkpt lat="38.0954007" lon="15.853784"><ele>1301.0</ele><time>2026-04-25T09:34:45.114Z</time></trkpt><trkpt lat="38.0954405" lon="15.8538985"><ele>1301.0</ele><time>2026-04-25T09:34:47.117Z</time></trkpt><trkpt lat="38.0955041" lon="15.853998"><ele>1301.0</ele><time>2026-04-25T09:34:49.118Z</time></trkpt><trkpt lat="38.0955947" lon="15.8540724"><ele>1301.0</ele><time>2026-04-25T09:34:51.123Z</time></trkpt><trkpt lat="38.0957092" lon="15.8541288"><ele>1299.3333333333335</ele><time>2026-04-25T09:34:53.133Z</time></trkpt><trkpt lat="38.0958127" lon="15.8542038"><ele>1297.6666666666667</ele><time>2026-04-25T09:34:55.132Z</time></trkpt><trkpt lat="38.0958617" lon="15.8542795"><ele>1296.0</ele><time>2026-04-25T09:34:57.129Z</time></trkpt><trkpt lat="38.0958977" lon="15.8543649"><ele>1294.3333333333333</ele><time>2026-04-25T09:34:59.133Z</time></trkpt><trkpt lat="38.0959131" lon="15.8544671"><ele>1292.6666666666665</ele><time>2026-04-25T09:35:01.125Z</time></trkpt><trkpt lat="38.0959416" lon="15.8545631"><ele>1291.0</ele><time>2026-04-25T09:35:03.128Z</time></trkpt><trkpt lat="38.0959972" lon="15.8546455"><ele>1294.5</ele><time>2026-04-25T09:35:06.141Z</time></trkpt><trkpt lat="38.0960326" lon="15.854723"><ele>1298.0</ele><time>2026-04-25T09:35:09.151Z</time></trkpt><trkpt lat="38.0960907" lon="15.8546487"><ele>1301.5</ele><time>2026-04-25T09:35:21.139Z</time></trkpt><trkpt lat="38.0961477" lon="15.854599"><ele>1305.0</ele><time>2026-04-25T09:35:23.132Z</time></trkpt><trkpt lat="38.0962348" lon="15.854557"><ele>1308.5</ele><time>2026-04-25T09:35:25.151Z</time></trkpt><trkpt lat="38.0963184" lon="15.8545021"><ele>1312.0</ele><time>2026-04-25T09:35:27.147Z</time></trkpt><trkpt lat="38.0963491" lon="15.8544231"><ele>1312.0</ele><time>2026-04-25T09:35:30.161Z</time></trkpt><trkpt lat="38.0963984" lon="15.8543631"><ele>1312.0</ele><time>2026-04-25T09:35:57.056Z</time></trkpt><trkpt lat="38.0964042" lon="15.8542536"><ele>1312.0</ele><time>2026-04-25T09:36:01.168Z</time></trkpt><trkpt lat="38.0963832" lon="15.8541416"><ele>1312.0</ele><time>2026-04-25T09:36:03.07Z</time></trkpt><trkpt lat="38.0963562" lon="15.8540219"><ele>1312.0</ele><time>2026-04-25T09:36:04.062Z</time></trkpt><trkpt lat="38.0963397" lon="15.8538898"><ele>1312.0</ele><time>2026-04-25T09:36:05.068Z</time></trkpt><trkpt lat="38.0963208" lon="15.8537851"><ele>1306.75</ele><time>2026-04-25T09:36:06.154Z</time></trkpt><trkpt lat="38.0962959" lon="15.8536897"><ele>1301.5</ele><time>2026-04-25T09:36:07.158Z</time></trkpt><trkpt lat="38.0963348" lon="15.853484"><ele>1296.25</ele><time>2026-04-25T09:36:10.073Z</time></trkpt><trkpt lat="38.0963758" lon="15.8533431"><ele>1291.0</ele><time>2026-04-25T09:36:12.059Z</time></trkpt><trkpt lat="38.0963686" lon="15.853178"><ele>1290.8333333333333</ele><time>2026-04-25T09:36:14.071Z</time></trkpt><trkpt lat="38.0963552" lon="15.8530841"><ele>1290.6666666666665</ele><time>2026-04-25T09:36:15.06Z</time></trkpt><trkpt lat="38.0963557" lon="15.8529903"><ele>1290.5</ele><time>2026-04-25T09:36:16.06Z</time></trkpt><trkpt lat="38.096355" lon="15.8528892"><ele>1290.3333333333333</ele><time>2026-04-25T09:36:17.067Z</time></trkpt><trkpt lat="38.0963509" lon="15.8527956"><ele>1290.1666666666667</ele><time>2026-04-25T09:36:18.064Z</time></trkpt><trkpt lat="38.0962962" lon="15.8526624"><ele>1290.0</ele><time>2026-04-25T09:36:20.062Z</time></trkpt><trkpt lat="38.0961666" lon="15.8525452"><ele>1290.0</ele><time>2026-04-25T09:36:22.079Z</time></trkpt><trkpt lat="38.096058" lon="15.852504"><ele>1290.0</ele><time>2026-04-25T09:36:23.069Z</time></trkpt><trkpt lat="38.0959652" lon="15.8524662"><ele>1290.0</ele><time>2026-04-25T09:36:24.075Z</time></trkpt><trkpt lat="38.095884" lon="15.852404"><ele>1290.0</ele><time>2026-04-25T09:36:25.086Z</time></trkpt><trkpt lat="38.0958085" lon="15.852333"><ele>1290.0</ele><time>2026-04-25T09:36:26.079Z</time></trkpt><trkpt lat="38.0957545" lon="15.8522812"><ele>1290.0</ele><time>2026-04-25T09:36:27.088Z</time></trkpt><trkpt lat="38.0957286" lon="15.8521873"><ele>1290.0</ele><time>2026-04-25T09:36:29.074Z</time></trkpt><trkpt lat="38.0957487" lon="15.8520866"><ele>1290.0</ele><time>2026-04-25T09:36:31.078Z</time></trkpt><trkpt lat="38.0958152" lon="15.8520099"><ele>1290.0</ele><time>2026-04-25T09:36:33.08Z</time></trkpt><trkpt lat="38.0959271" lon="15.8519279"><ele>1290.0</ele><time>2026-04-25T09:36:35.083Z</time></trkpt><trkpt lat="38.0959982" lon="15.8518787"><ele>1290.0</ele><time>2026-04-25T09:36:36.083Z</time></trkpt><trkpt lat="38.096069" lon="15.8518139"><ele>1290.0</ele><time>2026-04-25T09:36:37.107Z</time></trkpt><trkpt lat="38.0961441" lon="15.8517564"><ele>1290.0</ele><time>2026-04-25T09:36:38.077Z</time></trkpt><trkpt lat="38.096213" lon="15.8517105"><ele>1290.0</ele><time>2026-04-25T09:36:39.077Z</time></trkpt><trkpt lat="38.0963281" lon="15.8516712"><ele>1290.0</ele><time>2026-04-25T09:36:41.086Z</time></trkpt><trkpt lat="38.0963957" lon="15.851657"><ele>1290.0</ele><time>2026-04-25T09:36:42.086Z</time></trkpt><trkpt lat="38.096462" lon="15.8516637"><ele>1295.0</ele><time>2026-04-25T09:36:43.087Z</time></trkpt><trkpt lat="38.0965907" lon="15.8516819"><ele>1300.0</ele><time>2026-04-25T09:36:45.095Z</time></trkpt><trkpt lat="38.0966784" lon="15.851686"><ele>1305.0</ele><time>2026-04-25T09:36:46.09Z</time></trkpt><trkpt lat="38.0967788" lon="15.8516783"><ele>1310.0</ele><time>2026-04-25T09:36:47.081Z</time></trkpt><trkpt lat="38.0968768" lon="15.8516476"><ele>1315.0</ele><time>2026-04-25T09:36:48.082Z</time></trkpt><trkpt lat="38.0969697" lon="15.8516031"><ele>1315.0</ele><time>2026-04-25T09:36:49.083Z</time></trkpt><trkpt lat="38.09705" lon="15.851554"><ele>1315.0</ele><time>2026-04-25T09:36:50.093Z</time></trkpt><trkpt lat="38.0971115" lon="15.8515004"><ele>1315.0</ele><time>2026-04-25T09:36:51.088Z</time></trkpt><trkpt lat="38.0971675" lon="15.851441"><ele>1315.0</ele><time>2026-04-25T09:36:52.095Z</time></trkpt><trkpt lat="38.0972267" lon="15.8513321"><ele>1315.0</ele><time>2026-04-25T09:36:54.081Z</time></trkpt><trkpt lat="38.0971649" lon="15.8512584"><ele>1315.0</ele><time>2026-04-25T09:36:58.096Z</time></trkpt><trkpt lat="38.0970552" lon="15.8512672"><ele>1315.0</ele><time>2026-04-25T09:37:00.086Z</time></trkpt><trkpt lat="38.0969833" lon="15.8512536"><ele>1315.0</ele><time>2026-04-25T09:37:01.109Z</time></trkpt><trkpt lat="38.0969175" lon="15.8512312"><ele>1315.0</ele><time>2026-04-25T09:37:02.098Z</time></trkpt><trkpt lat="38.0968474" lon="15.8511871"><ele>1315.0</ele><time>2026-04-25T09:37:03.104Z</time></trkpt><trkpt lat="38.0967867" lon="15.8511322"><ele>1315.0</ele><time>2026-04-25T09:37:04.09Z</time></trkpt><trkpt lat="38.0967363" lon="15.851074"><ele>1315.0</ele><time>2026-04-25T09:37:05.09Z</time></trkpt><trkpt lat="38.0966886" lon="15.8510056"><ele>1315.0</ele><time>2026-04-25T09:37:06.091Z</time></trkpt><trkpt lat="38.0966436" lon="15.8509046"><ele>1314.8333333333333</ele><time>2026-04-25T09:37:07.092Z</time></trkpt><trkpt lat="38.0965931" lon="15.8508006"><ele>1314.6666666666665</ele><time>2026-04-25T09:37:08.095Z</time></trkpt><trkpt lat="38.0965383" lon="15.8507041"><ele>1314.5</ele><time>2026-04-25T09:37:09.091Z</time></trkpt><trkpt lat="38.0964933" lon="15.8506153"><ele>1314.3333333333333</ele><time>2026-04-25T09:37:10.101Z</time></trkpt><trkpt lat="38.0964648" lon="15.8505306"><ele>1314.1666666666667</ele><time>2026-04-25T09:37:11.108Z</time></trkpt><trkpt lat="38.0964707" lon="15.8504431"><ele>1314.0</ele><time>2026-04-25T09:37:12.096Z</time></trkpt><trkpt lat="38.0965163" lon="15.8503663"><ele>1314.0</ele><time>2026-04-25T09:37:13.112Z</time></trkpt><trkpt lat="38.0965671" lon="15.850268"><ele>1314.0</ele><time>2026-04-25T09:37:14.107Z</time></trkpt><trkpt lat="38.0966024" lon="15.8501793"><ele>1314.0</ele><time>2026-04-25T09:37:15.099Z</time></trkpt><trkpt lat="38.0966182" lon="15.8500932"><ele>1314.0</ele><time>2026-04-25T09:37:16.088Z</time></trkpt><trkpt lat="38.0966101" lon="15.8499523"><ele>1314.0</ele><time>2026-04-25T09:37:18.1Z</time></trkpt><trkpt lat="38.0965184" lon="15.8498507"><ele>1307.0</ele><time>2026-04-25T09:37:20.098Z</time></trkpt><trkpt lat="38.0964737" lon="15.8497157"><ele>1300.0</ele><time>2026-04-25T09:37:22.098Z</time></trkpt><trkpt lat="38.0964789" lon="15.8496254"><ele>1293.0</ele><time>2026-04-25T09:37:23.117Z</time></trkpt><trkpt lat="38.0964905" lon="15.8495271"><ele>1286.0</ele><time>2026-04-25T09:37:24.095Z</time></trkpt><trkpt lat="38.0965155" lon="15.8494115"><ele>1279.0</ele><time>2026-04-25T09:37:25.115Z</time></trkpt><trkpt lat="38.0965445" lon="15.8492937"><ele>1281.6</ele><time>2026-04-25T09:37:26.096Z</time></trkpt><trkpt lat="38.0965774" lon="15.8491846"><ele>1284.2</ele><time>2026-04-25T09:37:27.107Z</time></trkpt><trkpt lat="38.09662" lon="15.8490784"><ele>1286.8</ele><time>2026-04-25T09:37:28.097Z</time></trkpt><trkpt lat="38.0966589" lon="15.8489986"><ele>1289.3999999999999</ele><time>2026-04-25T09:37:29.099Z</time></trkpt><trkpt lat="38.0966179" lon="15.8489278"><ele>1292.0</ele><time>2026-04-25T09:37:32.095Z</time></trkpt><trkpt lat="38.096506" lon="15.8488323"><ele>1292.0</ele><time>2026-04-25T09:37:34.099Z</time></trkpt><trkpt lat="38.0964305" lon="15.8487841"><ele>1292.0</ele><time>2026-04-25T09:37:35.116Z</time></trkpt><trkpt lat="38.0963544" lon="15.8487452"><ele>1292.0</ele><time>2026-04-25T09:37:36.105Z</time></trkpt><trkpt lat="38.0962864" lon="15.8487109"><ele>1292.0</ele><time>2026-04-25T09:37:37.113Z</time></trkpt><trkpt lat="38.0962221" lon="15.8486155"><ele>1292.0</ele><time>2026-04-25T09:37:39.115Z</time></trkpt><trkpt lat="38.0962531" lon="15.8484759"><ele>1294.5</ele><time>2026-04-25T09:37:41.133Z</time></trkpt><trkpt lat="38.096277" lon="15.8483875"><ele>1297.0</ele><time>2026-04-25T09:37:42.106Z</time></trkpt><trkpt lat="38.0962897" lon="15.8482931"><ele>1299.5</ele><time>2026-04-25T09:37:43.13Z</time></trkpt><trkpt lat="38.0962998" lon="15.8481865"><ele>1302.0</ele><time>2026-04-25T09:37:44.131Z</time></trkpt><trkpt lat="38.0963129" lon="15.8481015"><ele>1304.5</ele><time>2026-04-25T09:37:45.113Z</time></trkpt><trkpt lat="38.0963349" lon="15.8479687"><ele>1307.0</ele><time>2026-04-25T09:37:47.124Z</time></trkpt><trkpt lat="38.096294" lon="15.8478953"><ele>1307.0</ele><time>2026-04-25T09:37:49.11Z</time></trkpt><trkpt lat="38.0961655" lon="15.8478296"><ele>1307.0</ele><time>2026-04-25T09:37:51.12Z</time></trkpt><trkpt lat="38.0960699" lon="15.8477712"><ele>1307.0</ele><time>2026-04-25T09:37:52.126Z</time></trkpt><trkpt lat="38.0959621" lon="15.8477224"><ele>1307.0</ele><time>2026-04-25T09:37:53.136Z</time></trkpt><trkpt lat="38.0958522" lon="15.8476733"><ele>1306.0</ele><time>2026-04-25T09:37:54.129Z</time></trkpt><trkpt lat="38.0957617" lon="15.8476117"><ele>1305.0</ele><time>2026-04-25T09:37:55.122Z</time></trkpt><trkpt lat="38.0957074" lon="15.8475509"><ele>1304.0</ele><time>2026-04-25T09:37:56.12Z</time></trkpt><trkpt lat="38.0956791" lon="15.8474319"><ele>1303.0</ele><time>2026-04-25T09:37:58.122Z</time></trkpt><trkpt lat="38.095685" lon="15.8472529"><ele>1302.0</ele><time>2026-04-25T09:38:00.121Z</time></trkpt><trkpt lat="38.0956746" lon="15.8471588"><ele>1302.0</ele><time>2026-04-25T09:38:01.136Z</time></trkpt><trkpt lat="38.0956404" lon="15.8470702"><ele>1302.0</ele><time>2026-04-25T09:38:02.12Z</time></trkpt><trkpt lat="38.0955922" lon="15.8470011"><ele>1302.0</ele><time>2026-04-25T09:38:03.129Z</time></trkpt><trkpt lat="38.0955476" lon="15.8468725"><ele>1302.0</ele><time>2026-04-25T09:38:05.141Z</time></trkpt><trkpt lat="38.0955651" lon="15.8467912"><ele>1302.0</ele><time>2026-04-25T09:38:06.12Z</time></trkpt><trkpt lat="38.0956043" lon="15.8467106"><ele>1302.0</ele><time>2026-04-25T09:38:07.129Z</time></trkpt><trkpt lat="38.0956441" lon="15.846636"><ele>1304.8</ele><time>2026-04-25T09:38:08.121Z</time></trkpt><trkpt lat="38.0956061" lon="15.8464777"><ele>1307.6</ele><time>2026-04-25T09:38:10.115Z</time></trkpt><trkpt lat="38.0955477" lon="15.8464105"><ele>1310.3999999999999</ele><time>2026-04-25T09:38:11.142Z</time></trkpt><trkpt lat="38.095484" lon="15.8463724"><ele>1313.1999999999998</ele><time>2026-04-25T09:38:12.132Z</time></trkpt><trkpt lat="38.0954014" lon="15.8463428"><ele>1316.0</ele><time>2026-04-25T09:38:13.144Z</time></trkpt><trkpt lat="38.0953037" lon="15.8463162"><ele>1316.0</ele><time>2026-04-25T09:38:14.146Z</time></trkpt><trkpt lat="38.0952012" lon="15.8462798"><ele>1316.0</ele><time>2026-04-25T09:38:15.133Z</time></trkpt><trkpt lat="38.0951119" lon="15.8462315"><ele>1316.0</ele><time>2026-04-25T09:38:16.132Z</time></trkpt><trkpt lat="38.0950334" lon="15.8461858"><ele>1316.0</ele><time>2026-04-25T09:38:17.148Z</time></trkpt><trkpt lat="38.094962" lon="15.846151"><ele>1316.0</ele><time>2026-04-25T09:38:18.137Z</time></trkpt><trkpt lat="38.0948824" lon="15.8461138"><ele>1315.6</ele><time>2026-04-25T09:38:20.147Z</time></trkpt><trkpt lat="38.0948398" lon="15.8460511"><ele>1315.1999999999998</ele><time>2026-04-25T09:38:39.144Z</time></trkpt><trkpt lat="38.0947969" lon="15.8458994"><ele>1314.8000000000002</ele><time>2026-04-25T09:38:41.151Z</time></trkpt><trkpt lat="38.0947457" lon="15.8458128"><ele>1314.4</ele><time>2026-04-25T09:38:42.155Z</time></trkpt><trkpt lat="38.0946642" lon="15.8457197"><ele>1314.0</ele><time>2026-04-25T09:38:43.14Z</time></trkpt><trkpt lat="38.0945678" lon="15.8456238"><ele>1314.0</ele><time>2026-04-25T09:38:44.162Z</time></trkpt><trkpt lat="38.0944986" lon="15.845525"><ele>1314.0</ele><time>2026-04-25T09:38:45.17Z</time></trkpt><trkpt lat="38.0944586" lon="15.8454311"><ele>1314.0</ele><time>2026-04-25T09:38:46.156Z</time></trkpt><trkpt lat="38.0944344" lon="15.8453152"><ele>1314.0</ele><time>2026-04-25T09:38:47.152Z</time></trkpt><trkpt lat="38.0944339" lon="15.8451713"><ele>1314.0</ele><time>2026-04-25T09:38:48.151Z</time></trkpt><trkpt lat="38.0944291" lon="15.8450262"><ele>1317.4</ele><time>2026-04-25T09:38:49.191Z</time></trkpt><trkpt lat="38.0944145" lon="15.8448907"><ele>1320.8000000000002</ele><time>2026-04-25T09:38:50.147Z</time></trkpt><trkpt lat="38.0943723" lon="15.8447708"><ele>1324.1999999999998</ele><time>2026-04-25T09:38:51.151Z</time></trkpt><trkpt lat="38.0942999" lon="15.8446795"><ele>1327.6</ele><time>2026-04-25T09:38:52.162Z</time></trkpt><trkpt lat="38.0942054" lon="15.8446373"><ele>1331.0</ele><time>2026-04-25T09:38:53.152Z</time></trkpt><trkpt lat="38.0940944" lon="15.8446052"><ele>1326.6</ele><time>2026-04-25T09:38:54.152Z</time></trkpt><trkpt lat="38.0939788" lon="15.8445783"><ele>1322.1999999999998</ele><time>2026-04-25T09:38:55.171Z</time></trkpt><trkpt lat="38.0938656" lon="15.8445269"><ele>1317.8000000000002</ele><time>2026-04-25T09:38:56.156Z</time></trkpt><trkpt lat="38.0937668" lon="15.8444688"><ele>1313.4</ele><time>2026-04-25T09:38:57.15Z</time></trkpt><trkpt lat="38.0936837" lon="15.8444026"><ele>1309.0</ele><time>2026-04-25T09:38:58.066Z</time></trkpt><trkpt lat="38.0936247" lon="15.8443034"><ele>1314.2</ele><time>2026-04-25T09:38:59.063Z</time></trkpt><trkpt lat="38.0935935" lon="15.8441913"><ele>1319.4</ele><time>2026-04-25T09:39:00.069Z</time></trkpt><trkpt lat="38.0935925" lon="15.844064"><ele>1324.6</ele><time>2026-04-25T09:39:01.05Z</time></trkpt><trkpt lat="38.0935702" lon="15.8439324"><ele>1329.8</ele><time>2026-04-25T09:39:02.059Z</time></trkpt><trkpt lat="38.093504" lon="15.8438102"><ele>1335.0</ele><time>2026-04-25T09:39:03.056Z</time></trkpt><trkpt lat="38.0934127" lon="15.8436848"><ele>1335.0</ele><time>2026-04-25T09:39:04.052Z</time></trkpt><trkpt lat="38.0933425" lon="15.8435584"><ele>1335.0</ele><time>2026-04-25T09:39:05.067Z</time></trkpt><trkpt lat="38.0933196" lon="15.8434512"><ele>1335.0</ele><time>2026-04-25T09:39:06.073Z</time></trkpt><trkpt lat="38.0933308" lon="15.8433251"><ele>1335.0</ele><time>2026-04-25T09:39:07.085Z</time></trkpt><trkpt lat="38.0933685" lon="15.8431943"><ele>1335.0</ele><time>2026-04-25T09:39:08.072Z</time></trkpt><trkpt lat="38.0934135" lon="15.8430543"><ele>1337.5</ele><time>2026-04-25T09:39:09.096Z</time></trkpt><trkpt lat="38.0934616" lon="15.8428977"><ele>1340.0</ele><time>2026-04-25T09:39:10.071Z</time></trkpt><trkpt lat="38.0934896" lon="15.8427129"><ele>1342.5</ele><time>2026-04-25T09:39:11.079Z</time></trkpt><trkpt lat="38.0934899" lon="15.8425138"><ele>1345.0</ele><time>2026-04-25T09:39:12.066Z</time></trkpt><trkpt lat="38.0934828" lon="15.842327"><ele>1345.0</ele><time>2026-04-25T09:39:13.69Z</time></trkpt><trkpt lat="38.0934652" lon="15.8421406"><ele>1345.0</ele><time>2026-04-25T09:39:14.701Z</time></trkpt><trkpt lat="38.0934544" lon="15.8419638"><ele>1345.0</ele><time>2026-04-25T09:39:15.702Z</time></trkpt><trkpt lat="38.0934641" lon="15.8418011"><ele>1345.0</ele><time>2026-04-25T09:39:16.698Z</time></trkpt><trkpt lat="38.0934848" lon="15.8416535"><ele>1344.2</ele><time>2026-04-25T09:39:17.702Z</time></trkpt><trkpt lat="38.0935153" lon="15.8415192"><ele>1343.4</ele><time>2026-04-25T09:39:18.745Z</time></trkpt><trkpt lat="38.0935647" lon="15.8414013"><ele>1342.6</ele><time>2026-04-25T09:39:19.722Z</time></trkpt><trkpt lat="38.0936231" lon="15.8412938"><ele>1341.8</ele><time>2026-04-25T09:39:20.69Z</time></trkpt><trkpt lat="38.0936991" lon="15.8412196"><ele>1341.0</ele><time>2026-04-25T09:39:21.696Z</time></trkpt><trkpt lat="38.0937988" lon="15.8411844"><ele>1341.0</ele><time>2026-04-25T09:39:22.7Z</time></trkpt><trkpt lat="38.0939186" lon="15.8411883"><ele>1341.0</ele><time>2026-04-25T09:39:23.695Z</time></trkpt><trkpt lat="38.0940374" lon="15.8412052"><ele>1341.0</ele><time>2026-04-25T09:39:24.709Z</time></trkpt><trkpt lat="38.094174" lon="15.8412456"><ele>1341.0</ele><time>2026-04-25T09:39:25.715Z</time></trkpt><trkpt lat="38.0943022" lon="15.841287"><ele>1346.6</ele><time>2026-04-25T09:39:26.703Z</time></trkpt><trkpt lat="38.0944154" lon="15.841334"><ele>1352.1999999999998</ele><time>2026-04-25T09:39:27.712Z</time></trkpt><trkpt lat="38.0945093" lon="15.8413836"><ele>1357.8000000000002</ele><time>2026-04-25T09:39:28.703Z</time></trkpt><trkpt lat="38.0945895" lon="15.8414247"><ele>1363.4</ele><time>2026-04-25T09:39:29.7Z</time></trkpt><trkpt lat="38.0946784" lon="15.8414219"><ele>1369.0</ele><time>2026-04-25T09:39:30.699Z</time></trkpt><trkpt lat="38.0947661" lon="15.8413802"><ele>1369.0</ele><time>2026-04-25T09:39:31.705Z</time></trkpt><trkpt lat="38.094836" lon="15.8413118"><ele>1369.0</ele><time>2026-04-25T09:39:32.711Z</time></trkpt><trkpt lat="38.0948689" lon="15.8412077"><ele>1369.0</ele><time>2026-04-25T09:39:33.715Z</time></trkpt><trkpt lat="38.0948674" lon="15.8410947"><ele>1369.0</ele><time>2026-04-25T09:39:34.719Z</time></trkpt><trkpt lat="38.0948365" lon="15.8409788"><ele>1369.0</ele><time>2026-04-25T09:39:35.711Z</time></trkpt><trkpt lat="38.0947907" lon="15.8408525"><ele>1365.5</ele><time>2026-04-25T09:39:36.697Z</time></trkpt><trkpt lat="38.0947453" lon="15.840704"><ele>1362.0</ele><time>2026-04-25T09:39:37.738Z</time></trkpt><trkpt lat="38.0946998" lon="15.8405381"><ele>1358.5</ele><time>2026-04-25T09:39:38.719Z</time></trkpt><trkpt lat="38.0946524" lon="15.8403618"><ele>1355.0</ele><time>2026-04-25T09:39:39.692Z</time></trkpt><trkpt lat="38.0946059" lon="15.840186"><ele>1357.5</ele><time>2026-04-25T09:39:40.713Z</time></trkpt><trkpt lat="38.0945584" lon="15.8400173"><ele>1360.0</ele><time>2026-04-25T09:39:41.707Z</time></trkpt><trkpt lat="38.0945135" lon="15.8398748"><ele>1362.5</ele><time>2026-04-25T09:39:42.698Z</time></trkpt><trkpt lat="38.0944776" lon="15.839743"><ele>1365.0</ele><time>2026-04-25T09:39:43.709Z</time></trkpt><trkpt lat="38.0944453" lon="15.8396191"><ele>1365.0</ele><time>2026-04-25T09:39:44.712Z</time></trkpt><trkpt lat="38.0944125" lon="15.8395005"><ele>1365.0</ele><time>2026-04-25T09:39:45.726Z</time></trkpt><trkpt lat="38.094376" lon="15.8393832"><ele>1365.0</ele><time>2026-04-25T09:39:46.704Z</time></trkpt><trkpt lat="38.0943415" lon="15.8392644"><ele>1365.0</ele><time>2026-04-25T09:39:47.712Z</time></trkpt><trkpt lat="38.0943263" lon="15.8391539"><ele>1365.0</ele><time>2026-04-25T09:39:48.715Z</time></trkpt><trkpt lat="38.0943382" lon="15.8390698"><ele>1367.0</ele><time>2026-04-25T09:39:49.712Z</time></trkpt><trkpt lat="38.0944633" lon="15.8389992"><ele>1369.0</ele><time>2026-04-25T09:39:51.723Z</time></trkpt><trkpt lat="38.094557" lon="15.8389992"><ele>1371.0</ele><time>2026-04-25T09:39:52.716Z</time></trkpt><trkpt lat="38.0946579" lon="15.8390083"><ele>1373.0</ele><time>2026-04-25T09:39:53.713Z</time></trkpt><trkpt lat="38.0947689" lon="15.8390155"><ele>1375.0</ele><time>2026-04-25T09:39:54.714Z</time></trkpt><trkpt lat="38.0948836" lon="15.8390147"><ele>1376.75</ele><time>2026-04-25T09:39:55.704Z</time></trkpt><trkpt lat="38.0950035" lon="15.8390026"><ele>1378.5</ele><time>2026-04-25T09:39:56.708Z</time></trkpt><trkpt lat="38.0951285" lon="15.8389808"><ele>1380.25</ele><time>2026-04-25T09:39:57.712Z</time></trkpt><trkpt lat="38.0952574" lon="15.8389573"><ele>1382.0</ele><time>2026-04-25T09:39:58.716Z</time></trkpt><trkpt lat="38.095376" lon="15.838942"><ele>1382.0</ele><time>2026-04-25T09:39:59.71Z</time></trkpt><trkpt lat="38.0954833" lon="15.8389366"><ele>1382.0</ele><time>2026-04-25T09:40:00.72Z</time></trkpt><trkpt lat="38.095583" lon="15.8389464"><ele>1382.0</ele><time>2026-04-25T09:40:01.707Z</time></trkpt><trkpt lat="38.0956693" lon="15.838978"><ele>1382.0</ele><time>2026-04-25T09:40:02.717Z</time></trkpt><trkpt lat="38.0957359" lon="15.839009"><ele>1382.0</ele><time>2026-04-25T09:40:03.716Z</time></trkpt><trkpt lat="38.0958593" lon="15.8390733"><ele>1382.8</ele><time>2026-04-25T09:40:05.736Z</time></trkpt><trkpt lat="38.0959354" lon="15.8391088"><ele>1383.6</ele><time>2026-04-25T09:40:06.719Z</time></trkpt><trkpt lat="38.0960279" lon="15.8391326"><ele>1384.3999999999999</ele><time>2026-04-25T09:40:07.714Z</time></trkpt><trkpt lat="38.0961304" lon="15.8391548"><ele>1385.1999999999998</ele><time>2026-04-25T09:40:08.717Z</time></trkpt><trkpt lat="38.0962283" lon="15.8391617"><ele>1386.0</ele><time>2026-04-25T09:40:09.728Z</time></trkpt><trkpt lat="38.0963305" lon="15.8391566"><ele>1386.0</ele><time>2026-04-25T09:40:10.723Z</time></trkpt><trkpt lat="38.0964407" lon="15.8391409"><ele>1386.0</ele><time>2026-04-25T09:40:11.721Z</time></trkpt><trkpt lat="38.0965596" lon="15.8391105"><ele>1386.0</ele><time>2026-04-25T09:40:12.725Z</time></trkpt><trkpt lat="38.096672" lon="15.8390693"><ele>1386.0</ele><time>2026-04-25T09:40:13.718Z</time></trkpt><trkpt lat="38.096784" lon="15.8390136"><ele>1385.0</ele><time>2026-04-25T09:40:14.729Z</time></trkpt><trkpt lat="38.0969011" lon="15.8389369"><ele>1384.0</ele><time>2026-04-25T09:40:15.738Z</time></trkpt><trkpt lat="38.0970186" lon="15.8388533"><ele>1383.0</ele><time>2026-04-25T09:40:16.719Z</time></trkpt><trkpt lat="38.0971162" lon="15.8387858"><ele>1382.0</ele><time>2026-04-25T09:40:17.721Z</time></trkpt><trkpt lat="38.0972158" lon="15.8387324"><ele>1382.0</ele><time>2026-04-25T09:40:18.727Z</time></trkpt><trkpt lat="38.0973194" lon="15.8386854"><ele>1382.0</ele><time>2026-04-25T09:40:19.731Z</time></trkpt><trkpt lat="38.0974257" lon="15.8386581"><ele>1382.0</ele><time>2026-04-25T09:40:20.72Z</time></trkpt><trkpt lat="38.0975411" lon="15.8386114"><ele>1382.0</ele><time>2026-04-25T09:40:21.737Z</time></trkpt><trkpt lat="38.0976508" lon="15.8385448"><ele>1378.8</ele><time>2026-04-25T09:40:22.734Z</time></trkpt><trkpt lat="38.0977456" lon="15.8384678"><ele>1375.6</ele><time>2026-04-25T09:40:23.731Z</time></trkpt><trkpt lat="38.0978355" lon="15.8384047"><ele>1372.3999999999999</ele><time>2026-04-25T09:40:24.734Z</time></trkpt><trkpt lat="38.0979244" lon="15.8383726"><ele>1369.1999999999998</ele><time>2026-04-25T09:40:25.731Z</time></trkpt><trkpt lat="38.0980159" lon="15.8383684"><ele>1366.0</ele><time>2026-04-25T09:40:26.732Z</time></trkpt><trkpt lat="38.0980782" lon="15.8383875"><ele>1366.0</ele><time>2026-04-25T09:40:27.732Z</time></trkpt><trkpt lat="38.0981226" lon="15.8384507"><ele>1366.0</ele><time>2026-04-25T09:40:28.745Z</time></trkpt><trkpt lat="38.0981627" lon="15.8385449"><ele>1366.0</ele><time>2026-04-25T09:40:29.739Z</time></trkpt><trkpt lat="38.0982061" lon="15.8386602"><ele>1366.0</ele><time>2026-04-25T09:40:30.739Z</time></trkpt><trkpt lat="38.0982466" lon="15.8387876"><ele>1366.0</ele><time>2026-04-25T09:40:31.751Z</time></trkpt><trkpt lat="38.0982939" lon="15.8389232"><ele>1372.25</ele><time>2026-04-25T09:40:32.738Z</time></trkpt><trkpt lat="38.0983556" lon="15.8390745"><ele>1378.5</ele><time>2026-04-25T09:40:33.745Z</time></trkpt><trkpt lat="38.0984161" lon="15.8392323"><ele>1384.75</ele><time>2026-04-25T09:40:34.743Z</time></trkpt><trkpt lat="38.0984783" lon="15.839388"><ele>1391.0</ele><time>2026-04-25T09:40:35.775Z</time></trkpt><trkpt lat="38.0985305" lon="15.8395252"><ele>1394.5</ele><time>2026-04-25T09:40:36.747Z</time></trkpt><trkpt lat="38.0985814" lon="15.8396356"><ele>1398.0</ele><time>2026-04-25T09:40:37.754Z</time></trkpt><trkpt lat="38.0986423" lon="15.8397051"><ele>1401.5</ele><time>2026-04-25T09:40:38.742Z</time></trkpt><trkpt lat="38.098715" lon="15.8397458"><ele>1405.0</ele><time>2026-04-25T09:40:39.762Z</time></trkpt><trkpt lat="38.0987993" lon="15.8397501"><ele>1408.5</ele><time>2026-04-25T09:40:40.75Z</time></trkpt><trkpt lat="38.0988951" lon="15.8397076"><ele>1412.0</ele><time>2026-04-25T09:40:41.757Z</time></trkpt><trkpt lat="38.0989738" lon="15.8396558"><ele>1412.0</ele><time>2026-04-25T09:40:42.75Z</time></trkpt><trkpt lat="38.0990624" lon="15.8396246"><ele>1412.0</ele><time>2026-04-25T09:40:43.751Z</time></trkpt><trkpt lat="38.0991612" lon="15.8396414"><ele>1412.0</ele><time>2026-04-25T09:40:44.745Z</time></trkpt><trkpt lat="38.0992652" lon="15.8396878"><ele>1412.0</ele><time>2026-04-25T09:40:45.749Z</time></trkpt><trkpt lat="38.0993657" lon="15.8397367"><ele>1412.0</ele><time>2026-04-25T09:40:46.746Z</time></trkpt><trkpt lat="38.0994679" lon="15.8397582"><ele>1407.75</ele><time>2026-04-25T09:40:47.759Z</time></trkpt><trkpt lat="38.0995745" lon="15.8397369"><ele>1403.5</ele><time>2026-04-25T09:40:48.759Z</time></trkpt><trkpt lat="38.0996781" lon="15.8396656"><ele>1399.25</ele><time>2026-04-25T09:40:49.757Z</time></trkpt><trkpt lat="38.0997737" lon="15.8395572"><ele>1395.0</ele><time>2026-04-25T09:40:50.769Z</time></trkpt><trkpt lat="38.0998611" lon="15.8394657"><ele>1394.4</ele><time>2026-04-25T09:40:51.753Z</time></trkpt><trkpt lat="38.0999389" lon="15.8394326"><ele>1393.8</ele><time>2026-04-25T09:40:52.77Z</time></trkpt><trkpt lat="38.1000196" lon="15.8394361"><ele>1393.1999999999998</ele><time>2026-04-25T09:40:53.763Z</time></trkpt><trkpt lat="38.100126" lon="15.839476"><ele>1392.6</ele><time>2026-04-25T09:40:54.755Z</time></trkpt><trkpt lat="38.1002259" lon="15.8395446"><ele>1392.0</ele><time>2026-04-25T09:40:55.758Z</time></trkpt><trkpt lat="38.1003328" lon="15.839629"><ele>1392.0</ele><time>2026-04-25T09:40:56.781Z</time></trkpt><trkpt lat="38.1004564" lon="15.8397282"><ele>1392.0</ele><time>2026-04-25T09:40:57.773Z</time></trkpt><trkpt lat="38.1006019" lon="15.839823"><ele>1392.0</ele><time>2026-04-25T09:40:58.754Z</time></trkpt><trkpt lat="38.1007509" lon="15.8399177"><ele>1386.3333333333333</ele><time>2026-04-25T09:40:59.795Z</time></trkpt><trkpt lat="38.1008947" lon="15.8400173"><ele>1380.6666666666665</ele><time>2026-04-25T09:41:00.765Z</time></trkpt><trkpt lat="38.1010307" lon="15.8401319"><ele>1375.0</ele><time>2026-04-25T09:41:01.762Z</time></trkpt><trkpt lat="38.1011736" lon="15.840247"><ele>1375.6666666666665</ele><time>2026-04-25T09:41:02.769Z</time></trkpt><trkpt lat="38.1013178" lon="15.8403587"><ele>1376.3333333333333</ele><time>2026-04-25T09:41:03.785Z</time></trkpt><trkpt lat="38.1014585" lon="15.8404671"><ele>1377.0</ele><time>2026-04-25T09:41:04.778Z</time></trkpt><trkpt lat="38.1016056" lon="15.840577"><ele>1377.0</ele><time>2026-04-25T09:41:05.775Z</time></trkpt><trkpt lat="38.1017434" lon="15.8406869"><ele>1377.0</ele><time>2026-04-25T09:41:06.786Z</time></trkpt><trkpt lat="38.1018706" lon="15.8407998"><ele>1377.0</ele><time>2026-04-25T09:41:07.818Z</time></trkpt><trkpt lat="38.101978" lon="15.8409032"><ele>1385.5</ele><time>2026-04-25T09:41:08.785Z</time></trkpt><trkpt lat="38.1020719" lon="15.840996"><ele>1394.0</ele><time>2026-04-25T09:41:09.814Z</time></trkpt><trkpt lat="38.1021524" lon="15.841105"><ele>1402.5</ele><time>2026-04-25T09:41:10.791Z</time></trkpt><trkpt lat="38.1022133" lon="15.8412361"><ele>1411.0</ele><time>2026-04-25T09:41:11.807Z</time></trkpt><trkpt lat="38.1022731" lon="15.8413461"><ele>1411.0</ele><time>2026-04-25T09:41:12.769Z</time></trkpt><trkpt lat="38.1023324" lon="15.8414225"><ele>1411.0</ele><time>2026-04-25T09:41:13.799Z</time></trkpt><trkpt lat="38.1024107" lon="15.8414803"><ele>1411.0</ele><time>2026-04-25T09:41:14.79Z</time></trkpt><trkpt lat="38.1025046" lon="15.8415162"><ele>1411.0</ele><time>2026-04-25T09:41:15.793Z</time></trkpt><trkpt lat="38.1026119" lon="15.8415455"><ele>1411.0</ele><time>2026-04-25T09:41:16.784Z</time></trkpt><trkpt lat="38.1027379" lon="15.841585"><ele>1414.0</ele><time>2026-04-25T09:41:17.79Z</time></trkpt><trkpt lat="38.1029835" lon="15.8417097"><ele>1417.0</ele><time>2026-04-25T09:41:19.686Z</time></trkpt><trkpt lat="38.1030802" lon="15.8417765"><ele>1420.0</ele><time>2026-04-25T09:41:20.686Z</time></trkpt><trkpt lat="38.1031589" lon="15.8418449"><ele>1420.0</ele><time>2026-04-25T09:41:21.686Z</time></trkpt><trkpt lat="38.1032319" lon="15.8419233"><ele>1420.0</ele><time>2026-04-25T09:41:22.677Z</time></trkpt><trkpt lat="38.1033008" lon="15.842017"><ele>1420.0</ele><time>2026-04-25T09:41:23.683Z</time></trkpt><trkpt lat="38.1033687" lon="15.8421043"><ele>1420.0</ele><time>2026-04-25T09:41:24.692Z</time></trkpt><trkpt lat="38.1034573" lon="15.8421584"><ele>1420.0</ele><time>2026-04-25T09:41:25.697Z</time></trkpt><trkpt lat="38.1035771" lon="15.8421799"><ele>1412.0</ele><time>2026-04-25T09:41:26.693Z</time></trkpt><trkpt lat="38.1036971" lon="15.8422041"><ele>1404.0</ele><time>2026-04-25T09:41:27.695Z</time></trkpt><trkpt lat="38.1038202" lon="15.8422527"><ele>1396.0</ele><time>2026-04-25T09:41:28.699Z</time></trkpt><trkpt lat="38.1039296" lon="15.8423231"><ele>1388.0</ele><time>2026-04-25T09:41:29.688Z</time></trkpt><trkpt lat="38.104026" lon="15.842415"><ele>1388.5</ele><time>2026-04-25T09:41:30.689Z</time></trkpt><trkpt lat="38.1041283" lon="15.8425397"><ele>1389.0</ele><time>2026-04-25T09:41:31.692Z</time></trkpt><trkpt lat="38.1042313" lon="15.8426815"><ele>1389.5</ele><time>2026-04-25T09:41:32.697Z</time></trkpt><trkpt lat="38.1043224" lon="15.8428112"><ele>1390.0</ele><time>2026-04-25T09:41:33.684Z</time></trkpt><trkpt lat="38.1044018" lon="15.8429163"><ele>1390.0</ele><time>2026-04-25T09:41:34.696Z</time></trkpt><trkpt lat="38.1044884" lon="15.8430006"><ele>1390.0</ele><time>2026-04-25T09:41:35.706Z</time></trkpt><trkpt lat="38.1046043" lon="15.8430527"><ele>1390.0</ele><time>2026-04-25T09:41:36.706Z</time></trkpt><trkpt lat="38.1047055" lon="15.8431131"><ele>1390.0</ele><time>2026-04-25T09:41:37.706Z</time></trkpt><trkpt lat="38.1047955" lon="15.8431849"><ele>1390.0</ele><time>2026-04-25T09:41:38.705Z</time></trkpt><trkpt lat="38.1048677" lon="15.8432724"><ele>1390.0</ele><time>2026-04-25T09:41:39.714Z</time></trkpt><trkpt lat="38.1049327" lon="15.8433853"><ele>1390.0</ele><time>2026-04-25T09:41:40.706Z</time></trkpt><trkpt lat="38.104991" lon="15.8435154"><ele>1390.0</ele><time>2026-04-25T09:41:41.697Z</time></trkpt><trkpt lat="38.1050503" lon="15.8436625"><ele>1385.75</ele><time>2026-04-25T09:41:42.7Z</time></trkpt><trkpt lat="38.1051086" lon="15.8438026"><ele>1381.5</ele><time>2026-04-25T09:41:43.711Z</time></trkpt><trkpt lat="38.1051604" lon="15.84393"><ele>1377.25</ele><time>2026-04-25T09:41:44.709Z</time></trkpt><trkpt lat="38.1052415" lon="15.8440352"><ele>1373.0</ele><time>2026-04-25T09:41:45.722Z</time></trkpt><trkpt lat="38.1053184" lon="15.8441413"><ele>1373.0</ele><time>2026-04-25T09:41:46.705Z</time></trkpt><trkpt lat="38.1053715" lon="15.8442485"><ele>1373.0</ele><time>2026-04-25T09:41:47.712Z</time></trkpt><trkpt lat="38.1054158" lon="15.8443642"><ele>1373.0</ele><time>2026-04-25T09:41:48.713Z</time></trkpt><trkpt lat="38.1054399" lon="15.8444939"><ele>1373.0</ele><time>2026-04-25T09:41:49.74Z</time></trkpt><trkpt lat="38.1054483" lon="15.8446372"><ele>1373.0</ele><time>2026-04-25T09:41:50.711Z</time></trkpt><trkpt lat="38.10544" lon="15.8447672"><ele>1374.8333333333335</ele><time>2026-04-25T09:41:51.716Z</time></trkpt><trkpt lat="38.105436" lon="15.8448699"><ele>1376.6666666666667</ele><time>2026-04-25T09:41:52.721Z</time></trkpt><trkpt lat="38.1054506" lon="15.8449649"><ele>1378.5</ele><time>2026-04-25T09:41:53.728Z</time></trkpt><trkpt lat="38.1054998" lon="15.8450349"><ele>1380.3333333333333</ele><time>2026-04-25T09:41:54.72Z</time></trkpt><trkpt lat="38.1055736" lon="15.8450603"><ele>1382.1666666666665</ele><time>2026-04-25T09:41:55.714Z</time></trkpt><trkpt lat="38.1056629" lon="15.8450555"><ele>1384.0</ele><time>2026-04-25T09:41:56.716Z</time></trkpt><trkpt lat="38.1057677" lon="15.8450281"><ele>1376.0</ele><time>2026-04-25T09:41:57.716Z</time></trkpt><trkpt lat="38.1058799" lon="15.8450099"><ele>1368.0</ele><time>2026-04-25T09:41:58.716Z</time></trkpt><trkpt lat="38.1060055" lon="15.8450093"><ele>1360.0</ele><time>2026-04-25T09:41:59.71Z</time></trkpt><trkpt lat="38.106142" lon="15.8450168"><ele>1352.0</ele><time>2026-04-25T09:42:00.731Z</time></trkpt><trkpt lat="38.1062834" lon="15.845005"><ele>1352.0</ele><time>2026-04-25T09:42:01.717Z</time></trkpt><trkpt lat="38.1064136" lon="15.8449745"><ele>1352.0</ele><time>2026-04-25T09:42:02.718Z</time></trkpt><trkpt lat="38.1065342" lon="15.8449631"><ele>1352.0</ele><time>2026-04-25T09:42:03.733Z</time></trkpt><trkpt lat="38.1066383" lon="15.8449858"><ele>1352.0</ele><time>2026-04-25T09:42:04.72Z</time></trkpt><trkpt lat="38.1067307" lon="15.8450597"><ele>1358.25</ele><time>2026-04-25T09:42:05.721Z</time></trkpt><trkpt lat="38.1068162" lon="15.8451417"><ele>1364.5</ele><time>2026-04-25T09:42:06.73Z</time></trkpt><trkpt lat="38.1069101" lon="15.8452421"><ele>1370.75</ele><time>2026-04-25T09:42:07.738Z</time></trkpt><trkpt lat="38.1070055" lon="15.8453552"><ele>1377.0</ele><time>2026-04-25T09:42:08.722Z</time></trkpt><trkpt lat="38.1070996" lon="15.8454902"><ele>1377.0</ele><time>2026-04-25T09:42:09.723Z</time></trkpt><trkpt lat="38.107196" lon="15.8456286"><ele>1377.0</ele><time>2026-04-25T09:42:10.732Z</time></trkpt><trkpt lat="38.107283" lon="15.8457735"><ele>1377.0</ele><time>2026-04-25T09:42:11.74Z</time></trkpt><trkpt lat="38.1073451" lon="15.8459223"><ele>1377.0</ele><time>2026-04-25T09:42:12.727Z</time></trkpt><trkpt lat="38.107387" lon="15.8460689"><ele>1379.25</ele><time>2026-04-25T09:42:13.732Z</time></trkpt><trkpt lat="38.1074087" lon="15.8462209"><ele>1381.5</ele><time>2026-04-25T09:42:14.719Z</time></trkpt><trkpt lat="38.1074131" lon="15.8463685"><ele>1383.75</ele><time>2026-04-25T09:42:15.732Z</time></trkpt><trkpt lat="38.1073964" lon="15.8465091"><ele>1386.0</ele><time>2026-04-25T09:42:16.726Z</time></trkpt><trkpt lat="38.1073601" lon="15.8466365"><ele>1386.0</ele><time>2026-04-25T09:42:17.729Z</time></trkpt><trkpt lat="38.1073004" lon="15.8467229"><ele>1386.0</ele><time>2026-04-25T09:42:18.733Z</time></trkpt><trkpt lat="38.1072233" lon="15.8468057"><ele>1386.0</ele><time>2026-04-25T09:42:19.741Z</time></trkpt><trkpt lat="38.1071384" lon="15.8468946"><ele>1386.0</ele><time>2026-04-25T09:42:20.731Z</time></trkpt><trkpt lat="38.1070784" lon="15.8470213"><ele>1386.0</ele><time>2026-04-25T09:42:21.742Z</time></trkpt><trkpt lat="38.1070464" lon="15.8471847"><ele>1384.4</ele><time>2026-04-25T09:42:22.734Z</time></trkpt><trkpt lat="38.1070289" lon="15.847342"><ele>1382.8</ele><time>2026-04-25T09:42:23.749Z</time></trkpt><trkpt lat="38.1070223" lon="15.8474731"><ele>1381.2</ele><time>2026-04-25T09:42:24.742Z</time></trkpt><trkpt lat="38.107027" lon="15.8475787"><ele>1379.6000000000001</ele><time>2026-04-25T09:42:25.747Z</time></trkpt><trkpt lat="38.1070501" lon="15.8476659"><ele>1378.0</ele><time>2026-04-25T09:42:26.732Z</time></trkpt><trkpt lat="38.1070945" lon="15.8477435"><ele>1377.5</ele><time>2026-04-25T09:42:27.742Z</time></trkpt><trkpt lat="38.1071596" lon="15.8477976"><ele>1377.0</ele><time>2026-04-25T09:42:28.738Z</time></trkpt><trkpt lat="38.1072382" lon="15.8478383"><ele>1376.5</ele><time>2026-04-25T09:42:29.742Z</time></trkpt><trkpt lat="38.1073177" lon="15.8478507"><ele>1376.0</ele><time>2026-04-25T09:42:30.756Z</time></trkpt><trkpt lat="38.1073949" lon="15.8478231"><ele>1375.5</ele><time>2026-04-25T09:42:31.74Z</time></trkpt><trkpt lat="38.107488" lon="15.8477833"><ele>1375.0</ele><time>2026-04-25T09:42:32.737Z</time></trkpt><trkpt lat="38.107598" lon="15.8477323"><ele>1372.25</ele><time>2026-04-25T09:42:33.734Z</time></trkpt><trkpt lat="38.1077117" lon="15.8476825"><ele>1369.5</ele><time>2026-04-25T09:42:34.744Z</time></trkpt><trkpt lat="38.1078286" lon="15.8476362"><ele>1366.75</ele><time>2026-04-25T09:42:35.731Z</time></trkpt><trkpt lat="38.1079565" lon="15.8475798"><ele>1364.0</ele><time>2026-04-25T09:42:36.736Z</time></trkpt><trkpt lat="38.1080808" lon="15.8475222"><ele>1361.0</ele><time>2026-04-25T09:42:37.751Z</time></trkpt><trkpt lat="38.1081936" lon="15.8474654"><ele>1358.0</ele><time>2026-04-25T09:42:38.75Z</time></trkpt><trkpt lat="38.108295" lon="15.8473953"><ele>1355.0</ele><time>2026-04-25T09:42:39.741Z</time></trkpt><trkpt lat="38.1083845" lon="15.8473031"><ele>1352.0</ele><time>2026-04-25T09:42:40.746Z</time></trkpt><trkpt lat="38.1084632" lon="15.8471929"><ele>1352.0</ele><time>2026-04-25T09:42:41.747Z</time></trkpt><trkpt lat="38.1085395" lon="15.8470788"><ele>1352.0</ele><time>2026-04-25T09:42:42.743Z</time></trkpt><trkpt lat="38.1086289" lon="15.8469813"><ele>1352.0</ele><time>2026-04-25T09:42:43.741Z</time></trkpt><trkpt lat="38.1087367" lon="15.8469035"><ele>1352.0</ele><time>2026-04-25T09:42:44.741Z</time></trkpt><trkpt lat="38.1088563" lon="15.8468289"><ele>1352.75</ele><time>2026-04-25T09:42:45.746Z</time></trkpt><trkpt lat="38.108968" lon="15.8467443"><ele>1353.5</ele><time>2026-04-25T09:42:46.748Z</time></trkpt><trkpt lat="38.1090778" lon="15.84666"><ele>1354.25</ele><time>2026-04-25T09:42:47.744Z</time></trkpt><trkpt lat="38.1091891" lon="15.8465774"><ele>1355.0</ele><time>2026-04-25T09:42:48.743Z</time></trkpt><trkpt lat="38.1092793" lon="15.8464812"><ele>1355.0</ele><time>2026-04-25T09:42:49.74Z</time></trkpt><trkpt lat="38.1093356" lon="15.8463635"><ele>1355.0</ele><time>2026-04-25T09:42:50.74Z</time></trkpt><trkpt lat="38.1093783" lon="15.846248"><ele>1355.0</ele><time>2026-04-25T09:42:51.755Z</time></trkpt><trkpt lat="38.1094245" lon="15.8461485"><ele>1355.0</ele><time>2026-04-25T09:42:52.76Z</time></trkpt><trkpt lat="38.109479" lon="15.8460553"><ele>1355.0</ele><time>2026-04-25T09:42:53.747Z</time></trkpt><trkpt lat="38.1095493" lon="15.845996"><ele>1355.0</ele><time>2026-04-25T09:42:54.748Z</time></trkpt><trkpt lat="38.1096252" lon="15.8459663"><ele>1355.0</ele><time>2026-04-25T09:42:55.754Z</time></trkpt><trkpt lat="38.1097077" lon="15.8459607"><ele>1355.0</ele><time>2026-04-25T09:42:56.748Z</time></trkpt><trkpt lat="38.1097953" lon="15.8459863"><ele>1355.0</ele><time>2026-04-25T09:42:57.741Z</time></trkpt><trkpt lat="38.1098746" lon="15.8460092"><ele>1355.0</ele><time>2026-04-25T09:42:58.748Z</time></trkpt><trkpt lat="38.1099528" lon="15.846002"><ele>1355.0</ele><time>2026-04-25T09:42:59.753Z</time></trkpt><trkpt lat="38.1100194" lon="15.8459648"><ele>1355.6</ele><time>2026-04-25T09:43:00.759Z</time></trkpt><trkpt lat="38.1100656" lon="15.8458673"><ele>1356.2</ele><time>2026-04-25T09:43:01.759Z</time></trkpt><trkpt lat="38.1100933" lon="15.8457624"><ele>1356.8000000000002</ele><time>2026-04-25T09:43:02.752Z</time></trkpt><trkpt lat="38.1101122" lon="15.845659"><ele>1357.4</ele><time>2026-04-25T09:43:03.758Z</time></trkpt><trkpt lat="38.1101305" lon="15.8455435"><ele>1358.0</ele><time>2026-04-25T09:43:04.744Z</time></trkpt><trkpt lat="38.1101479" lon="15.8454065"><ele>1358.0</ele><time>2026-04-25T09:43:05.76Z</time></trkpt><trkpt lat="38.1101524" lon="15.8452508"><ele>1358.0</ele><time>2026-04-25T09:43:06.743Z</time></trkpt><trkpt lat="38.1101383" lon="15.8450876"><ele>1358.0</ele><time>2026-04-25T09:43:07.753Z</time></trkpt><trkpt lat="38.1101162" lon="15.8449332"><ele>1358.0</ele><time>2026-04-25T09:43:08.744Z</time></trkpt><trkpt lat="38.1100767" lon="15.8448023"><ele>1359.0</ele><time>2026-04-25T09:43:09.739Z</time></trkpt><trkpt lat="38.1100049" lon="15.8446922"><ele>1360.0</ele><time>2026-04-25T09:43:10.766Z</time></trkpt><trkpt lat="38.1098956" lon="15.8445826"><ele>1361.0</ele><time>2026-04-25T09:43:11.743Z</time></trkpt><trkpt lat="38.1097648" lon="15.8444605"><ele>1362.0</ele><time>2026-04-25T09:43:12.748Z</time></trkpt><trkpt lat="38.1096486" lon="15.8443379"><ele>1364.0</ele><time>2026-04-25T09:43:13.755Z</time></trkpt><trkpt lat="38.1095327" lon="15.8442236"><ele>1366.0</ele><time>2026-04-25T09:43:14.742Z</time></trkpt><trkpt lat="38.1094248" lon="15.8441292"><ele>1368.0</ele><time>2026-04-25T09:43:15.743Z</time></trkpt><trkpt lat="38.109316" lon="15.8440382"><ele>1370.0</ele><time>2026-04-25T09:43:16.751Z</time></trkpt><trkpt lat="38.1092045" lon="15.8439516"><ele>1370.0</ele><time>2026-04-25T09:43:17.748Z</time></trkpt><trkpt lat="38.1091058" lon="15.8438603"><ele>1370.0</ele><time>2026-04-25T09:43:18.742Z</time></trkpt><trkpt lat="38.1090208" lon="15.8437771"><ele>1370.0</ele><time>2026-04-25T09:43:19.737Z</time></trkpt><trkpt lat="38.1089457" lon="15.8436887"><ele>1370.0</ele><time>2026-04-25T09:43:20.743Z</time></trkpt><trkpt lat="38.1088756" lon="15.8436108"><ele>1370.0</ele><time>2026-04-25T09:43:21.744Z</time></trkpt><trkpt lat="38.1088191" lon="15.8435176"><ele>1364.2</ele><time>2026-04-25T09:43:22.743Z</time></trkpt><trkpt lat="38.1087892" lon="15.8434089"><ele>1358.4</ele><time>2026-04-25T09:43:23.743Z</time></trkpt><trkpt lat="38.1087582" lon="15.8433029"><ele>1352.6</ele><time>2026-04-25T09:43:24.738Z</time></trkpt><trkpt lat="38.1087406" lon="15.8431725"><ele>1346.8</ele><time>2026-04-25T09:43:25.736Z</time></trkpt><trkpt lat="38.1087171" lon="15.8430425"><ele>1341.0</ele><time>2026-04-25T09:43:26.739Z</time></trkpt><trkpt lat="38.1086787" lon="15.8428875"><ele>1341.0</ele><time>2026-04-25T09:43:27.739Z</time></trkpt><trkpt lat="38.1086171" lon="15.8427094"><ele>1341.0</ele><time>2026-04-25T09:43:28.745Z</time></trkpt><trkpt lat="38.1085461" lon="15.8425182"><ele>1341.0</ele><time>2026-04-25T09:43:29.752Z</time></trkpt><trkpt lat="38.1084657" lon="15.8423483"><ele>1346.25</ele><time>2026-04-25T09:43:30.746Z</time></trkpt><trkpt lat="38.1084177" lon="15.8421889"><ele>1351.5</ele><time>2026-04-25T09:43:31.748Z</time></trkpt><trkpt lat="38.1083825" lon="15.8420488"><ele>1356.75</ele><time>2026-04-25T09:43:32.741Z</time></trkpt><trkpt lat="38.1083705" lon="15.8418972"><ele>1362.0</ele><time>2026-04-25T09:43:33.734Z</time></trkpt><trkpt lat="38.1083583" lon="15.8417375"><ele>1365.0</ele><time>2026-04-25T09:43:34.74Z</time></trkpt><trkpt lat="38.1083459" lon="15.8415895"><ele>1368.0</ele><time>2026-04-25T09:43:35.738Z</time></trkpt><trkpt lat="38.1083457" lon="15.841456"><ele>1371.0</ele><time>2026-04-25T09:43:36.749Z</time></trkpt><trkpt lat="38.1083652" lon="15.8413465"><ele>1374.0</ele><time>2026-04-25T09:43:37.741Z</time></trkpt><trkpt lat="38.1084101" lon="15.8412653"><ele>1377.0</ele><time>2026-04-25T09:43:38.743Z</time></trkpt><trkpt lat="38.1084707" lon="15.8412342"><ele>1377.0</ele><time>2026-04-25T09:43:39.736Z</time></trkpt><trkpt lat="38.1085597" lon="15.8412556"><ele>1377.0</ele><time>2026-04-25T09:43:40.734Z</time></trkpt><trkpt lat="38.1086655" lon="15.8413219"><ele>1377.0</ele><time>2026-04-25T09:43:41.743Z</time></trkpt><trkpt lat="38.1087738" lon="15.8413836"><ele>1377.0</ele><time>2026-04-25T09:43:42.737Z</time></trkpt><trkpt lat="38.108882" lon="15.8414477"><ele>1377.0</ele><time>2026-04-25T09:43:43.74Z</time></trkpt><trkpt lat="38.1090109" lon="15.841509"><ele>1380.25</ele><time>2026-04-25T09:43:44.75Z</time></trkpt><trkpt lat="38.1091394" lon="15.841563"><ele>1383.5</ele><time>2026-04-25T09:43:45.736Z</time></trkpt><trkpt lat="38.1092601" lon="15.8416064"><ele>1386.75</ele><time>2026-04-25T09:43:46.733Z</time></trkpt><trkpt lat="38.1093778" lon="15.8416275"><ele>1390.0</ele><time>2026-04-25T09:43:47.748Z</time></trkpt><trkpt lat="38.1094829" lon="15.8416353"><ele>1390.0</ele><time>2026-04-25T09:43:48.735Z</time></trkpt><trkpt lat="38.1095789" lon="15.8416189"><ele>1390.0</ele><time>2026-04-25T09:43:49.737Z</time></trkpt><trkpt lat="38.1096573" lon="15.8415864"><ele>1390.0</ele><time>2026-04-25T09:43:50.747Z</time></trkpt><trkpt lat="38.1097246" lon="15.8415517"><ele>1390.0</ele><time>2026-04-25T09:43:51.744Z</time></trkpt><trkpt lat="38.1097751" lon="15.8414692"><ele>1390.0</ele><time>2026-04-25T09:43:52.733Z</time></trkpt><trkpt lat="38.1098045" lon="15.8412986"><ele>1390.0</ele><time>2026-04-25T09:43:53.737Z</time></trkpt><trkpt lat="38.1098217" lon="15.8411375"><ele>1390.0</ele><time>2026-04-25T09:43:54.741Z</time></trkpt><trkpt lat="38.1098376" lon="15.8410008"><ele>1390.0</ele><time>2026-04-25T09:43:55.73Z</time></trkpt><trkpt lat="38.109852" lon="15.8408774"><ele>1390.0</ele><time>2026-04-25T09:43:56.735Z</time></trkpt><trkpt lat="38.1098838" lon="15.8407686"><ele>1390.0</ele><time>2026-04-25T09:43:57.726Z</time></trkpt><trkpt lat="38.1099385" lon="15.84067"><ele>1390.25</ele><time>2026-04-25T09:43:58.733Z</time></trkpt><trkpt lat="38.1100035" lon="15.8405985"><ele>1390.5</ele><time>2026-04-25T09:43:59.734Z</time></trkpt><trkpt lat="38.1101101" lon="15.8405561"><ele>1390.75</ele><time>2026-04-25T09:44:00.729Z</time></trkpt><trkpt lat="38.1102455" lon="15.840561"><ele>1391.0</ele><time>2026-04-25T09:44:01.732Z</time></trkpt><trkpt lat="38.1103607" lon="15.8406167"><ele>1391.0</ele><time>2026-04-25T09:44:02.736Z</time></trkpt><trkpt lat="38.1104682" lon="15.8406519"><ele>1391.0</ele><time>2026-04-25T09:44:03.733Z</time></trkpt><trkpt lat="38.1105877" lon="15.8407063"><ele>1391.0</ele><time>2026-04-25T09:44:04.744Z</time></trkpt><trkpt lat="38.110708" lon="15.8408102"><ele>1391.0</ele><time>2026-04-25T09:44:05.727Z</time></trkpt><trkpt lat="38.1108319" lon="15.8409399"><ele>1398.3333333333335</ele><time>2026-04-25T09:44:06.723Z</time></trkpt><trkpt lat="38.1109452" lon="15.8410583"><ele>1405.6666666666667</ele><time>2026-04-25T09:44:07.725Z</time></trkpt><trkpt lat="38.1110584" lon="15.8411864"><ele>1413.0</ele><time>2026-04-25T09:44:08.731Z</time></trkpt><trkpt lat="38.1111804" lon="15.8413232"><ele>1413.0</ele><time>2026-04-25T09:44:09.726Z</time></trkpt><trkpt lat="38.1112949" lon="15.8414654"><ele>1413.0</ele><time>2026-04-25T09:44:10.727Z</time></trkpt><trkpt lat="38.1114005" lon="15.8416022"><ele>1413.0</ele><time>2026-04-25T09:44:11.73Z</time></trkpt><trkpt lat="38.1114968" lon="15.841725"><ele>1413.0</ele><time>2026-04-25T09:44:12.739Z</time></trkpt><trkpt lat="38.1115838" lon="15.8418516"><ele>1412.5</ele><time>2026-04-25T09:44:13.76Z</time></trkpt><trkpt lat="38.1116586" lon="15.8419984"><ele>1412.0</ele><time>2026-04-25T09:44:14.73Z</time></trkpt><trkpt lat="38.1117237" lon="15.8421462"><ele>1411.5</ele><time>2026-04-25T09:44:15.723Z</time></trkpt><trkpt lat="38.1117723" lon="15.84227"><ele>1411.0</ele><time>2026-04-25T09:44:16.732Z</time></trkpt><trkpt lat="38.1118185" lon="15.8423857"><ele>1411.0</ele><time>2026-04-25T09:44:17.736Z</time></trkpt><trkpt lat="38.111883" lon="15.8424761"><ele>1411.0</ele><time>2026-04-25T09:44:18.728Z</time></trkpt><trkpt lat="38.1119707" lon="15.8425338"><ele>1411.0</ele><time>2026-04-25T09:44:19.723Z</time></trkpt><trkpt lat="38.1120623" lon="15.8425652"><ele>1411.0</ele><time>2026-04-25T09:44:20.731Z</time></trkpt><trkpt lat="38.1121631" lon="15.8425854"><ele>1411.0</ele><time>2026-04-25T09:44:21.735Z</time></trkpt><trkpt lat="38.112293" lon="15.8426129"><ele>1414.25</ele><time>2026-04-25T09:44:22.726Z</time></trkpt><trkpt lat="38.1124273" lon="15.8426449"><ele>1417.5</ele><time>2026-04-25T09:44:23.733Z</time></trkpt><trkpt lat="38.1125593" lon="15.8426975"><ele>1420.75</ele><time>2026-04-25T09:44:24.727Z</time></trkpt><trkpt lat="38.1126967" lon="15.8427395"><ele>1424.0</ele><time>2026-04-25T09:44:25.733Z</time></trkpt><trkpt lat="38.1128191" lon="15.8427675"><ele>1424.0</ele><time>2026-04-25T09:44:26.731Z</time></trkpt><trkpt lat="38.1129478" lon="15.8427975"><ele>1424.0</ele><time>2026-04-25T09:44:27.728Z</time></trkpt><trkpt lat="38.113072" lon="15.8428092"><ele>1424.0</ele><time>2026-04-25T09:44:28.72Z</time></trkpt><trkpt lat="38.1131898" lon="15.842824"><ele>1424.0</ele><time>2026-04-25T09:44:29.724Z</time></trkpt><trkpt lat="38.1133048" lon="15.8428415"><ele>1422.4</ele><time>2026-04-25T09:44:30.731Z</time></trkpt><trkpt lat="38.1134128" lon="15.8428958"><ele>1420.8000000000002</ele><time>2026-04-25T09:44:31.717Z</time></trkpt><trkpt lat="38.1135083" lon="15.8429594"><ele>1419.1999999999998</ele><time>2026-04-25T09:44:32.739Z</time></trkpt><trkpt lat="38.1136042" lon="15.8429892"><ele>1417.6</ele><time>2026-04-25T09:44:33.722Z</time></trkpt><trkpt lat="38.1136967" lon="15.8429663"><ele>1416.0</ele><time>2026-04-25T09:44:34.736Z</time></trkpt><trkpt lat="38.1137679" lon="15.8429327"><ele>1416.0</ele><time>2026-04-25T09:44:35.727Z</time></trkpt><trkpt lat="38.113843" lon="15.8428733"><ele>1416.0</ele><time>2026-04-25T09:44:36.732Z</time></trkpt><trkpt lat="38.113932" lon="15.8428067"><ele>1416.0</ele><time>2026-04-25T09:44:37.731Z</time></trkpt><trkpt lat="38.1140328" lon="15.8428125"><ele>1416.0</ele><time>2026-04-25T09:44:38.726Z</time></trkpt><trkpt lat="38.1141175" lon="15.8428897"><ele>1416.0</ele><time>2026-04-25T09:44:39.73Z</time></trkpt><trkpt lat="38.1141844" lon="15.8429918"><ele>1412.6</ele><time>2026-04-25T09:44:40.733Z</time></trkpt><trkpt lat="38.1142535" lon="15.8431253"><ele>1409.1999999999998</ele><time>2026-04-25T09:44:41.723Z</time></trkpt><trkpt lat="38.1143362" lon="15.8432354"><ele>1405.8000000000002</ele><time>2026-04-25T09:44:42.723Z</time></trkpt><trkpt lat="38.1144152" lon="15.8433285"><ele>1402.4</ele><time>2026-04-25T09:44:43.714Z</time></trkpt><trkpt lat="38.1144854" lon="15.8433779"><ele>1399.0</ele><time>2026-04-25T09:44:44.722Z</time></trkpt><trkpt lat="38.1145673" lon="15.8433989"><ele>1399.0</ele><time>2026-04-25T09:44:45.724Z</time></trkpt><trkpt lat="38.114651" lon="15.8434072"><ele>1399.0</ele><time>2026-04-25T09:44:46.723Z</time></trkpt><trkpt lat="38.1147436" lon="15.8433896"><ele>1399.0</ele><time>2026-04-25T09:44:47.729Z</time></trkpt><trkpt lat="38.1148488" lon="15.843359"><ele>1399.0</ele><time>2026-04-25T09:44:48.721Z</time></trkpt><trkpt lat="38.1149599" lon="15.8432825"><ele>1399.0</ele><time>2026-04-25T09:44:49.72Z</time></trkpt><trkpt lat="38.1150639" lon="15.8431835"><ele>1396.2</ele><time>2026-04-25T09:44:50.714Z</time></trkpt><trkpt lat="38.1151597" lon="15.8430788"><ele>1393.4</ele><time>2026-04-25T09:44:51.717Z</time></trkpt><trkpt lat="38.1152534" lon="15.8429847"><ele>1390.6</ele><time>2026-04-25T09:44:52.713Z</time></trkpt><trkpt lat="38.1153439" lon="15.8429223"><ele>1387.8</ele><time>2026-04-25T09:44:53.714Z</time></trkpt><trkpt lat="38.1154382" lon="15.8428898"><ele>1385.0</ele><time>2026-04-25T09:44:54.716Z</time></trkpt><trkpt lat="38.1155448" lon="15.842887"><ele>1385.0</ele><time>2026-04-25T09:44:55.73Z</time></trkpt><trkpt lat="38.1156429" lon="15.8429093"><ele>1385.0</ele><time>2026-04-25T09:44:56.716Z</time></trkpt><trkpt lat="38.1157332" lon="15.8429803"><ele>1385.0</ele><time>2026-04-25T09:44:57.726Z</time></trkpt><trkpt lat="38.1158278" lon="15.8430627"><ele>1385.0</ele><time>2026-04-25T09:44:58.725Z</time></trkpt><trkpt lat="38.1159294" lon="15.8431315"><ele>1385.0</ele><time>2026-04-25T09:44:59.716Z</time></trkpt><trkpt lat="38.1160438" lon="15.8431751"><ele>1387.25</ele><time>2026-04-25T09:45:00.729Z</time></trkpt><trkpt lat="38.1161671" lon="15.8432034"><ele>1389.5</ele><time>2026-04-25T09:45:01.713Z</time></trkpt><trkpt lat="38.1162979" lon="15.8432043"><ele>1391.75</ele><time>2026-04-25T09:45:02.711Z</time></trkpt><trkpt lat="38.1164295" lon="15.8431886"><ele>1394.0</ele><time>2026-04-25T09:45:03.709Z</time></trkpt><trkpt lat="38.1165414" lon="15.8431469"><ele>1390.4</ele><time>2026-04-25T09:45:04.727Z</time></trkpt><trkpt lat="38.1166424" lon="15.8431148"><ele>1386.8000000000002</ele><time>2026-04-25T09:45:05.71Z</time></trkpt><trkpt lat="38.1167344" lon="15.8431198"><ele>1383.1999999999998</ele><time>2026-04-25T09:45:06.729Z</time></trkpt><trkpt lat="38.1168308" lon="15.8431694"><ele>1379.6</ele><time>2026-04-25T09:45:07.712Z</time></trkpt><trkpt lat="38.1169342" lon="15.8432351"><ele>1376.0</ele><time>2026-04-25T09:45:08.717Z</time></trkpt><trkpt lat="38.117056" lon="15.8433015"><ele>1376.0</ele><time>2026-04-25T09:45:09.722Z</time></trkpt><trkpt lat="38.1171794" lon="15.843366"><ele>1376.0</ele><time>2026-04-25T09:45:10.718Z</time></trkpt><trkpt lat="38.1172808" lon="15.8434249"><ele>1376.0</ele><time>2026-04-25T09:45:11.716Z</time></trkpt><trkpt lat="38.1173761" lon="15.8434721"><ele>1376.0</ele><time>2026-04-25T09:45:12.721Z</time></trkpt><trkpt lat="38.1174699" lon="15.8434923"><ele>1376.0</ele><time>2026-04-25T09:45:13.713Z</time></trkpt><trkpt lat="38.1175588" lon="15.8434913"><ele>1375.3333333333335</ele><time>2026-04-25T09:45:14.727Z</time></trkpt><trkpt lat="38.1176364" lon="15.8434709"><ele>1374.6666666666667</ele><time>2026-04-25T09:45:15.714Z</time></trkpt><trkpt lat="38.1176841" lon="15.8434166"><ele>1374.0</ele><time>2026-04-25T09:45:16.715Z</time></trkpt><trkpt lat="38.1177103" lon="15.8433363"><ele>1373.3333333333333</ele><time>2026-04-25T09:45:17.722Z</time></trkpt><trkpt lat="38.1177159" lon="15.8432378"><ele>1372.6666666666665</ele><time>2026-04-25T09:45:18.728Z</time></trkpt><trkpt lat="38.1177142" lon="15.8431331"><ele>1372.0</ele><time>2026-04-25T09:45:19.72Z</time></trkpt><trkpt lat="38.1176919" lon="15.8430168"><ele>1372.0</ele><time>2026-04-25T09:45:20.728Z</time></trkpt><trkpt lat="38.1176601" lon="15.8428991"><ele>1372.0</ele><time>2026-04-25T09:45:21.714Z</time></trkpt><trkpt lat="38.1176068" lon="15.8427773"><ele>1372.0</ele><time>2026-04-25T09:45:22.72Z</time></trkpt><trkpt lat="38.117528" lon="15.8426617"><ele>1372.0</ele><time>2026-04-25T09:45:23.73Z</time></trkpt><trkpt lat="38.1174437" lon="15.8425543"><ele>1372.0</ele><time>2026-04-25T09:45:24.723Z</time></trkpt><trkpt lat="38.1173717" lon="15.8424445"><ele>1368.5</ele><time>2026-04-25T09:45:25.728Z</time></trkpt><trkpt lat="38.1173175" lon="15.8423101"><ele>1365.0</ele><time>2026-04-25T09:45:26.729Z</time></trkpt><trkpt lat="38.1172738" lon="15.842176"><ele>1361.5</ele><time>2026-04-25T09:45:27.733Z</time></trkpt><trkpt lat="38.117226" lon="15.8420287"><ele>1358.0</ele><time>2026-04-25T09:45:28.739Z</time></trkpt><trkpt lat="38.1171724" lon="15.8418874"><ele>1363.75</ele><time>2026-04-25T09:45:29.73Z</time></trkpt><trkpt lat="38.1171017" lon="15.841758"><ele>1369.5</ele><time>2026-04-25T09:45:30.723Z</time></trkpt><trkpt lat="38.1170086" lon="15.8416622"><ele>1375.25</ele><time>2026-04-25T09:45:31.731Z</time></trkpt><trkpt lat="38.1168996" lon="15.8416104"><ele>1381.0</ele><time>2026-04-25T09:45:32.737Z</time></trkpt><trkpt lat="38.1167738" lon="15.8415743"><ele>1381.0</ele><time>2026-04-25T09:45:33.723Z</time></trkpt><trkpt lat="38.1166428" lon="15.841532"><ele>1381.0</ele><time>2026-04-25T09:45:34.722Z</time></trkpt><trkpt lat="38.1165069" lon="15.8414788"><ele>1381.0</ele><time>2026-04-25T09:45:35.731Z</time></trkpt><trkpt lat="38.1163723" lon="15.8414215"><ele>1381.0</ele><time>2026-04-25T09:45:36.73Z</time></trkpt><trkpt lat="38.1162594" lon="15.8413481"><ele>1374.75</ele><time>2026-04-25T09:45:37.736Z</time></trkpt><trkpt lat="38.1161425" lon="15.8412673"><ele>1368.5</ele><time>2026-04-25T09:45:38.73Z</time></trkpt><trkpt lat="38.1160238" lon="15.8411903"><ele>1362.25</ele><time>2026-04-25T09:45:39.733Z</time></trkpt><trkpt lat="38.1159278" lon="15.8411171"><ele>1356.0</ele><time>2026-04-25T09:45:40.724Z</time></trkpt><trkpt lat="38.1158518" lon="15.8410059"><ele>1352.75</ele><time>2026-04-25T09:45:41.724Z</time></trkpt><trkpt lat="38.1157957" lon="15.8408869"><ele>1349.5</ele><time>2026-04-25T09:45:42.742Z</time></trkpt><trkpt lat="38.1157432" lon="15.840748"><ele>1346.25</ele><time>2026-04-25T09:45:43.727Z</time></trkpt><trkpt lat="38.1156761" lon="15.8406011"><ele>1343.0</ele><time>2026-04-25T09:45:44.733Z</time></trkpt><trkpt lat="38.1155919" lon="15.8404491"><ele>1343.0</ele><time>2026-04-25T09:45:45.738Z</time></trkpt><trkpt lat="38.1154911" lon="15.8402913"><ele>1343.0</ele><time>2026-04-25T09:45:46.74Z</time></trkpt><trkpt lat="38.115385" lon="15.8401329"><ele>1343.0</ele><time>2026-04-25T09:45:47.724Z</time></trkpt><trkpt lat="38.1152753" lon="15.8399754"><ele>1349.75</ele><time>2026-04-25T09:45:48.725Z</time></trkpt><trkpt lat="38.1151803" lon="15.8398185"><ele>1356.5</ele><time>2026-04-25T09:45:49.734Z</time></trkpt><trkpt lat="38.1150994" lon="15.8396767"><ele>1363.25</ele><time>2026-04-25T09:45:50.732Z</time></trkpt><trkpt lat="38.1150439" lon="15.8395519"><ele>1370.0</ele><time>2026-04-25T09:45:51.725Z</time></trkpt><trkpt lat="38.1150175" lon="15.8394315"><ele>1370.0</ele><time>2026-04-25T09:45:52.731Z</time></trkpt><trkpt lat="38.1150098" lon="15.8393248"><ele>1370.0</ele><time>2026-04-25T09:45:53.741Z</time></trkpt><trkpt lat="38.115016" lon="15.8391989"><ele>1370.0</ele><time>2026-04-25T09:45:54.739Z</time></trkpt><trkpt lat="38.1150415" lon="15.8390748"><ele>1370.0</ele><time>2026-04-25T09:45:55.735Z</time></trkpt><trkpt lat="38.1150705" lon="15.8389664"><ele>1370.0</ele><time>2026-04-25T09:45:56.731Z</time></trkpt><trkpt lat="38.1151276" lon="15.8388613"><ele>1370.0</ele><time>2026-04-25T09:45:57.727Z</time></trkpt><trkpt lat="38.1151995" lon="15.8387498"><ele>1370.0</ele><time>2026-04-25T09:45:58.726Z</time></trkpt><trkpt lat="38.1152824" lon="15.8386363"><ele>1370.0</ele><time>2026-04-25T09:45:59.73Z</time></trkpt><trkpt lat="38.1153874" lon="15.8385112"><ele>1370.0</ele><time>2026-04-25T09:46:00.732Z</time></trkpt><trkpt lat="38.1154781" lon="15.8383897"><ele>1370.0</ele><time>2026-04-25T09:46:01.731Z</time></trkpt><trkpt lat="38.1155659" lon="15.8382628"><ele>1370.0</ele><time>2026-04-25T09:46:02.723Z</time></trkpt><trkpt lat="38.1156535" lon="15.8381345"><ele>1370.0</ele><time>2026-04-25T09:46:03.749Z</time></trkpt><trkpt lat="38.1157369" lon="15.8380095"><ele>1370.0</ele><time>2026-04-25T09:46:04.735Z</time></trkpt><trkpt lat="38.1158138" lon="15.8378935"><ele>1377.0</ele><time>2026-04-25T09:46:05.729Z</time></trkpt><trkpt lat="38.1158907" lon="15.8377981"><ele>1384.0</ele><time>2026-04-25T09:46:06.73Z</time></trkpt><trkpt lat="38.1159744" lon="15.8377153"><ele>1391.0</ele><time>2026-04-25T09:46:07.737Z</time></trkpt><trkpt lat="38.1160791" lon="15.8376682"><ele>1398.0</ele><time>2026-04-25T09:46:08.735Z</time></trkpt><trkpt lat="38.1162057" lon="15.8376535"><ele>1398.0</ele><time>2026-04-25T09:46:09.74Z</time></trkpt><trkpt lat="38.1163464" lon="15.8376689"><ele>1398.0</ele><time>2026-04-25T09:46:10.736Z</time></trkpt><trkpt lat="38.1164815" lon="15.8377023"><ele>1398.0</ele><time>2026-04-25T09:46:11.737Z</time></trkpt><trkpt lat="38.1166187" lon="15.8377257"><ele>1398.0</ele><time>2026-04-25T09:46:12.73Z</time></trkpt><trkpt lat="38.1167522" lon="15.8377389"><ele>1401.5</ele><time>2026-04-25T09:46:13.737Z</time></trkpt><trkpt lat="38.1168759" lon="15.8377246"><ele>1405.0</ele><time>2026-04-25T09:46:14.729Z</time></trkpt><trkpt lat="38.1169971" lon="15.8376797"><ele>1408.5</ele><time>2026-04-25T09:46:15.736Z</time></trkpt><trkpt lat="38.117094" lon="15.8375796"><ele>1412.0</ele><time>2026-04-25T09:46:16.742Z</time></trkpt><trkpt lat="38.1171746" lon="15.8374299"><ele>1404.25</ele><time>2026-04-25T09:46:17.751Z</time></trkpt><trkpt lat="38.1172251" lon="15.8372484"><ele>1396.5</ele><time>2026-04-25T09:46:18.744Z</time></trkpt><trkpt lat="38.1172542" lon="15.8370842"><ele>1388.75</ele><time>2026-04-25T09:46:19.731Z</time></trkpt><trkpt lat="38.1172926" lon="15.836942"><ele>1381.0</ele><time>2026-04-25T09:46:20.741Z</time></trkpt><trkpt lat="38.1173431" lon="15.8368185"><ele>1381.5</ele><time>2026-04-25T09:46:21.739Z</time></trkpt><trkpt lat="38.1174305" lon="15.8367155"><ele>1382.0</ele><time>2026-04-25T09:46:22.73Z</time></trkpt><trkpt lat="38.1175391" lon="15.8366275"><ele>1382.5</ele><time>2026-04-25T09:46:23.732Z</time></trkpt><trkpt lat="38.1176611" lon="15.8365379"><ele>1383.0</ele><time>2026-04-25T09:46:24.74Z</time></trkpt><trkpt lat="38.1177916" lon="15.8364453"><ele>1383.0</ele><time>2026-04-25T09:46:25.731Z</time></trkpt><trkpt lat="38.1179263" lon="15.8363522"><ele>1383.0</ele><time>2026-04-25T09:46:26.736Z</time></trkpt><trkpt lat="38.1180734" lon="15.8362609"><ele>1383.0</ele><time>2026-04-25T09:46:27.749Z</time></trkpt><trkpt lat="38.1182268" lon="15.8361696"><ele>1381.3333333333333</ele><time>2026-04-25T09:46:28.743Z</time></trkpt><trkpt lat="38.1183796" lon="15.8360812"><ele>1379.6666666666665</ele><time>2026-04-25T09:46:29.738Z</time></trkpt><trkpt lat="38.1185242" lon="15.8359965"><ele>1378.0</ele><time>2026-04-25T09:46:30.732Z</time></trkpt><trkpt lat="38.1186469" lon="15.8358959"><ele>1378.0</ele><time>2026-04-25T09:46:31.739Z</time></trkpt><trkpt lat="38.1187409" lon="15.8357503"><ele>1378.0</ele><time>2026-04-25T09:46:32.736Z</time></trkpt><trkpt lat="38.1188084" lon="15.8355879"><ele>1378.0</ele><time>2026-04-25T09:46:33.744Z</time></trkpt><trkpt lat="38.1188693" lon="15.8354143"><ele>1378.0</ele><time>2026-04-25T09:46:34.748Z</time></trkpt><trkpt lat="38.1189239" lon="15.8352704"><ele>1378.0</ele><time>2026-04-25T09:46:35.758Z</time></trkpt><trkpt lat="38.1189937" lon="15.8351523"><ele>1378.0</ele><time>2026-04-25T09:46:36.758Z</time></trkpt><trkpt lat="38.1190798" lon="15.8350846"><ele>1378.0</ele><time>2026-04-25T09:46:37.764Z</time></trkpt><trkpt lat="38.1191905" lon="15.835046"><ele>1378.0</ele><time>2026-04-25T09:46:38.736Z</time></trkpt><trkpt lat="38.1193104" lon="15.8350228"><ele>1379.0</ele><time>2026-04-25T09:46:39.736Z</time></trkpt><trkpt lat="38.1194272" lon="15.834997"><ele>1380.0</ele><time>2026-04-25T09:46:40.744Z</time></trkpt><trkpt lat="38.1195218" lon="15.8349938"><ele>1381.0</ele><time>2026-04-25T09:46:41.749Z</time></trkpt><trkpt lat="38.1196243" lon="15.8350622"><ele>1382.0</ele><time>2026-04-25T09:46:43.738Z</time></trkpt><trkpt lat="38.1196266" lon="15.8352156"><ele>1386.6</ele><time>2026-04-25T09:46:45.757Z</time></trkpt><trkpt lat="38.1196004" lon="15.8353253"><ele>1391.1999999999998</ele><time>2026-04-25T09:46:46.744Z</time></trkpt><trkpt lat="38.1195781" lon="15.8354474"><ele>1395.8</ele><time>2026-04-25T09:46:47.747Z</time></trkpt><trkpt lat="38.1195786" lon="15.8355712"><ele>1400.4</ele><time>2026-04-25T09:46:48.743Z</time></trkpt><trkpt lat="38.1196135" lon="15.8356861"><ele>1405.0</ele><time>2026-04-25T09:46:49.737Z</time></trkpt><trkpt lat="38.1196626" lon="15.8357931"><ele>1405.0</ele><time>2026-04-25T09:46:50.744Z</time></trkpt><trkpt lat="38.1197319" lon="15.835872"><ele>1405.0</ele><time>2026-04-25T09:46:51.739Z</time></trkpt><trkpt lat="38.1198205" lon="15.8359266"><ele>1405.0</ele><time>2026-04-25T09:46:52.742Z</time></trkpt><trkpt lat="38.1199166" lon="15.8359701"><ele>1405.0</ele><time>2026-04-25T09:46:53.746Z</time></trkpt><trkpt lat="38.1200139" lon="15.8359998"><ele>1405.0</ele><time>2026-04-25T09:46:54.751Z</time></trkpt><trkpt lat="38.12012" lon="15.8360019"><ele>1413.25</ele><time>2026-04-25T09:46:55.755Z</time></trkpt><trkpt lat="38.1202394" lon="15.8359828"><ele>1421.5</ele><time>2026-04-25T09:46:56.753Z</time></trkpt><trkpt lat="38.1203695" lon="15.8359885"><ele>1429.75</ele><time>2026-04-25T09:46:57.762Z</time></trkpt><trkpt lat="38.120501" lon="15.8360128"><ele>1438.0</ele><time>2026-04-25T09:46:58.755Z</time></trkpt><trkpt lat="38.1206285" lon="15.8360375"><ele>1439.6000000000001</ele><time>2026-04-25T09:46:59.763Z</time></trkpt><trkpt lat="38.1207388" lon="15.8360497"><ele>1441.2</ele><time>2026-04-25T09:47:00.744Z</time></trkpt><trkpt lat="38.1208383" lon="15.8360181"><ele>1442.8</ele><time>2026-04-25T09:47:01.738Z</time></trkpt><trkpt lat="38.1209204" lon="15.8359499"><ele>1444.4</ele><time>2026-04-25T09:47:02.746Z</time></trkpt><trkpt lat="38.1209802" lon="15.8358423"><ele>1446.0</ele><time>2026-04-25T09:47:03.743Z</time></trkpt><trkpt lat="38.1210123" lon="15.8357044"><ele>1436.25</ele><time>2026-04-25T09:47:04.745Z</time></trkpt><trkpt lat="38.1210322" lon="15.8355434"><ele>1426.5</ele><time>2026-04-25T09:47:05.769Z</time></trkpt><trkpt lat="38.1210479" lon="15.8353712"><ele>1416.75</ele><time>2026-04-25T09:47:06.77Z</time></trkpt><trkpt lat="38.12107" lon="15.8352046"><ele>1407.0</ele><time>2026-04-25T09:47:07.752Z</time></trkpt><trkpt lat="38.1211097" lon="15.8350541"><ele>1403.25</ele><time>2026-04-25T09:47:08.759Z</time></trkpt><trkpt lat="38.1211556" lon="15.8349123"><ele>1399.5</ele><time>2026-04-25T09:47:09.75Z</time></trkpt><trkpt lat="38.1212184" lon="15.8347777"><ele>1395.75</ele><time>2026-04-25T09:47:10.742Z</time></trkpt><trkpt lat="38.1212835" lon="15.834642"><ele>1392.0</ele><time>2026-04-25T09:47:11.777Z</time></trkpt><trkpt lat="38.1213413" lon="15.8344954"><ele>1392.0</ele><time>2026-04-25T09:47:12.746Z</time></trkpt><trkpt lat="38.1213923" lon="15.8343402"><ele>1392.0</ele><time>2026-04-25T09:47:13.757Z</time></trkpt><trkpt lat="38.1214296" lon="15.8341801"><ele>1392.0</ele><time>2026-04-25T09:47:14.749Z</time></trkpt><trkpt lat="38.121454" lon="15.8340203"><ele>1392.0</ele><time>2026-04-25T09:47:15.757Z</time></trkpt><trkpt lat="38.1214632" lon="15.8338665"><ele>1393.5</ele><time>2026-04-25T09:47:16.747Z</time></trkpt><trkpt lat="38.1214526" lon="15.8337085"><ele>1395.0</ele><time>2026-04-25T09:47:17.754Z</time></trkpt><trkpt lat="38.1214183" lon="15.833527"><ele>1396.5</ele><time>2026-04-25T09:47:18.746Z</time></trkpt><trkpt lat="38.1213845" lon="15.8333585"><ele>1398.0</ele><time>2026-04-25T09:47:19.748Z</time></trkpt><trkpt lat="38.1213665" lon="15.8332472"><ele>1398.0</ele><time>2026-04-25T09:47:20.754Z</time></trkpt><trkpt lat="38.1213629" lon="15.8331584"><ele>1398.0</ele><time>2026-04-25T09:47:21.756Z</time></trkpt><trkpt lat="38.1214075" lon="15.8330452"><ele>1398.0</ele><time>2026-04-25T09:47:23.753Z</time></trkpt><trkpt lat="38.1215093" lon="15.8329775"><ele>1398.0</ele><time>2026-04-25T09:47:25.755Z</time></trkpt><trkpt lat="38.1215816" lon="15.8329822"><ele>1398.0</ele><time>2026-04-25T09:47:26.743Z</time></trkpt><trkpt lat="38.1216642" lon="15.8329978"><ele>1398.0</ele><time>2026-04-25T09:47:27.763Z</time></trkpt><trkpt lat="38.1217566" lon="15.8330289"><ele>1402.0</ele><time>2026-04-25T09:47:28.756Z</time></trkpt><trkpt lat="38.1218523" lon="15.8330584"><ele>1406.0</ele><time>2026-04-25T09:47:29.752Z</time></trkpt><trkpt lat="38.1219426" lon="15.8330861"><ele>1410.0</ele><time>2026-04-25T09:47:30.747Z</time></trkpt><trkpt lat="38.1220388" lon="15.8331142"><ele>1414.0</ele><time>2026-04-25T09:47:31.752Z</time></trkpt><trkpt lat="38.1221515" lon="15.8331457"><ele>1418.0</ele><time>2026-04-25T09:47:32.767Z</time></trkpt><trkpt lat="38.1222653" lon="15.8331868"><ele>1418.0</ele><time>2026-04-25T09:47:33.753Z</time></trkpt><trkpt lat="38.1223767" lon="15.8332388"><ele>1418.0</ele><time>2026-04-25T09:47:34.754Z</time></trkpt><trkpt lat="38.1224786" lon="15.8333174"><ele>1418.0</ele><time>2026-04-25T09:47:35.759Z</time></trkpt><trkpt lat="38.1225586" lon="15.8334289"><ele>1418.0</ele><time>2026-04-25T09:47:36.748Z</time></trkpt><trkpt lat="38.1226333" lon="15.8335357"><ele>1421.0</ele><time>2026-04-25T09:47:37.761Z</time></trkpt><trkpt lat="38.1226876" lon="15.8336749"><ele>1424.0</ele><time>2026-04-25T09:47:38.746Z</time></trkpt><trkpt lat="38.1227294" lon="15.8338081"><ele>1427.0</ele><time>2026-04-25T09:47:39.769Z</time></trkpt><trkpt lat="38.1227725" lon="15.8339337"><ele>1430.0</ele><time>2026-04-25T09:47:40.755Z</time></trkpt><trkpt lat="38.1228214" lon="15.8340372"><ele>1433.0</ele><time>2026-04-25T09:47:41.769Z</time></trkpt><trkpt lat="38.1228904" lon="15.8341184"><ele>1433.0</ele><time>2026-04-25T09:47:42.752Z</time></trkpt><trkpt lat="38.1229888" lon="15.834148"><ele>1433.0</ele><time>2026-04-25T09:47:43.747Z</time></trkpt><trkpt lat="38.1231097" lon="15.8341307"><ele>1433.0</ele><time>2026-04-25T09:47:44.752Z</time></trkpt><trkpt lat="38.123233" lon="15.8341034"><ele>1433.0</ele><time>2026-04-25T09:47:45.762Z</time></trkpt><trkpt lat="38.1233421" lon="15.8340845"><ele>1433.2</ele><time>2026-04-25T09:47:46.757Z</time></trkpt><trkpt lat="38.1234506" lon="15.834096"><ele>1433.4</ele><time>2026-04-25T09:47:47.765Z</time></trkpt><trkpt lat="38.123546" lon="15.8341413"><ele>1433.6000000000001</ele><time>2026-04-25T09:47:48.745Z</time></trkpt><trkpt lat="38.1236305" lon="15.8342406"><ele>1433.8000000000002</ele><time>2026-04-25T09:47:49.775Z</time></trkpt><trkpt lat="38.1237121" lon="15.8343473"><ele>1434.0</ele><time>2026-04-25T09:47:50.751Z</time></trkpt><trkpt lat="38.1237957" lon="15.8344549"><ele>1434.0</ele><time>2026-04-25T09:47:51.771Z</time></trkpt><trkpt lat="38.1238792" lon="15.834583"><ele>1434.0</ele><time>2026-04-25T09:47:52.749Z</time></trkpt><trkpt lat="38.1239623" lon="15.8347101"><ele>1434.0</ele><time>2026-04-25T09:47:53.749Z</time></trkpt><trkpt lat="38.124039" lon="15.8348121"><ele>1434.0</ele><time>2026-04-25T09:47:54.756Z</time></trkpt><trkpt lat="38.1241232" lon="15.8348813"><ele>1430.0</ele><time>2026-04-25T09:47:55.752Z</time></trkpt><trkpt lat="38.1242019" lon="15.8349245"><ele>1426.0</ele><time>2026-04-25T09:47:56.75Z</time></trkpt><trkpt lat="38.1242728" lon="15.8349328"><ele>1422.0</ele><time>2026-04-25T09:47:57.76Z</time></trkpt><trkpt lat="38.1243439" lon="15.8349032"><ele>1418.0</ele><time>2026-04-25T09:47:58.753Z</time></trkpt><trkpt lat="38.1244014" lon="15.8348481"><ele>1414.0</ele><time>2026-04-25T09:47:59.753Z</time></trkpt><trkpt lat="38.1244598" lon="15.8347573"><ele>1410.0</ele><time>2026-04-25T09:48:00.748Z</time></trkpt><trkpt lat="38.1245084" lon="15.8346231"><ele>1410.0</ele><time>2026-04-25T09:48:01.753Z</time></trkpt><trkpt lat="38.1245542" lon="15.834494"><ele>1410.0</ele><time>2026-04-25T09:48:02.766Z</time></trkpt><trkpt lat="38.1246075" lon="15.8343663"><ele>1410.0</ele><time>2026-04-25T09:48:03.764Z</time></trkpt><trkpt lat="38.1246693" lon="15.8342558"><ele>1410.0</ele><time>2026-04-25T09:48:04.758Z</time></trkpt><trkpt lat="38.1247446" lon="15.8341742"><ele>1410.0</ele><time>2026-04-25T09:48:05.754Z</time></trkpt><trkpt lat="38.1248295" lon="15.834126"><ele>1407.2</ele><time>2026-04-25T09:48:06.754Z</time></trkpt><trkpt lat="38.1249067" lon="15.8340924"><ele>1404.4</ele><time>2026-04-25T09:48:07.772Z</time></trkpt><trkpt lat="38.1250032" lon="15.8340753"><ele>1401.6</ele><time>2026-04-25T09:48:08.752Z</time></trkpt><trkpt lat="38.1251108" lon="15.8340721"><ele>1398.8</ele><time>2026-04-25T09:48:09.765Z</time></trkpt><trkpt lat="38.1252307" lon="15.8340718"><ele>1396.0</ele><time>2026-04-25T09:48:10.765Z</time></trkpt><trkpt lat="38.1253716" lon="15.8341258"><ele>1396.0</ele><time>2026-04-25T09:48:11.76Z</time></trkpt><trkpt lat="38.1255282" lon="15.8342018"><ele>1396.0</ele><time>2026-04-25T09:48:12.755Z</time></trkpt><trkpt lat="38.1256769" lon="15.8342901"><ele>1396.0</ele><time>2026-04-25T09:48:13.757Z</time></trkpt><trkpt lat="38.125804" lon="15.8343897"><ele>1398.5</ele><time>2026-04-25T09:48:14.753Z</time></trkpt><trkpt lat="38.125879" lon="15.8345145"><ele>1401.0</ele><time>2026-04-25T09:48:15.758Z</time></trkpt><trkpt lat="38.1259149" lon="15.8346712"><ele>1403.5</ele><time>2026-04-25T09:48:16.763Z</time></trkpt><trkpt lat="38.1259482" lon="15.834823"><ele>1406.0</ele><time>2026-04-25T09:48:17.762Z</time></trkpt><trkpt lat="38.1259917" lon="15.8349665"><ele>1406.0</ele><time>2026-04-25T09:48:18.752Z</time></trkpt><trkpt lat="38.1260586" lon="15.8350911"><ele>1406.0</ele><time>2026-04-25T09:48:19.781Z</time></trkpt><trkpt lat="38.1261681" lon="15.8351904"><ele>1406.0</ele><time>2026-04-25T09:48:20.767Z</time></trkpt><trkpt lat="38.1262941" lon="15.8352914"><ele>1406.0</ele><time>2026-04-25T09:48:21.771Z</time></trkpt><trkpt lat="38.126439" lon="15.8353786"><ele>1406.0</ele><time>2026-04-25T09:48:22.767Z</time></trkpt><trkpt lat="38.1265771" lon="15.8354666"><ele>1406.0</ele><time>2026-04-25T09:48:23.765Z</time></trkpt><trkpt lat="38.1267039" lon="15.8355691"><ele>1406.0</ele><time>2026-04-25T09:48:24.758Z</time></trkpt><trkpt lat="38.1268259" lon="15.8356701"><ele>1406.0</ele><time>2026-04-25T09:48:25.756Z</time></trkpt><trkpt lat="38.1269464" lon="15.8357723"><ele>1406.0</ele><time>2026-04-25T09:48:26.757Z</time></trkpt><trkpt lat="38.1270836" lon="15.8358582"><ele>1406.0</ele><time>2026-04-25T09:48:27.763Z</time></trkpt><trkpt lat="38.1272326" lon="15.8359369"><ele>1406.25</ele><time>2026-04-25T09:48:28.76Z</time></trkpt><trkpt lat="38.1273798" lon="15.8360109"><ele>1406.5</ele><time>2026-04-25T09:48:29.772Z</time></trkpt><trkpt lat="38.127507" lon="15.8360691"><ele>1406.75</ele><time>2026-04-25T09:48:30.761Z</time></trkpt><trkpt lat="38.1276103" lon="15.8361034"><ele>1407.0</ele><time>2026-04-25T09:48:31.763Z</time></trkpt><trkpt lat="38.1277031" lon="15.8361095"><ele>1407.0</ele><time>2026-04-25T09:48:32.777Z</time></trkpt><trkpt lat="38.1277893" lon="15.8360763"><ele>1407.0</ele><time>2026-04-25T09:48:33.762Z</time></trkpt><trkpt lat="38.1278791" lon="15.8360097"><ele>1407.0</ele><time>2026-04-25T09:48:34.758Z</time></trkpt><trkpt lat="38.1279796" lon="15.8359467"><ele>1407.0</ele><time>2026-04-25T09:48:35.766Z</time></trkpt><trkpt lat="38.1280738" lon="15.8359096"><ele>1407.0</ele><time>2026-04-25T09:48:36.761Z</time></trkpt><trkpt lat="38.1281699" lon="15.8359383"><ele>1402.25</ele><time>2026-04-25T09:48:37.783Z</time></trkpt><trkpt lat="38.1282518" lon="15.8360001"><ele>1397.5</ele><time>2026-04-25T09:48:38.781Z</time></trkpt><trkpt lat="38.1283407" lon="15.8360941"><ele>1392.75</ele><time>2026-04-25T09:48:39.767Z</time></trkpt><trkpt lat="38.1284314" lon="15.8362057"><ele>1388.0</ele><time>2026-04-25T09:48:40.763Z</time></trkpt><trkpt lat="38.1285209" lon="15.8363199"><ele>1388.0</ele><time>2026-04-25T09:48:41.766Z</time></trkpt><trkpt lat="38.1286062" lon="15.8364417"><ele>1388.0</ele><time>2026-04-25T09:48:42.772Z</time></trkpt><trkpt lat="38.128666" lon="15.8365563"><ele>1388.0</ele><time>2026-04-25T09:48:43.767Z</time></trkpt><trkpt lat="38.1287012" lon="15.8366788"><ele>1388.0</ele><time>2026-04-25T09:48:44.769Z</time></trkpt><trkpt lat="38.1287134" lon="15.8368312"><ele>1392.5</ele><time>2026-04-25T09:48:45.772Z</time></trkpt><trkpt lat="38.1287332" lon="15.8369807"><ele>1397.0</ele><time>2026-04-25T09:48:46.76Z</time></trkpt><trkpt lat="38.1287703" lon="15.8371257"><ele>1401.5</ele><time>2026-04-25T09:48:47.777Z</time></trkpt><trkpt lat="38.1288265" lon="15.837249"><ele>1406.0</ele><time>2026-04-25T09:48:48.77Z</time></trkpt><trkpt lat="38.1288977" lon="15.8373544"><ele>1406.0</ele><time>2026-04-25T09:48:49.762Z</time></trkpt><trkpt lat="38.1289655" lon="15.8374433"><ele>1406.0</ele><time>2026-04-25T09:48:50.772Z</time></trkpt><trkpt lat="38.1290429" lon="15.8374946"><ele>1406.0</ele><time>2026-04-25T09:48:51.766Z</time></trkpt><trkpt lat="38.1291284" lon="15.8375276"><ele>1406.0</ele><time>2026-04-25T09:48:52.767Z</time></trkpt><trkpt lat="38.1292189" lon="15.8375297"><ele>1406.0</ele><time>2026-04-25T09:48:53.772Z</time></trkpt><trkpt lat="38.129322" lon="15.8375049"><ele>1399.0</ele><time>2026-04-25T09:48:54.766Z</time></trkpt><trkpt lat="38.1294261" lon="15.8374606"><ele>1392.0</ele><time>2026-04-25T09:48:55.781Z</time></trkpt><trkpt lat="38.1295141" lon="15.8373813"><ele>1385.0</ele><time>2026-04-25T09:48:56.771Z</time></trkpt><trkpt lat="38.1295967" lon="15.8372477"><ele>1378.0</ele><time>2026-04-25T09:48:57.779Z</time></trkpt><trkpt lat="38.1296801" lon="15.837106"><ele>1378.0</ele><time>2026-04-25T09:48:58.773Z</time></trkpt><trkpt lat="38.1297644" lon="15.8369439"><ele>1378.0</ele><time>2026-04-25T09:48:59.759Z</time></trkpt><trkpt lat="38.1298575" lon="15.8367842"><ele>1378.0</ele><time>2026-04-25T09:49:00.763Z</time></trkpt><trkpt lat="38.1299527" lon="15.8366217"><ele>1377.3333333333333</ele><time>2026-04-25T09:49:01.768Z</time></trkpt><trkpt lat="38.1300456" lon="15.8364422"><ele>1376.6666666666667</ele><time>2026-04-25T09:49:02.763Z</time></trkpt><trkpt lat="38.1301394" lon="15.8362633"><ele>1376.0</ele><time>2026-04-25T09:49:03.779Z</time></trkpt><trkpt lat="38.130236" lon="15.8360856"><ele>1373.5</ele><time>2026-04-25T09:49:04.784Z</time></trkpt><trkpt lat="38.130329" lon="15.83591"><ele>1371.0</ele><time>2026-04-25T09:49:05.763Z</time></trkpt><trkpt lat="38.1304115" lon="15.8357541"><ele>1368.5</ele><time>2026-04-25T09:49:06.767Z</time></trkpt><trkpt lat="38.1304909" lon="15.83563"><ele>1366.0</ele><time>2026-04-25T09:49:07.782Z</time></trkpt><trkpt lat="38.1305576" lon="15.8355673"><ele>1366.0</ele><time>2026-04-25T09:49:08.772Z</time></trkpt><trkpt lat="38.1306249" lon="15.8355211"><ele>1366.0</ele><time>2026-04-25T09:49:09.771Z</time></trkpt><trkpt lat="38.1306895" lon="15.8354993"><ele>1366.0</ele><time>2026-04-25T09:49:10.765Z</time></trkpt><trkpt lat="38.13078" lon="15.8355409"><ele>1366.0</ele><time>2026-04-25T09:49:11.777Z</time></trkpt><trkpt lat="38.1308754" lon="15.8356084"><ele>1366.0</ele><time>2026-04-25T09:49:12.774Z</time></trkpt><trkpt lat="38.1309833" lon="15.8357046"><ele>1369.5</ele><time>2026-04-25T09:49:13.777Z</time></trkpt><trkpt lat="38.1310966" lon="15.8358055"><ele>1373.0</ele><time>2026-04-25T09:49:14.773Z</time></trkpt><trkpt lat="38.1312138" lon="15.835907"><ele>1376.5</ele><time>2026-04-25T09:49:15.796Z</time></trkpt><trkpt lat="38.1313168" lon="15.8360033"><ele>1380.0</ele><time>2026-04-25T09:49:16.782Z</time></trkpt><trkpt lat="38.1314139" lon="15.8360733"><ele>1380.4</ele><time>2026-04-25T09:49:17.784Z</time></trkpt><trkpt lat="38.1314986" lon="15.8361053"><ele>1380.8</ele><time>2026-04-25T09:49:18.779Z</time></trkpt><trkpt lat="38.1315792" lon="15.8360903"><ele>1381.1999999999998</ele><time>2026-04-25T09:49:19.773Z</time></trkpt><trkpt lat="38.131667" lon="15.836027"><ele>1381.6</ele><time>2026-04-25T09:49:20.678Z</time></trkpt><trkpt lat="38.1317272" lon="15.8359366"><ele>1382.0</ele><time>2026-04-25T09:49:21.668Z</time></trkpt><trkpt lat="38.1317868" lon="15.8358023"><ele>1382.0</ele><time>2026-04-25T09:49:22.783Z</time></trkpt><trkpt lat="38.1318473" lon="15.8356725"><ele>1382.0</ele><time>2026-04-25T09:49:23.773Z</time></trkpt><trkpt lat="38.1319185" lon="15.835578"><ele>1382.0</ele><time>2026-04-25T09:49:24.773Z</time></trkpt><trkpt lat="38.1319897" lon="15.8355308"><ele>1382.0</ele><time>2026-04-25T09:49:25.78Z</time></trkpt><trkpt lat="38.132074" lon="15.8355121"><ele>1382.0</ele><time>2026-04-25T09:49:26.773Z</time></trkpt><trkpt lat="38.1322901" lon="15.8355296"><ele>1382.75</ele><time>2026-04-25T09:49:28.68Z</time></trkpt><trkpt lat="38.1324142" lon="15.8355406"><ele>1383.5</ele><time>2026-04-25T09:49:29.68Z</time></trkpt><trkpt lat="38.1325353" lon="15.8355571"><ele>1384.25</ele><time>2026-04-25T09:49:30.672Z</time></trkpt><trkpt lat="38.1326509" lon="15.8355925"><ele>1385.0</ele><time>2026-04-25T09:49:31.8Z</time></trkpt><trkpt lat="38.1327508" lon="15.8356356"><ele>1385.0</ele><time>2026-04-25T09:49:32.78Z</time></trkpt><trkpt lat="38.1328271" lon="15.8356997"><ele>1385.0</ele><time>2026-04-25T09:49:33.683Z</time></trkpt><trkpt lat="38.1328812" lon="15.835795"><ele>1385.0</ele><time>2026-04-25T09:49:34.677Z</time></trkpt><trkpt lat="38.1329088" lon="15.8359096"><ele>1385.0</ele><time>2026-04-25T09:49:35.707Z</time></trkpt><trkpt lat="38.1329254" lon="15.8360388"><ele>1385.0</ele><time>2026-04-25T09:49:36.691Z</time></trkpt><trkpt lat="38.1329496" lon="15.8361904"><ele>1389.5</ele><time>2026-04-25T09:49:37.686Z</time></trkpt><trkpt lat="38.1329845" lon="15.8363377"><ele>1394.0</ele><time>2026-04-25T09:49:38.684Z</time></trkpt><trkpt lat="38.1330395" lon="15.8364763"><ele>1398.5</ele><time>2026-04-25T09:49:39.693Z</time></trkpt><trkpt lat="38.1330998" lon="15.8366099"><ele>1403.0</ele><time>2026-04-25T09:49:40.689Z</time></trkpt><trkpt lat="38.133154" lon="15.8367479"><ele>1406.5</ele><time>2026-04-25T09:49:41.686Z</time></trkpt><trkpt lat="38.1331881" lon="15.8368994"><ele>1410.0</ele><time>2026-04-25T09:49:42.693Z</time></trkpt><trkpt lat="38.1331994" lon="15.8370587"><ele>1413.5</ele><time>2026-04-25T09:49:43.702Z</time></trkpt><trkpt lat="38.1332022" lon="15.8372161"><ele>1417.0</ele><time>2026-04-25T09:49:44.684Z</time></trkpt><trkpt lat="38.1332181" lon="15.8373614"><ele>1410.1999999999998</ele><time>2026-04-25T09:49:45.691Z</time></trkpt><trkpt lat="38.1332527" lon="15.8374757"><ele>1403.4</ele><time>2026-04-25T09:49:46.685Z</time></trkpt><trkpt lat="38.1333061" lon="15.837572"><ele>1396.6</ele><time>2026-04-25T09:49:47.681Z</time></trkpt><trkpt lat="38.133387" lon="15.8376217"><ele>1389.8000000000002</ele><time>2026-04-25T09:49:48.677Z</time></trkpt><trkpt lat="38.1334817" lon="15.8376306"><ele>1383.0</ele><time>2026-04-25T09:49:49.694Z</time></trkpt><trkpt lat="38.1335723" lon="15.8375758"><ele>1383.0</ele><time>2026-04-25T09:49:50.686Z</time></trkpt><trkpt lat="38.1336422" lon="15.8374944"><ele>1383.0</ele><time>2026-04-25T09:49:51.687Z</time></trkpt><trkpt lat="38.1337023" lon="15.837372"><ele>1383.0</ele><time>2026-04-25T09:49:52.682Z</time></trkpt><trkpt lat="38.1337547" lon="15.8372256"><ele>1383.0</ele><time>2026-04-25T09:49:53.688Z</time></trkpt><trkpt lat="38.1338137" lon="15.8370597"><ele>1383.0</ele><time>2026-04-25T09:49:54.681Z</time></trkpt><trkpt lat="38.1338747" lon="15.8368832"><ele>1383.0</ele><time>2026-04-25T09:49:55.697Z</time></trkpt><trkpt lat="38.1339433" lon="15.8367047"><ele>1383.0</ele><time>2026-04-25T09:49:56.686Z</time></trkpt><trkpt lat="38.1340165" lon="15.8365397"><ele>1382.5</ele><time>2026-04-25T09:49:57.698Z</time></trkpt><trkpt lat="38.1340935" lon="15.8363873"><ele>1382.0</ele><time>2026-04-25T09:49:58.69Z</time></trkpt><trkpt lat="38.1341759" lon="15.8362524"><ele>1381.5</ele><time>2026-04-25T09:49:59.696Z</time></trkpt><trkpt lat="38.1342766" lon="15.8361369"><ele>1381.0</ele><time>2026-04-25T09:50:00.696Z</time></trkpt><trkpt lat="38.1344003" lon="15.8360387"><ele>1378.25</ele><time>2026-04-25T09:50:01.693Z</time></trkpt><trkpt lat="38.1345206" lon="15.8359513"><ele>1375.5</ele><time>2026-04-25T09:50:02.692Z</time></trkpt><trkpt lat="38.1346441" lon="15.8358983"><ele>1372.75</ele><time>2026-04-25T09:50:03.694Z</time></trkpt><trkpt lat="38.1347729" lon="15.8358843"><ele>1370.0</ele><time>2026-04-25T09:50:04.69Z</time></trkpt><trkpt lat="38.1349103" lon="15.8358951"><ele>1370.0</ele><time>2026-04-25T09:50:05.702Z</time></trkpt><trkpt lat="38.1350537" lon="15.8359283"><ele>1370.0</ele><time>2026-04-25T09:50:06.686Z</time></trkpt><trkpt lat="38.1351921" lon="15.8359655"><ele>1370.0</ele><time>2026-04-25T09:50:07.693Z</time></trkpt><trkpt lat="38.1353026" lon="15.8359932"><ele>1370.0</ele><time>2026-04-25T09:50:08.699Z</time></trkpt><trkpt lat="38.1354004" lon="15.8360236"><ele>1372.1666666666667</ele><time>2026-04-25T09:50:09.7Z</time></trkpt><trkpt lat="38.13548" lon="15.8360624"><ele>1374.3333333333335</ele><time>2026-04-25T09:50:10.693Z</time></trkpt><trkpt lat="38.1355484" lon="15.8361033"><ele>1376.5</ele><time>2026-04-25T09:50:11.688Z</time></trkpt><trkpt lat="38.1356161" lon="15.8361437"><ele>1378.6666666666667</ele><time>2026-04-25T09:50:12.699Z</time></trkpt><trkpt lat="38.1356842" lon="15.8361999"><ele>1380.8333333333333</ele><time>2026-04-25T09:50:13.693Z</time></trkpt><trkpt lat="38.1357506" lon="15.8362579"><ele>1383.0</ele><time>2026-04-25T09:50:14.712Z</time></trkpt><trkpt lat="38.1358124" lon="15.8363239"><ele>1383.0</ele><time>2026-04-25T09:50:15.697Z</time></trkpt><trkpt lat="38.1358574" lon="15.8363866"><ele>1383.0</ele><time>2026-04-25T09:50:16.696Z</time></trkpt><trkpt lat="38.1359275" lon="15.8365031"><ele>1383.0</ele><time>2026-04-25T09:50:18.704Z</time></trkpt><trkpt lat="38.1360064" lon="15.8366114"><ele>1383.0</ele><time>2026-04-25T09:50:20.7Z</time></trkpt><trkpt lat="38.1360549" lon="15.8366626"><ele>1383.0</ele><time>2026-04-25T09:50:21.707Z</time></trkpt><trkpt lat="38.1361544" lon="15.836754"><ele>1383.0</ele><time>2026-04-25T09:50:23.698Z</time></trkpt><trkpt lat="38.1362642" lon="15.8368"><ele>1383.0</ele><time>2026-04-25T09:50:25.716Z</time></trkpt><trkpt lat="38.1363622" lon="15.8367927"><ele>1383.0</ele><time>2026-04-25T09:50:27.701Z</time></trkpt><trkpt lat="38.1364405" lon="15.8367275"><ele>1383.0</ele><time>2026-04-25T09:50:29.696Z</time></trkpt><trkpt lat="38.1364829" lon="15.8366568"><ele>1383.0</ele><time>2026-04-25T09:50:31.7Z</time></trkpt><trkpt lat="38.1365116" lon="15.8365816"><ele>1383.0</ele><time>2026-04-25T09:50:34.719Z</time></trkpt><trkpt lat="38.1365012" lon="15.8364959"><ele>1383.0</ele><time>2026-04-25T09:50:43.713Z</time></trkpt><trkpt lat="38.1364663" lon="15.8363515"><ele>1383.0</ele><time>2026-04-25T09:50:45.706Z</time></trkpt><trkpt lat="38.1364379" lon="15.8362322"><ele>1383.0</ele><time>2026-04-25T09:50:46.709Z</time></trkpt><trkpt lat="38.1364147" lon="15.83611"><ele>1383.0</ele><time>2026-04-25T09:50:47.712Z</time></trkpt><trkpt lat="38.1364075" lon="15.8359753"><ele>1383.0</ele><time>2026-04-25T09:50:48.719Z</time></trkpt><trkpt lat="38.1364089" lon="15.8358545"><ele>1382.4285714285716</ele><time>2026-04-25T09:50:49.712Z</time></trkpt><trkpt lat="38.1364071" lon="15.8357431"><ele>1381.857142857143</ele><time>2026-04-25T09:50:50.73Z</time></trkpt><trkpt lat="38.1364166" lon="15.8356433"><ele>1381.2857142857142</ele><time>2026-04-25T09:50:51.717Z</time></trkpt><trkpt lat="38.1364275" lon="15.835563"><ele>1380.7142857142858</ele><time>2026-04-25T09:50:52.73Z</time></trkpt><trkpt lat="38.136446" lon="15.8354859"><ele>1380.142857142857</ele><time>2026-04-25T09:50:53.716Z</time></trkpt><trkpt lat="38.1364733" lon="15.835407"><ele>1379.5714285714287</ele><time>2026-04-25T09:50:54.715Z</time></trkpt><trkpt lat="38.1365067" lon="15.8353363"><ele>1379.0</ele><time>2026-04-25T09:50:55.718Z</time></trkpt><trkpt lat="38.1365632" lon="15.8352708"><ele>1379.0</ele><time>2026-04-25T09:50:56.729Z</time></trkpt><trkpt lat="38.1366207" lon="15.8352138"><ele>1379.0</ele><time>2026-04-25T09:50:57.72Z</time></trkpt><trkpt lat="38.1366847" lon="15.835173"><ele>1379.0</ele><time>2026-04-25T09:50:58.722Z</time></trkpt><trkpt lat="38.1367543" lon="15.8351491"><ele>1379.0</ele><time>2026-04-25T09:50:59.725Z</time></trkpt><trkpt lat="38.1368201" lon="15.8351393"><ele>1379.0</ele><time>2026-04-25T09:51:00.73Z</time></trkpt><trkpt lat="38.1368918" lon="15.8351504"><ele>1379.0</ele><time>2026-04-25T09:51:01.73Z</time></trkpt><trkpt lat="38.1369651" lon="15.8351819"><ele>1379.0</ele><time>2026-04-25T09:51:02.719Z</time></trkpt><trkpt lat="38.1370426" lon="15.8352397"><ele>1379.0</ele><time>2026-04-25T09:51:03.724Z</time></trkpt><trkpt lat="38.1371112" lon="15.8353001"><ele>1379.0</ele><time>2026-04-25T09:51:04.716Z</time></trkpt><trkpt lat="38.1371825" lon="15.8353572"><ele>1379.0</ele><time>2026-04-25T09:51:05.725Z</time></trkpt><trkpt lat="38.1372636" lon="15.8354206"><ele>1379.0</ele><time>2026-04-25T09:51:06.726Z</time></trkpt><trkpt lat="38.1373477" lon="15.8354896"><ele>1379.0</ele><time>2026-04-25T09:51:07.72Z</time></trkpt><trkpt lat="38.1374571" lon="15.8355516"><ele>1383.3333333333335</ele><time>2026-04-25T09:51:08.716Z</time></trkpt><trkpt lat="38.1375946" lon="15.835611"><ele>1387.6666666666667</ele><time>2026-04-25T09:51:09.721Z</time></trkpt><trkpt lat="38.1377422" lon="15.835662"><ele>1392.0</ele><time>2026-04-25T09:51:10.733Z</time></trkpt><trkpt lat="38.1379033" lon="15.8357142"><ele>1392.0</ele><time>2026-04-25T09:51:11.718Z</time></trkpt><trkpt lat="38.1380404" lon="15.8357395"><ele>1392.0</ele><time>2026-04-25T09:51:12.722Z</time></trkpt><trkpt lat="38.1381615" lon="15.8357338"><ele>1392.0</ele><time>2026-04-25T09:51:13.721Z</time></trkpt><trkpt lat="38.138263" lon="15.8356992"><ele>1392.0</ele><time>2026-04-25T09:51:14.723Z</time></trkpt><trkpt lat="38.138332" lon="15.8356537"><ele>1392.0</ele><time>2026-04-25T09:51:15.72Z</time></trkpt><trkpt lat="38.138368" lon="15.8355756"><ele>1391.5</ele><time>2026-04-25T09:51:16.729Z</time></trkpt><trkpt lat="38.1383841" lon="15.8354685"><ele>1391.0</ele><time>2026-04-25T09:51:17.717Z</time></trkpt><trkpt lat="38.1383503" lon="15.8353301"><ele>1390.5</ele><time>2026-04-25T09:51:18.722Z</time></trkpt><trkpt lat="38.1382967" lon="15.835177"><ele>1390.0</ele><time>2026-04-25T09:51:19.716Z</time></trkpt><trkpt lat="38.138267" lon="15.8350045"><ele>1387.5</ele><time>2026-04-25T09:51:20.717Z</time></trkpt><trkpt lat="38.1382524" lon="15.8348096"><ele>1385.0</ele><time>2026-04-25T09:51:21.729Z</time></trkpt><trkpt lat="38.138264" lon="15.8346154"><ele>1382.5</ele><time>2026-04-25T09:51:22.726Z</time></trkpt><trkpt lat="38.1382994" lon="15.8344492"><ele>1380.0</ele><time>2026-04-25T09:51:23.725Z</time></trkpt><trkpt lat="38.1383397" lon="15.8342903"><ele>1378.2</ele><time>2026-04-25T09:51:24.736Z</time></trkpt><trkpt lat="38.1383998" lon="15.8341734"><ele>1376.4</ele><time>2026-04-25T09:51:25.723Z</time></trkpt><trkpt lat="38.1384907" lon="15.8340932"><ele>1374.6</ele><time>2026-04-25T09:51:26.733Z</time></trkpt><trkpt lat="38.138587" lon="15.8340709"><ele>1372.8</ele><time>2026-04-25T09:51:27.735Z</time></trkpt><trkpt lat="38.1386813" lon="15.8340854"><ele>1371.0</ele><time>2026-04-25T09:51:28.729Z</time></trkpt><trkpt lat="38.1387957" lon="15.8341272"><ele>1371.0</ele><time>2026-04-25T09:51:29.731Z</time></trkpt><trkpt lat="38.1389129" lon="15.834168"><ele>1371.0</ele><time>2026-04-25T09:51:30.728Z</time></trkpt><trkpt lat="38.1390367" lon="15.8342011"><ele>1371.0</ele><time>2026-04-25T09:51:31.726Z</time></trkpt><trkpt lat="38.1391641" lon="15.8342027"><ele>1371.0</ele><time>2026-04-25T09:51:32.732Z</time></trkpt><trkpt lat="38.1392862" lon="15.8341571"><ele>1372.0</ele><time>2026-04-25T09:51:33.728Z</time></trkpt><trkpt lat="38.1393975" lon="15.8340702"><ele>1373.0</ele><time>2026-04-25T09:51:34.725Z</time></trkpt><trkpt lat="38.1395057" lon="15.8339806"><ele>1374.0</ele><time>2026-04-25T09:51:35.721Z</time></trkpt><trkpt lat="38.1396081" lon="15.8339106"><ele>1375.0</ele><time>2026-04-25T09:51:36.724Z</time></trkpt><trkpt lat="38.1397127" lon="15.8338709"><ele>1375.0</ele><time>2026-04-25T09:51:37.72Z</time></trkpt><trkpt lat="38.1398271" lon="15.8338774"><ele>1375.0</ele><time>2026-04-25T09:51:38.723Z</time></trkpt><trkpt lat="38.1399355" lon="15.8339131"><ele>1375.0</ele><time>2026-04-25T09:51:39.723Z</time></trkpt><trkpt lat="38.14005" lon="15.8339853"><ele>1375.0</ele><time>2026-04-25T09:51:40.731Z</time></trkpt><trkpt lat="38.140167" lon="15.8340947"><ele>1374.5</ele><time>2026-04-25T09:51:41.737Z</time></trkpt><trkpt lat="38.1402774" lon="15.8342186"><ele>1374.0</ele><time>2026-04-25T09:51:42.733Z</time></trkpt><trkpt lat="38.1403686" lon="15.834356"><ele>1373.5</ele><time>2026-04-25T09:51:43.727Z</time></trkpt><trkpt lat="38.1404386" lon="15.8345008"><ele>1373.0</ele><time>2026-04-25T09:51:44.736Z</time></trkpt><trkpt lat="38.1404975" lon="15.8346047"><ele>1373.4</ele><time>2026-04-25T09:51:45.729Z</time></trkpt><trkpt lat="38.1405467" lon="15.8346601"><ele>1373.8000000000002</ele><time>2026-04-25T09:51:46.743Z</time></trkpt><trkpt lat="38.1406628" lon="15.8346455"><ele>1374.2</ele><time>2026-04-25T09:51:48.724Z</time></trkpt><trkpt lat="38.1407396" lon="15.8345984"><ele>1374.6</ele><time>2026-04-25T09:51:49.73Z</time></trkpt><trkpt lat="38.1408412" lon="15.8345263"><ele>1375.0</ele><time>2026-04-25T09:51:50.741Z</time></trkpt><trkpt lat="38.1409479" lon="15.8344636"><ele>1375.0</ele><time>2026-04-25T09:51:51.732Z</time></trkpt><trkpt lat="38.1410676" lon="15.8344005"><ele>1375.0</ele><time>2026-04-25T09:51:52.735Z</time></trkpt><trkpt lat="38.1411992" lon="15.8343429"><ele>1375.0</ele><time>2026-04-25T09:51:53.737Z</time></trkpt><trkpt lat="38.1413356" lon="15.8342927"><ele>1375.0</ele><time>2026-04-25T09:51:54.729Z</time></trkpt><trkpt lat="38.1414908" lon="15.8342711"><ele>1374.25</ele><time>2026-04-25T09:51:55.736Z</time></trkpt><trkpt lat="38.1416428" lon="15.8342645"><ele>1373.5</ele><time>2026-04-25T09:51:56.731Z</time></trkpt><trkpt lat="38.1417855" lon="15.8342695"><ele>1372.75</ele><time>2026-04-25T09:51:57.733Z</time></trkpt><trkpt lat="38.1419173" lon="15.8342975"><ele>1372.0</ele><time>2026-04-25T09:51:58.745Z</time></trkpt><trkpt lat="38.1420256" lon="15.8343215"><ele>1372.0</ele><time>2026-04-25T09:51:59.73Z</time></trkpt><trkpt lat="38.1420981" lon="15.8343453"><ele>1372.0</ele><time>2026-04-25T09:52:00.73Z</time></trkpt><trkpt lat="38.1421663" lon="15.8343657"><ele>1372.0</ele><time>2026-04-25T09:52:01.735Z</time></trkpt><trkpt lat="38.1422311" lon="15.8343824"><ele>1372.0</ele><time>2026-04-25T09:52:03.731Z</time></trkpt><trkpt lat="38.1423181" lon="15.8344513"><ele>1372.0</ele><time>2026-04-25T09:52:53.751Z</time></trkpt><trkpt lat="38.1423668" lon="15.8345119"><ele>1372.0</ele><time>2026-04-25T09:52:54.756Z</time></trkpt><trkpt lat="38.1424154" lon="15.8346057"><ele>1369.8</ele><time>2026-04-25T09:52:55.747Z</time></trkpt><trkpt lat="38.1424758" lon="15.8347031"><ele>1367.6</ele><time>2026-04-25T09:52:56.754Z</time></trkpt><trkpt lat="38.1425408" lon="15.8347965"><ele>1365.3999999999999</ele><time>2026-04-25T09:52:57.745Z</time></trkpt><trkpt lat="38.1426045" lon="15.8348658"><ele>1363.1999999999998</ele><time>2026-04-25T09:52:58.762Z</time></trkpt><trkpt lat="38.1426803" lon="15.8349073"><ele>1361.0</ele><time>2026-04-25T09:52:59.748Z</time></trkpt><trkpt lat="38.1427675" lon="15.8349238"><ele>1361.0</ele><time>2026-04-25T09:53:00.759Z</time></trkpt><trkpt lat="38.1428621" lon="15.8349112"><ele>1361.0</ele><time>2026-04-25T09:53:01.758Z</time></trkpt><trkpt lat="38.1429468" lon="15.8348932"><ele>1361.0</ele><time>2026-04-25T09:53:02.743Z</time></trkpt><trkpt lat="38.1430231" lon="15.8348784"><ele>1361.0</ele><time>2026-04-25T09:53:03.759Z</time></trkpt><trkpt lat="38.1431008" lon="15.8348701"><ele>1361.0</ele><time>2026-04-25T09:53:04.752Z</time></trkpt><trkpt lat="38.1431725" lon="15.8348668"><ele>1361.0</ele><time>2026-04-25T09:53:05.762Z</time></trkpt><trkpt lat="38.1432402" lon="15.8348722"><ele>1361.3333333333335</ele><time>2026-04-25T09:53:06.754Z</time></trkpt><trkpt lat="38.1433039" lon="15.8348859"><ele>1361.6666666666667</ele><time>2026-04-25T09:53:07.753Z</time></trkpt><trkpt lat="38.1433679" lon="15.8348997"><ele>1362.0</ele><time>2026-04-25T09:53:08.753Z</time></trkpt><trkpt lat="38.1434904" lon="15.8349227"><ele>1362.3333333333333</ele><time>2026-04-25T09:53:10.761Z</time></trkpt><trkpt lat="38.1435596" lon="15.8349479"><ele>1362.6666666666665</ele><time>2026-04-25T09:53:11.757Z</time></trkpt><trkpt lat="38.143636" lon="15.8349735"><ele>1363.0</ele><time>2026-04-25T09:53:12.76Z</time></trkpt><trkpt lat="38.143729" lon="15.8350094"><ele>1363.0</ele><time>2026-04-25T09:53:13.768Z</time></trkpt><trkpt lat="38.1438378" lon="15.8350472"><ele>1363.0</ele><time>2026-04-25T09:53:14.757Z</time></trkpt><trkpt lat="38.1439643" lon="15.8350914"><ele>1363.0</ele><time>2026-04-25T09:53:15.757Z</time></trkpt><trkpt lat="38.144094" lon="15.8351537"><ele>1363.0</ele><time>2026-04-25T09:53:16.752Z</time></trkpt><trkpt lat="38.1442252" lon="15.8352139"><ele>1365.0</ele><time>2026-04-25T09:53:17.761Z</time></trkpt><trkpt lat="38.1443638" lon="15.8352785"><ele>1367.0</ele><time>2026-04-25T09:53:18.746Z</time></trkpt><trkpt lat="38.1444896" lon="15.835338"><ele>1369.0</ele><time>2026-04-25T09:53:19.759Z</time></trkpt><trkpt lat="38.1445908" lon="15.8353963"><ele>1371.0</ele><time>2026-04-25T09:53:20.769Z</time></trkpt><trkpt lat="38.1446825" lon="15.8354798"><ele>1371.0</ele><time>2026-04-25T09:53:21.756Z</time></trkpt><trkpt lat="38.1447725" lon="15.8355803"><ele>1371.0</ele><time>2026-04-25T09:53:22.758Z</time></trkpt><trkpt lat="38.1448587" lon="15.8356737"><ele>1371.0</ele><time>2026-04-25T09:53:23.755Z</time></trkpt><trkpt lat="38.144947" lon="15.8357466"><ele>1371.0</ele><time>2026-04-25T09:53:24.76Z</time></trkpt><trkpt lat="38.1450381" lon="15.8357954"><ele>1371.0</ele><time>2026-04-25T09:53:25.757Z</time></trkpt><trkpt lat="38.1451239" lon="15.8358017"><ele>1367.5</ele><time>2026-04-25T09:53:26.76Z</time></trkpt><trkpt lat="38.1452049" lon="15.8357888"><ele>1364.0</ele><time>2026-04-25T09:53:27.761Z</time></trkpt><trkpt lat="38.1452734" lon="15.8357474"><ele>1360.5</ele><time>2026-04-25T09:53:28.758Z</time></trkpt><trkpt lat="38.1453348" lon="15.8356871"><ele>1357.0</ele><time>2026-04-25T09:53:29.768Z</time></trkpt><trkpt lat="38.1453877" lon="15.8355864"><ele>1353.5</ele><time>2026-04-25T09:53:30.765Z</time></trkpt><trkpt lat="38.1454278" lon="15.835444"><ele>1350.0</ele><time>2026-04-25T09:53:31.764Z</time></trkpt><trkpt lat="38.1454683" lon="15.8352945"><ele>1346.0</ele><time>2026-04-25T09:53:32.779Z</time></trkpt><trkpt lat="38.145507" lon="15.8351213"><ele>1342.0</ele><time>2026-04-25T09:53:33.788Z</time></trkpt><trkpt lat="38.1455477" lon="15.8349589"><ele>1338.0</ele><time>2026-04-25T09:53:34.77Z</time></trkpt><trkpt lat="38.1455879" lon="15.8348201"><ele>1334.0</ele><time>2026-04-25T09:53:35.772Z</time></trkpt><trkpt lat="38.1456288" lon="15.8347252"><ele>1334.0</ele><time>2026-04-25T09:53:36.776Z</time></trkpt><trkpt lat="38.145693" lon="15.8346668"><ele>1334.0</ele><time>2026-04-25T09:53:37.771Z</time></trkpt><trkpt lat="38.1457698" lon="15.8346258"><ele>1334.0</ele><time>2026-04-25T09:53:38.779Z</time></trkpt><trkpt lat="38.1458607" lon="15.8345975"><ele>1334.0</ele><time>2026-04-25T09:53:39.761Z</time></trkpt><trkpt lat="38.1459515" lon="15.8345577"><ele>1334.0</ele><time>2026-04-25T09:53:40.77Z</time></trkpt><trkpt lat="38.146049" lon="15.8344706"><ele>1333.5</ele><time>2026-04-25T09:53:41.769Z</time></trkpt><trkpt lat="38.1461308" lon="15.8343405"><ele>1333.0</ele><time>2026-04-25T09:53:42.774Z</time></trkpt><trkpt lat="38.1462029" lon="15.8342168"><ele>1332.5</ele><time>2026-04-25T09:53:43.777Z</time></trkpt><trkpt lat="38.1462814" lon="15.8341128"><ele>1332.0</ele><time>2026-04-25T09:53:44.77Z</time></trkpt><trkpt lat="38.1463853" lon="15.8340382"><ele>1332.0</ele><time>2026-04-25T09:53:45.783Z</time></trkpt><trkpt lat="38.1464936" lon="15.8339786"><ele>1332.0</ele><time>2026-04-25T09:53:46.782Z</time></trkpt><trkpt lat="38.1466975" lon="15.8338242"><ele>1332.0</ele><time>2026-04-25T09:53:48.673Z</time></trkpt><trkpt lat="38.1467946" lon="15.8337145"><ele>1333.3333333333333</ele><time>2026-04-25T09:53:49.774Z</time></trkpt><trkpt lat="38.1468698" lon="15.8335832"><ele>1334.6666666666665</ele><time>2026-04-25T09:53:50.781Z</time></trkpt><trkpt lat="38.1469339" lon="15.8332444"><ele>1336.0</ele><time>2026-04-25T09:53:52.672Z</time></trkpt><trkpt lat="38.1469437" lon="15.8330675"><ele>1336.0</ele><time>2026-04-25T09:53:53.676Z</time></trkpt><trkpt lat="38.1469585" lon="15.8329071"><ele>1336.0</ele><time>2026-04-25T09:53:54.684Z</time></trkpt><trkpt lat="38.1469824" lon="15.8327539"><ele>1336.0</ele><time>2026-04-25T09:53:55.677Z</time></trkpt><trkpt lat="38.1470143" lon="15.8326291"><ele>1336.0</ele><time>2026-04-25T09:53:56.679Z</time></trkpt><trkpt lat="38.1470654" lon="15.8325414"><ele>1336.0</ele><time>2026-04-25T09:53:57.69Z</time></trkpt><trkpt lat="38.1471527" lon="15.832455"><ele>1333.0</ele><time>2026-04-25T09:53:58.677Z</time></trkpt><trkpt lat="38.1472449" lon="15.8323555"><ele>1330.0</ele><time>2026-04-25T09:53:59.678Z</time></trkpt><trkpt lat="38.1473465" lon="15.8322671"><ele>1327.0</ele><time>2026-04-25T09:54:00.688Z</time></trkpt><trkpt lat="38.1474466" lon="15.8321863"><ele>1324.0</ele><time>2026-04-25T09:54:01.68Z</time></trkpt><trkpt lat="38.1475416" lon="15.8321257"><ele>1330.2</ele><time>2026-04-25T09:54:02.692Z</time></trkpt><trkpt lat="38.1476191" lon="15.8320721"><ele>1336.4</ele><time>2026-04-25T09:54:03.689Z</time></trkpt><trkpt lat="38.1477025" lon="15.8320612"><ele>1342.6</ele><time>2026-04-25T09:54:04.691Z</time></trkpt><trkpt lat="38.1477891" lon="15.8320567"><ele>1348.8</ele><time>2026-04-25T09:54:05.699Z</time></trkpt><trkpt lat="38.1478834" lon="15.8320491"><ele>1355.0</ele><time>2026-04-25T09:54:06.691Z</time></trkpt><trkpt lat="38.1479809" lon="15.8320431"><ele>1355.0</ele><time>2026-04-25T09:54:07.689Z</time></trkpt><trkpt lat="38.1480664" lon="15.8320369"><ele>1355.0</ele><time>2026-04-25T09:54:08.695Z</time></trkpt><trkpt lat="38.14815" lon="15.8319962"><ele>1355.0</ele><time>2026-04-25T09:54:09.708Z</time></trkpt><trkpt lat="38.1482307" lon="15.8318916"><ele>1355.0</ele><time>2026-04-25T09:54:10.693Z</time></trkpt><trkpt lat="38.1483026" lon="15.8317348"><ele>1355.0</ele><time>2026-04-25T09:54:11.701Z</time></trkpt><trkpt lat="38.1483727" lon="15.831621"><ele>1353.8</ele><time>2026-04-25T09:54:12.695Z</time></trkpt><trkpt lat="38.148445" lon="15.8315113"><ele>1352.6</ele><time>2026-04-25T09:54:13.715Z</time></trkpt><trkpt lat="38.1485184" lon="15.8314342"><ele>1351.4</ele><time>2026-04-25T09:54:14.694Z</time></trkpt><trkpt lat="38.1485913" lon="15.8313878"><ele>1350.2</ele><time>2026-04-25T09:54:15.699Z</time></trkpt><trkpt lat="38.1486821" lon="15.8313694"><ele>1349.0</ele><time>2026-04-25T09:54:16.704Z</time></trkpt><trkpt lat="38.1487558" lon="15.8313784"><ele>1349.0</ele><time>2026-04-25T09:54:17.701Z</time></trkpt><trkpt lat="38.1488279" lon="15.8313785"><ele>1349.0</ele><time>2026-04-25T09:54:18.701Z</time></trkpt><trkpt lat="38.1488971" lon="15.8313701"><ele>1349.0</ele><time>2026-04-25T09:54:19.717Z</time></trkpt><trkpt lat="38.148975" lon="15.8313786"><ele>1349.0</ele><time>2026-04-25T09:54:20.703Z</time></trkpt><trkpt lat="38.1490672" lon="15.8314186"><ele>1349.0</ele><time>2026-04-25T09:54:21.704Z</time></trkpt><trkpt lat="38.1491534" lon="15.831485"><ele>1349.0</ele><time>2026-04-25T09:54:22.711Z</time></trkpt><trkpt lat="38.1492344" lon="15.8315669"><ele>1349.8000000000002</ele><time>2026-04-25T09:54:23.708Z</time></trkpt><trkpt lat="38.1493029" lon="15.8316585"><ele>1350.6000000000001</ele><time>2026-04-25T09:54:24.7Z</time></trkpt><trkpt lat="38.1493715" lon="15.8317561"><ele>1351.4</ele><time>2026-04-25T09:54:25.713Z</time></trkpt><trkpt lat="38.1494456" lon="15.8318346"><ele>1352.2</ele><time>2026-04-25T09:54:26.714Z</time></trkpt><trkpt lat="38.1495249" lon="15.8318799"><ele>1353.0</ele><time>2026-04-25T09:54:27.71Z</time></trkpt><trkpt lat="38.1496153" lon="15.8319128"><ele>1353.0</ele><time>2026-04-25T09:54:28.711Z</time></trkpt><trkpt lat="38.1497117" lon="15.8319486"><ele>1353.0</ele><time>2026-04-25T09:54:29.712Z</time></trkpt><trkpt lat="38.1498148" lon="15.8319646"><ele>1353.0</ele><time>2026-04-25T09:54:30.704Z</time></trkpt><trkpt lat="38.1499166" lon="15.8319643"><ele>1353.0</ele><time>2026-04-25T09:54:31.713Z</time></trkpt><trkpt lat="38.1500194" lon="15.8319478"><ele>1353.0</ele><time>2026-04-25T09:54:32.706Z</time></trkpt><trkpt lat="38.1501242" lon="15.831924"><ele>1353.2</ele><time>2026-04-25T09:54:33.704Z</time></trkpt><trkpt lat="38.1502137" lon="15.8318908"><ele>1353.4</ele><time>2026-04-25T09:54:34.707Z</time></trkpt><trkpt lat="38.1502893" lon="15.8318326"><ele>1353.6000000000001</ele><time>2026-04-25T09:54:35.71Z</time></trkpt><trkpt lat="38.1503607" lon="15.8317606"><ele>1353.8000000000002</ele><time>2026-04-25T09:54:36.714Z</time></trkpt><trkpt lat="38.1504416" lon="15.831691"><ele>1354.0</ele><time>2026-04-25T09:54:37.706Z</time></trkpt><trkpt lat="38.1505169" lon="15.8316487"><ele>1352.8333333333333</ele><time>2026-04-25T09:54:38.72Z</time></trkpt><trkpt lat="38.1505794" lon="15.8316271"><ele>1351.6666666666665</ele><time>2026-04-25T09:54:39.717Z</time></trkpt><trkpt lat="38.1507023" lon="15.8316193"><ele>1350.5</ele><time>2026-04-25T09:54:41.719Z</time></trkpt><trkpt lat="38.1507709" lon="15.8316559"><ele>1349.3333333333333</ele><time>2026-04-25T09:54:42.714Z</time></trkpt><trkpt lat="38.1508347" lon="15.8317171"><ele>1348.1666666666667</ele><time>2026-04-25T09:54:43.715Z</time></trkpt><trkpt lat="38.1509056" lon="15.8317848"><ele>1347.0</ele><time>2026-04-25T09:54:44.712Z</time></trkpt><trkpt lat="38.1509897" lon="15.8318349"><ele>1347.0</ele><time>2026-04-25T09:54:45.714Z</time></trkpt><trkpt lat="38.1510748" lon="15.831865"><ele>1347.0</ele><time>2026-04-25T09:54:46.727Z</time></trkpt><trkpt lat="38.1511394" lon="15.8318734"><ele>1347.0</ele><time>2026-04-25T09:54:47.733Z</time></trkpt><trkpt lat="38.1512025" lon="15.8318685"><ele>1347.0</ele><time>2026-04-25T09:54:48.712Z</time></trkpt><trkpt lat="38.1513242" lon="15.8318461"><ele>1347.0</ele><time>2026-04-25T09:54:50.722Z</time></trkpt><trkpt lat="38.1513891" lon="15.8318169"><ele>1347.0</ele><time>2026-04-25T09:54:51.715Z</time></trkpt><trkpt lat="38.1514519" lon="15.8317941"><ele>1347.5</ele><time>2026-04-25T09:54:52.716Z</time></trkpt><trkpt lat="38.1515597" lon="15.831752"><ele>1348.0</ele><time>2026-04-25T09:54:54.729Z</time></trkpt><trkpt lat="38.15167" lon="15.8317329"><ele>1348.5</ele><time>2026-04-25T09:54:56.735Z</time></trkpt><trkpt lat="38.151734" lon="15.8317454"><ele>1349.0</ele><time>2026-04-25T09:54:57.732Z</time></trkpt><trkpt lat="38.1518036" lon="15.8317525"><ele>1349.5</ele><time>2026-04-25T09:54:58.722Z</time></trkpt><trkpt lat="38.1518689" lon="15.8317718"><ele>1350.0</ele><time>2026-04-25T09:54:59.73Z</time></trkpt><trkpt lat="38.1519326" lon="15.8317955"><ele>1351.8</ele><time>2026-04-25T09:55:00.728Z</time></trkpt><trkpt lat="38.1520072" lon="15.8318181"><ele>1353.6</ele><time>2026-04-25T09:55:01.728Z</time></trkpt><trkpt lat="38.1520787" lon="15.8318337"><ele>1355.4</ele><time>2026-04-25T09:55:02.737Z</time></trkpt><trkpt lat="38.1521649" lon="15.8318344"><ele>1357.2</ele><time>2026-04-25T09:55:03.736Z</time></trkpt><trkpt lat="38.1522664" lon="15.8318421"><ele>1359.0</ele><time>2026-04-25T09:55:04.743Z</time></trkpt><trkpt lat="38.1523807" lon="15.8318667"><ele>1359.0</ele><time>2026-04-25T09:55:05.743Z</time></trkpt><trkpt lat="38.1524859" lon="15.8318981"><ele>1359.0</ele><time>2026-04-25T09:55:06.732Z</time></trkpt><trkpt lat="38.1526103" lon="15.8319251"><ele>1359.0</ele><time>2026-04-25T09:55:07.735Z</time></trkpt><trkpt lat="38.152743" lon="15.831951"><ele>1359.0</ele><time>2026-04-25T09:55:08.73Z</time></trkpt><trkpt lat="38.1528842" lon="15.8319775"><ele>1359.0</ele><time>2026-04-25T09:55:09.738Z</time></trkpt><trkpt lat="38.1530409" lon="15.8320301"><ele>1359.0</ele><time>2026-04-25T09:55:10.727Z</time></trkpt><trkpt lat="38.1532255" lon="15.8320924"><ele>1359.0</ele><time>2026-04-25T09:55:11.745Z</time></trkpt><trkpt lat="38.153433" lon="15.8321555"><ele>1356.3333333333333</ele><time>2026-04-25T09:55:12.738Z</time></trkpt><trkpt lat="38.1536153" lon="15.8322218"><ele>1353.6666666666665</ele><time>2026-04-25T09:55:13.742Z</time></trkpt><trkpt lat="38.1537992" lon="15.8322827"><ele>1351.0</ele><time>2026-04-25T09:55:14.732Z</time></trkpt><trkpt lat="38.1539896" lon="15.8323386"><ele>1351.6666666666665</ele><time>2026-04-25T09:55:15.74Z</time></trkpt><trkpt lat="38.1541875" lon="15.8323934"><ele>1352.3333333333333</ele><time>2026-04-25T09:55:16.739Z</time></trkpt><trkpt lat="38.154372" lon="15.8324434"><ele>1353.0</ele><time>2026-04-25T09:55:17.734Z</time></trkpt><trkpt lat="38.1545424" lon="15.8324819"><ele>1353.0</ele><time>2026-04-25T09:55:18.78Z</time></trkpt><trkpt lat="38.1547107" lon="15.8325259"><ele>1353.0</ele><time>2026-04-25T09:55:19.75Z</time></trkpt><trkpt lat="38.1548795" lon="15.832575"><ele>1353.0</ele><time>2026-04-25T09:55:20.731Z</time></trkpt><trkpt lat="38.155043" lon="15.8326396"><ele>1355.3333333333333</ele><time>2026-04-25T09:55:21.739Z</time></trkpt><trkpt lat="38.155196" lon="15.8327149"><ele>1357.6666666666665</ele><time>2026-04-25T09:55:22.743Z</time></trkpt><trkpt lat="38.1553405" lon="15.8327907"><ele>1360.0</ele><time>2026-04-25T09:55:23.749Z</time></trkpt><trkpt lat="38.1554814" lon="15.8328589"><ele>1360.0</ele><time>2026-04-25T09:55:24.75Z</time></trkpt><trkpt lat="38.1556018" lon="15.8329257"><ele>1360.0</ele><time>2026-04-25T09:55:25.759Z</time></trkpt><trkpt lat="38.1557159" lon="15.8329852"><ele>1360.0</ele><time>2026-04-25T09:55:26.743Z</time></trkpt><trkpt lat="38.1558332" lon="15.8330379"><ele>1360.0</ele><time>2026-04-25T09:55:27.746Z</time></trkpt><trkpt lat="38.155966" lon="15.8330658"><ele>1359.0</ele><time>2026-04-25T09:55:28.742Z</time></trkpt><trkpt lat="38.1561133" lon="15.8330869"><ele>1358.0</ele><time>2026-04-25T09:55:29.742Z</time></trkpt><trkpt lat="38.1562877" lon="15.8331161"><ele>1357.0</ele><time>2026-04-25T09:55:30.744Z</time></trkpt><trkpt lat="38.1564686" lon="15.8331211"><ele>1356.6666666666665</ele><time>2026-04-25T09:55:31.758Z</time></trkpt><trkpt lat="38.1566509" lon="15.8331389"><ele>1356.3333333333333</ele><time>2026-04-25T09:55:32.736Z</time></trkpt><trkpt lat="38.1568322" lon="15.8331639"><ele>1356.0</ele><time>2026-04-25T09:55:33.752Z</time></trkpt><trkpt lat="38.1570234" lon="15.8331864"><ele>1356.0</ele><time>2026-04-25T09:55:34.74Z</time></trkpt><trkpt lat="38.1572066" lon="15.8332091"><ele>1356.0</ele><time>2026-04-25T09:55:35.748Z</time></trkpt><trkpt lat="38.1573883" lon="15.8332371"><ele>1356.0</ele><time>2026-04-25T09:55:36.737Z</time></trkpt><trkpt lat="38.1575691" lon="15.833264"><ele>1355.3333333333333</ele><time>2026-04-25T09:55:37.754Z</time></trkpt><trkpt lat="38.1577525" lon="15.8332868"><ele>1354.6666666666665</ele><time>2026-04-25T09:55:38.755Z</time></trkpt><trkpt lat="38.1579304" lon="15.8333128"><ele>1354.0</ele><time>2026-04-25T09:55:39.756Z</time></trkpt><trkpt lat="38.15811" lon="15.8333345"><ele>1353.0</ele><time>2026-04-25T09:55:40.748Z</time></trkpt><trkpt lat="38.1582877" lon="15.8333537"><ele>1352.0</ele><time>2026-04-25T09:55:41.746Z</time></trkpt><trkpt lat="38.1584661" lon="15.8333732"><ele>1351.0</ele><time>2026-04-25T09:55:42.751Z</time></trkpt><trkpt lat="38.1586468" lon="15.833391"><ele>1351.0</ele><time>2026-04-25T09:55:43.773Z</time></trkpt><trkpt lat="38.1588209" lon="15.8334116"><ele>1351.0</ele><time>2026-04-25T09:55:44.758Z</time></trkpt><trkpt lat="38.1589955" lon="15.8334261"><ele>1351.0</ele><time>2026-04-25T09:55:45.755Z</time></trkpt><trkpt lat="38.159164" lon="15.8334298"><ele>1350.5</ele><time>2026-04-25T09:55:46.75Z</time></trkpt><trkpt lat="38.1593226" lon="15.8334351"><ele>1350.0</ele><time>2026-04-25T09:55:47.759Z</time></trkpt><trkpt lat="38.1594659" lon="15.8334459"><ele>1349.5</ele><time>2026-04-25T09:55:48.754Z</time></trkpt><trkpt lat="38.1596039" lon="15.8334458"><ele>1349.0</ele><time>2026-04-25T09:55:49.749Z</time></trkpt><trkpt lat="38.159739" lon="15.8334503"><ele>1347.75</ele><time>2026-04-25T09:55:50.762Z</time></trkpt><trkpt lat="38.1598753" lon="15.8334536"><ele>1346.5</ele><time>2026-04-25T09:55:51.77Z</time></trkpt><trkpt lat="38.160012" lon="15.8334579"><ele>1345.25</ele><time>2026-04-25T09:55:52.755Z</time></trkpt><trkpt lat="38.160143" lon="15.8334625"><ele>1344.0</ele><time>2026-04-25T09:55:53.75Z</time></trkpt><trkpt lat="38.1602788" lon="15.8334702"><ele>1344.0</ele><time>2026-04-25T09:55:54.753Z</time></trkpt><trkpt lat="38.1604089" lon="15.8334661"><ele>1344.0</ele><time>2026-04-25T09:55:55.776Z</time></trkpt><trkpt lat="38.1605306" lon="15.8334577"><ele>1344.0</ele><time>2026-04-25T09:55:56.751Z</time></trkpt><trkpt lat="38.1606476" lon="15.8334548"><ele>1344.0</ele><time>2026-04-25T09:55:57.762Z</time></trkpt><trkpt lat="38.1607545" lon="15.8334531"><ele>1345.0</ele><time>2026-04-25T09:55:58.756Z</time></trkpt><trkpt lat="38.1608527" lon="15.8334769"><ele>1346.0</ele><time>2026-04-25T09:55:59.761Z</time></trkpt><trkpt lat="38.1609432" lon="15.8335155"><ele>1347.0</ele><time>2026-04-25T09:56:00.76Z</time></trkpt><trkpt lat="38.1610147" lon="15.8335816"><ele>1348.0</ele><time>2026-04-25T09:56:01.761Z</time></trkpt><trkpt lat="38.1610786" lon="15.8336666"><ele>1349.0</ele><time>2026-04-25T09:56:02.771Z</time></trkpt><trkpt lat="38.1611354" lon="15.833767"><ele>1349.0</ele><time>2026-04-25T09:56:03.768Z</time></trkpt><trkpt lat="38.1611767" lon="15.8338683"><ele>1349.0</ele><time>2026-04-25T09:56:04.765Z</time></trkpt><trkpt lat="38.1612161" lon="15.8339656"><ele>1349.0</ele><time>2026-04-25T09:56:05.765Z</time></trkpt><trkpt lat="38.1612559" lon="15.8340633"><ele>1349.0</ele><time>2026-04-25T09:56:06.758Z</time></trkpt><trkpt lat="38.1612899" lon="15.8341641"><ele>1349.0</ele><time>2026-04-25T09:56:07.759Z</time></trkpt><trkpt lat="38.1613238" lon="15.8342713"><ele>1349.0</ele><time>2026-04-25T09:56:08.761Z</time></trkpt><trkpt lat="38.1613655" lon="15.8343925"><ele>1347.75</ele><time>2026-04-25T09:56:09.776Z</time></trkpt><trkpt lat="38.1614298" lon="15.8345207"><ele>1346.5</ele><time>2026-04-25T09:56:10.778Z</time></trkpt><trkpt lat="38.161507" lon="15.8346502"><ele>1345.25</ele><time>2026-04-25T09:56:11.774Z</time></trkpt><trkpt lat="38.1615913" lon="15.8347668"><ele>1344.0</ele><time>2026-04-25T09:56:12.769Z</time></trkpt><trkpt lat="38.1616624" lon="15.8348871"><ele>1344.0</ele><time>2026-04-25T09:56:13.761Z</time></trkpt><trkpt lat="38.1617118" lon="15.8350144"><ele>1344.0</ele><time>2026-04-25T09:56:14.762Z</time></trkpt><trkpt lat="38.1617416" lon="15.835147"><ele>1344.0</ele><time>2026-04-25T09:56:15.768Z</time></trkpt><trkpt lat="38.1617623" lon="15.8352795"><ele>1344.0</ele><time>2026-04-25T09:56:16.766Z</time></trkpt><trkpt lat="38.1617683" lon="15.8354216"><ele>1344.0</ele><time>2026-04-25T09:56:17.766Z</time></trkpt><trkpt lat="38.1617618" lon="15.8355699"><ele>1343.5</ele><time>2026-04-25T09:56:18.764Z</time></trkpt><trkpt lat="38.1617436" lon="15.8357166"><ele>1343.0</ele><time>2026-04-25T09:56:19.775Z</time></trkpt><trkpt lat="38.1617088" lon="15.835859"><ele>1342.5</ele><time>2026-04-25T09:56:20.783Z</time></trkpt><trkpt lat="38.1616636" lon="15.8360082"><ele>1342.0</ele><time>2026-04-25T09:56:21.774Z</time></trkpt><trkpt lat="38.1616248" lon="15.8361535"><ele>1341.6</ele><time>2026-04-25T09:56:22.789Z</time></trkpt><trkpt lat="38.1615921" lon="15.8362951"><ele>1341.1999999999998</ele><time>2026-04-25T09:56:23.769Z</time></trkpt><trkpt lat="38.1615616" lon="15.8364115"><ele>1340.8</ele><time>2026-04-25T09:56:24.776Z</time></trkpt><trkpt lat="38.1615471" lon="15.836509"><ele>1340.4</ele><time>2026-04-25T09:56:25.776Z</time></trkpt><trkpt lat="38.1615541" lon="15.8365916"><ele>1340.0</ele><time>2026-04-25T09:56:26.773Z</time></trkpt><trkpt lat="38.161629" lon="15.8366984"><ele>1340.0</ele><time>2026-04-25T09:56:28.784Z</time></trkpt><trkpt lat="38.1616968" lon="15.8367385"><ele>1340.0</ele><time>2026-04-25T09:56:29.767Z</time></trkpt><trkpt lat="38.1617986" lon="15.8367466"><ele>1340.0</ele><time>2026-04-25T09:56:30.783Z</time></trkpt><trkpt lat="38.1619151" lon="15.8367251"><ele>1340.0</ele><time>2026-04-25T09:56:31.775Z</time></trkpt><trkpt lat="38.1620203" lon="15.8366806"><ele>1340.0</ele><time>2026-04-25T09:56:32.775Z</time></trkpt><trkpt lat="38.1621105" lon="15.8365881"><ele>1340.0</ele><time>2026-04-25T09:56:33.779Z</time></trkpt><trkpt lat="38.1621969" lon="15.8364628"><ele>1340.0</ele><time>2026-04-25T09:56:34.689Z</time></trkpt><trkpt lat="38.162259" lon="15.8363153"><ele>1340.0</ele><time>2026-04-25T09:56:35.693Z</time></trkpt><trkpt lat="38.1623302" lon="15.8361703"><ele>1340.0</ele><time>2026-04-25T09:56:36.679Z</time></trkpt><trkpt lat="38.1624061" lon="15.836035"><ele>1336.0</ele><time>2026-04-25T09:56:37.673Z</time></trkpt><trkpt lat="38.1625089" lon="15.8359015"><ele>1332.0</ele><time>2026-04-25T09:56:38.687Z</time></trkpt><trkpt lat="38.1626411" lon="15.8357622"><ele>1328.0</ele><time>2026-04-25T09:56:39.683Z</time></trkpt><trkpt lat="38.1627609" lon="15.8356037"><ele>1328.0</ele><time>2026-04-25T09:56:40.688Z</time></trkpt><trkpt lat="38.1628713" lon="15.8354436"><ele>1328.0</ele><time>2026-04-25T09:56:41.682Z</time></trkpt><trkpt lat="38.162971" lon="15.8352724"><ele>1328.0</ele><time>2026-04-25T09:56:42.679Z</time></trkpt><trkpt lat="38.1630672" lon="15.8350854"><ele>1328.75</ele><time>2026-04-25T09:56:43.688Z</time></trkpt><trkpt lat="38.1631577" lon="15.8349189"><ele>1329.5</ele><time>2026-04-25T09:56:44.692Z</time></trkpt><trkpt lat="38.163245" lon="15.8347816"><ele>1330.25</ele><time>2026-04-25T09:56:45.675Z</time></trkpt><trkpt lat="38.1633474" lon="15.8346767"><ele>1331.0</ele><time>2026-04-25T09:56:46.683Z</time></trkpt><trkpt lat="38.1634664" lon="15.8345766"><ele>1331.0</ele><time>2026-04-25T09:56:47.687Z</time></trkpt><trkpt lat="38.1635963" lon="15.8344915"><ele>1331.0</ele><time>2026-04-25T09:56:48.683Z</time></trkpt><trkpt lat="38.1637339" lon="15.8344242"><ele>1331.0</ele><time>2026-04-25T09:56:49.684Z</time></trkpt><trkpt lat="38.163885" lon="15.8343752"><ele>1331.0</ele><time>2026-04-25T09:56:50.694Z</time></trkpt><trkpt lat="38.1640479" lon="15.834333"><ele>1329.5</ele><time>2026-04-25T09:56:51.695Z</time></trkpt><trkpt lat="38.1642055" lon="15.8343006"><ele>1328.0</ele><time>2026-04-25T09:56:52.704Z</time></trkpt><trkpt lat="38.1643389" lon="15.8342784"><ele>1326.5</ele><time>2026-04-25T09:56:53.698Z</time></trkpt><trkpt lat="38.164461" lon="15.8342617"><ele>1325.0</ele><time>2026-04-25T09:56:54.689Z</time></trkpt><trkpt lat="38.1645609" lon="15.8342552"><ele>1325.0</ele><time>2026-04-25T09:56:55.686Z</time></trkpt><trkpt lat="38.1646552" lon="15.8342664"><ele>1325.0</ele><time>2026-04-25T09:56:56.687Z</time></trkpt><trkpt lat="38.1647403" lon="15.8343214"><ele>1325.0</ele><time>2026-04-25T09:56:57.692Z</time></trkpt><trkpt lat="38.1648033" lon="15.8343978"><ele>1325.0</ele><time>2026-04-25T09:56:58.688Z</time></trkpt><trkpt lat="38.1648476" lon="15.834506"><ele>1325.0</ele><time>2026-04-25T09:56:59.684Z</time></trkpt><trkpt lat="38.1648671" lon="15.8346171"><ele>1326.142857142857</ele><time>2026-04-25T09:57:00.7Z</time></trkpt><trkpt lat="38.1648686" lon="15.8347245"><ele>1327.2857142857142</ele><time>2026-04-25T09:57:01.692Z</time></trkpt><trkpt lat="38.1648732" lon="15.834825"><ele>1328.4285714285713</ele><time>2026-04-25T09:57:02.684Z</time></trkpt><trkpt lat="38.1648993" lon="15.8349063"><ele>1329.5714285714284</ele><time>2026-04-25T09:57:03.686Z</time></trkpt><trkpt lat="38.1649531" lon="15.8349682"><ele>1330.7142857142858</ele><time>2026-04-25T09:57:04.705Z</time></trkpt><trkpt lat="38.1650125" lon="15.83501"><ele>1331.8571428571427</ele><time>2026-04-25T09:57:05.695Z</time></trkpt><trkpt lat="38.1650833" lon="15.8350249"><ele>1333.0</ele><time>2026-04-25T09:57:06.706Z</time></trkpt><trkpt lat="38.1652147" lon="15.8349493"><ele>1333.0</ele><time>2026-04-25T09:57:08.699Z</time></trkpt><trkpt lat="38.1652826" lon="15.8348926"><ele>1333.0</ele><time>2026-04-25T09:57:09.7Z</time></trkpt><trkpt lat="38.165376" lon="15.8347941"><ele>1333.0</ele><time>2026-04-25T09:57:10.694Z</time></trkpt><trkpt lat="38.1654595" lon="15.8346958"><ele>1333.0</ele><time>2026-04-25T09:57:11.691Z</time></trkpt><trkpt lat="38.1655558" lon="15.8345962"><ele>1333.0</ele><time>2026-04-25T09:57:12.698Z</time></trkpt><trkpt lat="38.16565" lon="15.8345083"><ele>1331.5</ele><time>2026-04-25T09:57:13.699Z</time></trkpt><trkpt lat="38.1657529" lon="15.8344363"><ele>1330.0</ele><time>2026-04-25T09:57:14.71Z</time></trkpt><trkpt lat="38.1658681" lon="15.8344013"><ele>1328.5</ele><time>2026-04-25T09:57:15.695Z</time></trkpt><trkpt lat="38.1659848" lon="15.8343868"><ele>1327.0</ele><time>2026-04-25T09:57:16.702Z</time></trkpt><trkpt lat="38.1660841" lon="15.8344017"><ele>1327.0</ele><time>2026-04-25T09:57:17.709Z</time></trkpt><trkpt lat="38.1661759" lon="15.8344654"><ele>1327.0</ele><time>2026-04-25T09:57:18.7Z</time></trkpt><trkpt lat="38.1662697" lon="15.834548"><ele>1327.0</ele><time>2026-04-25T09:57:19.713Z</time></trkpt><trkpt lat="38.166363" lon="15.8346296"><ele>1327.0</ele><time>2026-04-25T09:57:20.699Z</time></trkpt><trkpt lat="38.1664592" lon="15.8347102"><ele>1327.0</ele><time>2026-04-25T09:57:21.698Z</time></trkpt><trkpt lat="38.166554" lon="15.8347997"><ele>1325.6</ele><time>2026-04-25T09:57:22.704Z</time></trkpt><trkpt lat="38.16664" lon="15.8348766"><ele>1324.1999999999998</ele><time>2026-04-25T09:57:23.702Z</time></trkpt><trkpt lat="38.1667171" lon="15.8349586"><ele>1322.8</ele><time>2026-04-25T09:57:24.699Z</time></trkpt><trkpt lat="38.1667868" lon="15.8350377"><ele>1321.4</ele><time>2026-04-25T09:57:25.698Z</time></trkpt><trkpt lat="38.1668539" lon="15.8351138"><ele>1320.0</ele><time>2026-04-25T09:57:26.707Z</time></trkpt><trkpt lat="38.1669135" lon="15.8351998"><ele>1320.0</ele><time>2026-04-25T09:57:27.706Z</time></trkpt><trkpt lat="38.1669716" lon="15.8352884"><ele>1320.0</ele><time>2026-04-25T09:57:28.707Z</time></trkpt><trkpt lat="38.1670282" lon="15.835383"><ele>1320.0</ele><time>2026-04-25T09:57:29.704Z</time></trkpt><trkpt lat="38.1670655" lon="15.8354842"><ele>1320.0</ele><time>2026-04-25T09:57:30.705Z</time></trkpt><trkpt lat="38.1671012" lon="15.8355697"><ele>1320.0</ele><time>2026-04-25T09:57:31.711Z</time></trkpt><trkpt lat="38.1671345" lon="15.8356488"><ele>1320.0</ele><time>2026-04-25T09:57:32.701Z</time></trkpt><trkpt lat="38.1671658" lon="15.8357237"><ele>1320.0</ele><time>2026-04-25T09:57:33.699Z</time></trkpt><trkpt lat="38.1671958" lon="15.8358442"><ele>1320.0</ele><time>2026-04-25T09:57:35.706Z</time></trkpt><trkpt lat="38.1672066" lon="15.8359334"><ele>1320.0</ele><time>2026-04-25T09:57:37.705Z</time></trkpt><trkpt lat="38.167202" lon="15.8360191"><ele>1320.0</ele><time>2026-04-25T09:57:44.704Z</time></trkpt><trkpt lat="38.1671745" lon="15.8361003"><ele>1320.0</ele><time>2026-04-25T09:57:47.716Z</time></trkpt><trkpt lat="38.1671139" lon="15.8361643"><ele>1320.0</ele><time>2026-04-25T09:57:50.713Z</time></trkpt><trkpt lat="38.1670478" lon="15.8362385"><ele>1320.1428571428573</ele><time>2026-04-25T09:57:55.712Z</time></trkpt><trkpt lat="38.1669876" lon="15.8362814"><ele>1320.2857142857142</ele><time>2026-04-25T09:57:57.713Z</time></trkpt><trkpt lat="38.1669172" lon="15.8363451"><ele>1320.4285714285716</ele><time>2026-04-25T09:57:59.712Z</time></trkpt><trkpt lat="38.1668568" lon="15.8363912"><ele>1320.5714285714287</ele><time>2026-04-25T09:58:01.713Z</time></trkpt><trkpt lat="38.1668023" lon="15.8364418"><ele>1320.7142857142858</ele><time>2026-04-25T09:58:03.719Z</time></trkpt><trkpt lat="38.1667473" lon="15.8365002"><ele>1320.857142857143</ele><time>2026-04-25T09:58:06.72Z</time></trkpt><trkpt lat="38.1667012" lon="15.8365875"><ele>1321.0</ele><time>2026-04-25T09:58:10.727Z</time></trkpt><trkpt lat="38.1666923" lon="15.8366722"><ele>1321.0</ele><time>2026-04-25T09:58:14.724Z</time></trkpt><trkpt lat="38.166683" lon="15.8367549"><ele>1321.0</ele><time>2026-04-25T09:58:22.728Z</time></trkpt><trkpt lat="38.1666711" lon="15.8368687"><ele>1321.0</ele><time>2026-04-25T09:58:31.734Z</time></trkpt><trkpt lat="38.1666299" lon="15.8369699"><ele>1321.0</ele><time>2026-04-25T09:58:34.74Z</time></trkpt><trkpt lat="38.1665893" lon="15.8370648"><ele>1321.0</ele><time>2026-04-25T09:58:36.734Z</time></trkpt><trkpt lat="38.1665449" lon="15.8371596"><ele>1321.0</ele><time>2026-04-25T09:58:38.73Z</time></trkpt><trkpt lat="38.1665179" lon="15.8372387"><ele>1322.5</ele><time>2026-04-25T09:58:40.738Z</time></trkpt><trkpt lat="38.1664743" lon="15.8373256"><ele>1324.0</ele><time>2026-04-25T09:58:42.732Z</time></trkpt><trkpt lat="38.1664413" lon="15.8373951"><ele>1325.5</ele><time>2026-04-25T09:58:43.744Z</time></trkpt><trkpt lat="38.1664052" lon="15.8374677"><ele>1327.0</ele><time>2026-04-25T09:58:44.754Z</time></trkpt><trkpt lat="38.1663585" lon="15.8375558"><ele>1328.5</ele><time>2026-04-25T09:58:45.749Z</time></trkpt><trkpt lat="38.1662938" lon="15.837664"><ele>1330.0</ele><time>2026-04-25T09:58:46.737Z</time></trkpt><trkpt lat="38.1662372" lon="15.8377759"><ele>1331.3333333333333</ele><time>2026-04-25T09:58:47.748Z</time></trkpt><trkpt lat="38.1661892" lon="15.8378844"><ele>1332.6666666666665</ele><time>2026-04-25T09:58:48.737Z</time></trkpt><trkpt lat="38.1661389" lon="15.8379838"><ele>1334.0</ele><time>2026-04-25T09:58:49.746Z</time></trkpt><trkpt lat="38.1660934" lon="15.838073"><ele>1335.3333333333333</ele><time>2026-04-25T09:58:50.74Z</time></trkpt><trkpt lat="38.1660491" lon="15.8381585"><ele>1336.6666666666667</ele><time>2026-04-25T09:58:51.743Z</time></trkpt><trkpt lat="38.1660043" lon="15.8382483"><ele>1338.0</ele><time>2026-04-25T09:58:52.756Z</time></trkpt><trkpt lat="38.1659598" lon="15.8383393"><ele>1338.0</ele><time>2026-04-25T09:58:53.741Z</time></trkpt><trkpt lat="38.1659105" lon="15.8384325"><ele>1338.0</ele><time>2026-04-25T09:58:54.74Z</time></trkpt><trkpt lat="38.1658633" lon="15.8385252"><ele>1338.0</ele><time>2026-04-25T09:58:55.738Z</time></trkpt><trkpt lat="38.1658209" lon="15.8386158"><ele>1338.0</ele><time>2026-04-25T09:58:56.752Z</time></trkpt><trkpt lat="38.1657788" lon="15.8387051"><ele>1338.0</ele><time>2026-04-25T09:58:57.746Z</time></trkpt><trkpt lat="38.165729" lon="15.8387976"><ele>1338.0</ele><time>2026-04-25T09:58:58.743Z</time></trkpt><trkpt lat="38.1656751" lon="15.8388961"><ele>1340.1666666666667</ele><time>2026-04-25T09:58:59.758Z</time></trkpt><trkpt lat="38.1656259" lon="15.8389898"><ele>1342.3333333333333</ele><time>2026-04-25T09:59:00.761Z</time></trkpt><trkpt lat="38.1655809" lon="15.8390797"><ele>1344.5</ele><time>2026-04-25T09:59:01.753Z</time></trkpt><trkpt lat="38.1655287" lon="15.8391616"><ele>1346.6666666666665</ele><time>2026-04-25T09:59:02.746Z</time></trkpt><trkpt lat="38.1654639" lon="15.8392377"><ele>1348.8333333333333</ele><time>2026-04-25T09:59:03.749Z</time></trkpt><trkpt lat="38.1653918" lon="15.8393093"><ele>1351.0</ele><time>2026-04-25T09:59:04.751Z</time></trkpt><trkpt lat="38.1653302" lon="15.8393863"><ele>1352.6</ele><time>2026-04-25T09:59:05.752Z</time></trkpt><trkpt lat="38.1652759" lon="15.8394758"><ele>1354.1999999999998</ele><time>2026-04-25T09:59:06.752Z</time></trkpt><trkpt lat="38.1652204" lon="15.8395742"><ele>1355.8000000000002</ele><time>2026-04-25T09:59:07.75Z</time></trkpt><trkpt lat="38.1651781" lon="15.8396744"><ele>1357.4</ele><time>2026-04-25T09:59:08.746Z</time></trkpt><trkpt lat="38.165141" lon="15.839785"><ele>1359.0</ele><time>2026-04-25T09:59:09.753Z</time></trkpt><trkpt lat="38.1651234" lon="15.8399164"><ele>1359.0</ele><time>2026-04-25T09:59:10.764Z</time></trkpt><trkpt lat="38.1651197" lon="15.8400565"><ele>1359.0</ele><time>2026-04-25T09:59:11.77Z</time></trkpt><trkpt lat="38.1651135" lon="15.8401805"><ele>1359.0</ele><time>2026-04-25T09:59:12.756Z</time></trkpt><trkpt lat="38.165103" lon="15.8403127"><ele>1359.0</ele><time>2026-04-25T09:59:13.771Z</time></trkpt><trkpt lat="38.1650887" lon="15.8404525"><ele>1359.0</ele><time>2026-04-25T09:59:14.762Z</time></trkpt><trkpt lat="38.1650723" lon="15.84057"><ele>1360.5</ele><time>2026-04-25T09:59:15.755Z</time></trkpt><trkpt lat="38.1650628" lon="15.8406611"><ele>1362.0</ele><time>2026-04-25T09:59:16.753Z</time></trkpt><trkpt lat="38.1650398" lon="15.8407565"><ele>1363.5</ele><time>2026-04-25T09:59:18.754Z</time></trkpt><trkpt lat="38.1649667" lon="15.8407198"><ele>1365.0</ele><time>2026-04-25T09:59:21.755Z</time></trkpt><trkpt lat="38.1649087" lon="15.8406101"><ele>1366.5</ele><time>2026-04-25T09:59:23.76Z</time></trkpt><trkpt lat="38.1648393" lon="15.8405092"><ele>1368.0</ele><time>2026-04-25T09:59:25.783Z</time></trkpt><trkpt lat="38.1647722" lon="15.8404379"><ele>1367.9999999999998</ele><time>2026-04-25T09:59:27.765Z</time></trkpt><trkpt lat="38.1647178" lon="15.8403804"><ele>1368.0</ele><time>2026-04-25T09:59:29.762Z</time></trkpt><trkpt lat="38.1646199" lon="15.840409"><ele>1368.0</ele><time>2026-04-25T09:59:32.769Z</time></trkpt><trkpt lat="38.1645476" lon="15.8404195"><ele>1368.0</ele><time>2026-04-25T09:59:34.77Z</time></trkpt><trkpt lat="38.1645187" lon="15.8403378"><ele>1368.0</ele><time>2026-04-25T10:02:11.751Z</time></trkpt><trkpt lat="38.1645227" lon="15.8402573"><ele>1367.9999999999998</ele><time>2026-04-25T10:02:26.116Z</time></trkpt><trkpt lat="38.1644709" lon="15.8401968"><ele>1368.0</ele><time>2026-04-25T10:04:38.022Z</time></trkpt><trkpt lat="38.1645633" lon="15.8403784"><ele>1368.0</ele><time>2026-04-25T10:05:13.613Z</time></trkpt><trkpt lat="38.164583" lon="15.8400805"><ele>1368.0</ele><time>2026-04-25T10:08:06.618Z</time></trkpt><trkpt lat="38.1645629" lon="15.8403813"><ele>1368.0</ele><time>2026-04-25T10:08:25.453Z</time></trkpt><trkpt lat="38.1644555" lon="15.8402205"><ele>1368.0</ele><time>2026-04-25T10:09:35.531Z</time></trkpt><trkpt lat="38.1644023" lon="15.840276"><ele>1368.0</ele><time>2026-04-25T10:09:37.216Z</time></trkpt><trkpt lat="38.1643181" lon="15.8403092"><ele>1368.0</ele><time>2026-04-25T10:09:40.567Z</time></trkpt><trkpt lat="38.164407" lon="15.8402699"><ele>1368.0</ele><time>2026-04-25T10:09:44.57Z</time></trkpt><trkpt lat="38.1645033" lon="15.8402223"><ele>1368.0</ele><time>2026-04-25T10:09:51.21Z</time></trkpt><trkpt lat="38.1645187" lon="15.8403483"><ele>1368.0</ele><time>2026-04-25T10:10:27.428Z</time></trkpt><trkpt lat="38.1634047" lon="15.8381842"><ele>1367.5</ele><time>2026-04-25T10:12:37.507Z</time></trkpt><trkpt lat="38.163688" lon="15.8384353"><ele>1367.0</ele><time>2026-04-25T10:12:41.513Z</time></trkpt><trkpt lat="38.1640058" lon="15.8392135"><ele>1366.0</ele><time>2026-04-25T10:12:50.411Z</time></trkpt><trkpt lat="38.1640472" lon="15.839291"><ele>1365.0</ele><time>2026-04-25T10:12:51.514Z</time></trkpt><trkpt lat="38.1641374" lon="15.8393115"><ele>1364.0</ele><time>2026-04-25T10:12:52.515Z</time></trkpt><trkpt lat="38.1641785" lon="15.8393937"><ele>1363.0</ele><time>2026-04-25T10:12:54.582Z</time></trkpt><trkpt lat="38.1641764" lon="15.8395102"><ele>1362.0</ele><time>2026-04-25T10:12:57.318Z</time></trkpt><trkpt lat="38.1641832" lon="15.8396133"><ele>1361.0</ele><time>2026-04-25T10:13:00.318Z</time></trkpt><trkpt lat="38.1642919" lon="15.8397697"><ele>1360.8</ele><time>2026-04-25T10:13:11.425Z</time></trkpt><trkpt lat="38.1642509" lon="15.8398519"><ele>1360.6</ele><time>2026-04-25T10:13:12.426Z</time></trkpt><trkpt lat="38.1643241" lon="15.8399135"><ele>1360.4</ele><time>2026-04-25T10:13:16.419Z</time></trkpt><trkpt lat="38.1643412" lon="15.8399995"><ele>1360.2</ele><time>2026-04-25T10:13:18.398Z</time></trkpt><trkpt lat="38.1644503" lon="15.8400022"><ele>1360.0</ele><time>2026-04-25T10:13:40.617Z</time></trkpt><trkpt lat="38.1645644" lon="15.8403834"><ele>1364.0</ele><time>2026-04-25T10:13:51.169Z</time></trkpt><trkpt lat="38.1649822" lon="15.8402504"><ele>1368.0</ele><time>2026-04-25T10:15:18.338Z</time></trkpt><trkpt lat="38.1648049" lon="15.8403031"><ele>1368.0</ele><time>2026-04-25T10:15:20.34Z</time></trkpt><trkpt lat="38.1647158" lon="15.8403208"><ele>1368.0</ele><time>2026-04-25T10:15:21.337Z</time></trkpt><trkpt lat="38.1645896" lon="15.8403188"><ele>1368.0</ele><time>2026-04-25T10:15:22.324Z</time></trkpt><trkpt lat="38.1679864" lon="15.8334798"><ele>1323.0</ele><time>2026-04-25T10:17:34.31Z</time></trkpt><trkpt lat="38.1627276" lon="15.8347276"><ele>1323.0</ele><time>2026-04-25T10:17:43.308Z</time></trkpt><trkpt lat="38.1626261" lon="15.8351048"><ele>1323.0</ele><time>2026-04-25T10:17:53.318Z</time></trkpt><trkpt lat="38.1630488" lon="15.8361859"><ele>1324.8333333333333</ele><time>2026-04-25T10:18:07.453Z</time></trkpt><trkpt lat="38.1630628" lon="15.8362851"><ele>1326.6666666666667</ele><time>2026-04-25T10:18:08.461Z</time></trkpt><trkpt lat="38.1630908" lon="15.8363634"><ele>1328.5</ele><time>2026-04-25T10:18:09.512Z</time></trkpt><trkpt lat="38.16312" lon="15.8364432"><ele>1330.3333333333335</ele><time>2026-04-25T10:18:10.462Z</time></trkpt><trkpt lat="38.1631472" lon="15.8365593"><ele>1332.1666666666667</ele><time>2026-04-25T10:18:11.496Z</time></trkpt><trkpt lat="38.1631843" lon="15.8366691"><ele>1334.0</ele><time>2026-04-25T10:18:12.457Z</time></trkpt><trkpt lat="38.1633866" lon="15.8372035"><ele>1368.0</ele><time>2026-04-25T10:18:17.464Z</time></trkpt><trkpt lat="38.1645632" lon="15.8403817"><ele>1361.0</ele><time>2026-04-25T10:18:35.145Z</time></trkpt><trkpt lat="38.1644339" lon="15.8390448"><ele>1361.0</ele><time>2026-04-25T10:18:40.448Z</time></trkpt><trkpt lat="38.1645079" lon="15.8390796"><ele>1361.0</ele><time>2026-04-25T10:18:42.462Z</time></trkpt><trkpt lat="38.1645494" lon="15.8391478"><ele>1361.0</ele><time>2026-04-25T10:18:43.457Z</time></trkpt><trkpt lat="38.1646459" lon="15.8392968"><ele>1361.0</ele><time>2026-04-25T10:18:45.459Z</time></trkpt><trkpt lat="38.164643" lon="15.8394405"><ele>1361.0</ele><time>2026-04-25T10:18:47.461Z</time></trkpt><trkpt lat="38.1646883" lon="15.8395783"><ele>1360.75</ele><time>2026-04-25T10:18:49.458Z</time></trkpt><trkpt lat="38.1646974" lon="15.8397392"><ele>1360.5</ele><time>2026-04-25T10:18:50.468Z</time></trkpt><trkpt lat="38.1647293" lon="15.8398731"><ele>1360.25</ele><time>2026-04-25T10:18:52.454Z</time></trkpt><trkpt lat="38.1647981" lon="15.8400555"><ele>1360.0</ele><time>2026-04-25T10:18:56.46Z</time></trkpt><trkpt lat="38.1647351" lon="15.8401488"><ele>1361.3333333333333</ele><time>2026-04-25T10:19:02.46Z</time></trkpt><trkpt lat="38.1647217" lon="15.8402278"><ele>1362.6666666666665</ele><time>2026-04-25T10:19:04.455Z</time></trkpt><trkpt lat="38.1645922" lon="15.8402134"><ele>1364.0</ele><time>2026-04-25T10:19:17.461Z</time></trkpt><trkpt lat="38.1645487" lon="15.8402877"><ele>1365.3333333333333</ele><time>2026-04-25T10:19:21.461Z</time></trkpt><trkpt lat="38.1644889" lon="15.8403557"><ele>1366.6666666666667</ele><time>2026-04-25T10:19:23.46Z</time></trkpt><trkpt lat="38.1644539" lon="15.840441"><ele>1368.0</ele><time>2026-04-25T10:19:25.458Z</time></trkpt><trkpt lat="38.1644177" lon="15.8403441"><ele>1368.0</ele><time>2026-04-25T10:20:18.483Z</time></trkpt><trkpt lat="38.164509" lon="15.8402593"><ele>1368.0</ele><time>2026-04-25T10:20:24.482Z</time></trkpt><trkpt lat="38.1644856" lon="15.8401735"><ele>1368.0</ele><time>2026-04-25T10:20:31.485Z</time></trkpt><trkpt lat="38.1644393" lon="15.8401192"><ele>1368.0</ele><time>2026-04-25T10:20:39.485Z</time></trkpt><trkpt lat="38.1644167" lon="15.840005"><ele>1368.0</ele><time>2026-04-25T10:20:45.469Z</time></trkpt><trkpt lat="38.1644614" lon="15.8398945"><ele>1368.0</ele><time>2026-04-25T10:20:50.487Z</time></trkpt><trkpt lat="38.164465" lon="15.8399747"><ele>1368.0</ele><time>2026-04-25T10:20:56.485Z</time></trkpt><trkpt lat="38.1644197" lon="15.8400608"><ele>1368.0</ele><time>2026-04-25T10:20:59.481Z</time></trkpt><trkpt lat="38.1643627" lon="15.8401147"><ele>1368.0</ele><time>2026-04-25T10:21:02.481Z</time></trkpt><trkpt lat="38.164564" lon="15.8403831"><ele>1368.0</ele><time>2026-04-25T10:21:15.052Z</time></trkpt><trkpt lat="38.1645388" lon="15.8403026"><ele>1368.0</ele><time>2026-04-25T10:22:22.508Z</time></trkpt><trkpt lat="38.1645368" lon="15.8401936"><ele>1368.0</ele><time>2026-04-25T10:22:33.213Z</time></trkpt><trkpt lat="38.1645863" lon="15.8401108"><ele>1368.0</ele><time>2026-04-25T10:22:38.21Z</time></trkpt><trkpt lat="38.1645634" lon="15.8403831"><ele>1368.0</ele><time>2026-04-25T10:23:04.959Z</time></trkpt><trkpt lat="38.1646101" lon="15.8403173"><ele>1368.0</ele><time>2026-04-25T10:24:01.59Z</time></trkpt><trkpt lat="38.164619" lon="15.8402227"><ele>1368.0</ele><time>2026-04-25T10:24:20.415Z</time></trkpt><trkpt lat="38.1645638" lon="15.8403821"><ele>1368.0</ele><time>2026-04-25T10:26:47.378Z</time></trkpt><trkpt lat="38.1644089" lon="15.840167"><ele>1368.0</ele><time>2026-04-25T10:26:50.538Z</time></trkpt><trkpt lat="38.1646013" lon="15.8401899"><ele>1367.9999999999998</ele><time>2026-04-25T10:27:14.53Z</time></trkpt><trkpt lat="38.1646149" lon="15.8402707"><ele>1368.0</ele><time>2026-04-25T10:27:18.515Z</time></trkpt><trkpt lat="38.1645909" lon="15.8403525"><ele>1368.0</ele><time>2026-04-25T10:27:23.542Z</time></trkpt><trkpt lat="38.1645198" lon="15.840348"><ele>1368.0</ele><time>2026-04-25T10:28:51.104Z</time></trkpt><trkpt lat="38.1645229" lon="15.8402495"><ele>1368.0</ele><time>2026-04-25T10:29:22.113Z</time></trkpt><trkpt lat="38.1645195" lon="15.8401663"><ele>1367.9999999999998</ele><time>2026-04-25T10:29:27.284Z</time></trkpt><trkpt lat="38.1645796" lon="15.8402048"><ele>1368.0</ele><time>2026-04-25T10:30:29.617Z</time></trkpt><trkpt lat="38.1644999" lon="15.8403179"><ele>1368.0</ele><time>2026-04-25T10:31:55.319Z</time></trkpt><trkpt lat="38.1645279" lon="15.8404081"><ele>1368.0</ele><time>2026-04-25T10:32:13.321Z</time></trkpt><trkpt lat="38.1645678" lon="15.8402824"><ele>1368.0</ele><time>2026-04-25T10:33:03.026Z</time></trkpt><trkpt lat="38.1646222" lon="15.8402344"><ele>1368.0</ele><time>2026-04-25T10:33:06.015Z</time></trkpt><trkpt lat="38.164621" lon="15.8403261"><ele>1368.0</ele><time>2026-04-25T10:33:21.057Z</time></trkpt><trkpt lat="38.1645533" lon="15.8402679"><ele>1368.0</ele><time>2026-04-25T10:35:50.374Z</time></trkpt><trkpt lat="38.1645865" lon="15.8401886"><ele>1368.0</ele><time>2026-04-25T10:36:10.512Z</time></trkpt><trkpt lat="38.1646591" lon="15.8403887"><ele>1368.0</ele><time>2026-04-25T10:36:46.317Z</time></trkpt><trkpt lat="38.1645675" lon="15.8403743"><ele>1368.0</ele><time>2026-04-25T10:36:52.256Z</time></trkpt><trkpt lat="38.1645305" lon="15.8404449"><ele>1368.0</ele><time>2026-04-25T10:37:01.32Z</time></trkpt><trkpt lat="38.164535" lon="15.84034"><ele>1368.0</ele><time>2026-04-25T10:39:08.216Z</time></trkpt><trkpt lat="38.1644732" lon="15.8402811"><ele>1368.0</ele><time>2026-04-25T10:39:24.586Z</time></trkpt><trkpt lat="38.1644423" lon="15.8402106"><ele>1368.0</ele><time>2026-04-25T10:39:27.587Z</time></trkpt><trkpt lat="38.1646309" lon="15.8401881"><ele>1368.0</ele><time>2026-04-25T10:39:53.591Z</time></trkpt><trkpt lat="38.1644647" lon="15.8403175"><ele>1368.0</ele><time>2026-04-25T10:46:38.51Z</time></trkpt><trkpt lat="38.1654705" lon="15.8395903"><ele>1365.75</ele><time>2026-04-25T10:50:20.656Z</time></trkpt><trkpt lat="38.1654159" lon="15.8393348"><ele>1363.5</ele><time>2026-04-25T10:50:21.654Z</time></trkpt><trkpt lat="38.1654341" lon="15.839138"><ele>1361.25</ele><time>2026-04-25T10:50:24.649Z</time></trkpt><trkpt lat="38.1653975" lon="15.8390633"><ele>1359.0</ele><time>2026-04-25T10:50:26.662Z</time></trkpt><trkpt lat="38.1653291" lon="15.8391276"><ele>1359.0</ele><time>2026-04-25T10:50:33.66Z</time></trkpt><trkpt lat="38.1652685" lon="15.8392338"><ele>1359.0</ele><time>2026-04-25T10:50:35.656Z</time></trkpt><trkpt lat="38.165235" lon="15.8393193"><ele>1359.0</ele><time>2026-04-25T10:50:37.663Z</time></trkpt><trkpt lat="38.1646162" lon="15.8401889"><ele>1359.25</ele><time>2026-04-25T10:50:55.35Z</time></trkpt><trkpt lat="38.1645262" lon="15.8404072"><ele>1359.5</ele><time>2026-04-25T10:51:02.205Z</time></trkpt><trkpt lat="38.1645278" lon="15.8402975"><ele>1359.75</ele><time>2026-04-25T10:51:26.652Z</time></trkpt><trkpt lat="38.1645538" lon="15.8402181"><ele>1360.0</ele><time>2026-04-25T10:51:28.658Z</time></trkpt><trkpt lat="38.1645663" lon="15.8400064"><ele>1360.0</ele><time>2026-04-25T10:51:32.668Z</time></trkpt><trkpt lat="38.164545" lon="15.8397928"><ele>1360.0</ele><time>2026-04-25T10:51:37.658Z</time></trkpt><trkpt lat="38.1644874" lon="15.8396799"><ele>1360.0</ele><time>2026-04-25T10:51:42.673Z</time></trkpt><trkpt lat="38.1643141" lon="15.8397943"><ele>1360.0</ele><time>2026-04-25T10:51:58.659Z</time></trkpt><trkpt lat="38.164358" lon="15.8398672"><ele>1360.0</ele><time>2026-04-25T10:52:00.658Z</time></trkpt><trkpt lat="38.1644121" lon="15.8399153"><ele>1360.0</ele><time>2026-04-25T10:52:02.668Z</time></trkpt><trkpt lat="38.1644793" lon="15.839987"><ele>1360.0</ele><time>2026-04-25T10:52:05.65Z</time></trkpt><trkpt lat="38.1645623" lon="15.8402943"><ele>1362.0</ele><time>2026-04-25T10:52:16.492Z</time></trkpt><trkpt lat="38.1645638" lon="15.8403817"><ele>1364.0</ele><time>2026-04-25T10:53:17.504Z</time></trkpt><trkpt lat="38.1643935" lon="15.8403612"><ele>1366.0</ele><time>2026-04-25T10:53:18.663Z</time></trkpt><trkpt lat="38.1642754" lon="15.8403367"><ele>1368.0</ele><time>2026-04-25T10:53:19.658Z</time></trkpt><trkpt lat="38.1641729" lon="15.8403129"><ele>1368.0</ele><time>2026-04-25T10:53:20.662Z</time></trkpt><trkpt lat="38.1641042" lon="15.8402915"><ele>1368.0</ele><time>2026-04-25T10:53:21.669Z</time></trkpt><trkpt lat="38.1640659" lon="15.8402039"><ele>1368.0</ele><time>2026-04-25T10:53:27.668Z</time></trkpt><trkpt lat="38.164182" lon="15.8401918"><ele>1368.0</ele><time>2026-04-25T10:53:30.664Z</time></trkpt><trkpt lat="38.1644514" lon="15.8401805"><ele>1368.0</ele><time>2026-04-25T10:53:37.664Z</time></trkpt><trkpt lat="38.164564" lon="15.8403826"><ele>1368.0</ele><time>2026-04-25T10:54:22.915Z</time></trkpt><trkpt lat="38.1648024" lon="15.8404201"><ele>1368.0</ele><time>2026-04-25T10:55:00.407Z</time></trkpt><trkpt lat="38.1647323" lon="15.8403562"><ele>1368.0</ele><time>2026-04-25T10:55:14.407Z</time></trkpt><trkpt lat="38.1645908" lon="15.8403711"><ele>1368.0</ele><time>2026-04-25T10:55:25.246Z</time></trkpt><trkpt lat="38.1644265" lon="15.8364348"><ele>1364.0</ele><time>2026-04-25T10:55:54.31Z</time></trkpt><trkpt lat="38.164341" lon="15.8367865"><ele>1360.0</ele><time>2026-04-25T10:56:09.318Z</time></trkpt><trkpt lat="38.1642728" lon="15.8394057"><ele>1360.0</ele><time>2026-04-25T10:56:44.314Z</time></trkpt><trkpt lat="38.1643315" lon="15.8394593"><ele>1360.0</ele><time>2026-04-25T10:56:46.308Z</time></trkpt><trkpt lat="38.1643875" lon="15.8394973"><ele>1360.0</ele><time>2026-04-25T10:56:47.316Z</time></trkpt><trkpt lat="38.1644485" lon="15.8395385"><ele>1360.0</ele><time>2026-04-25T10:56:48.322Z</time></trkpt><trkpt lat="38.1645069" lon="15.8395832"><ele>1360.0</ele><time>2026-04-25T10:56:49.315Z</time></trkpt><trkpt lat="38.1646018" lon="15.8396858"><ele>1360.0</ele><time>2026-04-25T10:56:51.317Z</time></trkpt><trkpt lat="38.1646822" lon="15.8397903"><ele>1360.0</ele><time>2026-04-25T10:56:53.314Z</time></trkpt><trkpt lat="38.1647479" lon="15.8398999"><ele>1360.0</ele><time>2026-04-25T10:56:55.314Z</time></trkpt><trkpt lat="38.1647675" lon="15.8400098"><ele>1360.0</ele><time>2026-04-25T10:56:57.319Z</time></trkpt><trkpt lat="38.1647749" lon="15.8401363"><ele>1360.0</ele><time>2026-04-25T10:56:59.314Z</time></trkpt><trkpt lat="38.1647788" lon="15.8402195"><ele>1360.0</ele><time>2026-04-25T10:57:01.313Z</time></trkpt><trkpt lat="38.1647806" lon="15.8403125"><ele>1360.0</ele><time>2026-04-25T10:57:04.322Z</time></trkpt><trkpt lat="38.1647854" lon="15.8403985"><ele>1361.142857142857</ele><time>2026-04-25T10:57:07.314Z</time></trkpt><trkpt lat="38.1647228" lon="15.8404317"><ele>1362.2857142857142</ele><time>2026-04-25T10:57:15.319Z</time></trkpt><trkpt lat="38.1646434" lon="15.8404156"><ele>1363.4285714285713</ele><time>2026-04-25T10:57:28.251Z</time></trkpt><trkpt lat="38.16463" lon="15.8405198"><ele>1364.5714285714284</ele><time>2026-04-25T10:57:33.261Z</time></trkpt><trkpt lat="38.1646131" lon="15.8406022"><ele>1365.7142857142858</ele><time>2026-04-25T10:57:36.26Z</time></trkpt><trkpt lat="38.1645726" lon="15.8405141"><ele>1366.8571428571427</ele><time>2026-04-25T10:57:53.323Z</time></trkpt><trkpt lat="38.1645687" lon="15.8404324"><ele>1368.0</ele><time>2026-04-25T10:58:04.442Z</time></trkpt><trkpt lat="38.1645073" lon="15.8404079"><ele>1368.0</ele><time>2026-04-25T10:58:12.303Z</time></trkpt><trkpt lat="38.1644423" lon="15.8404035"><ele>1368.0</ele><time>2026-04-25T10:58:18.318Z</time></trkpt><trkpt lat="38.1644778" lon="15.8404827"><ele>1368.0</ele><time>2026-04-25T10:58:28.321Z</time></trkpt><trkpt lat="38.1645428" lon="15.840545"><ele>1368.0</ele><time>2026-04-25T10:58:31.318Z</time></trkpt><trkpt lat="38.1647572" lon="15.8405173"><ele>1368.0</ele><time>2026-04-25T10:58:52.319Z</time></trkpt><trkpt lat="38.1646594" lon="15.8403932"><ele>1368.0</ele><time>2026-04-25T10:59:08.316Z</time></trkpt><trkpt lat="38.1645998" lon="15.8404252"><ele>1368.0</ele><time>2026-04-25T10:59:13.303Z</time></trkpt><trkpt lat="38.1645393" lon="15.8404695"><ele>1368.0</ele><time>2026-04-25T10:59:16.31Z</time></trkpt><trkpt lat="38.1644995" lon="15.8405343"><ele>1368.0</ele><time>2026-04-25T10:59:22.316Z</time></trkpt><trkpt lat="38.1645588" lon="15.8404804"><ele>1368.0</ele><time>2026-04-25T10:59:32.317Z</time></trkpt><trkpt lat="38.1647009" lon="15.8404288"><ele>1368.0</ele><time>2026-04-25T10:59:48.319Z</time></trkpt><trkpt lat="38.1647664" lon="15.8403525"><ele>1368.0</ele><time>2026-04-25T10:59:55.319Z</time></trkpt><trkpt lat="38.1647183" lon="15.8402805"><ele>1368.0</ele><time>2026-04-25T10:59:58.358Z</time></trkpt><trkpt lat="38.1646497" lon="15.8402444"><ele>1368.0</ele><time>2026-04-25T11:00:02.103Z</time></trkpt><trkpt lat="38.1645788" lon="15.8402665"><ele>1368.0</ele><time>2026-04-25T11:00:06.105Z</time></trkpt><trkpt lat="38.1644902" lon="15.8402495"><ele>1368.0</ele><time>2026-04-25T11:02:45.222Z</time></trkpt><trkpt lat="38.1645036" lon="15.8403712"><ele>1368.0</ele><time>2026-04-25T11:03:05.225Z</time></trkpt></trkseg></trk></gpx>